
Distance (Route):
Temperature : 12.4°C
Humidity : 99.2%
Pressure : 919.3hPa| Receiver | Frames | First received | Last received |
|---|---|---|---|
| BIOWL1-15 | 698 | 2026-08-31 05:00:51 | 2026-08-31 07:24:37 |
| DM0DOS-11 | 652 | 2026-08-31 05:00:29 | 2026-08-31 07:22:45 |
| HSKMA3-T | 513 | 2026-08-31 05:37:57 | 2026-08-31 07:17:12 |
| DL1XH-west | 397 | 2026-08-31 05:41:23 | 2026-08-31 06:53:43 |
| DL1NUX | 295 | 2026-08-31 05:35:59 | 2026-08-31 07:19:30 |
| DL1XH1-15 | 254 | 2026-08-31 05:42:22 | 2026-08-31 06:53:29 |
| DO3MHA-11 | 217 | 2026-08-31 05:21:24 | 2026-08-31 07:12:33 |
| AA1-15 | 165 | 2026-08-31 06:00:09 | 2026-08-31 06:39:30 |
| DL1XH-15 | 152 | 2026-08-31 05:55:48 | 2026-08-31 06:44:06 |
| DB0UT-7 | 127 | 2026-08-31 04:47:57 | 2026-08-31 07:30:40 |
| DJ2DS-15 | 119 | 2026-08-31 05:28:08 | 2026-08-31 07:02:00 |
| DB0ND-19 | 116 | 2026-08-31 04:49:22 | 2026-08-31 07:32:22 |
| DF7PN | 113 | 2026-08-31 04:52:54 | 2026-08-31 07:30:48 |
| DB0UT-9 | 105 | 2026-08-31 04:45:32 | 2026-08-31 07:30:47 |
| DB0NH | 97 | 2026-08-31 04:59:36 | 2026-08-31 07:30:48 |
| NBG1-10 | 96 | 2026-08-31 05:08:41 | 2026-08-31 07:31:35 |
| DK5PH-5 | 95 | 2026-08-31 04:54:41 | 2026-08-31 07:22:51 |
| DL3AQ-11 | 92 | 2026-08-31 05:42:16 | 2026-08-31 06:54:27 |
| DL1ZP-14 | 85 | 2026-08-31 04:51:30 | 2026-08-31 07:30:58 |
| DF8AY | 81 | 2026-08-31 06:18:25 | 2026-08-31 06:37:45 |
| DL9PN | 75 | 2026-08-31 04:49:23 | 2026-08-31 06:52:06 |
| DL0LBS | 69 | 2026-08-31 05:05:56 | 2026-08-31 07:28:11 |
| BIOWL9-15 | 59 | 2026-08-31 05:02:56 | 2026-08-31 07:17:59 |
| DL4BBY-15 | 58 | 2026-08-31 05:29:16 | 2026-08-31 06:56:12 |
| DD1CC8 | 55 | 2026-08-31 05:24:52 | 2026-08-31 07:12:00 |
| DF2AP-13 | 54 | 2026-08-31 05:30:21 | 2026-08-31 07:22:54 |
| CB1BUN | 53 | 2026-08-31 04:54:30 | 2026-08-31 06:47:35 |
| DL8DAS-14 | 53 | 2026-08-31 05:07:55 | 2026-08-31 07:00:07 |
| HEMX73-11 | 51 | 2026-08-31 04:50:26 | 2026-08-31 06:44:33 |
| DO3DL | 50 | 2026-08-31 05:53:35 | 2026-08-31 07:04:28 |
| DM7RM-13 | 41 | 2026-08-31 05:34:37 | 2026-08-31 07:19:46 |
| SONCRA | 41 | 2026-08-31 05:44:22 | 2026-08-31 07:04:05 |
| DM3KS-11 | 40 | 2026-08-31 04:53:07 | 2026-08-31 05:34:00 |
| GOEST3-10 | 36 | 2026-08-31 06:17:57 | 2026-08-31 06:35:01 |
| DF1GD-15 | 33 | 2026-08-31 05:01:08 | 2026-08-31 07:07:34 |
| SFWM-10 | 31 | 2026-08-31 05:30:32 | 2026-08-31 07:08:53 |
| DO9LL-15 | 31 | 2026-08-31 05:31:26 | 2026-08-31 07:06:32 |
| SO1NDE-10 | 30 | 2026-08-31 05:37:10 | 2026-08-31 07:19:26 |
| BIOWL7-15 | 29 | 2026-08-31 05:04:37 | 2026-08-31 07:22:04 |
| DO1YAY-16 | 29 | 2026-08-31 05:15:10 | 2026-08-31 06:46:53 |
| DL8DAS-15 | 28 | 2026-08-31 05:22:08 | 2026-08-31 06:50:15 |
| DC4HF-4 | 28 | 2026-08-31 05:37:46 | 2026-08-31 07:00:43 |
| DJ2KF-10 | 25 | 2026-08-31 05:33:39 | 2026-08-31 06:59:05 |
| DO8TBO-1 | 25 | 2026-08-31 05:54:34 | 2026-08-31 07:04:42 |
| DH7VM-15 | 23 | 2026-08-31 04:58:06 | 2026-08-31 06:55:29 |
| DF3TZ-5 | 22 | 2026-08-31 05:16:09 | 2026-08-31 06:43:06 |
| DJTTGO | 21 | 2026-08-31 05:40:14 | 2026-08-31 07:09:21 |
| DO2KSM | 20 | 2026-08-31 05:33:26 | 2026-08-31 06:46:28 |
| DL8OAI-8 | 19 | 2026-08-31 05:59:02 | 2026-08-31 06:52:15 |
| SONDE2-11 | 18 | 2026-08-31 06:00:49 | 2026-08-31 06:47:23 |
| BUE01 | 11 | 2026-08-31 05:49:19 | 2026-08-31 06:48:19 |
| DD1CC2-15 | 11 | 2026-08-31 05:52:30 | 2026-08-31 06:35:00 |
| KANTATE | 10 | 2026-08-31 05:34:22 | 2026-08-31 06:38:02 |
| BEGRI65-1 | 8 | 2026-08-31 05:25:47 | 2026-08-31 06:30:43 |
| DK7TD | 7 | 2026-08-31 05:46:20 | 2026-08-31 05:53:57 |
| HTAHTA | 7 | 2026-08-31 05:51:10 | 2026-08-31 06:46:00 |
| EDDB2-11 | 7 | 2026-08-31 06:14:40 | 2026-08-31 06:32:46 |
| EDDB2-12 | 6 | 2026-08-31 06:11:15 | 2026-08-31 06:51:05 |
| AM1SDL-15 | 5 | 2026-08-31 05:47:50 | 2026-08-31 06:41:44 |
| DN1GJH-1 | 5 | 2026-08-31 05:58:11 | 2026-08-31 06:18:34 |
| HEMX73-6 | 4 | 2026-08-31 04:53:25 | 2026-08-31 06:01:00 |
| SP3BTT-10 | 1 | 2026-08-31 06:26:11 | 2026-08-31 06:26:11 |
| DL1CLM-18 | 1 | 2026-08-31 06:32:39 | 2026-08-31 06:32:39 |
| Receiver | Date | Latitude | Longitude | Direction | Speed | Altitude | Climb | Temperature | Humidity | Pressure | Voltage | Killtimer | Uptime | BKT | XDATA |
|---|---|---|---|---|---|---|---|---|---|---|---|---|---|---|---|
| DB0ND-19 | 2026-08-31 07:32:22 | 50.41991 | 9.85515 | 70° | 42km/h | 876m | -3.7m/s | 12.4°C | 99.2% | 919.3hPa | 2.7V | 00:00:00 | 00:00:00 | 00:00:00 | |
| DB0ND-19 | 2026-08-31 07:31:51 | 50.41932 | 9.85333 | 58° | 47km/h | 924m | -3.6m/s | 12.0°C | 98.8% | 914.2hPa | 2.7V | 00:00:00 | 00:00:00 | 00:00:00 | |
| NBG1-10 | 2026-08-31 07:31:35 | 50.41835 | 9.85105 | 52° | 40km/h | 981m | -3.7m/s | 11.6°C | 0% | 908.0hPa | 2.7V | 02:18:00 | 03:02:46 | 00:00:00 | |
| NBG1-10 | 2026-08-31 07:31:28 | 50.41797 | 9.85011 | 65° | 46km/h | 1007m | -3.4m/s | 11.5°C | 0% | 905.3hPa | 2.7V | 00:00:00 | 03:02:39 | 00:00:00 | |
| NBG1-10 | 2026-08-31 07:31:21 | 50.41761 | 9.84894 | 60° | 44km/h | 1030m | -3.1m/s | 11.2°C | 0% | 902.8hPa | 2.7V | 00:00:00 | 03:02:32 | 00:00:00 | |
| DB0ND-19 | 2026-08-31 07:31:20 | 50.41754 | 9.84878 | 56° | 47km/h | 1033m | -2.8m/s | 11.3°C | 100.0% | 902.5hPa | 2.7V | 00:00:00 | 00:00:00 | 00:00:00 | |
| NBG1-10 | 2026-08-31 07:31:14 | 50.41716 | 9.84799 | 59° | 40km/h | 1050m | -3.3m/s | 11.1°C | 98.8% | 900.6hPa | 2.7V | 02:18:00 | 03:02:25 | 00:00:00 | |
| NBG1-10 | 2026-08-31 07:31:07 | 50.41689 | 9.84693 | 70° | 42km/h | 1069m | -2.8m/s | 11.0°C | 99.8% | 898.6hPa | 2.8V | 00:00:00 | 03:02:18 | 00:00:00 | |
| DL1ZP-14 | 2026-08-31 07:30:58 | 50.41646 | 9.84567 | 61° | 37km/h | 1100m | -3.8m/s | 10.8°C | 99.4% | 895.3hPa | 2.8V | 00:00:00 | 00:00:00 | 00:00:00 | |
| DB0ND-19 | 2026-08-31 07:30:49 | 50.41609 | 9.84445 | 68° | 38km/h | 1132m | -2.9m/s | 11.0°C | 100.0% | 891.9hPa | 2.7V | 00:00:00 | 00:00:00 | 00:00:00 | |
| DF7PN | 2026-08-31 07:30:48 | 50.41606 | 9.84430 | 71° | 38km/h | 1135m | -3.8m/s | 10.9°C | 100.0% | 891.7hPa | 2.7V | 00:00:00 | 00:00:00 | 00:00:00 | |
| DB0NH | 2026-08-31 07:30:48 | 50.41606 | 9.84430 | 72° | 46km/h | 1136m | -3.7m/s | 10.9°C | 0% | 891.6hPa | 2.7V | 00:00:00 | 03:01:59 | 00:00:00 | |
| DB0UT-9 | 2026-08-31 07:30:47 | 50.41606 | 9.84430 | 72° | 38km/h | 1136m | -3.8m/s | 10.9°C | 102.8% | 891.7hPa | 2.7V | 02:19:00 | 00:00:00 | 00:00:00 | |
| NBG1-10 | 2026-08-31 07:30:46 | 50.41601 | 9.84400 | 77° | 46km/h | 1142m | -3.4m/s | 10.8°C | 0% | 890.8hPa | 2.7V | 00:00:00 | 03:01:57 | 00:00:00 | |
| DB0UT-7 | 2026-08-31 07:30:40 | 50.41585 | 9.84293 | 76° | 49km/h | 1163m | -3.6m/s | 10.5°C | 0% | 888.8hPa | 2.7V | 02:19:00 | 03:01:51 | 00:00:00 | |
| NBG1-10 | 2026-08-31 07:30:39 | 50.41582 | 9.84275 | 76° | 47km/h | 1167m | -3.0m/s | 10.5°C | 0% | 888.3hPa | 2.7V | 00:00:00 | 03:01:50 | 00:00:00 | |
| DB0NH | 2026-08-31 07:30:38 | 50.41579 | 9.84256 | 78° | 49km/h | 1170m | -3.5m/s | 10.5°C | 0% | 887.8hPa | 2.7V | 02:19:00 | 03:01:49 | 00:00:00 | |
| NBG1-10 | 2026-08-31 07:30:32 | 50.41562 | 9.84144 | 77° | 49km/h | 1191m | -2.7m/s | 10.7°C | 0% | 885.6hPa | 2.7V | 02:19:00 | 03:01:43 | 00:00:00 | |
| DB0UT-7 | 2026-08-31 07:30:30 | 50.41556 | 9.84107 | 78° | 49km/h | 1196m | -2.2m/s | 10.7°C | 0% | 885.0hPa | 2.8V | 00:00:00 | 00:00:00 | 00:00:00 | |
| DB0NH | 2026-08-31 07:30:28 | 50.41550 | 9.84069 | 74° | 47km/h | 1200m | -1.8m/s | 10.7°C | 0% | 884.6hPa | 2.8V | 00:00:00 | 03:01:39 | 00:00:00 | |
| DB0UT-9 | 2026-08-31 07:30:27 | 50.41550 | 9.84069 | 75° | 49km/h | 1200m | -1.8m/s | 10.8°C | 109.9% | 884.6hPa | 2.8V | 00:00:00 | 00:00:00 | 00:00:00 | |
| DL1ZP-14 | 2026-08-31 07:30:27 | 50.41547 | 9.84051 | 76° | 47km/h | 1202m | -2.2m/s | 10.7°C | 100.0% | 884.3hPa | 2.8V | 00:00:00 | 00:00:00 | 00:00:00 | |
| NBG1-10 | 2026-08-31 07:30:25 | 50.41542 | 9.84013 | 79° | 47km/h | 1207m | -2.3m/s | 10.6°C | 0% | 883.7hPa | 2.7V | 00:00:00 | 03:01:36 | 00:00:00 | |
| DB0NH | 2026-08-31 07:30:18 | 50.41519 | 9.83888 | 68° | 42km/h | 1227m | -3.6m/s | 10.5°C | 0% | 881.7hPa | 2.7V | 00:00:00 | 03:01:29 | 00:00:00 | |
| NBG1-10 | 2026-08-31 07:30:18 | 50.41519 | 9.83888 | 68° | 42km/h | 1227m | -3.6m/s | 10.5°C | 0% | 881.7hPa | 2.7V | 00:00:00 | 03:01:29 | 00:00:00 | |
| DF7PN | 2026-08-31 07:30:17 | 50.41515 | 9.83872 | 66° | 42km/h | 1230m | -3.2m/s | 10.6°C | 100.0% | 881.4hPa | 2.7V | 00:00:00 | 00:00:00 | 00:00:00 | |
| DB0UT-7 | 2026-08-31 07:30:10 | 50.41490 | 9.83764 | 78° | 44km/h | 1253m | -3.7m/s | 10.4°C | 0% | 878.7hPa | 2.7V | 02:19:00 | 00:00:00 | 00:00:00 | |
| NBG1-10 | 2026-08-31 07:30:09 | 50.41488 | 9.83749 | 80° | 47km/h | 1257m | -4.2m/s | 10.3°C | 0% | 878.3hPa | 2.7V | 02:19:00 | 03:01:20 | 00:00:00 | |
| DB0NH | 2026-08-31 07:30:08 | 50.41486 | 9.83732 | 82° | 49km/h | 1261m | -3.6m/s | 10.3°C | 0% | 878.1hPa | 2.7V | 02:19:00 | 03:01:19 | 00:00:00 | |
| DB0UT-9 | 2026-08-31 07:30:06 | 50.41485 | 9.83715 | 83° | 44km/h | 1265m | -3.3m/s | 10.2°C | 100.9% | 877.7hPa | 2.7V | 00:00:00 | 00:00:00 | 00:00:00 | |
| DL1ZP-14 | 2026-08-31 07:29:56 | 50.41451 | 9.83506 | 72° | 46km/h | 1307m | -3.6m/s | 9.8°C | 93.5% | 873.3hPa | 2.7V | 00:00:00 | 00:00:00 | 00:00:00 | |
| DB0ND-19 | 2026-08-31 07:29:47 | 50.41435 | 9.83358 | 84° | 42km/h | 1341m | -3.9m/s | 9.5°C | 95.5% | 869.7hPa | 2.7V | 00:00:00 | 00:00:00 | 00:00:00 | |
| DF7PN | 2026-08-31 07:29:46 | 50.41434 | 9.83341 | 83° | 44km/h | 1344m | -3.8m/s | 9.5°C | 96.0% | 869.3hPa | 2.7V | 00:00:00 | 00:00:00 | 00:00:00 | |
| NBG1-10 | 2026-08-31 07:29:40 | 50.41426 | 9.83227 | 79° | 49km/h | 1367m | -3.3m/s | 9.4°C | 94.1% | 867.0hPa | 2.7V | 00:00:00 | 03:00:51 | 00:00:00 | |
| DB0UT-9 | 2026-08-31 07:29:39 | 50.41426 | 9.83227 | 80° | 51km/h | 1367m | -3.4m/s | 9.4°C | 94.6% | 867.1hPa | 2.7V | 02:20:00 | 00:00:00 | 00:00:00 | |
| DB0NH | 2026-08-31 07:29:38 | 50.41419 | 9.83187 | 73° | 47km/h | 1374m | -3.8m/s | 9.4°C | 92.1% | 866.2hPa | 2.7V | 02:20:00 | 03:00:49 | 00:00:00 | |
| NBG1-10 | 2026-08-31 07:29:33 | 50.41400 | 9.83098 | 75° | 47km/h | 1394m | -3.7m/s | 9.4°C | 91.9% | 864.0hPa | 2.7V | 00:00:00 | 03:00:44 | 00:00:00 | |
| DB0NH | 2026-08-31 07:29:28 | 50.41392 | 9.83007 | 84° | 51km/h | 1413m | -3.7m/s | 9.2°C | 92.7% | 862.1hPa | 2.7V | 00:00:00 | 03:00:39 | 00:00:00 | |
| NBG1-10 | 2026-08-31 07:29:26 | 50.41388 | 9.82965 | 82° | 53km/h | 1420m | -3.4m/s | 9.2°C | 93.0% | 861.3hPa | 2.7V | 02:20:00 | 03:00:37 | 00:00:00 | |
| DL1ZP-14 | 2026-08-31 07:29:25 | 50.41383 | 9.82922 | 77° | 53km/h | 1427m | -3.7m/s | 9.2°C | 92.1% | 860.7hPa | 2.8V | 00:00:00 | 00:00:00 | 00:00:00 | |
| NBG1-10 | 2026-08-31 07:29:19 | 50.41365 | 9.82826 | 74° | 44km/h | 1446m | -3.7m/s | 9.0°C | 92.6% | 858.8hPa | 2.7V | 00:00:00 | 03:00:30 | 00:00:00 | |
| DB0NH | 2026-08-31 07:29:18 | 50.41362 | 9.82809 | 77° | 47km/h | 1449m | -3.5m/s | 9.0°C | 92.0% | 858.3hPa | 2.7V | 00:00:00 | 03:00:29 | 00:00:00 | |
| DB0ND-19 | 2026-08-31 07:29:16 | 50.41358 | 9.82776 | 82° | 42km/h | 1456m | -4.0m/s | 9.0°C | 93.1% | 857.7hPa | 2.7V | 00:00:00 | 00:00:00 | 00:00:00 | |
| DF7PN | 2026-08-31 07:29:15 | 50.41356 | 9.82741 | 83° | 46km/h | 1465m | -4.1m/s | 9.0°C | 92.2% | 856.8hPa | 2.7V | 00:00:00 | 00:00:00 | 00:00:00 | |
| NBG1-10 | 2026-08-31 07:29:12 | 50.41353 | 9.82703 | 82° | 51km/h | 1472m | -3.7m/s | 8.9°C | 90.3% | 855.9hPa | 2.7V | 00:00:00 | 03:00:23 | 00:00:00 | |
| DB0UT-7 | 2026-08-31 07:29:12 | 50.41353 | 9.82703 | 82° | 51km/h | 1472m | -3.7m/s | 8.9°C | 90.3% | 855.9hPa | 2.7V | 00:00:00 | 03:00:23 | 00:00:00 | |
| DB0NH | 2026-08-31 07:29:08 | 50.41341 | 9.82622 | 75° | 51km/h | 1488m | -3.6m/s | 8.8°C | 87.5% | 854.4hPa | 2.7V | 02:20:00 | 03:00:19 | 00:00:00 | |
| NBG1-10 | 2026-08-31 07:29:05 | 50.41333 | 9.82566 | 83° | 55km/h | 1499m | -3.7m/s | 8.7°C | 87.3% | 853.3hPa | 2.7V | 02:20:00 | 03:00:16 | 00:00:00 | |
| DL1ZP-14 | 2026-08-31 07:28:54 | 50.41314 | 9.82305 | 80° | 57km/h | 1548m | -4.1m/s | 8.4°C | 90.4% | 848.2hPa | 2.8V | 00:00:00 | 00:00:00 | 00:00:00 | |
| DB0ND-19 | 2026-08-31 07:28:45 | 50.41289 | 9.82131 | 77° | 49km/h | 1578m | -3.6m/s | 8.1°C | 91.4% | 845.2hPa | 2.7V | 00:00:00 | 00:00:00 | 00:00:00 | |
| DF7PN | 2026-08-31 07:28:44 | 50.41285 | 9.82093 | 83° | 49km/h | 1586m | -3.7m/s | 8.1°C | 90.5% | 844.6hPa | 2.7V | 00:00:00 | 00:00:00 | 00:00:00 | |
| DB0UT-7 | 2026-08-31 07:28:42 | 50.41284 | 9.82073 | 85° | 58km/h | 1590m | -3.8m/s | 8.0°C | 89.2% | 844.1hPa | 2.7V | 00:00:00 | 00:00:00 | 00:00:00 | |
| DB0NH | 2026-08-31 07:28:38 | 50.41278 | 9.81982 | 83° | 58km/h | 1604m | -3.6m/s | 8.3°C | 81.3% | 842.5hPa | 2.7V | 02:21:00 | 02:59:49 | 00:00:00 | |
| DB0UT-9 | 2026-08-31 07:28:37 | 50.41278 | 9.81982 | 83° | 60km/h | 1604m | -3.6m/s | 8.4°C | 81.7% | 842.5hPa | 2.7V | 00:00:00 | 00:00:00 | 00:00:00 | |
| DB0UT-7 | 2026-08-31 07:28:32 | 50.41258 | 9.81844 | 80° | 58km/h | 1626m | -3.5m/s | 8.2°C | 81.6% | 840.3hPa | 2.7V | 00:00:00 | 02:59:43 | 00:00:00 | |
| DB0NH | 2026-08-31 07:28:28 | 50.41253 | 9.81753 | 87° | 62km/h | 1640m | -3.6m/s | 8.1°C | 81.5% | 838.8hPa | 2.7V | 00:00:00 | 02:59:39 | 00:00:00 | |
| DL1ZP-14 | 2026-08-31 07:28:23 | 50.41246 | 9.81607 | 83° | 64km/h | 1663m | -3.6m/s | 7.9°C | 84.5% | 836.5hPa | 2.7V | 00:00:00 | 00:00:00 | 00:00:00 | |
| DB0UT-7 | 2026-08-31 07:28:22 | 50.41246 | 9.81607 | 84° | 60km/h | 1663m | -3.6m/s | 7.8°C | 84.1% | 836.4hPa | 2.7V | 02:21:00 | 00:00:00 | 00:00:00 | |
| DB0NH | 2026-08-31 07:28:18 | 50.41234 | 9.81507 | 76° | 57km/h | 1678m | -3.8m/s | 7.7°C | 85.3% | 835.0hPa | 2.7V | 00:00:00 | 02:59:29 | 00:00:00 | |
| DB0UT-9 | 2026-08-31 07:28:17 | 50.41234 | 9.81507 | 76° | 62km/h | 1678m | -3.8m/s | 7.8°C | 85.7% | 835.1hPa | 2.7V | 00:00:00 | 00:00:00 | 00:00:00 | |
| DB0ND-19 | 2026-08-31 07:28:14 | 50.41217 | 9.81417 | 73° | 55km/h | 1693m | -3.9m/s | 7.6°C | 86.0% | 833.5hPa | 2.7V | 00:00:00 | 00:00:00 | 00:00:00 | |
| DF7PN | 2026-08-31 07:28:13 | 50.41210 | 9.81376 | 75° | 51km/h | 1700m | -3.7m/s | 7.5°C | 86.1% | 832.8hPa | 2.7V | 00:00:00 | 00:00:00 | 00:00:00 | |
| DB0UT-7 | 2026-08-31 07:28:12 | 50.41210 | 9.81376 | 76° | 60km/h | 1700m | -3.7m/s | 7.5°C | 85.7% | 832.7hPa | 2.7V | 00:00:00 | 02:59:23 | 00:00:00 | |
| DL0LBS | 2026-08-31 07:28:11 | 50.41210 | 9.81376 | 77° | 53km/h | 1700m | -3.7m/s | 7.5°C | 86.1% | 832.8hPa | 2.7V | 02:21:00 | 00:00:00 | 00:00:00 | |
| NBG1-10 | 2026-08-31 07:28:08 | 50.41201 | 9.81294 | 86° | 57km/h | 1714m | -3.3m/s | 7.4°C | 86.5% | 831.2hPa | 2.7V | 02:21:00 | 02:59:19 | 00:00:00 | |
| DB0NH | 2026-08-31 07:28:08 | 50.41201 | 9.81294 | 86° | 60km/h | 1714m | -3.3m/s | 7.4°C | 86.5% | 831.2hPa | 2.7V | 02:21:00 | 02:59:19 | 00:00:00 | |
| DL1ZP-14 | 2026-08-31 07:27:51 | 50.41148 | 9.80913 | 76° | 53km/h | 1774m | -3.4m/s | 7.0°C | 87.3% | 825.3hPa | 2.8V | 00:00:00 | 00:00:00 | 00:00:00 | |
| DL0LBS | 2026-08-31 07:27:49 | 50.41145 | 9.80892 | 79° | 53km/h | 1777m | -3.5m/s | 6.9°C | 87.1% | 825.1hPa | 2.7V | 02:22:00 | 00:00:00 | 00:00:00 | |
| DB0NH | 2026-08-31 07:27:48 | 50.41140 | 9.80852 | 84° | 60km/h | 1784m | -3.1m/s | 6.9°C | 86.8% | 824.3hPa | 2.7V | 00:00:00 | 02:58:59 | 00:00:00 | |
| NBG1-10 | 2026-08-31 07:27:46 | 50.41138 | 9.80808 | 87° | 60km/h | 1790m | -3.2m/s | 6.8°C | 86.7% | 823.6hPa | 2.7V | 00:00:00 | 02:58:57 | 00:00:00 | |
| DB0ND-19 | 2026-08-31 07:27:43 | 50.41135 | 9.80736 | 84° | 62km/h | 1800m | -3.3m/s | 6.8°C | 86.2% | 822.6hPa | 2.7V | 00:00:00 | 00:00:00 | 00:00:00 | |
| DF7PN | 2026-08-31 07:27:42 | 50.41131 | 9.80686 | 83° | 62km/h | 1807m | -3.2m/s | 6.8°C | 86.1% | 822.0hPa | 2.7V | 00:00:00 | 00:00:00 | 00:00:00 | |
| DB0NH | 2026-08-31 07:27:38 | 50.41125 | 9.80612 | 81° | 58km/h | 1817m | -3.4m/s | 6.6°C | 85.8% | 821.0hPa | 2.7V | 02:22:00 | 02:58:49 | 00:00:00 | |
| DL0LBS | 2026-08-31 07:27:28 | 50.41101 | 9.80409 | 83° | 64km/h | 1845m | -3.1m/s | 6.5°C | 84.7% | 818.2hPa | 2.8V | 02:22:00 | 00:00:00 | 00:00:00 | |
| DB0NH | 2026-08-31 07:27:28 | 50.41099 | 9.80384 | 82° | 62km/h | 1848m | -2.8m/s | 6.4°C | 84.7% | 817.9hPa | 2.8V | 00:00:00 | 02:58:39 | 00:00:00 | |
| DB0UT-7 | 2026-08-31 07:27:25 | 50.41092 | 9.80308 | 82° | 60km/h | 1858m | -3.1m/s | 6.3°C | 85.7% | 816.8hPa | 2.8V | 00:00:00 | 00:00:00 | 00:00:00 | |
| NBG1-10 | 2026-08-31 07:27:24 | 50.41089 | 9.80283 | 81° | 55km/h | 1861m | -3.0m/s | 6.3°C | 86.4% | 816.6hPa | 2.8V | 00:00:00 | 02:58:35 | 00:00:00 | |
| DB0UT-9 | 2026-08-31 07:27:23 | 50.41089 | 9.80283 | 81° | 66km/h | 1861m | -3.1m/s | 6.4°C | 86.8% | 816.6hPa | 2.8V | 02:22:00 | 00:00:00 | 00:00:00 | |
| DL1ZP-14 | 2026-08-31 07:27:20 | 50.41075 | 9.80185 | 74° | 58km/h | 1873m | -3.0m/s | 6.3°C | 87.6% | 815.2hPa | 2.8V | 00:00:00 | 00:00:00 | 00:00:00 | |
| DB0NH | 2026-08-31 07:27:18 | 50.41068 | 9.80141 | 76° | 51km/h | 1879m | -2.8m/s | 6.2°C | 87.9% | 814.9hPa | 2.7V | 00:00:00 | 02:58:29 | 00:00:00 | |
| DB0UT-7 | 2026-08-31 07:27:15 | 50.41060 | 9.80080 | 82° | 53km/h | 1888m | -3.0m/s | 6.1°C | 88.2% | 813.9hPa | 2.7V | 02:22:00 | 02:58:26 | 00:00:00 | |
| DB0ND-19 | 2026-08-31 07:27:12 | 50.41055 | 9.80019 | 82° | 51km/h | 1898m | -3.2m/s | 6.1°C | 88.1% | 813.1hPa | 2.7V | 00:00:00 | 00:00:00 | 00:00:00 | |
| DF7PN | 2026-08-31 07:27:11 | 50.41051 | 9.79979 | 81° | 51km/h | 1904m | -3.0m/s | 6.1°C | 87.1% | 812.4hPa | 2.7V | 00:00:00 | 00:00:00 | 00:00:00 | |
| DB0NH | 2026-08-31 07:27:08 | 50.41048 | 9.79937 | 85° | 58km/h | 1910m | -3.2m/s | 6.0°C | 86.9% | 811.7hPa | 2.7V | 02:22:00 | 02:58:19 | 00:00:00 | |
| DL0LBS | 2026-08-31 07:27:06 | 50.41047 | 9.79916 | 86° | 55km/h | 1913m | -2.8m/s | 6.1°C | 87.4% | 811.6hPa | 2.8V | 02:23:00 | 00:00:00 | 00:00:00 | |
| DB0UT-7 | 2026-08-31 07:27:05 | 50.41045 | 9.79873 | 87° | 62km/h | 1919m | -3.1m/s | 5.9°C | 87.3% | 810.8hPa | 2.8V | 00:00:00 | 00:00:00 | 00:00:00 | |
| DB0UT-9 | 2026-08-31 07:27:02 | 50.41044 | 9.79828 | 87° | 58km/h | 1925m | -3.0m/s | 5.9°C | 87.8% | 810.4hPa | 2.8V | 00:00:00 | 00:00:00 | 00:00:00 | |
| DL1ZP-14 | 2026-08-31 07:26:49 | 50.41002 | 9.79502 | 76° | 51km/h | 1966m | -3.0m/s | 5.7°C | 87.2% | 806.3hPa | 2.8V | 00:00:00 | 00:00:00 | 00:00:00 | |
| DB0NH | 2026-08-31 07:26:48 | 50.40999 | 9.79482 | 78° | 55km/h | 1969m | -2.9m/s | 5.6°C | 87.0% | 806.0hPa | 2.7V | 00:00:00 | 02:57:59 | 00:00:00 | |
| DL0LBS | 2026-08-31 07:26:47 | 50.40997 | 9.79462 | 80° | 51km/h | 1972m | -2.9m/s | 5.6°C | 87.4% | 805.7hPa | 2.7V | 02:23:00 | 00:00:00 | 00:00:00 | |
| DB0UT-7 | 2026-08-31 07:26:45 | 50.40992 | 9.79422 | 82° | 55km/h | 1978m | -2.7m/s | 5.5°C | 86.6% | 805.1hPa | 2.7V | 02:23:00 | 00:00:00 | 00:00:00 | |
| DB0UT-9 | 2026-08-31 07:26:41 | 50.40987 | 9.79359 | 86° | 57km/h | 1986m | -2.8m/s | 5.5°C | 87.3% | 804.2hPa | 2.7V | 00:00:00 | 00:00:00 | 00:00:00 | |
| DB0ND-19 | 2026-08-31 07:26:41 | 50.40986 | 9.79336 | 86° | 58km/h | 1989m | -2.6m/s | 5.5°C | 87.2% | 803.9hPa | 2.7V | 00:00:00 | 00:00:00 | 00:00:00 | |
| NBG1-10 | 2026-08-31 07:26:40 | 50.40985 | 9.79312 | 86° | 60km/h | 1992m | -2.8m/s | 5.4°C | 86.6% | 803.7hPa | 2.7V | 00:00:00 | 02:57:51 | 00:00:00 | |
| DB0NH | 2026-08-31 07:26:38 | 50.40981 | 9.79263 | 83° | 60km/h | 1997m | -3.0m/s | 5.4°C | 87.4% | 803.1hPa | 2.7V | 02:23:00 | 02:57:49 | 00:00:00 | |
| DB0NH | 2026-08-31 07:26:27 | 50.40951 | 9.79006 | 81° | 57km/h | 2029m | -2.8m/s | 5.2°C | 85.7% | 800.0hPa | 2.7V | 00:00:00 | 02:57:38 | 00:00:00 | |
| DL0LBS | 2026-08-31 07:26:26 | 50.40951 | 9.79006 | 81° | 53km/h | 2029m | -2.9m/s | 5.2°C | 86.0% | 800.1hPa | 2.7V | 02:24:00 | 00:00:00 | 00:00:00 | |
| NBG1-10 | 2026-08-31 07:26:18 | 50.40936 | 9.78799 | 78° | 55km/h | 2055m | -2.8m/s | 5.3°C | 78.6% | 797.5hPa | 2.7V | 00:00:00 | 02:57:29 | 00:00:00 | |
| DB0ND-19 | 2026-08-31 07:26:10 | 50.40906 | 9.78626 | 76° | 49km/h | 2078m | -3.0m/s | 5.4°C | 75.6% | 795.5hPa | 2.7V | 00:00:00 | 00:00:00 | 00:00:00 | |
| DF7PN | 2026-08-31 07:26:08 | 50.40901 | 9.78587 | 77° | 49km/h | 2084m | -3.0m/s | 5.3°C | 76.5% | 794.8hPa | 2.7V | 00:00:00 | 00:00:00 | 00:00:00 | |
| DB0NH | 2026-08-31 07:26:07 | 50.40898 | 9.78568 | 79° | 55km/h | 2087m | -2.7m/s | 5.3°C | 76.3% | 794.5hPa | 2.7V | 00:00:00 | 02:57:18 | 00:00:00 | |
| DL0LBS | 2026-08-31 07:26:05 | 50.40895 | 9.78548 | 80° | 49km/h | 2090m | -3.2m/s | 5.3°C | 76.7% | 794.4hPa | 2.7V | 02:24:00 | 00:00:00 | 00:00:00 | |
| NBG1-10 | 2026-08-31 07:25:56 | 50.40879 | 9.78333 | 81° | 57km/h | 2120m | -2.9m/s | 5.2°C | 76.2% | 791.4hPa | 2.7V | 02:23:00 | 02:57:07 | 00:00:00 | |
| DB0NH | 2026-08-31 07:25:47 | 50.40850 | 9.78134 | 82° | 57km/h | 2146m | -3.0m/s | 4.9°C | 78.0% | 788.7hPa | 2.7V | 02:24:00 | 02:56:58 | 00:00:00 | |
| DL0LBS | 2026-08-31 07:25:44 | 50.40846 | 9.78090 | 83° | 57km/h | 2152m | -2.9m/s | 4.9°C | 77.9% | 788.2hPa | 2.8V | 02:24:00 | 00:00:00 | 00:00:00 | |
| DB0UT-7 | 2026-08-31 07:25:42 | 50.40840 | 9.78024 | 83° | 57km/h | 2161m | -2.8m/s | 4.9°C | 77.2% | 787.4hPa | 2.8V | 00:00:00 | 02:56:53 | 00:00:00 | |
| DB0ND-19 | 2026-08-31 07:25:39 | 50.40836 | 9.77960 | 85° | 57km/h | 2169m | -3.0m/s | 4.8°C | 77.8% | 786.6hPa | 2.8V | 00:00:00 | 00:00:00 | 00:00:00 | |
| DF7PN | 2026-08-31 07:25:37 | 50.40832 | 9.77914 | 81° | 57km/h | 2175m | -3.0m/s | 4.8°C | 77.5% | 786.0hPa | 2.8V | 00:00:00 | 00:00:00 | 00:00:00 | |
| NBG1-10 | 2026-08-31 07:25:34 | 50.40825 | 9.77847 | 80° | 53km/h | 2184m | -2.7m/s | 4.7°C | 77.1% | 785.0hPa | 2.8V | 00:00:00 | 02:56:45 | 00:00:00 | |
| DB0NH | 2026-08-31 07:25:27 | 50.40806 | 9.77693 | 82° | 51km/h | 2205m | -3.0m/s | 4.9°C | 68.7% | 783.1hPa | 2.8V | 00:00:00 | 02:56:38 | 00:00:00 | |
| DL0LBS | 2026-08-31 07:25:24 | 50.40802 | 9.77650 | 84° | 55km/h | 2210m | -2.8m/s | 5.1°C | 62.2% | 782.7hPa | 2.8V | 02:25:00 | 00:00:00 | 00:00:00 | |
| DB0UT-7 | 2026-08-31 07:25:22 | 50.40797 | 9.77587 | 83° | 53km/h | 2220m | -2.8m/s | 5.1°C | 59.5% | 781.7hPa | 2.8V | 00:00:00 | 00:00:00 | 00:00:00 | |
| DB0UT-9 | 2026-08-31 07:25:18 | 50.40791 | 9.77526 | 81° | 51km/h | 2229m | -3.1m/s | 5.2°C | 60.2% | 780.9hPa | 2.8V | 00:00:00 | 00:00:00 | 00:00:00 | |
| DL1ZP-14 | 2026-08-31 07:25:16 | 50.40784 | 9.77468 | 79° | 47km/h | 2238m | -3.3m/s | 5.3°C | 56.7% | 780.0hPa | 2.8V | 00:00:00 | 00:00:00 | 00:00:00 | |
| NBG1-10 | 2026-08-31 07:25:12 | 50.40777 | 9.77392 | 87° | 53km/h | 2252m | -3.2m/s | 5.2°C | 55.5% | 778.6hPa | 2.7V | 00:00:00 | 02:56:23 | 00:00:00 | |
| DB0ND-19 | 2026-08-31 07:25:08 | 50.40771 | 9.77285 | 78° | 58km/h | 2268m | -3.2m/s | 5.4°C | 52.7% | 777.2hPa | 2.7V | 00:00:00 | 00:00:00 | 00:00:00 | |
| DB0NH | 2026-08-31 07:25:07 | 50.40771 | 9.77285 | 79° | 51km/h | 2268m | -3.1m/s | 5.3°C | 52.5% | 777.2hPa | 2.7V | 00:00:00 | 02:56:18 | 00:00:00 | |
| DF7PN | 2026-08-31 07:25:06 | 50.40768 | 9.77262 | 76° | 58km/h | 2271m | -2.9m/s | 5.5°C | 48.6% | 776.9hPa | 2.7V | 00:00:00 | 00:00:00 | 00:00:00 | |
| DL0LBS | 2026-08-31 07:25:03 | 50.40760 | 9.77218 | 77° | 57km/h | 2278m | -3.5m/s | 5.5°C | 48.5% | 776.3hPa | 2.7V | 02:25:00 | 00:00:00 | 00:00:00 | |
| DL1ZP-14 | 2026-08-31 07:24:45 | 50.40715 | 9.76841 | 77° | 53km/h | 2340m | -3.4m/s | 5.4°C | 43.5% | 770.3hPa | 2.7V | 00:00:00 | 00:00:00 | 00:00:00 | |
| BIOWL1-15 | 2026-08-31 07:24:37 | 50.40688 | 9.76635 | 82° | 55km/h | 2372m | -3.1m/s | 5.5°C | 41.3% | 767.3hPa | 2.8V | 02:26:49 | 02:55:46 | 00:00:00 | |
| BIOWL1-15 | 2026-08-31 07:24:24 | 50.40650 | 9.76389 | 74° | 55km/h | 2412m | -3.5m/s | 6.2°C | 28.4% | 763.4hPa | 2.8V | 02:26:49 | 02:55:34 | 00:00:00 | |
| BIOWL1-15 | 2026-08-31 07:24:11 | 50.40609 | 9.76151 | 77° | 49km/h | 2454m | -3.6m/s | 6.2°C | 28.2% | 759.5hPa | 2.7V | 02:26:49 | 02:55:22 | 00:00:00 | |
| DB0NH | 2026-08-31 07:24:07 | 50.40599 | 9.76071 | 78° | 53km/h | 2468m | -3.5m/s | 6.1°C | 24.9% | 758.2hPa | 2.7V | 00:00:00 | 02:55:18 | 00:00:00 | |
| NBG1-10 | 2026-08-31 07:24:06 | 50.40595 | 9.76049 | 75° | 53km/h | 2471m | -3.5m/s | 6.2°C | 24.8% | 757.9hPa | 2.7V | 00:00:00 | 02:55:17 | 00:00:00 | |
| DF7PN | 2026-08-31 07:24:04 | 50.40587 | 9.76007 | 70° | 53km/h | 2478m | -3.6m/s | 6.3°C | 24.2% | 757.3hPa | 2.7V | 00:00:00 | 00:00:00 | 00:00:00 | |
| BIOWL1-15 | 2026-08-31 07:23:50 | 50.40526 | 9.75646 | 74° | 55km/h | 2544m | -3.8m/s | 5.8°C | 28.3% | 751.2hPa | 2.7V | 02:26:49 | 02:54:57 | 00:00:00 | |
| BIOWL1-15 | 2026-08-31 07:23:35 | 50.40481 | 9.75409 | 72° | 55km/h | 2585m | -4m/s | 5.4°C | 28.3% | 747.3hPa | 2.7V | 02:26:49 | 02:54:46 | 00:00:00 | |
| BIOWL1-15 | 2026-08-31 07:23:27 | 50.40439 | 9.75194 | 72° | 51km/h | 2623m | -4m/s | 5.1°C | 28.4% | 743.8hPa | 2.7V | 02:26:49 | 02:54:36 | 00:00:00 | |
| BIOWL1-15 | 2026-08-31 07:23:15 | 50.40395 | 9.74896 | 78° | 55km/h | 2679m | -4m/s | 4.7°C | 33.6% | 738.7hPa | 2.7V | 02:26:49 | 02:54:22 | 00:00:00 | |
| BIOWL1-15 | 2026-08-31 07:23:05 | 50.40375 | 9.74725 | 80° | 51km/h | 2711m | -4.3m/s | 4.3°C | 39.1% | 735.8hPa | 2.7V | 02:27:40 | 02:54:14 | 00:00:00 | |
| BIOWL1-15 | 2026-08-31 07:22:54 | 50.40342 | 9.74501 | 75° | 51km/h | 2754m | -4.2m/s | 3.9°C | 45.7% | 731.9hPa | 2.7V | 02:27:40 | 02:54:03 | 00:00:00 | |
| DF2AP-13 | 2026-08-31 07:22:54 | 50.40349 | 9.74541 | 76° | 53km/h | 2747m | -4.0m/s | 3.9°C | 37.7% | 732.4hPa | 2.7V | 00:00:00 | 02:54:05 | 00:00:00 | |
| DK5PH-5 | 2026-08-31 07:22:51 | 50.40339 | 9.74482 | 77° | 55km/h | 2759m | -4.5m/s | 3.8°C | 40.8% | 731.4hPa | 2.7V | 00:00:00 | 02:54:02 | 00:00:00 | |
| DB0NH | 2026-08-31 07:22:47 | 50.40330 | 9.74400 | 81° | 55km/h | 2775m | -3.8m/s | 3.8°C | 42.8% | 730.0hPa | 2.7V | 02:27:00 | 02:53:58 | 00:00:00 | |
| DM0DOS-11 | 2026-08-31 07:22:45 | 50.40319 | 9.74313 | 81° | 55km/h | 2791m | -3.9m/s | 3.7°C | 41.7% | 728.6hPa | 2.7V | 02:27:10 | 02:53:54 | 00:00:00 | |
| BIOWL1-15 | 2026-08-31 07:22:42 | 50.40317 | 9.74291 | 82° | 55km/h | 2795m | -4.4m/s | 3.6°C | 49.6% | 728.2hPa | 2.7V | 02:27:40 | 02:53:53 | 00:00:00 | |
| DL1ZP-14 | 2026-08-31 07:22:41 | 50.40313 | 9.74247 | 79° | 57km/h | 2803m | -4.4m/s | 3.6°C | 45.9% | 727.5hPa | 2.7V | 00:00:00 | 00:00:00 | 00:00:00 | |
| DL0LBS | 2026-08-31 07:22:39 | 50.40313 | 9.74247 | 80° | 57km/h | 2803m | -4.4m/s | 3.6°C | 45.9% | 727.5hPa | 2.7V | 02:27:00 | 00:00:00 | 00:00:00 | |
| DM0DOS-11 | 2026-08-31 07:22:37 | 50.40303 | 9.74183 | 75° | 51km/h | 2815m | -4m/s | 3.5°C | 44.9% | 726.3hPa | 2.7V | 02:27:16 | 02:53:48 | 00:00:00 | |
| DM0DOS-11 | 2026-08-31 07:22:37 | 50.40289 | 9.74060 | 78° | 57km/h | 2840m | -3.9m/s | 3.3°C | 47.4% | 724.1hPa | 2.7V | 02:27:22 | 02:53:42 | 00:00:00 | |
| BIOWL1-15 | 2026-08-31 07:22:33 | 50.40289 | 9.74060 | 78° | 57km/h | 2840m | -3.9m/s | 3.3°C | 51.9% | 724.1hPa | 2.7V | 02:27:40 | 02:53:42 | 00:00:00 | |
| DB0ND-19 | 2026-08-31 07:22:33 | 50.40292 | 9.74082 | 80° | 55km/h | 2836m | -4.4m/s | 3.3°C | 46.9% | 724.5hPa | 2.7V | 00:00:00 | 00:00:00 | 00:00:00 | |
| DM0DOS-11 | 2026-08-31 07:22:31 | 50.40276 | 9.73956 | 84° | 53km/h | 2861m | -4.2m/s | 3.2°C | 44% | 722.3hPa | 2.7V | 02:27:27 | 02:53:37 | 00:00:00 | |
| DB0NH | 2026-08-31 07:22:27 | 50.40278 | 9.73976 | 82° | 58km/h | 2857m | -3.8m/s | 3.2°C | 44.5% | 722.6hPa | 2.7V | 00:00:00 | 02:53:38 | 00:00:00 | |
| DM0DOS-11 | 2026-08-31 07:22:21 | 50.40265 | 9.73845 | 75° | 58km/h | 2882m | -4.2m/s | 3.2°C | 31.6% | 720.5hPa | 2.7V | 02:27:32 | 02:53:32 | 00:00:00 | |
| DM0DOS-11 | 2026-08-31 07:22:21 | 50.40249 | 9.73731 | 81° | 62km/h | 2902m | -4.1m/s | 3.2°C | 26.2% | 718.7hPa | 2.7V | 02:27:37 | 02:53:27 | 00:00:00 | |
| BIOWL1-15 | 2026-08-31 07:22:21 | 50.40264 | 9.73845 | 76° | 58km/h | 2882m | -4.3m/s | 3.2°C | 35.9% | 720.5hPa | 2.7V | 02:27:40 | 02:53:32 | 00:00:00 | |
| DL0LBS | 2026-08-31 07:22:19 | 50.40261 | 9.73822 | 77° | 58km/h | 2886m | -4.2m/s | 3.2°C | 30.0% | 720.1hPa | 2.7V | 02:27:00 | 00:00:00 | 00:00:00 | |
| DB0UT-7 | 2026-08-31 07:22:17 | 50.40251 | 9.73755 | 81° | 58km/h | 2898m | -4.2m/s | 3.2°C | 27.1% | 719.0hPa | 2.7V | 00:00:00 | 02:53:28 | 00:00:00 | |
| NBG1-10 | 2026-08-31 07:22:16 | 50.40249 | 9.73731 | 82° | 60km/h | 2902m | -4.1m/s | 3.2°C | 26.2% | 718.6hPa | 2.7V | 00:00:00 | 02:53:27 | 00:00:00 | |
| DF2AP-13 | 2026-08-31 07:22:14 | 50.40244 | 9.73682 | 79° | 58km/h | 2911m | -4.4m/s | 3.2°C | 23.6% | 717.7hPa | 2.7V | 00:00:00 | 02:53:25 | 00:00:00 | |
| DM0DOS-11 | 2026-08-31 07:22:11 | 50.40231 | 9.73609 | 72° | 64km/h | 2925m | -4.5m/s | 3.1°C | 23.4% | 716.7hPa | 2.7V | 02:27:42 | 02:53:22 | 00:00:00 | |
| BIOWL1-15 | 2026-08-31 07:22:10 | 50.40226 | 9.73585 | 71° | 62km/h | 2929m | -4.4m/s | 3.1°C | 26.2% | 716.2hPa | 2.7V | 02:28:31 | 02:53:21 | 00:00:00 | |
| DL1ZP-14 | 2026-08-31 07:22:10 | 50.40221 | 9.73563 | 70° | 58km/h | 2933m | -4.3m/s | 3.1°C | 22.7% | 715.9hPa | 2.7V | 00:00:00 | 00:00:00 | 00:00:00 | |
| DM0DOS-11 | 2026-08-31 07:22:06 | 50.40207 | 9.73500 | 70° | 53km/h | 2946m | -4.3m/s | 3°C | 23.6% | 714.8hPa | 2.7V | 02:27:47 | 02:53:17 | 00:00:00 | |
| DM0DOS-11 | 2026-08-31 07:22:06 | 50.40191 | 9.73401 | 81° | 55km/h | 2967m | -4.3m/s | 2.8°C | 24.2% | 712.9hPa | 2.7V | 02:27:52 | 02:53:12 | 00:00:00 | |
| BIOWL7-15 | 2026-08-31 07:22:04 | 50.40203 | 9.73481 | 74° | 51km/h | 2950m | -4.2m/s | 2.9°C | 23.8% | 714.3hPa | 2.7V | 00:00:00 | 00:00:00 | 00:00:00 | |
| DB0ND-19 | 2026-08-31 07:22:02 | 50.40191 | 9.73401 | 81° | 55km/h | 2967m | -4.3m/s | 2.8°C | 24.3% | 712.9hPa | 2.7V | 00:00:00 | 00:00:00 | 00:00:00 | |
| DM0DOS-11 | 2026-08-31 07:22:01 | 50.40174 | 9.73281 | 72° | 66km/h | 2989m | -4.6m/s | 2.7°C | 24.5% | 711hPa | 2.7V | 02:27:57 | 02:53:07 | 00:00:00 | |
| BIOWL1-15 | 2026-08-31 07:22:00 | 50.40189 | 9.73379 | 81° | 58km/h | 2972m | -4.2m/s | 2.8°C | 27.6% | 712.6hPa | 2.7V | 02:28:31 | 02:53:11 | 00:00:00 | |
| DL0LBS | 2026-08-31 07:21:58 | 50.40186 | 9.73355 | 80° | 62km/h | 2976m | -4.2m/s | 2.8°C | 24.4% | 712.2hPa | 2.7V | 02:28:00 | 00:00:00 | 00:00:00 | |
| DB0UT-7 | 2026-08-31 07:21:57 | 50.40178 | 9.73306 | 75° | 60km/h | 2984m | -4.5m/s | 2.7°C | 24.4% | 711.4hPa | 2.7V | 00:00:00 | 00:00:00 | 00:00:00 | |
| DM0DOS-11 | 2026-08-31 07:21:56 | 50.40145 | 9.73164 | 66° | 60km/h | 3011m | -4.4m/s | 2.5°C | 25.1% | 709.1hPa | 2.7V | 02:28:02 | 02:53:02 | 00:00:00 | |
| NBG1-10 | 2026-08-31 07:21:54 | 50.40163 | 9.73232 | 70° | 60km/h | 2998m | -4.3m/s | 2.6°C | 24.9% | 710.0hPa | 2.7V | 00:00:00 | 02:53:05 | 00:00:00 | |
| DB0UT-9 | 2026-08-31 07:21:53 | 50.40162 | 9.73232 | 70° | 64km/h | 2998m | -4.3m/s | 2.6°C | 24.9% | 710.0hPa | 2.7V | 00:00:00 | 00:00:00 | 00:00:00 | |
| DM0DOS-11 | 2026-08-31 07:21:51 | 50.40120 | 9.73060 | 72° | 57km/h | 3033m | -4.4m/s | 2.4°C | 24.7% | 707.1hPa | 2.7V | 02:28:07 | 02:52:57 | 00:00:00 | |
| BIOWL1-15 | 2026-08-31 07:21:51 | 50.40134 | 9.73122 | 69° | 57km/h | 3021m | -4.4m/s | 2.4°C | 28.8% | 708.1hPa | 2.7V | 02:28:31 | 02:53:00 | 00:00:00 | |
| DK5PH-5 | 2026-08-31 07:21:50 | 50.40139 | 9.73143 | 68° | 62km/h | 3016m | -4.5m/s | 2.4°C | 25.2% | 708.6hPa | 2.7V | 00:00:00 | 02:53:01 | 00:00:00 | |
| DB0NH | 2026-08-31 07:21:47 | 50.40125 | 9.73081 | 72° | 62km/h | 3029m | -4.3m/s | 2.4°C | 25.0% | 707.4hPa | 2.7V | 02:28:00 | 02:52:58 | 00:00:00 | |
| DM0DOS-11 | 2026-08-31 07:21:46 | 50.40100 | 9.72949 | 76° | 58km/h | 3056m | -4.5m/s | 2.2°C | 25.4% | 705.2hPa | 2.7V | 02:28:12 | 02:52:52 | 00:00:00 | |
| DM0DOS-11 | 2026-08-31 07:21:41 | 50.40082 | 9.72828 | 73° | 68km/h | 3079m | -4.7m/s | 2.2°C | 28.2% | 703.1hPa | 2.7V | 02:28:17 | 02:52:47 | 00:00:00 | |
| BIOWL1-15 | 2026-08-31 07:21:40 | 50.40090 | 9.72878 | 77° | 64km/h | 3070m | -4.9m/s | 2.2°C | 30.3% | 703.8hPa | 2.7V | 02:28:31 | 02:52:49 | 00:00:00 | |
| DL0LBS | 2026-08-31 07:21:38 | 50.40093 | 9.72903 | 80° | 62km/h | 3065m | -4.7m/s | 2.3°C | 25.7% | 704.3hPa | 2.7V | 02:28:00 | 00:00:00 | 00:00:00 | |
| DB0UT-7 | 2026-08-31 07:21:37 | 50.40086 | 9.72853 | 76° | 64km/h | 3075m | -4.6m/s | 2.2°C | 27.2% | 703.5hPa | 2.7V | 02:28:00 | 02:52:48 | 00:00:00 | |
| DM0DOS-11 | 2026-08-31 07:21:36 | 50.40052 | 9.72706 | 66° | 62km/h | 3102m | -4.6m/s | 2°C | 32.7% | 701hPa | 2.7V | 02:28:22 | 02:52:42 | 00:00:00 | |
| BIOWL1-15 | 2026-08-31 07:21:29 | 50.40030 | 9.72613 | 72° | 66km/h | 3120m | -4.4m/s | 1.8°C | 40.2% | 699.6hPa | 2.7V | 02:28:31 | 02:52:38 | 00:00:00 | |
| DF7PN | 2026-08-31 07:21:29 | 50.40040 | 9.72661 | 69° | 62km/h | 3111m | -4.6m/s | 1.9°C | 34.8% | 700.3hPa | 2.7V | 00:00:00 | 00:00:00 | 00:00:00 | |
| DM0DOS-11 | 2026-08-31 07:21:25 | 50.39985 | 9.72444 | 62° | 60km/h | 3153m | -4.3m/s | 1.4°C | 38.4% | 696.6hPa | 2.7V | 02:28:33 | 02:52:31 | 00:00:00 | |
| BIOWL1-15 | 2026-08-31 07:21:18 | 50.39940 | 9.72249 | 76° | 66km/h | 3195m | -4.5m/s | 1.1°C | 53.5% | 693hPa | 2.7V | 02:29:22 | 02:52:22 | 00:00:00 | |
| DM0DOS-11 | 2026-08-31 07:21:17 | 50.39956 | 9.72341 | 72° | 57km/h | 3176m | -4.7m/s | 1.2°C | 44.5% | 694.7hPa | 2.7V | 02:28:38 | 02:52:26 | 00:00:00 | |
| DB0NH | 2026-08-31 07:21:17 | 50.39966 | 9.72382 | 68° | 64km/h | 3167m | -4.6m/s | 1.2°C | 39.7% | 695.4hPa | 2.7V | 00:00:00 | 02:52:28 | 00:00:00 | |
| DM0DOS-11 | 2026-08-31 07:21:10 | 50.39936 | 9.72224 | 74° | 68km/h | 3199m | -4.4m/s | 1°C | 48.7% | 692.7hPa | 2.7V | 02:28:43 | 02:52:21 | 00:00:00 | |
| NBG1-10 | 2026-08-31 07:21:10 | 50.39936 | 9.72223 | 75° | 66km/h | 3199m | -4.4m/s | 1.0°C | 48.7% | 692.6hPa | 2.7V | 00:00:00 | 02:52:21 | 00:00:00 | |
| DL1ZP-14 | 2026-08-31 07:21:08 | 50.39919 | 9.72146 | 67° | 68km/h | 3212m | -4.4m/s | 0.8°C | 54.3% | 691.5hPa | 2.7V | 00:00:00 | 00:00:00 | 00:00:00 | |
| DM0DOS-11 | 2026-08-31 07:21:05 | 50.39878 | 9.71981 | 70° | 64km/h | 3244m | -4.8m/s | 0.7°C | 51.7% | 688.8hPa | 2.7V | 02:28:53 | 02:52:11 | 00:00:00 | |
| BIOWL1-15 | 2026-08-31 07:21:03 | 50.39883 | 9.72004 | 71° | 64km/h | 3239m | -4.4m/s | 0.7°C | 59.6% | 689.1hPa | 2.7V | 02:29:22 | 02:52:12 | 00:00:00 | |
| DB0ND-19 | 2026-08-31 07:21:00 | 50.39872 | 9.71957 | 70° | 64km/h | 3249m | -4.5m/s | 0.7°C | 43.4% | 688.2hPa | 2.7V | 00:00:00 | 00:00:00 | 00:00:00 | |
| DF7PN | 2026-08-31 07:20:58 | 50.39867 | 9.71933 | 71° | 62km/h | 3253m | -4.7m/s | 0.7°C | 38.4% | 687.8hPa | 2.7V | 00:00:00 | 00:00:00 | 00:00:00 | |
| DL0LBS | 2026-08-31 07:20:57 | 50.39867 | 9.71933 | 73° | 64km/h | 3253m | -4.7m/s | 0.7°C | 38.4% | 687.8hPa | 2.7V | 02:29:00 | 00:00:00 | 00:00:00 | |
| DM0DOS-11 | 2026-08-31 07:20:55 | 50.39824 | 9.71737 | 71° | 64km/h | 3291m | -4.6m/s | 0.6°C | 25.6% | 684.8hPa | 2.7V | 02:29:03 | 02:52:01 | 00:00:00 | |
| BIOWL1-15 | 2026-08-31 07:20:50 | 50.39824 | 9.71737 | 71° | 66km/h | 3291m | -4.6m/s | 0.6°C | 29.3% | 684.9hPa | 2.7V | 02:29:22 | 02:52:01 | 00:00:00 | |
| DK5PH-5 | 2026-08-31 07:20:50 | 50.39824 | 9.71737 | 72° | 64km/h | 3291m | -4.6m/s | 0.5°C | 25.6% | 684.8hPa | 2.7V | 00:00:00 | 02:52:01 | 00:00:00 | |
| DB0NH | 2026-08-31 07:20:47 | 50.39809 | 9.71665 | 73° | 64km/h | 3304m | -4.2m/s | 0.4°C | 24.2% | 683.5hPa | 2.7V | 00:00:00 | 02:51:58 | 00:00:00 | |
| DM0DOS-11 | 2026-08-31 07:20:45 | 50.39772 | 9.71496 | 71° | 64km/h | 3336m | -4.6m/s | 0.1°C | 29.4% | 680.8hPa | 2.7V | 02:29:13 | 02:51:51 | 00:00:00 | |
| BIOWL1-15 | 2026-08-31 07:20:42 | 50.39773 | 9.71496 | 72° | 64km/h | 3336m | -4.6m/s | 0.2°C | 33.5% | 680.8hPa | 2.7V | 02:29:22 | 02:51:51 | 00:00:00 | |
| NBG1-10 | 2026-08-31 07:20:40 | 50.39773 | 9.71496 | 72° | 64km/h | 3336m | -4.6m/s | 0.1°C | 29.4% | 680.8hPa | 2.7V | 00:00:00 | 02:51:51 | 00:00:00 | |
| DM0DOS-11 | 2026-08-31 07:20:39 | 50.39748 | 9.71375 | 72° | 64km/h | 3360m | -4.5m/s | 0.1°C | 26.4% | 678.8hPa | 2.7V | 02:29:18 | 02:51:46 | 00:00:00 | |
| DL0LBS | 2026-08-31 07:20:36 | 50.39757 | 9.71423 | 73° | 64km/h | 3350m | -4.6m/s | 0.1°C | 31.0% | 679.7hPa | 2.7V | 02:29:00 | 00:00:00 | 00:00:00 | |
| DM0DOS-11 | 2026-08-31 07:20:34 | 50.39718 | 9.71230 | 73° | 64km/h | 3387m | -4.7m/s | 0°C | 24.4% | 676.5hPa | 2.7V | 02:29:24 | 02:51:40 | 00:00:00 | |
| BIOWL1-15 | 2026-08-31 07:20:30 | 50.39723 | 9.71254 | 73° | 64km/h | 3382m | -4.7m/s | 0.1°C | 28.2% | 676.9hPa | 2.7V | 02:31:04 | 02:51:41 | 00:00:00 | |
| DM0DOS-11 | 2026-08-31 07:20:29 | 50.39695 | 9.71110 | 74° | 64km/h | 3410m | -4.5m/s | -0.1°C | 24.8% | 674.6hPa | 2.7V | 02:29:29 | 02:51:35 | 00:00:00 | |
| DB0ND-19 | 2026-08-31 07:20:29 | 50.39713 | 9.71206 | 72° | 64km/h | 3392m | -4.7m/s | -0.0°C | 24.4% | 676.1hPa | 2.6V | 00:00:00 | 00:00:00 | 00:00:00 | |
| DF7PN | 2026-08-31 07:20:27 | 50.39709 | 9.71182 | 73° | 62km/h | 3396m | -4.5m/s | -0.0°C | 24.2% | 675.7hPa | 2.6V | 00:00:00 | 00:00:00 | 00:00:00 | |
| DF2AP-13 | 2026-08-31 07:20:25 | 50.39699 | 9.71134 | 74° | 62km/h | 3405m | -4.7m/s | -0.1°C | 24.6% | 675.0hPa | 2.6V | 00:00:00 | 02:51:36 | 00:00:00 | |
| DM0DOS-11 | 2026-08-31 07:20:24 | 50.39673 | 9.70991 | 73° | 62km/h | 3432m | -4.5m/s | -0.3°C | 24.8% | 672.7hPa | 2.6V | 02:29:34 | 02:51:30 | 00:00:00 | |
| BIOWL1-15 | 2026-08-31 07:20:19 | 50.39664 | 9.70943 | 73° | 64km/h | 3442m | -4.7m/s | -0.4°C | 28.7% | 672hPa | 2.7V | 02:31:04 | 02:51:28 | 00:00:00 | |
| DB0NH | 2026-08-31 07:20:17 | 50.39664 | 9.70943 | 74° | 62km/h | 3442m | -4.6m/s | -0.3°C | 25.1% | 671.9hPa | 2.7V | 02:29:00 | 02:51:28 | 00:00:00 | |
| DL0LBS | 2026-08-31 07:20:16 | 50.39664 | 9.70943 | 74° | 64km/h | 3442m | -4.7m/s | -0.4°C | 25.0% | 672.0hPa | 2.7V | 02:30:00 | 00:00:00 | 00:00:00 | |
| DB0UT-9 | 2026-08-31 07:20:11 | 50.39641 | 9.70823 | 75° | 64km/h | 3464m | -4.8m/s | -0.4°C | 25.4% | 670.0hPa | 2.7V | 00:00:00 | 00:00:00 | 00:00:00 | |
| DM0DOS-11 | 2026-08-31 07:20:07 | 50.39615 | 9.70680 | 73° | 62km/h | 3491m | -4.5m/s | -0.5°C | 25.7% | 667.8hPa | 2.7V | 02:29:47 | 02:51:17 | 00:00:00 | |
| BIOWL1-15 | 2026-08-31 07:20:07 | 50.39620 | 9.70704 | 75° | 62km/h | 3487m | -4.5m/s | -0.4°C | 29.4% | 668.2hPa | 2.7V | 02:31:04 | 02:51:18 | 00:00:00 | |
| NBG1-10 | 2026-08-31 07:20:07 | 50.39620 | 9.70704 | 75° | 62km/h | 3487m | -4.4m/s | -0.4°C | 25.6% | 668.1hPa | 2.7V | 02:29:00 | 02:51:18 | 00:00:00 | |
| BIOWL7-15 | 2026-08-31 07:20:06 | 50.39620 | 9.70704 | 75° | 62km/h | 3487m | -4.5m/s | -0.4°C | 25.5% | 668.2hPa | 2.7V | 00:00:00 | 00:00:00 | 00:00:00 | |
| DL1ZP-14 | 2026-08-31 07:20:05 | 50.39611 | 9.70656 | 74° | 62km/h | 3496m | -4.5m/s | -0.5°C | 25.6% | 667.4hPa | 2.7V | 00:00:00 | 00:00:00 | 00:00:00 | |
| DM0DOS-11 | 2026-08-31 07:20:01 | 50.39594 | 9.70562 | 74° | 62km/h | 3513m | -4.4m/s | -0.6°C | 25.3% | 665.8hPa | 2.7V | 02:29:52 | 02:51:12 | 00:00:00 | |
| DM0DOS-11 | 2026-08-31 07:20:01 | 50.39573 | 9.70445 | 75° | 60km/h | 3536m | -4.3m/s | -0.8°C | 25.5% | 664hPa | 2.6V | 02:29:57 | 02:51:07 | 00:00:00 | |
| BIOWL1-15 | 2026-08-31 07:19:56 | 50.39573 | 9.70445 | 76° | 60km/h | 3536m | -4.4m/s | -0.9°C | 29.5% | 664hPa | 2.6V | 02:31:04 | 02:51:07 | 00:00:00 | |
| DM0DOS-11 | 2026-08-31 07:19:56 | 50.39555 | 9.70329 | 76° | 60km/h | 3558m | -4.5m/s | -1°C | 25.4% | 662.2hPa | 2.7V | 02:30:02 | 02:51:02 | 00:00:00 | |
| DF7PN | 2026-08-31 07:19:56 | 50.39570 | 9.70422 | 75° | 60km/h | 3540m | -4.5m/s | -0.9°C | 25.5% | 663.8hPa | 2.7V | 00:00:00 | 00:00:00 | 00:00:00 | |
| DF2AP-13 | 2026-08-31 07:19:55 | 50.39569 | 9.70422 | 76° | 62km/h | 3540m | -4.4m/s | -0.8°C | 25.5% | 663.7hPa | 2.7V | 02:29:00 | 02:51:06 | 00:00:00 | |
| DB0UT-7 | 2026-08-31 07:19:54 | 50.39566 | 9.70398 | 76° | 69km/h | 3545m | -4.3m/s | -0.9°C | 25.5% | 663.3hPa | 2.7V | 00:00:00 | 02:51:05 | 00:00:00 | |
| DM0DOS-11 | 2026-08-31 07:19:51 | 50.39537 | 9.70213 | 76° | 60km/h | 3580m | -4.2m/s | -1.2°C | 25.4% | 660.4hPa | 2.7V | 02:30:07 | 02:50:57 | 00:00:00 | |
| DK5PH-5 | 2026-08-31 07:19:50 | 50.39551 | 9.70305 | 77° | 62km/h | 3562m | -4.3m/s | -1.0°C | 25.5% | 661.9hPa | 2.7V | 02:30:00 | 02:51:01 | 00:00:00 | |
| DB0NH | 2026-08-31 07:19:47 | 50.39540 | 9.70236 | 77° | 64km/h | 3575m | -4.3m/s | -1.2°C | 25.5% | 660.6hPa | 2.7V | 00:00:00 | 02:50:58 | 00:00:00 | |
| DM7RM-13 | 2026-08-31 07:19:46 | 50.39540 | 9.70236 | 78° | 60km/h | 3575m | -4.4m/s | -1.2°C | 25.4% | 660.7hPa | 2.7V | 02:30:00 | 00:00:00 | 00:00:00 | |
| DM0DOS-11 | 2026-08-31 07:19:45 | 50.39520 | 9.70095 | 77° | 60km/h | 3601m | -4.3m/s | -1.4°C | 24.9% | 658.6hPa | 2.7V | 02:30:12 | 02:50:52 | 00:00:00 | |
| BIOWL1-15 | 2026-08-31 07:19:45 | 50.39533 | 9.70189 | 77° | 60km/h | 3584m | -4.4m/s | -1.3°C | 29.3% | 660hPa | 2.7V | 02:31:04 | 02:50:56 | 00:00:00 | |
| DM0DOS-11 | 2026-08-31 07:19:38 | 50.39503 | 9.69976 | 78° | 62km/h | 3623m | -4.3m/s | -1.5°C | 23.8% | 656.9hPa | 2.7V | 02:30:17 | 02:50:47 | 00:00:00 | |
| BIOWL1-15 | 2026-08-31 07:19:34 | 50.39497 | 9.69928 | 79° | 62km/h | 3631m | -4.3m/s | -1.6°C | 26.8% | 656.2hPa | 2.7V | 02:31:04 | 02:50:45 | 00:00:00 | |
| NBG1-10 | 2026-08-31 07:19:34 | 50.39497 | 9.69927 | 79° | 68km/h | 3631m | -4.2m/s | -1.5°C | 23.5% | 656.1hPa | 2.6V | 00:00:00 | 02:50:45 | 00:00:00 | |
| DM0DOS-11 | 2026-08-31 07:19:31 | 50.39488 | 9.69855 | 78° | 64km/h | 3644m | -4.4m/s | -1.7°C | 23.5% | 655.1hPa | 2.6V | 02:30:22 | 02:50:42 | 00:00:00 | |
| DM0DOS-11 | 2026-08-31 07:19:31 | 50.39473 | 9.69730 | 78° | 66km/h | 3665m | -4.4m/s | -1.8°C | 23.8% | 653.4hPa | 2.7V | 02:30:27 | 02:50:37 | 00:00:00 | |
| DL1NUX | 2026-08-31 07:19:30 | 50.39485 | 9.69830 | 78° | 64km/h | 3648m | -4.3m/s | -1.7°C | 23.5% | 654.8hPa | 2.7V | 02:30:23 | 02:50:41 | 00:00:00 | |
| DL1NUX | 2026-08-31 07:19:30 | 50.39469 | 9.69704 | 78° | 66km/h | 3669m | -4.5m/s | -1.9°C | 24% | 653.1hPa | 2.7V | 02:30:28 | 02:50:36 | 00:00:00 | |
| DM0DOS-11 | 2026-08-31 07:19:26 | 50.39456 | 9.69600 | 77° | 68km/h | 3687m | -4.3m/s | -2°C | 25.1% | 651.6hPa | 2.7V | 02:30:32 | 02:50:32 | 00:00:00 | |
| SO1NDE-10 | 2026-08-31 07:19:26 | 50.39472 | 9.69730 | 79° | 69km/h | 3665m | -4.3m/s | -1.8°C | 23.8% | 653.4hPa | 2.6V | 00:00:00 | 02:50:37 | 00:00:00 | |
| DF7PN | 2026-08-31 07:19:25 | 50.39466 | 9.69679 | 78° | 66km/h | 3674m | -4.2m/s | -1.9°C | 24.0% | 652.7hPa | 2.6V | 00:00:00 | 00:00:00 | 00:00:00 | |
| DM0DOS-11 | 2026-08-31 07:19:21 | 50.39435 | 9.69469 | 75° | 69km/h | 3708m | -4.2m/s | -2.1°C | 25.8% | 649.9hPa | 2.6V | 02:30:37 | 02:50:27 | 00:00:00 | |
| DK5PH-5 | 2026-08-31 07:19:20 | 50.39452 | 9.69574 | 77° | 69km/h | 3691m | -4.0m/s | -1.9°C | 25.2% | 651.2hPa | 2.7V | 00:00:00 | 02:50:31 | 00:00:00 | |
| DB0NH | 2026-08-31 07:19:17 | 50.39440 | 9.69495 | 77° | 69km/h | 3703m | -4.3m/s | -2.0°C | 25.4% | 650.1hPa | 2.7V | 00:00:00 | 02:50:28 | 00:00:00 | |
| DM0DOS-11 | 2026-08-31 07:19:16 | 50.39413 | 9.69336 | 75° | 69km/h | 3728m | -4.1m/s | -2.2°C | 27.2% | 648.1hPa | 2.7V | 02:30:42 | 02:50:22 | 00:00:00 | |
| BIOWL1-15 | 2026-08-31 07:19:13 | 50.39422 | 9.69389 | 75° | 69km/h | 3720m | -4.4m/s | -2.1°C | 30.8% | 648.8hPa | 2.7V | 02:31:04 | 02:50:24 | 00:00:00 | |
| DL1NUX | 2026-08-31 07:19:12 | 50.39418 | 9.69363 | 74° | 69km/h | 3724m | -4m/s | -2.1°C | 27.1% | 648.5hPa | 2.7V | 02:30:41 | 02:50:23 | 00:00:00 | |
| DL1NUX | 2026-08-31 07:19:12 | 50.39395 | 9.69230 | 74° | 69km/h | 3745m | -4m/s | -2.2°C | 26.4% | 646.9hPa | 2.7V | 02:30:46 | 02:50:18 | 00:00:00 | |
| DM0DOS-11 | 2026-08-31 07:19:11 | 50.39391 | 9.69203 | 74° | 69km/h | 3749m | -4.1m/s | -2.2°C | 25.8% | 646.6hPa | 2.7V | 02:30:47 | 02:50:17 | 00:00:00 | |
| BIOWL1-15 | 2026-08-31 07:19:02 | 50.39372 | 9.69097 | 74° | 69km/h | 3766m | -3.7m/s | -2.2°C | 27.4% | 645.2hPa | 2.7V | 02:31:04 | 02:50:13 | 00:00:00 | |
| DL1NUX | 2026-08-31 07:19:01 | 50.39367 | 9.69070 | 74° | 69km/h | 3769m | -4.2m/s | -2.2°C | 24.2% | 644.8hPa | 2.6V | 02:30:52 | 02:50:12 | 00:00:00 | |
| NBG1-10 | 2026-08-31 07:19:01 | 50.39367 | 9.69070 | 75° | 69km/h | 3770m | -4.1m/s | -2.2°C | 24.2% | 644.8hPa | 2.7V | 00:00:00 | 02:50:12 | 00:00:00 | |
| DM0DOS-11 | 2026-08-31 07:18:58 | 50.39341 | 9.68937 | 73° | 69km/h | 3790m | -3.9m/s | -2.2°C | 27.5% | 643.1hPa | 2.7V | 02:30:57 | 02:50:07 | 00:00:00 | |
| DF7PN | 2026-08-31 07:18:54 | 50.39326 | 9.68856 | 73° | 69km/h | 3802m | -3.9m/s | -2.1°C | 21.2% | 642.2hPa | 2.7V | 00:00:00 | 00:00:00 | 00:00:00 | |
| DL1NUX | 2026-08-31 07:18:53 | 50.39300 | 9.68723 | 73° | 69km/h | 3822m | -4.2m/s | -2.2°C | 21.1% | 640.6hPa | 2.7V | 02:31:05 | 02:49:59 | 00:00:00 | |
| BIOWL1-15 | 2026-08-31 07:18:51 | 50.39295 | 9.68696 | 73° | 71km/h | 3826m | -4.1m/s | -2.2°C | 22% | 640.2hPa | 2.7V | 02:31:55 | 02:49:58 | 00:00:00 | |
| DB0ND-19 | 2026-08-31 07:18:50 | 50.39310 | 9.68776 | 73° | 69km/h | 3814m | -4.0m/s | -2.2°C | 20.8% | 641.3hPa | 2.7V | 00:00:00 | 00:00:00 | 00:00:00 | |
| BIOWL1-15 | 2026-08-31 07:18:40 | 50.39256 | 9.68512 | 71° | 69km/h | 3854m | -4.2m/s | -2.4°C | 20.4% | 638hPa | 2.7V | 02:31:55 | 02:49:51 | 00:00:00 | |
| DM7RM-13 | 2026-08-31 07:18:34 | 50.39227 | 9.68381 | 72° | 69km/h | 3874m | -4.0m/s | -2.5°C | 17.2% | 636.4hPa | 2.7V | 00:00:00 | 00:00:00 | 00:00:00 | |
| DL0LBS | 2026-08-31 07:18:33 | 50.39221 | 9.68355 | 72° | 69km/h | 3878m | -3.9m/s | -2.5°C | 17.1% | 636.1hPa | 2.7V | 02:31:00 | 00:00:00 | 00:00:00 | |
| DL1ZP-14 | 2026-08-31 07:18:32 | 50.39209 | 9.68303 | 70° | 68km/h | 3885m | -3.8m/s | -2.5°C | 16.5% | 635.4hPa | 2.7V | 00:00:00 | 00:00:00 | 00:00:00 | |
| DM0DOS-11 | 2026-08-31 07:18:31 | 50.39180 | 9.68174 | 70° | 69km/h | 3905m | -3.9m/s | -2.5°C | 14.2% | 633.7hPa | 2.7V | 02:31:26 | 02:49:38 | 00:00:00 | |
| BIOWL1-15 | 2026-08-31 07:18:29 | 50.39162 | 9.68095 | 70° | 71km/h | 3917m | -3.9m/s | -2.6°C | 17.2% | 632.9hPa | 2.6V | 02:31:55 | 02:49:35 | 00:00:00 | |
| NBG1-10 | 2026-08-31 07:18:28 | 50.39186 | 9.68199 | 71° | 71km/h | 3901m | -4.1m/s | -2.5°C | 14.8% | 634.1hPa | 2.7V | 02:31:00 | 02:49:39 | 00:00:00 | |
| DB0UT-9 | 2026-08-31 07:18:27 | 50.39186 | 9.68199 | 72° | 69km/h | 3901m | -4.1m/s | -2.5°C | 14.8% | 634.2hPa | 2.7V | 00:00:00 | 00:00:00 | 00:00:00 | |
| DM0DOS-11 | 2026-08-31 07:18:24 | 50.39138 | 9.67990 | 70° | 69km/h | 3932m | -3.9m/s | -2.7°C | 15.3% | 631.7hPa | 2.7V | 02:31:33 | 02:49:31 | 00:00:00 | |
| DL1NUX | 2026-08-31 07:18:24 | 50.39132 | 9.67964 | 70° | 69km/h | 3936m | -3.9m/s | -2.7°C | 15.3% | 631.3hPa | 2.7V | 02:31:34 | 02:49:30 | 00:00:00 | |
| BIOWL1-15 | 2026-08-31 07:18:21 | 50.39132 | 9.67964 | 71° | 69km/h | 3936m | -3.9m/s | -2.7°C | 17.3% | 631.3hPa | 2.7V | 02:31:55 | 02:49:30 | 00:00:00 | |
| DK5PH-5 | 2026-08-31 07:18:20 | 50.39138 | 9.67990 | 71° | 71km/h | 3932m | -3.8m/s | -2.6°C | 15.3% | 631.7hPa | 2.7V | 02:31:00 | 02:49:31 | 00:00:00 | |
| DB0ND-19 | 2026-08-31 07:18:19 | 50.39132 | 9.67964 | 70° | 69km/h | 3936m | -3.9m/s | -2.7°C | 15.2% | 631.3hPa | 2.7V | 00:00:00 | 00:00:00 | 00:00:00 | |
| DM0DOS-11 | 2026-08-31 07:18:17 | 50.39089 | 9.67781 | 68° | 71km/h | 3963m | -3.9m/s | -2.8°C | 14.6% | 629.2hPa | 2.7V | 02:31:41 | 02:49:23 | 00:00:00 | |
| BIOWL1-15 | 2026-08-31 07:18:06 | 50.39049 | 9.67621 | 69° | 71km/h | 3986m | -3.8m/s | -2.7°C | 15.6% | 627.3hPa | 2.7V | 02:31:55 | 02:49:17 | 00:00:00 | |
| BIOWL9-15 | 2026-08-31 07:17:59 | 50.38998 | 9.67408 | 69° | 71km/h | 4017m | -4.1m/s | -2.9°C | 13.8% | 624.9hPa | 2.7V | 00:00:00 | 00:00:00 | 00:00:00 | |
| DM0DOS-11 | 2026-08-31 07:17:57 | 50.38959 | 9.67249 | 68° | 71km/h | 4040m | -3.7m/s | -3°C | 14.3% | 623.2hPa | 2.7V | 02:32:01 | 02:49:03 | 00:00:00 | |
| DL1NUX | 2026-08-31 07:17:56 | 50.38952 | 9.67223 | 68° | 71km/h | 4043m | -3.6m/s | -3.1°C | 14.5% | 622.9hPa | 2.7V | 02:32:02 | 02:49:02 | 00:00:00 | |
| BIOWL1-15 | 2026-08-31 07:17:55 | 50.38965 | 9.67276 | 69° | 71km/h | 4036m | -4.1m/s | -3.1°C | 15.9% | 623.5hPa | 2.7V | 02:32:46 | 02:49:04 | 00:00:00 | |
| DF7PN | 2026-08-31 07:17:52 | 50.38952 | 9.67223 | 68° | 69km/h | 4043m | -3.6m/s | -3.1°C | 14.4% | 622.9hPa | 2.7V | 00:00:00 | 00:00:00 | 00:00:00 | |
| DL1NUX | 2026-08-31 07:17:51 | 50.38919 | 9.67093 | 68° | 71km/h | 4062m | -3.9m/s | -3.2°C | 15% | 621.4hPa | 2.7V | 02:32:07 | 02:48:57 | 00:00:00 | |
| DM0DOS-11 | 2026-08-31 07:17:51 | 50.38925 | 9.67119 | 68° | 71km/h | 4058m | -3.8m/s | -3.2°C | 14.9% | 621.7hPa | 2.6V | 02:32:06 | 02:48:58 | 00:00:00 | |
| DB0ND-19 | 2026-08-31 07:17:48 | 50.38932 | 9.67145 | 68° | 69km/h | 4055m | -3.8m/s | -3.2°C | 14.8% | 622.0hPa | 2.6V | 00:00:00 | 00:00:00 | 00:00:00 | |
| DB0NH | 2026-08-31 07:17:47 | 50.38925 | 9.67119 | 69° | 69km/h | 4058m | -3.8m/s | -3.2°C | 14.9% | 621.6hPa | 2.6V | 00:00:00 | 02:48:58 | 00:00:00 | |
| DL1NUX | 2026-08-31 07:17:46 | 50.38886 | 9.66964 | 67° | 69km/h | 4081m | -3.8m/s | -3.4°C | 15.1% | 619.9hPa | 2.6V | 02:32:12 | 02:48:52 | 00:00:00 | |
| BIOWL1-15 | 2026-08-31 07:17:45 | 50.38912 | 9.67067 | 69° | 69km/h | 4066m | -3.9m/s | -3.3°C | 17.2% | 621.2hPa | 2.7V | 02:32:46 | 02:48:56 | 00:00:00 | |
| DL1NUX | 2026-08-31 07:17:36 | 50.38853 | 9.66835 | 68° | 71km/h | 4100m | -3.9m/s | -3.5°C | 14.7% | 618.4hPa | 2.7V | 02:32:17 | 02:48:47 | 00:00:00 | |
| DL1NUX | 2026-08-31 07:17:36 | 50.38820 | 9.66705 | 68° | 69km/h | 4119m | -3.7m/s | -3.6°C | 14.8% | 617hPa | 2.7V | 02:32:22 | 02:48:42 | 00:00:00 | |
| DM0DOS-11 | 2026-08-31 07:17:36 | 50.38814 | 9.66680 | 68° | 69km/h | 4122m | -3.7m/s | -3.6°C | 14.8% | 616.6hPa | 2.7V | 02:32:23 | 02:48:41 | 00:00:00 | |
| BIOWL1-15 | 2026-08-31 07:17:34 | 50.38814 | 9.66680 | 68° | 69km/h | 4122m | -3.7m/s | -3.6°C | 16.7% | 616.6hPa | 2.7V | 02:32:46 | 02:48:41 | 00:00:00 | |
| DB0UT-7 | 2026-08-31 07:17:32 | 50.38827 | 9.66731 | 69° | 71km/h | 4115m | -3.7m/s | -3.5°C | 14.7% | 617.2hPa | 2.7V | 00:00:00 | 00:00:00 | 00:00:00 | |
| DL0LBS | 2026-08-31 07:17:31 | 50.38827 | 9.66731 | 69° | 69km/h | 4115m | -3.7m/s | -3.6°C | 14.6% | 617.3hPa | 2.7V | 02:32:00 | 00:00:00 | 00:00:00 | |
| DM0DOS-11 | 2026-08-31 07:17:30 | 50.38782 | 9.66550 | 68° | 71km/h | 4141m | -3.7m/s | -3.8°C | 14.3% | 615.3hPa | 2.7V | 02:32:28 | 02:48:36 | 00:00:00 | |
| DL1NUX | 2026-08-31 07:17:26 | 50.38788 | 9.66576 | 69° | 71km/h | 4137m | -3.7m/s | -3.7°C | 14.3% | 615.5hPa | 2.6V | 02:32:27 | 02:48:37 | 00:00:00 | |
| DL1NUX | 2026-08-31 07:17:26 | 50.38757 | 9.66445 | 70° | 69km/h | 4156m | -3.9m/s | -4°C | 15.5% | 614hPa | 2.7V | 02:32:32 | 02:48:32 | 00:00:00 | |
| DM0DOS-11 | 2026-08-31 07:17:25 | 50.38751 | 9.66419 | 69° | 71km/h | 4159m | -3.8m/s | -4°C | 15.7% | 613.8hPa | 2.6V | 02:32:33 | 02:48:31 | 00:00:00 | |
| BIOWL1-15 | 2026-08-31 07:17:23 | 50.38769 | 9.66497 | 70° | 71km/h | 4148m | -3.5m/s | -3.8°C | 17.3% | 614.6hPa | 2.7V | 02:32:46 | 02:48:34 | 00:00:00 | |
| NBG1-10 | 2026-08-31 07:17:22 | 50.38763 | 9.66471 | 70° | 71km/h | 4152m | -3.7m/s | -3.8°C | 15.3% | 614.3hPa | 2.7V | 00:00:00 | 02:48:33 | 00:00:00 | |
| DL1NUX | 2026-08-31 07:17:21 | 50.38727 | 9.66314 | 70° | 71km/h | 4174m | -3.7m/s | -4.1°C | 16.5% | 612.6hPa | 2.7V | 02:32:37 | 02:48:27 | 00:00:00 | |
| DK5PH-5 | 2026-08-31 07:17:20 | 50.38751 | 9.66419 | 70° | 71km/h | 4159m | -3.7m/s | -3.9°C | 15.7% | 613.7hPa | 2.7V | 00:00:00 | 02:48:31 | 00:00:00 | |
| DB0NH | 2026-08-31 07:17:17 | 50.38733 | 9.66340 | 70° | 71km/h | 4171m | -3.6m/s | -4.0°C | 16.3% | 612.9hPa | 2.7V | 02:32:00 | 02:48:28 | 00:00:00 | |
| DL1NUX | 2026-08-31 07:17:16 | 50.38696 | 9.66181 | 69° | 71km/h | 4193m | -3.8m/s | -4.2°C | 17.2% | 611.2hPa | 2.7V | 02:32:42 | 02:48:22 | 00:00:00 | |
| BIOWL7-15 | 2026-08-31 07:17:15 | 50.38727 | 9.66314 | 71° | 71km/h | 4174m | -3.7m/s | -4.1°C | 16.4% | 612.6hPa | 2.7V | 02:32:00 | 00:00:00 | 00:00:00 | |
| DM0DOS-11 | 2026-08-31 07:17:14 | 50.38684 | 9.66128 | 70° | 71km/h | 4200m | -3.8m/s | -4.3°C | 17.5% | 610.7hPa | 2.7V | 02:32:44 | 02:48:20 | 00:00:00 | |
| BIOWL1-15 | 2026-08-31 07:17:13 | 50.38708 | 9.66235 | 70° | 71km/h | 4186m | -3.9m/s | -4.1°C | 19.5% | 611.8hPa | 2.6V | 02:32:46 | 02:48:24 | 00:00:00 | |
| HSKMA3-T | 2026-08-31 07:17:12 | 50.38702 | 9.66208 | 70° | 71km/h | 4189m | -3.5m/s | -4.2°C | 19.6% | 611.5hPa | 2.6V | 02:34:28 | 02:48:23 | 00:00:00 | |
| DL1NUX | 2026-08-31 07:17:11 | 50.38666 | 9.66048 | 71° | 71km/h | 4211m | -3.6m/s | -4.3°C | 17.7% | 609.8hPa | 2.6V | 02:32:47 | 02:48:17 | 00:00:00 | |
| DL0LBS | 2026-08-31 07:17:10 | 50.38696 | 9.66181 | 71° | 71km/h | 4193m | -3.8m/s | -4.2°C | 17.0% | 611.2hPa | 2.7V | 02:32:00 | 00:00:00 | 00:00:00 | |
| DB0UT-9 | 2026-08-31 07:17:07 | 50.38677 | 9.66101 | 71° | 71km/h | 4204m | -3.7m/s | -4.3°C | 17.4% | 610.4hPa | 2.7V | 02:32:00 | 00:00:00 | 00:00:00 | |
| DL1NUX | 2026-08-31 07:17:02 | 50.38610 | 9.65811 | 69° | 71km/h | 4244m | -3.5m/s | -4.6°C | 17.3% | 607.1hPa | 2.7V | 02:32:56 | 02:48:08 | 00:00:00 | |
| BIOWL1-15 | 2026-08-31 07:17:02 | 50.38642 | 9.65942 | 70° | 71km/h | 4226m | -3.8m/s | -4.6°C | 20.2% | 608.5hPa | 2.7V | 02:33:37 | 02:48:13 | 00:00:00 | |
| DM0DOS-11 | 2026-08-31 07:17:01 | 50.38604 | 9.65785 | 69° | 71km/h | 4248m | -3.9m/s | -4.6°C | 17.1% | 606.9hPa | 2.7V | 02:32:57 | 02:48:07 | 00:00:00 | |
| HSKMA3-T | 2026-08-31 07:16:57 | 50.38610 | 9.65811 | 70° | 71km/h | 4244m | -3.5m/s | -4.6°C | 19.6% | 607.1hPa | 2.7V | 02:34:28 | 02:48:08 | 00:00:00 | |
| BIOWL1-15 | 2026-08-31 07:16:51 | 50.38566 | 9.65629 | 69° | 69km/h | 4270m | -3.6m/s | -4.7°C | 18.4% | 605.2hPa | 2.7V | 02:33:37 | 02:48:01 | 00:00:00 | |
| DK5PH-5 | 2026-08-31 07:16:50 | 50.38566 | 9.65629 | 69° | 71km/h | 4270m | -3.6m/s | -4.7°C | 16.1% | 605.1hPa | 2.7V | 02:33:00 | 02:48:01 | 00:00:00 | |
| DL1NUX | 2026-08-31 07:16:49 | 50.38528 | 9.65471 | 68° | 73km/h | 4292m | -3.4m/s | -4.8°C | 14% | 603.5hPa | 2.6V | 02:33:09 | 02:47:55 | 00:00:00 | |
| DB0ND-19 | 2026-08-31 07:16:46 | 50.38541 | 9.65525 | 69° | 69km/h | 4284m | -3.6m/s | -4.7°C | 15.0% | 604.1hPa | 2.6V | 00:00:00 | 00:00:00 | 00:00:00 | |
| DL1NUX | 2026-08-31 07:16:44 | 50.38492 | 9.65342 | 65° | 69km/h | 4310m | -3.8m/s | -4.8°C | 13% | 602.1hPa | 2.6V | 02:33:14 | 02:47:50 | 00:00:00 | |
| DL1NUX | 2026-08-31 07:16:39 | 50.38458 | 9.65216 | 67° | 69km/h | 4327m | -3.5m/s | -4.9°C | 15.1% | 600.9hPa | 2.7V | 02:33:19 | 02:47:45 | 00:00:00 | |
| DM0DOS-11 | 2026-08-31 07:16:33 | 50.38419 | 9.65056 | 67° | 71km/h | 4349m | -3.6m/s | -5°C | 14.1% | 599.1hPa | 2.7V | 02:33:25 | 02:47:39 | 00:00:00 | |
| BIOWL1-15 | 2026-08-31 07:16:32 | 50.38445 | 9.65164 | 70° | 71km/h | 4335m | -4m/s | -4.9°C | 16.3% | 600.3hPa | 2.6V | 02:33:37 | 02:47:43 | 00:00:00 | |
| DL1NUX | 2026-08-31 07:16:29 | 50.38426 | 9.65083 | 68° | 71km/h | 4345m | -3.4m/s | -5°C | 14.1% | 599.4hPa | 2.7V | 02:33:24 | 02:47:40 | 00:00:00 | |
| BIOWL1-15 | 2026-08-31 07:16:21 | 50.38373 | 9.64876 | 68° | 71km/h | 4374m | -3.7m/s | -5.1°C | 14.7% | 597.2hPa | 2.7V | 02:33:37 | 02:47:32 | 00:00:00 | |
| DL1NUX | 2026-08-31 07:16:19 | 50.38359 | 9.64824 | 69° | 71km/h | 4381m | -3.6m/s | -5.2°C | 13% | 596.7hPa | 2.6V | 02:33:34 | 02:47:30 | 00:00:00 | |
| DL1NUX | 2026-08-31 07:16:19 | 50.38324 | 9.64693 | 66° | 71km/h | 4399m | -3.6m/s | -5.3°C | 12.9% | 595.4hPa | 2.7V | 02:33:39 | 02:47:25 | 00:00:00 | |
| DF7PN | 2026-08-31 07:16:18 | 50.38353 | 9.64797 | 68° | 71km/h | 4385m | -3.6m/s | -5.2°C | 12.8% | 596.5hPa | 2.7V | 00:00:00 | 00:00:00 | 00:00:00 | |
| DB0NH | 2026-08-31 07:16:17 | 50.38346 | 9.64770 | 67° | 71km/h | 4388m | -3.6m/s | -5.2°C | 12.9% | 596.2hPa | 2.7V | 00:00:00 | 02:47:28 | 00:00:00 | |
| NBG1-10 | 2026-08-31 07:16:16 | 50.38338 | 9.64744 | 66° | 71km/h | 4392m | -3.4m/s | -5.2°C | 12.9% | 595.8hPa | 2.7V | 00:00:00 | 02:47:27 | 00:00:00 | |
| DB0ND-19 | 2026-08-31 07:16:15 | 50.38331 | 9.64718 | 66° | 69km/h | 4395m | -3.6m/s | -5.3°C | 12.8% | 595.6hPa | 2.7V | 00:00:00 | 00:00:00 | 00:00:00 | |
| DL1NUX | 2026-08-31 07:16:14 | 50.38288 | 9.64563 | 67° | 69km/h | 4417m | -3.4m/s | -5.4°C | 12.6% | 594hPa | 2.7V | 02:33:44 | 02:47:20 | 00:00:00 | |
| BIOWL1-15 | 2026-08-31 07:16:13 | 50.38302 | 9.64614 | 66° | 71km/h | 4410m | -3.5m/s | -5.4°C | 14.4% | 594.6hPa | 2.6V | 02:34:28 | 02:47:22 | 00:00:00 | |
| HSKMA3-T | 2026-08-31 07:16:09 | 50.38288 | 9.64563 | 67° | 69km/h | 4417m | -3.4m/s | -5.4°C | 14.1% | 594hPa | 2.7V | 02:34:28 | 02:47:20 | 00:00:00 | |
| DM0DOS-11 | 2026-08-31 07:16:00 | 50.38211 | 9.64278 | 64° | 71km/h | 4456m | -3.6m/s | -5.7°C | 12.2% | 591hPa | 2.6V | 02:33:55 | 02:47:09 | 00:00:00 | |
| BIOWL1-15 | 2026-08-31 07:16:00 | 50.38227 | 9.64330 | 66° | 73km/h | 4449m | -3.5m/s | -5.7°C | 13.9% | 591.6hPa | 2.7V | 02:34:28 | 02:47:11 | 00:00:00 | |
| DL1NUX | 2026-08-31 07:15:59 | 50.38181 | 9.64176 | 66° | 71km/h | 4470m | -3.7m/s | -5.8°C | 12.2% | 589.9hPa | 2.7V | 02:33:59 | 02:47:05 | 00:00:00 | |
| HSKMA3-T | 2026-08-31 07:15:57 | 50.38204 | 9.64253 | 66° | 71km/h | 4460m | -3.6m/s | -5.7°C | 13.6% | 590.8hPa | 2.7V | 02:34:28 | 02:47:08 | 00:00:00 | |
| BIOWL1-15 | 2026-08-31 07:15:51 | 50.38145 | 9.64045 | 66° | 73km/h | 4488m | -3.5m/s | -6°C | 13.7% | 588.6hPa | 2.7V | 02:34:28 | 02:47:00 | 00:00:00 | |
| DF7PN | 2026-08-31 07:15:47 | 50.38130 | 9.63992 | 64° | 73km/h | 4495m | -3.9m/s | -6.0°C | 12.0% | 588.0hPa | 2.7V | 00:00:00 | 00:00:00 | 00:00:00 | |
| HSKMA3-T | 2026-08-31 07:15:44 | 50.38106 | 9.63914 | 65° | 71km/h | 4506m | -3.6m/s | -6.1°C | 13.8% | 587.3hPa | 2.7V | 02:34:28 | 02:46:55 | 00:00:00 | |
| DL1NUX | 2026-08-31 07:15:44 | 50.38106 | 9.63914 | 64° | 71km/h | 4506m | -3.6m/s | -6.1°C | 12.1% | 587.3hPa | 2.7V | 02:34:09 | 02:46:55 | 00:00:00 | |
| DL1NUX | 2026-08-31 07:15:44 | 50.38068 | 9.63785 | 66° | 73km/h | 4524m | -3.5m/s | -6.2°C | 12.2% | 585.9hPa | 2.6V | 02:34:14 | 02:46:50 | 00:00:00 | |
| NBG1-10 | 2026-08-31 07:15:43 | 50.38098 | 9.63888 | 65° | 73km/h | 4509m | -3.6m/s | -6.1°C | 12.2% | 587.0hPa | 2.7V | 00:00:00 | 02:46:54 | 00:00:00 | |
| DL1NUX | 2026-08-31 07:15:39 | 50.38031 | 9.63652 | 65° | 75km/h | 4542m | -3.7m/s | -6.4°C | 12% | 584.5hPa | 2.7V | 02:34:19 | 02:46:45 | 00:00:00 | |
| BIOWL1-15 | 2026-08-31 07:15:38 | 50.38061 | 9.63758 | 66° | 75km/h | 4527m | -3.7m/s | -6.3°C | 13.5% | 585.6hPa | 2.7V | 02:34:28 | 02:46:49 | 00:00:00 | |
| DL1NUX | 2026-08-31 07:15:34 | 50.37994 | 9.63521 | 68° | 73km/h | 4560m | -3.7m/s | -6.6°C | 11.9% | 583.1hPa | 2.7V | 02:34:24 | 02:46:40 | 00:00:00 | |
| HSKMA3-T | 2026-08-31 07:15:34 | 50.38031 | 9.63652 | 66° | 75km/h | 4542m | -3.7m/s | -6.4°C | 13.5% | 584.5hPa | 2.7V | 02:34:28 | 02:46:45 | 00:00:00 | |
| DL1NUX | 2026-08-31 07:15:29 | 50.37958 | 9.63390 | 67° | 71km/h | 4578m | -3.8m/s | -6.7°C | 11.7% | 581.8hPa | 2.7V | 02:34:29 | 02:46:35 | 00:00:00 | |
| DL0LBS | 2026-08-31 07:15:28 | 50.37994 | 9.63521 | 69° | 73km/h | 4560m | -3.7m/s | -6.6°C | 11.7% | 583.1hPa | 2.6V | 02:34:00 | 00:00:00 | 00:00:00 | |
| BIOWL1-15 | 2026-08-31 07:15:28 | 50.37987 | 9.63494 | 67° | 75km/h | 4564m | -3.7m/s | -6.5°C | 13% | 582.9hPa | 2.7V | 02:34:28 | 02:46:39 | 00:00:00 | |
| DL1ZP-14 | 2026-08-31 07:15:26 | 50.37972 | 9.63441 | 65° | 71km/h | 4571m | -3.6m/s | -6.6°C | 11.5% | 582.3hPa | 2.6V | 00:00:00 | 00:00:00 | 00:00:00 | |
| DF2AP-13 | 2026-08-31 07:15:25 | 50.37965 | 9.63415 | 67° | 75km/h | 4575m | -3.6m/s | -6.6°C | 11.7% | 582.1hPa | 2.7V | 02:34:00 | 02:46:36 | 00:00:00 | |
| DL1NUX | 2026-08-31 07:15:24 | 50.37923 | 9.63255 | 69° | 73km/h | 4596m | -3.7m/s | -6.8°C | 11.8% | 580.4hPa | 2.7V | 02:34:34 | 02:46:30 | 00:00:00 | |
| HSKMA3-T | 2026-08-31 07:15:23 | 50.37951 | 9.63363 | 69° | 73km/h | 4582m | -3.6m/s | -6.7°C | 13% | 581.5hPa | 2.7V | 02:35:19 | 02:46:34 | 00:00:00 | |
| BIOWL1-15 | 2026-08-31 07:15:18 | 50.37896 | 9.63142 | 66° | 78km/h | 4611m | -3.8m/s | -7°C | 13% | 579.3hPa | 2.6V | 02:36:10 | 02:46:26 | 00:00:00 | |
| DB0NH | 2026-08-31 07:15:17 | 50.37910 | 9.63199 | 70° | 77km/h | 4604m | -3.5m/s | -6.9°C | 11.8% | 579.9hPa | 2.6V | 00:00:00 | 02:46:28 | 00:00:00 | |
| DL1NUX | 2026-08-31 07:15:14 | 50.37888 | 9.63114 | 66° | 77km/h | 4615m | -3.8m/s | -7°C | 11.7% | 579hPa | 2.6V | 02:34:39 | 02:46:25 | 00:00:00 | |
| DM0DOS-11 | 2026-08-31 07:15:14 | 50.37852 | 9.62976 | 69° | 77km/h | 4633m | -3.7m/s | -7.1°C | 11.3% | 577.7hPa | 2.7V | 02:34:44 | 02:46:20 | 00:00:00 | |
| HSKMA3-T | 2026-08-31 07:15:13 | 50.37880 | 9.63086 | 67° | 75km/h | 4619m | -3.7m/s | -7°C | 13% | 578.8hPa | 2.7V | 02:35:19 | 02:46:24 | 00:00:00 | |
| BIOWL1-15 | 2026-08-31 07:15:09 | 50.37839 | 9.62920 | 70° | 73km/h | 4641m | -3.7m/s | -7.1°C | 12.1% | 577.2hPa | 2.6V | 02:36:10 | 02:46:18 | 00:00:00 | |
| DL0LBS | 2026-08-31 07:15:07 | 50.37845 | 9.62947 | 70° | 75km/h | 4637m | -3.7m/s | -7.1°C | 11.0% | 577.4hPa | 2.7V | 02:35:00 | 00:00:00 | 00:00:00 | |
| DL1NUX | 2026-08-31 07:15:04 | 50.37820 | 9.62836 | 71° | 78km/h | 4651m | -3.6m/s | -7.2°C | 10.9% | 576.3hPa | 2.7V | 02:34:49 | 02:46:15 | 00:00:00 | |
| DM0DOS-11 | 2026-08-31 07:15:03 | 50.37786 | 9.62693 | 70° | 77km/h | 4670m | -3.6m/s | -7.3°C | 10.7% | 575hPa | 2.7V | 02:34:54 | 02:46:10 | 00:00:00 | |
| HSKMA3-T | 2026-08-31 07:15:02 | 50.37807 | 9.62777 | 69° | 78km/h | 4659m | -3.7m/s | -7.3°C | 11.9% | 575.8hPa | 2.6V | 02:35:19 | 02:46:13 | 00:00:00 | |
| DM0DOS-11 | 2026-08-31 07:14:58 | 50.37752 | 9.62546 | 68° | 78km/h | 4689m | -3.8m/s | -7.5°C | 10.7% | 573.6hPa | 2.7V | 02:34:59 | 02:46:05 | 00:00:00 | |
| BIOWL1-15 | 2026-08-31 07:14:56 | 50.37759 | 9.62575 | 69° | 80km/h | 4685m | -3.9m/s | -7.5°C | 11.8% | 573.9hPa | 2.6V | 02:36:10 | 02:46:06 | 00:00:00 | |
| HSKMA3-T | 2026-08-31 07:14:51 | 50.37731 | 9.62458 | 71° | 80km/h | 4700m | -3.8m/s | -7.6°C | 11.8% | 572.8hPa | 2.7V | 02:35:19 | 02:46:02 | 00:00:00 | |
| DM0DOS-11 | 2026-08-31 07:14:50 | 50.37717 | 9.62398 | 68° | 80km/h | 4707m | -3.8m/s | -7.7°C | 10.7% | 572.2hPa | 2.6V | 02:35:04 | 02:46:00 | 00:00:00 | |
| DL1NUX | 2026-08-31 07:14:49 | 50.37683 | 9.62256 | 72° | 78km/h | 4726m | -3.8m/s | -7.8°C | 10.7% | 570.8hPa | 2.6V | 02:35:09 | 02:45:55 | 00:00:00 | |
| DF7PN | 2026-08-31 07:14:45 | 50.37689 | 9.62285 | 71° | 75km/h | 4722m | -3.9m/s | -7.7°C | 10.5% | 571.1hPa | 2.7V | 00:00:00 | 00:00:00 | 00:00:00 | |
| BIOWL1-15 | 2026-08-31 07:14:45 | 50.37689 | 9.62285 | 72° | 75km/h | 4722m | -3.9m/s | -7.7°C | 11.9% | 571.1hPa | 2.7V | 02:36:10 | 02:45:56 | 00:00:00 | |
| DM0DOS-11 | 2026-08-31 07:14:44 | 50.37649 | 9.62108 | 69° | 77km/h | 4745m | -4m/s | -7.9°C | 10.7% | 569.5hPa | 2.7V | 02:35:14 | 02:45:50 | 00:00:00 | |
| HSKMA3-T | 2026-08-31 07:14:40 | 50.37656 | 9.62137 | 69° | 78km/h | 4741m | -3.8m/s | -7.8°C | 11.7% | 569.7hPa | 2.7V | 02:35:19 | 02:45:51 | 00:00:00 | |
| NBG1-10 | 2026-08-31 07:14:37 | 50.37636 | 9.62050 | 72° | 80km/h | 4752m | -3.8m/s | -7.9°C | 10.7% | 568.8hPa | 2.7V | 00:00:00 | 02:45:48 | 00:00:00 | |
| DL1NUX | 2026-08-31 07:14:34 | 50.37615 | 9.61960 | 67° | 80km/h | 4764m | -4m/s | -8°C | 10.8% | 568.1hPa | 2.7V | 02:35:19 | 02:45:45 | 00:00:00 | |
| BIOWL1-15 | 2026-08-31 07:14:33 | 50.37607 | 9.61931 | 68° | 77km/h | 4768m | -3.8m/s | -8.1°C | 11.9% | 567.9hPa | 2.7V | 02:36:10 | 02:45:44 | 00:00:00 | |
| DM0DOS-11 | 2026-08-31 07:14:33 | 50.37581 | 9.61818 | 72° | 78km/h | 4783m | -3.9m/s | -8.2°C | 10.7% | 566.7hPa | 2.7V | 02:35:24 | 02:45:40 | 00:00:00 | |
| HSKMA3-T | 2026-08-31 07:14:30 | 50.37587 | 9.61847 | 72° | 77km/h | 4779m | -3.8m/s | -8.2°C | 11.9% | 566.9hPa | 2.7V | 02:36:10 | 02:45:41 | 00:00:00 | |
| DL1NUX | 2026-08-31 07:14:24 | 50.37545 | 9.61668 | 69° | 78km/h | 4802m | -3.8m/s | -8.3°C | 10.6% | 565.2hPa | 2.7V | 02:35:29 | 02:45:35 | 00:00:00 | |
| SO1NDE-10 | 2026-08-31 07:14:23 | 50.37538 | 9.61638 | 71° | 82km/h | 4806m | -3.6m/s | -8.3°C | 10.6% | 564.9hPa | 2.6V | 00:00:00 | 02:45:34 | 00:00:00 | |
| DM0DOS-11 | 2026-08-31 07:14:19 | 50.37509 | 9.61517 | 67° | 80km/h | 4821m | -3.8m/s | -8.5°C | 10.7% | 563.9hPa | 2.6V | 02:35:34 | 02:45:30 | 00:00:00 | |
| DL1NUX | 2026-08-31 07:14:19 | 50.37476 | 9.61369 | 72° | 84km/h | 4840m | -3.9m/s | -8.6°C | 10.6% | 562.5hPa | 2.6V | 02:35:39 | 02:45:25 | 00:00:00 | |
| HSKMA3-T | 2026-08-31 07:14:18 | 50.37502 | 9.61488 | 68° | 78km/h | 4825m | -3.8m/s | -8.6°C | 11.7% | 563.6hPa | 2.7V | 02:36:10 | 02:45:29 | 00:00:00 | |
| DB0NH | 2026-08-31 07:14:17 | 50.37495 | 9.61460 | 71° | 82km/h | 4829m | -3.8m/s | -8.5°C | 10.7% | 563.3hPa | 2.7V | 02:35:00 | 02:45:28 | 00:00:00 | |
| DM0DOS-11 | 2026-08-31 07:14:14 | 50.37440 | 9.61212 | 71° | 82km/h | 4859m | -3.8m/s | -8.7°C | 9.7% | 561.1hPa | 2.7V | 02:35:44 | 02:45:20 | 00:00:00 | |
| DB0ND-19 | 2026-08-31 07:14:11 | 50.37454 | 9.61274 | 69° | 82km/h | 4851m | -3.8m/s | -8.6°C | 9.6% | 561.6hPa | 2.7V | 00:00:00 | 00:00:00 | 00:00:00 | |
| DM0DOS-11 | 2026-08-31 07:14:09 | 50.37404 | 9.61061 | 69° | 77km/h | 4878m | -3.9m/s | -8.8°C | 9.1% | 559.7hPa | 2.7V | 02:35:49 | 02:45:15 | 00:00:00 | |
| HSKMA3-T | 2026-08-31 07:14:08 | 50.37433 | 9.61181 | 71° | 84km/h | 4863m | -3.9m/s | -8.7°C | 10% | 560.8hPa | 2.6V | 02:36:10 | 02:45:19 | 00:00:00 | |
| BIOWL1-15 | 2026-08-31 07:14:06 | 50.37419 | 9.61120 | 69° | 82km/h | 4871m | -3.8m/s | -8.8°C | 10.1% | 560.3hPa | 2.7V | 02:36:10 | 02:45:17 | 00:00:00 | |
| NBG1-10 | 2026-08-31 07:14:04 | 50.37404 | 9.61061 | 70° | 80km/h | 4879m | -3.9m/s | -8.8°C | 9.1% | 559.6hPa | 2.7V | 00:00:00 | 02:45:15 | 00:00:00 | |
| DL1NUX | 2026-08-31 07:13:59 | 50.37374 | 9.60909 | 71° | 88km/h | 4898m | -4m/s | -8.7°C | 7.8% | 558.3hPa | 2.7V | 02:35:54 | 02:45:10 | 00:00:00 | |
| DM0DOS-11 | 2026-08-31 07:13:59 | 50.37336 | 9.60753 | 69° | 80km/h | 4918m | -3.9m/s | -8.7°C | 6.7% | 556.9hPa | 2.7V | 02:35:59 | 02:45:05 | 00:00:00 | |
| HSKMA3-T | 2026-08-31 07:13:58 | 50.37367 | 9.60876 | 70° | 88km/h | 4902m | -4m/s | -8.7°C | 7.6% | 557.9hPa | 2.7V | 02:36:10 | 02:45:09 | 00:00:00 | |
| BIOWL1-15 | 2026-08-31 07:13:56 | 50.37351 | 9.60813 | 68° | 84km/h | 4910m | -4.1m/s | -8.7°C | 6.7% | 557.4hPa | 2.6V | 02:36:10 | 02:45:07 | 00:00:00 | |
| DL1ZP-14 | 2026-08-31 07:13:53 | 50.37322 | 9.60693 | 71° | 78km/h | 4926m | -3.8m/s | -8.7°C | 5.9% | 556.3hPa | 2.7V | 00:00:00 | 00:00:00 | 00:00:00 | |
| BIOWL9-15 | 2026-08-31 07:13:50 | 50.37309 | 9.60633 | 69° | 78km/h | 4933m | -4.0m/s | -8.6°C | 5.3% | 555.7hPa | 2.6V | 00:00:00 | 00:00:00 | 00:00:00 | |
| DL1NUX | 2026-08-31 07:13:49 | 50.37302 | 9.60603 | 69° | 78km/h | 4938m | -4.1m/s | -8.6°C | 5.3% | 555.5hPa | 2.6V | 02:36:04 | 02:45:00 | 00:00:00 | |
| DL1NUX | 2026-08-31 07:13:49 | 50.37268 | 9.60456 | 68° | 80km/h | 4958m | -4m/s | -8.6°C | 4.6% | 553.9hPa | 2.6V | 02:36:09 | 02:44:55 | 00:00:00 | |
| HSKMA3-T | 2026-08-31 07:13:47 | 50.37289 | 9.60545 | 71° | 78km/h | 4946m | -4.1m/s | -8.6°C | 3.9% | 554.8hPa | 2.7V | 02:36:10 | 02:44:58 | 00:00:00 | |
| BIOWL1-15 | 2026-08-31 07:13:45 | 50.37276 | 9.60486 | 70° | 80km/h | 4954m | -3.9m/s | -8.6°C | 3.6% | 554.3hPa | 2.6V | 02:36:10 | 02:44:56 | 00:00:00 | |
| DF7PN | 2026-08-31 07:13:43 | 50.37261 | 9.60427 | 69° | 77km/h | 4962m | -4.1m/s | -8.5°C | 4.3% | 553.8hPa | 2.7V | 00:00:00 | 00:00:00 | 00:00:00 | |
| DB0ND-19 | 2026-08-31 07:13:40 | 50.37243 | 9.60341 | 73° | 77km/h | 4974m | -4.1m/s | -8.4°C | 4.0% | 552.9hPa | 2.7V | 00:00:00 | 00:00:00 | 00:00:00 | |
| DB0UT-9 | 2026-08-31 07:13:39 | 50.37243 | 9.60341 | 75° | 78km/h | 4974m | -4.1m/s | -8.4°C | 4.0% | 552.9hPa | 2.7V | 00:00:00 | 00:00:00 | 00:00:00 | |
| DM0DOS-11 | 2026-08-31 07:13:37 | 50.37209 | 9.60157 | 72° | 86km/h | 4998m | -4.1m/s | -8.3°C | 4.7% | 551.1hPa | 2.7V | 02:36:19 | 02:44:45 | 00:00:00 | |
| HSKMA3-T | 2026-08-31 07:13:36 | 50.37220 | 9.60220 | 74° | 80km/h | 4990m | -4.3m/s | -8.3°C | 3.3% | 551.8hPa | 2.7V | 02:37:52 | 02:44:47 | 00:00:00 | |
| BIOWL1-15 | 2026-08-31 07:13:35 | 50.37202 | 9.60125 | 71° | 86km/h | 5003m | -4.2m/s | -8.3°C | 3.5% | 550.8hPa | 2.6V | 02:37:01 | 02:44:44 | 00:00:00 | |
| DB0UT-7 | 2026-08-31 07:13:33 | 50.37202 | 9.60125 | 71° | 82km/h | 5003m | -4.1m/s | -8.3°C | 4.8% | 550.7hPa | 2.7V | 00:00:00 | 02:44:44 | 00:00:00 | |
| DM0DOS-11 | 2026-08-31 07:13:30 | 50.37172 | 9.60005 | 70° | 75km/h | 5019m | -4.2m/s | -8.5°C | 5.7% | 549.6hPa | 2.7V | 02:36:24 | 02:44:40 | 00:00:00 | |
| DL1NUX | 2026-08-31 07:13:29 | 50.37145 | 9.59855 | 73° | 86km/h | 5040m | -4.2m/s | -8.6°C | 6.5% | 548.1hPa | 2.7V | 02:36:29 | 02:44:35 | 00:00:00 | |
| BIOWL1-15 | 2026-08-31 07:13:28 | 50.37145 | 9.59855 | 73° | 86km/h | 5040m | -4.2m/s | -8.6°C | 6% | 548.1hPa | 2.7V | 02:37:01 | 02:44:35 | 00:00:00 | |
| DL0LBS | 2026-08-31 07:13:26 | 50.37161 | 9.59948 | 76° | 77km/h | 5027m | -4.2m/s | -8.5°C | 6.0% | 549.0hPa | 2.7V | 02:37:00 | 00:00:00 | 00:00:00 | |
| DF2AP-13 | 2026-08-31 07:13:25 | 50.37151 | 9.59887 | 75° | 84km/h | 5036m | -4.0m/s | -8.5°C | 6.4% | 548.5hPa | 2.7V | 00:00:00 | 02:44:36 | 00:00:00 | |
| DM0DOS-11 | 2026-08-31 07:13:24 | 50.37103 | 9.59671 | 73° | 78km/h | 5065m | -4.2m/s | -8.8°C | 7% | 546.4hPa | 2.7V | 02:36:35 | 02:44:29 | 00:00:00 | |
| HSKMA3-T | 2026-08-31 07:13:20 | 50.37116 | 9.59730 | 70° | 80km/h | 5056m | -4.1m/s | -8.8°C | 6.4% | 547.1hPa | 2.7V | 02:37:52 | 02:44:31 | 00:00:00 | |
| DK5PH-5 | 2026-08-31 07:13:20 | 50.37116 | 9.59730 | 70° | 82km/h | 5056m | -4.1m/s | -8.7°C | 6.7% | 547.0hPa | 2.7V | 00:00:00 | 02:44:31 | 00:00:00 | |
| DL1NUX | 2026-08-31 07:13:19 | 50.37083 | 9.59547 | 75° | 84km/h | 5082m | -4.2m/s | -9°C | 7.4% | 545.3hPa | 2.7V | 02:36:39 | 02:44:25 | 00:00:00 | |
| BIOWL1-15 | 2026-08-31 07:13:13 | 50.37065 | 9.59451 | 73° | 82km/h | 5094m | -4.2m/s | -9.1°C | 7.9% | 544.4hPa | 2.7V | 02:37:01 | 02:44:22 | 00:00:00 | |
| DF7PN | 2026-08-31 07:13:12 | 50.37071 | 9.59482 | 72° | 84km/h | 5090m | -4.1m/s | -9.1°C | 7.4% | 544.7hPa | 2.7V | 00:00:00 | 00:00:00 | 00:00:00 | |
| DM0DOS-11 | 2026-08-31 07:13:10 | 50.37047 | 9.59356 | 74° | 86km/h | 5107m | -3.9m/s | -9.2°C | 8.3% | 543.5hPa | 2.7V | 02:36:45 | 02:44:19 | 00:00:00 | |
| DL1NUX | 2026-08-31 07:13:09 | 50.37019 | 9.59228 | 69° | 80km/h | 5124m | -4.3m/s | -9.4°C | 8.7% | 542.4hPa | 2.6V | 02:36:49 | 02:44:15 | 00:00:00 | |
| HSKMA3-T | 2026-08-31 07:13:08 | 50.37047 | 9.59356 | 74° | 86km/h | 5107m | -3.9m/s | -9.2°C | 8.7% | 543.5hPa | 2.7V | 02:37:52 | 02:44:19 | 00:00:00 | |
| DL0LBS | 2026-08-31 07:13:05 | 50.37034 | 9.59291 | 72° | 86km/h | 5115m | -4.2m/s | -9.3°C | 8.3% | 543.0hPa | 2.6V | 02:37:00 | 00:00:00 | 00:00:00 | |
| DM0DOS-11 | 2026-08-31 07:13:03 | 50.36985 | 9.59043 | 75° | 88km/h | 5149m | -4.3m/s | -9.6°C | 9.2% | 540.6hPa | 2.6V | 02:36:55 | 02:44:09 | 00:00:00 | |
| BIOWL1-15 | 2026-08-31 07:13:01 | 50.36972 | 9.58976 | 71° | 88km/h | 5158m | -4.2m/s | -9.6°C | 10.4% | 540hPa | 2.7V | 02:37:01 | 02:44:07 | 00:00:00 | |
| DL1NUX | 2026-08-31 07:12:59 | 50.36957 | 9.58912 | 70° | 82km/h | 5166m | -4.3m/s | -9.8°C | 9.8% | 539.3hPa | 2.6V | 02:36:59 | 02:44:05 | 00:00:00 | |
| HSKMA3-T | 2026-08-31 07:12:57 | 50.36979 | 9.59009 | 73° | 89km/h | 5153m | -4.1m/s | -9.6°C | 10.1% | 540.2hPa | 2.7V | 02:37:52 | 02:44:08 | 00:00:00 | |
| DF2AP-13 | 2026-08-31 07:12:55 | 50.36964 | 9.58943 | 70° | 88km/h | 5162m | -4.1m/s | -9.7°C | 9.6% | 539.6hPa | 2.6V | 00:00:00 | 02:44:06 | 00:00:00 | |
| SO1NDE-10 | 2026-08-31 07:12:53 | 50.36951 | 9.58881 | 73° | 88km/h | 5170m | -4.2m/s | -9.8°C | 9.9% | 539.0hPa | 2.6V | 00:00:00 | 02:44:04 | 00:00:00 | |
| DM0DOS-11 | 2026-08-31 07:12:50 | 50.36926 | 9.58720 | 76° | 89km/h | 5192m | -4.2m/s | -9.9°C | 10.2% | 537.6hPa | 2.6V | 02:37:05 | 02:43:59 | 00:00:00 | |
| DK5PH-5 | 2026-08-31 07:12:50 | 50.36935 | 9.58788 | 78° | 89km/h | 5183m | -4.3m/s | -9.8°C | 10.1% | 538.2hPa | 2.7V | 00:00:00 | 02:44:01 | 00:00:00 | |
| DL1NUX | 2026-08-31 07:12:49 | 50.36900 | 9.58585 | 71° | 84km/h | 5209m | -4.3m/s | -10.1°C | 10.7% | 536.5hPa | 2.7V | 02:37:09 | 02:43:55 | 00:00:00 | |
| BIOWL1-15 | 2026-08-31 07:12:47 | 50.36907 | 9.58617 | 72° | 88km/h | 5204m | -4.4m/s | -10.1°C | 11.6% | 536.7hPa | 2.7V | 02:37:52 | 02:43:56 | 00:00:00 | |
| HSKMA3-T | 2026-08-31 07:12:46 | 50.36914 | 9.58651 | 73° | 89km/h | 5200m | -4.3m/s | -10.1°C | 11.5% | 537hPa | 2.7V | 02:37:52 | 02:43:57 | 00:00:00 | |
| DL0LBS | 2026-08-31 07:12:44 | 50.36907 | 9.58617 | 73° | 88km/h | 5204m | -4.4m/s | -10.1°C | 10.3% | 536.7hPa | 2.7V | 02:37:00 | 00:00:00 | 00:00:00 | |
| DM0DOS-11 | 2026-08-31 07:12:43 | 50.36871 | 9.58391 | 79° | 93km/h | 5234m | -4.4m/s | -10.4°C | 11.3% | 534.5hPa | 2.7V | 02:37:15 | 02:43:49 | 00:00:00 | |
| DF7PN | 2026-08-31 07:12:41 | 50.36883 | 9.58492 | 78° | 82km/h | 5222m | -4.1m/s | -10.3°C | 10.8% | 535.4hPa | 2.7V | 00:00:00 | 00:00:00 | 00:00:00 | |
| DL1NUX | 2026-08-31 07:12:39 | 50.36847 | 9.58243 | 72° | 97km/h | 5252m | -4.6m/s | -10.5°C | 11.6% | 533.3hPa | 2.7V | 02:37:19 | 02:43:45 | 00:00:00 | |
| HSKMA3-T | 2026-08-31 07:12:35 | 50.36854 | 9.58280 | 74° | 99km/h | 5248m | -4.5m/s | -10.5°C | 13.1% | 533.6hPa | 2.7V | 02:37:52 | 02:43:46 | 00:00:00 | |
| BIOWL1-15 | 2026-08-31 07:12:34 | 50.36847 | 9.58243 | 73° | 97km/h | 5252m | -4.6m/s | -10.5°C | 13.2% | 533.3hPa | 2.7V | 02:37:52 | 02:43:45 | 00:00:00 | |
| DO3MHA-11 | 2026-08-31 07:12:33 | 50.36840 | 9.58207 | 72° | 89km/h | 5257m | -4.5m/s | -10.5°C | 11.7% | 532.9hPa | 2.7V | 00:00:00 | 02:43:44 | 00:00:00 | |
| DM0DOS-11 | 2026-08-31 07:12:30 | 50.36803 | 9.58043 | 74° | 82km/h | 5279m | -4.2m/s | -10.7°C | 12.2% | 531.5hPa | 2.7V | 02:37:25 | 02:43:39 | 00:00:00 | |
| DL1NUX | 2026-08-31 07:12:29 | 50.36786 | 9.57910 | 80° | 91km/h | 5297m | -4.6m/s | -10.9°C | 12.5% | 530.2hPa | 2.6V | 02:37:29 | 02:43:35 | 00:00:00 | |
| HSKMA3-T | 2026-08-31 07:12:25 | 50.36790 | 9.57945 | 81° | 88km/h | 5292m | -4.6m/s | -10.8°C | 14.2% | 530.6hPa | 2.6V | 02:37:52 | 02:43:36 | 00:00:00 | |
| BIOWL1-15 | 2026-08-31 07:12:24 | 50.36786 | 9.57910 | 80° | 91km/h | 5297m | -4.6m/s | -10.9°C | 14.2% | 530.2hPa | 2.6V | 02:37:52 | 02:43:35 | 00:00:00 | |
| DM0DOS-11 | 2026-08-31 07:12:23 | 50.36752 | 9.57685 | 71° | 99km/h | 5325m | -4.5m/s | -11.1°C | 14.2% | 528.3hPa | 2.6V | 02:37:35 | 02:43:29 | 00:00:00 | |
| SO1NDE-10 | 2026-08-31 07:12:23 | 50.36782 | 9.57874 | 80° | 93km/h | 5301m | -4.5m/s | -10.8°C | 12.6% | 529.8hPa | 2.6V | 02:37:00 | 02:43:34 | 00:00:00 | |
| DO3MHA-11 | 2026-08-31 07:12:22 | 50.36777 | 9.57836 | 79° | 93km/h | 5306m | -4.4m/s | -10.9°C | 12.8% | 529.5hPa | 2.7V | 02:37:00 | 02:43:33 | 00:00:00 | |
| DK5PH-5 | 2026-08-31 07:12:20 | 50.36766 | 9.57760 | 75° | 93km/h | 5315m | -4.7m/s | -11.0°C | 14.0% | 528.9hPa | 2.7V | 02:37:00 | 02:43:31 | 00:00:00 | |
| DL1NUX | 2026-08-31 07:12:19 | 50.36720 | 9.57549 | 70° | 86km/h | 5343m | -4.7m/s | -11.3°C | 14.2% | 527.1hPa | 2.7V | 02:37:39 | 02:43:25 | 00:00:00 | |
| HSKMA3-T | 2026-08-31 07:12:15 | 50.36727 | 9.57582 | 69° | 88km/h | 5338m | -4.4m/s | -11.3°C | 16.6% | 527.3hPa | 2.7V | 02:37:52 | 02:43:26 | 00:00:00 | |
| BIOWL1-15 | 2026-08-31 07:12:13 | 50.36687 | 9.57353 | 79° | 93km/h | 5370m | -4.4m/s | -11.5°C | 15.6% | 525.1hPa | 2.7V | 02:37:52 | 02:43:19 | 00:00:00 | |
| DM0DOS-11 | 2026-08-31 07:12:12 | 50.36683 | 9.57316 | 78° | 97km/h | 5374m | -4.5m/s | -11.5°C | 13.6% | 524.9hPa | 2.6V | 02:37:46 | 02:43:18 | 00:00:00 | |
| DO3MHA-11 | 2026-08-31 07:12:11 | 50.36701 | 9.57455 | 77° | 93km/h | 5356m | -4.5m/s | -11.4°C | 13.8% | 526.1hPa | 2.7V | 00:00:00 | 02:43:22 | 00:00:00 | |
| DF7PN | 2026-08-31 07:12:10 | 50.36696 | 9.57422 | 78° | 84km/h | 5361m | -4.6m/s | -11.4°C | 13.3% | 525.8hPa | 2.7V | 00:00:00 | 00:00:00 | 00:00:00 | |
| DL1NUX | 2026-08-31 07:12:09 | 50.36665 | 9.57201 | 74° | 102km/h | 5388m | -4.8m/s | -11.7°C | 13.9% | 524hPa | 2.7V | 02:37:49 | 02:43:15 | 00:00:00 | |
| HSKMA3-T | 2026-08-31 07:12:05 | 50.36672 | 9.57240 | 76° | 100km/h | 5383m | -4.5m/s | -11.6°C | 15.8% | 524.2hPa | 2.7V | 02:37:52 | 02:43:16 | 00:00:00 | |
| BIOWL1-15 | 2026-08-31 07:12:02 | 50.36650 | 9.57125 | 71° | 100km/h | 5397m | -4.3m/s | -11.8°C | 16.4% | 523.3hPa | 2.7V | 02:37:52 | 02:43:13 | 00:00:00 | |
| DD1CC8 | 2026-08-31 07:12:00 | 50.36633 | 9.57053 | 68° | 93km/h | 5406m | -4.5m/s | -11.9°C | 14.0% | 522.6hPa | 2.7V | 00:00:00 | 00:00:00 | 00:00:00 | |
| DL1NUX | 2026-08-31 07:11:59 | 50.36594 | 9.56855 | 78° | 89km/h | 5433m | -4.3m/s | -12.1°C | 14.1% | 520.8hPa | 2.7V | 02:37:59 | 02:43:05 | 00:00:00 | |
| DM0DOS-11 | 2026-08-31 07:11:57 | 50.36610 | 9.56954 | 72° | 84km/h | 5419m | -4.3m/s | -12°C | 14.1% | 521.7hPa | 2.7V | 02:37:56 | 02:43:08 | 00:00:00 | |
| HSKMA3-T | 2026-08-31 07:11:55 | 50.36599 | 9.56889 | 77° | 86km/h | 5428m | -4.9m/s | -12.1°C | 16.2% | 521.1hPa | 2.7V | 02:38:43 | 02:43:06 | 00:00:00 | |
| DF2AP-13 | 2026-08-31 07:11:55 | 50.36599 | 9.56889 | 78° | 97km/h | 5428m | -4.8m/s | -12.0°C | 14.1% | 521.1hPa | 2.7V | 00:00:00 | 02:43:06 | 00:00:00 | |
| SO1NDE-10 | 2026-08-31 07:11:53 | 50.36589 | 9.56820 | 79° | 97km/h | 5437m | -4.8m/s | -12.1°C | 14.2% | 520.4hPa | 2.7V | 00:00:00 | 02:43:04 | 00:00:00 | |
| DM0DOS-11 | 2026-08-31 07:11:52 | 50.36553 | 9.56591 | 71° | 102km/h | 5466m | -4.3m/s | -12.4°C | 12.4% | 518.6hPa | 2.7V | 02:38:06 | 02:42:58 | 00:00:00 | |
| BIOWL1-15 | 2026-08-31 07:11:51 | 50.36580 | 9.56746 | 78° | 99km/h | 5447m | -4.8m/s | -12.2°C | 16.3% | 519.8hPa | 2.6V | 02:38:43 | 02:43:02 | 00:00:00 | |
| DB0UT-7 | 2026-08-31 07:11:51 | 50.36580 | 9.56745 | 78° | 97km/h | 5447m | -4.7m/s | -12.2°C | 14.1% | 519.7hPa | 2.6V | 02:38:00 | 02:43:02 | 00:00:00 | |
| DK5PH-5 | 2026-08-31 07:11:50 | 50.36574 | 9.56707 | 77° | 97km/h | 5452m | -4.8m/s | -12.2°C | 13.8% | 519.6hPa | 2.7V | 00:00:00 | 02:43:01 | 00:00:00 | |
| DL1NUX | 2026-08-31 07:11:49 | 50.36526 | 9.56480 | 68° | 97km/h | 5479m | -4.9m/s | -12.5°C | 12% | 517.6hPa | 2.7V | 02:38:09 | 02:42:55 | 00:00:00 | |
| DL1ZP-14 | 2026-08-31 07:11:48 | 50.36561 | 9.56629 | 73° | 102km/h | 5461m | -4.7m/s | -12.3°C | 12.1% | 518.9hPa | 2.7V | 00:00:00 | 00:00:00 | 00:00:00 | |
| BIOWL9-15 | 2026-08-31 07:11:46 | 50.36544 | 9.56553 | 69° | 100km/h | 5470m | -4.6m/s | -12.4°C | 11.9% | 518.3hPa | 2.7V | 00:00:00 | 00:00:00 | 00:00:00 | |
| HSKMA3-T | 2026-08-31 07:11:44 | 50.36526 | 9.56480 | 68° | 97km/h | 5479m | -4.9m/s | -12.5°C | 13.6% | 517.6hPa | 2.7V | 02:38:43 | 02:42:55 | 00:00:00 | |
| BIOWL1-15 | 2026-08-31 07:11:41 | 50.36499 | 9.56378 | 68° | 89km/h | 5493m | -4.6m/s | -12.6°C | 14.6% | 516.7hPa | 2.7V | 02:38:43 | 02:42:52 | 00:00:00 | |
| DM0DOS-11 | 2026-08-31 07:11:40 | 50.36472 | 9.56247 | 75° | 88km/h | 5512m | -4.6m/s | -12.8°C | 13.3% | 515.5hPa | 2.7V | 02:38:16 | 02:42:48 | 00:00:00 | |
| DL1NUX | 2026-08-31 07:11:39 | 50.36456 | 9.56139 | 77° | 99km/h | 5526m | -4.7m/s | -12.9°C | 13.3% | 514.5hPa | 2.7V | 02:38:19 | 02:42:45 | 00:00:00 | |
| HSKMA3-T | 2026-08-31 07:11:34 | 50.36456 | 9.56139 | 77° | 99km/h | 5526m | -4.7m/s | -12.9°C | 15.3% | 514.5hPa | 2.7V | 02:38:43 | 02:42:45 | 00:00:00 | |
| BIOWL1-15 | 2026-08-31 07:11:33 | 50.36437 | 9.56022 | 74° | 104km/h | 5539m | -4.8m/s | -13°C | 14.8% | 513.6hPa | 2.7V | 02:38:43 | 02:42:42 | 00:00:00 | |
| DL1NUX | 2026-08-31 07:11:29 | 50.36375 | 9.55756 | 67° | 95km/h | 5573m | -4.7m/s | -13.3°C | 14.2% | 511.4hPa | 2.7V | 02:38:29 | 02:42:35 | 00:00:00 | |
| HSKMA3-T | 2026-08-31 07:11:23 | 50.36366 | 9.55721 | 69° | 93km/h | 5578m | -4.6m/s | -13.4°C | 16.5% | 510.9hPa | 2.6V | 02:38:43 | 02:42:34 | 00:00:00 | |
| BIOWL1-15 | 2026-08-31 07:11:22 | 50.36344 | 9.55619 | 75° | 89km/h | 5592m | -4.8m/s | -13.5°C | 17.9% | 510.1hPa | 2.7V | 02:38:43 | 02:42:31 | 00:00:00 | |
| DB0UT-7 | 2026-08-31 07:11:21 | 50.36351 | 9.55653 | 74° | 102km/h | 5587m | -4.4m/s | -13.4°C | 15.3% | 510.3hPa | 2.6V | 00:00:00 | 00:00:00 | 00:00:00 | |
| DM0DOS-11 | 2026-08-31 07:11:20 | 50.36328 | 9.55513 | 77° | 95km/h | 5606m | -4.6m/s | -13.6°C | 16% | 509.1hPa | 2.6V | 02:38:36 | 02:42:28 | 00:00:00 | |
| HSKMA3-T | 2026-08-31 07:11:12 | 50.36300 | 9.55321 | 76° | 104km/h | 5630m | -4.9m/s | -13.9°C | 19.7% | 507.5hPa | 2.7V | 02:38:43 | 02:42:23 | 00:00:00 | |
| BIOWL1-15 | 2026-08-31 07:11:10 | 50.36286 | 9.55240 | 73° | 108km/h | 5639m | -4.8m/s | -14°C | 19.7% | 506.8hPa | 2.6V | 02:38:43 | 02:42:21 | 00:00:00 | |
| DL1NUX | 2026-08-31 07:11:09 | 50.36231 | 9.55004 | 68° | 100km/h | 5668m | -5.1m/s | -14.2°C | 17.4% | 504.9hPa | 2.6V | 02:38:49 | 02:42:15 | 00:00:00 | |
| HSKMA3-T | 2026-08-31 07:11:01 | 50.36204 | 9.54896 | 70° | 95km/h | 5682m | -4.6m/s | -14.3°C | 21.2% | 503.9hPa | 2.7V | 02:39:34 | 02:42:12 | 00:00:00 | |
| DM0DOS-11 | 2026-08-31 07:11:00 | 50.36171 | 9.54719 | 76° | 95km/h | 5705m | -4.7m/s | -14.6°C | 19.2% | 502.5hPa | 2.7V | 02:38:57 | 02:42:07 | 00:00:00 | |
| BIOWL1-15 | 2026-08-31 07:10:59 | 50.36189 | 9.54827 | 73° | 93km/h | 5692m | -4.6m/s | -14.4°C | 21.8% | 503.4hPa | 2.6V | 02:39:34 | 02:42:10 | 00:00:00 | |
| BIOWL1-15 | 2026-08-31 07:10:52 | 50.36122 | 9.54405 | 73° | 110km/h | 5744m | -5.1m/s | -14.9°C | 23.2% | 499.8hPa | 2.7V | 02:39:34 | 02:41:59 | 00:00:00 | |
| HSKMA3-T | 2026-08-31 07:10:51 | 50.36142 | 9.54528 | 77° | 104km/h | 5729m | -4.7m/s | -14.8°C | 23.4% | 500.8hPa | 2.7V | 02:39:34 | 02:42:02 | 00:00:00 | |
| DM0DOS-11 | 2026-08-31 07:10:50 | 50.36105 | 9.54322 | 70° | 110km/h | 5753m | -4.9m/s | -15°C | 20% | 499.1hPa | 2.7V | 02:39:07 | 02:41:57 | 00:00:00 | |
| DK5PH-5 | 2026-08-31 07:10:50 | 50.36136 | 9.54487 | 76° | 104km/h | 5734m | -4.9m/s | -14.8°C | 20.3% | 500.4hPa | 2.6V | 02:39:00 | 02:42:01 | 00:00:00 | |
| DL1NUX | 2026-08-31 07:10:48 | 50.36075 | 9.54205 | 67° | 100km/h | 5768m | -4.8m/s | -15.1°C | 19.8% | 498.3hPa | 2.7V | 02:39:10 | 02:41:54 | 00:00:00 | |
| DB0NH | 2026-08-31 07:10:47 | 50.36114 | 9.54363 | 72° | 102km/h | 5749m | -5.0m/s | -14.9°C | 20.0% | 499.4hPa | 2.7V | 00:00:00 | 02:41:58 | 00:00:00 | |
| DO3MHA-11 | 2026-08-31 07:10:46 | 50.36105 | 9.54322 | 71° | 99km/h | 5753m | -4.8m/s | -14.9°C | 20.0% | 499.1hPa | 2.7V | 00:00:00 | 02:41:57 | 00:00:00 | |
| BIOWL9-15 | 2026-08-31 07:10:44 | 50.36085 | 9.54243 | 67° | 104km/h | 5763m | -4.8m/s | -15.0°C | 19.2% | 498.6hPa | 2.7V | 00:00:00 | 00:00:00 | 00:00:00 | |
| DL0LBS | 2026-08-31 07:10:41 | 50.36066 | 9.54168 | 68° | 99km/h | 5773m | -4.9m/s | -15.1°C | 19.2% | 498.0hPa | 2.7V | 02:39:00 | 00:00:00 | 00:00:00 | |
| DM0DOS-11 | 2026-08-31 07:10:40 | 50.36021 | 9.53956 | 76° | 97km/h | 5802m | -5m/s | -15.3°C | 20.2% | 496.1hPa | 2.7V | 02:39:17 | 02:41:47 | 00:00:00 | |
| HSKMA3-T | 2026-08-31 07:10:40 | 50.36048 | 9.54098 | 70° | 93km/h | 5782m | -4.9m/s | -15.2°C | 22.8% | 497.2hPa | 2.6V | 02:39:34 | 02:41:51 | 00:00:00 | |
| DL1NUX | 2026-08-31 07:10:38 | 50.36005 | 9.53840 | 77° | 102km/h | 5816m | -4.9m/s | -15.5°C | 20.4% | 495.1hPa | 2.7V | 02:39:20 | 02:41:44 | 00:00:00 | |
| BIOWL1-15 | 2026-08-31 07:10:38 | 50.36033 | 9.54028 | 74° | 93km/h | 5792m | -4.8m/s | -15.3°C | 23% | 496.8hPa | 2.7V | 02:39:34 | 02:41:49 | 00:00:00 | |
| DF7PN | 2026-08-31 07:10:37 | 50.36021 | 9.53956 | 76° | 95km/h | 5802m | -5.0m/s | -15.4°C | 19.6% | 496.1hPa | 2.7V | 00:00:00 | 00:00:00 | 00:00:00 | |
| DO3MHA-11 | 2026-08-31 07:10:36 | 50.36021 | 9.53956 | 77° | 106km/h | 5802m | -4.9m/s | -15.3°C | 20.2% | 496.1hPa | 2.7V | 02:39:00 | 02:41:47 | 00:00:00 | |
| DB0ND-19 | 2026-08-31 07:10:34 | 50.36010 | 9.53880 | 77° | 100km/h | 5812m | -4.9m/s | -15.4°C | 19.7% | 495.5hPa | 2.7V | 00:00:00 | 00:00:00 | 00:00:00 | |
| DM0DOS-11 | 2026-08-31 07:10:30 | 50.35954 | 9.53548 | 71° | 111km/h | 5851m | -4.8m/s | -15.8°C | 21.6% | 492.8hPa | 2.7V | 02:39:27 | 02:41:37 | 00:00:00 | |
| HSKMA3-T | 2026-08-31 07:10:30 | 50.35986 | 9.53717 | 75° | 110km/h | 5831m | -4.9m/s | -15.6°C | 24% | 494.1hPa | 2.6V | 02:39:34 | 02:41:41 | 00:00:00 | |
| DL1NUX | 2026-08-31 07:10:28 | 50.35924 | 9.53428 | 67° | 104km/h | 5866m | -4.7m/s | -15.9°C | 22% | 491.9hPa | 2.7V | 02:39:30 | 02:41:34 | 00:00:00 | |
| BIOWL1-15 | 2026-08-31 07:10:27 | 50.35944 | 9.53507 | 70° | 110km/h | 5856m | -5m/s | -15.8°C | 24.8% | 492.4hPa | 2.6V | 02:39:34 | 02:41:36 | 00:00:00 | |
| DD1CC8 | 2026-08-31 07:10:27 | 50.35954 | 9.53548 | 71° | 110km/h | 5851m | -4.8m/s | -15.8°C | 21.0% | 492.8hPa | 2.7V | 00:00:00 | 00:00:00 | 00:00:00 | |
| DO3MHA-11 | 2026-08-31 07:10:26 | 50.35953 | 9.53548 | 72° | 102km/h | 5851m | -4.7m/s | -15.8°C | 21.6% | 492.7hPa | 2.7V | 00:00:00 | 02:41:37 | 00:00:00 | |
| DF2AP-13 | 2026-08-31 07:10:25 | 50.35944 | 9.53507 | 70° | 104km/h | 5856m | -4.9m/s | -15.8°C | 21.7% | 492.4hPa | 2.7V | 00:00:00 | 02:41:36 | 00:00:00 | |
| SO1NDE-10 | 2026-08-31 07:10:23 | 50.35924 | 9.53427 | 68° | 104km/h | 5866m | -4.7m/s | -15.9°C | 22.0% | 491.8hPa | 2.7V | 00:00:00 | 02:41:34 | 00:00:00 | |
| DM0DOS-11 | 2026-08-31 07:10:21 | 50.35870 | 9.53170 | 77° | 102km/h | 5899m | -4.6m/s | -16.2°C | 22.9% | 489.6hPa | 2.7V | 02:39:37 | 02:41:27 | 00:00:00 | |
| HSKMA3-T | 2026-08-31 07:10:20 | 50.35897 | 9.53317 | 71° | 95km/h | 5879m | -5m/s | -16.1°C | 25.6% | 491hPa | 2.6V | 02:39:34 | 02:41:31 | 00:00:00 | |
| DK5PH-5 | 2026-08-31 07:10:20 | 50.35897 | 9.53317 | 71° | 104km/h | 5880m | -5.0m/s | -16.0°C | 22.5% | 490.9hPa | 2.7V | 00:00:00 | 02:41:31 | 00:00:00 | |
| DL1NUX | 2026-08-31 07:10:18 | 50.35852 | 9.53046 | 76° | 110km/h | 5914m | -4.8m/s | -16.4°C | 22.7% | 488.8hPa | 2.7V | 02:39:40 | 02:41:24 | 00:00:00 | |
| BIOWL1-15 | 2026-08-31 07:10:14 | 50.35829 | 9.52918 | 72° | 113km/h | 5928m | -4.9m/s | -16.5°C | 26% | 487.8hPa | 2.7V | 02:40:25 | 02:41:21 | 00:00:00 | |
| NBG1-10 | 2026-08-31 07:10:13 | 50.35852 | 9.53046 | 77° | 106km/h | 5914m | -4.8m/s | -16.3°C | 22.7% | 488.7hPa | 2.7V | 02:39:00 | 02:41:24 | 00:00:00 | |
| DM0DOS-11 | 2026-08-31 07:10:10 | 50.35790 | 9.52754 | 68° | 106km/h | 5947m | -4.8m/s | -16.6°C | 23.3% | 486.6hPa | 2.7V | 02:39:47 | 02:41:17 | 00:00:00 | |
| HSKMA3-T | 2026-08-31 07:10:09 | 50.35820 | 9.52876 | 70° | 113km/h | 5933m | -4.5m/s | -16.5°C | 26.2% | 487.6hPa | 2.6V | 02:40:25 | 02:41:20 | 00:00:00 | |
| BIOWL1-15 | 2026-08-31 07:10:00 | 50.35737 | 9.52532 | 73° | 97km/h | 5976m | -4.9m/s | -16.9°C | 27.1% | 484.7hPa | 2.7V | 02:40:25 | 02:41:11 | 00:00:00 | |
| DM0DOS-11 | 2026-08-31 07:10:00 | 50.35712 | 9.52381 | 77° | 104km/h | 5996m | -4.8m/s | -17.1°C | 24.6% | 483.4hPa | 2.7V | 02:39:57 | 02:41:07 | 00:00:00 | |
| HSKMA3-T | 2026-08-31 07:09:59 | 50.35730 | 9.52495 | 75° | 97km/h | 5981m | -5.1m/s | -16.9°C | 27.4% | 484.4hPa | 2.7V | 02:40:25 | 02:41:10 | 00:00:00 | |
| DD1CC8 | 2026-08-31 07:09:56 | 50.35707 | 9.52341 | 78° | 104km/h | 6001m | -4.9m/s | -17.1°C | 23.9% | 483.1hPa | 2.6V | 00:00:00 | 00:00:00 | 00:00:00 | |
| DF2AP-13 | 2026-08-31 07:09:55 | 50.35706 | 9.52340 | 79° | 106km/h | 6001m | -4.9m/s | -17.1°C | 24.6% | 483.0hPa | 2.6V | 00:00:00 | 02:41:06 | 00:00:00 | |
| DB0UT-9 | 2026-08-31 07:09:54 | 50.35707 | 9.52340 | 79° | 106km/h | 6001m | -4.9m/s | -17.1°C | 23.9% | 483.1hPa | 2.6V | 00:00:00 | 00:00:00 | 00:00:00 | |
| SO1NDE-10 | 2026-08-31 07:09:53 | 50.35695 | 9.52258 | 78° | 108km/h | 6011m | -4.8m/s | -17.1°C | 24.5% | 482.5hPa | 2.6V | 00:00:00 | 02:41:04 | 00:00:00 | |
| DM0DOS-11 | 2026-08-31 07:09:50 | 50.35633 | 9.51963 | 69° | 108km/h | 6045m | -5m/s | -17.5°C | 25.4% | 480.3hPa | 2.6V | 02:40:07 | 02:40:57 | 00:00:00 | |
| BIOWL1-15 | 2026-08-31 07:09:50 | 50.35672 | 9.52129 | 72° | 113km/h | 6026m | -4.6m/s | -17.3°C | 27.8% | 481.6hPa | 2.6V | 02:40:25 | 02:41:01 | 00:00:00 | |
| DK5PH-5 | 2026-08-31 07:09:50 | 50.35672 | 9.52129 | 73° | 106km/h | 6026m | -4.5m/s | -17.3°C | 24.6% | 481.6hPa | 2.7V | 00:00:00 | 02:41:01 | 00:00:00 | |
| DL1NUX | 2026-08-31 07:09:48 | 50.35604 | 9.51848 | 67° | 100km/h | 6059m | -5m/s | -17.6°C | 26.7% | 479.4hPa | 2.7V | 02:40:10 | 02:40:54 | 00:00:00 | |
| HSKMA3-T | 2026-08-31 07:09:48 | 50.35654 | 9.52044 | 69° | 111km/h | 6035m | -4.8m/s | -17.4°C | 28.1% | 480.9hPa | 2.7V | 02:40:25 | 02:40:59 | 00:00:00 | |
| DB0NH | 2026-08-31 07:09:47 | 50.35643 | 9.52003 | 69° | 104km/h | 6040m | -5.2m/s | -17.4°C | 25.0% | 480.6hPa | 2.7V | 02:40:00 | 02:40:58 | 00:00:00 | |
| DO3MHA-11 | 2026-08-31 07:09:46 | 50.35634 | 9.51963 | 70° | 100km/h | 6045m | -4.9m/s | -17.4°C | 25.4% | 480.3hPa | 2.7V | 00:00:00 | 02:40:57 | 00:00:00 | |
| DM7RM-13 | 2026-08-31 07:09:45 | 50.35633 | 9.51963 | 70° | 108km/h | 6045m | -5.0m/s | -17.5°C | 24.7% | 480.3hPa | 2.7V | 02:40:00 | 00:00:00 | 00:00:00 | |
| DL1ZP-14 | 2026-08-31 07:09:44 | 50.35614 | 9.51886 | 68° | 102km/h | 6055m | -4.9m/s | -17.6°C | 26.3% | 479.7hPa | 2.7V | 00:00:00 | 00:00:00 | 00:00:00 | |
| BIOWL9-15 | 2026-08-31 07:09:42 | 50.35594 | 9.51811 | 68° | 99km/h | 6064m | -5.0m/s | -17.7°C | 26.0% | 479.0hPa | 2.7V | 00:00:00 | 00:00:00 | 00:00:00 | |
| DL0LBS | 2026-08-31 07:09:41 | 50.35595 | 9.51812 | 70° | 100km/h | 6065m | -5.0m/s | -17.7°C | 26.0% | 479.0hPa | 2.7V | 02:40:00 | 00:00:00 | 00:00:00 | |
| DM0DOS-11 | 2026-08-31 07:09:40 | 50.35546 | 9.51593 | 75° | 99km/h | 6094m | -4.8m/s | -17.9°C | 25.4% | 477.2hPa | 2.7V | 02:40:17 | 02:40:47 | 00:00:00 | |
| BIOWL1-15 | 2026-08-31 07:09:40 | 50.35577 | 9.51739 | 70° | 97km/h | 6074m | -4.9m/s | -17.7°C | 29% | 478.4hPa | 2.6V | 02:40:25 | 02:40:51 | 00:00:00 | |
| HSKMA3-T | 2026-08-31 07:09:38 | 50.35560 | 9.51667 | 72° | 97km/h | 6084m | -5m/s | -17.8°C | 28.7% | 477.8hPa | 2.6V | 02:40:25 | 02:40:49 | 00:00:00 | |
| DB0UT-7 | 2026-08-31 07:09:38 | 50.35560 | 9.51667 | 72° | 104km/h | 6084m | -4.9m/s | -17.7°C | 25.7% | 477.7hPa | 2.6V | 02:40:00 | 00:00:00 | 00:00:00 | |
| DO3MHA-11 | 2026-08-31 07:09:36 | 50.35546 | 9.51593 | 76° | 108km/h | 6094m | -4.8m/s | -17.8°C | 25.4% | 477.1hPa | 2.7V | 02:40:00 | 02:40:47 | 00:00:00 | |
| DB0UT-9 | 2026-08-31 07:09:34 | 50.35540 | 9.51554 | 76° | 100km/h | 6099m | -4.7m/s | -17.9°C | 24.4% | 476.9hPa | 2.6V | 00:00:00 | 00:00:00 | 00:00:00 | |
| DB0ND-19 | 2026-08-31 07:09:32 | 50.35521 | 9.51434 | 77° | 106km/h | 6112m | -5.0m/s | -18.0°C | 0% | 476.0hPa | 2.6V | 00:00:00 | 00:00:00 | 00:00:00 | |
| DM0DOS-11 | 2026-08-31 07:09:30 | 50.35476 | 9.51177 | 71° | 113km/h | 6142m | -4.9m/s | -18.3°C | 25.6% | 474.1hPa | 2.6V | 02:40:27 | 02:40:37 | 00:00:00 | |
| HSKMA3-T | 2026-08-31 07:09:27 | 50.35485 | 9.51220 | 72° | 115km/h | 6137m | -5m/s | -18.2°C | 28.8% | 474.4hPa | 2.6V | 02:41:16 | 02:40:38 | 00:00:00 | |
| DO3MHA-11 | 2026-08-31 07:09:26 | 50.35476 | 9.51177 | 72° | 106km/h | 6142m | -4.9m/s | -18.2°C | 25.6% | 474.0hPa | 2.7V | 00:00:00 | 02:40:37 | 00:00:00 | |
| DF2AP-13 | 2026-08-31 07:09:25 | 50.35466 | 9.51135 | 70° | 106km/h | 6148m | -4.9m/s | -18.2°C | 25.2% | 473.7hPa | 2.7V | 02:40:00 | 02:40:36 | 00:00:00 | |
| DM7RM-13 | 2026-08-31 07:09:24 | 50.35466 | 9.51135 | 71° | 113km/h | 6148m | -5.0m/s | -18.3°C | 24.4% | 473.8hPa | 2.7V | 02:41:00 | 00:00:00 | 00:00:00 | |
| SO1NDE-10 | 2026-08-31 07:09:23 | 50.35446 | 9.51053 | 68° | 106km/h | 6157m | -5.1m/s | -18.3°C | 25.1% | 473.1hPa | 2.7V | 02:40:00 | 02:40:34 | 00:00:00 | |
| DJTTGO | 2026-08-31 07:09:21 | 50.35435 | 9.51013 | 68° | 108km/h | 6162m | -4.8m/s | -18.4°C | 24.4% | 472.8hPa | 2.6V | 00:00:00 | 00:00:00 | 00:00:00 | |
| DK5PH-5 | 2026-08-31 07:09:20 | 50.35414 | 9.50937 | 67° | 106km/h | 6172m | -4.5m/s | -18.4°C | 25.5% | 472.2hPa | 2.6V | 02:40:00 | 02:40:31 | 00:00:00 | |
| DM0DOS-11 | 2026-08-31 07:09:18 | 50.35380 | 9.50791 | 73° | 97km/h | 6191m | -4.6m/s | -18.6°C | 26.6% | 471hPa | 2.7V | 02:40:37 | 02:40:27 | 00:00:00 | |
| DL1NUX | 2026-08-31 07:09:18 | 50.35361 | 9.50676 | 76° | 104km/h | 6206m | -4.7m/s | -18.8°C | 26.8% | 470.1hPa | 2.6V | 02:40:40 | 02:40:24 | 00:00:00 | |
| BIOWL1-15 | 2026-08-31 07:09:18 | 50.35396 | 9.50864 | 69° | 97km/h | 6181m | -4.8m/s | -18.6°C | 29.1% | 471.7hPa | 2.7V | 02:41:16 | 02:40:29 | 00:00:00 | |
| HSKMA3-T | 2026-08-31 07:09:17 | 50.35387 | 9.50828 | 72° | 97km/h | 6187m | -5m/s | -18.6°C | 29.4% | 471.4hPa | 2.7V | 02:41:16 | 02:40:28 | 00:00:00 | |
| BIOWL1-15 | 2026-08-31 07:09:10 | 50.35328 | 9.50467 | 75° | 111km/h | 6230m | -5.1m/s | -19°C | 29.8% | 468.5hPa | 2.7V | 02:41:16 | 02:40:19 | 00:00:00 | |
| DM0DOS-11 | 2026-08-31 07:09:08 | 50.35304 | 9.50338 | 71° | 115km/h | 6244m | -4.8m/s | -19.1°C | 26.8% | 467.6hPa | 2.6V | 02:40:48 | 02:40:16 | 00:00:00 | |
| DL1NUX | 2026-08-31 07:09:08 | 50.35284 | 9.50253 | 68° | 113km/h | 6254m | -4.7m/s | -19.2°C | 26.6% | 467hPa | 2.7V | 02:40:50 | 02:40:14 | 00:00:00 | |
| HSKMA3-T | 2026-08-31 07:09:06 | 50.35313 | 9.50381 | 73° | 115km/h | 6240m | -4.7m/s | -19.1°C | 29.7% | 468hPa | 2.6V | 02:41:16 | 02:40:17 | 00:00:00 | |
| DO3MHA-11 | 2026-08-31 07:09:06 | 50.35312 | 9.50381 | 74° | 108km/h | 6240m | -4.6m/s | -19.0°C | 26.9% | 467.9hPa | 2.6V | 02:40:00 | 02:40:17 | 00:00:00 | |
| DF7PN | 2026-08-31 07:09:04 | 50.35284 | 9.50253 | 68° | 113km/h | 6254m | -4.7m/s | -19.2°C | 25.8% | 467.0hPa | 2.7V | 00:00:00 | 00:00:00 | 00:00:00 | |
| DJTTGO | 2026-08-31 07:09:01 | 50.35262 | 9.50172 | 67° | 110km/h | 6264m | -4.7m/s | -19.3°C | 25.6% | 466.5hPa | 2.7V | 00:00:00 | 00:00:00 | 00:00:00 | |
| DL0LBS | 2026-08-31 07:09:00 | 50.35262 | 9.50172 | 67° | 110km/h | 6264m | -4.7m/s | -19.3°C | 25.6% | 466.5hPa | 2.7V | 02:41:00 | 00:00:00 | 00:00:00 | |
| DM0DOS-11 | 2026-08-31 07:08:58 | 50.35206 | 9.49948 | 73° | 99km/h | 6292m | -4.5m/s | -19.5°C | 26.2% | 464.6hPa | 2.7V | 02:40:58 | 02:40:06 | 00:00:00 | |
| DL1NUX | 2026-08-31 07:08:58 | 50.35192 | 9.49871 | 74° | 104km/h | 6301m | -4.6m/s | -19.6°C | 26.1% | 464.1hPa | 2.6V | 02:41:00 | 02:40:04 | 00:00:00 | |
| BIOWL1-15 | 2026-08-31 07:08:57 | 50.35192 | 9.49871 | 75° | 104km/h | 6301m | -4.6m/s | -19.6°C | 28.6% | 464.1hPa | 2.6V | 02:41:16 | 02:40:04 | 00:00:00 | |
| HSKMA3-T | 2026-08-31 07:08:56 | 50.35213 | 9.49985 | 72° | 97km/h | 6287m | -4.5m/s | -19.4°C | 28.8% | 465hPa | 2.7V | 02:41:16 | 02:40:07 | 00:00:00 | |
| DD1CC8 | 2026-08-31 07:08:54 | 50.35192 | 9.49871 | 74° | 102km/h | 6301m | -4.6m/s | -19.6°C | 25.3% | 464.1hPa | 2.6V | 00:00:00 | 00:00:00 | 00:00:00 | |
| SFWM-10 | 2026-08-31 07:08:53 | 50.35199 | 9.49910 | 76° | 100km/h | 6297m | -4.9m/s | -19.5°C | 25.3% | 464.4hPa | 2.6V | 00:00:00 | 00:00:00 | 00:00:00 | |
| DK5PH-5 | 2026-08-31 07:08:50 | 50.35171 | 9.49749 | 75° | 108km/h | 6316m | -4.6m/s | -19.6°C | 26.1% | 463.1hPa | 2.6V | 00:00:00 | 02:40:01 | 00:00:00 | |
| DM0DOS-11 | 2026-08-31 07:08:48 | 50.35128 | 9.49535 | 70° | 115km/h | 6340m | -5.2m/s | -19.8°C | 25.9% | 461.6hPa | 2.6V | 02:41:08 | 02:39:56 | 00:00:00 | |
| DL1NUX | 2026-08-31 07:08:47 | 50.35096 | 9.49407 | 67° | 115km/h | 6354m | -4.7m/s | -19.9°C | 25.3% | 460.7hPa | 2.7V | 02:41:11 | 02:39:53 | 00:00:00 | |
| BIOWL1-15 | 2026-08-31 07:08:47 | 50.35146 | 9.49622 | 72° | 113km/h | 6330m | -5.1m/s | -19.8°C | 28.5% | 462.3hPa | 2.7V | 02:41:16 | 02:39:58 | 00:00:00 | |
| HSKMA3-T | 2026-08-31 07:08:45 | 50.35128 | 9.49535 | 71° | 115km/h | 6340m | -5.2m/s | -19.8°C | 28.3% | 461.6hPa | 2.6V | 02:41:16 | 02:39:56 | 00:00:00 | |
| DM7RM-13 | 2026-08-31 07:08:44 | 50.35127 | 9.49535 | 72° | 115km/h | 6340m | -5.2m/s | -19.8°C | 25.0% | 461.6hPa | 2.7V | 02:41:00 | 00:00:00 | 00:00:00 | |
| DL1ZP-14 | 2026-08-31 07:08:42 | 50.35096 | 9.49407 | 67° | 113km/h | 6354m | -4.7m/s | -19.9°C | 24.4% | 460.7hPa | 2.7V | 00:00:00 | 00:00:00 | 00:00:00 | |
| BIOWL9-15 | 2026-08-31 07:08:40 | 50.35073 | 9.49325 | 65° | 111km/h | 6364m | -4.9m/s | -20.0°C | 24.1% | 460.2hPa | 2.7V | 00:00:00 | 00:00:00 | 00:00:00 | |
| DL0LBS | 2026-08-31 07:08:39 | 50.35073 | 9.49325 | 66° | 113km/h | 6364m | -4.9m/s | -20.0°C | 24.1% | 460.2hPa | 2.7V | 02:41:00 | 00:00:00 | 00:00:00 | |
| DM0DOS-11 | 2026-08-31 07:08:38 | 50.35015 | 9.49133 | 65° | 100km/h | 6388m | -4.7m/s | -20.1°C | 24.3% | 458.6hPa | 2.7V | 02:41:18 | 02:39:46 | 00:00:00 | |
| DL1NUX | 2026-08-31 07:08:37 | 50.34986 | 9.49023 | 68° | 99km/h | 6402m | -4.7m/s | -20.2°C | 24.1% | 457.8hPa | 2.6V | 02:41:21 | 02:39:43 | 00:00:00 | |
| BIOWL1-15 | 2026-08-31 07:08:36 | 50.35026 | 9.49170 | 65° | 104km/h | 6383m | -4.8m/s | -20.1°C | 26.9% | 458.9hPa | 2.7V | 02:42:07 | 02:39:47 | 00:00:00 | |
| HSKMA3-T | 2026-08-31 07:08:34 | 50.35005 | 9.49096 | 67° | 100km/h | 6393m | -4.8m/s | -20.1°C | 26.9% | 458.4hPa | 2.7V | 02:42:07 | 02:39:45 | 00:00:00 | |
| NBG1-10 | 2026-08-31 07:08:34 | 50.35005 | 9.49096 | 67° | 106km/h | 6393m | -4.8m/s | -20.1°C | 24.2% | 458.3hPa | 2.7V | 02:41:00 | 02:39:45 | 00:00:00 | |
| DF7PN | 2026-08-31 07:08:33 | 50.34986 | 9.49023 | 68° | 99km/h | 6402m | -4.7m/s | -20.2°C | 23.3% | 457.8hPa | 2.6V | 00:00:00 | 00:00:00 | 00:00:00 | |
| DB0ND-19 | 2026-08-31 07:08:30 | 50.34961 | 9.48912 | 72° | 99km/h | 6416m | -4.8m/s | -20.3°C | 23.2% | 456.9hPa | 2.6V | 00:00:00 | 00:00:00 | 00:00:00 | |
| DJTTGO | 2026-08-31 07:08:28 | 50.34961 | 9.48912 | 73° | 100km/h | 6416m | -4.8m/s | -20.3°C | 23.2% | 456.9hPa | 2.6V | 02:42:00 | 00:00:00 | 00:00:00 | |
| DB0UT-9 | 2026-08-31 07:08:27 | 50.34954 | 9.48873 | 74° | 100km/h | 6421m | -4.9m/s | -20.3°C | 23.3% | 456.6hPa | 2.6V | 00:00:00 | 00:00:00 | 00:00:00 | |
| DL1NUX | 2026-08-31 07:08:26 | 50.34901 | 9.48589 | 73° | 115km/h | 6456m | -5.1m/s | -20.5°C | 24.3% | 454.4hPa | 2.6V | 02:41:32 | 02:39:32 | 00:00:00 | |
| BIOWL1-15 | 2026-08-31 07:08:25 | 50.34932 | 9.48756 | 75° | 106km/h | 6436m | -4.9m/s | -20.4°C | 27% | 455.6hPa | 2.7V | 02:42:07 | 02:39:36 | 00:00:00 | |
| HSKMA3-T | 2026-08-31 07:08:24 | 50.34924 | 9.48715 | 75° | 108km/h | 6441m | -4.9m/s | -20.4°C | 26.8% | 455.3hPa | 2.7V | 02:42:07 | 02:39:35 | 00:00:00 | |
| DD1CC8 | 2026-08-31 07:08:23 | 50.34909 | 9.48632 | 74° | 111km/h | 6450m | -5.0m/s | -20.5°C | 23.4% | 454.8hPa | 2.6V | 00:00:00 | 00:00:00 | 00:00:00 | |
| DK5PH-5 | 2026-08-31 07:08:20 | 50.34893 | 9.48545 | 73° | 111km/h | 6461m | -4.6m/s | -20.5°C | 24.6% | 454.1hPa | 2.6V | 00:00:00 | 02:39:31 | 00:00:00 | |
| DL0LBS | 2026-08-31 07:08:19 | 50.34893 | 9.48545 | 74° | 117km/h | 6461m | -4.7m/s | -20.5°C | 23.7% | 454.1hPa | 2.6V | 02:42:00 | 00:00:00 | 00:00:00 | |
| DM0DOS-11 | 2026-08-31 07:08:18 | 50.34842 | 9.48327 | 67° | 117km/h | 6484m | -4.9m/s | -20.7°C | 26% | 452.6hPa | 2.6V | 02:41:38 | 02:39:26 | 00:00:00 | |
| BIOWL1-15 | 2026-08-31 07:08:16 | 50.34785 | 9.48127 | 66° | 104km/h | 6509m | -4.7m/s | -21°C | 29.6% | 451.2hPa | 2.7V | 02:42:07 | 02:39:21 | 00:00:00 | |
| HSKMA3-T | 2026-08-31 07:08:13 | 50.34819 | 9.48244 | 66° | 111km/h | 6494m | -5.1m/s | -20.8°C | 29.3% | 452.1hPa | 2.7V | 02:42:07 | 02:39:24 | 00:00:00 | |
| DL1ZP-14 | 2026-08-31 07:08:11 | 50.34796 | 9.48165 | 65° | 106km/h | 6504m | -4.9m/s | -21.0°C | 25.6% | 451.5hPa | 2.7V | 00:00:00 | 00:00:00 | 00:00:00 | |
| DM0DOS-11 | 2026-08-31 07:08:10 | 50.34742 | 9.47941 | 74° | 100km/h | 6532m | -5m/s | -21.2°C | 27.3% | 449.8hPa | 2.7V | 02:41:48 | 02:39:16 | 00:00:00 | |
| BIOWL9-15 | 2026-08-31 07:08:09 | 50.34766 | 9.48053 | 69° | 99km/h | 6518m | -4.8m/s | -21.1°C | 26.0% | 450.6hPa | 2.7V | 00:00:00 | 00:00:00 | 00:00:00 | |
| DJTTGO | 2026-08-31 07:08:08 | 50.34766 | 9.48053 | 71° | 99km/h | 6518m | -4.8m/s | -21.1°C | 26.0% | 450.6hPa | 2.7V | 02:42:00 | 00:00:00 | 00:00:00 | |
| DO3MHA-11 | 2026-08-31 07:08:06 | 50.34749 | 9.47979 | 74° | 110km/h | 6528m | -4.7m/s | -21.1°C | 27.1% | 450.0hPa | 2.7V | 02:41:00 | 02:39:17 | 00:00:00 | |
| DL1NUX | 2026-08-31 07:08:03 | 50.34692 | 9.47648 | 72° | 117km/h | 6567m | -4.9m/s | -21.4°C | 27.5% | 447.6hPa | 2.6V | 02:41:55 | 02:39:09 | 00:00:00 | |
| HSKMA3-T | 2026-08-31 07:08:03 | 50.34729 | 9.47862 | 76° | 106km/h | 6542m | -4.8m/s | -21.2°C | 29.9% | 449.1hPa | 2.6V | 02:42:07 | 02:39:14 | 00:00:00 | |
| BIOWL1-15 | 2026-08-31 07:08:01 | 50.34700 | 9.47692 | 74° | 117km/h | 6562m | -4.8m/s | -21.3°C | 29.7% | 447.9hPa | 2.6V | 02:42:07 | 02:39:10 | 00:00:00 | |
| DB0ND-19 | 2026-08-31 07:07:59 | 50.34692 | 9.47648 | 72° | 117km/h | 6567m | -4.9m/s | -21.4°C | 26.5% | 447.6hPa | 2.7V | 00:00:00 | 00:00:00 | 00:00:00 | |
| DM0DOS-11 | 2026-08-31 07:07:58 | 50.34661 | 9.47516 | 68° | 117km/h | 6581m | -4.8m/s | -21.5°C | 27.3% | 446.9hPa | 2.7V | 02:41:58 | 02:39:06 | 00:00:00 | |
| HSKMA3-T | 2026-08-31 07:07:52 | 50.34627 | 9.47390 | 66° | 113km/h | 6595m | -4.7m/s | -21.6°C | 29.9% | 445.9hPa | 2.6V | 02:42:07 | 02:39:03 | 00:00:00 | |
| BIOWL1-15 | 2026-08-31 07:07:50 | 50.34581 | 9.47232 | 64° | 108km/h | 6614m | -4.9m/s | -21.7°C | 29.9% | 444.7hPa | 2.7V | 02:42:07 | 02:38:59 | 00:00:00 | |
| DL1NUX | 2026-08-31 07:07:49 | 50.34581 | 9.47232 | 64° | 108km/h | 6614m | -4.9m/s | -21.7°C | 27.2% | 444.7hPa | 2.7V | 02:42:05 | 02:38:59 | 00:00:00 | |
| DB0NH | 2026-08-31 07:07:47 | 50.34569 | 9.47194 | 65° | 108km/h | 6619m | -5.0m/s | -21.7°C | 27.1% | 444.4hPa | 2.6V | 00:00:00 | 02:38:58 | 00:00:00 | |
| DO3MHA-11 | 2026-08-31 07:07:46 | 50.34557 | 9.47156 | 65° | 102km/h | 6624m | -5.2m/s | -21.7°C | 27.1% | 444.1hPa | 2.6V | 00:00:00 | 02:38:57 | 00:00:00 | |
| DL1NUX | 2026-08-31 07:07:43 | 50.34478 | 9.46860 | 72° | 106km/h | 6662m | -4.9m/s | -21.8°C | 23.8% | 441.9hPa | 2.6V | 02:42:15 | 02:38:49 | 00:00:00 | |
| HSKMA3-T | 2026-08-31 07:07:41 | 50.34504 | 9.46973 | 68° | 100km/h | 6648m | -4.5m/s | -21.7°C | 27.6% | 442.6hPa | 2.7V | 02:42:58 | 02:38:52 | 00:00:00 | |
| DM0DOS-11 | 2026-08-31 07:07:40 | 50.34452 | 9.46736 | 70° | 113km/h | 6675m | -4.5m/s | -21.9°C | 23.2% | 441.1hPa | 2.7V | 02:42:18 | 02:38:46 | 00:00:00 | |
| BIOWL1-15 | 2026-08-31 07:07:39 | 50.34486 | 9.46899 | 71° | 102km/h | 6657m | -4.4m/s | -21.7°C | 26.5% | 442.1hPa | 2.6V | 02:42:58 | 02:38:50 | 00:00:00 | |
| BIOWL9-15 | 2026-08-31 07:07:38 | 50.34470 | 9.46819 | 72° | 108km/h | 6667m | -4.6m/s | -21.8°C | 22.7% | 441.6hPa | 2.7V | 00:00:00 | 00:00:00 | 00:00:00 | |
| DO3MHA-11 | 2026-08-31 07:07:36 | 50.34461 | 9.46778 | 72° | 115km/h | 6671m | -4.5m/s | -21.8°C | 23.5% | 441.3hPa | 2.7V | 02:42:00 | 02:38:47 | 00:00:00 | |
| DF1GD-15 | 2026-08-31 07:07:34 | 50.34452 | 9.46736 | 72° | 113km/h | 6676m | -4.5m/s | -21.9°C | 22.3% | 441.1hPa | 2.6V | 02:42:00 | 00:00:00 | 00:00:00 | |
| DL1NUX | 2026-08-31 07:07:33 | 50.34372 | 9.46442 | 63° | 115km/h | 6709m | -5.3m/s | -22°C | 19% | 439hPa | 2.6V | 02:42:25 | 02:38:39 | 00:00:00 | |
| BIOWL1-15 | 2026-08-31 07:07:31 | 50.34385 | 9.46483 | 64° | 117km/h | 6703m | -4.7m/s | -21.9°C | 21.9% | 439.4hPa | 2.6V | 02:42:58 | 02:38:40 | 00:00:00 | |
| HSKMA3-T | 2026-08-31 07:07:30 | 50.34397 | 9.46525 | 66° | 117km/h | 6699m | -4.8m/s | -21.9°C | 22% | 439.7hPa | 2.7V | 02:42:58 | 02:38:41 | 00:00:00 | |
| DM0DOS-11 | 2026-08-31 07:07:28 | 50.34333 | 9.46323 | 60° | 110km/h | 6723m | -4.9m/s | -22.1°C | 18.6% | 438.2hPa | 2.7V | 02:42:28 | 02:38:36 | 00:00:00 | |
| HSKMA3-T | 2026-08-31 07:07:19 | 50.34260 | 9.46108 | 66° | 97km/h | 6752m | -4.8m/s | -22.3°C | 21% | 436.5hPa | 2.7V | 02:42:58 | 02:38:30 | 00:00:00 | |
| BIOWL1-15 | 2026-08-31 07:07:18 | 50.34232 | 9.46000 | 70° | 100km/h | 6766m | -4.9m/s | -22.4°C | 21.2% | 435.7hPa | 2.6V | 02:42:58 | 02:38:27 | 00:00:00 | |
| HSKMA3-T | 2026-08-31 07:07:09 | 50.34165 | 9.45719 | 67° | 117km/h | 6799m | -4.9m/s | -22.7°C | 21.6% | 433.7hPa | 2.7V | 02:42:58 | 02:38:20 | 00:00:00 | |
| DL1ZP-14 | 2026-08-31 07:07:09 | 50.34165 | 9.45719 | 67° | 115km/h | 6799m | -4.9m/s | -22.7°C | 18.1% | 433.7hPa | 2.7V | 00:00:00 | 00:00:00 | 00:00:00 | |
| DM0DOS-11 | 2026-08-31 07:07:07 | 50.34076 | 9.45433 | 61° | 110km/h | 6834m | -4.8m/s | -23°C | 19.3% | 431.6hPa | 2.6V | 02:42:51 | 02:38:13 | 00:00:00 | |
| BIOWL1-15 | 2026-08-31 07:07:05 | 50.34050 | 9.45360 | 62° | 102km/h | 6844m | -4.7m/s | -23.1°C | 22% | 431.1hPa | 2.6V | 02:42:58 | 02:38:11 | 00:00:00 | |
| HSKMA3-T | 2026-08-31 07:06:58 | 50.34027 | 9.45289 | 66° | 99km/h | 6853m | -4.5m/s | -23.1°C | 22.1% | 430.5hPa | 2.7V | 02:42:58 | 02:38:09 | 00:00:00 | |
| BIOWL1-15 | 2026-08-31 07:06:51 | 50.33938 | 9.44932 | 67° | 115km/h | 6896m | -5m/s | -23.5°C | 22.3% | 427.9hPa | 2.7V | 02:43:49 | 02:38:00 | 00:00:00 | |
| HSKMA3-T | 2026-08-31 07:06:48 | 50.33927 | 9.44890 | 66° | 117km/h | 6901m | -4.9m/s | -23.5°C | 22.4% | 427.7hPa | 2.7V | 02:43:49 | 02:37:59 | 00:00:00 | |
| BIOWL1-15 | 2026-08-31 07:06:44 | 50.33821 | 9.44563 | 59° | 111km/h | 6941m | -4.7m/s | -23.9°C | 23% | 425.4hPa | 2.6V | 02:43:49 | 02:37:51 | 00:00:00 | |
| SFWM-10 | 2026-08-31 07:06:43 | 50.33876 | 9.44722 | 64° | 117km/h | 6920m | -5.3m/s | -23.7°C | 18.9% | 426.5hPa | 2.6V | 02:43:00 | 00:00:00 | 00:00:00 | |
| DL1NUX | 2026-08-31 07:06:42 | 50.33835 | 9.44601 | 61° | 113km/h | 6936m | -5.3m/s | -23.8°C | 20.2% | 425.6hPa | 2.6V | 02:43:12 | 02:37:52 | 00:00:00 | |
| HSKMA3-T | 2026-08-31 07:06:37 | 50.33780 | 9.44453 | 61° | 104km/h | 6955m | -4.7m/s | -24°C | 23.3% | 424.5hPa | 2.7V | 02:43:49 | 02:37:48 | 00:00:00 | |
| BIOWL1-15 | 2026-08-31 07:06:34 | 50.33707 | 9.44194 | 70° | 111km/h | 6989m | -4.6m/s | -24.3°C | 23.9% | 422.6hPa | 2.6V | 02:43:49 | 02:37:41 | 00:00:00 | |
| DL1NUX | 2026-08-31 07:06:32 | 50.33717 | 9.44234 | 69° | 106km/h | 6984m | -4.7m/s | -24.2°C | 20.9% | 422.8hPa | 2.7V | 02:43:22 | 02:37:42 | 00:00:00 | |
| DO9LL-15 | 2026-08-31 07:06:32 | 50.33726 | 9.44273 | 70° | 113km/h | 6979m | -4.6m/s | -24.1°C | 20.9% | 423.1hPa | 2.7V | 02:43:00 | 02:37:43 | 00:00:00 | |
| SO1NDE-10 | 2026-08-31 07:06:31 | 50.33716 | 9.44234 | 70° | 108km/h | 6984m | -4.7m/s | -24.2°C | 20.9% | 422.8hPa | 2.6V | 00:00:00 | 02:37:42 | 00:00:00 | |
| DF7PN | 2026-08-31 07:06:28 | 50.33687 | 9.44110 | 67° | 115km/h | 6998m | -5.1m/s | -24.3°C | 20.2% | 422.0hPa | 2.6V | 00:00:00 | 00:00:00 | 00:00:00 | |
| DM0DOS-11 | 2026-08-31 07:06:27 | 50.33607 | 9.43866 | 59° | 110km/h | 7027m | -5.2m/s | -24.6°C | 21.4% | 420.3hPa | 2.6V | 02:43:31 | 02:37:33 | 00:00:00 | |
| HSKMA3-T | 2026-08-31 07:06:27 | 50.33675 | 9.44068 | 66° | 117km/h | 7003m | -5m/s | -24.4°C | 24.1% | 421.7hPa | 2.6V | 02:43:49 | 02:37:38 | 00:00:00 | |
| BIOWL1-15 | 2026-08-31 07:06:19 | 50.33567 | 9.43759 | 60° | 100km/h | 7042m | -4.7m/s | -24.8°C | 24.4% | 419.5hPa | 2.7V | 02:43:49 | 02:37:30 | 00:00:00 | |
| HSKMA3-T | 2026-08-31 07:06:17 | 50.33543 | 9.43689 | 64° | 99km/h | 7052m | -4.9m/s | -24.8°C | 24.5% | 418.9hPa | 2.6V | 02:43:49 | 02:37:28 | 00:00:00 | |
| BIOWL1-15 | 2026-08-31 07:06:10 | 50.33452 | 9.43345 | 67° | 113km/h | 7097m | -4.8m/s | -25.2°C | 24.8% | 416.3hPa | 2.6V | 02:43:49 | 02:37:19 | 00:00:00 | |
| HSKMA3-T | 2026-08-31 07:06:06 | 50.33428 | 9.43263 | 64° | 113km/h | 7106m | -5m/s | -25.3°C | 24.9% | 415.8hPa | 2.6V | 02:43:49 | 02:37:17 | 00:00:00 | |
| DO3MHA-11 | 2026-08-31 07:06:06 | 50.33428 | 9.43263 | 65° | 108km/h | 7106m | -5.0m/s | -25.3°C | 22.0% | 415.8hPa | 2.6V | 02:43:00 | 02:37:17 | 00:00:00 | |
| BIOWL9-15 | 2026-08-31 07:06:05 | 50.33401 | 9.43184 | 60° | 113km/h | 7116m | -5.1m/s | -25.4°C | 20.8% | 415.3hPa | 2.6V | 00:00:00 | 00:00:00 | 00:00:00 | |
| DL1NUX | 2026-08-31 07:06:02 | 50.33357 | 9.43071 | 57° | 108km/h | 7131m | -4.9m/s | -25.6°C | 21.9% | 414.4hPa | 2.6V | 02:43:52 | 02:37:12 | 00:00:00 | |
| BIOWL1-15 | 2026-08-31 07:05:59 | 50.33301 | 9.42932 | 59° | 100km/h | 7151m | -4.9m/s | -25.7°C | 24.2% | 413.2hPa | 2.7V | 02:44:40 | 02:37:08 | 00:00:00 | |
| HSKMA3-T | 2026-08-31 07:05:56 | 50.33288 | 9.42898 | 60° | 97km/h | 7156m | -4.8m/s | -25.7°C | 24.1% | 413hPa | 2.6V | 02:44:40 | 02:37:07 | 00:00:00 | |
| HSKMA3-T | 2026-08-31 07:05:45 | 50.33171 | 9.42493 | 65° | 113km/h | 7212m | -4.9m/s | -26.1°C | 24.1% | 409.9hPa | 2.6V | 02:44:40 | 02:36:56 | 00:00:00 | |
| DL1NUX | 2026-08-31 07:05:42 | 50.33118 | 9.42330 | 61° | 117km/h | 7231m | -5.2m/s | -26.2°C | 21.1% | 408.7hPa | 2.6V | 02:44:12 | 02:36:52 | 00:00:00 | |
| BIOWL1-15 | 2026-08-31 07:05:36 | 50.33045 | 9.42131 | 60° | 113km/h | 7257m | -5.3m/s | -26.4°C | 23.8% | 407.3hPa | 2.6V | 02:44:40 | 02:36:47 | 00:00:00 | |
| HSKMA3-T | 2026-08-31 07:05:35 | 50.33031 | 9.42093 | 58° | 113km/h | 7262m | -5.1m/s | -26.4°C | 23.7% | 406.9hPa | 2.6V | 02:44:40 | 02:36:46 | 00:00:00 | |
| DB0UT-7 | 2026-08-31 07:05:35 | 50.33030 | 9.42093 | 58° | 115km/h | 7262m | -5.0m/s | -26.4°C | 20.9% | 406.9hPa | 2.7V | 00:00:00 | 02:36:46 | 00:00:00 | |
| DB0UT-9 | 2026-08-31 07:05:34 | 50.33031 | 9.42093 | 59° | 113km/h | 7262m | -5.1m/s | -26.4°C | 19.8% | 406.9hPa | 2.7V | 02:44:00 | 00:00:00 | 00:00:00 | |
| DL1NUX | 2026-08-31 07:05:32 | 50.32973 | 9.41949 | 57° | 102km/h | 7282m | -5.1m/s | -26.5°C | 20.2% | 405.9hPa | 2.7V | 02:44:22 | 02:36:42 | 00:00:00 | |
| DM0DOS-11 | 2026-08-31 07:05:30 | 50.32947 | 9.41880 | 61° | 100km/h | 7292m | -5m/s | -26.5°C | 20% | 405.2hPa | 2.6V | 02:44:24 | 02:36:40 | 00:00:00 | |
| BIOWL1-15 | 2026-08-31 07:05:25 | 50.32902 | 9.41738 | 66° | 104km/h | 7312m | -5m/s | -26.6°C | 22.3% | 404.1hPa | 2.6V | 02:44:40 | 02:36:36 | 00:00:00 | |
| HSKMA3-T | 2026-08-31 07:05:24 | 50.32891 | 9.41700 | 67° | 106km/h | 7317m | -4.7m/s | -26.6°C | 22.3% | 403.8hPa | 2.6V | 02:44:40 | 02:36:35 | 00:00:00 | |
| DL1NUX | 2026-08-31 07:05:22 | 50.32859 | 9.41582 | 67° | 113km/h | 7332m | -5m/s | -26.7°C | 19.2% | 403hPa | 2.6V | 02:44:32 | 02:36:32 | 00:00:00 | |
| BIOWL1-15 | 2026-08-31 07:05:15 | 50.32785 | 9.41331 | 64° | 119km/h | 7362m | -5.1m/s | -27°C | 22.3% | 401.2hPa | 2.6V | 02:44:40 | 02:36:26 | 00:00:00 | |
| HSKMA3-T | 2026-08-31 07:05:13 | 50.32757 | 9.41245 | 62° | 122km/h | 7373m | -5.4m/s | -27.1°C | 22.5% | 400.6hPa | 2.6V | 02:44:40 | 02:36:24 | 00:00:00 | |
| DL1NUX | 2026-08-31 07:05:12 | 50.32680 | 9.41042 | 57° | 117km/h | 7399m | -5.4m/s | -27.2°C | 19.7% | 399.2hPa | 2.6V | 02:44:45 | 02:36:19 | 00:00:00 | |
| BIOWL1-15 | 2026-08-31 07:05:04 | 50.32619 | 9.40893 | 59° | 108km/h | 7419m | -5.3m/s | -27.4°C | 22.5% | 398.1hPa | 2.6V | 02:45:31 | 02:36:15 | 00:00:00 | |
| HSKMA3-T | 2026-08-31 07:05:02 | 50.32593 | 9.40820 | 62° | 104km/h | 7430m | -5.3m/s | -27.5°C | 22.5% | 397.5hPa | 2.6V | 02:45:31 | 02:36:13 | 00:00:00 | |
| BIOWL1-15 | 2026-08-31 07:04:54 | 50.32502 | 9.40510 | 67° | 115km/h | 7473m | -5.5m/s | -27.8°C | 23.2% | 395hPa | 2.7V | 02:45:31 | 02:36:05 | 00:00:00 | |
| DB0ND-19 | 2026-08-31 07:04:53 | 50.32478 | 9.40424 | 67° | 119km/h | 7484m | -5.4m/s | -27.9°C | 19.1% | 394.5hPa | 2.6V | 00:00:00 | 00:00:00 | 00:00:00 | |
| DJTTGO | 2026-08-31 07:04:52 | 50.32490 | 9.40468 | 68° | 119km/h | 7479m | -5.5m/s | -27.9°C | 19.0% | 394.8hPa | 2.6V | 00:00:00 | 00:00:00 | 00:00:00 | |
| DM0DOS-11 | 2026-08-31 07:04:50 | 50.32440 | 9.40292 | 62° | 124km/h | 7501m | -5.4m/s | -28°C | 20.8% | 393.6hPa | 2.6V | 02:45:04 | 02:36:00 | 00:00:00 | |
| DD1CC8 | 2026-08-31 07:04:45 | 50.32379 | 9.40126 | 58° | 113km/h | 7521m | -5.4m/s | -28.2°C | 20.8% | 392.5hPa | 2.6V | 00:00:00 | 00:00:00 | 00:00:00 | |
| DM0DOS-11 | 2026-08-31 07:04:44 | 50.32297 | 9.39901 | 64° | 108km/h | 7552m | -5.2m/s | -28.4°C | 23.3% | 390.8hPa | 2.6V | 02:45:14 | 02:35:50 | 00:00:00 | |
| HSKMA3-T | 2026-08-31 07:04:44 | 50.32364 | 9.40088 | 58° | 111km/h | 7526m | -5m/s | -28.2°C | 25.5% | 392.2hPa | 2.6V | 02:45:31 | 02:35:55 | 00:00:00 | |
| BIOWL1-15 | 2026-08-31 07:04:43 | 50.32350 | 9.40050 | 59° | 110km/h | 7531m | -5.3m/s | -28.3°C | 25.7% | 392hPa | 2.6V | 02:45:31 | 02:35:54 | 00:00:00 | |
| NBG1-10 | 2026-08-31 07:04:43 | 50.32349 | 9.40050 | 59° | 115km/h | 7531m | -5.3m/s | -28.2°C | 22.4% | 391.9hPa | 2.6V | 00:00:00 | 02:35:54 | 00:00:00 | |
| DO8TBO-1 | 2026-08-31 07:04:42 | 50.32336 | 9.40013 | 60° | 115km/h | 7536m | -5.2m/s | -28.3°C | 22.7% | 391.6hPa | 2.6V | 00:00:00 | 02:35:53 | 00:00:00 | |
| DL1NUX | 2026-08-31 07:04:40 | 50.32253 | 9.39740 | 68° | 115km/h | 7573m | -5.4m/s | -28.6°C | 23.5% | 389.7hPa | 2.6V | 02:45:18 | 02:35:46 | 00:00:00 | |
| SFWM-10 | 2026-08-31 07:04:39 | 50.32309 | 9.39939 | 63° | 108km/h | 7547m | -5.5m/s | -28.4°C | 21.8% | 391.0hPa | 2.6V | 02:45:00 | 00:00:00 | 00:00:00 | |
| DO3MHA-11 | 2026-08-31 07:04:36 | 50.32264 | 9.39782 | 69° | 120km/h | 7568m | -5.5m/s | -28.5°C | 23.5% | 389.9hPa | 2.6V | 02:45:00 | 02:35:47 | 00:00:00 | |
| DM7RM-13 | 2026-08-31 07:04:35 | 50.32264 | 9.39782 | 69° | 111km/h | 7568m | -5.5m/s | -28.6°C | 22.2% | 390.0hPa | 2.6V | 02:45:00 | 00:00:00 | 00:00:00 | |
| DM0DOS-11 | 2026-08-31 07:04:34 | 50.32185 | 9.39476 | 66° | 124km/h | 7605m | -5.4m/s | -28.9°C | 24.3% | 387.9hPa | 2.6V | 02:45:24 | 02:35:40 | 00:00:00 | |
| HSKMA3-T | 2026-08-31 07:04:33 | 50.32232 | 9.39655 | 68° | 119km/h | 7584m | -5.6m/s | -28.7°C | 26.9% | 389hPa | 2.6V | 02:45:31 | 02:35:44 | 00:00:00 | |
| BIOWL1-15 | 2026-08-31 07:04:32 | 50.32221 | 9.39611 | 69° | 119km/h | 7590m | -5.6m/s | -28.8°C | 26.9% | 388.7hPa | 2.6V | 02:45:31 | 02:35:43 | 00:00:00 | |
| DB0UT-7 | 2026-08-31 07:04:31 | 50.32210 | 9.39567 | 69° | 119km/h | 7595m | -5.4m/s | -28.8°C | 23.8% | 388.5hPa | 2.6V | 00:00:00 | 02:35:42 | 00:00:00 | |
| DL1NUX | 2026-08-31 07:04:30 | 50.32129 | 9.39298 | 61° | 124km/h | 7626m | -5.2m/s | -29.1°C | 25.1% | 386.7hPa | 2.6V | 02:45:28 | 02:35:36 | 00:00:00 | |
| DO3DL | 2026-08-31 07:04:28 | 50.32172 | 9.39431 | 66° | 126km/h | 7611m | -5.3m/s | -28.9°C | 23.1% | 387.5hPa | 2.6V | 02:45:00 | 00:00:00 | 00:00:00 | |
| DO3MHA-11 | 2026-08-31 07:04:26 | 50.32144 | 9.39341 | 63° | 115km/h | 7621m | -5.3m/s | -29.0°C | 24.9% | 386.9hPa | 2.6V | 00:00:00 | 02:35:37 | 00:00:00 | |
| DM0DOS-11 | 2026-08-31 07:04:24 | 50.32043 | 9.39060 | 63° | 108km/h | 7657m | -5.5m/s | -29.3°C | 25.8% | 384.9hPa | 2.6V | 02:45:34 | 02:35:30 | 00:00:00 | |
| HSKMA3-T | 2026-08-31 07:04:22 | 50.32084 | 9.39174 | 60° | 115km/h | 7642m | -5.3m/s | -29.2°C | 28.9% | 385.9hPa | 2.6V | 02:45:31 | 02:35:33 | 00:00:00 | |
| BIOWL1-15 | 2026-08-31 07:04:12 | 50.31968 | 9.38777 | 71° | 119km/h | 7695m | -5.5m/s | -29.6°C | 28.5% | 383hPa | 2.7V | 02:46:22 | 02:35:23 | 00:00:00 | |
| DL1NUX | 2026-08-31 07:04:10 | 50.31883 | 9.38460 | 63° | 126km/h | 7733m | -5.7m/s | -29.9°C | 25.6% | 381hPa | 2.6V | 02:45:48 | 02:35:16 | 00:00:00 | |
| DM0DOS-11 | 2026-08-31 07:04:09 | 50.31936 | 9.38642 | 67° | 124km/h | 7711m | -5.5m/s | -29.7°C | 25% | 382.1hPa | 2.6V | 02:45:44 | 02:35:20 | 00:00:00 | |
| DF1GD-15 | 2026-08-31 07:04:08 | 50.31936 | 9.38642 | 69° | 124km/h | 7711m | -5.5m/s | -29.7°C | 23.6% | 382.1hPa | 2.6V | 02:46:00 | 00:00:00 | 00:00:00 | |
| DO3DL | 2026-08-31 07:04:07 | 50.31923 | 9.38596 | 68° | 126km/h | 7717m | -5.5m/s | -29.8°C | 23.7% | 381.9hPa | 2.6V | 00:00:00 | 00:00:00 | 00:00:00 | |
| SONCRA | 2026-08-31 07:04:05 | 50.31854 | 9.38373 | 61° | 120km/h | 7744m | -5.2m/s | -30.0°C | 24.2% | 380.4hPa | 2.6V | 00:00:00 | 00:00:00 | 00:00:00 | |
| DM0DOS-11 | 2026-08-31 07:04:04 | 50.31797 | 9.38213 | 61° | 111km/h | 7765m | -5.2m/s | -30.2°C | 25.9% | 379.2hPa | 2.6V | 02:45:54 | 02:35:10 | 00:00:00 | |
| BIOWL1-15 | 2026-08-31 07:04:01 | 50.31825 | 9.38292 | 61° | 115km/h | 7755m | -5.3m/s | -30.1°C | 29.3% | 379.9hPa | 2.6V | 02:46:22 | 02:35:12 | 00:00:00 | |
| HSKMA3-T | 2026-08-31 07:04:00 | 50.31810 | 9.38252 | 61° | 113km/h | 7760m | -5m/s | -30.2°C | 29.2% | 379.6hPa | 2.6V | 02:46:22 | 02:35:11 | 00:00:00 | |
| DL1NUX | 2026-08-31 07:04:00 | 50.31749 | 9.38059 | 66° | 108km/h | 7786m | -5.6m/s | -30.4°C | 26.3% | 378.1hPa | 2.6V | 02:45:58 | 02:35:06 | 00:00:00 | |
| SO1NDE-10 | 2026-08-31 07:03:58 | 50.31784 | 9.38175 | 64° | 119km/h | 7770m | -5.1m/s | -30.2°C | 25.9% | 379.0hPa | 2.6V | 00:00:00 | 02:35:09 | 00:00:00 | |
| SFWM-10 | 2026-08-31 07:03:57 | 50.31784 | 9.38175 | 64° | 110km/h | 7770m | -5.1m/s | -30.3°C | 24.4% | 379.0hPa | 2.6V | 02:46:00 | 00:00:00 | 00:00:00 | |
| DO3MHA-11 | 2026-08-31 07:03:56 | 50.31760 | 9.38097 | 66° | 117km/h | 7780m | -5.3m/s | -30.3°C | 26.1% | 378.4hPa | 2.6V | 00:00:00 | 02:35:07 | 00:00:00 | |
| DB0UT-7 | 2026-08-31 07:03:55 | 50.31749 | 9.38059 | 67° | 120km/h | 7786m | -5.5m/s | -30.4°C | 26.3% | 378.1hPa | 2.6V | 00:00:00 | 00:00:00 | 00:00:00 | |
| DM0DOS-11 | 2026-08-31 07:03:54 | 50.31686 | 9.37804 | 68° | 126km/h | 7819m | -5.4m/s | -30.6°C | 27.3% | 376.4hPa | 2.6V | 02:46:04 | 02:35:00 | 00:00:00 | |
| DF7PN | 2026-08-31 07:03:53 | 50.31728 | 9.37979 | 68° | 111km/h | 7796m | -5.7m/s | -30.5°C | 25.1% | 377.5hPa | 2.6V | 00:00:00 | 00:00:00 | 00:00:00 | |
| DL0LBS | 2026-08-31 07:03:51 | 50.31718 | 9.37937 | 70° | 115km/h | 7803m | -5.9m/s | -30.5°C | 25.2% | 377.3hPa | 2.6V | 02:46:00 | 00:00:00 | 00:00:00 | |
| DL1NUX | 2026-08-31 07:03:50 | 50.31632 | 9.37619 | 63° | 130km/h | 7840m | -5.3m/s | -30.8°C | 28% | 375.2hPa | 2.6V | 02:46:08 | 02:34:56 | 00:00:00 | |
| BIOWL1-15 | 2026-08-31 07:03:49 | 50.31686 | 9.37804 | 69° | 126km/h | 7819m | -5.4m/s | -30.6°C | 30.7% | 376.4hPa | 2.6V | 02:46:22 | 02:35:00 | 00:00:00 | |
| DO3DL | 2026-08-31 07:03:48 | 50.31686 | 9.37803 | 70° | 126km/h | 7819m | -5.4m/s | -30.6°C | 25.7% | 376.4hPa | 2.6V | 00:00:00 | 00:00:00 | 00:00:00 | |
| DB0NH | 2026-08-31 07:03:47 | 50.31660 | 9.37710 | 66° | 122km/h | 7829m | -5.5m/s | -30.7°C | 27.5% | 375.8hPa | 2.6V | 02:46:00 | 02:34:58 | 00:00:00 | |
| DO3MHA-11 | 2026-08-31 07:03:46 | 50.31646 | 9.37664 | 64° | 122km/h | 7835m | -5.2m/s | -30.7°C | 27.7% | 375.5hPa | 2.6V | 00:00:00 | 02:34:57 | 00:00:00 | |
| DD1CC8 | 2026-08-31 07:03:43 | 50.31601 | 9.37529 | 61° | 128km/h | 7850m | -5.5m/s | -30.9°C | 26.5% | 374.6hPa | 2.6V | 00:00:00 | 00:00:00 | 00:00:00 | |
| DO8TBO-1 | 2026-08-31 07:03:42 | 50.31586 | 9.37485 | 61° | 120km/h | 7856m | -5.6m/s | -30.9°C | 27.8% | 374.4hPa | 2.6V | 02:46:00 | 02:34:53 | 00:00:00 | |
| DL1NUX | 2026-08-31 07:03:40 | 50.31484 | 9.37202 | 62° | 110km/h | 7894m | -5.5m/s | -31.3°C | 28.3% | 372.4hPa | 2.6V | 02:46:18 | 02:34:46 | 00:00:00 | |
| DM0DOS-11 | 2026-08-31 07:03:39 | 50.31540 | 9.37359 | 60° | 119km/h | 7872m | -5.6m/s | -31.1°C | 28% | 373.6hPa | 2.6V | 02:46:14 | 02:34:50 | 00:00:00 | |
| BIOWL1-15 | 2026-08-31 07:03:38 | 50.31436 | 9.37042 | 68° | 117km/h | 7916m | -5.5m/s | -31.5°C | 32.2% | 371.2hPa | 2.6V | 02:46:22 | 02:34:42 | 00:00:00 | |
| HSKMA3-T | 2026-08-31 07:03:38 | 50.31525 | 9.37319 | 61° | 115km/h | 7878m | -5.7m/s | -31.1°C | 31.6% | 373.3hPa | 2.6V | 02:46:22 | 02:34:49 | 00:00:00 | |
| NBG1-10 | 2026-08-31 07:03:37 | 50.31510 | 9.37280 | 61° | 120km/h | 7883m | -5.9m/s | -31.1°C | 28.2% | 372.9hPa | 2.6V | 02:46:00 | 02:34:48 | 00:00:00 | |
| DO3MHA-11 | 2026-08-31 07:03:36 | 50.31497 | 9.37241 | 62° | 117km/h | 7889m | -5.6m/s | -31.2°C | 28.3% | 372.6hPa | 2.6V | 02:46:00 | 02:34:47 | 00:00:00 | |
| DO3DL | 2026-08-31 07:03:35 | 50.31497 | 9.37241 | 63° | 111km/h | 7889m | -5.7m/s | -31.2°C | 26.7% | 372.6hPa | 2.6V | 00:00:00 | 00:00:00 | 00:00:00 | |
| DM0DOS-11 | 2026-08-31 07:03:34 | 50.31414 | 9.36954 | 68° | 122km/h | 7927m | -5.4m/s | -31.6°C | 28.8% | 370.7hPa | 2.6V | 02:46:24 | 02:34:40 | 00:00:00 | |
| DM7RM-13 | 2026-08-31 07:03:33 | 50.31471 | 9.37164 | 65° | 111km/h | 7900m | -5.5m/s | -31.3°C | 26.8% | 372.1hPa | 2.6V | 02:46:00 | 00:00:00 | 00:00:00 | |
| DL1ZP-14 | 2026-08-31 07:03:31 | 50.31436 | 9.37042 | 67° | 115km/h | 7916m | -5.5m/s | -31.5°C | 27.1% | 371.2hPa | 2.6V | 00:00:00 | 00:00:00 | 00:00:00 | |
| DL1NUX | 2026-08-31 07:03:30 | 50.31363 | 9.36770 | 65° | 130km/h | 7948m | -5.6m/s | -31.8°C | 29.2% | 369.6hPa | 2.6V | 02:46:28 | 02:34:36 | 00:00:00 | |
| HSKMA3-T | 2026-08-31 07:03:27 | 50.31390 | 9.36863 | 67° | 126km/h | 7937m | -5.6m/s | -31.7°C | 32.5% | 370.2hPa | 2.6V | 02:47:13 | 02:34:38 | 00:00:00 | |
| BIOWL1-15 | 2026-08-31 07:03:24 | 50.31333 | 9.36677 | 62° | 131km/h | 7959m | -5.6m/s | -31.9°C | 32.5% | 369hPa | 2.6V | 02:47:13 | 02:34:34 | 00:00:00 | |
| DF7PN | 2026-08-31 07:03:22 | 50.31317 | 9.36632 | 60° | 128km/h | 7964m | -5.5m/s | -31.9°C | 27.4% | 368.7hPa | 2.6V | 00:00:00 | 00:00:00 | 00:00:00 | |
| DF1GD-15 | 2026-08-31 07:03:21 | 50.31317 | 9.36632 | 61° | 130km/h | 7964m | -5.5m/s | -31.9°C | 27.4% | 368.7hPa | 2.6V | 02:47:00 | 00:00:00 | 00:00:00 | |
| DM0DOS-11 | 2026-08-31 07:03:20 | 50.31269 | 9.36503 | 59° | 122km/h | 7980m | -5.5m/s | -32°C | 29.2% | 367.9hPa | 2.6V | 02:46:34 | 02:34:30 | 00:00:00 | |
| DL1NUX | 2026-08-31 07:03:20 | 50.31208 | 9.36344 | 61° | 113km/h | 8002m | -5.7m/s | -32.2°C | 30.4% | 366.7hPa | 2.6V | 02:46:38 | 02:34:26 | 00:00:00 | |
| HSKMA3-T | 2026-08-31 07:03:17 | 50.31238 | 9.36422 | 59° | 117km/h | 7991m | -5.4m/s | -32.1°C | 33.3% | 367.3hPa | 2.6V | 02:47:13 | 02:34:28 | 00:00:00 | |
| BIOWL1-15 | 2026-08-31 07:03:15 | 50.31183 | 9.36265 | 64° | 111km/h | 8013m | -5.8m/s | -32.3°C | 34.7% | 366.1hPa | 2.6V | 02:47:13 | 02:34:24 | 00:00:00 | |
| DM7RM-13 | 2026-08-31 07:03:13 | 50.31195 | 9.36304 | 64° | 111km/h | 8008m | -5.7m/s | -32.3°C | 29.1% | 366.4hPa | 2.6V | 00:00:00 | 00:00:00 | 00:00:00 | |
| DO8TBO-1 | 2026-08-31 07:03:12 | 50.31170 | 9.36225 | 65° | 124km/h | 8019m | -5.6m/s | -32.3°C | 31.7% | 365.8hPa | 2.6V | 00:00:00 | 02:34:23 | 00:00:00 | |
| DL1NUX | 2026-08-31 07:03:10 | 50.31085 | 9.35915 | 65° | 133km/h | 8057m | -5.4m/s | -32.7°C | 32.6% | 363.9hPa | 2.6V | 02:46:48 | 02:34:16 | 00:00:00 | |
| DM0DOS-11 | 2026-08-31 07:03:09 | 50.31136 | 9.36099 | 68° | 120km/h | 8036m | -5.1m/s | -32.5°C | 32.1% | 365hPa | 2.6V | 02:46:44 | 02:34:20 | 00:00:00 | |
| HSKMA3-T | 2026-08-31 07:03:07 | 50.31111 | 9.36009 | 66° | 128km/h | 8047m | -5.4m/s | -32.6°C | 35.8% | 364.4hPa | 2.6V | 02:47:13 | 02:34:18 | 00:00:00 | |
| DO3MHA-11 | 2026-08-31 07:03:06 | 50.31098 | 9.35962 | 67° | 130km/h | 8053m | -5.3m/s | -32.6°C | 32.5% | 364.1hPa | 2.6V | 02:46:00 | 02:34:17 | 00:00:00 | |
| DM0DOS-11 | 2026-08-31 07:03:04 | 50.30991 | 9.35638 | 59° | 130km/h | 8091m | -5.5m/s | -33°C | 33.1% | 362.1hPa | 2.6V | 02:46:54 | 02:34:10 | 00:00:00 | |
| BIOWL1-15 | 2026-08-31 07:03:02 | 50.31040 | 9.35774 | 62° | 133km/h | 8074m | -5.7m/s | -32.8°C | 36.3% | 363hPa | 2.6V | 02:47:13 | 02:34:13 | 00:00:00 | |
| DJTTGO | 2026-08-31 07:03:01 | 50.31040 | 9.35774 | 63° | 133km/h | 8074m | -5.7m/s | -32.8°C | 31.1% | 363.0hPa | 2.6V | 02:47:00 | 00:00:00 | 00:00:00 | |
| DL1NUX | 2026-08-31 07:03:00 | 50.30928 | 9.35472 | 60° | 117km/h | 8113m | -5.8m/s | -33.1°C | 32.2% | 361.1hPa | 2.6V | 02:46:58 | 02:34:06 | 00:00:00 | |
| HSKMA3-T | 2026-08-31 07:02:57 | 50.30958 | 9.35553 | 59° | 122km/h | 8102m | -5.5m/s | -33.1°C | 36.2% | 361.6hPa | 2.6V | 02:47:13 | 02:34:08 | 00:00:00 | |
| DO3MHA-11 | 2026-08-31 07:02:56 | 50.30942 | 9.35512 | 60° | 119km/h | 8107m | -5.5m/s | -33.1°C | 32.7% | 361.3hPa | 2.6V | 00:00:00 | 02:34:07 | 00:00:00 | |
| DB0UT-7 | 2026-08-31 07:02:55 | 50.30927 | 9.35471 | 61° | 122km/h | 8113m | -5.7m/s | -33.1°C | 32.2% | 361.0hPa | 2.6V | 00:00:00 | 00:00:00 | 00:00:00 | |
| DM0DOS-11 | 2026-08-31 07:02:54 | 50.30852 | 9.35221 | 67° | 124km/h | 8147m | -5.3m/s | -33.4°C | 31.9% | 359.4hPa | 2.6V | 02:47:04 | 02:34:00 | 00:00:00 | |
| BIOWL1-15 | 2026-08-31 07:02:52 | 50.30888 | 9.35350 | 65° | 115km/h | 8130m | -5.6m/s | -33.3°C | 35% | 360.2hPa | 2.6V | 02:47:13 | 02:34:03 | 00:00:00 | |
| DF7PN | 2026-08-31 07:02:51 | 50.30863 | 9.35265 | 67° | 119km/h | 8141m | -5.6m/s | -33.4°C | 29.9% | 359.7hPa | 2.6V | 00:00:00 | 00:00:00 | 00:00:00 | |
| DL1NUX | 2026-08-31 07:02:50 | 50.30802 | 9.35036 | 66° | 131km/h | 8169m | -5.4m/s | -33.6°C | 32.7% | 358.3hPa | 2.6V | 02:47:08 | 02:33:56 | 00:00:00 | |
| HSKMA3-T | 2026-08-31 07:02:47 | 50.30815 | 9.35083 | 68° | 130km/h | 8163m | -5.5m/s | -33.5°C | 35.8% | 358.6hPa | 2.6V | 02:47:13 | 02:33:57 | 00:00:00 | |
| BIOWL1-15 | 2026-08-31 07:02:44 | 50.30759 | 9.34892 | 64° | 137km/h | 8185m | -5.3m/s | -33.7°C | 36.9% | 357.4hPa | 2.6V | 02:47:13 | 02:33:53 | 00:00:00 | |
| DO8TBO-1 | 2026-08-31 07:02:42 | 50.30759 | 9.34892 | 64° | 131km/h | 8185m | -5.3m/s | -33.7°C | 33.7% | 357.4hPa | 2.6V | 00:00:00 | 02:33:53 | 00:00:00 | |
| DD1CC8 | 2026-08-31 07:02:41 | 50.30743 | 9.34844 | 61° | 135km/h | 8191m | -5.2m/s | -33.8°C | 31.7% | 357.2hPa | 2.6V | 00:00:00 | 00:00:00 | 00:00:00 | |
| DL1NUX | 2026-08-31 07:02:40 | 50.30642 | 9.34568 | 58° | 131km/h | 8223m | -5.7m/s | -34°C | 35.2% | 355.5hPa | 2.6V | 02:47:18 | 02:33:46 | 00:00:00 | |
| HSKMA3-T | 2026-08-31 07:02:35 | 50.30642 | 9.34568 | 58° | 131km/h | 8223m | -5.7m/s | -34°C | 38.4% | 355.5hPa | 2.6V | 02:48:04 | 02:33:46 | 00:00:00 | |
| BIOWL1-15 | 2026-08-31 07:02:31 | 50.30574 | 9.34396 | 58° | 124km/h | 8246m | -5.5m/s | -34.2°C | 40.3% | 354.4hPa | 2.6V | 02:48:04 | 02:33:42 | 00:00:00 | |
| NBG1-10 | 2026-08-31 07:02:31 | 50.30573 | 9.34396 | 58° | 130km/h | 8246m | -5.4m/s | -34.1°C | 37.3% | 354.3hPa | 2.6V | 00:00:00 | 02:33:42 | 00:00:00 | |
| DL1NUX | 2026-08-31 07:02:30 | 50.30487 | 9.34143 | 66° | 124km/h | 8278m | -5.2m/s | -34.4°C | 37.8% | 352.7hPa | 2.6V | 02:47:28 | 02:33:36 | 00:00:00 | |
| HSKMA3-T | 2026-08-31 07:02:24 | 50.30475 | 9.34098 | 67° | 128km/h | 8284m | -5.3m/s | -34.4°C | 39.8% | 352.4hPa | 2.6V | 02:48:04 | 02:33:35 | 00:00:00 | |
| DF2AP-13 | 2026-08-31 07:02:24 | 50.30475 | 9.34097 | 67° | 133km/h | 8284m | -5.3m/s | -34.4°C | 37.2% | 352.4hPa | 2.6V | 00:00:00 | 02:33:35 | 00:00:00 | |
| DL1NUX | 2026-08-31 07:02:20 | 50.30346 | 9.33659 | 61° | 141km/h | 8334m | -5.4m/s | -34.7°C | 32.5% | 349.9hPa | 2.6V | 02:47:38 | 02:33:26 | 00:00:00 | |
| HSKMA3-T | 2026-08-31 07:02:14 | 50.30329 | 9.33610 | 61° | 141km/h | 8339m | -5.2m/s | -34.7°C | 35.1% | 349.7hPa | 2.6V | 02:48:04 | 02:33:25 | 00:00:00 | |
| DM0DOS-11 | 2026-08-31 07:02:13 | 50.30225 | 9.33342 | 60° | 124km/h | 8372m | -5.8m/s | -34.9°C | 32.1% | 348.1hPa | 2.6V | 02:47:45 | 02:33:19 | 00:00:00 | |
| DO8TBO-1 | 2026-08-31 07:02:12 | 50.30293 | 9.33516 | 59° | 131km/h | 8350m | -5.5m/s | -34.7°C | 32.5% | 349.1hPa | 2.6V | 02:47:00 | 02:33:23 | 00:00:00 | |
| DL1NUX | 2026-08-31 07:02:10 | 50.30182 | 9.33214 | 64° | 122km/h | 8388m | -5.6m/s | -34.9°C | 31% | 347.3hPa | 2.6V | 02:47:48 | 02:33:16 | 00:00:00 | |
| BIOWL1-15 | 2026-08-31 07:02:09 | 50.30241 | 9.33385 | 59° | 126km/h | 8366m | -5.5m/s | -34.9°C | 35.6% | 348.4hPa | 2.6V | 02:48:04 | 02:33:20 | 00:00:00 | |
| HSKMA3-T | 2026-08-31 07:02:04 | 50.30169 | 9.33170 | 66° | 122km/h | 8394m | -5.7m/s | -35°C | 34.4% | 347hPa | 2.6V | 02:48:04 | 02:33:15 | 00:00:00 | |
| SONCRA | 2026-08-31 07:02:01 | 50.30119 | 9.32985 | 68° | 131km/h | 8416m | -5.6m/s | -35.0°C | 27.9% | 345.9hPa | 2.6V | 00:00:00 | 00:00:00 | 00:00:00 | |
| DL1NUX | 2026-08-31 07:02:00 | 50.30053 | 9.32734 | 65° | 142km/h | 8443m | -5.5m/s | -35.2°C | 30.2% | 344.6hPa | 2.6V | 02:47:58 | 02:33:06 | 00:00:00 | |
| DJ2DS-15 | 2026-08-31 07:02:00 | 50.30053 | 9.32734 | 65° | 142km/h | 8443m | -5.5m/s | -35.2°C | 0% | 344.6hPa | 2.6V | 00:00:00 | 00:00:00 | 00:00:00 | |
| DM0DOS-11 | 2026-08-31 07:01:59 | 50.30094 | 9.32887 | 68° | 137km/h | 8427m | -5.4m/s | -35.1°C | 30% | 345.3hPa | 2.6V | 02:47:55 | 02:33:09 | 00:00:00 | |
| BIOWL1-15 | 2026-08-31 07:01:58 | 50.30094 | 9.32887 | 68° | 137km/h | 8427m | -5.4m/s | -35.1°C | 32.6% | 345.3hPa | 2.6V | 02:48:04 | 02:33:09 | 00:00:00 | |
| HSKMA3-T | 2026-08-31 07:01:54 | 50.30038 | 9.32683 | 65° | 144km/h | 8448m | -5.3m/s | -35.3°C | 32.7% | 344.3hPa | 2.6V | 02:48:04 | 02:33:05 | 00:00:00 | |
| DF2AP-13 | 2026-08-31 07:01:54 | 50.30038 | 9.32682 | 65° | 133km/h | 8448m | -5.3m/s | -35.2°C | 30.2% | 344.2hPa | 2.6V | 02:47:00 | 02:33:05 | 00:00:00 | |
| DL1NUX | 2026-08-31 07:01:50 | 50.29889 | 9.32259 | 62° | 124km/h | 8497m | -5.6m/s | -35.6°C | 27.6% | 341.9hPa | 2.6V | 02:48:08 | 02:32:56 | 00:00:00 | |
| BIOWL1-15 | 2026-08-31 07:01:48 | 50.29937 | 9.32391 | 60° | 131km/h | 8480m | -5.1m/s | -35.5°C | 31.5% | 342.7hPa | 2.6V | 02:48:55 | 02:32:59 | 00:00:00 | |
| DB0ND-19 | 2026-08-31 07:01:46 | 50.29904 | 9.32302 | 60° | 126km/h | 8491m | -5.4m/s | -35.5°C | 25.7% | 342.2hPa | 2.6V | 00:00:00 | 00:00:00 | 00:00:00 | |
| HSKMA3-T | 2026-08-31 07:01:44 | 50.29875 | 9.32216 | 63° | 122km/h | 8502m | -5.3m/s | -35.6°C | 31% | 341.7hPa | 2.6V | 02:48:55 | 02:32:55 | 00:00:00 | |
| DB0UT-9 | 2026-08-31 07:01:43 | 50.29875 | 9.32216 | 64° | 122km/h | 8502m | -5.3m/s | -35.6°C | 25.4% | 341.7hPa | 2.6V | 00:00:00 | 00:00:00 | 00:00:00 | |
| DO8TBO-1 | 2026-08-31 07:01:42 | 50.29849 | 9.32128 | 67° | 135km/h | 8513m | -5.4m/s | -35.6°C | 27.0% | 341.1hPa | 2.6V | 00:00:00 | 02:32:53 | 00:00:00 | |
| DL1NUX | 2026-08-31 07:01:40 | 50.29764 | 9.31789 | 68° | 142km/h | 8551m | -5.4m/s | -35.9°C | 27.8% | 339.2hPa | 2.6V | 02:48:18 | 02:32:46 | 00:00:00 | |
| DM0DOS-11 | 2026-08-31 07:01:39 | 50.29801 | 9.31941 | 69° | 133km/h | 8535m | -5.5m/s | -35.8°C | 27.1% | 340hPa | 2.6V | 02:48:15 | 02:32:49 | 00:00:00 | |
| BIOWL1-15 | 2026-08-31 07:01:38 | 50.29801 | 9.31941 | 70° | 133km/h | 8535m | -5.5m/s | -35.8°C | 30.1% | 340hPa | 2.6V | 02:48:55 | 02:32:49 | 00:00:00 | |
| DO3MHA-11 | 2026-08-31 07:01:36 | 50.29777 | 9.31840 | 70° | 139km/h | 8546m | -5.4m/s | -35.8°C | 27.6% | 339.5hPa | 2.6V | 02:48:00 | 02:32:47 | 00:00:00 | |
| DF1GD-15 | 2026-08-31 07:01:34 | 50.29764 | 9.31789 | 69° | 142km/h | 8551m | -5.4m/s | -35.9°C | 25.8% | 339.3hPa | 2.6V | 02:48:00 | 00:00:00 | 00:00:00 | |
| DM0DOS-11 | 2026-08-31 07:01:33 | 50.29654 | 9.31441 | 61° | 130km/h | 8588m | -5.1m/s | -36.3°C | 28.7% | 337.4hPa | 2.6V | 02:48:25 | 02:32:39 | 00:00:00 | |
| HSKMA3-T | 2026-08-31 07:01:33 | 50.29735 | 9.31685 | 65° | 144km/h | 8562m | -5.2m/s | -36°C | 30.9% | 338.7hPa | 2.6V | 02:48:55 | 02:32:44 | 00:00:00 | |
| DL1NUX | 2026-08-31 07:01:30 | 50.29611 | 9.31307 | 66° | 124km/h | 8603m | -5.2m/s | -36.4°C | 29% | 336.7hPa | 2.6V | 02:48:28 | 02:32:36 | 00:00:00 | |
| BIOWL1-15 | 2026-08-31 07:01:27 | 50.29611 | 9.31307 | 66° | 124km/h | 8603m | -5.2m/s | -36.4°C | 32.3% | 336.7hPa | 2.6V | 02:48:55 | 02:32:36 | 00:00:00 | |
| HSKMA3-T | 2026-08-31 07:01:22 | 50.29575 | 9.31169 | 69° | 128km/h | 8619m | -5.5m/s | -36.5°C | 32.3% | 336hPa | 2.5V | 02:48:55 | 02:32:33 | 00:00:00 | |
| DJ2DS-15 | 2026-08-31 07:01:21 | 50.29564 | 9.31121 | 70° | 139km/h | 8625m | -5.3m/s | -36.5°C | 28.9% | 335.7hPa | 2.6V | 00:00:00 | 02:32:32 | 00:00:00 | |
| DM0DOS-11 | 2026-08-31 07:01:21 | 50.29530 | 9.30973 | 70° | 137km/h | 8641m | -5.4m/s | -36.7°C | 29.2% | 334.8hPa | 2.6V | 02:48:35 | 02:32:29 | 00:00:00 | |
| DL1NUX | 2026-08-31 07:01:20 | 50.29494 | 9.30817 | 68° | 144km/h | 8657m | -5.3m/s | -36.8°C | 29.4% | 334.1hPa | 2.6V | 02:48:38 | 02:32:26 | 00:00:00 | |
| BIOWL1-15 | 2026-08-31 07:01:15 | 50.29494 | 9.30817 | 69° | 144km/h | 8658m | -5.3m/s | -36.8°C | 31.9% | 334.1hPa | 2.6V | 02:48:55 | 02:32:26 | 00:00:00 | |
| HSKMA3-T | 2026-08-31 07:01:12 | 50.29451 | 9.30659 | 65° | 146km/h | 8673m | -5.1m/s | -36.9°C | 32.4% | 333.3hPa | 2.6V | 02:48:55 | 02:32:23 | 00:00:00 | |
| DO8TBO-1 | 2026-08-31 07:01:12 | 50.29451 | 9.30659 | 65° | 137km/h | 8673m | -5.1m/s | -36.8°C | 29.7% | 333.3hPa | 2.6V | 00:00:00 | 02:32:23 | 00:00:00 | |
| DM0DOS-11 | 2026-08-31 07:01:09 | 50.29385 | 9.30455 | 62° | 142km/h | 8694m | -5.4m/s | -37°C | 30.1% | 332.3hPa | 2.6V | 02:48:45 | 02:32:19 | 00:00:00 | |
| BIOWL1-15 | 2026-08-31 07:01:04 | 50.29318 | 9.30262 | 62° | 133km/h | 8716m | -5.2m/s | -37.3°C | 34.5% | 331.2hPa | 2.6V | 02:48:55 | 02:32:15 | 00:00:00 | |
| DM0DOS-11 | 2026-08-31 07:01:03 | 50.29236 | 9.29987 | 69° | 130km/h | 8747m | -5.4m/s | -37.5°C | 30.6% | 329.8hPa | 2.6V | 02:48:55 | 02:32:09 | 00:00:00 | |
| HSKMA3-T | 2026-08-31 07:01:01 | 50.29274 | 9.30126 | 65° | 126km/h | 8732m | -5.2m/s | -37.4°C | 34.4% | 330.5hPa | 2.6V | 02:48:55 | 02:32:12 | 00:00:00 | |
| DL1NUX | 2026-08-31 07:01:00 | 50.29201 | 9.29838 | 70° | 139km/h | 8764m | -5.3m/s | -37.6°C | 30.9% | 329hPa | 2.6V | 02:48:58 | 02:32:06 | 00:00:00 | |
| BIOWL1-15 | 2026-08-31 07:00:56 | 50.29189 | 9.29786 | 70° | 141km/h | 8769m | -5.3m/s | -37.6°C | 33.8% | 328.7hPa | 2.6V | 02:49:46 | 02:32:05 | 00:00:00 | |
| DO3MHA-11 | 2026-08-31 07:00:56 | 50.29212 | 9.29889 | 71° | 142km/h | 8759m | -5.4m/s | -37.5°C | 30.7% | 329.2hPa | 2.6V | 00:00:00 | 02:32:07 | 00:00:00 | |
| DF2AP-13 | 2026-08-31 07:00:54 | 50.29189 | 9.29786 | 70° | 139km/h | 8769m | -5.3m/s | -37.6°C | 31.2% | 328.7hPa | 2.6V | 00:00:00 | 02:32:05 | 00:00:00 | |
| DF1GD-15 | 2026-08-31 07:00:53 | 50.29189 | 9.29786 | 71° | 141km/h | 8769m | -5.3m/s | -37.6°C | 28.9% | 328.7hPa | 2.6V | 02:49:00 | 00:00:00 | 00:00:00 | |
| NBG1-10 | 2026-08-31 07:00:52 | 50.29162 | 9.29680 | 68° | 137km/h | 8780m | -5.2m/s | -37.7°C | 31.8% | 328.2hPa | 2.6V | 00:00:00 | 02:32:03 | 00:00:00 | |
| DL1NUX | 2026-08-31 07:00:50 | 50.29048 | 9.29329 | 60° | 133km/h | 8815m | -5.2m/s | -38.1°C | 32.7% | 326.4hPa | 2.6V | 02:49:08 | 02:31:56 | 00:00:00 | |
| HSKMA3-T | 2026-08-31 07:00:50 | 50.29132 | 9.29574 | 64° | 148km/h | 8790m | -5.1m/s | -37.8°C | 34.8% | 327.7hPa | 2.5V | 02:49:46 | 02:32:01 | 00:00:00 | |
| DJ2DS-15 | 2026-08-31 07:00:48 | 50.29082 | 9.29423 | 61° | 139km/h | 8805m | -5.3m/s | -38.0°C | 30.1% | 327.0hPa | 2.6V | 00:00:00 | 00:00:00 | 00:00:00 | |
| DF7PN | 2026-08-31 07:00:47 | 50.29065 | 9.29375 | 60° | 135km/h | 8810m | -5.1m/s | -38.0°C | 30.2% | 326.8hPa | 2.6V | 00:00:00 | 00:00:00 | 00:00:00 | |
| BIOWL1-15 | 2026-08-31 07:00:43 | 50.29001 | 9.29192 | 63° | 128km/h | 8832m | -5.1m/s | -38.3°C | 36.2% | 325.9hPa | 2.6V | 02:49:46 | 02:31:53 | 00:00:00 | |
| DC4HF-4 | 2026-08-31 07:00:43 | 50.29016 | 9.29237 | 61° | 130km/h | 8826m | -5.5m/s | -38.2°C | 30.4% | 326.1hPa | 2.6V | 00:00:00 | 00:00:00 | 00:00:00 | |
| DO8TBO-1 | 2026-08-31 07:00:42 | 50.29001 | 9.29192 | 63° | 137km/h | 8832m | -5.1m/s | -38.2°C | 32.7% | 325.8hPa | 2.6V | 02:49:00 | 02:31:53 | 00:00:00 | |
| DL1NUX | 2026-08-31 07:00:40 | 50.28910 | 9.28862 | 69° | 137km/h | 8868m | -5.3m/s | -38.5°C | 33.4% | 324.1hPa | 2.6V | 02:49:18 | 02:31:46 | 00:00:00 | |
| HSKMA3-T | 2026-08-31 07:00:39 | 50.28959 | 9.29056 | 67° | 128km/h | 8847m | -5.3m/s | -38.4°C | 36.2% | 325hPa | 2.6V | 02:49:46 | 02:31:50 | 00:00:00 | |
| BIOWL1-15 | 2026-08-31 07:00:35 | 50.28886 | 9.28758 | 69° | 144km/h | 8879m | -5.3m/s | -38.6°C | 36.1% | 323.6hPa | 2.6V | 02:49:46 | 02:31:44 | 00:00:00 | |
| DF1GD-15 | 2026-08-31 07:00:32 | 50.28886 | 9.28758 | 70° | 144km/h | 8879m | -5.3m/s | -38.6°C | 31.3% | 323.6hPa | 2.6V | 02:49:00 | 00:00:00 | 00:00:00 | |
| DO3DL | 2026-08-31 07:00:31 | 50.28872 | 9.28705 | 69° | 146km/h | 8884m | -5.3m/s | -38.7°C | 31.6% | 323.3hPa | 2.6V | 02:49:00 | 00:00:00 | 00:00:00 | |
| DL1NUX | 2026-08-31 07:00:30 | 50.28757 | 9.28343 | 60° | 139km/h | 8920m | -4.9m/s | -39°C | 34% | 321.6hPa | 2.6V | 02:49:28 | 02:31:36 | 00:00:00 | |
| HSKMA3-T | 2026-08-31 07:00:29 | 50.28826 | 9.28544 | 64° | 150km/h | 8899m | -5m/s | -38.8°C | 36.7% | 322.6hPa | 2.6V | 02:49:46 | 02:31:40 | 00:00:00 | |
| BIOWL1-15 | 2026-08-31 07:00:23 | 50.28723 | 9.28250 | 62° | 131km/h | 8930m | -5.1m/s | -39.1°C | 36.8% | 321.1hPa | 2.6V | 02:49:46 | 02:31:34 | 00:00:00 | |
| DM7RM-13 | 2026-08-31 07:00:22 | 50.28723 | 9.28250 | 63° | 131km/h | 8930m | -5.1m/s | -39.1°C | 31.4% | 321.1hPa | 2.6V | 02:49:00 | 00:00:00 | 00:00:00 | |
| DL1NUX | 2026-08-31 07:00:20 | 50.28619 | 9.27872 | 69° | 139km/h | 8972m | -5.4m/s | -39.3°C | 32.6% | 319.1hPa | 2.6V | 02:49:38 | 02:31:26 | 00:00:00 | |
| DM0DOS-11 | 2026-08-31 07:00:19 | 50.28655 | 9.28020 | 68° | 130km/h | 8956m | -5.2m/s | -39.2°C | 32.7% | 319.9hPa | 2.6V | 02:49:35 | 02:31:29 | 00:00:00 | |
| HSKMA3-T | 2026-08-31 07:00:19 | 50.28667 | 9.28067 | 67° | 128km/h | 8950m | -5.4m/s | -39.2°C | 35.8% | 320.2hPa | 2.6V | 02:49:46 | 02:31:30 | 00:00:00 | |
| BIOWL1-15 | 2026-08-31 07:00:15 | 50.28594 | 9.27767 | 69° | 146km/h | 8982m | -5m/s | -39.4°C | 35.1% | 318.7hPa | 2.6V | 02:49:46 | 02:31:24 | 00:00:00 | |
| DB0ND-19 | 2026-08-31 07:00:13 | 50.28594 | 9.27767 | 68° | 144km/h | 8982m | -5.0m/s | -39.4°C | 30.5% | 318.7hPa | 2.5V | 00:00:00 | 00:00:00 | 00:00:00 | |
| DJ2DS-15 | 2026-08-31 07:00:12 | 50.28565 | 9.27659 | 66° | 148km/h | 8992m | -5.0m/s | -39.5°C | 30.4% | 318.3hPa | 2.5V | 00:00:00 | 00:00:00 | 00:00:00 | |
| DL1NUX | 2026-08-31 07:00:10 | 50.28465 | 9.27353 | 60° | 137km/h | 9024m | -5.2m/s | -39.8°C | 30.9% | 316.8hPa | 2.5V | 02:49:48 | 02:31:16 | 00:00:00 | |
| DM0DOS-11 | 2026-08-31 07:00:09 | 50.28499 | 9.27450 | 61° | 144km/h | 9013m | -5.2m/s | -39.6°C | 31.8% | 317.2hPa | 2.6V | 02:49:46 | 02:31:18 | 00:00:00 | |
| HSKMA3-T | 2026-08-31 07:00:08 | 50.28516 | 9.27501 | 63° | 146km/h | 9008m | -5.6m/s | -39.6°C | 34.7% | 317.5hPa | 2.6V | 02:49:46 | 02:31:19 | 00:00:00 | |
| DL8DAS-14 | 2026-08-31 07:00:07 | 50.28481 | 9.27401 | 60° | 139km/h | 9018m | -5.2m/s | -39.7°C | 28.9% | 317.0hPa | 2.6V | 00:00:00 | 00:00:00 | 00:00:00 | |
| DO3MHA-11 | 2026-08-31 07:00:06 | 50.28481 | 9.27401 | 61° | 131km/h | 9019m | -5.2m/s | -39.7°C | 31.4% | 316.9hPa | 2.6V | 02:49:00 | 02:31:17 | 00:00:00 | |
| DM0DOS-11 | 2026-08-31 07:00:02 | 50.28354 | 9.26981 | 69° | 133km/h | 9065m | -5.5m/s | -40°C | 27.7% | 314.8hPa | 2.6V | 02:49:56 | 02:31:08 | 00:00:00 | |
| BIOWL1-15 | 2026-08-31 07:00:02 | 50.28417 | 9.27215 | 64° | 128km/h | 9039m | -5m/s | -39.8°C | 32% | 316.1hPa | 2.6V | 02:50:37 | 02:31:13 | 00:00:00 | |
| DM7RM-13 | 2026-08-31 07:00:01 | 50.28417 | 9.27215 | 64° | 128km/h | 9039m | -5.0m/s | -39.8°C | 26.7% | 316.1hPa | 2.6V | 02:50:00 | 00:00:00 | 00:00:00 | |
| DL1NUX | 2026-08-31 07:00:00 | 50.28331 | 9.26880 | 70° | 137km/h | 9076m | -5.3m/s | -40°C | 27.7% | 314.3hPa | 2.6V | 02:49:58 | 02:31:06 | 00:00:00 | |
| HSKMA3-T | 2026-08-31 06:59:57 | 50.28354 | 9.26981 | 70° | 133km/h | 9065m | -5.5m/s | -40°C | 30.6% | 314.8hPa | 2.6V | 02:50:37 | 02:31:08 | 00:00:00 | |
| BIOWL1-15 | 2026-08-31 06:59:53 | 50.28280 | 9.26668 | 68° | 150km/h | 9098m | -5.4m/s | -40.1°C | 30.6% | 313.3hPa | 2.6V | 02:50:37 | 02:31:02 | 00:00:00 | |
| BIOWL9-15 | 2026-08-31 06:59:52 | 50.28294 | 9.26722 | 69° | 146km/h | 9092m | -5.3m/s | -40.1°C | 26.1% | 313.5hPa | 2.6V | 00:00:00 | 00:00:00 | 00:00:00 | |
| DM0DOS-11 | 2026-08-31 06:59:50 | 50.28218 | 9.26452 | 62° | 148km/h | 9119m | -5.4m/s | -40.3°C | 27.4% | 312.4hPa | 2.6V | 02:50:06 | 02:30:58 | 00:00:00 | |
| HSKMA3-T | 2026-08-31 06:59:46 | 50.28201 | 9.26401 | 62° | 144km/h | 9124m | -4.9m/s | -40.3°C | 30.1% | 312hPa | 2.6V | 02:50:37 | 02:30:57 | 00:00:00 | |
| DB0NH | 2026-08-31 06:59:46 | 50.28201 | 9.26401 | 62° | 139km/h | 9124m | -4.8m/s | -40.2°C | 27.1% | 312.0hPa | 2.6V | 00:00:00 | 02:30:57 | 00:00:00 | |
| DF7PN | 2026-08-31 06:59:45 | 50.28167 | 9.26304 | 61° | 135km/h | 9135m | -5.3m/s | -40.4°C | 24.4% | 311.6hPa | 2.6V | 00:00:00 | 00:00:00 | 00:00:00 | |
| DL1NUX | 2026-08-31 06:59:43 | 50.28084 | 9.26024 | 69° | 131km/h | 9167m | -5.5m/s | -40.6°C | 26.8% | 310.2hPa | 2.6V | 02:50:15 | 02:30:49 | 00:00:00 | |
| DL0LBS | 2026-08-31 06:59:43 | 50.28151 | 9.26257 | 63° | 133km/h | 9140m | -5.2m/s | -40.4°C | 24.2% | 311.4hPa | 2.6V | 02:50:00 | 00:00:00 | 00:00:00 | |
| DB0ND-19 | 2026-08-31 06:59:42 | 50.28136 | 9.26211 | 63° | 130km/h | 9145m | -5.0m/s | -40.5°C | 24.1% | 311.1hPa | 2.6V | 00:00:00 | 00:00:00 | 00:00:00 | |
| DM7RM-13 | 2026-08-31 06:59:40 | 50.28122 | 9.26164 | 66° | 128km/h | 9150m | -5.4m/s | -40.5°C | 24.1% | 311.0hPa | 2.6V | 02:50:00 | 00:00:00 | 00:00:00 | |
| DM0DOS-11 | 2026-08-31 06:59:39 | 50.28061 | 9.25924 | 70° | 139km/h | 9177m | -5.2m/s | -40.7°C | 27.2% | 309.6hPa | 2.6V | 02:50:17 | 02:30:47 | 00:00:00 | |
| BIOWL1-15 | 2026-08-31 06:59:36 | 50.28036 | 9.25817 | 70° | 148km/h | 9188m | -5.3m/s | -40.7°C | 30% | 309.2hPa | 2.6V | 02:50:37 | 02:30:45 | 00:00:00 | |
| HSKMA3-T | 2026-08-31 06:59:35 | 50.28049 | 9.25871 | 70° | 144km/h | 9182m | -5.1m/s | -40.7°C | 29.8% | 309.5hPa | 2.6V | 02:50:37 | 02:30:46 | 00:00:00 | |
| DD1CC8 | 2026-08-31 06:59:35 | 50.28049 | 9.25871 | 70° | 142km/h | 9182m | -5.1m/s | -40.7°C | 25.1% | 309.5hPa | 2.6V | 00:00:00 | 00:00:00 | 00:00:00 | |
| DO8TBO-1 | 2026-08-31 06:59:34 | 50.28036 | 9.25817 | 70° | 144km/h | 9188m | -5.2m/s | -40.7°C | 27.8% | 309.2hPa | 2.6V | 00:00:00 | 02:30:45 | 00:00:00 | |
| DB0UT-9 | 2026-08-31 06:59:32 | 50.28023 | 9.25762 | 69° | 150km/h | 9193m | -5.4m/s | -40.8°C | 25.6% | 308.9hPa | 2.6V | 02:50:00 | 00:00:00 | 00:00:00 | |
| DC4HF-4 | 2026-08-31 06:59:31 | 50.27993 | 9.25652 | 65° | 150km/h | 9203m | -5.3m/s | -40.9°C | 25.7% | 308.5hPa | 2.6V | 00:00:00 | 00:00:00 | 00:00:00 | |
| DM0DOS-11 | 2026-08-31 06:59:29 | 50.27909 | 9.25394 | 61° | 141km/h | 9230m | -5.4m/s | -41.1°C | 27.6% | 307.3hPa | 2.6V | 02:50:27 | 02:30:37 | 00:00:00 | |
| HSKMA3-T | 2026-08-31 06:59:25 | 50.27892 | 9.25345 | 62° | 139km/h | 9236m | -5.5m/s | -41.2°C | 31.1% | 307.1hPa | 2.6V | 02:50:37 | 02:30:36 | 00:00:00 | |
| DF2AP-13 | 2026-08-31 06:59:24 | 50.27876 | 9.25297 | 63° | 141km/h | 9242m | -5.5m/s | -41.2°C | 27.6% | 306.7hPa | 2.6V | 00:00:00 | 02:30:35 | 00:00:00 | |
| DL1NUX | 2026-08-31 06:59:23 | 50.27798 | 9.25013 | 70° | 135km/h | 9274m | -5.4m/s | -41.5°C | 27.7% | 305.3hPa | 2.6V | 02:50:35 | 02:30:29 | 00:00:00 | |
| BIOWL1-15 | 2026-08-31 06:59:20 | 50.27787 | 9.24962 | 72° | 139km/h | 9279m | -5.3m/s | -41.6°C | 30.9% | 305.1hPa | 2.6V | 02:50:37 | 02:30:28 | 00:00:00 | |
| DK5PH-5 | 2026-08-31 06:59:20 | 50.27821 | 9.25110 | 69° | 142km/h | 9263m | -5.4m/s | -41.4°C | 27.4% | 305.7hPa | 2.6V | 00:00:00 | 02:30:31 | 00:00:00 | |
| DM0DOS-11 | 2026-08-31 06:59:19 | 50.27775 | 9.24909 | 71° | 142km/h | 9285m | -5.3m/s | -41.6°C | 28.5% | 304.7hPa | 2.6V | 02:50:37 | 02:30:27 | 00:00:00 | |
| DO3MHA-11 | 2026-08-31 06:59:16 | 50.27775 | 9.24909 | 72° | 150km/h | 9285m | -5.3m/s | -41.6°C | 28.5% | 304.7hPa | 2.6V | 00:00:00 | 02:30:27 | 00:00:00 | |
| DL1NUX | 2026-08-31 06:59:13 | 50.27662 | 9.24471 | 63° | 148km/h | 9328m | -5.2m/s | -42°C | 29.7% | 302.8hPa | 2.6V | 02:50:45 | 02:30:19 | 00:00:00 | |
| HSKMA3-T | 2026-08-31 06:59:13 | 50.27739 | 9.24745 | 70° | 151km/h | 9301m | -5.6m/s | -41.7°C | 31.6% | 304hPa | 2.6V | 02:51:28 | 02:30:24 | 00:00:00 | |
| DB0UT-9 | 2026-08-31 06:59:12 | 50.27738 | 9.24745 | 71° | 151km/h | 9301m | -5.6m/s | -41.7°C | 26.9% | 304.0hPa | 2.6V | 02:51:00 | 00:00:00 | 00:00:00 | |
| DB0ND-19 | 2026-08-31 06:59:11 | 50.27710 | 9.24633 | 66° | 151km/h | 9312m | -5.5m/s | -41.8°C | 27.2% | 303.5hPa | 2.6V | 00:00:00 | 00:00:00 | 00:00:00 | |
| DM0DOS-11 | 2026-08-31 06:59:09 | 50.27628 | 9.24369 | 62° | 142km/h | 9339m | -5.5m/s | -42.1°C | 29.5% | 302.4hPa | 2.6V | 02:50:47 | 02:30:17 | 00:00:00 | |
| BIOWL1-15 | 2026-08-31 06:59:08 | 50.27662 | 9.24471 | 63° | 148km/h | 9328m | -5.2m/s | -42°C | 32.8% | 302.8hPa | 2.6V | 02:51:28 | 02:30:19 | 00:00:00 | |
| DO3MHA-11 | 2026-08-31 06:59:06 | 50.27628 | 9.24369 | 63° | 137km/h | 9339m | -5.5m/s | -42.1°C | 29.5% | 302.3hPa | 2.6V | 02:50:00 | 02:30:17 | 00:00:00 | |
| DJ2KF-10 | 2026-08-31 06:59:05 | 50.27612 | 9.24320 | 63° | 58km/h | 9345m | -5.7m/s | -42.1°C | 29.5% | 302.1hPa | 2.6V | 00:00:00 | 02:30:16 | 00:00:00 | |
| DD1CC8 | 2026-08-31 06:59:04 | 50.27580 | 9.24223 | 64° | 133km/h | 9356m | -5.9m/s | -42.3°C | 26.7% | 301.6hPa | 2.6V | 00:00:00 | 00:00:00 | 00:00:00 | |
| DL1NUX | 2026-08-31 06:59:03 | 50.27517 | 9.23980 | 71° | 137km/h | 9384m | -5.6m/s | -42.4°C | 29.1% | 300.3hPa | 2.6V | 02:50:55 | 02:30:09 | 00:00:00 | |
| BIOWL1-15 | 2026-08-31 06:59:00 | 50.27517 | 9.23980 | 72° | 137km/h | 9384m | -5.6m/s | -42.4°C | 32.3% | 300.4hPa | 2.6V | 02:51:28 | 02:30:09 | 00:00:00 | |
| DJ2DS-15 | 2026-08-31 06:59:00 | 50.27528 | 9.24030 | 70° | 133km/h | 9378m | -5.5m/s | -42.4°C | 26.5% | 300.6hPa | 2.6V | 00:00:00 | 00:00:00 | 00:00:00 | |
| DM0DOS-11 | 2026-08-31 06:58:59 | 50.27495 | 9.23875 | 72° | 142km/h | 9395m | -5.6m/s | -42.5°C | 29.5% | 299.9hPa | 2.6V | 02:50:57 | 02:30:07 | 00:00:00 | |
| HSKMA3-T | 2026-08-31 06:58:56 | 50.27495 | 9.23875 | 73° | 144km/h | 9395m | -5.6m/s | -42.5°C | 32.4% | 299.9hPa | 2.6V | 02:51:28 | 02:30:07 | 00:00:00 | |
| DC4HF-4 | 2026-08-31 06:58:55 | 50.27484 | 9.23820 | 71° | 146km/h | 9400m | -5.5m/s | -42.5°C | 26.9% | 299.6hPa | 2.6V | 00:00:00 | 00:00:00 | 00:00:00 | |
| DL1ZP-14 | 2026-08-31 06:58:52 | 50.27446 | 9.23652 | 69° | 151km/h | 9417m | -5.5m/s | -42.7°C | 27.3% | 299.0hPa | 2.6V | 00:00:00 | 00:00:00 | 00:00:00 | |
| DB0UT-9 | 2026-08-31 06:58:51 | 50.27446 | 9.23652 | 70° | 153km/h | 9417m | -5.5m/s | -42.7°C | 27.3% | 299.0hPa | 2.6V | 02:51:00 | 00:00:00 | 00:00:00 | |
| DK5PH-5 | 2026-08-31 06:58:50 | 50.27417 | 9.23540 | 67° | 142km/h | 9428m | -5.4m/s | -42.7°C | 29.8% | 298.4hPa | 2.6V | 02:51:00 | 02:30:01 | 00:00:00 | |
| DM0DOS-11 | 2026-08-31 06:58:49 | 50.27353 | 9.23327 | 63° | 144km/h | 9451m | -5.7m/s | -43°C | 29.1% | 297.4hPa | 2.6V | 02:51:07 | 02:29:57 | 00:00:00 | |
| BIOWL1-15 | 2026-08-31 06:58:48 | 50.27385 | 9.23431 | 65° | 150km/h | 9439m | -5.7m/s | -42.9°C | 32.6% | 298hPa | 2.6V | 02:51:28 | 02:29:59 | 00:00:00 | |
| HSKMA3-T | 2026-08-31 06:58:45 | 50.27336 | 9.23276 | 63° | 142km/h | 9456m | -5.8m/s | -43.1°C | 32.2% | 297.2hPa | 2.6V | 02:51:28 | 02:29:56 | 00:00:00 | |
| DF7PN | 2026-08-31 06:58:42 | 50.27288 | 9.23130 | 63° | 133km/h | 9473m | -5.6m/s | -43.2°C | 25.2% | 296.4hPa | 2.6V | 00:00:00 | 00:00:00 | 00:00:00 | |
| NBG1-10 | 2026-08-31 06:58:40 | 50.27260 | 9.23036 | 67° | 142km/h | 9485m | -5.5m/s | -43.3°C | 27.8% | 295.8hPa | 2.6V | 02:51:00 | 02:29:51 | 00:00:00 | |
| DM0DOS-11 | 2026-08-31 06:58:39 | 50.27213 | 9.22844 | 71° | 135km/h | 9507m | -5.6m/s | -43.5°C | 27.7% | 294.9hPa | 2.6V | 02:51:17 | 02:29:47 | 00:00:00 | |
| BIOWL1-15 | 2026-08-31 06:58:38 | 50.27235 | 9.22942 | 69° | 130km/h | 9496m | -5.7m/s | -43.4°C | 30.9% | 295.4hPa | 2.6V | 02:51:28 | 02:29:49 | 00:00:00 | |
| HSKMA3-T | 2026-08-31 06:58:33 | 50.27179 | 9.22686 | 71° | 146km/h | 9524m | -5.6m/s | -43.6°C | 30.9% | 294.2hPa | 2.6V | 02:51:28 | 02:29:44 | 00:00:00 | |
| BIOWL1-15 | 2026-08-31 06:58:29 | 50.27094 | 9.22355 | 65° | 150km/h | 9558m | -5.8m/s | -43.9°C | 31.7% | 292.7hPa | 2.6V | 02:51:28 | 02:29:38 | 00:00:00 | |
| HSKMA3-T | 2026-08-31 06:58:22 | 50.27012 | 9.22103 | 63° | 135km/h | 9586m | -5.6m/s | -44.2°C | 32.3% | 291.5hPa | 2.5V | 02:52:19 | 02:29:33 | 00:00:00 | |
| BIOWL1-15 | 2026-08-31 06:58:17 | 50.26946 | 9.21865 | 70° | 133km/h | 9615m | -5.8m/s | -44.4°C | 32.4% | 290.2hPa | 2.6V | 02:52:19 | 02:29:28 | 00:00:00 | |
| HSKMA3-T | 2026-08-31 06:58:11 | 50.26875 | 9.21550 | 70° | 151km/h | 9651m | -5.5m/s | -44.6°C | 32.7% | 288.7hPa | 2.6V | 02:52:19 | 02:29:22 | 00:00:00 | |
| BIOWL1-15 | 2026-08-31 06:58:07 | 50.26814 | 9.21326 | 64° | 153km/h | 9673m | -6m/s | -44.8°C | 32.6% | 287.6hPa | 2.6V | 02:52:19 | 02:29:18 | 00:00:00 | |
| HSKMA3-T | 2026-08-31 06:58:01 | 50.26713 | 9.21020 | 64° | 135km/h | 9709m | -5.9m/s | -45.1°C | 31.6% | 286.1hPa | 2.6V | 02:52:19 | 02:29:12 | 00:00:00 | |
| DD1CC8 | 2026-08-31 06:58:01 | 50.26713 | 9.21020 | 63° | 135km/h | 9709m | -5.9m/s | -45.1°C | 25.5% | 286.1hPa | 2.6V | 00:00:00 | 00:00:00 | 00:00:00 | |
| DO3DL | 2026-08-31 06:58:00 | 50.26713 | 9.21020 | 65° | 135km/h | 9709m | -5.9m/s | -45.1°C | 25.5% | 286.1hPa | 2.6V | 00:00:00 | 00:00:00 | 00:00:00 | |
| DM0DOS-11 | 2026-08-31 06:57:59 | 50.26646 | 9.20779 | 69° | 135km/h | 9739m | -6.1m/s | -45.2°C | 28.5% | 284.9hPa | 2.6V | 02:51:57 | 02:29:07 | 00:00:00 | |
| BIOWL1-15 | 2026-08-31 06:57:57 | 50.26658 | 9.20828 | 68° | 133km/h | 9733m | -6.2m/s | -45.2°C | 31.2% | 285.2hPa | 2.6V | 02:52:19 | 02:29:08 | 00:00:00 | |
| HSKMA3-T | 2026-08-31 06:57:51 | 50.26583 | 9.20512 | 68° | 155km/h | 9769m | -5.8m/s | -45.3°C | 31.1% | 283.6hPa | 2.6V | 02:52:19 | 02:29:02 | 00:00:00 | |
| DK5PH-5 | 2026-08-31 06:57:50 | 50.26568 | 9.20455 | 67° | 146km/h | 9775m | -6.1m/s | -45.3°C | 28.4% | 283.3hPa | 2.6V | 00:00:00 | 02:29:01 | 00:00:00 | |
| DM0DOS-11 | 2026-08-31 06:57:49 | 50.26500 | 9.20234 | 62° | 151km/h | 9799m | -6.3m/s | -45.5°C | 27.5% | 282.3hPa | 2.6V | 02:52:07 | 02:28:57 | 00:00:00 | |
| BIOWL1-15 | 2026-08-31 06:57:46 | 50.26500 | 9.20234 | 62° | 151km/h | 9799m | -6.3m/s | -45.6°C | 30.4% | 282.3hPa | 2.6V | 02:52:19 | 02:28:57 | 00:00:00 | |
| DB0UT-9 | 2026-08-31 06:57:46 | 50.26500 | 9.20234 | 63° | 151km/h | 9799m | -6.3m/s | -45.5°C | 24.5% | 282.3hPa | 2.6V | 02:52:00 | 00:00:00 | 00:00:00 | |
| SFWM-10 | 2026-08-31 06:57:45 | 50.26500 | 9.20234 | 63° | 151km/h | 9799m | -6.3m/s | -45.5°C | 24.5% | 282.3hPa | 2.6V | 02:52:00 | 00:00:00 | 00:00:00 | |
| DL1NUX | 2026-08-31 06:57:43 | 50.26374 | 9.19840 | 68° | 135km/h | 9847m | -6m/s | -45.7°C | 25.7% | 280.3hPa | 2.6V | 02:52:15 | 02:28:49 | 00:00:00 | |
| HSKMA3-T | 2026-08-31 06:57:40 | 50.26401 | 9.19938 | 66° | 133km/h | 9835m | -5.9m/s | -45.7°C | 29.2% | 280.8hPa | 2.6V | 02:52:19 | 02:28:51 | 00:00:00 | |
| DM0DOS-11 | 2026-08-31 06:57:39 | 50.26349 | 9.19739 | 69° | 139km/h | 9859m | -6.2m/s | -45.8°C | 25.7% | 279.8hPa | 2.6V | 02:52:17 | 02:28:47 | 00:00:00 | |
| BIOWL1-15 | 2026-08-31 06:57:36 | 50.26349 | 9.19739 | 70° | 139km/h | 9859m | -6.2m/s | -45.8°C | 28.6% | 279.8hPa | 2.6V | 02:52:19 | 02:28:47 | 00:00:00 | |
| DO3MHA-11 | 2026-08-31 06:57:36 | 50.26349 | 9.19739 | 70° | 150km/h | 9859m | -6.1m/s | -45.8°C | 25.7% | 279.8hPa | 2.6V | 02:52:00 | 02:28:47 | 00:00:00 | |
| DJ2DS-15 | 2026-08-31 06:57:35 | 50.26337 | 9.19687 | 70° | 142km/h | 9865m | -6.1m/s | -45.8°C | 25.8% | 279.5hPa | 2.6V | 00:00:00 | 02:28:46 | 00:00:00 | |
| DO8TBO-1 | 2026-08-31 06:57:34 | 50.26325 | 9.19634 | 71° | 146km/h | 9871m | -6.3m/s | -45.8°C | 25.9% | 279.2hPa | 2.6V | 02:52:00 | 02:28:45 | 00:00:00 | |
| DL1NUX | 2026-08-31 06:57:33 | 50.26236 | 9.19300 | 63° | 155km/h | 9907m | -5.8m/s | -46.1°C | 24.8% | 277.8hPa | 2.6V | 02:52:25 | 02:28:39 | 00:00:00 | |
| HSKMA3-T | 2026-08-31 06:57:30 | 50.26270 | 9.19412 | 67° | 157km/h | 9895m | -5.7m/s | -46°C | 28% | 278.2hPa | 2.6V | 02:53:10 | 02:28:41 | 00:00:00 | |
| DM0DOS-11 | 2026-08-31 06:57:29 | 50.26200 | 9.19194 | 61° | 148km/h | 9919m | -5.9m/s | -46.2°C | 23.8% | 277.2hPa | 2.6V | 02:52:27 | 02:28:37 | 00:00:00 | |
| BIOWL1-15 | 2026-08-31 06:57:25 | 50.26183 | 9.19144 | 61° | 144km/h | 9925m | -5.8m/s | -46.3°C | 26.6% | 277hPa | 2.6V | 02:53:10 | 02:28:36 | 00:00:00 | |
| DF2AP-13 | 2026-08-31 06:57:24 | 50.26165 | 9.19094 | 62° | 141km/h | 9931m | -6.0m/s | -46.2°C | 23.3% | 276.8hPa | 2.6V | 02:52:00 | 02:28:35 | 00:00:00 | |
| DL1NUX | 2026-08-31 06:57:23 | 50.26078 | 9.18806 | 68° | 137km/h | 9968m | -6.1m/s | -46.5°C | 22.5% | 275.2hPa | 2.6V | 02:52:35 | 02:28:29 | 00:00:00 | |
| DO3DL | 2026-08-31 06:57:23 | 50.26149 | 9.19046 | 63° | 137km/h | 9937m | -6.3m/s | -46.3°C | 20.5% | 276.5hPa | 2.6V | 02:53:00 | 00:00:00 | 00:00:00 | |
| SONCRA | 2026-08-31 06:57:21 | 50.26118 | 9.18951 | 64° | 133km/h | 9949m | -6.1m/s | -46.3°C | 20.1% | 276.0hPa | 2.6V | 00:00:00 | 00:00:00 | 00:00:00 | |
| DK5PH-5 | 2026-08-31 06:57:20 | 50.26104 | 9.18903 | 66° | 142km/h | 9955m | -6.1m/s | -46.3°C | 22.8% | 275.7hPa | 2.6V | 02:52:00 | 02:28:31 | 00:00:00 | |
| DM0DOS-11 | 2026-08-31 06:57:19 | 50.26053 | 9.18702 | 70° | 144km/h | 9979m | -5.9m/s | -46.5°C | 22.3% | 274.7hPa | 2.6V | 02:52:37 | 02:28:27 | 00:00:00 | |
| HSKMA3-T | 2026-08-31 06:57:19 | 50.26091 | 9.18855 | 67° | 133km/h | 9961m | -6.2m/s | -46.4°C | 25% | 275.4hPa | 2.6V | 02:53:10 | 02:28:30 | 00:00:00 | |
| BIOWL1-15 | 2026-08-31 06:57:15 | 50.26040 | 9.18647 | 69° | 150km/h | 9986m | -6.2m/s | -46.6°C | 24.1% | 274.5hPa | 2.6V | 02:53:10 | 02:28:26 | 00:00:00 | |
| DJ2DS-15 | 2026-08-31 06:57:15 | 50.26040 | 9.18647 | 70° | 137km/h | 9986m | -6.1m/s | -46.5°C | 22.1% | 274.4hPa | 2.6V | 00:00:00 | 02:28:26 | 00:00:00 | |
| DL1NUX | 2026-08-31 06:57:12 | 50.25911 | 9.18211 | 61° | 144km/h | 10036m | -6m/s | -46.8°C | 19.3% | 272.3hPa | 2.6V | 02:52:46 | 02:28:18 | 00:00:00 | |
| DJ2DS-15 | 2026-08-31 06:57:11 | 50.25964 | 9.18368 | 63° | 153km/h | 10017m | -6.5m/s | -46.7°C | 17.5% | 273.1hPa | 2.6V | 00:00:00 | 00:00:00 | 00:00:00 | |
| DM0DOS-11 | 2026-08-31 06:57:09 | 50.25894 | 9.18162 | 61° | 141km/h | 10042m | -6.1m/s | -46.9°C | 19.1% | 272.1hPa | 2.6V | 02:52:47 | 02:28:17 | 00:00:00 | |
| HSKMA3-T | 2026-08-31 06:57:08 | 50.25929 | 9.18262 | 62° | 148km/h | 10030m | -6.2m/s | -46.7°C | 22% | 272.6hPa | 2.6V | 02:53:10 | 02:28:19 | 00:00:00 | |
| BIOWL1-15 | 2026-08-31 06:57:06 | 50.25862 | 9.18067 | 63° | 133km/h | 10054m | -6.4m/s | -46.9°C | 21% | 271.6hPa | 2.6V | 02:53:10 | 02:28:15 | 00:00:00 | |
| DO3MHA-11 | 2026-08-31 06:57:06 | 50.25894 | 9.18162 | 62° | 133km/h | 10042m | -6.0m/s | -46.8°C | 19.1% | 272.0hPa | 2.6V | 02:52:00 | 02:28:17 | 00:00:00 | |
| DF1GD-15 | 2026-08-31 06:57:05 | 50.25894 | 9.18162 | 62° | 141km/h | 10042m | -6.1m/s | -46.9°C | 16.4% | 272.1hPa | 2.6V | 00:00:00 | 00:00:00 | 00:00:00 | |
| DO8TBO-1 | 2026-08-31 06:57:04 | 50.25862 | 9.18067 | 63° | 139km/h | 10054m | -6.3m/s | -46.9°C | 18.6% | 271.6hPa | 2.6V | 00:00:00 | 02:28:15 | 00:00:00 | |
| SFWM-10 | 2026-08-31 06:57:03 | 50.25862 | 9.18067 | 64° | 133km/h | 10054m | -6.4m/s | -46.9°C | 15.9% | 271.6hPa | 2.6V | 02:53:00 | 00:00:00 | 00:00:00 | |
| DL1NUX | 2026-08-31 06:57:02 | 50.25770 | 9.17735 | 70° | 137km/h | 10100m | -6.4m/s | -47.1°C | 18% | 269.8hPa | 2.6V | 02:52:56 | 02:28:08 | 00:00:00 | |
| DL8DAS-14 | 2026-08-31 06:57:01 | 50.25806 | 9.17881 | 67° | 128km/h | 10081m | -6.8m/s | -47.1°C | 15.5% | 270.5hPa | 2.6V | 00:00:00 | 00:00:00 | 00:00:00 | |
| DM0DOS-11 | 2026-08-31 06:56:59 | 50.25758 | 9.17683 | 70° | 142km/h | 10106m | -6.2m/s | -47.2°C | 18% | 269.5hPa | 2.6V | 02:52:57 | 02:28:07 | 00:00:00 | |
| HSKMA3-T | 2026-08-31 06:56:58 | 50.25782 | 9.17785 | 70° | 133km/h | 10093m | -6.3m/s | -47.1°C | 19.8% | 270hPa | 2.6V | 02:53:10 | 02:28:09 | 00:00:00 | |
| BIOWL1-15 | 2026-08-31 06:56:53 | 50.25720 | 9.17519 | 68° | 151km/h | 10125m | -6.5m/s | -47.3°C | 19.7% | 268.7hPa | 2.6V | 02:53:10 | 02:28:04 | 00:00:00 | |
| DL1NUX | 2026-08-31 06:56:52 | 50.25622 | 9.17202 | 60° | 139km/h | 10163m | -6m/s | -47.4°C | 17.6% | 267.1hPa | 2.6V | 02:53:06 | 02:27:58 | 00:00:00 | |
| DK5PH-5 | 2026-08-31 06:56:50 | 50.25673 | 9.17354 | 65° | 137km/h | 10145m | -6.5m/s | -47.4°C | 18.1% | 267.9hPa | 2.5V | 00:00:00 | 02:28:01 | 00:00:00 | |
| DM0DOS-11 | 2026-08-31 06:56:49 | 50.25605 | 9.17154 | 60° | 135km/h | 10169m | -6.5m/s | -47.5°C | 17.4% | 267hPa | 2.5V | 02:53:07 | 02:27:57 | 00:00:00 | |
| HSKMA3-T | 2026-08-31 06:56:48 | 50.25639 | 9.17251 | 62° | 144km/h | 10157m | -6m/s | -47.4°C | 19.5% | 267.4hPa | 2.6V | 02:53:10 | 02:27:59 | 00:00:00 | |
| DL1ZP-14 | 2026-08-31 06:56:48 | 50.25622 | 9.17202 | 60° | 139km/h | 10163m | -6.0m/s | -47.4°C | 14.9% | 267.1hPa | 2.6V | 00:00:00 | 00:00:00 | 00:00:00 | |
| DO3MHA-11 | 2026-08-31 06:56:46 | 50.25605 | 9.17154 | 61° | 131km/h | 10169m | -6.4m/s | -47.4°C | 17.4% | 266.9hPa | 2.6V | 00:00:00 | 02:27:57 | 00:00:00 | |
| DF1GD-15 | 2026-08-31 06:56:44 | 50.25589 | 9.17108 | 62° | 133km/h | 10176m | -6.4m/s | -47.5°C | 14.7% | 266.7hPa | 2.6V | 00:00:00 | 00:00:00 | 00:00:00 | |
| SFWM-10 | 2026-08-31 06:56:43 | 50.25573 | 9.17062 | 63° | 130km/h | 10182m | -6.5m/s | -47.6°C | 14.8% | 266.4hPa | 2.6V | 02:53:00 | 00:00:00 | 00:00:00 | |
| DL1NUX | 2026-08-31 06:56:42 | 50.25485 | 9.16728 | 71° | 141km/h | 10227m | -6.4m/s | -47.6°C | 17.6% | 264.6hPa | 2.6V | 02:53:16 | 02:27:48 | 00:00:00 | |
| BIOWL1-15 | 2026-08-31 06:56:41 | 50.25473 | 9.16674 | 71° | 144km/h | 10233m | -6.4m/s | -47.6°C | 19.4% | 264.4hPa | 2.6V | 02:54:01 | 02:27:47 | 00:00:00 | |
| DO3DL | 2026-08-31 06:56:40 | 50.25531 | 9.16925 | 68° | 128km/h | 10202m | -6.3m/s | -47.7°C | 14.9% | 265.7hPa | 2.6V | 02:54:00 | 00:00:00 | 00:00:00 | |
| DM0DOS-11 | 2026-08-31 06:56:39 | 50.25473 | 9.16674 | 70° | 144km/h | 10233m | -6.4m/s | -47.6°C | 17.6% | 264.4hPa | 2.6V | 02:53:17 | 02:27:47 | 00:00:00 | |
| HSKMA3-T | 2026-08-31 06:56:37 | 50.25485 | 9.16728 | 71° | 141km/h | 10227m | -6.4m/s | -47.6°C | 19.4% | 264.6hPa | 2.6V | 02:54:01 | 02:27:48 | 00:00:00 | |
| SO1NDE-10 | 2026-08-31 06:56:37 | 50.25485 | 9.16727 | 72° | 139km/h | 10227m | -6.4m/s | -47.6°C | 17.6% | 264.6hPa | 2.6V | 02:53:00 | 02:27:48 | 00:00:00 | |
| DO3MHA-11 | 2026-08-31 06:56:36 | 50.25473 | 9.16674 | 71° | 144km/h | 10233m | -6.3m/s | -47.5°C | 17.6% | 264.4hPa | 2.6V | 02:53:00 | 02:27:47 | 00:00:00 | |
| DJ2DS-15 | 2026-08-31 06:56:35 | 50.25460 | 9.16620 | 70° | 139km/h | 10240m | -6.2m/s | -47.6°C | 17.6% | 264.0hPa | 2.6V | 00:00:00 | 02:27:46 | 00:00:00 | |
| DO8TBO-1 | 2026-08-31 06:56:34 | 50.25446 | 9.16566 | 68° | 137km/h | 10246m | -6.2m/s | -47.6°C | 17.6% | 263.8hPa | 2.6V | 00:00:00 | 02:27:45 | 00:00:00 | |
| DC4HF-4 | 2026-08-31 06:56:31 | 50.25381 | 9.16354 | 61° | 144km/h | 10271m | -6.5m/s | -47.8°C | 14.3% | 262.8hPa | 2.6V | 00:00:00 | 00:00:00 | 00:00:00 | |
| DL1NUX | 2026-08-31 06:56:30 | 50.25298 | 9.16122 | 62° | 126km/h | 10303m | -6.7m/s | -48°C | 17.5% | 261.6hPa | 2.6V | 02:53:28 | 02:27:36 | 00:00:00 | |
| DL8DAS-14 | 2026-08-31 06:56:30 | 50.25363 | 9.16305 | 60° | 141km/h | 10277m | -6.2m/s | -47.8°C | 14.4% | 262.6hPa | 2.6V | 00:00:00 | 00:00:00 | 00:00:00 | |
| DM0DOS-11 | 2026-08-31 06:56:29 | 50.25313 | 9.16166 | 61° | 130km/h | 10296m | -6.5m/s | -48°C | 17.4% | 261.8hPa | 2.6V | 02:53:27 | 02:27:37 | 00:00:00 | |
| BIOWL1-15 | 2026-08-31 06:56:29 | 50.25363 | 9.16305 | 61° | 141km/h | 10277m | -6.2m/s | -47.8°C | 19.4% | 262.6hPa | 2.6V | 02:54:01 | 02:27:40 | 00:00:00 | |
| HSKMA3-T | 2026-08-31 06:56:27 | 50.25329 | 9.16211 | 60° | 133km/h | 10290m | -6.3m/s | -47.9°C | 19.6% | 262.1hPa | 2.6V | 02:54:01 | 02:27:38 | 00:00:00 | |
| DO3MHA-11 | 2026-08-31 06:56:26 | 50.25313 | 9.16166 | 62° | 135km/h | 10296m | -6.4m/s | -47.9°C | 17.4% | 261.7hPa | 2.6V | 00:00:00 | 02:27:37 | 00:00:00 | |
| DF2AP-13 | 2026-08-31 06:56:24 | 50.25284 | 9.16077 | 66° | 137km/h | 10310m | -6.5m/s | -48.0°C | 17.5% | 261.3hPa | 2.6V | 00:00:00 | 02:27:35 | 00:00:00 | |
| SFWM-10 | 2026-08-31 06:56:23 | 50.25284 | 9.16077 | 66° | 126km/h | 10310m | -6.5m/s | -48.0°C | 14.7% | 261.3hPa | 2.6V | 02:54:00 | 00:00:00 | 00:00:00 | |
| DL1NUX | 2026-08-31 06:56:20 | 50.25161 | 9.15620 | 62° | 148km/h | 10365m | -6.4m/s | -48.4°C | 18.3% | 259.2hPa | 2.6V | 02:53:38 | 02:27:26 | 00:00:00 | |
| DK5PH-5 | 2026-08-31 06:56:20 | 50.25235 | 9.15884 | 70° | 139km/h | 10334m | -5.9m/s | -48.1°C | 18.0% | 260.3hPa | 2.6V | 00:00:00 | 02:27:31 | 00:00:00 | |
| DM0DOS-11 | 2026-08-31 06:56:19 | 50.25177 | 9.15672 | 64° | 148km/h | 10358m | -6.2m/s | -48.3°C | 18.3% | 259.4hPa | 2.6V | 02:53:37 | 02:27:27 | 00:00:00 | |
| BIOWL1-15 | 2026-08-31 06:56:18 | 50.25208 | 9.15779 | 67° | 146km/h | 10346m | -6.3m/s | -48.2°C | 20.2% | 259.9hPa | 2.6V | 02:54:01 | 02:27:29 | 00:00:00 | |
| HSKMA3-T | 2026-08-31 06:56:16 | 50.25178 | 9.15672 | 64° | 148km/h | 10358m | -6.2m/s | -48.4°C | 20.4% | 259.4hPa | 2.6V | 02:54:01 | 02:27:27 | 00:00:00 | |
| DB0NH | 2026-08-31 06:56:16 | 50.25177 | 9.15672 | 65° | 139km/h | 10359m | -6.2m/s | -48.3°C | 18.3% | 259.3hPa | 2.6V | 02:53:00 | 02:27:27 | 00:00:00 | |
| DB0UT-7 | 2026-08-31 06:56:15 | 50.25161 | 9.15620 | 63° | 139km/h | 10365m | -6.3m/s | -48.4°C | 18.3% | 259.1hPa | 2.6V | 02:53:00 | 02:27:26 | 00:00:00 | |
| DM7RM-13 | 2026-08-31 06:56:14 | 50.25161 | 9.15620 | 64° | 148km/h | 10365m | -6.4m/s | -48.4°C | 15.4% | 259.2hPa | 2.6V | 02:54:00 | 00:00:00 | 00:00:00 | |
| DL4BBY-15 | 2026-08-31 06:56:12 | 50.25107 | 9.15470 | 60° | 141km/h | 10384m | -6.5m/s | -49.1°C | 0% | 0hPa | 2.6V | 00:00:00 | 00:00:00 | 00:00:00 | |
| DL1NUX | 2026-08-31 06:56:10 | 50.24994 | 9.15156 | 64° | 124km/h | 10428m | -6.5m/s | -49°C | 18.9% | 256.6hPa | 2.6V | 02:53:48 | 02:27:16 | 00:00:00 | |
| DM0DOS-11 | 2026-08-31 06:56:08 | 50.25008 | 9.15200 | 63° | 124km/h | 10422m | -6.3m/s | -48.9°C | 18.9% | 256.8hPa | 2.6V | 02:53:47 | 02:27:17 | 00:00:00 | |
| BIOWL1-15 | 2026-08-31 06:56:08 | 50.25038 | 9.15287 | 60° | 128km/h | 10409m | -6.5m/s | -48.8°C | 20.9% | 257.3hPa | 2.6V | 02:54:01 | 02:27:19 | 00:00:00 | |
| HSKMA3-T | 2026-08-31 06:56:05 | 50.24994 | 9.15156 | 65° | 124km/h | 10428m | -6.5m/s | -49°C | 21.1% | 256.6hPa | 2.6V | 02:54:01 | 02:27:16 | 00:00:00 | |
| BIOWL1-15 | 2026-08-31 06:55:59 | 50.24890 | 9.14764 | 66° | 148km/h | 10479m | -6.2m/s | -49.3°C | 21.8% | 254.6hPa | 2.6V | 02:54:01 | 02:27:08 | 00:00:00 | |
| DL8DAS-14 | 2026-08-31 06:55:59 | 50.24904 | 9.14817 | 67° | 144km/h | 10473m | -6.2m/s | -49.2°C | 16.8% | 254.8hPa | 2.6V | 00:00:00 | 00:00:00 | 00:00:00 | |
| DM0DOS-11 | 2026-08-31 06:55:58 | 50.24874 | 9.14711 | 64° | 148km/h | 10485m | -6.3m/s | -49.3°C | 19.9% | 254.4hPa | 2.6V | 02:53:57 | 02:27:07 | 00:00:00 | |
| DD1CC8 | 2026-08-31 06:55:57 | 50.24890 | 9.14764 | 66° | 146km/h | 10479m | -6.2m/s | -49.3°C | 16.8% | 254.6hPa | 2.6V | 00:00:00 | 00:00:00 | 00:00:00 | |
| DO3MHA-11 | 2026-08-31 06:55:56 | 50.24874 | 9.14711 | 65° | 146km/h | 10485m | -6.3m/s | -49.2°C | 19.9% | 254.3hPa | 2.6V | 00:00:00 | 02:27:07 | 00:00:00 | |
| DL1NUX | 2026-08-31 06:55:55 | 50.24767 | 9.14404 | 59° | 146km/h | 10524m | -6.7m/s | -49.5°C | 19.4% | 252.9hPa | 2.6V | 02:54:03 | 02:27:01 | 00:00:00 | |
| HSKMA3-T | 2026-08-31 06:55:54 | 50.24841 | 9.14606 | 62° | 150km/h | 10498m | -6.2m/s | -49.4°C | 22% | 253.9hPa | 2.6V | 02:54:01 | 02:27:05 | 00:00:00 | |
| BIOWL1-15 | 2026-08-31 06:55:50 | 50.24693 | 9.14214 | 58° | 135km/h | 10551m | -6.6m/s | -49.7°C | 22.4% | 251.8hPa | 2.6V | 02:54:52 | 02:26:57 | 00:00:00 | |
| DK5PH-5 | 2026-08-31 06:55:50 | 50.24767 | 9.14404 | 60° | 139km/h | 10524m | -6.7m/s | -49.5°C | 19.4% | 252.8hPa | 2.6V | 02:54:00 | 02:27:01 | 00:00:00 | |
| DM0DOS-11 | 2026-08-31 06:55:48 | 50.24693 | 9.14214 | 57° | 135km/h | 10551m | -6.6m/s | -49.7°C | 20% | 251.8hPa | 2.6V | 02:54:07 | 02:26:57 | 00:00:00 | |
| SONCRA | 2026-08-31 06:55:48 | 50.24730 | 9.14307 | 58° | 141km/h | 10538m | -6.8m/s | -49.6°C | 16.5% | 252.4hPa | 2.6V | 00:00:00 | 00:00:00 | 00:00:00 | |
| DL1ZP-14 | 2026-08-31 06:55:45 | 50.24675 | 9.14169 | 58° | 131km/h | 10558m | -6.6m/s | -49.8°C | 17.0% | 251.6hPa | 2.6V | 00:00:00 | 00:00:00 | 00:00:00 | |
| HSKMA3-T | 2026-08-31 06:55:43 | 50.24641 | 9.14082 | 61° | 126km/h | 10570m | -6.3m/s | -49.9°C | 22.7% | 251.1hPa | 2.6V | 02:54:52 | 02:26:54 | 00:00:00 | |
| BIOWL1-15 | 2026-08-31 06:55:40 | 50.24538 | 9.13746 | 63° | 148km/h | 10613m | -6m/s | -50.2°C | 23.1% | 249.5hPa | 2.6V | 02:54:52 | 02:26:47 | 00:00:00 | |
| DM0DOS-11 | 2026-08-31 06:55:38 | 50.24538 | 9.13746 | 63° | 148km/h | 10613m | -6m/s | -50.2°C | 21.1% | 249.5hPa | 2.6V | 02:54:17 | 02:26:47 | 00:00:00 | |
| DO3DL | 2026-08-31 06:55:37 | 50.24570 | 9.13849 | 66° | 142km/h | 10601m | -5.9m/s | -50.2°C | 17.6% | 249.9hPa | 2.6V | 00:00:00 | 00:00:00 | 00:00:00 | |
| DO3MHA-11 | 2026-08-31 06:55:36 | 50.24538 | 9.13746 | 64° | 148km/h | 10613m | -5.9m/s | -50.1°C | 21.1% | 249.5hPa | 2.6V | 02:54:00 | 02:26:47 | 00:00:00 | |
| DL1NUX | 2026-08-31 06:55:35 | 50.24422 | 9.13442 | 56° | 148km/h | 10651m | -6.3m/s | -50.3°C | 21.3% | 248hPa | 2.6V | 02:54:23 | 02:26:41 | 00:00:00 | |
| HSKMA3-T | 2026-08-31 06:55:32 | 50.24463 | 9.13541 | 58° | 150km/h | 10638m | -6.6m/s | -50.2°C | 23.4% | 248.5hPa | 2.6V | 02:54:52 | 02:26:43 | 00:00:00 | |
| DO3DL | 2026-08-31 06:55:31 | 50.24463 | 9.13540 | 59° | 150km/h | 10638m | -6.6m/s | -50.2°C | 18.0% | 248.5hPa | 2.6V | 00:00:00 | 00:00:00 | 00:00:00 | |
| DH7VM-15 | 2026-08-31 06:55:29 | 50.24422 | 9.13442 | 57° | 148km/h | 10651m | -6.4m/s | -50.3°C | 18.0% | 248.0hPa | 2.6V | 00:00:00 | 00:00:00 | 00:00:00 | |
| SO1NDE-10 | 2026-08-31 06:55:28 | 50.24380 | 9.13348 | 55° | 137km/h | 10664m | -6.0m/s | -50.4°C | 21.4% | 247.5hPa | 2.6V | 00:00:00 | 02:26:39 | 00:00:00 | |
| DO3MHA-11 | 2026-08-31 06:55:26 | 50.24340 | 9.13260 | 55° | 131km/h | 10676m | -6.0m/s | -50.6°C | 21.5% | 247.1hPa | 2.6V | 00:00:00 | 02:26:37 | 00:00:00 | |
| DL1NUX | 2026-08-31 06:55:25 | 50.24237 | 9.13000 | 62° | 130km/h | 10713m | -6.4m/s | -50.9°C | 21.4% | 245.8hPa | 2.6V | 02:54:33 | 02:26:31 | 00:00:00 | |
| BIOWL1-15 | 2026-08-31 06:55:25 | 50.24320 | 9.13217 | 55° | 131km/h | 10682m | -6.2m/s | -50.7°C | 24.1% | 246.9hPa | 2.6V | 02:54:52 | 02:26:36 | 00:00:00 | |
| HSKMA3-T | 2026-08-31 06:55:22 | 50.24268 | 9.13089 | 60° | 128km/h | 10701m | -6.3m/s | -50.8°C | 24.2% | 246.2hPa | 2.6V | 02:54:52 | 02:26:33 | 00:00:00 | |
| BIOWL1-15 | 2026-08-31 06:55:16 | 50.24146 | 9.12703 | 64° | 148km/h | 10751m | -6.5m/s | -51.1°C | 24.9% | 244.3hPa | 2.6V | 02:54:52 | 02:26:25 | 00:00:00 | |
| DO3MHA-11 | 2026-08-31 06:55:16 | 50.24177 | 9.12806 | 65° | 148km/h | 10739m | -6.2m/s | -51.0°C | 22.4% | 244.7hPa | 2.6V | 00:00:00 | 02:26:27 | 00:00:00 | |
| DL1NUX | 2026-08-31 06:55:15 | 50.24075 | 9.12493 | 59° | 151km/h | 10777m | -6.2m/s | -51.2°C | 23.2% | 243.3hPa | 2.6V | 02:54:43 | 02:26:21 | 00:00:00 | |
| HSKMA3-T | 2026-08-31 06:55:11 | 50.24093 | 9.12545 | 61° | 151km/h | 10770m | -6.4m/s | -51.2°C | 25.2% | 243.5hPa | 2.6V | 02:54:52 | 02:26:22 | 00:00:00 | |
| DO3MHA-11 | 2026-08-31 06:55:06 | 50.23995 | 9.12299 | 57° | 131km/h | 10802m | -6.3m/s | -51.4°C | 22.9% | 242.3hPa | 2.6V | 02:54:00 | 02:26:17 | 00:00:00 | |
| DL1NUX | 2026-08-31 06:55:05 | 50.23896 | 9.12033 | 64° | 128km/h | 10840m | -6.4m/s | -51.7°C | 23.1% | 240.9hPa | 2.6V | 02:54:53 | 02:26:11 | 00:00:00 | |
| BIOWL1-15 | 2026-08-31 06:55:05 | 50.23942 | 9.12165 | 59° | 130km/h | 10821m | -6.2m/s | -51.6°C | 25.9% | 241.7hPa | 2.6V | 02:54:52 | 02:26:14 | 00:00:00 | |
| HSKMA3-T | 2026-08-31 06:55:01 | 50.23910 | 9.12077 | 63° | 128km/h | 10834m | -6.4m/s | -51.7°C | 25.8% | 241.1hPa | 2.6V | 02:54:52 | 02:26:12 | 00:00:00 | |
| SO1NDE-10 | 2026-08-31 06:54:58 | 50.23868 | 9.11940 | 67° | 141km/h | 10853m | -6.7m/s | -51.7°C | 23.2% | 240.4hPa | 2.7V | 02:54:00 | 02:26:09 | 00:00:00 | |
| DO3MHA-11 | 2026-08-31 06:54:56 | 50.23842 | 9.11843 | 69° | 146km/h | 10867m | -6.4m/s | -51.8°C | 23.8% | 239.9hPa | 2.6V | 00:00:00 | 02:26:07 | 00:00:00 | |
| DL1NUX | 2026-08-31 06:54:55 | 50.23752 | 9.11525 | 61° | 151km/h | 10904m | -6.3m/s | -52.1°C | 24.5% | 238.6hPa | 2.6V | 02:55:03 | 02:26:01 | 00:00:00 | |
| BIOWL1-15 | 2026-08-31 06:54:52 | 50.23786 | 9.11632 | 65° | 151km/h | 10892m | -6.2m/s | -52°C | 26.7% | 239.1hPa | 2.6V | 02:55:43 | 02:26:03 | 00:00:00 | |
| HSKMA3-T | 2026-08-31 06:54:51 | 50.23770 | 9.11578 | 64° | 151km/h | 10898m | -6.4m/s | -52.1°C | 26.6% | 238.9hPa | 2.6V | 02:55:43 | 02:26:02 | 00:00:00 | |
| DK5PH-5 | 2026-08-31 06:54:50 | 50.23752 | 9.11525 | 62° | 139km/h | 10905m | -6.3m/s | -52.1°C | 24.5% | 238.5hPa | 2.6V | 00:00:00 | 02:26:01 | 00:00:00 | |
| NBG1-10 | 2026-08-31 06:54:49 | 50.23734 | 9.11473 | 61° | 137km/h | 10911m | -6.5m/s | -52.1°C | 24.3% | 238.2hPa | 2.6V | 00:00:00 | 02:26:00 | 00:00:00 | |
| DM0DOS-11 | 2026-08-31 06:54:47 | 50.23679 | 9.11327 | 58° | 137km/h | 10930m | -6.2m/s | -52.4°C | 24.1% | 237.6hPa | 2.6V | 02:55:07 | 02:25:57 | 00:00:00 | |
| DO3MHA-11 | 2026-08-31 06:54:46 | 50.23678 | 9.11327 | 59° | 130km/h | 10930m | -6.1m/s | -52.3°C | 24.1% | 237.5hPa | 2.7V | 00:00:00 | 02:25:57 | 00:00:00 | |
| DL1NUX | 2026-08-31 06:54:45 | 50.23586 | 9.11060 | 65° | 126km/h | 10968m | -6.4m/s | -52.6°C | 24.1% | 236.2hPa | 2.7V | 02:55:13 | 02:25:51 | 00:00:00 | |
| BIOWL1-15 | 2026-08-31 06:54:41 | 50.23600 | 9.11105 | 65° | 126km/h | 10962m | -6.3m/s | -52.6°C | 26.6% | 236.5hPa | 2.6V | 02:55:43 | 02:25:52 | 00:00:00 | |
| HSKMA3-T | 2026-08-31 06:54:40 | 50.23586 | 9.11060 | 66° | 126km/h | 10968m | -6.4m/s | -52.6°C | 26.5% | 236.2hPa | 2.7V | 02:55:43 | 02:25:51 | 00:00:00 | |
| DM0DOS-11 | 2026-08-31 06:54:38 | 50.23536 | 9.10868 | 68° | 139km/h | 10994m | -6.4m/s | -52.8°C | 24.9% | 235.2hPa | 2.6V | 02:55:17 | 02:25:47 | 00:00:00 | |
| DO3MHA-11 | 2026-08-31 06:54:36 | 50.23536 | 9.10868 | 69° | 148km/h | 10994m | -6.4m/s | -52.7°C | 24.9% | 235.2hPa | 2.6V | 02:55:00 | 02:25:47 | 00:00:00 | |
| DL1NUX | 2026-08-31 06:54:35 | 50.23441 | 9.10550 | 61° | 151km/h | 11032m | -6.4m/s | -53°C | 25.4% | 234hPa | 2.6V | 02:55:23 | 02:25:41 | 00:00:00 | |
| HSKMA3-T | 2026-08-31 06:54:30 | 50.23441 | 9.10550 | 62° | 151km/h | 11032m | -6.4m/s | -53.1°C | 26.7% | 234hPa | 2.6V | 02:55:43 | 02:25:41 | 00:00:00 | |
| BIOWL1-15 | 2026-08-31 06:54:30 | 50.23422 | 9.10498 | 61° | 151km/h | 11038m | -6.4m/s | -53.1°C | 26.7% | 233.7hPa | 2.6V | 02:55:43 | 02:25:40 | 00:00:00 | |
| DM0DOS-11 | 2026-08-31 06:54:27 | 50.23366 | 9.10347 | 59° | 144km/h | 11058m | -6.7m/s | -53.1°C | 24.6% | 233hPa | 2.6V | 02:55:27 | 02:25:37 | 00:00:00 | |
| DL3AQ-11 | 2026-08-31 06:54:27 | 50.23366 | 9.10347 | 59° | 144km/h | 11058m | -6.7m/s | -53.1°C | 20.7% | 233.0hPa | 2.6V | 00:00:00 | 00:00:00 | 00:00:00 | |
| DO3MHA-11 | 2026-08-31 06:54:26 | 50.23366 | 9.10347 | 60° | 133km/h | 11058m | -6.7m/s | -53.0°C | 24.6% | 232.9hPa | 2.6V | 00:00:00 | 02:25:37 | 00:00:00 | |
| DL8DAS-14 | 2026-08-31 06:54:25 | 50.23347 | 9.10299 | 58° | 141km/h | 11064m | -6.1m/s | -53.1°C | 20.5% | 232.8hPa | 2.6V | 00:00:00 | 00:00:00 | 00:00:00 | |
| DL1NUX | 2026-08-31 06:54:24 | 50.23245 | 9.10029 | 61° | 126km/h | 11102m | -6.4m/s | -53.2°C | 23.4% | 231.4hPa | 2.6V | 02:55:34 | 02:25:30 | 00:00:00 | |
| HSKMA3-T | 2026-08-31 06:54:20 | 50.23261 | 9.10073 | 61° | 128km/h | 11095m | -6.6m/s | -53.2°C | 25.4% | 231.7hPa | 2.6V | 02:55:43 | 02:25:31 | 00:00:00 | |
| DK5PH-5 | 2026-08-31 06:54:20 | 50.23261 | 9.10073 | 61° | 135km/h | 11095m | -6.5m/s | -53.1°C | 23.5% | 231.6hPa | 2.6V | 02:55:00 | 02:25:31 | 00:00:00 | |
| SFWM-10 | 2026-08-31 06:54:19 | 50.23261 | 9.10073 | 62° | 128km/h | 11095m | -6.6m/s | -53.2°C | 19.7% | 231.7hPa | 2.6V | 02:55:00 | 00:00:00 | 00:00:00 | |
| DO3DL | 2026-08-31 06:54:18 | 50.23245 | 9.10029 | 63° | 128km/h | 11102m | -6.4m/s | -53.2°C | 19.5% | 231.4hPa | 2.6V | 00:00:00 | 00:00:00 | 00:00:00 | |
| DM0DOS-11 | 2026-08-31 06:54:17 | 50.23202 | 9.09895 | 64° | 128km/h | 11122m | -6.7m/s | -53.1°C | 23.3% | 230.6hPa | 2.6V | 02:55:37 | 02:25:27 | 00:00:00 | |
| DB0NH | 2026-08-31 06:54:16 | 50.23202 | 9.09895 | 65° | 126km/h | 11122m | -6.6m/s | -53.1°C | 23.3% | 230.6hPa | 2.6V | 00:00:00 | 02:25:27 | 00:00:00 | |
| SONCRA | 2026-08-31 06:54:15 | 50.23176 | 9.09803 | 67° | 130km/h | 11134m | -6.2m/s | -53.1°C | 19.7% | 230.2hPa | 2.6V | 00:00:00 | 00:00:00 | 00:00:00 | |
| DL1NUX | 2026-08-31 06:54:14 | 50.23109 | 9.09548 | 65° | 148km/h | 11165m | -6m/s | -53°C | 22.7% | 229.1hPa | 2.6V | 02:55:44 | 02:25:20 | 00:00:00 | |
| BIOWL1-15 | 2026-08-31 06:54:10 | 50.23124 | 9.09601 | 67° | 146km/h | 11159m | -6.1m/s | -53°C | 23.9% | 229.3hPa | 2.6V | 02:55:43 | 02:25:21 | 00:00:00 | |
| HSKMA3-T | 2026-08-31 06:54:09 | 50.23109 | 9.09548 | 66° | 148km/h | 11165m | -6m/s | -53°C | 23.8% | 229.1hPa | 2.6V | 02:56:34 | 02:25:20 | 00:00:00 | |
| DH7VM-15 | 2026-08-31 06:54:07 | 50.23092 | 9.09495 | 65° | 150km/h | 11172m | -6.1m/s | -53.1°C | 18.6% | 228.9hPa | 2.6V | 00:00:00 | 00:00:00 | 00:00:00 | |
| DO3MHA-11 | 2026-08-31 06:54:06 | 50.23058 | 9.09391 | 62° | 135km/h | 11184m | -6.4m/s | -53.1°C | 21.8% | 228.4hPa | 2.6V | 02:55:00 | 02:25:17 | 00:00:00 | |
| DL1NUX | 2026-08-31 06:54:04 | 50.22931 | 9.09066 | 58° | 126km/h | 11229m | -6.4m/s | -53.1°C | 20.6% | 226.8hPa | 2.6V | 02:55:54 | 02:25:10 | 00:00:00 | |
| BIOWL1-15 | 2026-08-31 06:53:59 | 50.22931 | 9.09066 | 58° | 126km/h | 11229m | -6.4m/s | -53.2°C | 21.5% | 226.8hPa | 2.6V | 02:56:34 | 02:25:10 | 00:00:00 | |
| HSKMA3-T | 2026-08-31 06:53:58 | 50.22915 | 9.09024 | 60° | 124km/h | 11236m | -6.2m/s | -53.1°C | 21.3% | 226.6hPa | 2.6V | 02:56:34 | 02:25:09 | 00:00:00 | |
| SO1NDE-10 | 2026-08-31 06:53:58 | 50.22914 | 9.09024 | 60° | 133km/h | 11236m | -6.2m/s | -53.1°C | 20.4% | 226.6hPa | 2.6V | 00:00:00 | 02:25:09 | 00:00:00 | |
| DM0DOS-11 | 2026-08-31 06:53:57 | 50.22858 | 9.08852 | 66° | 128km/h | 11260m | -5.8m/s | -53.3°C | 19.8% | 225.8hPa | 2.6V | 02:55:59 | 02:25:05 | 00:00:00 | |
| DO3MHA-11 | 2026-08-31 06:53:56 | 50.22885 | 9.08940 | 64° | 137km/h | 11248m | -6.1m/s | -53.2°C | 20.0% | 226.1hPa | 2.6V | 00:00:00 | 02:25:07 | 00:00:00 | |
| DJ2DS-15 | 2026-08-31 06:53:55 | 50.22871 | 9.08896 | 65° | 135km/h | 11254m | -6.0m/s | -53.2°C | 19.7% | 225.9hPa | 2.6V | 00:00:00 | 02:25:06 | 00:00:00 | |
| DL1NUX | 2026-08-31 06:53:54 | 50.22783 | 9.08603 | 61° | 146km/h | 11291m | -6.5m/s | -53.2°C | 18.2% | 224.7hPa | 2.6V | 02:56:04 | 02:25:00 | 00:00:00 | |
| BIOWL1-15 | 2026-08-31 06:53:51 | 50.22783 | 9.08603 | 62° | 146km/h | 11291m | -6.5m/s | -53.2°C | 18.9% | 224.7hPa | 2.6V | 02:56:34 | 02:25:00 | 00:00:00 | |
| HSKMA3-T | 2026-08-31 06:53:48 | 50.22766 | 9.08553 | 60° | 146km/h | 11297m | -6.5m/s | -53.2°C | 18.6% | 224.5hPa | 2.6V | 02:56:34 | 02:24:59 | 00:00:00 | |
| DM0DOS-11 | 2026-08-31 06:53:47 | 50.22688 | 9.08361 | 55° | 141km/h | 11323m | -6.4m/s | -53°C | 17% | 223.6hPa | 2.7V | 02:56:09 | 02:24:55 | 00:00:00 | |
| DO3DL | 2026-08-31 06:53:46 | 50.22747 | 9.08503 | 60° | 146km/h | 11304m | -6.5m/s | -53.1°C | 14.3% | 224.2hPa | 2.7V | 00:00:00 | 00:00:00 | 00:00:00 | |
| DL1NUX | 2026-08-31 06:53:44 | 50.22592 | 9.08149 | 56° | 122km/h | 11355m | -6.1m/s | -52.6°C | 15.2% | 222.4hPa | 2.7V | 02:56:14 | 02:24:50 | 00:00:00 | |
| DL1XH-west | 2026-08-31 06:53:43 | 50.22668 | 9.08316 | 55° | 137km/h | 11330m | -6.6m/s | -52.9°C | 17.1% | 223.3hPa | 2.6V | 02:56:34 | 02:24:54 | 00:00:00 | |
| HSKMA3-T | 2026-08-31 06:53:38 | 50.22575 | 9.08108 | 58° | 122km/h | 11361m | -6.3m/s | -52.7°C | 15.8% | 222.2hPa | 2.6V | 02:56:34 | 02:24:49 | 00:00:00 | |
| DM0DOS-11 | 2026-08-31 06:53:37 | 50.22514 | 9.07938 | 63° | 128km/h | 11387m | -6.8m/s | -52.7°C | 14.7% | 221.3hPa | 2.6V | 02:56:19 | 02:24:45 | 00:00:00 | |
| DO3MHA-11 | 2026-08-31 06:53:36 | 50.22543 | 9.08026 | 62° | 137km/h | 11374m | -6.5m/s | -52.6°C | 14.8% | 221.8hPa | 2.6V | 02:56:00 | 02:24:47 | 00:00:00 | |
| DL1NUX | 2026-08-31 06:53:34 | 50.22431 | 9.07697 | 58° | 148km/h | 11419m | -5.9m/s | -52.9°C | 14.6% | 220.2hPa | 2.6V | 02:56:24 | 02:24:40 | 00:00:00 | |
| DL1XH-west | 2026-08-31 06:53:33 | 50.22499 | 9.07893 | 63° | 133km/h | 11394m | -6.6m/s | -52.8°C | 14.9% | 221.2hPa | 2.6V | 02:56:34 | 02:24:44 | 00:00:00 | |
| DB0NH | 2026-08-31 06:53:32 | 50.22484 | 9.07845 | 63° | 146km/h | 11400m | -6.3m/s | -52.7°C | 15.0% | 220.8hPa | 2.6V | 00:00:00 | 02:24:43 | 00:00:00 | |
| DL0LBS | 2026-08-31 06:53:31 | 50.22484 | 9.07845 | 64° | 137km/h | 11400m | -6.4m/s | -52.8°C | 11.7% | 220.9hPa | 2.6V | 02:56:00 | 00:00:00 | 00:00:00 | |
| DM7RM-13 | 2026-08-31 06:53:30 | 50.22467 | 9.07796 | 63° | 142km/h | 11407m | -6.4m/s | -52.8°C | 11.7% | 220.7hPa | 2.6V | 02:56:00 | 00:00:00 | 00:00:00 | |
| DL1XH1-15 | 2026-08-31 06:53:29 | 50.22411 | 9.07648 | 56° | 148km/h | 11425m | -6.3m/s | -53°C | 14.4% | 220hPa | 2.6V | 02:56:25 | 02:24:39 | 00:00:00 | |
| HSKMA3-T | 2026-08-31 06:53:28 | 50.22411 | 9.07648 | 56° | 148km/h | 11425m | -6.3m/s | -53°C | 14.1% | 220hPa | 2.6V | 02:56:34 | 02:24:39 | 00:00:00 | |
| DJ2DS-15 | 2026-08-31 06:53:28 | 50.22411 | 9.07648 | 57° | 144km/h | 11425m | -6.3m/s | -53.0°C | 14.4% | 220.0hPa | 2.6V | 00:00:00 | 02:24:39 | 00:00:00 | |
| DM0DOS-11 | 2026-08-31 06:53:27 | 50.22329 | 9.07466 | 54° | 131km/h | 11451m | -6m/s | -53.1°C | 13.3% | 219.1hPa | 2.6V | 02:56:29 | 02:24:35 | 00:00:00 | |
| BIOWL1-15 | 2026-08-31 06:53:27 | 50.22390 | 9.07600 | 55° | 144km/h | 11432m | -6.7m/s | -53.1°C | 13.7% | 219.8hPa | 2.6V | 02:56:34 | 02:24:38 | 00:00:00 | |
| DO3MHA-11 | 2026-08-31 06:53:26 | 50.22369 | 9.07554 | 55° | 131km/h | 11439m | -6.7m/s | -53.1°C | 13.9% | 219.5hPa | 2.7V | 00:00:00 | 02:24:37 | 00:00:00 | |
| DL1NUX | 2026-08-31 06:53:24 | 50.22248 | 9.07251 | 63° | 128km/h | 11482m | -6.8m/s | -53°C | 11.7% | 218.2hPa | 2.7V | 02:56:34 | 02:24:30 | 00:00:00 | |
| DF2AP-13 | 2026-08-31 06:53:24 | 50.22329 | 9.07466 | 55° | 139km/h | 11452m | -6.0m/s | -53.1°C | 13.3% | 219.1hPa | 2.6V | 00:00:00 | 02:24:35 | 00:00:00 | |
| DL1XH1-15 | 2026-08-31 06:53:23 | 50.22234 | 9.07205 | 63° | 130km/h | 11489m | -6.8m/s | -52.9°C | 11.4% | 217.8hPa | 2.6V | 02:56:35 | 02:24:29 | 00:00:00 | |
| DL1XH-west | 2026-08-31 06:53:21 | 50.22277 | 9.07339 | 61° | 124km/h | 11469m | -6m/s | -53.1°C | 11.7% | 218.6hPa | 2.6V | 02:56:34 | 02:24:32 | 00:00:00 | |
| BIOWL1-15 | 2026-08-31 06:53:17 | 50.22219 | 9.07158 | 65° | 133km/h | 11495m | -6.4m/s | -52.7°C | 10.2% | 217.7hPa | 2.6V | 02:57:25 | 02:24:28 | 00:00:00 | |
| DO3MHA-11 | 2026-08-31 06:53:16 | 50.22205 | 9.07110 | 65° | 146km/h | 11502m | -6.2m/s | -52.5°C | 10.9% | 217.3hPa | 2.6V | 00:00:00 | 02:24:27 | 00:00:00 | |
| DL1NUX | 2026-08-31 06:53:14 | 50.22097 | 9.06747 | 64° | 151km/h | 11548m | -6.8m/s | -51.7°C | 9.4% | 215.8hPa | 2.6V | 02:56:44 | 02:24:20 | 00:00:00 | |
| DL1XH-west | 2026-08-31 06:53:10 | 50.22113 | 9.06801 | 65° | 150km/h | 11542m | -6.8m/s | -51.8°C | 8.3% | 216.1hPa | 2.6V | 02:57:25 | 02:24:21 | 00:00:00 | |
| NBG1-10 | 2026-08-31 06:53:10 | 50.22113 | 9.06801 | 66° | 142km/h | 11542m | -6.7m/s | -51.7°C | 9.6% | 216.0hPa | 2.6V | 00:00:00 | 02:24:21 | 00:00:00 | |
| DB0UT-7 | 2026-08-31 06:53:09 | 50.22097 | 9.06747 | 65° | 142km/h | 11549m | -6.8m/s | -51.6°C | 9.4% | 215.8hPa | 2.6V | 02:56:00 | 02:24:20 | 00:00:00 | |
| DJ2DS-15 | 2026-08-31 06:53:08 | 50.22080 | 9.06693 | 64° | 141km/h | 11555m | -6.7m/s | -51.6°C | 9.3% | 215.6hPa | 2.6V | 02:56:00 | 02:24:19 | 00:00:00 | |
| DM0DOS-11 | 2026-08-31 06:53:07 | 50.22005 | 9.06484 | 58° | 148km/h | 11581m | -6.3m/s | -51.2°C | 8% | 214.7hPa | 2.6V | 02:56:49 | 02:24:15 | 00:00:00 | |
| BIOWL1-15 | 2026-08-31 06:53:06 | 50.22043 | 9.06586 | 61° | 151km/h | 11569m | -6.8m/s | -51.5°C | 7.5% | 215.2hPa | 2.7V | 02:57:25 | 02:24:17 | 00:00:00 | |
| DL1XH-west | 2026-08-31 06:52:59 | 50.21912 | 9.06254 | 60° | 130km/h | 11614m | -6.7m/s | -51.3°C | 6.1% | 213.7hPa | 2.6V | 02:57:25 | 02:24:10 | 00:00:00 | |
| BIOWL1-15 | 2026-08-31 06:52:58 | 50.21867 | 9.06119 | 65° | 130km/h | 11634m | -6.5m/s | -51.1°C | 5.5% | 213hPa | 2.7V | 02:57:25 | 02:24:07 | 00:00:00 | |
| SO1NDE-10 | 2026-08-31 06:52:58 | 50.21897 | 9.06210 | 62° | 137km/h | 11621m | -6.7m/s | -51.2°C | 7.4% | 213.4hPa | 2.6V | 00:00:00 | 02:24:09 | 00:00:00 | |
| DM0DOS-11 | 2026-08-31 06:52:57 | 50.21841 | 9.06022 | 67° | 137km/h | 11647m | -6.3m/s | -50.9°C | 6.8% | 212.7hPa | 2.6V | 02:56:59 | 02:24:05 | 00:00:00 | |
| HSKMA3-T | 2026-08-31 06:52:55 | 50.21854 | 9.06071 | 67° | 133km/h | 11640m | -6.3m/s | -50.9°C | 5.3% | 212.8hPa | 2.7V | 02:57:25 | 02:24:06 | 00:00:00 | |
| DC4HF-4 | 2026-08-31 06:52:54 | 50.21841 | 9.06022 | 67° | 137km/h | 11647m | -6.3m/s | -50.9°C | 4.4% | 212.7hPa | 2.6V | 00:00:00 | 00:00:00 | 00:00:00 | |
| DL8DAS-14 | 2026-08-31 06:52:52 | 50.21814 | 9.05919 | 67° | 146km/h | 11660m | -6.2m/s | -50.7°C | 4.3% | 212.2hPa | 2.6V | 00:00:00 | 00:00:00 | 00:00:00 | |
| DD1CC8 | 2026-08-31 06:52:51 | 50.21799 | 9.05865 | 66° | 148km/h | 11666m | -6.8m/s | -50.6°C | 4.2% | 212.0hPa | 2.6V | 00:00:00 | 00:00:00 | 00:00:00 | |
| DK5PH-5 | 2026-08-31 06:52:50 | 50.21783 | 9.05811 | 66° | 141km/h | 11673m | -6.3m/s | -50.5°C | 6.6% | 211.8hPa | 2.6V | 02:57:00 | 02:24:01 | 00:00:00 | |
| DB0UT-9 | 2026-08-31 06:52:49 | 50.21767 | 9.05758 | 65° | 151km/h | 11679m | -6.8m/s | -50.6°C | 4.1% | 211.6hPa | 2.6V | 02:57:00 | 00:00:00 | 00:00:00 | |
| DJ2DS-15 | 2026-08-31 06:52:48 | 50.21750 | 9.05704 | 63° | 137km/h | 11686m | -6.4m/s | -50.6°C | 6.4% | 211.3hPa | 2.6V | 00:00:00 | 02:23:59 | 00:00:00 | |
| DM0DOS-11 | 2026-08-31 06:52:47 | 50.21675 | 9.05502 | 58° | 142km/h | 11712m | -6.6m/s | -50.8°C | 6.2% | 210.5hPa | 2.6V | 02:57:09 | 02:23:55 | 00:00:00 | |
| BIOWL1-15 | 2026-08-31 06:52:45 | 50.21694 | 9.05551 | 59° | 146km/h | 11706m | -6.4m/s | -50.7°C | 4.4% | 210.7hPa | 2.6V | 02:57:25 | 02:23:56 | 00:00:00 | |
| HSKMA3-T | 2026-08-31 06:52:44 | 50.21675 | 9.05502 | 58° | 142km/h | 11712m | -6.6m/s | -50.8°C | 4.3% | 210.5hPa | 2.6V | 02:57:25 | 02:23:55 | 00:00:00 | |
| BIOWL1-15 | 2026-08-31 06:52:39 | 50.21520 | 9.05109 | 64° | 122km/h | 11773m | -6.6m/s | -50.5°C | 3.4% | 208.5hPa | 2.6V | 02:57:25 | 02:23:46 | 00:00:00 | |
| DB0UT-7 | 2026-08-31 06:52:39 | 50.21582 | 9.05278 | 58° | 131km/h | 11745m | -6.7m/s | -50.6°C | 5.8% | 209.3hPa | 2.6V | 00:00:00 | 00:00:00 | 00:00:00 | |
| DM0DOS-11 | 2026-08-31 06:52:38 | 50.21507 | 9.05065 | 65° | 126km/h | 11779m | -6.6m/s | -50.5°C | 5.4% | 208.3hPa | 2.6V | 02:57:19 | 02:23:45 | 00:00:00 | |
| NBG1-10 | 2026-08-31 06:52:37 | 50.21549 | 9.05194 | 61° | 137km/h | 11759m | -6.9m/s | -50.5°C | 5.7% | 209.0hPa | 2.7V | 00:00:00 | 02:23:48 | 00:00:00 | |
| DO3MHA-11 | 2026-08-31 06:52:36 | 50.21534 | 9.05152 | 63° | 135km/h | 11766m | -6.5m/s | -50.5°C | 5.6% | 208.7hPa | 2.7V | 02:57:00 | 02:23:47 | 00:00:00 | |
| DL1NUX | 2026-08-31 06:52:34 | 50.21439 | 9.04818 | 65° | 146km/h | 11812m | -6.8m/s | -50.2°C | 5.2% | 207.3hPa | 2.6V | 02:57:24 | 02:23:40 | 00:00:00 | |
| DL1XH-west | 2026-08-31 06:52:34 | 50.21507 | 9.05065 | 66° | 126km/h | 11779m | -6.6m/s | -50.5°C | 3.4% | 208.4hPa | 2.6V | 02:57:25 | 02:23:45 | 00:00:00 | |
| HSKMA3-T | 2026-08-31 06:52:33 | 50.21494 | 9.05019 | 67° | 130km/h | 11786m | -6.5m/s | -50.4°C | 3.3% | 208.2hPa | 2.6V | 02:57:25 | 02:23:44 | 00:00:00 | |
| DO3DL | 2026-08-31 06:52:32 | 50.21494 | 9.05019 | 68° | 130km/h | 11786m | -6.5m/s | -50.4°C | 3.1% | 208.1hPa | 2.7V | 02:57:00 | 00:00:00 | 00:00:00 | |
| DM7RM-13 | 2026-08-31 06:52:29 | 50.21454 | 9.04870 | 68° | 142km/h | 11806m | -6.8m/s | -50.2°C | 3.1% | 207.5hPa | 2.7V | 02:57:00 | 00:00:00 | 00:00:00 | |
| DJ2DS-15 | 2026-08-31 06:52:28 | 50.21424 | 9.04765 | 65° | 135km/h | 11819m | -6.8m/s | -50.2°C | 5.3% | 207.0hPa | 2.7V | 00:00:00 | 02:23:39 | 00:00:00 | |
| DM0DOS-11 | 2026-08-31 06:52:27 | 50.21353 | 9.04556 | 59° | 151km/h | 11848m | -6.9m/s | -50°C | 5.1% | 206.2hPa | 2.7V | 02:57:29 | 02:23:35 | 00:00:00 | |
| DO3MHA-11 | 2026-08-31 06:52:26 | 50.21390 | 9.04660 | 63° | 141km/h | 11833m | -7.3m/s | -50.0°C | 5.2% | 206.5hPa | 2.6V | 00:00:00 | 02:23:37 | 00:00:00 | |
| DO3DL | 2026-08-31 06:52:25 | 50.21390 | 9.04660 | 63° | 150km/h | 11833m | -7.3m/s | -50.0°C | 2.9% | 206.6hPa | 2.6V | 00:00:00 | 00:00:00 | 00:00:00 | |
| DL1NUX | 2026-08-31 06:52:24 | 50.21257 | 9.04321 | 57° | 130km/h | 11880m | -6.4m/s | 0°C | 0% | 0hPa | 2.6V | 02:57:34 | 02:23:30 | 00:00:00 | |
| BIOWL1-15 | 2026-08-31 06:52:24 | 50.21353 | 9.04556 | 60° | 151km/h | 11848m | -6.9m/s | -50°C | 2.8% | 206.2hPa | 2.7V | 02:58:16 | 02:23:35 | 00:00:00 | |
| DL1XH-west | 2026-08-31 06:52:24 | 50.21334 | 9.04506 | 58° | 148km/h | 11854m | -7m/s | -50°C | 2.7% | 205.9hPa | 2.6V | 02:58:16 | 02:23:34 | 00:00:00 | |
| HSKMA3-T | 2026-08-31 06:52:22 | 50.21314 | 9.04457 | 57° | 144km/h | 11861m | -6.6m/s | -49.9°C | 2.5% | 205.7hPa | 2.6V | 02:58:16 | 02:23:33 | 00:00:00 | |
| DL8DAS-14 | 2026-08-31 06:52:21 | 50.21294 | 9.04410 | 56° | 139km/h | 11868m | -6.4m/s | -49.9°C | 2.6% | 205.5hPa | 2.6V | 00:00:00 | 00:00:00 | 00:00:00 | |
| DK5PH-5 | 2026-08-31 06:52:20 | 50.21275 | 9.04365 | 57° | 131km/h | 11874m | -6.4m/s | -49.8°C | 4.7% | 205.3hPa | 2.6V | 00:00:00 | 02:23:31 | 00:00:00 | |
| DO3DL | 2026-08-31 06:52:19 | 50.21275 | 9.04365 | 58° | 135km/h | 11874m | -6.5m/s | -49.9°C | 2.6% | 205.3hPa | 2.6V | 00:00:00 | 00:00:00 | 00:00:00 | |
| DC4HF-4 | 2026-08-31 06:52:18 | 50.21240 | 9.04278 | 59° | 126km/h | 11887m | -6.5m/s | -49.9°C | 2.5% | 204.9hPa | 2.6V | 00:00:00 | 00:00:00 | 00:00:00 | |
| DM0DOS-11 | 2026-08-31 06:52:17 | 50.21181 | 9.04100 | 65° | 128km/h | 11914m | -7m/s | -49.7°C | 4.4% | 204.1hPa | 2.6V | 02:57:39 | 02:23:25 | 00:00:00 | |
| DO3MHA-11 | 2026-08-31 06:52:16 | 50.21209 | 9.04190 | 64° | 133km/h | 11900m | -6.6m/s | -49.7°C | 4.4% | 204.5hPa | 2.6V | 00:00:00 | 02:23:27 | 00:00:00 | |
| DL8OAI-8 | 2026-08-31 06:52:15 | 50.21195 | 9.04145 | 65° | 126km/h | 11907m | -7.0m/s | -49.7°C | 2.4% | 204.3hPa | 2.6V | 02:58:00 | 00:00:00 | 00:00:00 | |
| DL1NUX | 2026-08-31 06:52:14 | 50.21117 | 9.03860 | 68° | 141km/h | 11950m | -6.8m/s | -49.4°C | 4.4% | 202.9hPa | 2.6V | 02:57:44 | 02:23:20 | 00:00:00 | |
| BIOWL1-15 | 2026-08-31 06:52:13 | 50.21168 | 9.04054 | 66° | 128km/h | 11921m | -7.3m/s | -49.6°C | 2% | 203.9hPa | 2.6V | 02:58:16 | 02:23:24 | 00:00:00 | |
| DL1XH-west | 2026-08-31 06:52:12 | 50.21155 | 9.04008 | 67° | 130km/h | 11929m | -7.2m/s | -49.5°C | 2% | 203.7hPa | 2.6V | 02:58:16 | 02:23:23 | 00:00:00 | |
| HSKMA3-T | 2026-08-31 06:52:11 | 50.21142 | 9.03960 | 68° | 131km/h | 11936m | -7.2m/s | -49.4°C | 1.9% | 203.4hPa | 2.7V | 02:58:16 | 02:23:22 | 00:00:00 | |
| DL1XH1-15 | 2026-08-31 06:52:08 | 50.21104 | 9.03808 | 68° | 144km/h | 11957m | -6.7m/s | -49.4°C | 4.4% | 202.7hPa | 2.6V | 02:57:45 | 02:23:19 | 00:00:00 | |
| DJ2DS-15 | 2026-08-31 06:52:08 | 50.21104 | 9.03808 | 69° | 135km/h | 11957m | -6.6m/s | -49.4°C | 4.4% | 202.7hPa | 2.6V | 02:57:00 | 02:23:19 | 00:00:00 | |
| DM0DOS-11 | 2026-08-31 06:52:07 | 50.21041 | 9.03595 | 61° | 150km/h | 11983m | -6.7m/s | -49.4°C | 4.2% | 201.9hPa | 2.6V | 02:57:49 | 02:23:15 | 00:00:00 | |
| DL9PN | 2026-08-31 06:52:06 | 50.21058 | 9.03648 | 63° | 150km/h | 11977m | -6.7m/s | -49.4°C | 2.2% | 202.2hPa | 2.7V | 00:00:00 | 00:00:00 | 00:00:00 | |
| DL1NUX | 2026-08-31 06:52:04 | 50.20951 | 9.03359 | 59° | 126km/h | 12017m | -7m/s | -49.1°C | 3.9% | 200.9hPa | 2.7V | 02:57:54 | 02:23:10 | 00:00:00 | |
| BIOWL1-15 | 2026-08-31 06:52:03 | 50.21023 | 9.03544 | 60° | 146km/h | 11990m | -7.1m/s | -49.3°C | 1.6% | 201.8hPa | 2.6V | 02:58:16 | 02:23:14 | 00:00:00 | |
| DL1XH-west | 2026-08-31 06:52:02 | 50.21004 | 9.03495 | 59° | 142km/h | 11997m | -6.5m/s | -49.2°C | 1.6% | 201.5hPa | 2.6V | 02:58:16 | 02:23:13 | 00:00:00 | |
| HSKMA3-T | 2026-08-31 06:52:01 | 50.20986 | 9.03448 | 59° | 137km/h | 12004m | -6.7m/s | -49.2°C | 1.5% | 201.3hPa | 2.6V | 02:58:16 | 02:23:12 | 00:00:00 | |
| DO3DL | 2026-08-31 06:52:00 | 50.20986 | 9.03448 | 60° | 137km/h | 12004m | -6.7m/s | -49.2°C | 2.0% | 201.3hPa | 2.7V | 00:00:00 | 00:00:00 | 00:00:00 | |
| DL1XH1-15 | 2026-08-31 06:51:59 | 50.20935 | 9.03317 | 60° | 122km/h | 12024m | -7.1m/s | -49.1°C | 4% | 200.6hPa | 2.7V | 02:57:55 | 02:23:09 | 00:00:00 | |
| DF7PN | 2026-08-31 06:51:59 | 50.20935 | 9.03317 | 60° | 122km/h | 12025m | -7.1m/s | -49.1°C | 2.0% | 200.6hPa | 2.7V | 00:00:00 | 00:00:00 | 00:00:00 | |
| SO1NDE-10 | 2026-08-31 06:51:58 | 50.20935 | 9.03317 | 61° | 126km/h | 12025m | -7.1m/s | -49.1°C | 4.0% | 200.6hPa | 2.7V | 02:57:00 | 02:23:09 | 00:00:00 | |
| DM0DOS-11 | 2026-08-31 06:51:57 | 50.20882 | 9.03148 | 67° | 119km/h | 12053m | -7.2m/s | -49°C | 3.9% | 199.8hPa | 2.6V | 02:57:59 | 02:23:05 | 00:00:00 | |
| BIOWL1-15 | 2026-08-31 06:51:54 | 50.20839 | 9.02963 | 71° | 133km/h | 12082m | -7.1m/s | -49.1°C | 1.5% | 198.9hPa | 2.6V | 02:58:16 | 02:23:01 | 00:00:00 | |
| DL1NUX | 2026-08-31 06:51:54 | 50.20827 | 9.02912 | 69° | 137km/h | 12089m | -7m/s | -49.1°C | 4.1% | 198.7hPa | 2.6V | 02:58:04 | 02:23:00 | 00:00:00 | |
| DL1XH-west | 2026-08-31 06:51:52 | 50.20860 | 9.03059 | 71° | 124km/h | 12068m | -7m/s | -49°C | 1.5% | 199.3hPa | 2.6V | 02:58:16 | 02:23:03 | 00:00:00 | |
| DL1XH1-15 | 2026-08-31 06:51:51 | 50.20815 | 9.02862 | 67° | 139km/h | 12096m | -6.8m/s | -49.2°C | 4% | 198.5hPa | 2.7V | 02:58:05 | 02:22:59 | 00:00:00 | |
| HSKMA3-T | 2026-08-31 06:51:51 | 50.20850 | 9.03012 | 71° | 130km/h | 12075m | -7.1m/s | -49.1°C | 1.5% | 199.2hPa | 2.6V | 02:58:16 | 02:23:02 | 00:00:00 | |
| DD1CC8 | 2026-08-31 06:51:49 | 50.20827 | 9.02912 | 69° | 137km/h | 12089m | -7.0m/s | -49.2°C | 2.1% | 198.7hPa | 2.6V | 00:00:00 | 00:00:00 | 00:00:00 | |
| DM0DOS-11 | 2026-08-31 06:51:48 | 50.20752 | 9.02671 | 59° | 130km/h | 12122m | -7m/s | -49.5°C | 3.9% | 197.8hPa | 2.6V | 02:58:09 | 02:22:55 | 00:00:00 | |
| DJ2DS-15 | 2026-08-31 06:51:47 | 50.20785 | 9.02763 | 62° | 135km/h | 12108m | -6.3m/s | -49.4°C | 2.0% | 198.1hPa | 2.7V | 00:00:00 | 00:00:00 | 00:00:00 | |
| DO3MHA-11 | 2026-08-31 06:51:46 | 50.20785 | 9.02763 | 63° | 124km/h | 12109m | -6.3m/s | -49.3°C | 3.9% | 198.1hPa | 2.7V | 00:00:00 | 02:22:57 | 00:00:00 | |
| DL1NUX | 2026-08-31 06:51:44 | 50.20671 | 9.02462 | 60° | 117km/h | 12159m | -7.5m/s | -49.6°C | 3.9% | 196.5hPa | 2.7V | 02:58:14 | 02:22:50 | 00:00:00 | |
| DL1XH1-15 | 2026-08-31 06:51:43 | 50.20657 | 9.02422 | 61° | 113km/h | 12166m | -7.4m/s | -49.6°C | 3.9% | 196.3hPa | 2.6V | 02:58:15 | 02:22:49 | 00:00:00 | |
| DL1XH-west | 2026-08-31 06:51:42 | 50.20719 | 9.02585 | 58° | 126km/h | 12136m | -7.7m/s | -49.6°C | 1.3% | 197.3hPa | 2.6V | 02:58:16 | 02:22:53 | 00:00:00 | |
| BIOWL1-15 | 2026-08-31 06:51:41 | 50.20702 | 9.02543 | 59° | 122km/h | 12144m | -7.8m/s | -49.6°C | 1.4% | 197hPa | 2.7V | 02:58:16 | 02:22:52 | 00:00:00 | |
| BIOWL7-15 | 2026-08-31 06:51:40 | 50.20686 | 9.02502 | 60° | 120km/h | 12152m | -7.7m/s | -49.7°C | 1.9% | 196.8hPa | 2.6V | 02:58:00 | 00:00:00 | 00:00:00 | |
| SONCRA | 2026-08-31 06:51:39 | 50.20671 | 9.02462 | 60° | 115km/h | 12159m | -7.5m/s | -49.6°C | 1.9% | 196.5hPa | 2.6V | 00:00:00 | 00:00:00 | 00:00:00 | |
| DB0UT-7 | 2026-08-31 06:51:38 | 50.20657 | 9.02422 | 62° | 126km/h | 12167m | -7.3m/s | -49.6°C | 3.9% | 196.3hPa | 2.6V | 02:58:00 | 00:00:00 | 00:00:00 | |
| DL1ZP-14 | 2026-08-31 06:51:37 | 50.20644 | 9.02383 | 63° | 111km/h | 12174m | -6.9m/s | -49.7°C | 1.9% | 196.1hPa | 2.6V | 00:00:00 | 00:00:00 | 00:00:00 | |
| DO3MHA-11 | 2026-08-31 06:51:36 | 50.20632 | 9.02343 | 67° | 130km/h | 12181m | -6.7m/s | -49.7°C | 3.9% | 195.9hPa | 2.6V | 02:58:00 | 02:22:47 | 00:00:00 | |
| DL9PN | 2026-08-31 06:51:35 | 50.20611 | 9.02258 | 70° | 120km/h | 12194m | -6.8m/s | -49.6°C | 1.9% | 195.5hPa | 2.6V | 00:00:00 | 00:00:00 | 00:00:00 | |
| DL1NUX | 2026-08-31 06:51:34 | 50.20546 | 9.02019 | 62° | 137km/h | 12229m | -7.4m/s | -49.5°C | 3.8% | 194.5hPa | 2.6V | 02:58:24 | 02:22:40 | 00:00:00 | |
| DL1XH-west | 2026-08-31 06:51:31 | 50.20575 | 9.02116 | 66° | 135km/h | 12215m | -7.2m/s | -49.5°C | 1.1% | 195hPa | 2.6V | 02:59:07 | 02:22:42 | 00:00:00 | |
| BIOWL1-15 | 2026-08-31 06:51:30 | 50.20561 | 9.02067 | 64° | 137km/h | 12222m | -7.1m/s | -49.5°C | 1.1% | 194.7hPa | 2.6V | 02:59:07 | 02:22:41 | 00:00:00 | |
| DF7PN | 2026-08-31 06:51:28 | 50.20511 | 9.01925 | 58° | 135km/h | 12244m | -7.3m/s | -49.6°C | 1.8% | 194.1hPa | 2.7V | 00:00:00 | 00:00:00 | 00:00:00 | |
| DL1XH1-15 | 2026-08-31 06:51:27 | 50.20418 | 9.01715 | 53° | 122km/h | 12281m | -7.3m/s | -49.6°C | 3.7% | 192.9hPa | 2.7V | 02:58:31 | 02:22:33 | 00:00:00 | |
| DB0ND-19 | 2026-08-31 06:51:26 | 50.20474 | 9.01837 | 55° | 130km/h | 12258m | -7.3m/s | -49.6°C | 1.8% | 193.6hPa | 2.6V | 00:00:00 | 00:00:00 | 00:00:00 | |
| DL1NUX | 2026-08-31 06:51:24 | 50.20367 | 9.01602 | 56° | 113km/h | 12303m | -7.2m/s | -49.6°C | 3.6% | 192.3hPa | 2.6V | 02:58:34 | 02:22:30 | 00:00:00 | |
| DL1XH-west | 2026-08-31 06:51:21 | 50.20400 | 9.01677 | 54° | 119km/h | 12288m | -7.4m/s | -49.6°C | 1% | 192.7hPa | 2.6V | 02:59:07 | 02:22:32 | 00:00:00 | |
| HSKMA3-T | 2026-08-31 06:51:20 | 50.20383 | 9.01639 | 55° | 115km/h | 12295m | -7.2m/s | -49.6°C | 1% | 192.5hPa | 2.6V | 02:59:07 | 02:22:31 | 00:00:00 | |
| BIOWL1-15 | 2026-08-31 06:51:19 | 50.20311 | 9.01445 | 65° | 119km/h | 12330m | -7.1m/s | -49.7°C | 0.8% | 191.5hPa | 2.7V | 02:59:07 | 02:22:26 | 00:00:00 | |
| DD1CC8 | 2026-08-31 06:51:18 | 50.20352 | 9.01565 | 58° | 111km/h | 12310m | -6.8m/s | -49.6°C | 1.6% | 192.1hPa | 2.7V | 00:00:00 | 00:00:00 | 00:00:00 | |
| DO3MHA-11 | 2026-08-31 06:51:16 | 50.20324 | 9.01487 | 64° | 128km/h | 12323m | -7.0m/s | -49.6°C | 3.6% | 191.6hPa | 2.7V | 00:00:00 | 02:22:27 | 00:00:00 | |
| DF1GD-15 | 2026-08-31 06:51:15 | 50.20324 | 9.01487 | 64° | 115km/h | 12323m | -7.1m/s | -49.7°C | 1.7% | 191.7hPa | 2.7V | 02:59:00 | 00:00:00 | 00:00:00 | |
| DL1NUX | 2026-08-31 06:51:14 | 50.20230 | 9.01173 | 62° | 135km/h | 12375m | -7.1m/s | -50°C | 3.7% | 190.2hPa | 2.7V | 02:58:44 | 02:22:20 | 00:00:00 | |
| DL1XH-west | 2026-08-31 06:51:11 | 50.20259 | 9.01267 | 65° | 131km/h | 12360m | -7.7m/s | -49.9°C | 0.8% | 190.6hPa | 2.6V | 02:59:07 | 02:22:22 | 00:00:00 | |
| HSKMA3-T | 2026-08-31 06:51:10 | 50.20245 | 9.01220 | 64° | 133km/h | 12368m | -7.3m/s | -49.9°C | 0.9% | 190.4hPa | 2.6V | 02:59:07 | 02:22:21 | 00:00:00 | |
| BIOWL1-15 | 2026-08-31 06:51:09 | 50.20230 | 9.01173 | 63° | 135km/h | 12375m | -7.1m/s | -50°C | 0.9% | 190.2hPa | 2.7V | 02:59:07 | 02:22:20 | 00:00:00 | |
| DJ2DS-15 | 2026-08-31 06:51:08 | 50.20213 | 9.01125 | 61° | 122km/h | 12382m | -7.0m/s | -50.0°C | 3.7% | 189.9hPa | 2.7V | 02:58:00 | 02:22:19 | 00:00:00 | |
| DL1XH1-15 | 2026-08-31 06:51:07 | 50.20099 | 9.00862 | 53° | 126km/h | 12426m | -7.5m/s | -50.1°C | 3.5% | 188.7hPa | 2.7V | 02:58:51 | 02:22:13 | 00:00:00 | |
| DL3AQ-11 | 2026-08-31 06:51:07 | 50.20177 | 9.01032 | 56° | 137km/h | 12397m | -7.4m/s | -50.1°C | 1.6% | 189.6hPa | 2.6V | 00:00:00 | 00:00:00 | 00:00:00 | |
| DO3MHA-11 | 2026-08-31 06:51:06 | 50.20177 | 9.01032 | 57° | 122km/h | 12397m | -7.4m/s | -50.1°C | 3.7% | 189.5hPa | 2.6V | 02:58:00 | 02:22:17 | 00:00:00 | |
| EDDB2-12 | 2026-08-31 06:51:05 | 50.20099 | 9.00862 | 53° | 124km/h | 12426m | -7.5m/s | -50.1°C | 1.5% | 188.8hPa | 2.6V | 00:00:00 | 00:00:00 | 00:00:00 | |
| DL1NUX | 2026-08-31 06:51:04 | 50.20047 | 9.00748 | 56° | 111km/h | 12448m | -7.1m/s | -50°C | 3.4% | 188hPa | 2.6V | 02:58:54 | 02:22:10 | 00:00:00 | |
| DL1XH-west | 2026-08-31 06:51:00 | 50.20063 | 9.00785 | 55° | 117km/h | 12441m | -6.9m/s | -50.1°C | 0.5% | 188.3hPa | 2.6V | 02:59:07 | 02:22:11 | 00:00:00 | |
| HSKMA3-T | 2026-08-31 06:50:59 | 50.20047 | 9.00748 | 57° | 111km/h | 12448m | -7.1m/s | -50°C | 0.5% | 188hPa | 2.6V | 02:59:07 | 02:22:10 | 00:00:00 | |
| BIOWL1-15 | 2026-08-31 06:50:58 | 50.20018 | 9.00674 | 61° | 110km/h | 12463m | -7.5m/s | -49.9°C | 0.5% | 187.7hPa | 2.7V | 02:59:07 | 02:22:08 | 00:00:00 | |
| SO1NDE-10 | 2026-08-31 06:50:58 | 50.20032 | 9.00711 | 59° | 120km/h | 12455m | -7.5m/s | -49.9°C | 3.4% | 187.9hPa | 2.6V | 00:00:00 | 02:22:09 | 00:00:00 | |
| DL1XH1-15 | 2026-08-31 06:50:57 | 50.19957 | 9.00474 | 67° | 119km/h | 12502m | -7.7m/s | -49.5°C | 3.3% | 186.6hPa | 2.6V | 02:59:01 | 02:22:03 | 00:00:00 | |
| DL1XH-west | 2026-08-31 06:50:50 | 50.19933 | 9.00384 | 67° | 128km/h | 12517m | -7.3m/s | -49.7°C | 0.5% | 186.1hPa | 2.7V | 02:59:07 | 02:22:01 | 00:00:00 | |
| HSKMA3-T | 2026-08-31 06:50:50 | 50.19920 | 9.00337 | 66° | 131km/h | 12524m | -7.1m/s | -49.8°C | 0.5% | 185.9hPa | 2.6V | 02:59:07 | 02:22:00 | 00:00:00 | |
| BIOWL1-15 | 2026-08-31 06:50:47 | 50.19857 | 9.00152 | 58° | 130km/h | 12553m | -7.1m/s | -49.8°C | 0.4% | 185.1hPa | 2.6V | 02:59:58 | 02:21:56 | 00:00:00 | |
| DD1CC8 | 2026-08-31 06:50:47 | 50.19874 | 9.00197 | 59° | 133km/h | 12546m | -7.4m/s | -49.8°C | 1.4% | 185.3hPa | 2.6V | 00:00:00 | 00:00:00 | 00:00:00 | |
| DO3MHA-11 | 2026-08-31 06:50:46 | 50.19874 | 9.00197 | 60° | 117km/h | 12546m | -7.3m/s | -49.8°C | 3.3% | 185.3hPa | 2.6V | 00:00:00 | 02:21:57 | 00:00:00 | |
| DL1NUX | 2026-08-31 06:50:44 | 50.19758 | 8.99923 | 57° | 106km/h | 12599m | -7.8m/s | -50°C | 3.3% | 183.8hPa | 2.6V | 02:59:14 | 02:21:50 | 00:00:00 | |
| DL1XH-west | 2026-08-31 06:50:39 | 50.19758 | 8.99923 | 58° | 106km/h | 12599m | -7.8m/s | -50°C | 0.3% | 183.8hPa | 2.6V | 02:59:58 | 02:21:50 | 00:00:00 | |
| HSKMA3-T | 2026-08-31 06:50:38 | 50.19744 | 8.99887 | 60° | 104km/h | 12607m | -8.1m/s | -50°C | 0.3% | 183.6hPa | 2.7V | 02:59:58 | 02:21:49 | 00:00:00 | |
| BIOWL1-15 | 2026-08-31 06:50:34 | 50.19698 | 8.99733 | 68° | 117km/h | 12638m | -7.3m/s | -50.1°C | 0.3% | 182.7hPa | 2.6V | 02:59:58 | 02:21:45 | 00:00:00 | |
| DL1NUX | 2026-08-31 06:50:34 | 50.19627 | 8.99503 | 59° | 135km/h | 12674m | -7.9m/s | -49.8°C | 3.3% | 181.7hPa | 2.6V | 02:59:24 | 02:21:40 | 00:00:00 | |
| DO8TBO-1 | 2026-08-31 06:50:34 | 50.19697 | 8.99732 | 68° | 122km/h | 12638m | -7.2m/s | -50.0°C | 3.3% | 182.6hPa | 2.6V | 00:00:00 | 02:21:45 | 00:00:00 | |
| BIOWL9-15 | 2026-08-31 06:50:33 | 50.19686 | 8.99689 | 67° | 122km/h | 12645m | -7.0m/s | -50.1°C | 1.3% | 182.6hPa | 2.6V | 00:00:00 | 00:00:00 | 00:00:00 | |
| DL9PN | 2026-08-31 06:50:32 | 50.19673 | 8.99643 | 65° | 128km/h | 12652m | -7.1m/s | -50.1°C | 1.3% | 182.3hPa | 2.6V | 00:00:00 | 00:00:00 | 00:00:00 | |
| DL8OAI-8 | 2026-08-31 06:50:31 | 50.19673 | 8.99643 | 67° | 130km/h | 12652m | -7.1m/s | -50.1°C | 1.4% | 182.3hPa | 2.6V | 02:59:00 | 00:00:00 | 00:00:00 | |
| DM0DOS-11 | 2026-08-31 06:50:30 | 50.19610 | 8.99458 | 58° | 133km/h | 12682m | -7.8m/s | -49.8°C | 3.3% | 181.4hPa | 2.6V | 02:59:25 | 02:21:39 | 00:00:00 | |
| DL1XH-west | 2026-08-31 06:50:28 | 50.19610 | 8.99458 | 58° | 133km/h | 12682m | -7.8m/s | -49.8°C | 0.3% | 181.4hPa | 2.6V | 02:59:58 | 02:21:39 | 00:00:00 | |
| HSKMA3-T | 2026-08-31 06:50:27 | 50.19592 | 8.99414 | 56° | 133km/h | 12690m | -7.7m/s | -49.8°C | 0.3% | 181.2hPa | 2.6V | 02:59:58 | 02:21:38 | 00:00:00 | |
| BIOWL1-15 | 2026-08-31 06:50:25 | 50.19517 | 8.99255 | 53° | 115km/h | 12720m | -7.3m/s | -50°C | 0.3% | 180.4hPa | 2.6V | 02:59:58 | 02:21:34 | 00:00:00 | |
| NBG1-10 | 2026-08-31 06:50:25 | 50.19554 | 8.99330 | 54° | 117km/h | 12706m | -7.6m/s | -49.8°C | 3.3% | 180.7hPa | 2.7V | 02:59:00 | 02:21:36 | 00:00:00 | |
| DL1NUX | 2026-08-31 06:50:24 | 50.19458 | 8.99113 | 62° | 106km/h | 12750m | -7.7m/s | -50.1°C | 3.2% | 179.6hPa | 2.7V | 02:59:34 | 02:21:30 | 00:00:00 | |
| DL1XH-west | 2026-08-31 06:50:18 | 50.19445 | 8.99075 | 64° | 108km/h | 12758m | -7.8m/s | -50.2°C | 0.1% | 179.4hPa | 2.7V | 02:59:58 | 02:21:29 | 00:00:00 | |
| HSKMA3-T | 2026-08-31 06:50:17 | 50.19434 | 8.99037 | 65° | 110km/h | 12766m | -7.8m/s | -50.2°C | 0.2% | 179.2hPa | 2.7V | 02:59:58 | 02:21:28 | 00:00:00 | |
| DL1XH1-15 | 2026-08-31 06:50:16 | 50.19376 | 8.98820 | 67° | 130km/h | 12805m | -7.7m/s | -49.8°C | 3.3% | 178hPa | 2.7V | 02:59:41 | 02:21:23 | 00:00:00 | |
| DO3MHA-11 | 2026-08-31 06:50:16 | 50.19422 | 8.98996 | 67° | 128km/h | 12774m | -8.1m/s | -50.2°C | 3.3% | 178.9hPa | 2.6V | 00:00:00 | 02:21:27 | 00:00:00 | |
| DL8DAS-15 | 2026-08-31 06:50:15 | 50.19422 | 8.98996 | 68° | 113km/h | 12774m | -8.2m/s | -50.2°C | 1.3% | 179.0hPa | 2.6V | 00:00:00 | 00:00:00 | 00:00:00 | |
| DL1NUX | 2026-08-31 06:50:14 | 50.19333 | 8.98677 | 62° | 135km/h | 12828m | -7.6m/s | -49.7°C | 3.2% | 177.4hPa | 2.6V | 02:59:44 | 02:21:20 | 00:00:00 | |
| BIOWL1-15 | 2026-08-31 06:50:12 | 50.19376 | 8.98820 | 67° | 130km/h | 12805m | -7.7m/s | -49.8°C | 0.3% | 178hPa | 2.7V | 02:59:58 | 02:21:23 | 00:00:00 | |
| DL1XH-west | 2026-08-31 06:50:07 | 50.19300 | 8.98585 | 59° | 131km/h | 12844m | -7.5m/s | -49.8°C | 0.1% | 177hPa | 2.7V | 02:59:58 | 02:21:18 | 00:00:00 | |
| HSKMA3-T | 2026-08-31 06:50:06 | 50.19283 | 8.98542 | 58° | 128km/h | 12851m | -7.7m/s | -49.8°C | 0.1% | 176.8hPa | 2.7V | 02:59:58 | 02:21:17 | 00:00:00 | |
| DO3MHA-11 | 2026-08-31 06:50:06 | 50.19283 | 8.98542 | 58° | 113km/h | 12851m | -7.6m/s | -49.7°C | 3.1% | 176.7hPa | 2.7V | 02:59:00 | 02:21:17 | 00:00:00 | |
| DL1XH1-15 | 2026-08-31 06:50:04 | 50.19216 | 8.98384 | 57° | 113km/h | 12882m | -8.2m/s | -49.9°C | 3.2% | 175.9hPa | 2.6V | 02:59:51 | 02:21:13 | 00:00:00 | |
| BIOWL1-15 | 2026-08-31 06:50:01 | 50.19201 | 8.98347 | 58° | 110km/h | 12891m | -8.3m/s | -49.8°C | 0.2% | 175.7hPa | 2.7V | 02:59:58 | 02:21:12 | 00:00:00 | |
| DM0DOS-11 | 2026-08-31 06:50:00 | 50.19161 | 8.98237 | 63° | 104km/h | 12916m | -8.1m/s | -49.7°C | 3.2% | 175.1hPa | 2.6V | 02:59:55 | 02:21:09 | 00:00:00 | |
| DL1XH-west | 2026-08-31 06:49:56 | 50.19139 | 8.98162 | 68° | 108km/h | 12932m | -8.1m/s | -49.6°C | 0.2% | 174.6hPa | 2.6V | 02:59:58 | 02:21:07 | 00:00:00 | |
| HSKMA3-T | 2026-08-31 06:49:55 | 50.19129 | 8.98122 | 70° | 111km/h | 12939m | -7.5m/s | -49.6°C | 0.1% | 174.4hPa | 2.6V | 02:59:58 | 02:21:06 | 00:00:00 | |
| DL1NUX | 2026-08-31 06:49:54 | 50.19064 | 8.97854 | 65° | 128km/h | 12988m | -8.1m/s | -49.5°C | 3.2% | 173.2hPa | 2.6V | 03:00:04 | 02:21:00 | 00:00:00 | |
| BIOWL1-15 | 2026-08-31 06:49:51 | 50.19064 | 8.97854 | 65° | 128km/h | 12988m | -8.1m/s | -49.5°C | 0.1% | 173.2hPa | 2.6V | 03:00:49 | 02:21:00 | 00:00:00 | |
| DL1XH-west | 2026-08-31 06:49:46 | 50.19019 | 8.97725 | 58° | 119km/h | 13010m | -7.1m/s | -49.3°C | 0% | 172.5hPa | 2.6V | 03:00:49 | 02:20:57 | 00:00:00 | |
| DO3MHA-11 | 2026-08-31 06:49:46 | 50.19019 | 8.97725 | 58° | 102km/h | 13011m | -7.0m/s | -49.2°C | 3.1% | 172.5hPa | 2.7V | 03:00:00 | 02:20:57 | 00:00:00 | |
| DL1XH1-15 | 2026-08-31 06:49:45 | 50.18959 | 8.97582 | 58° | 100km/h | 13041m | -8.2m/s | -49°C | 3% | 171.7hPa | 2.7V | 03:00:11 | 02:20:53 | 00:00:00 | |
| DL1NUX | 2026-08-31 06:49:45 | 50.18923 | 8.97481 | 63° | 95km/h | 13066m | -8m/s | -49°C | 3.1% | 171.1hPa | 2.6V | 03:00:14 | 02:20:50 | 00:00:00 | |
| HSKMA3-T | 2026-08-31 06:49:44 | 50.18987 | 8.97651 | 57° | 108km/h | 13025m | -7.5m/s | -49°C | 0% | 172.2hPa | 2.6V | 03:00:49 | 02:20:55 | 00:00:00 | |
| DM7RM-13 | 2026-08-31 06:49:44 | 50.19003 | 8.97687 | 58° | 113km/h | 13018m | -7.4m/s | -49.1°C | 1.1% | 172.4hPa | 2.6V | 03:00:00 | 00:00:00 | 00:00:00 | |
| DM0DOS-11 | 2026-08-31 06:49:42 | 50.18913 | 8.97447 | 66° | 95km/h | 13073m | -8m/s | -49°C | 3.1% | 170.8hPa | 2.6V | 03:00:15 | 02:20:49 | 00:00:00 | |
| BIOWL1-15 | 2026-08-31 06:49:39 | 50.18904 | 8.97412 | 69° | 97km/h | 13081m | -7.8m/s | -49.1°C | 0% | 170.7hPa | 2.6V | 03:00:49 | 02:20:48 | 00:00:00 | |
| DL1XH-west | 2026-08-31 06:49:36 | 50.18895 | 8.97376 | 71° | 100km/h | 13089m | -7.6m/s | -49.1°C | 0% | 170.5hPa | 2.7V | 03:00:49 | 02:20:47 | 00:00:00 | |
| DO3MHA-11 | 2026-08-31 06:49:36 | 50.18895 | 8.97376 | 71° | 115km/h | 13089m | -7.6m/s | -49.1°C | 3.1% | 170.4hPa | 2.7V | 00:00:00 | 02:20:47 | 00:00:00 | |
| DB0UT-9 | 2026-08-31 06:49:35 | 50.18895 | 8.97376 | 72° | 100km/h | 13089m | -7.6m/s | -49.1°C | 1.2% | 170.5hPa | 2.6V | 03:00:00 | 00:00:00 | 00:00:00 | |
| DL1XH1-15 | 2026-08-31 06:49:34 | 50.18856 | 8.97213 | 65° | 119km/h | 13119m | -7.4m/s | -49.2°C | 3.2% | 169.7hPa | 2.6V | 03:00:21 | 02:20:43 | 00:00:00 | |
| DL1NUX | 2026-08-31 06:49:34 | 50.18815 | 8.97086 | 60° | 120km/h | 13142m | -7.8m/s | -49.3°C | 3.1% | 169.2hPa | 2.7V | 03:00:24 | 02:20:40 | 00:00:00 | |
| HSKMA3-T | 2026-08-31 06:49:33 | 50.18868 | 8.97255 | 69° | 117km/h | 13112m | -7.3m/s | -49.2°C | 0% | 169.9hPa | 2.6V | 03:00:49 | 02:20:44 | 00:00:00 | |
| BIOWL1-15 | 2026-08-31 06:49:29 | 50.18815 | 8.97086 | 61° | 120km/h | 13142m | -7.8m/s | -49.3°C | 0% | 169.2hPa | 2.7V | 03:00:49 | 02:20:40 | 00:00:00 | |
| DL1XH-west | 2026-08-31 06:49:26 | 50.18768 | 8.96966 | 57° | 115km/h | 13166m | -8.6m/s | -49.1°C | 0% | 168.5hPa | 2.6V | 03:00:49 | 02:20:37 | 00:00:00 | |
| DO3MHA-11 | 2026-08-31 06:49:26 | 50.18768 | 8.96966 | 58° | 97km/h | 13167m | -8.6m/s | -49.1°C | 3.1% | 168.5hPa | 2.7V | 00:00:00 | 02:20:37 | 00:00:00 | |
| DM0DOS-11 | 2026-08-31 06:49:24 | 50.18723 | 8.96860 | 55° | 100km/h | 13190m | -7.9m/s | -49.1°C | 3.1% | 167.9hPa | 2.7V | 03:00:30 | 02:20:34 | 00:00:00 | |
| DL1XH1-15 | 2026-08-31 06:49:23 | 50.18709 | 8.96829 | 56° | 95km/h | 13198m | -7.5m/s | -49.1°C | 3% | 167.7hPa | 2.7V | 03:00:31 | 02:20:33 | 00:00:00 | |
| HSKMA3-T | 2026-08-31 06:49:22 | 50.18709 | 8.96829 | 56° | 95km/h | 13198m | -7.5m/s | -49.1°C | 0% | 167.7hPa | 2.7V | 03:00:49 | 02:20:33 | 00:00:00 | |
| DB0ND-19 | 2026-08-31 06:49:21 | 50.18696 | 8.96798 | 58° | 89km/h | 13206m | -7.4m/s | -49.0°C | 1.1% | 167.5hPa | 2.6V | 00:00:00 | 00:00:00 | 00:00:00 | |
| DK5PH-5 | 2026-08-31 06:49:20 | 50.18684 | 8.96768 | 61° | 99km/h | 13213m | -7.9m/s | -48.9°C | 3.0% | 167.3hPa | 2.6V | 03:00:00 | 02:20:31 | 00:00:00 | |
| NBG1-10 | 2026-08-31 06:49:19 | 50.18674 | 8.96738 | 64° | 100km/h | 13221m | -7.7m/s | -48.7°C | 3.0% | 167.1hPa | 2.6V | 00:00:00 | 02:20:30 | 00:00:00 | |
| DM0DOS-11 | 2026-08-31 06:49:18 | 50.18624 | 8.96531 | 71° | 104km/h | 13269m | -8m/s | -48.5°C | 2.9% | 165.8hPa | 2.6V | 03:00:40 | 02:20:24 | 00:00:00 | |
| BIOWL1-15 | 2026-08-31 06:49:18 | 50.18665 | 8.96707 | 66° | 88km/h | 13229m | -8.1m/s | -48.6°C | 0% | 166.9hPa | 2.7V | 03:00:49 | 02:20:29 | 00:00:00 | |
| DL1XH-west | 2026-08-31 06:49:15 | 50.18640 | 8.96606 | 71° | 97km/h | 13253m | -8.1m/s | -48.6°C | 0% | 166.3hPa | 2.6V | 03:00:49 | 02:20:26 | 00:00:00 | |
| DL1NUX | 2026-08-31 06:49:14 | 50.18581 | 8.96371 | 62° | 113km/h | 13300m | -7.4m/s | -48.4°C | 2.9% | 165.1hPa | 2.7V | 03:00:44 | 02:20:20 | 00:00:00 | |
| DL1XH1-15 | 2026-08-31 06:49:13 | 50.18615 | 8.96492 | 69° | 108km/h | 13277m | -7.8m/s | -48.4°C | 2.9% | 165.6hPa | 2.6V | 03:00:41 | 02:20:23 | 00:00:00 | |
| HSKMA3-T | 2026-08-31 06:49:12 | 50.18615 | 8.96492 | 70° | 108km/h | 13277m | -7.8m/s | -48.4°C | 0% | 165.7hPa | 2.6V | 03:00:49 | 02:20:23 | 00:00:00 | |
| BIOWL1-15 | 2026-08-31 06:49:07 | 50.18459 | 8.96094 | 52° | 97km/h | 13363m | -8.4m/s | -48.6°C | 0% | 163.6hPa | 2.6V | 03:01:40 | 02:20:12 | 00:00:00 | |
| DM0DOS-11 | 2026-08-31 06:49:07 | 50.18490 | 8.96156 | 52° | 102km/h | 13347m | -8m/s | -48.5°C | 2.8% | 163.9hPa | 2.7V | 03:00:50 | 02:20:14 | 00:00:00 | |
| DO3MHA-11 | 2026-08-31 06:49:06 | 50.18537 | 8.96258 | 56° | 97km/h | 13323m | -7.9m/s | -48.4°C | 2.8% | 164.5hPa | 2.6V | 03:00:00 | 02:20:17 | 00:00:00 | |
| DO3DL | 2026-08-31 06:49:05 | 50.18537 | 8.96258 | 57° | 110km/h | 13323m | -8.0m/s | -48.5°C | 1.0% | 164.6hPa | 2.6V | 03:00:00 | 00:00:00 | 00:00:00 | |
| DL1NUX | 2026-08-31 06:49:04 | 50.18431 | 8.96037 | 54° | 86km/h | 13380m | -7.9m/s | -48.7°C | 2.9% | 163.1hPa | 2.6V | 03:00:54 | 02:20:10 | 00:00:00 | |
| DL1XH-west | 2026-08-31 06:49:04 | 50.18506 | 8.96189 | 54° | 106km/h | 13339m | -8.1m/s | -48.5°C | 0% | 164.1hPa | 2.7V | 03:00:49 | 02:20:15 | 00:00:00 | |
| HSKMA3-T | 2026-08-31 06:49:02 | 50.18474 | 8.96124 | 52° | 100km/h | 13355m | -8.5m/s | -48.6°C | 0% | 163.8hPa | 2.7V | 03:01:40 | 02:20:13 | 00:00:00 | |
| DL1ZP-14 | 2026-08-31 06:49:02 | 50.18459 | 8.96094 | 52° | 95km/h | 13363m | -8.4m/s | -48.6°C | 1.0% | 163.6hPa | 2.6V | 00:00:00 | 00:00:00 | 00:00:00 | |
| BIOWL9-15 | 2026-08-31 06:49:00 | 50.18445 | 8.96065 | 52° | 89km/h | 13372m | -8.3m/s | -48.7°C | 1.0% | 163.3hPa | 2.7V | 00:00:00 | 00:00:00 | 00:00:00 | |
| DL9PN | 2026-08-31 06:48:59 | 50.18432 | 8.96037 | 54° | 86km/h | 13380m | -7.9m/s | -48.7°C | 1.0% | 163.1hPa | 2.7V | 00:00:00 | 00:00:00 | 00:00:00 | |
| DB0UT-7 | 2026-08-31 06:48:58 | 50.18419 | 8.96009 | 58° | 100km/h | 13388m | -7.2m/s | -48.7°C | 2.9% | 162.8hPa | 2.7V | 00:00:00 | 02:20:09 | 00:00:00 | |
| SO1NDE-10 | 2026-08-31 06:48:57 | 50.18409 | 8.95981 | 63° | 99km/h | 13395m | -7.2m/s | -48.8°C | 2.9% | 162.7hPa | 2.7V | 00:00:00 | 02:20:08 | 00:00:00 | |
| DM0DOS-11 | 2026-08-31 06:48:56 | 50.18375 | 8.95851 | 69° | 99km/h | 13425m | -8m/s | -48.9°C | 2.9% | 162hPa | 2.7V | 03:01:00 | 02:20:04 | 00:00:00 | |
| DO3MHA-11 | 2026-08-31 06:48:56 | 50.18400 | 8.95951 | 67° | 102km/h | 13402m | -7.5m/s | -48.8°C | 2.9% | 162.5hPa | 2.6V | 00:00:00 | 02:20:07 | 00:00:00 | |
| DH7VM-15 | 2026-08-31 06:48:55 | 50.18400 | 8.95951 | 67° | 84km/h | 13402m | -7.5m/s | -48.9°C | 1.0% | 162.6hPa | 2.6V | 00:00:00 | 00:00:00 | 00:00:00 | |
| DL1NUX | 2026-08-31 06:48:54 | 50.18330 | 8.95697 | 61° | 111km/h | 13457m | -7.9m/s | -49°C | 3% | 161.2hPa | 2.6V | 03:01:04 | 02:20:00 | 00:00:00 | |
| DL1XH-west | 2026-08-31 06:48:53 | 50.18375 | 8.95851 | 69° | 99km/h | 13425m | -8m/s | -48.9°C | 0% | 162hPa | 2.7V | 03:01:40 | 02:20:04 | 00:00:00 | |
| HSKMA3-T | 2026-08-31 06:48:51 | 50.18355 | 8.95775 | 66° | 108km/h | 13441m | -8m/s | -49°C | 0% | 161.6hPa | 2.7V | 03:01:40 | 02:20:02 | 00:00:00 | |
| DB0ND-19 | 2026-08-31 06:48:51 | 50.18343 | 8.95736 | 63° | 110km/h | 13449m | -7.9m/s | -49.0°C | 1.1% | 161.4hPa | 2.7V | 00:00:00 | 00:00:00 | 00:00:00 | |
| DK5PH-5 | 2026-08-31 06:48:50 | 50.18343 | 8.95736 | 64° | 97km/h | 13449m | -7.8m/s | -49.0°C | 3.0% | 161.3hPa | 2.7V | 00:00:00 | 02:20:01 | 00:00:00 | |
| DL1XH1-15 | 2026-08-31 06:48:49 | 50.18254 | 8.95520 | 52° | 100km/h | 13495m | -7.9m/s | -49.2°C | 3% | 160.2hPa | 2.7V | 03:01:09 | 02:19:55 | 00:00:00 | |
| DJ2DS-15 | 2026-08-31 06:48:48 | 50.18317 | 8.95659 | 60° | 97km/h | 13465m | -7.5m/s | -48.9°C | 3.0% | 160.9hPa | 2.6V | 00:00:00 | 02:19:59 | 00:00:00 | |
| DL8OAI-8 | 2026-08-31 06:48:47 | 50.18302 | 8.95622 | 58° | 111km/h | 13472m | -7.6m/s | -49.0°C | 1.1% | 160.8hPa | 2.6V | 03:01:00 | 00:00:00 | 00:00:00 | |
| DO3MHA-11 | 2026-08-31 06:48:46 | 50.18286 | 8.95586 | 55° | 93km/h | 13480m | -8.0m/s | -49.0°C | 2.9% | 160.6hPa | 2.6V | 00:00:00 | 02:19:57 | 00:00:00 | |
| DM0DOS-11 | 2026-08-31 06:48:45 | 50.18239 | 8.95489 | 51° | 97km/h | 13503m | -7.9m/s | -49.2°C | 2.9% | 160.1hPa | 2.6V | 03:01:10 | 02:19:54 | 00:00:00 | |
| DL1NUX | 2026-08-31 06:48:45 | 50.18184 | 8.95378 | 55° | 82km/h | 13536m | -8.4m/s | -49.3°C | 3% | 159.2hPa | 2.7V | 03:01:14 | 02:19:50 | 00:00:00 | |
| BIOWL1-15 | 2026-08-31 06:48:43 | 50.18184 | 8.95378 | 56° | 82km/h | 13536m | -8.4m/s | -49.3°C | 0% | 159.2hPa | 2.7V | 03:01:40 | 02:19:50 | 00:00:00 | |
| DL1XH-west | 2026-08-31 06:48:43 | 50.18239 | 8.95489 | 52° | 97km/h | 13503m | -7.9m/s | -49.2°C | 0% | 160.1hPa | 2.6V | 03:01:40 | 02:19:54 | 00:00:00 | |
| HSKMA3-T | 2026-08-31 06:48:41 | 50.18210 | 8.95432 | 52° | 88km/h | 13519m | -8.1m/s | -49.3°C | 0% | 159.7hPa | 2.6V | 03:01:40 | 02:19:52 | 00:00:00 | |
| DL1XH1-15 | 2026-08-31 06:48:39 | 50.18137 | 8.95230 | 69° | 93km/h | 13574m | -7.4m/s | -49.5°C | 3.1% | 158.3hPa | 2.6V | 03:01:19 | 02:19:45 | 00:00:00 | |
| DM0DOS-11 | 2026-08-31 06:48:37 | 50.18128 | 8.95194 | 69° | 99km/h | 13582m | -7.7m/s | -49.5°C | 3.1% | 158.2hPa | 2.7V | 03:01:20 | 02:19:44 | 00:00:00 | |
| DL8DAS-15 | 2026-08-31 06:48:37 | 50.18163 | 8.95323 | 63° | 82km/h | 13552m | -8.0m/s | -49.4°C | 1.1% | 158.8hPa | 2.6V | 00:00:00 | 00:00:00 | 00:00:00 | |
| DO3MHA-11 | 2026-08-31 06:48:36 | 50.18154 | 8.95294 | 66° | 100km/h | 13560m | -7.4m/s | -49.4°C | 3.0% | 158.6hPa | 2.6V | 00:00:00 | 02:19:47 | 00:00:00 | |
| DH7VM-15 | 2026-08-31 06:48:35 | 50.18154 | 8.95294 | 67° | 84km/h | 13560m | -7.4m/s | -49.4°C | 1.1% | 158.6hPa | 2.6V | 00:00:00 | 00:00:00 | 00:00:00 | |
| DL1NUX | 2026-08-31 06:48:34 | 50.18082 | 8.95043 | 59° | 110km/h | 13614m | -8m/s | -49.7°C | 3.1% | 157.4hPa | 2.6V | 03:01:24 | 02:19:40 | 00:00:00 | |
| DL1XH-west | 2026-08-31 06:48:32 | 50.18119 | 8.95157 | 67° | 104km/h | 13590m | -7.9m/s | -49.5°C | 0.1% | 158hPa | 2.7V | 03:01:40 | 02:19:43 | 00:00:00 | |
| BIOWL1-15 | 2026-08-31 06:48:31 | 50.18108 | 8.95119 | 65° | 108km/h | 13598m | -8m/s | -49.6°C | 0.1% | 157.8hPa | 2.6V | 03:01:40 | 02:19:42 | 00:00:00 | |
| HSKMA3-T | 2026-08-31 06:48:30 | 50.18096 | 8.95080 | 63° | 110km/h | 13606m | -7.9m/s | -49.6°C | 0.1% | 157.6hPa | 2.6V | 03:01:40 | 02:19:41 | 00:00:00 | |
| BIOWL9-15 | 2026-08-31 06:48:29 | 50.18083 | 8.95043 | 59° | 108km/h | 13614m | -8.0m/s | -49.7°C | 1.1% | 157.4hPa | 2.6V | 00:00:00 | 00:00:00 | 00:00:00 | |
| DJ2DS-15 | 2026-08-31 06:48:28 | 50.18068 | 8.95006 | 57° | 93km/h | 13622m | -7.7m/s | -49.7°C | 3.1% | 157.1hPa | 2.6V | 00:00:00 | 02:19:39 | 00:00:00 | |
| DM0DOS-11 | 2026-08-31 06:48:27 | 50.17989 | 8.94852 | 48° | 89km/h | 13661m | -7.9m/s | -50°C | 3.1% | 156.2hPa | 2.6V | 03:01:30 | 02:19:34 | 00:00:00 | |
| SO1NDE-10 | 2026-08-31 06:48:27 | 50.18052 | 8.94972 | 54° | 91km/h | 13629m | -7.9m/s | -49.7°C | 3.1% | 156.9hPa | 2.7V | 03:01:00 | 02:19:38 | 00:00:00 | |
| DO3MHA-11 | 2026-08-31 06:48:26 | 50.18036 | 8.94939 | 52° | 86km/h | 13637m | -8.0m/s | -49.8°C | 3.1% | 156.8hPa | 2.7V | 03:01:00 | 02:19:37 | 00:00:00 | |
| DL8DAS-15 | 2026-08-31 06:48:25 | 50.18036 | 8.94939 | 52° | 102km/h | 13637m | -8.0m/s | -49.8°C | 1.1% | 156.8hPa | 2.7V | 00:00:00 | 00:00:00 | 00:00:00 | |
| DL1NUX | 2026-08-31 06:48:24 | 50.17939 | 8.94751 | 59° | 77km/h | 13693m | -7.8m/s | -49.9°C | 3.1% | 155.4hPa | 2.7V | 03:01:34 | 02:19:30 | 00:00:00 | |
| DL1XH-west | 2026-08-31 06:48:21 | 50.17962 | 8.94801 | 52° | 80km/h | 13677m | -8.1m/s | -49.9°C | 0.1% | 155.8hPa | 2.7V | 03:01:40 | 02:19:32 | 00:00:00 | |
| HSKMA3-T | 2026-08-31 06:48:20 | 50.17950 | 8.94776 | 55° | 78km/h | 13685m | -7.7m/s | -49.9°C | 0.1% | 155.7hPa | 2.7V | 03:01:40 | 02:19:31 | 00:00:00 | |
| DB0ND-19 | 2026-08-31 06:48:20 | 50.17939 | 8.94751 | 59° | 77km/h | 13693m | -7.8m/s | -49.9°C | 1.1% | 155.4hPa | 2.6V | 00:00:00 | 00:00:00 | 00:00:00 | |
| BUE01 | 2026-08-31 06:48:19 | 50.17939 | 8.94751 | 59° | 77km/h | 13693m | -7.8m/s | -49.9°C | 1.1% | 155.4hPa | 2.6V | 00:00:00 | 00:00:00 | 00:00:00 | |
| DO3MHA-11 | 2026-08-31 06:48:16 | 50.17914 | 8.94665 | 70° | 99km/h | 13717m | -7.9m/s | -49.9°C | 3.1% | 154.9hPa | 2.6V | 00:00:00 | 02:19:27 | 00:00:00 | |
| DL3AQ-11 | 2026-08-31 06:48:15 | 50.17906 | 8.94632 | 70° | 89km/h | 13725m | -8.0m/s | -50.0°C | 1.1% | 154.7hPa | 2.6V | 00:00:00 | 00:00:00 | 00:00:00 | |
| DL1NUX | 2026-08-31 06:48:14 | 50.17844 | 8.94416 | 58° | 106km/h | 13773m | -7.8m/s | -50.1°C | 3.2% | 153.5hPa | 2.6V | 03:01:44 | 02:19:20 | 00:00:00 | |
| DL1XH-west | 2026-08-31 06:48:10 | 50.17858 | 8.94453 | 62° | 106km/h | 13766m | -8m/s | -50.1°C | 0.2% | 153.8hPa | 2.6V | 03:02:31 | 02:19:21 | 00:00:00 | |
| HSKMA3-T | 2026-08-31 06:48:09 | 50.17845 | 8.94416 | 59° | 106km/h | 13773m | -7.8m/s | -50.1°C | 0.2% | 153.5hPa | 2.6V | 03:02:31 | 02:19:20 | 00:00:00 | |
| DJ2DS-15 | 2026-08-31 06:48:08 | 50.17830 | 8.94381 | 56° | 95km/h | 13782m | -8.1m/s | -50.1°C | 3.2% | 153.4hPa | 2.7V | 03:01:00 | 02:19:19 | 00:00:00 | |
| DJTTGO | 2026-08-31 06:48:06 | 50.17799 | 8.94317 | 52° | 99km/h | 13798m | -7.7m/s | -50.3°C | 1.2% | 153.0hPa | 2.6V | 03:02:00 | 00:00:00 | 00:00:00 | |
| DL8OAI-8 | 2026-08-31 06:48:05 | 50.17799 | 8.94317 | 52° | 99km/h | 13798m | -7.7m/s | -50.3°C | 1.2% | 153.0hPa | 2.6V | 03:02:00 | 00:00:00 | 00:00:00 | |
| DL1NUX | 2026-08-31 06:48:04 | 50.17709 | 8.94131 | 62° | 78km/h | 13853m | -8.1m/s | -50.8°C | 3.3% | 151.7hPa | 2.6V | 03:01:54 | 02:19:10 | 00:00:00 | |
| DL1XH-west | 2026-08-31 06:48:00 | 50.17718 | 8.94158 | 58° | 78km/h | 13845m | -8m/s | -50.7°C | 0.3% | 151.9hPa | 2.6V | 03:02:31 | 02:19:11 | 00:00:00 | |
| BIOWL1-15 | 2026-08-31 06:47:59 | 50.17708 | 8.94132 | 62° | 78km/h | 13853m | -8.1m/s | -50.8°C | 0.2% | 151.7hPa | 2.6V | 03:02:31 | 02:19:10 | 00:00:00 | |
| HSKMA3-T | 2026-08-31 06:47:58 | 50.17699 | 8.94103 | 65° | 82km/h | 13861m | -8.4m/s | -50.8°C | 0.3% | 151.5hPa | 2.6V | 03:02:31 | 02:19:09 | 00:00:00 | |
| DM0DOS-11 | 2026-08-31 06:47:57 | 50.17653 | 8.93932 | 65° | 106km/h | 13903m | -8.1m/s | -51°C | 3.4% | 150.5hPa | 2.6V | 03:02:00 | 02:19:04 | 00:00:00 | |
| SO1NDE-10 | 2026-08-31 06:47:57 | 50.17691 | 8.94073 | 68° | 97km/h | 13870m | -8.3m/s | -50.9°C | 3.3% | 151.3hPa | 2.7V | 00:00:00 | 02:19:08 | 00:00:00 | |
| DO3MHA-11 | 2026-08-31 06:47:56 | 50.17682 | 8.94040 | 68° | 104km/h | 13878m | -8.5m/s | -50.9°C | 3.4% | 151.1hPa | 2.7V | 00:00:00 | 02:19:07 | 00:00:00 | |
| DL1NUX | 2026-08-31 06:47:54 | 50.17598 | 8.93782 | 54° | 108km/h | 13936m | -8.1m/s | -51°C | 3.3% | 149.8hPa | 2.7V | 03:02:04 | 02:19:00 | 00:00:00 | |
| DL1XH-west | 2026-08-31 06:47:49 | 50.17598 | 8.93782 | 55° | 108km/h | 13936m | -8.1m/s | -51°C | 0.3% | 149.8hPa | 2.7V | 03:02:31 | 02:19:00 | 00:00:00 | |
| HSKMA3-T | 2026-08-31 06:47:48 | 50.17582 | 8.93748 | 53° | 104km/h | 13944m | -7.7m/s | -51.1°C | 0.3% | 149.6hPa | 2.7V | 03:02:31 | 02:18:59 | 00:00:00 | |
| DJ2DS-15 | 2026-08-31 06:47:48 | 50.17582 | 8.93748 | 53° | 93km/h | 13944m | -7.6m/s | -51.0°C | 3.3% | 149.6hPa | 2.6V | 00:00:00 | 02:18:59 | 00:00:00 | |
| DO3MHA-11 | 2026-08-31 06:47:46 | 50.17551 | 8.93688 | 52° | 84km/h | 13959m | -7.4m/s | -51.2°C | 3.3% | 149.3hPa | 2.6V | 03:02:00 | 02:18:57 | 00:00:00 | |
| DL8OAI-8 | 2026-08-31 06:47:45 | 50.17551 | 8.93688 | 52° | 91km/h | 13959m | -7.4m/s | -51.2°C | 1.3% | 149.3hPa | 2.6V | 03:02:00 | 00:00:00 | 00:00:00 | |
| DL1NUX | 2026-08-31 06:47:44 | 50.17477 | 8.93497 | 68° | 84km/h | 14016m | -8.6m/s | -51.5°C | 3.5% | 147.9hPa | 2.6V | 03:02:14 | 02:18:50 | 00:00:00 | |
| DO9LL-15 | 2026-08-31 06:47:42 | 50.17504 | 8.93581 | 60° | 89km/h | 13991m | -8.3m/s | -51.4°C | 3.3% | 148.5hPa | 2.6V | 00:00:00 | 02:18:53 | 00:00:00 | |
| DD1CC8 | 2026-08-31 06:47:41 | 50.17485 | 8.93526 | 65° | 78km/h | 14007m | -8.6m/s | -51.5°C | 1.3% | 148.1hPa | 2.6V | 00:00:00 | 00:00:00 | 00:00:00 | |
| NBG1-10 | 2026-08-31 06:47:40 | 50.17485 | 8.93526 | 66° | 91km/h | 14008m | -8.6m/s | -51.5°C | 3.4% | 148.1hPa | 2.6V | 03:02:00 | 02:18:51 | 00:00:00 | |
| DL1XH1-15 | 2026-08-31 06:47:39 | 50.17434 | 8.93318 | 65° | 110km/h | 14056m | -8m/s | -51.7°C | 3.5% | 147hPa | 2.6V | 03:02:19 | 02:18:45 | 00:00:00 | |
| DL1XH-west | 2026-08-31 06:47:39 | 50.17477 | 8.93497 | 68° | 84km/h | 14016m | -8.6m/s | -51.5°C | 0.4% | 147.9hPa | 2.6V | 03:02:31 | 02:18:50 | 00:00:00 | |
| HSKMA3-T | 2026-08-31 06:47:37 | 50.17462 | 8.93431 | 71° | 95km/h | 14032m | -8m/s | -51.6°C | 0.4% | 147.5hPa | 2.7V | 03:02:31 | 02:18:48 | 00:00:00 | |
| DO3MHA-11 | 2026-08-31 06:47:36 | 50.17454 | 8.93395 | 71° | 100km/h | 14041m | -7.9m/s | -51.6°C | 3.6% | 147.3hPa | 2.7V | 00:00:00 | 02:18:47 | 00:00:00 | |
| CB1BUN | 2026-08-31 06:47:35 | 50.17454 | 8.93395 | 71° | 100km/h | 14041m | -7.9m/s | -51.6°C | 1.3% | 147.4hPa | 2.7V | 00:00:00 | 00:00:00 | 00:00:00 | |
| DL1NUX | 2026-08-31 06:47:34 | 50.17365 | 8.93144 | 53° | 91km/h | 14096m | -8m/s | -52°C | 3.5% | 146.2hPa | 2.7V | 03:02:24 | 02:18:40 | 00:00:00 | |
| SONCRA | 2026-08-31 06:47:31 | 50.17393 | 8.93207 | 55° | 102km/h | 14080m | -7.9m/s | -51.8°C | 1.2% | 146.5hPa | 2.7V | 00:00:00 | 00:00:00 | 00:00:00 | |
| DC4HF-4 | 2026-08-31 06:47:30 | 50.17364 | 8.93144 | 53° | 91km/h | 14096m | -8.0m/s | -52.0°C | 1.3% | 146.2hPa | 2.7V | 00:00:00 | 00:00:00 | 00:00:00 | |
| DL1XH1-15 | 2026-08-31 06:47:29 | 50.17309 | 8.93011 | 63° | 75km/h | 14136m | -8.3m/s | -52°C | 3.5% | 145.2hPa | 2.7V | 03:02:29 | 02:18:35 | 00:00:00 | |
| DL1XH-west | 2026-08-31 06:47:29 | 50.17364 | 8.93144 | 53° | 91km/h | 14096m | -8m/s | -52°C | 0.4% | 146.2hPa | 2.7V | 03:02:31 | 02:18:40 | 00:00:00 | |
| BIOWL1-15 | 2026-08-31 06:47:28 | 50.17351 | 8.93116 | 54° | 86km/h | 14104m | -7.9m/s | -52°C | 0.4% | 146hPa | 2.6V | 03:02:31 | 02:18:39 | 00:00:00 | |
| HSKMA3-T | 2026-08-31 06:47:27 | 50.17339 | 8.93089 | 56° | 80km/h | 14112m | -7.7m/s | -52°C | 0.4% | 145.8hPa | 2.6V | 03:02:31 | 02:18:38 | 00:00:00 | |
| SO1NDE-10 | 2026-08-31 06:47:27 | 50.17339 | 8.93089 | 56° | 86km/h | 14112m | -7.7m/s | 0°C | 0% | 0hPa | 2.6V | 00:00:00 | 02:18:38 | 00:00:00 | |
| DO3MHA-11 | 2026-08-31 06:47:26 | 50.17328 | 8.93063 | 59° | 82km/h | 14120m | -7.9m/s | -52.0°C | 3.5% | 145.5hPa | 2.6V | 00:00:00 | 02:18:37 | 00:00:00 | |
| DL8DAS-15 | 2026-08-31 06:47:25 | 50.17328 | 8.93063 | 59° | 77km/h | 14120m | -7.9m/s | -52.0°C | 1.3% | 145.6hPa | 2.6V | 03:02:00 | 00:00:00 | 00:00:00 | |
| DL8OAI-8 | 2026-08-31 06:47:24 | 50.17318 | 8.93037 | 62° | 75km/h | 14128m | -8.2m/s | -52.0°C | 1.3% | 145.4hPa | 2.6V | 03:02:00 | 00:00:00 | 00:00:00 | |
| DL1NUX | 2026-08-31 06:47:24 | 50.17275 | 8.92865 | 72° | 89km/h | 14177m | -8m/s | -52.1°C | 3.6% | 144.4hPa | 2.6V | 03:02:34 | 02:18:30 | 00:00:00 | |
| SONDE2-11 | 2026-08-31 06:47:23 | 50.17295 | 8.92957 | 69° | 75km/h | 14153m | -8.3m/s | -52.0°C | 1.3% | 144.9hPa | 2.6V | 00:00:00 | 00:00:00 | 00:00:00 | |
| DL0LBS | 2026-08-31 06:47:21 | 50.17295 | 8.92957 | 71° | 77km/h | 14153m | -8.3m/s | -52.0°C | 1.3% | 144.9hPa | 2.6V | 03:02:00 | 00:00:00 | 00:00:00 | |
| DL3AQ-11 | 2026-08-31 06:47:20 | 50.17268 | 8.92830 | 70° | 95km/h | 14185m | -7.7m/s | -52.1°C | 1.3% | 144.1hPa | 2.6V | 00:00:00 | 00:00:00 | 00:00:00 | |
| DL1XH1-15 | 2026-08-31 06:47:19 | 50.17224 | 8.92686 | 58° | 102km/h | 14216m | -7.9m/s | -52.3°C | 3.5% | 143.5hPa | 2.6V | 03:02:39 | 02:18:25 | 00:00:00 | |
| DL1XH-west | 2026-08-31 06:47:18 | 50.17268 | 8.92830 | 71° | 97km/h | 14185m | -7.7m/s | -52.1°C | 0.5% | 144.1hPa | 2.7V | 03:03:22 | 02:18:29 | 00:00:00 | |
| BIOWL1-15 | 2026-08-31 06:47:17 | 50.17259 | 8.92794 | 68° | 100km/h | 14193m | -7.7m/s | -52.2°C | 0.5% | 143.9hPa | 2.7V | 03:03:22 | 02:18:28 | 00:00:00 | |
| HSKMA3-T | 2026-08-31 06:47:16 | 50.17249 | 8.92757 | 65° | 104km/h | 14201m | -7.9m/s | -52.2°C | 0.4% | 143.8hPa | 2.6V | 03:03:22 | 02:18:27 | 00:00:00 | |
| DO3MHA-11 | 2026-08-31 06:47:16 | 50.17249 | 8.92757 | 66° | 91km/h | 14201m | -7.9m/s | -52.2°C | 3.5% | 143.7hPa | 2.7V | 00:00:00 | 02:18:27 | 00:00:00 | |
| DL8DAS-15 | 2026-08-31 06:47:15 | 50.17249 | 8.92757 | 66° | 104km/h | 14201m | -7.9m/s | -52.2°C | 1.3% | 143.8hPa | 2.7V | 00:00:00 | 00:00:00 | 00:00:00 | |
| CB1BUN | 2026-08-31 06:47:14 | 50.17237 | 8.92721 | 62° | 104km/h | 14209m | -7.8m/s | -52.3°C | 1.3% | 143.6hPa | 2.7V | 03:03:00 | 00:00:00 | 00:00:00 | |
| DM0DOS-11 | 2026-08-31 06:47:12 | 50.17196 | 8.92622 | 53° | 95km/h | 14232m | -7.7m/s | -52.4°C | 3.5% | 143.1hPa | 2.7V | 03:02:41 | 02:18:23 | 00:00:00 | |
| DL4BBY-15 | 2026-08-31 06:47:12 | 50.17196 | 8.92621 | 54° | 82km/h | 14232m | -7.7m/s | -53.0°C | 0% | 0hPa | 2.7V | 00:00:00 | 00:00:00 | 00:00:00 | |
| DL8DAS-14 | 2026-08-31 06:47:11 | 50.17168 | 8.92565 | 50° | 86km/h | 14248m | -8.4m/s | -52.5°C | 1.3% | 142.7hPa | 2.7V | 00:00:00 | 00:00:00 | 00:00:00 | |
| DD1CC8 | 2026-08-31 06:47:10 | 50.17154 | 8.92540 | 49° | 82km/h | 14257m | -8.7m/s | -52.6°C | 1.3% | 142.5hPa | 2.7V | 00:00:00 | 00:00:00 | 00:00:00 | |
| DL1XH1-15 | 2026-08-31 06:47:09 | 50.17096 | 8.92420 | 61° | 71km/h | 14299m | -7.8m/s | -52.8°C | 3.6% | 141.6hPa | 2.7V | 03:02:49 | 02:18:15 | 00:00:00 | |
| BIOWL1-15 | 2026-08-31 06:47:07 | 50.17128 | 8.92491 | 51° | 77km/h | 14274m | -8.8m/s | -52.7°C | 0.5% | 142.1hPa | 2.6V | 03:03:22 | 02:18:18 | 00:00:00 | |
| HSKMA3-T | 2026-08-31 06:47:05 | 50.17105 | 8.92444 | 57° | 71km/h | 14291m | -8.3m/s | -52.7°C | 0.5% | 141.8hPa | 2.7V | 03:03:22 | 02:18:16 | 00:00:00 | |
| DL1NUX | 2026-08-31 06:47:04 | 50.17057 | 8.92270 | 66° | 95km/h | 14339m | -8.4m/s | -52.8°C | 3.7% | 140.7hPa | 2.7V | 03:02:54 | 02:18:10 | 00:00:00 | |
| DM0DOS-11 | 2026-08-31 06:47:02 | 50.17081 | 8.92367 | 69° | 78km/h | 14315m | -7.9m/s | -52.8°C | 3.7% | 141.3hPa | 2.6V | 03:02:51 | 02:18:13 | 00:00:00 | |
| SONCRA | 2026-08-31 06:47:00 | 50.17057 | 8.92270 | 66° | 93km/h | 14339m | -8.4m/s | -52.8°C | 1.3% | 140.7hPa | 2.7V | 00:00:00 | 00:00:00 | 00:00:00 | |
| DL1XH1-15 | 2026-08-31 06:46:59 | 50.16992 | 8.92109 | 49° | 95km/h | 14380m | -8.5m/s | -52.9°C | 3.6% | 139.9hPa | 2.7V | 03:02:59 | 02:18:05 | 00:00:00 | |
| DL1XH-west | 2026-08-31 06:46:56 | 50.17022 | 8.92169 | 56° | 99km/h | 14364m | -8m/s | -52.8°C | 0.5% | 140.2hPa | 2.6V | 03:03:22 | 02:18:07 | 00:00:00 | |
| HSKMA3-T | 2026-08-31 06:46:54 | 50.16992 | 8.92109 | 49° | 95km/h | 14380m | -8.5m/s | -52.9°C | 0.4% | 139.9hPa | 2.7V | 03:03:22 | 02:18:05 | 00:00:00 | |
| DC4HF-4 | 2026-08-31 06:46:54 | 50.16977 | 8.92082 | 46° | 89km/h | 14389m | -8.5m/s | -53.0°C | 1.3% | 139.7hPa | 2.6V | 00:00:00 | 00:00:00 | 00:00:00 | |
| DO1YAY-16 | 2026-08-31 06:46:53 | 50.16946 | 8.92034 | 45° | 80km/h | 14406m | -8.7m/s | -53.1°C | 1.3% | 139.3hPa | 2.6V | 00:00:00 | 00:00:00 | 00:00:00 | |
| DM0DOS-11 | 2026-08-31 06:46:52 | 50.16961 | 8.92057 | 45° | 86km/h | 14398m | -8.8m/s | -53°C | 3.6% | 139.4hPa | 2.6V | 03:03:01 | 02:18:03 | 00:00:00 | |
| SONDE2-11 | 2026-08-31 06:46:52 | 50.16946 | 8.92034 | 45° | 80km/h | 14406m | -8.7m/s | -53.1°C | 1.3% | 139.3hPa | 2.6V | 00:00:00 | 00:00:00 | 00:00:00 | |
| CB1BUN | 2026-08-31 06:46:51 | 50.16961 | 8.92057 | 47° | 86km/h | 14398m | -8.8m/s | -53.0°C | 1.3% | 139.5hPa | 2.6V | 03:03:00 | 00:00:00 | 00:00:00 | |
| DK5PH-5 | 2026-08-31 06:46:50 | 50.16933 | 8.92012 | 47° | 88km/h | 14415m | -8.8m/s | -53.1°C | 3.6% | 139.1hPa | 2.6V | 00:00:00 | 02:18:01 | 00:00:00 | |
| DL1XH1-15 | 2026-08-31 06:46:49 | 50.16875 | 8.91868 | 68° | 82km/h | 14464m | -8.3m/s | -53.1°C | 3.6% | 138hPa | 2.6V | 03:03:09 | 02:17:55 | 00:00:00 | |
| DO8TBO-1 | 2026-08-31 06:46:48 | 50.16909 | 8.91969 | 54° | 91km/h | 14432m | -8.4m/s | -53.1°C | 3.6% | 138.7hPa | 2.7V | 03:03:00 | 02:17:59 | 00:00:00 | |
| DJ2DS-15 | 2026-08-31 06:46:47 | 50.16899 | 8.91947 | 59° | 91km/h | 14441m | -7.9m/s | -53.1°C | 3.6% | 138.4hPa | 2.7V | 03:03:00 | 02:17:58 | 00:00:00 | |
| DM0DOS-11 | 2026-08-31 06:46:46 | 50.16859 | 8.91804 | 66° | 93km/h | 14481m | -8.4m/s | -53.2°C | 3.6% | 137.7hPa | 2.7V | 03:03:11 | 02:17:53 | 00:00:00 | |
| DL1XH-west | 2026-08-31 06:46:45 | 50.16883 | 8.91897 | 67° | 77km/h | 14456m | -7.7m/s | -53.1°C | 0.5% | 138.3hPa | 2.6V | 03:03:22 | 02:17:56 | 00:00:00 | |
| HSKMA3-T | 2026-08-31 06:46:43 | 50.16868 | 8.91837 | 69° | 88km/h | 14473m | -8.4m/s | -53.2°C | 0.4% | 137.9hPa | 2.6V | 03:03:22 | 02:17:54 | 00:00:00 | |
| DL4BBY-15 | 2026-08-31 06:46:42 | 50.16859 | 8.91804 | 67° | 97km/h | 14481m | -8.3m/s | -53.7°C | 0% | 0hPa | 2.6V | 00:00:00 | 00:00:00 | 00:00:00 | |
| DJTTGO | 2026-08-31 06:46:41 | 50.16859 | 8.91804 | 68° | 93km/h | 14481m | -8.4m/s | -53.2°C | 1.3% | 137.7hPa | 2.6V | 03:03:00 | 00:00:00 | 00:00:00 | |
| DB0NH | 2026-08-31 06:46:40 | 50.16839 | 8.91736 | 64° | 91km/h | 14498m | -8.3m/s | -53.2°C | 3.7% | 137.2hPa | 2.6V | 03:03:00 | 02:17:51 | 00:00:00 | |
| DL1XH1-15 | 2026-08-31 06:46:39 | 50.16754 | 8.91532 | 50° | 102km/h | 14549m | -8.4m/s | -53.6°C | 3.8% | 136.2hPa | 2.6V | 03:03:19 | 02:17:45 | 00:00:00 | |
| DL1XH-west | 2026-08-31 06:46:34 | 50.16754 | 8.91532 | 51° | 102km/h | 14549m | -8.4m/s | -53.6°C | 0.6% | 136.2hPa | 2.6V | 03:03:22 | 02:17:45 | 00:00:00 | |
| DM0DOS-11 | 2026-08-31 06:46:34 | 50.16721 | 8.91473 | 47° | 93km/h | 14566m | -8.6m/s | -53.8°C | 3.8% | 135.9hPa | 2.6V | 03:03:21 | 02:17:43 | 00:00:00 | |
| HSKMA3-T | 2026-08-31 06:46:33 | 50.16738 | 8.91501 | 49° | 99km/h | 14558m | -8.3m/s | -53.7°C | 0.6% | 136hPa | 2.6V | 03:03:22 | 02:17:44 | 00:00:00 | |
| DL1XH1-15 | 2026-08-31 06:46:29 | 50.16629 | 8.91260 | 67° | 88km/h | 14634m | -8.4m/s | -53.9°C | 3.8% | 134.4hPa | 2.7V | 03:03:29 | 02:17:35 | 00:00:00 | |
| SONCRA | 2026-08-31 06:46:29 | 50.16678 | 8.91397 | 51° | 78km/h | 14592m | -8.6m/s | -54.0°C | 1.3% | 135.3hPa | 2.6V | 00:00:00 | 00:00:00 | 00:00:00 | |
| DO2KSM | 2026-08-31 06:46:28 | 50.16678 | 8.91397 | 52° | 80km/h | 14592m | -8.6m/s | -54.0°C | 1.3% | 135.3hPa | 2.6V | 03:04:00 | 00:00:00 | 00:00:00 | |
| DM0DOS-11 | 2026-08-31 06:46:27 | 50.16611 | 8.91193 | 68° | 95km/h | 14651m | -8.5m/s | -53.9°C | 3.9% | 134.1hPa | 2.6V | 03:03:31 | 02:17:33 | 00:00:00 | |
| DL3AQ-11 | 2026-08-31 06:46:27 | 50.16646 | 8.91319 | 63° | 78km/h | 14617m | -8.2m/s | -54.0°C | 1.4% | 134.8hPa | 2.7V | 00:00:00 | 00:00:00 | 00:00:00 | |
| DO3MHA-11 | 2026-08-31 06:46:26 | 50.16646 | 8.91319 | 64° | 97km/h | 14617m | -8.1m/s | -54.0°C | 3.9% | 134.7hPa | 2.7V | 03:03:00 | 02:17:37 | 00:00:00 | |
| DB0UT-7 | 2026-08-31 06:46:25 | 50.16637 | 8.91290 | 66° | 93km/h | 14626m | -8.3m/s | -54.0°C | 3.8% | 134.6hPa | 2.7V | 00:00:00 | 00:00:00 | 00:00:00 | |
| DL1NUX | 2026-08-31 06:46:24 | 50.16580 | 8.91082 | 63° | 110km/h | 14676m | -8.2m/s | -53.9°C | 4% | 133.5hPa | 2.7V | 03:03:34 | 02:17:30 | 00:00:00 | |
| DL1XH-west | 2026-08-31 06:46:24 | 50.16629 | 8.91260 | 68° | 88km/h | 14634m | -8.4m/s | -53.9°C | 0.6% | 134.5hPa | 2.7V | 03:04:13 | 02:17:35 | 00:00:00 | |
| BIOWL1-15 | 2026-08-31 06:46:23 | 50.16620 | 8.91227 | 68° | 91km/h | 14642m | -8.5m/s | -53.9°C | 0.6% | 134.2hPa | 2.7V | 03:04:13 | 02:17:34 | 00:00:00 | |
| HSKMA3-T | 2026-08-31 06:46:22 | 50.16612 | 8.91193 | 68° | 95km/h | 14651m | -8.5m/s | -53.9°C | 0.6% | 134.1hPa | 2.6V | 03:04:13 | 02:17:33 | 00:00:00 | |
| SONDE2-11 | 2026-08-31 06:46:21 | 50.16592 | 8.91120 | 65° | 104km/h | 14668m | -8.4m/s | -53.9°C | 1.4% | 133.7hPa | 2.6V | 00:00:00 | 00:00:00 | 00:00:00 | |
| DK5PH-5 | 2026-08-31 06:46:20 | 50.16592 | 8.91120 | 66° | 89km/h | 14668m | -8.3m/s | -53.8°C | 4.0% | 133.7hPa | 2.6V | 00:00:00 | 02:17:31 | 00:00:00 | |
| DL1XH1-15 | 2026-08-31 06:46:19 | 50.16510 | 8.90898 | 55° | 102km/h | 14719m | -8.4m/s | -53.5°C | 3.8% | 132.6hPa | 2.6V | 03:03:39 | 02:17:25 | 00:00:00 | |
| DO8TBO-1 | 2026-08-31 06:46:18 | 50.16567 | 8.91044 | 62° | 89km/h | 14685m | -8.6m/s | -53.8°C | 4.0% | 133.3hPa | 2.6V | 00:00:00 | 02:17:29 | 00:00:00 | |
| DF7PN | 2026-08-31 06:46:17 | 50.16554 | 8.91006 | 60° | 110km/h | 14693m | -8.9m/s | -53.8°C | 1.4% | 133.2hPa | 2.6V | 00:00:00 | 00:00:00 | 00:00:00 | |
| DL3AQ-11 | 2026-08-31 06:46:16 | 50.16525 | 8.90932 | 57° | 106km/h | 14711m | -8.6m/s | -53.5°C | 1.3% | 132.8hPa | 2.6V | 00:00:00 | 00:00:00 | 00:00:00 | |
| BUE01 | 2026-08-31 06:46:15 | 50.16525 | 8.90932 | 57° | 106km/h | 14711m | -8.6m/s | -53.5°C | 1.3% | 132.8hPa | 2.6V | 00:00:00 | 00:00:00 | 00:00:00 | |
| DL1NUX | 2026-08-31 06:46:14 | 50.16453 | 8.90758 | 67° | 75km/h | 14761m | -8.7m/s | -53.5°C | 3.8% | 131.8hPa | 2.6V | 03:03:44 | 02:17:20 | 00:00:00 | |
| BIOWL1-15 | 2026-08-31 06:46:14 | 50.16483 | 8.90837 | 54° | 86km/h | 14736m | -8.3m/s | -53.6°C | 0.5% | 132.3hPa | 2.7V | 03:04:13 | 02:17:23 | 00:00:00 | |
| DL1XH-west | 2026-08-31 06:46:14 | 50.16510 | 8.90898 | 55° | 102km/h | 14719m | -8.4m/s | -53.5°C | 0.6% | 132.6hPa | 2.6V | 03:04:13 | 02:17:25 | 00:00:00 | |
| HSKMA3-T | 2026-08-31 06:46:11 | 50.16471 | 8.90810 | 57° | 80km/h | 14744m | -8.6m/s | -53.5°C | 0.5% | 132.2hPa | 2.7V | 03:04:13 | 02:17:22 | 00:00:00 | |
| DL1XH1-15 | 2026-08-31 06:46:09 | 50.16425 | 8.90594 | 75° | 100km/h | 14805m | -8.6m/s | -53.4°C | 3.7% | 130.9hPa | 2.6V | 03:03:49 | 02:17:15 | 00:00:00 | |
| DB0NH | 2026-08-31 06:46:07 | 50.16441 | 8.90699 | 77° | 86km/h | 14779m | -8.7m/s | -53.3°C | 3.7% | 131.4hPa | 2.7V | 00:00:00 | 02:17:18 | 00:00:00 | |
| DO3MHA-11 | 2026-08-31 06:46:06 | 50.16436 | 8.90667 | 79° | 95km/h | 14788m | -8.8m/s | -53.3°C | 3.7% | 131.2hPa | 2.7V | 00:00:00 | 02:17:17 | 00:00:00 | |
| DO9LL-15 | 2026-08-31 06:46:05 | 50.16431 | 8.90631 | 78° | 84km/h | 14797m | -8.4m/s | -53.4°C | 3.7% | 131.0hPa | 2.7V | 00:00:00 | 02:17:16 | 00:00:00 | |
| DL1NUX | 2026-08-31 06:46:04 | 50.16378 | 8.90410 | 62° | 91km/h | 14849m | -8.8m/s | -53.6°C | 3.7% | 130hPa | 2.7V | 03:03:54 | 02:17:10 | 00:00:00 | |
| DL1XH-west | 2026-08-31 06:46:03 | 50.16418 | 8.90555 | 73° | 104km/h | 14814m | -8.6m/s | -53.5°C | 0.5% | 130.7hPa | 2.6V | 03:04:13 | 02:17:14 | 00:00:00 | |
| HSKMA3-T | 2026-08-31 06:46:01 | 50.16399 | 8.90479 | 66° | 102km/h | 14831m | -9.1m/s | -53.5°C | 0.5% | 130.3hPa | 2.7V | 03:04:13 | 02:17:12 | 00:00:00 | |
| HTAHTA | 2026-08-31 06:46:00 | 50.16388 | 8.90443 | 63° | 97km/h | 14840m | -8.9m/s | -53.5°C | -1.0% | -1.0hPa | 2.7V | 00:00:00 | 00:00:00 | 00:00:00 | |
| DL1XH1-15 | 2026-08-31 06:45:59 | 50.16338 | 8.90271 | 75° | 69km/h | 14893m | -8.9m/s | -53.8°C | 3.7% | 129.1hPa | 2.7V | 03:03:59 | 02:17:05 | 00:00:00 | |
| SONCRA | 2026-08-31 06:45:58 | 50.16358 | 8.90351 | 64° | 77km/h | 14867m | -9.0m/s | -53.7°C | 1.3% | 129.7hPa | 2.6V | 00:00:00 | 00:00:00 | 00:00:00 | |
| SO1NDE-10 | 2026-08-31 06:45:57 | 50.16358 | 8.90351 | 65° | 78km/h | 14867m | -8.9m/s | -53.6°C | 3.7% | 129.6hPa | 2.6V | 00:00:00 | 02:17:08 | 00:00:00 | |
| DO3MHA-11 | 2026-08-31 06:45:56 | 50.16350 | 8.90324 | 68° | 77km/h | 14876m | -8.9m/s | -53.7°C | 3.7% | 129.5hPa | 2.7V | 00:00:00 | 02:17:07 | 00:00:00 | |
| BIOWL7-15 | 2026-08-31 06:45:55 | 50.16343 | 8.90297 | 72° | 71km/h | 14884m | -8.5m/s | -53.8°C | 1.3% | 129.3hPa | 2.7V | 03:04:00 | 00:00:00 | 00:00:00 | |
| DL1NUX | 2026-08-31 06:45:54 | 50.16327 | 8.90128 | 86° | 82km/h | 14939m | -9.6m/s | -54°C | 3.9% | 128.2hPa | 2.7V | 03:04:04 | 02:17:00 | 00:00:00 | |
| DL1XH-west | 2026-08-31 06:45:53 | 50.16334 | 8.90244 | 79° | 69km/h | 14902m | -9.1m/s | -53.8°C | 0.5% | 128.9hPa | 2.6V | 03:04:13 | 02:17:04 | 00:00:00 | |
| BIOWL1-15 | 2026-08-31 06:45:51 | 50.16329 | 8.90188 | 85° | 73km/h | 14921m | -9.5m/s | -53.9°C | 0.6% | 128.6hPa | 2.6V | 03:04:13 | 02:17:02 | 00:00:00 | |
| DL3AQ-11 | 2026-08-31 06:45:47 | 50.16319 | 8.90024 | 80° | 93km/h | 14968m | -9.1m/s | -54.1°C | 1.4% | 127.7hPa | 2.6V | 00:00:00 | 00:00:00 | 00:00:00 | |
| DF1GD-15 | 2026-08-31 06:45:46 | 50.16319 | 8.90024 | 81° | 95km/h | 14968m | -9.1m/s | -54.1°C | 1.4% | 127.6hPa | 2.6V | 03:04:00 | 00:00:00 | 00:00:00 | |
| DL1NUX | 2026-08-31 06:45:44 | 50.16259 | 8.89802 | 57° | 77km/h | 15030m | -9.5m/s | -54.1°C | 3.8% | 126.4hPa | 2.6V | 03:04:14 | 02:16:50 | 00:00:00 | |
| DM0DOS-11 | 2026-08-31 06:45:43 | 50.16269 | 8.89828 | 59° | 80km/h | 15021m | -9.6m/s | -54.2°C | 3.8% | 126.6hPa | 2.6V | 03:04:13 | 02:16:51 | 00:00:00 | |
| DL1XH-west | 2026-08-31 06:45:42 | 50.16289 | 8.89885 | 63° | 88km/h | 15003m | -8.8m/s | -54.2°C | 0.6% | 126.9hPa | 2.7V | 03:04:13 | 02:16:53 | 00:00:00 | |
| HSKMA3-T | 2026-08-31 06:45:40 | 50.16269 | 8.89828 | 59° | 80km/h | 15021m | -9.6m/s | -54.2°C | 0.5% | 126.6hPa | 2.6V | 03:04:13 | 02:16:51 | 00:00:00 | |
| DL8DAS-14 | 2026-08-31 06:45:38 | 50.16248 | 8.89777 | 57° | 71km/h | 15040m | -9.9m/s | -54.0°C | 1.3% | 126.2hPa | 2.7V | 00:00:00 | 00:00:00 | 00:00:00 | |
| DB0NH | 2026-08-31 06:45:37 | 50.16239 | 8.89754 | 59° | 82km/h | 15050m | -9.8m/s | -54.0°C | 3.8% | 125.9hPa | 2.7V | 00:00:00 | 02:16:48 | 00:00:00 | |
| DL3AQ-11 | 2026-08-31 06:45:36 | 50.16223 | 8.89709 | 64° | 62km/h | 15069m | -9.0m/s | -54.0°C | 1.3% | 125.6hPa | 2.7V | 00:00:00 | 00:00:00 | 00:00:00 | |
| DM0DOS-11 | 2026-08-31 06:45:35 | 50.16199 | 8.89573 | 76° | 88km/h | 15112m | -8.9m/s | -54°C | 3.8% | 124.8hPa | 2.7V | 03:04:23 | 02:16:41 | 00:00:00 | |
| DL1NUX | 2026-08-31 06:45:35 | 50.16194 | 8.89539 | 74° | 93km/h | 15122m | -9.4m/s | -54°C | 3.9% | 124.7hPa | 2.6V | 03:04:24 | 02:16:40 | 00:00:00 | |
| DL1XH-west | 2026-08-31 06:45:31 | 50.16204 | 8.89606 | 79° | 80km/h | 15104m | -8.6m/s | -54.1°C | 0.5% | 125hPa | 2.7V | 03:05:04 | 02:16:42 | 00:00:00 | |
| DL1XH1-15 | 2026-08-31 06:45:29 | 50.16146 | 8.89365 | 58° | 95km/h | 15169m | -9m/s | -54.1°C | 3.9% | 123.7hPa | 2.6V | 03:04:29 | 02:16:35 | 00:00:00 | |
| HSKMA3-T | 2026-08-31 06:45:29 | 50.16194 | 8.89539 | 74° | 93km/h | 15122m | -9.4m/s | -54°C | 0.6% | 124.7hPa | 2.6V | 03:05:04 | 02:16:40 | 00:00:00 | |
| NBG1-10 | 2026-08-31 06:45:28 | 50.16187 | 8.89503 | 72° | 84km/h | 15131m | -9.3m/s | -53.9°C | 3.9% | 124.3hPa | 2.6V | 03:04:00 | 02:16:39 | 00:00:00 | |
| SONCRA | 2026-08-31 06:45:27 | 50.16169 | 8.89432 | 65° | 97km/h | 15150m | -9.7m/s | -54.0°C | 1.3% | 124.0hPa | 2.7V | 00:00:00 | 00:00:00 | 00:00:00 | |
| DO3MHA-11 | 2026-08-31 06:45:26 | 50.16169 | 8.89432 | 66° | 82km/h | 15150m | -9.7m/s | -53.9°C | 3.8% | 124.0hPa | 2.7V | 00:00:00 | 02:16:37 | 00:00:00 | |
| DB0UT-7 | 2026-08-31 06:45:25 | 50.16158 | 8.89397 | 62° | 84km/h | 15160m | -9.4m/s | -54.0°C | 3.9% | 123.8hPa | 2.7V | 00:00:00 | 00:00:00 | 00:00:00 | |
| DM0DOS-11 | 2026-08-31 06:45:24 | 50.16096 | 8.89258 | 53° | 73km/h | 15204m | -8.9m/s | -54.4°C | 3.8% | 123hPa | 2.7V | 03:04:33 | 02:16:31 | 00:00:00 | |
| DL1NUX | 2026-08-31 06:45:24 | 50.16085 | 8.89235 | 55° | 69km/h | 15213m | -9.1m/s | -54.4°C | 3.9% | 122.8hPa | 2.7V | 03:04:34 | 02:16:30 | 00:00:00 | |
| DL1XH-west | 2026-08-31 06:45:21 | 50.16107 | 8.89281 | 52° | 77km/h | 15195m | -8.7m/s | -54.3°C | 0.5% | 123.2hPa | 2.7V | 03:05:04 | 02:16:32 | 00:00:00 | |
| HSKMA3-T | 2026-08-31 06:45:19 | 50.16085 | 8.89235 | 56° | 69km/h | 15213m | -9.1m/s | -54.4°C | 0.5% | 122.8hPa | 2.7V | 03:05:04 | 02:16:30 | 00:00:00 | |
| DO8TBO-1 | 2026-08-31 06:45:18 | 50.16076 | 8.89213 | 60° | 86km/h | 15223m | -9.7m/s | -54.4°C | 3.9% | 122.7hPa | 2.6V | 00:00:00 | 02:16:29 | 00:00:00 | |
| DM7RM-13 | 2026-08-31 06:45:17 | 50.16076 | 8.89213 | 60° | 66km/h | 15223m | -9.8m/s | -54.4°C | 1.3% | 122.7hPa | 2.6V | 03:05:00 | 00:00:00 | 00:00:00 | |
| DO3MHA-11 | 2026-08-31 06:45:16 | 50.16061 | 8.89166 | 68° | 91km/h | 15242m | -9.8m/s | -54.5°C | 4.0% | 122.3hPa | 2.6V | 00:00:00 | 02:16:27 | 00:00:00 | |
| DM0DOS-11 | 2026-08-31 06:45:15 | 50.16024 | 8.88976 | 68° | 100km/h | 15296m | -9.1m/s | -54.1°C | 3.9% | 121.3hPa | 2.6V | 03:04:43 | 02:16:21 | 00:00:00 | |
| DF7PN | 2026-08-31 06:45:15 | 50.16050 | 8.89113 | 75° | 77km/h | 15261m | -8.8m/s | -54.4°C | 1.4% | 121.9hPa | 2.6V | 00:00:00 | 00:00:00 | 00:00:00 | |
| DL1NUX | 2026-08-31 06:45:14 | 50.16013 | 8.88939 | 65° | 102km/h | 15305m | -9.6m/s | -54.1°C | 3.9% | 121.1hPa | 2.6V | 03:04:44 | 02:16:20 | 00:00:00 | |
| DL1XH-west | 2026-08-31 06:45:10 | 50.16024 | 8.88976 | 69° | 100km/h | 15296m | -9.1m/s | -54.2°C | 0.6% | 121.3hPa | 2.6V | 03:05:04 | 02:16:21 | 00:00:00 | |
| BIOWL1-15 | 2026-08-31 06:45:08 | 50.16002 | 8.88904 | 62° | 102km/h | 15315m | -9.8m/s | -54.1°C | 0.6% | 121hPa | 2.7V | 03:05:04 | 02:16:19 | 00:00:00 | |
| DB0NH | 2026-08-31 06:45:07 | 50.15990 | 8.88869 | 60° | 91km/h | 15325m | -9.3m/s | -54.1°C | 3.9% | 120.7hPa | 2.7V | 00:00:00 | 02:16:18 | 00:00:00 | |
| DO3MHA-11 | 2026-08-31 06:45:06 | 50.15976 | 8.88836 | 57° | 78km/h | 15334m | -9.0m/s | -54.0°C | 3.9% | 120.5hPa | 2.6V | 03:04:00 | 02:16:17 | 00:00:00 | |
| DM0DOS-11 | 2026-08-31 06:45:05 | 50.15905 | 8.88679 | 62° | 68km/h | 15389m | -9.4m/s | -53.8°C | 3.8% | 119.5hPa | 2.6V | 03:04:53 | 02:16:11 | 00:00:00 | |
| DO9LL-15 | 2026-08-31 06:45:05 | 50.15963 | 8.88806 | 55° | 93km/h | 15343m | -9.3m/s | -54.0°C | 3.8% | 120.3hPa | 2.6V | 00:00:00 | 02:16:16 | 00:00:00 | |
| DF1GD-15 | 2026-08-31 06:45:04 | 50.15963 | 8.88806 | 55° | 93km/h | 15343m | -9.4m/s | -54.0°C | 1.3% | 120.4hPa | 2.6V | 03:05:00 | 00:00:00 | 00:00:00 | |
| DB0UT-9 | 2026-08-31 06:45:03 | 50.15949 | 8.88777 | 53° | 88km/h | 15353m | -9.5m/s | -54.0°C | 1.3% | 120.2hPa | 2.6V | 00:00:00 | 00:00:00 | 00:00:00 | |
| DL1NUX | 2026-08-31 06:45:02 | 50.15897 | 8.88654 | 66° | 69km/h | 15399m | -9.5m/s | -53.7°C | 3.7% | 119.4hPa | 2.6V | 03:04:54 | 02:16:10 | 00:00:00 | |
| BIOWL1-15 | 2026-08-31 06:45:02 | 50.15890 | 8.88629 | 71° | 73km/h | 15409m | -9.5m/s | -53.7°C | 0.5% | 119.2hPa | 2.6V | 03:05:04 | 02:16:09 | 00:00:00 | |
| DO3DL | 2026-08-31 06:45:01 | 50.15924 | 8.88726 | 55° | 77km/h | 15371m | -8.9m/s | -53.9°C | 1.2% | 119.8hPa | 2.6V | 03:05:00 | 00:00:00 | 00:00:00 | |
| DL8OAI-8 | 2026-08-31 06:45:00 | 50.15913 | 8.88702 | 58° | 71km/h | 15381m | -9.0m/s | -53.9°C | 1.3% | 119.7hPa | 2.6V | 03:05:00 | 00:00:00 | 00:00:00 | |
| DL1XH1-15 | 2026-08-31 06:44:59 | 50.15865 | 8.88503 | 70° | 97km/h | 15446m | -9.2m/s | -53.6°C | 3.7% | 118.5hPa | 2.6V | 03:04:59 | 02:16:05 | 00:00:00 | |
| DL1XH-west | 2026-08-31 06:44:59 | 50.15897 | 8.88654 | 66° | 69km/h | 15399m | -9.5m/s | -53.7°C | 0.5% | 119.4hPa | 2.6V | 03:05:04 | 02:16:10 | 00:00:00 | |
| HSKMA3-T | 2026-08-31 06:44:57 | 50.15885 | 8.88601 | 73° | 78km/h | 15418m | -9.4m/s | -53.6°C | 0.5% | 119hPa | 2.7V | 03:05:04 | 02:16:08 | 00:00:00 | |
| SONCRA | 2026-08-31 06:44:56 | 50.15872 | 8.88537 | 72° | 89km/h | 15437m | -9.3m/s | -53.6°C | 1.2% | 118.7hPa | 2.6V | 00:00:00 | 00:00:00 | 00:00:00 | |
| DL3AQ-11 | 2026-08-31 06:44:55 | 50.15872 | 8.88537 | 72° | 89km/h | 15437m | -9.3m/s | -53.6°C | 1.2% | 118.7hPa | 2.6V | 00:00:00 | 00:00:00 | 00:00:00 | |
| DL1ZP-14 | 2026-08-31 06:44:53 | 50.15856 | 8.88466 | 67° | 100km/h | 15455m | -9.1m/s | -53.6°C | 1.2% | 118.3hPa | 2.6V | 00:00:00 | 00:00:00 | 00:00:00 | |
| BIOWL9-15 | 2026-08-31 06:44:52 | 50.15833 | 8.88394 | 60° | 104km/h | 15473m | -8.8m/s | -53.7°C | 1.2% | 118.0hPa | 2.6V | 00:00:00 | 00:00:00 | 00:00:00 | |
| DL9PN | 2026-08-31 06:44:51 | 50.15806 | 8.88326 | 55° | 99km/h | 15491m | -9.3m/s | -53.9°C | 1.3% | 117.7hPa | 2.6V | 00:00:00 | 00:00:00 | 00:00:00 | |
| DL1NUX | 2026-08-31 06:44:50 | 50.15806 | 8.88326 | 55° | 99km/h | 15491m | -9.3m/s | -53.9°C | 3.8% | 117.7hPa | 2.6V | 03:05:04 | 02:16:00 | 00:00:00 | |
| DK5PH-5 | 2026-08-31 06:44:50 | 50.15820 | 8.88359 | 58° | 97km/h | 15482m | -9.0m/s | -53.7°C | 3.7% | 117.8hPa | 2.6V | 00:00:00 | 02:16:01 | 00:00:00 | |
| DL1XH1-15 | 2026-08-31 06:44:49 | 50.15751 | 8.88174 | 71° | 89km/h | 15537m | -9m/s | -54.1°C | 3.7% | 116.8hPa | 2.6V | 03:05:09 | 02:15:55 | 00:00:00 | |
| DL1XH-west | 2026-08-31 06:44:49 | 50.15806 | 8.88326 | 56° | 99km/h | 15491m | -9.3m/s | -53.9°C | 0.5% | 117.7hPa | 2.6V | 03:05:04 | 02:16:00 | 00:00:00 | |
| BIOWL1-15 | 2026-08-31 06:44:48 | 50.15792 | 8.88295 | 55° | 93km/h | 15501m | -9.2m/s | -53.9°C | 0.5% | 117.5hPa | 2.6V | 03:05:55 | 02:15:59 | 00:00:00 | |
| HSKMA3-T | 2026-08-31 06:44:46 | 50.15768 | 8.88236 | 62° | 84km/h | 15519m | -8.9m/s | -54.1°C | 0.5% | 117.2hPa | 2.7V | 03:05:55 | 02:15:57 | 00:00:00 | |
| DO3MHA-11 | 2026-08-31 06:44:46 | 50.15768 | 8.88236 | 62° | 100km/h | 15519m | -8.9m/s | -54.0°C | 3.8% | 117.1hPa | 2.7V | 00:00:00 | 02:15:57 | 00:00:00 | |
| DL1NUX | 2026-08-31 06:44:44 | 50.15714 | 8.87983 | 73° | 110km/h | 15584m | -9.5m/s | -53.9°C | 3.9% | 115.9hPa | 2.7V | 03:05:14 | 02:15:50 | 00:00:00 | |
| DF7PN | 2026-08-31 06:44:44 | 50.15744 | 8.88139 | 72° | 95km/h | 15546m | -9.5m/s | -54.1°C | 1.2% | 116.7hPa | 2.7V | 00:00:00 | 00:00:00 | 00:00:00 | |
| DL4BBY-15 | 2026-08-31 06:44:42 | 50.15736 | 8.88102 | 74° | 91km/h | 15555m | -9.5m/s | -54.6°C | 0% | 0hPa | 2.7V | 00:00:00 | 00:00:00 | 00:00:00 | |
| BIOWL7-15 | 2026-08-31 06:44:41 | 50.15736 | 8.88102 | 74° | 100km/h | 15556m | -9.6m/s | -54.1°C | 1.2% | 116.5hPa | 2.7V | 03:05:00 | 00:00:00 | 00:00:00 | |
| DB0UT-9 | 2026-08-31 06:44:40 | 50.15730 | 8.88064 | 75° | 104km/h | 15566m | -9.7m/s | -54.0°C | 1.3% | 116.3hPa | 2.7V | 03:05:00 | 00:00:00 | 00:00:00 | |
| DL1XH1-15 | 2026-08-31 06:44:39 | 50.15668 | 8.87771 | 67° | 115km/h | 15632m | -9.5m/s | -53.8°C | 3.8% | 115.1hPa | 2.7V | 03:05:19 | 02:15:45 | 00:00:00 | |
| DL1XH-west | 2026-08-31 06:44:38 | 50.15706 | 8.87942 | 73° | 113km/h | 15594m | -9.4m/s | -53.9°C | 0.6% | 115.7hPa | 2.6V | 03:05:55 | 02:15:49 | 00:00:00 | |
| BIOWL1-15 | 2026-08-31 06:44:37 | 50.15698 | 8.87899 | 72° | 115km/h | 15603m | -9.5m/s | -53.8°C | 0.6% | 115.6hPa | 2.6V | 03:05:55 | 02:15:48 | 00:00:00 | |
| HSKMA3-T | 2026-08-31 06:44:35 | 50.15678 | 8.87813 | 69° | 117km/h | 15623m | -9.5m/s | -53.8°C | 0.6% | 115.2hPa | 2.7V | 03:05:55 | 02:15:46 | 00:00:00 | |
| DO9LL-15 | 2026-08-31 06:44:35 | 50.15678 | 8.87813 | 70° | 86km/h | 15623m | -9.4m/s | -53.7°C | 3.9% | 115.2hPa | 2.7V | 03:05:00 | 02:15:46 | 00:00:00 | |
| DJ2DS-15 | 2026-08-31 06:44:34 | 50.15668 | 8.87771 | 67° | 115km/h | 15632m | -9.5m/s | -53.8°C | 1.2% | 115.1hPa | 2.7V | 00:00:00 | 00:00:00 | 00:00:00 | |
| HEMX73-11 | 2026-08-31 06:44:33 | 50.15668 | 8.87771 | 68° | 115km/h | 15632m | -9.5m/s | -53.8°C | 1.2% | 115.1hPa | 2.7V | 03:05:00 | 00:00:00 | 00:00:00 | |
| DL1XH1-15 | 2026-08-31 06:44:29 | 50.15553 | 8.87435 | 63° | 75km/h | 15726m | -9.4m/s | -53.8°C | 3.7% | 113.4hPa | 2.7V | 03:05:29 | 02:15:35 | 00:00:00 | |
| DL1XH-west | 2026-08-31 06:44:27 | 50.15583 | 8.87520 | 60° | 88km/h | 15697m | -9.5m/s | -54°C | 0.4% | 114hPa | 2.6V | 03:05:55 | 02:15:38 | 00:00:00 | |
| BIOWL1-15 | 2026-08-31 06:44:26 | 50.15572 | 8.87490 | 61° | 84km/h | 15707m | -9.4m/s | -53.9°C | 0.4% | 113.8hPa | 2.6V | 03:05:55 | 02:15:37 | 00:00:00 | |
| DO3MHA-11 | 2026-08-31 06:44:26 | 50.15572 | 8.87490 | 62° | 73km/h | 15707m | -9.4m/s | -53.9°C | 3.7% | 113.7hPa | 2.6V | 03:05:00 | 02:15:37 | 00:00:00 | |
| DM0DOS-11 | 2026-08-31 06:44:25 | 50.15528 | 8.87332 | 75° | 68km/h | 15764m | -9.4m/s | -53.7°C | 3.7% | 112.7hPa | 2.6V | 03:05:33 | 02:15:31 | 00:00:00 | |
| HSKMA3-T | 2026-08-31 06:44:25 | 50.15562 | 8.87462 | 62° | 80km/h | 15716m | -9.5m/s | -53.8°C | 0.4% | 113.6hPa | 2.6V | 03:05:55 | 02:15:36 | 00:00:00 | |
| DJTTGO | 2026-08-31 06:44:24 | 50.15562 | 8.87462 | 63° | 80km/h | 15716m | -9.5m/s | -53.8°C | 1.2% | 113.6hPa | 2.6V | 03:05:00 | 00:00:00 | 00:00:00 | |
| DF2AP-13 | 2026-08-31 06:44:23 | 50.15545 | 8.87409 | 67° | 77km/h | 15735m | -9.7m/s | -53.7°C | 3.7% | 113.2hPa | 2.6V | 03:05:00 | 02:15:34 | 00:00:00 | |
| NBG1-10 | 2026-08-31 06:44:22 | 50.15538 | 8.87383 | 69° | 68km/h | 15745m | -9.6m/s | -53.7°C | 3.7% | 113.0hPa | 2.6V | 00:00:00 | 02:15:33 | 00:00:00 | |
| BIOWL9-15 | 2026-08-31 06:44:21 | 50.15533 | 8.87358 | 72° | 68km/h | 15755m | -9.8m/s | -53.7°C | 1.2% | 112.9hPa | 2.6V | 00:00:00 | 00:00:00 | 00:00:00 | |
| DL9PN | 2026-08-31 06:44:20 | 50.15524 | 8.87306 | 78° | 68km/h | 15773m | -9.5m/s | -53.8°C | 1.2% | 112.5hPa | 2.6V | 00:00:00 | 00:00:00 | 00:00:00 | |
| DL1XH1-15 | 2026-08-31 06:44:19 | 50.15514 | 8.87161 | 83° | 84km/h | 15820m | -9.4m/s | -54°C | 3.8% | 111.8hPa | 2.6V | 03:05:39 | 02:15:25 | 00:00:00 | |
| BIOWL1-15 | 2026-08-31 06:44:17 | 50.15516 | 8.87193 | 86° | 78km/h | 15811m | -9.4m/s | -54°C | 0.5% | 111.9hPa | 2.6V | 03:05:55 | 02:15:26 | 00:00:00 | |
| DL1XH-west | 2026-08-31 06:44:16 | 50.15517 | 8.87223 | 85° | 75km/h | 15801m | -9.5m/s | -53.9°C | 0.5% | 112.1hPa | 2.6V | 03:05:55 | 02:15:27 | 00:00:00 | |
| HSKMA3-T | 2026-08-31 06:44:14 | 50.15514 | 8.87161 | 84° | 84km/h | 15820m | -9.4m/s | -54°C | 0.5% | 111.8hPa | 2.6V | 03:05:55 | 02:15:25 | 00:00:00 | |
| DL1NUX | 2026-08-31 06:44:13 | 50.15488 | 8.86995 | 67° | 88km/h | 15867m | -9.2m/s | -54.3°C | 4% | 111hPa | 2.6V | 03:05:44 | 02:15:20 | 00:00:00 | |
| DF7PN | 2026-08-31 06:44:13 | 50.15507 | 8.87095 | 78° | 88km/h | 15839m | -9.5m/s | -54.2°C | 1.3% | 111.4hPa | 2.6V | 00:00:00 | 00:00:00 | 00:00:00 | |
| DL4BBY-15 | 2026-08-31 06:44:12 | 50.15507 | 8.87095 | 79° | 69km/h | 15840m | -9.4m/s | -54.7°C | 0% | 0hPa | 2.6V | 00:00:00 | 00:00:00 | 00:00:00 | |
| DB0ND-19 | 2026-08-31 06:44:11 | 50.15502 | 8.87061 | 74° | 88km/h | 15849m | -9.3m/s | -54.3°C | 1.2% | 111.3hPa | 2.6V | 00:00:00 | 00:00:00 | 00:00:00 | |
| DL1XH1-15 | 2026-08-31 06:44:09 | 50.15439 | 8.86860 | 57° | 68km/h | 15913m | -9.2m/s | -54.2°C | 4% | 110.2hPa | 2.6V | 03:05:49 | 02:15:15 | 00:00:00 | |
| DB0NH | 2026-08-31 06:44:07 | 50.15469 | 8.86936 | 61° | 66km/h | 15885m | -9.3m/s | -54.3°C | 4.0% | 110.6hPa | 2.7V | 00:00:00 | 02:15:18 | 00:00:00 | |
| DL1XH-15 | 2026-08-31 06:44:06 | 50.15414 | 8.86799 | 59° | 55km/h | 15940m | -9.2m/s | -53.5°C | 3.7% | 109.7hPa | 2.7V | 03:05:52 | 02:15:12 | 00:00:00 | |
| DL1XH-west | 2026-08-31 06:44:06 | 50.15459 | 8.86909 | 59° | 77km/h | 15894m | -9.2m/s | -54.4°C | 0.6% | 110.5hPa | 2.7V | 03:05:55 | 02:15:17 | 00:00:00 | |
| DO3MHA-11 | 2026-08-31 06:44:06 | 50.15458 | 8.86909 | 59° | 58km/h | 15894m | -9.2m/s | -54.3°C | 4.0% | 110.4hPa | 2.7V | 00:00:00 | 02:15:17 | 00:00:00 | |
| DM0DOS-11 | 2026-08-31 06:44:05 | 50.15408 | 8.86781 | 61° | 51km/h | 15949m | -9.4m/s | -53.5°C | 3.7% | 109.5hPa | 2.6V | 03:05:53 | 02:15:11 | 00:00:00 | |
| HSKMA3-T | 2026-08-31 06:44:04 | 50.15439 | 8.86860 | 57° | 68km/h | 15913m | -9.2m/s | -54.2°C | 0.6% | 110.2hPa | 2.6V | 03:05:55 | 02:15:15 | 00:00:00 | |
| DD1CC8 | 2026-08-31 06:44:03 | 50.15430 | 8.86839 | 57° | 62km/h | 15922m | -9.0m/s | -53.8°C | 1.2% | 110.0hPa | 2.6V | 00:00:00 | 00:00:00 | 00:00:00 | |
| DF1GD-15 | 2026-08-31 06:44:02 | 50.15430 | 8.86838 | 58° | 64km/h | 15922m | -9.0m/s | -53.8°C | 1.2% | 110.0hPa | 2.6V | 03:05:00 | 00:00:00 | 00:00:00 | |
| DL3AQ-11 | 2026-08-31 06:44:00 | 50.15402 | 8.86764 | 64° | 47km/h | 15959m | -9.3m/s | -53.5°C | 1.1% | 109.4hPa | 2.6V | 00:00:00 | 00:00:00 | 00:00:00 | |
| DL1XH1-15 | 2026-08-31 06:43:59 | 50.15387 | 8.86674 | 87° | 51km/h | 16005m | -9.5m/s | -53.4°C | 3.6% | 108.6hPa | 2.6V | 03:05:59 | 02:15:05 | 00:00:00 | |
| DJ2DS-15 | 2026-08-31 06:43:58 | 50.15393 | 8.86729 | 72° | 46km/h | 15977m | -9.2m/s | -53.5°C | 1.1% | 109.0hPa | 2.7V | 00:00:00 | 00:00:00 | 00:00:00 | |
| SO1NDE-10 | 2026-08-31 06:43:57 | 50.15393 | 8.86729 | 73° | 58km/h | 15977m | -9.2m/s | -53.4°C | 3.7% | 109.0hPa | 2.7V | 00:00:00 | 02:15:08 | 00:00:00 | |
| DO3MHA-11 | 2026-08-31 06:43:56 | 50.15390 | 8.86712 | 78° | 64km/h | 15987m | -9.4m/s | -53.4°C | 3.6% | 108.8hPa | 2.7V | 00:00:00 | 02:15:07 | 00:00:00 | |
| DM0DOS-11 | 2026-08-31 06:43:55 | 50.15388 | 8.86578 | 91° | 71km/h | 16042m | -9.3m/s | -53.5°C | 3.7% | 108hPa | 2.7V | 03:06:03 | 02:15:01 | 00:00:00 | |
| DL1XH-west | 2026-08-31 06:43:55 | 50.15388 | 8.86694 | 83° | 47km/h | 15996m | -9.3m/s | -53.4°C | 0.3% | 108.7hPa | 2.7V | 03:06:46 | 02:15:06 | 00:00:00 | |
| SONCRA | 2026-08-31 06:43:54 | 50.15387 | 8.86653 | 91° | 55km/h | 16014m | -9.2m/s | -53.4°C | 1.1% | 108.4hPa | 2.6V | 00:00:00 | 00:00:00 | 00:00:00 | |
| DL1NUX | 2026-08-31 06:43:53 | 50.15388 | 8.86549 | 89° | 77km/h | 16051m | -9.4m/s | -53.4°C | 3.7% | 107.8hPa | 2.6V | 03:06:04 | 02:15:00 | 00:00:00 | |
| BIOWL1-15 | 2026-08-31 06:43:53 | 50.15387 | 8.86653 | 91° | 57km/h | 16014m | -9.2m/s | -53.4°C | 0.3% | 108.4hPa | 2.6V | 03:06:46 | 02:15:04 | 00:00:00 | |
| DL1ZP-14 | 2026-08-31 06:43:51 | 50.15388 | 8.86605 | 92° | 66km/h | 16033m | -9.3m/s | -53.4°C | 1.1% | 108.1hPa | 2.7V | 00:00:00 | 00:00:00 | 00:00:00 | |
| BIOWL9-15 | 2026-08-31 06:43:50 | 50.15389 | 8.86549 | 89° | 75km/h | 16051m | -9.4m/s | -53.4°C | 1.1% | 107.8hPa | 2.6V | 00:00:00 | 00:00:00 | 00:00:00 | |
| DL1XH1-15 | 2026-08-31 06:43:49 | 50.15378 | 8.86389 | 77° | 82km/h | 16096m | -8.7m/s | -53.5°C | 3.8% | 107hPa | 2.6V | 03:06:09 | 02:14:55 | 00:00:00 | |
| DL9PN | 2026-08-31 06:43:49 | 50.15388 | 8.86518 | 88° | 78km/h | 16061m | -9.1m/s | -53.4°C | 1.1% | 107.7hPa | 2.7V | 00:00:00 | 00:00:00 | 00:00:00 | |
| DO1YAY-16 | 2026-08-31 06:43:47 | 50.15385 | 8.86454 | 83° | 82km/h | 16079m | -8.9m/s | -53.4°C | 1.2% | 107.4hPa | 2.7V | 00:00:00 | 00:00:00 | 00:00:00 | |
| DO3MHA-11 | 2026-08-31 06:43:46 | 50.15385 | 8.86454 | 84° | 75km/h | 16079m | -8.9m/s | -53.4°C | 3.8% | 107.3hPa | 2.7V | 03:06:00 | 02:14:57 | 00:00:00 | |
| DM0DOS-11 | 2026-08-31 06:43:45 | 50.15353 | 8.86273 | 64° | 73km/h | 16131m | -9m/s | -53.7°C | 3.8% | 106.5hPa | 2.7V | 03:06:13 | 02:14:51 | 00:00:00 | |
| DL1XH-west | 2026-08-31 06:43:44 | 50.15378 | 8.86389 | 77° | 82km/h | 16096m | -8.7m/s | -53.5°C | 0.4% | 107hPa | 2.6V | 03:06:46 | 02:14:55 | 00:00:00 | |
| DL1NUX | 2026-08-31 06:43:43 | 50.15337 | 8.86226 | 59° | 64km/h | 16149m | -9.2m/s | -53.5°C | 3.8% | 106.2hPa | 2.6V | 03:06:15 | 02:14:49 | 00:00:00 | |
| BIOWL1-15 | 2026-08-31 06:43:43 | 50.15373 | 8.86358 | 75° | 82km/h | 16105m | -8.6m/s | -53.6°C | 0.4% | 107hPa | 2.6V | 03:06:46 | 02:14:54 | 00:00:00 | |
| HSKMA3-T | 2026-08-31 06:43:42 | 50.15367 | 8.86328 | 71° | 78km/h | 16114m | -8.6m/s | -53.7°C | 0.4% | 106.8hPa | 2.7V | 03:06:46 | 02:14:53 | 00:00:00 | |
| DF7PN | 2026-08-31 06:43:42 | 50.15360 | 8.86300 | 68° | 75km/h | 16122m | -8.9m/s | -53.7°C | 1.2% | 106.7hPa | 2.7V | 00:00:00 | 00:00:00 | 00:00:00 | |
| DB0ND-19 | 2026-08-31 06:43:40 | 50.15353 | 8.86273 | 64° | 71km/h | 16131m | -9.0m/s | -53.7°C | 1.1% | 106.5hPa | 2.7V | 00:00:00 | 00:00:00 | 00:00:00 | |
| DL1XH1-15 | 2026-08-31 06:43:39 | 50.15303 | 8.86153 | 50° | 47km/h | 16187m | -9.6m/s | -52.9°C | 3.7% | 105.5hPa | 2.7V | 03:06:19 | 02:14:45 | 00:00:00 | |
| DB0UT-9 | 2026-08-31 06:43:38 | 50.15345 | 8.86248 | 63° | 68km/h | 16140m | -9.0m/s | -53.6°C | 1.2% | 106.4hPa | 2.6V | 00:00:00 | 00:00:00 | 00:00:00 | |
| DL8DAS-15 | 2026-08-31 06:43:37 | 50.15336 | 8.86225 | 60° | 64km/h | 16150m | -9.3m/s | -53.5°C | 1.2% | 106.2hPa | 2.6V | 03:06:00 | 00:00:00 | 00:00:00 | |
| DB0NH | 2026-08-31 06:43:36 | 50.15320 | 8.86186 | 55° | 47km/h | 16168m | -9.4m/s | -53.2°C | 3.7% | 105.8hPa | 2.6V | 00:00:00 | 02:14:47 | 00:00:00 | |
| DM0DOS-11 | 2026-08-31 06:43:35 | 50.15278 | 8.86106 | 53° | 31km/h | 16224m | -9.3m/s | -52.6°C | 3.6% | 104.9hPa | 2.6V | 03:06:23 | 02:14:41 | 00:00:00 | |
| BIOWL1-15 | 2026-08-31 06:43:34 | 50.15283 | 8.86116 | 49° | 35km/h | 16215m | -9.4m/s | -52.6°C | 0.2% | 105.1hPa | 2.6V | 03:06:46 | 02:14:42 | 00:00:00 | |
| DL8DAS-14 | 2026-08-31 06:43:34 | 50.15304 | 8.86153 | 50° | 47km/h | 16187m | -9.6m/s | -52.9°C | 1.1% | 105.5hPa | 2.7V | 00:00:00 | 00:00:00 | 00:00:00 | |
| DL1NUX | 2026-08-31 06:43:33 | 50.15271 | 8.86087 | 68° | 27km/h | 16242m | -9.1m/s | -52.7°C | 3.6% | 104.6hPa | 2.7V | 03:06:25 | 02:14:39 | 00:00:00 | |
| DL1XH-west | 2026-08-31 06:43:33 | 50.15296 | 8.86139 | 49° | 44km/h | 16196m | -9.3m/s | -52.8°C | 0.3% | 105.4hPa | 2.7V | 03:06:46 | 02:14:44 | 00:00:00 | |
| HSKMA3-T | 2026-08-31 06:43:32 | 50.15289 | 8.86127 | 48° | 38km/h | 16205m | -9.1m/s | -52.7°C | 0.3% | 105.3hPa | 2.6V | 03:06:46 | 02:14:43 | 00:00:00 | |
| DL1XH1-15 | 2026-08-31 06:43:29 | 50.15268 | 8.86037 | 92° | 40km/h | 16279m | -9.5m/s | -52.9°C | 3.7% | 104hPa | 2.7V | 03:06:29 | 02:14:35 | 00:00:00 | |
| DJ2DS-15 | 2026-08-31 06:43:27 | 50.15269 | 8.86077 | 80° | 51km/h | 16252m | -8.8m/s | -52.7°C | 3.6% | 104.5hPa | 2.7V | 00:00:00 | 02:14:38 | 00:00:00 | |
| DO3MHA-11 | 2026-08-31 06:43:26 | 50.15268 | 8.86065 | 89° | 49km/h | 16260m | -9.1m/s | -52.8°C | 3.7% | 104.2hPa | 2.7V | 00:00:00 | 02:14:37 | 00:00:00 | |
| DM0DOS-11 | 2026-08-31 06:43:24 | 50.15262 | 8.85936 | 75° | 60km/h | 16325m | -9.3m/s | -52°C | 3.5% | 103.2hPa | 2.7V | 03:06:34 | 02:14:30 | 00:00:00 | |
| DL1NUX | 2026-08-31 06:43:23 | 50.15258 | 8.85913 | 70° | 62km/h | 16334m | -9.1m/s | -52.1°C | 3.5% | 103.2hPa | 2.7V | 03:06:35 | 02:14:29 | 00:00:00 | |
| DL1XH-west | 2026-08-31 06:43:22 | 50.15268 | 8.86001 | 88° | 49km/h | 16297m | -9.3m/s | -52.9°C | 0.4% | 103.7hPa | 2.6V | 03:06:46 | 02:14:33 | 00:00:00 | |
| HSKMA3-T | 2026-08-31 06:43:21 | 50.15267 | 8.85981 | 84° | 55km/h | 16307m | -9.3m/s | -52.6°C | 0.3% | 103.5hPa | 2.6V | 03:06:46 | 02:14:32 | 00:00:00 | |
| DF2AP-13 | 2026-08-31 06:43:20 | 50.15265 | 8.85959 | 80° | 55km/h | 16316m | -9.1m/s | -52.0°C | 3.5% | 103.4hPa | 2.7V | 00:00:00 | 02:14:31 | 00:00:00 | |
| BIOWL9-15 | 2026-08-31 06:43:19 | 50.15258 | 8.85913 | 70° | 60km/h | 16334m | -9.1m/s | -52.1°C | 1.0% | 103.2hPa | 2.6V | 00:00:00 | 00:00:00 | 00:00:00 | |
| DC4HF-4 | 2026-08-31 06:43:17 | 50.15252 | 8.85891 | 66° | 62km/h | 16344m | -9.5m/s | -52.1°C | 1.0% | 103.0hPa | 2.6V | 00:00:00 | 00:00:00 | 00:00:00 | |
| DO3MHA-11 | 2026-08-31 06:43:16 | 50.15245 | 8.85868 | 63° | 55km/h | 16353m | -9.5m/s | -52.0°C | 3.5% | 102.8hPa | 2.6V | 00:00:00 | 02:14:27 | 00:00:00 | |
| DM7RM-13 | 2026-08-31 06:43:15 | 50.15245 | 8.85868 | 63° | 62km/h | 16353m | -9.5m/s | -52.1°C | 1.0% | 102.8hPa | 2.6V | 03:06:00 | 00:00:00 | 00:00:00 | |
| DM0DOS-11 | 2026-08-31 06:43:14 | 50.15177 | 8.85749 | 33° | 49km/h | 16416m | -10.4m/s | -50.4°C | 3% | 101.9hPa | 2.6V | 03:06:44 | 02:14:20 | 00:00:00 | |
| DL1NUX | 2026-08-31 06:43:13 | 50.15166 | 8.85739 | 28° | 47km/h | 16426m | -10.8m/s | -50.5°C | 3% | 101.7hPa | 2.6V | 03:06:45 | 02:14:19 | 00:00:00 | |
| DL1XH-west | 2026-08-31 06:43:11 | 50.15199 | 8.85775 | 42° | 57km/h | 16396m | -8.7m/s | -50.5°C | 0% | 102.1hPa | 2.7V | 03:06:46 | 02:14:22 | 00:00:00 | |
| BIOWL1-15 | 2026-08-31 06:43:10 | 50.15188 | 8.85761 | 38° | 55km/h | 16406m | -9.9m/s | -50.5°C | 0% | 102.1hPa | 2.6V | 03:06:46 | 02:14:21 | 00:00:00 | |
| DB0ND-19 | 2026-08-31 06:43:09 | 50.15177 | 8.85749 | 33° | 49km/h | 16416m | -10.4m/s | -50.4°C | 0.9% | 101.9hPa | 2.7V | 00:00:00 | 00:00:00 | 00:00:00 | |
| DL3AQ-11 | 2026-08-31 06:43:07 | 50.15147 | 8.85724 | 24° | 37km/h | 16447m | -10.6m/s | -50.6°C | 0.8% | 101.3hPa | 2.7V | 00:00:00 | 00:00:00 | 00:00:00 | |
| DF3TZ-5 | 2026-08-31 06:43:06 | 50.15097 | 8.85690 | 31° | 26km/h | 16514m | -9.7m/s | 0°C | -1.0% | -1.0hPa | 2.7V | 00:00:00 | 00:00:00 | 00:00:00 | |
| DM0DOS-11 | 2026-08-31 06:43:04 | 50.15097 | 8.85690 | 31° | 26km/h | 16514m | -9.7m/s | -50.9°C | 3.1% | 100.3hPa | 2.7V | 03:06:54 | 02:14:10 | 00:00:00 | |
| DL1NUX | 2026-08-31 06:43:03 | 50.15091 | 8.85685 | 34° | 26km/h | 16523m | -9.4m/s | -50.9°C | 3.2% | 100.2hPa | 2.7V | 03:06:55 | 02:14:09 | 00:00:00 | |
| DL1XH-west | 2026-08-31 06:43:00 | 50.15102 | 8.85695 | 29° | 26km/h | 16504m | -9.6m/s | -50.8°C | 0% | 100.4hPa | 2.7V | 03:07:37 | 02:14:11 | 00:00:00 | |
| BIOWL1-15 | 2026-08-31 06:42:59 | 50.15097 | 8.85690 | 31° | 26km/h | 16514m | -9.7m/s | -50.9°C | 0% | 100.3hPa | 2.7V | 03:07:37 | 02:14:10 | 00:00:00 | |
| DL3AQ-11 | 2026-08-31 06:42:56 | 50.15075 | 8.85665 | 41° | 29km/h | 16553m | -10.2m/s | -50.7°C | 0.9% | 99.8hPa | 2.7V | 00:00:00 | 00:00:00 | 00:00:00 | |
| DO3DL | 2026-08-31 06:42:55 | 50.15080 | 8.85672 | 41° | 27km/h | 16543m | -10.7m/s | -50.8°C | 0.9% | 99.9hPa | 2.7V | 03:07:00 | 00:00:00 | 00:00:00 | |
| DM0DOS-11 | 2026-08-31 06:42:54 | 50.15035 | 8.85594 | 48° | 49km/h | 16610m | -10.3m/s | -50.8°C | 3% | 98.8hPa | 2.7V | 03:07:04 | 02:14:00 | 00:00:00 | |
| HTAHTA | 2026-08-31 06:42:54 | 50.15063 | 8.85646 | 48° | 35km/h | 16572m | -9.1m/s | -50.6°C | -1.0% | -1.0hPa | 2.6V | 00:00:00 | 00:00:00 | 00:00:00 | |
| DL1NUX | 2026-08-31 06:42:53 | 50.15026 | 8.85580 | 45° | 53km/h | 16620m | -10m/s | -50.9°C | 3% | 98.7hPa | 2.6V | 03:07:05 | 02:13:59 | 00:00:00 | |
| DL1XH-west | 2026-08-31 06:42:50 | 50.15043 | 8.85609 | 50° | 47km/h | 16600m | -9.7m/s | -50.8°C | 0% | 99hPa | 2.7V | 03:07:37 | 02:14:01 | 00:00:00 | |
| BIOWL1-15 | 2026-08-31 06:42:49 | 50.15035 | 8.85594 | 48° | 49km/h | 16610m | -10.3m/s | -50.8°C | 0% | 98.8hPa | 2.7V | 03:07:37 | 02:14:00 | 00:00:00 | |
| BIOWL9-15 | 2026-08-31 06:42:48 | 50.15016 | 8.85565 | 41° | 53km/h | 16630m | -10.6m/s | -50.9°C | 0.9% | 98.5hPa | 2.6V | 00:00:00 | 00:00:00 | 00:00:00 | |
| DL1XH-15 | 2026-08-31 06:42:47 | 50.14957 | 8.85514 | 15° | 53km/h | 16678m | -9.7m/s | -51.1°C | 3% | 97.8hPa | 2.6V | 03:07:11 | 02:13:53 | 00:00:00 | |
| DJ2DS-15 | 2026-08-31 06:42:47 | 50.15016 | 8.85565 | 42° | 55km/h | 16630m | -10.5m/s | -50.8°C | 3.1% | 98.5hPa | 2.7V | 03:07:00 | 02:13:58 | 00:00:00 | |
| DO3MHA-11 | 2026-08-31 06:42:46 | 50.15006 | 8.85551 | 40° | 53km/h | 16641m | -10.3m/s | -50.8°C | 3.0% | 98.4hPa | 2.7V | 00:00:00 | 02:13:57 | 00:00:00 | |
| DM0DOS-11 | 2026-08-31 06:42:44 | 50.14920 | 8.85499 | 14° | 49km/h | 16709m | -9.9m/s | -51.4°C | 3.1% | 97.3hPa | 2.7V | 03:07:14 | 02:13:50 | 00:00:00 | |
| DL1NUX | 2026-08-31 06:42:43 | 50.14908 | 8.85494 | 18° | 49km/h | 16719m | -10.1m/s | -51.5°C | 3.2% | 97.2hPa | 2.7V | 03:07:15 | 02:13:49 | 00:00:00 | |
| HSKMA3-T | 2026-08-31 06:42:39 | 50.14920 | 8.85499 | 15° | 49km/h | 16710m | -9.9m/s | -51.4°C | 0% | 97.3hPa | 2.7V | 03:07:37 | 02:13:50 | 00:00:00 | |
| BIOWL1-15 | 2026-08-31 06:42:38 | 50.14908 | 8.85494 | 19° | 49km/h | 16719m | -10.1m/s | -51.5°C | 0% | 97.2hPa | 2.7V | 03:07:37 | 02:13:49 | 00:00:00 | |
| DO3MHA-11 | 2026-08-31 06:42:36 | 50.14883 | 8.85480 | 20° | 57km/h | 16741m | -10.9m/s | -51.6°C | 3.2% | 96.8hPa | 2.6V | 00:00:00 | 02:13:47 | 00:00:00 | |
| DO3DL | 2026-08-31 06:42:35 | 50.14883 | 8.85480 | 21° | 53km/h | 16741m | -11.0m/s | -51.7°C | 0.9% | 96.9hPa | 2.7V | 03:07:00 | 00:00:00 | 00:00:00 | |
| DL1XH-15 | 2026-08-31 06:42:35 | 50.14802 | 8.85430 | 22° | 58km/h | 16811m | -12.2m/s | -52.1°C | 3.3% | 95.8hPa | 2.6V | 03:07:23 | 02:13:41 | 00:00:00 | |
| DH7VM-15 | 2026-08-31 06:42:34 | 50.14870 | 8.85473 | 22° | 55km/h | 16752m | -11.6m/s | -51.7°C | 0.9% | 96.7hPa | 2.7V | 00:00:00 | 00:00:00 | 00:00:00 | |
| DM0DOS-11 | 2026-08-31 06:42:33 | 50.14776 | 8.85412 | 26° | 55km/h | 16835m | -12.6m/s | -52.3°C | 3.4% | 95.5hPa | 2.7V | 03:07:25 | 02:13:39 | 00:00:00 | |
| DK5PH-5 | 2026-08-31 06:42:33 | 50.14843 | 8.85456 | 22° | 57km/h | 16775m | -12.1m/s | -51.9°C | 3.3% | 96.3hPa | 2.6V | 00:00:00 | 02:13:44 | 00:00:00 | |
| DL8DAS-14 | 2026-08-31 06:42:32 | 50.14830 | 8.85448 | 23° | 57km/h | 16787m | -12.0m/s | -52.0°C | 0.9% | 96.2hPa | 2.6V | 00:00:00 | 00:00:00 | 00:00:00 | |
| DL1NUX | 2026-08-31 06:42:31 | 50.14751 | 8.85393 | 25° | 55km/h | 16859m | -12.1m/s | -52.3°C | 3.3% | 95.1hPa | 2.6V | 03:07:27 | 02:13:37 | 00:00:00 | |
| HSKMA3-T | 2026-08-31 06:42:29 | 50.14789 | 8.85422 | 24° | 57km/h | 16823m | -12m/s | -52.2°C | 0.1% | 95.7hPa | 2.6V | 03:07:37 | 02:13:40 | 00:00:00 | |
| BIOWL1-15 | 2026-08-31 06:42:28 | 50.14776 | 8.85412 | 26° | 55km/h | 16835m | -12.6m/s | -52.3°C | 0.1% | 95.5hPa | 2.7V | 03:07:37 | 02:13:39 | 00:00:00 | |
| DB0NH | 2026-08-31 06:42:28 | 50.14776 | 8.85412 | 27° | 55km/h | 16835m | -12.6m/s | -52.2°C | 3.4% | 95.4hPa | 2.6V | 03:07:00 | 02:13:39 | 00:00:00 | |
| DL3AQ-11 | 2026-08-31 06:42:27 | 50.14750 | 8.85393 | 25° | 55km/h | 16859m | -12.1m/s | -52.3°C | 0.9% | 95.1hPa | 2.6V | 00:00:00 | 00:00:00 | 00:00:00 | |
| DO3MHA-11 | 2026-08-31 06:42:26 | 50.14750 | 8.85393 | 26° | 55km/h | 16859m | -12.0m/s | -52.3°C | 3.3% | 95.1hPa | 2.6V | 03:07:00 | 02:13:37 | 00:00:00 | |
| DL1XH-15 | 2026-08-31 06:42:25 | 50.14680 | 8.85327 | 33° | 53km/h | 16933m | -12.4m/s | -52.4°C | 3.4% | 94.1hPa | 2.6V | 03:07:33 | 02:13:31 | 00:00:00 | |
| DM0DOS-11 | 2026-08-31 06:42:23 | 50.14658 | 8.85303 | 37° | 55km/h | 16958m | -12.3m/s | -52.6°C | 3.5% | 93.7hPa | 2.6V | 03:07:35 | 02:13:29 | 00:00:00 | |
| DB0UT-7 | 2026-08-31 06:42:23 | 50.14714 | 8.85362 | 31° | 51km/h | 16896m | -12.2m/s | -52.2°C | 3.4% | 94.6hPa | 2.7V | 00:00:00 | 00:00:00 | 00:00:00 | |
| DL8DAS-15 | 2026-08-31 06:42:21 | 50.14703 | 8.85351 | 35° | 53km/h | 16909m | -12.2m/s | -52.2°C | 1.0% | 94.4hPa | 2.6V | 00:00:00 | 00:00:00 | 00:00:00 | |
| SONCRA | 2026-08-31 06:42:20 | 50.14680 | 8.85327 | 33° | 53km/h | 16933m | -12.4m/s | -52.4°C | 0.9% | 94.1hPa | 2.6V | 00:00:00 | 00:00:00 | 00:00:00 | |
| DL1XH1-15 | 2026-08-31 06:42:19 | 50.14614 | 8.85252 | 35° | 55km/h | 17007m | -12.5m/s | -52.6°C | 3.5% | 93hPa | 2.6V | 03:07:39 | 02:13:25 | 00:00:00 | |
| HSKMA3-T | 2026-08-31 06:42:19 | 50.14669 | 8.85315 | 36° | 53km/h | 16946m | -12.4m/s | -52.6°C | 0.2% | 93.9hPa | 2.6V | 03:07:37 | 02:13:30 | 00:00:00 | |
| DL1XH-west | 2026-08-31 06:42:18 | 50.14659 | 8.85303 | 37° | 55km/h | 16958m | -12.3m/s | -52.6°C | 0.1% | 93.7hPa | 2.6V | 03:07:37 | 02:13:29 | 00:00:00 | |
| BIOWL9-15 | 2026-08-31 06:42:17 | 50.14637 | 8.85277 | 37° | 53km/h | 16983m | -12.4m/s | -52.6°C | 1.0% | 93.4hPa | 2.6V | 00:00:00 | 00:00:00 | 00:00:00 | |
| DO3MHA-11 | 2026-08-31 06:42:16 | 50.14636 | 8.85277 | 38° | 55km/h | 16983m | -12.3m/s | -52.6°C | 3.5% | 93.3hPa | 2.6V | 00:00:00 | 02:13:27 | 00:00:00 | |
| DL8OAI-8 | 2026-08-31 06:42:15 | 50.14636 | 8.85277 | 38° | 53km/h | 16983m | -12.4m/s | -52.6°C | 1.0% | 93.4hPa | 2.6V | 03:07:00 | 00:00:00 | 00:00:00 | |
| DL1XH-15 | 2026-08-31 06:42:14 | 50.14558 | 8.85184 | 39° | 57km/h | 17070m | -12.5m/s | -52.4°C | 3.4% | 92.1hPa | 2.6V | 03:07:44 | 02:13:20 | 00:00:00 | |
| DM7RM-13 | 2026-08-31 06:42:13 | 50.14614 | 8.85251 | 36° | 55km/h | 17008m | -12.5m/s | -52.6°C | 1.0% | 93.0hPa | 2.6V | 03:08:00 | 00:00:00 | 00:00:00 | |
| DL4BBY-15 | 2026-08-31 06:42:12 | 50.14592 | 8.85225 | 39° | 44km/h | 17033m | -12.7m/s | -53.1°C | 0% | 0hPa | 2.6V | 00:00:00 | 00:00:00 | 00:00:00 | |
| CB1BUN | 2026-08-31 06:42:11 | 50.14592 | 8.85225 | 40° | 57km/h | 17033m | -12.7m/s | -52.6°C | 1.0% | 92.6hPa | 2.6V | 03:08:00 | 00:00:00 | 00:00:00 | |
| DJ2DS-15 | 2026-08-31 06:42:10 | 50.14558 | 8.85184 | 39° | 55km/h | 17070m | -12.5m/s | -52.4°C | 1.0% | 92.1hPa | 2.6V | 00:00:00 | 00:00:00 | 00:00:00 | |
| DL1XH1-15 | 2026-08-31 06:42:09 | 50.14506 | 8.85115 | 43° | 49km/h | 17132m | -12.8m/s | -52.7°C | 3.5% | 91.2hPa | 2.6V | 03:07:49 | 02:13:15 | 00:00:00 | |
| HSKMA3-T | 2026-08-31 06:42:09 | 50.14558 | 8.85184 | 39° | 57km/h | 17070m | -12.5m/s | -52.4°C | 0.1% | 92.1hPa | 2.6V | 03:08:28 | 02:13:20 | 00:00:00 | |
| DM0DOS-11 | 2026-08-31 06:42:07 | 50.14536 | 8.85156 | 39° | 53km/h | 17095m | -12.6m/s | -52.5°C | 3.5% | 91.7hPa | 2.6V | 03:07:46 | 02:13:18 | 00:00:00 | |
| DL1XH-west | 2026-08-31 06:42:07 | 50.14536 | 8.85156 | 39° | 53km/h | 17095m | -12.6m/s | -52.5°C | 0.2% | 91.7hPa | 2.6V | 03:08:28 | 02:13:18 | 00:00:00 | |
| DJ2DS-15 | 2026-08-31 06:42:07 | 50.14536 | 8.85156 | 40° | 42km/h | 17095m | -12.5m/s | -52.4°C | 3.5% | 91.7hPa | 2.6V | 00:00:00 | 02:13:18 | 00:00:00 | |
| DO3MHA-11 | 2026-08-31 06:42:06 | 50.14525 | 8.85143 | 43° | 47km/h | 17107m | -12.3m/s | -52.5°C | 3.5% | 91.5hPa | 2.7V | 00:00:00 | 02:13:17 | 00:00:00 | |
| DC4HF-4 | 2026-08-31 06:42:05 | 50.14516 | 8.85129 | 43° | 51km/h | 17119m | -12.3m/s | -52.6°C | 1.0% | 91.4hPa | 2.6V | 00:00:00 | 00:00:00 | 00:00:00 | |
| DL1XH-15 | 2026-08-31 06:42:04 | 50.14467 | 8.85046 | 54° | 44km/h | 17194m | -12.9m/s | -52.1°C | 3.3% | 90.3hPa | 2.6V | 03:07:54 | 02:13:10 | 00:00:00 | |
| DM0DOS-11 | 2026-08-31 06:42:02 | 50.14454 | 8.85018 | 55° | 40km/h | 17220m | -12.8m/s | -52°C | 3.3% | 90hPa | 2.7V | 03:07:56 | 02:13:08 | 00:00:00 | |
| DL8DAS-14 | 2026-08-31 06:42:01 | 50.14481 | 8.85073 | 48° | 46km/h | 17170m | -12.5m/s | -52.4°C | 1.0% | 90.6hPa | 2.6V | 00:00:00 | 00:00:00 | 00:00:00 | |
| DL3AQ-11 | 2026-08-31 06:42:00 | 50.14467 | 8.85046 | 54° | 44km/h | 17194m | -12.9m/s | -52.1°C | 0.9% | 90.3hPa | 2.6V | 00:00:00 | 00:00:00 | 00:00:00 | |
| DL1XH1-15 | 2026-08-31 06:41:59 | 50.14438 | 8.84978 | 61° | 38km/h | 17258m | -12.5m/s | -51.7°C | 3.2% | 89.5hPa | 2.6V | 03:07:59 | 02:13:05 | 00:00:00 | |
| HSKMA3-T | 2026-08-31 06:41:58 | 50.14460 | 8.85032 | 54° | 44km/h | 17207m | -13.1m/s | -52°C | 0% | 90.1hPa | 2.6V | 03:08:28 | 02:13:09 | 00:00:00 | |
| DL1XH-west | 2026-08-31 06:41:56 | 50.14448 | 8.85005 | 59° | 40km/h | 17233m | -12.7m/s | -51.9°C | 0% | 89.8hPa | 2.7V | 03:08:28 | 02:13:07 | 00:00:00 | |
| HTAHTA | 2026-08-31 06:41:52 | 50.14429 | 8.84952 | 65° | 35km/h | 17283m | -12.8m/s | -51.7°C | -1.0% | -1.0hPa | 2.7V | 00:00:00 | 00:00:00 | 00:00:00 | |
| DL0LBS | 2026-08-31 06:41:51 | 50.14429 | 8.84952 | 66° | 37km/h | 17283m | -12.8m/s | -51.7°C | 0.9% | 89.1hPa | 2.7V | 03:08:00 | 00:00:00 | 00:00:00 | |
| DK5PH-5 | 2026-08-31 06:41:50 | 50.14423 | 8.84925 | 70° | 26km/h | 17308m | -12.1m/s | -51.8°C | 3.2% | 88.7hPa | 2.7V | 00:00:00 | 02:13:01 | 00:00:00 | |
| DL1XH1-15 | 2026-08-31 06:41:49 | 50.14407 | 8.84846 | 72° | 35km/h | 17384m | -13m/s | -52°C | 3.3% | 87.7hPa | 2.7V | 03:08:09 | 02:12:55 | 00:00:00 | |
| HSKMA3-T | 2026-08-31 06:41:48 | 50.14417 | 8.84899 | 75° | 35km/h | 17333m | -12.9m/s | -51.9°C | 0% | 88.4hPa | 2.6V | 03:08:28 | 02:12:59 | 00:00:00 | |
| DM0DOS-11 | 2026-08-31 06:41:47 | 50.14415 | 8.84886 | 74° | 37km/h | 17346m | -12.8m/s | -51.9°C | 3.3% | 88.2hPa | 2.6V | 03:08:06 | 02:12:58 | 00:00:00 | |
| BIOWL1-15 | 2026-08-31 06:41:47 | 50.14409 | 8.84859 | 76° | 35km/h | 17371m | -13m/s | -52°C | 0% | 87.9hPa | 2.7V | 03:08:28 | 02:12:56 | 00:00:00 | |
| DL1XH-west | 2026-08-31 06:41:46 | 50.14412 | 8.84872 | 72° | 35km/h | 17358m | -12.7m/s | -51.9°C | 0% | 88.1hPa | 2.7V | 03:08:28 | 02:12:57 | 00:00:00 | |
| BIOWL9-15 | 2026-08-31 06:41:46 | 50.14409 | 8.84859 | 75° | 35km/h | 17371m | -13.0m/s | -52.0°C | 0.9% | 87.9hPa | 2.6V | 00:00:00 | 00:00:00 | 00:00:00 | |
| AM1SDL-15 | 2026-08-31 06:41:44 | 50.14407 | 8.84846 | 73° | 37km/h | 17384m | -13.0m/s | 0°C | 0% | 0hPa | 2.6V | 00:00:00 | 02:12:55 | 00:00:00 | |
| DL4BBY-15 | 2026-08-31 06:41:42 | 50.14402 | 8.84820 | 74° | 38km/h | 17409m | -12.7m/s | -52.7°C | 0% | 0hPa | 2.6V | 00:00:00 | 00:00:00 | 00:00:00 | |
| SONDE2-11 | 2026-08-31 06:41:41 | 50.14399 | 8.84806 | 71° | 33km/h | 17422m | -13.1m/s | -52.2°C | 0.9% | 87.2hPa | 2.6V | 00:00:00 | 00:00:00 | 00:00:00 | |
| DF1GD-15 | 2026-08-31 06:41:40 | 50.14399 | 8.84806 | 72° | 35km/h | 17422m | -13.1m/s | -52.2°C | 0.9% | 87.2hPa | 2.6V | 03:08:00 | 00:00:00 | 00:00:00 | |
| DL1XH1-15 | 2026-08-31 06:41:39 | 50.14380 | 8.84704 | 76° | 40km/h | 17512m | -12.7m/s | -52.6°C | 3.5% | 86hPa | 2.6V | 03:08:19 | 02:12:45 | 00:00:00 | |
| HSKMA3-T | 2026-08-31 06:41:38 | 50.14390 | 8.84765 | 73° | 38km/h | 17461m | -12.5m/s | -52.4°C | 0.1% | 86.7hPa | 2.6V | 03:08:28 | 02:12:49 | 00:00:00 | |
| DM0DOS-11 | 2026-08-31 06:41:37 | 50.14388 | 8.84750 | 74° | 40km/h | 17473m | -12.8m/s | -52.5°C | 3.4% | 86.5hPa | 2.6V | 03:08:16 | 02:12:48 | 00:00:00 | |
| DL1XH-15 | 2026-08-31 06:41:37 | 50.14376 | 8.84673 | 79° | 40km/h | 17537m | -12.7m/s | -52.3°C | 3.4% | 85.7hPa | 2.6V | 03:08:21 | 02:12:43 | 00:00:00 | |
| DL1XH-west | 2026-08-31 06:41:35 | 50.14382 | 8.84720 | 78° | 40km/h | 17499m | -13m/s | -52.7°C | 0.2% | 86.2hPa | 2.7V | 03:08:28 | 02:12:46 | 00:00:00 | |
| BIOWL1-15 | 2026-08-31 06:41:34 | 50.14380 | 8.84704 | 77° | 40km/h | 17512m | -12.7m/s | -52.7°C | 0.2% | 86hPa | 2.6V | 03:08:28 | 02:12:45 | 00:00:00 | |
| DM7RM-13 | 2026-08-31 06:41:33 | 50.14380 | 8.84704 | 78° | 40km/h | 17512m | -12.7m/s | -52.7°C | 1.0% | 86.0hPa | 2.7V | 03:08:00 | 00:00:00 | 00:00:00 | |
| AM1SDL-15 | 2026-08-31 06:41:32 | 50.14375 | 8.84673 | 80° | 38km/h | 17538m | -12.7m/s | 0°C | 0% | 0hPa | 2.7V | 00:00:00 | 02:12:43 | 00:00:00 | |
| DF2AP-13 | 2026-08-31 06:41:31 | 50.14374 | 8.84658 | 81° | 35km/h | 17550m | -12.9m/s | -52.0°C | 3.3% | 85.4hPa | 2.7V | 03:08:00 | 02:12:42 | 00:00:00 | |
| DL8DAS-14 | 2026-08-31 06:41:30 | 50.14372 | 8.84643 | 80° | 38km/h | 17563m | -12.6m/s | -51.9°C | 0.9% | 85.3hPa | 2.7V | 00:00:00 | 00:00:00 | 00:00:00 | |
| DL1XH1-15 | 2026-08-31 06:41:29 | 50.14360 | 8.84559 | 74° | 37km/h | 17640m | -13.1m/s | -52°C | 3.3% | 84.3hPa | 2.7V | 03:08:29 | 02:12:35 | 00:00:00 | |
| DM0DOS-11 | 2026-08-31 06:41:27 | 50.14367 | 8.84600 | 80° | 37km/h | 17601m | -13.1m/s | -51.9°C | 3.2% | 84.8hPa | 2.6V | 03:08:26 | 02:12:38 | 00:00:00 | |
| HSKMA3-T | 2026-08-31 06:41:27 | 50.14367 | 8.84600 | 81° | 37km/h | 17601m | -13.1m/s | -51.9°C | 0% | 84.8hPa | 2.6V | 03:08:28 | 02:12:38 | 00:00:00 | |
| DL1XH-west | 2026-08-31 06:41:24 | 50.14360 | 8.84559 | 75° | 37km/h | 17640m | -13.1m/s | -52.1°C | 0.1% | 84.3hPa | 2.7V | 03:09:19 | 02:12:35 | 00:00:00 | |
| DB0UT-7 | 2026-08-31 06:41:23 | 50.14357 | 8.84546 | 68° | 31km/h | 17653m | -12.7m/s | -52.0°C | 3.3% | 84.1hPa | 2.6V | 00:00:00 | 00:00:00 | 00:00:00 | |
| DM0DOS-11 | 2026-08-31 06:41:22 | 50.14333 | 8.84459 | 69° | 40km/h | 17730m | -13.2m/s | -52.4°C | 3.4% | 83.1hPa | 2.6V | 03:08:36 | 02:12:28 | 00:00:00 | |
| HTAHTA | 2026-08-31 06:41:21 | 50.14337 | 8.84474 | 67° | 40km/h | 17717m | -12.8m/s | -52.3°C | -1.0% | -1.0hPa | 2.6V | 00:00:00 | 00:00:00 | 00:00:00 | |
| DL1XH-15 | 2026-08-31 06:41:20 | 50.14325 | 8.84432 | 68° | 37km/h | 17756m | -13.3m/s | -52.5°C | 3.5% | 82.8hPa | 2.6V | 03:08:38 | 02:12:26 | 00:00:00 | |
| AM1SDL-15 | 2026-08-31 06:41:20 | 50.14346 | 8.84503 | 65° | 37km/h | 17692m | -13.0m/s | 0°C | 0% | 0hPa | 2.7V | 00:00:00 | 02:12:31 | 00:00:00 | |
| DL1XH1-15 | 2026-08-31 06:41:19 | 50.14322 | 8.84419 | 70° | 35km/h | 17770m | -13.5m/s | -52.6°C | 3.5% | 82.7hPa | 2.7V | 03:08:39 | 02:12:25 | 00:00:00 | |
| HSKMA3-T | 2026-08-31 06:41:16 | 50.14329 | 8.84445 | 69° | 38km/h | 17743m | -13.1m/s | -52.5°C | 0.2% | 83hPa | 2.6V | 03:09:19 | 02:12:27 | 00:00:00 | |
| BIOWL1-15 | 2026-08-31 06:41:14 | 50.14322 | 8.84419 | 70° | 35km/h | 17770m | -13.5m/s | -52.6°C | 0.1% | 82.7hPa | 2.7V | 03:09:19 | 02:12:25 | 00:00:00 | |
| DL9PN | 2026-08-31 06:41:13 | 50.14319 | 8.84406 | 71° | 35km/h | 17783m | -13.1m/s | -52.7°C | 1.0% | 82.5hPa | 2.7V | 00:00:00 | 00:00:00 | 00:00:00 | |
| DL4BBY-15 | 2026-08-31 06:41:12 | 50.14316 | 8.84392 | 77° | 27km/h | 17796m | -13.1m/s | -53.4°C | 0% | 0hPa | 2.7V | 00:00:00 | 00:00:00 | 00:00:00 | |
| DJ2KF-10 | 2026-08-31 06:41:11 | 50.14314 | 8.84379 | 78° | 26km/h | 17809m | -13.0m/s | -52.8°C | 3.6% | 82.1hPa | 2.7V | 00:00:00 | 02:12:22 | 00:00:00 | |
| DL1XH-15 | 2026-08-31 06:41:10 | 50.14305 | 8.84307 | 75° | 31km/h | 17887m | -13.2m/s | -52.5°C | 3.5% | 81.2hPa | 2.7V | 03:08:48 | 02:12:16 | 00:00:00 | |
| DL1XH1-15 | 2026-08-31 06:41:09 | 50.14302 | 8.84295 | 74° | 31km/h | 17900m | -13.6m/s | -52.4°C | 3.5% | 81hPa | 2.6V | 03:08:49 | 02:12:15 | 00:00:00 | |
| HSKMA3-T | 2026-08-31 06:41:06 | 50.14306 | 8.84319 | 80° | 31km/h | 17874m | -13m/s | -52.5°C | 0.2% | 81.3hPa | 2.7V | 03:09:19 | 02:12:17 | 00:00:00 | |
| DL1XH-west | 2026-08-31 06:41:03 | 50.14300 | 8.84284 | 72° | 29km/h | 17914m | -13.9m/s | -52.3°C | 0.2% | 80.8hPa | 2.6V | 03:09:19 | 02:12:14 | 00:00:00 | |
| DO3DL | 2026-08-31 06:41:02 | 50.14300 | 8.84284 | 73° | 29km/h | 17914m | -13.9m/s | -52.3°C | 0.9% | 80.8hPa | 2.7V | 03:09:00 | 00:00:00 | 00:00:00 | |
| DF2AP-13 | 2026-08-31 06:41:01 | 50.14295 | 8.84264 | 71° | 22km/h | 17941m | -13.3m/s | -51.9°C | 3.3% | 80.4hPa | 2.7V | 00:00:00 | 02:12:12 | 00:00:00 | |
| DL1XH1-15 | 2026-08-31 06:40:59 | 50.14281 | 8.84204 | 68° | 20km/h | 18034m | -13.3m/s | -51.5°C | 3.2% | 79.3hPa | 2.7V | 03:08:59 | 02:12:05 | 00:00:00 | |
| HSKMA3-T | 2026-08-31 06:40:55 | 50.14283 | 8.84211 | 64° | 20km/h | 18021m | -13.7m/s | -51.5°C | 0% | 79.5hPa | 2.6V | 03:09:19 | 02:12:06 | 00:00:00 | |
| DL1XH-west | 2026-08-31 06:40:52 | 50.14276 | 8.84189 | 65° | 20km/h | 18061m | -13.6m/s | -51.5°C | 0% | 79hPa | 2.7V | 03:09:19 | 02:12:03 | 00:00:00 | |
| HTAHTA | 2026-08-31 06:40:50 | 50.14271 | 8.84174 | 55° | 20km/h | 18089m | -13.6m/s | -51.6°C | -1.0% | -1.0hPa | 2.6V | 00:00:00 | 00:00:00 | 00:00:00 | |
| DL1XH1-15 | 2026-08-31 06:40:49 | 50.14251 | 8.84123 | 63° | 27km/h | 18171m | -14.5m/s | -52.1°C | 3.4% | 77.6hPa | 2.6V | 03:09:09 | 02:11:55 | 00:00:00 | |
| SONCRA | 2026-08-31 06:40:47 | 50.14261 | 8.84150 | 61° | 24km/h | 18129m | -13.6m/s | -51.8°C | 0.8% | 78.2hPa | 2.6V | 00:00:00 | 00:00:00 | 00:00:00 | |
| HSKMA3-T | 2026-08-31 06:40:44 | 50.14251 | 8.84123 | 64° | 27km/h | 18171m | -14.5m/s | -52.1°C | 0.1% | 77.6hPa | 2.6V | 03:09:19 | 02:11:55 | 00:00:00 | |
| DL1XH-west | 2026-08-31 06:40:42 | 50.14245 | 8.84105 | 67° | 24km/h | 18199m | -14m/s | -52.3°C | 0.1% | 77.3hPa | 2.7V | 03:09:19 | 02:11:53 | 00:00:00 | |
| DL4BBY-15 | 2026-08-31 06:40:42 | 50.14245 | 8.84105 | 68° | 16km/h | 18200m | -14.0m/s | -52.8°C | 0% | 0hPa | 2.6V | 00:00:00 | 00:00:00 | 00:00:00 | |
| SFWM-10 | 2026-08-31 06:40:40 | 50.14242 | 8.84096 | 61° | 26km/h | 18214m | -14.1m/s | -52.3°C | 0.9% | 77.2hPa | 2.6V | 00:00:00 | 00:00:00 | 00:00:00 | |
| DL1XH1-15 | 2026-08-31 06:40:39 | 50.14228 | 8.84045 | 61° | 18km/h | 18311m | -14.2m/s | -51.7°C | 3.2% | 76hPa | 2.6V | 03:09:19 | 02:11:45 | 00:00:00 | |
| HSKMA3-T | 2026-08-31 06:40:34 | 50.14228 | 8.84045 | 62° | 18km/h | 18311m | -14.2m/s | -51.7°C | 0.1% | 76hPa | 2.6V | 03:09:19 | 02:11:45 | 00:00:00 | |
| DL1XH-west | 2026-08-31 06:40:32 | 50.14225 | 8.84033 | 70° | 16km/h | 18339m | -14.7m/s | -51.7°C | 0% | 75.7hPa | 2.6V | 03:10:10 | 02:11:43 | 00:00:00 | |
| BIOWL1-15 | 2026-08-31 06:40:31 | 50.14224 | 8.84028 | 69° | 13km/h | 18353m | -14.4m/s | -51.6°C | 0% | 75.5hPa | 2.7V | 03:10:10 | 02:11:42 | 00:00:00 | |
| DM7RM-13 | 2026-08-31 06:40:31 | 50.14224 | 8.84028 | 70° | 13km/h | 18354m | -14.4m/s | -51.6°C | 0.9% | 75.5hPa | 2.7V | 03:10:00 | 00:00:00 | 00:00:00 | |
| DL8OAI-8 | 2026-08-31 06:40:30 | 50.14224 | 8.84028 | 70° | 13km/h | 18354m | -14.4m/s | -51.6°C | 0.9% | 75.5hPa | 2.7V | 03:10:00 | 00:00:00 | 00:00:00 | |
| DL1XH1-15 | 2026-08-31 06:40:29 | 50.14211 | 8.83998 | 52° | 15km/h | 18451m | -13.7m/s | -52.3°C | 3.3% | 74.3hPa | 2.7V | 03:09:29 | 02:11:35 | 00:00:00 | |
| HSKMA3-T | 2026-08-31 06:40:23 | 50.14209 | 8.83994 | 43° | 13km/h | 18465m | -14.1m/s | -52.4°C | 0.1% | 74.2hPa | 2.7V | 03:10:10 | 02:11:34 | 00:00:00 | |
| BIOWL1-15 | 2026-08-31 06:40:22 | 50.14201 | 8.83982 | 48° | 15km/h | 18507m | -14.6m/s | -52.6°C | 0.2% | 73.7hPa | 2.6V | 03:10:10 | 02:11:31 | 00:00:00 | |
| DL1XH-west | 2026-08-31 06:40:21 | 50.14204 | 8.83986 | 37° | 15km/h | 18493m | -14.4m/s | -52.6°C | 0.2% | 73.9hPa | 2.6V | 03:10:10 | 02:11:32 | 00:00:00 | |
| HSKMA3-T | 2026-08-31 06:40:13 | 50.14177 | 8.83956 | 47° | 15km/h | 18622m | -14.3m/s | -52.9°C | 0.2% | 72.4hPa | 2.7V | 03:10:10 | 02:11:23 | 00:00:00 | |
| BIOWL1-15 | 2026-08-31 06:40:12 | 50.14172 | 8.83949 | 50° | 15km/h | 18651m | -14m/s | -52.9°C | 0.2% | 72.1hPa | 2.6V | 03:10:10 | 02:11:21 | 00:00:00 | |
| DL1XH-west | 2026-08-31 06:40:11 | 50.14175 | 8.83953 | 36° | 13km/h | 18637m | -14.2m/s | -52.9°C | 0.1% | 72.2hPa | 2.7V | 03:10:10 | 02:11:22 | 00:00:00 | |
| DO3DL | 2026-08-31 06:40:10 | 50.14175 | 8.83953 | 37° | 13km/h | 18637m | -14.2m/s | -52.8°C | 0.9% | 72.2hPa | 2.7V | 03:10:00 | 00:00:00 | 00:00:00 | |
| DM0DOS-11 | 2026-08-31 06:40:09 | 50.14162 | 8.83934 | 44° | 15km/h | 18708m | -14.4m/s | -53.3°C | 3.5% | 71.5hPa | 2.7V | 03:09:47 | 02:11:17 | 00:00:00 | |
| HSKMA3-T | 2026-08-31 06:40:02 | 50.14151 | 8.83920 | 42° | 15km/h | 18766m | -15m/s | -52.9°C | 0.1% | 70.8hPa | 2.6V | 03:10:10 | 02:11:13 | 00:00:00 | |
| BIOWL1-15 | 2026-08-31 06:40:01 | 50.14142 | 8.83909 | 38° | 15km/h | 18809m | -14.5m/s | -53.1°C | 0.1% | 70.4hPa | 2.7V | 03:10:10 | 02:11:10 | 00:00:00 | |
| DL1XH-west | 2026-08-31 06:40:01 | 50.14148 | 8.83916 | 38° | 15km/h | 18780m | -14.7m/s | -52.9°C | 0.1% | 70.7hPa | 2.7V | 03:10:10 | 02:11:12 | 00:00:00 | |
| HSKMA3-T | 2026-08-31 06:39:52 | 50.14116 | 8.83885 | 26° | 18km/h | 18911m | -14.7m/s | -53.8°C | 0.2% | 69.2hPa | 2.6V | 03:10:10 | 02:11:03 | 00:00:00 | |
| DL1XH-west | 2026-08-31 06:39:50 | 50.14109 | 8.83878 | 29° | 16km/h | 18939m | -14.8m/s | -54°C | 0.2% | 68.9hPa | 2.7V | 03:10:10 | 02:11:01 | 00:00:00 | |
| BIOWL1-15 | 2026-08-31 06:39:49 | 50.14105 | 8.83874 | 44° | 15km/h | 18954m | -15.1m/s | -54.1°C | 0.3% | 68.8hPa | 2.7V | 03:10:10 | 02:11:00 | 00:00:00 | |
| DL3AQ-11 | 2026-08-31 06:39:46 | 50.14096 | 8.83863 | 32° | 13km/h | 18999m | -14.8m/s | -54.5°C | 1.0% | 68.3hPa | 2.6V | 00:00:00 | 00:00:00 | 00:00:00 | |
| SONCRA | 2026-08-31 06:39:45 | 50.14094 | 8.83859 | 54° | 13km/h | 19014m | -15.2m/s | -54.6°C | 1.0% | 68.2hPa | 2.6V | 00:00:00 | 00:00:00 | 00:00:00 | |
| HEMX73-11 | 2026-08-31 06:39:44 | 50.14094 | 8.83859 | 55° | 15km/h | 19014m | -15.2m/s | -54.6°C | 1.0% | 68.2hPa | 2.6V | 03:10:00 | 00:00:00 | 00:00:00 | |
| DL4BBY-15 | 2026-08-31 06:39:42 | 50.14086 | 8.83848 | 42° | 18km/h | 19058m | -14.7m/s | -55.4°C | 0% | 0hPa | 2.6V | 00:00:00 | 00:00:00 | 00:00:00 | |
| DM0DOS-11 | 2026-08-31 06:39:41 | 50.14073 | 8.83824 | 55° | 11km/h | 19148m | -14.7m/s | -55.6°C | 4% | 66.7hPa | 2.6V | 03:10:17 | 02:10:47 | 00:00:00 | |
| HSKMA3-T | 2026-08-31 06:39:41 | 50.14083 | 8.83844 | 52° | 15km/h | 19072m | -15.1m/s | -55°C | 0.3% | 67.5hPa | 2.6V | 03:11:01 | 02:10:52 | 00:00:00 | |
| DL1XH-west | 2026-08-31 06:39:39 | 50.14079 | 8.83835 | 53° | 15km/h | 19102m | -15.5m/s | -55.2°C | 0.4% | 67.2hPa | 2.6V | 03:11:01 | 02:10:50 | 00:00:00 | |
| DO1YAY-16 | 2026-08-31 06:39:38 | 50.14075 | 8.83827 | 43° | 13km/h | 19134m | -14.9m/s | -55.5°C | 1.1% | 66.9hPa | 2.6V | 00:00:00 | 00:00:00 | 00:00:00 | |
| SONDE2-11 | 2026-08-31 06:39:37 | 50.14075 | 8.83827 | 43° | 13km/h | 19134m | -14.9m/s | -55.5°C | 1.1% | 66.9hPa | 2.6V | 00:00:00 | 00:00:00 | 00:00:00 | |
| DO3MHA-11 | 2026-08-31 06:39:36 | 50.14073 | 8.83823 | 56° | 13km/h | 19148m | -14.7m/s | -55.6°C | 4.0% | 66.7hPa | 2.6V | 00:00:00 | 02:10:47 | 00:00:00 | |
| DL3AQ-11 | 2026-08-31 06:39:35 | 50.14071 | 8.83821 | 35° | 9km/h | 19163m | -15.5m/s | -55.7°C | 1.1% | 66.6hPa | 2.7V | 00:00:00 | 00:00:00 | 00:00:00 | |
| DK5PH-5 | 2026-08-31 06:39:33 | 50.14067 | 8.83816 | 22° | 24km/h | 19193m | -14.7m/s | -55.8°C | 4.1% | 66.2hPa | 2.7V | 00:00:00 | 02:10:44 | 00:00:00 | |
| BUE01 | 2026-08-31 06:39:32 | 50.14063 | 8.83813 | 5° | 11km/h | 19222m | -15.2m/s | -56.0°C | 1.1% | 66.0hPa | 2.7V | 00:00:00 | 00:00:00 | 00:00:00 | |
| DM0DOS-11 | 2026-08-31 06:39:31 | 50.14043 | 8.83813 | 352° | 18km/h | 19297m | -15.1m/s | -55.8°C | 4.2% | 65.2hPa | 2.7V | 03:10:27 | 02:10:37 | 00:00:00 | |
| HSKMA3-T | 2026-08-31 06:39:31 | 50.14063 | 8.83813 | 6° | 11km/h | 19222m | -15.2m/s | -56°C | 0.6% | 66hPa | 2.7V | 03:11:01 | 02:10:42 | 00:00:00 | |
| AA1-15 | 2026-08-31 06:39:30 | 50.14059 | 8.83812 | 16° | 13km/h | 19237m | -15m/s | -56°C | 0.6% | 65.8hPa | 2.6V | 03:11:01 | 02:10:41 | 00:00:00 | |
| DL1XH-west | 2026-08-31 06:39:29 | 50.14056 | 8.83811 | 356° | 15km/h | 19252m | -15.5m/s | -56°C | 0.6% | 65.7hPa | 2.6V | 03:11:01 | 02:10:40 | 00:00:00 | |
| BIOWL1-15 | 2026-08-31 06:39:28 | 50.14052 | 8.83811 | 0° | 16km/h | 19267m | -15.3m/s | -55.9°C | 0.6% | 65.5hPa | 2.6V | 03:11:01 | 02:10:39 | 00:00:00 | |
| DJ2DS-15 | 2026-08-31 06:39:27 | 50.14048 | 8.83812 | 350° | 26km/h | 19282m | -15.4m/s | -55.8°C | 4.2% | 65.3hPa | 2.6V | 00:00:00 | 02:10:38 | 00:00:00 | |
| DO3MHA-11 | 2026-08-31 06:39:26 | 50.14043 | 8.83813 | 353° | 24km/h | 19297m | -15.1m/s | -55.8°C | 4.2% | 65.2hPa | 2.6V | 00:00:00 | 02:10:37 | 00:00:00 | |
| DB0NH | 2026-08-31 06:39:25 | 50.14038 | 8.83814 | 348° | 27km/h | 19312m | -15.1m/s | -55.7°C | 4.2% | 64.9hPa | 2.6V | 00:00:00 | 02:10:36 | 00:00:00 | |
| DD1CC8 | 2026-08-31 06:39:24 | 50.14027 | 8.83816 | 352° | 20km/h | 19342m | -15.7m/s | -55.6°C | 1.1% | 64.7hPa | 2.6V | 00:00:00 | 00:00:00 | 00:00:00 | |
| DB0UT-7 | 2026-08-31 06:39:23 | 50.14027 | 8.83816 | 353° | 27km/h | 19342m | -15.6m/s | -55.6°C | 4.2% | 64.7hPa | 2.6V | 00:00:00 | 00:00:00 | 00:00:00 | |
| DM0DOS-11 | 2026-08-31 06:39:21 | 50.13984 | 8.83806 | 20° | 26km/h | 19448m | -15.3m/s | -55.8°C | 4.3% | 63.6hPa | 2.7V | 03:10:37 | 02:10:27 | 00:00:00 | |
| HSKMA3-T | 2026-08-31 06:39:20 | 50.14008 | 8.83817 | 7° | 26km/h | 19387m | -15.7m/s | -55.5°C | 0.7% | 64.2hPa | 2.7V | 03:11:01 | 02:10:31 | 00:00:00 | |
| AA1-15 | 2026-08-31 06:39:19 | 50.14002 | 8.83815 | 13° | 26km/h | 19403m | -15.4m/s | -55.5°C | 0.6% | 64.1hPa | 2.6V | 03:11:01 | 02:10:30 | 00:00:00 | |
| DL1XH-west | 2026-08-31 06:39:18 | 50.13996 | 8.83812 | 16° | 26km/h | 19418m | -15.4m/s | -55.6°C | 0.6% | 63.9hPa | 2.6V | 03:11:01 | 02:10:29 | 00:00:00 | |
| DF1GD-15 | 2026-08-31 06:39:17 | 50.13996 | 8.83812 | 17° | 26km/h | 19418m | -15.4m/s | -55.6°C | 1.2% | 63.9hPa | 2.7V | 03:11:00 | 00:00:00 | 00:00:00 | |
| DO3MHA-11 | 2026-08-31 06:39:16 | 50.13984 | 8.83806 | 21° | 29km/h | 19448m | -15.3m/s | -55.7°C | 4.3% | 63.6hPa | 2.7V | 00:00:00 | 02:10:27 | 00:00:00 | |
| SFWM-10 | 2026-08-31 06:39:15 | 50.13984 | 8.83806 | 21° | 26km/h | 19448m | -15.3m/s | -55.8°C | 1.2% | 63.6hPa | 2.7V | 03:11:00 | 00:00:00 | 00:00:00 | |
| SONCRA | 2026-08-31 06:39:14 | 50.13971 | 8.83798 | 18° | 27km/h | 19479m | -15.8m/s | -55.7°C | 1.1% | 63.4hPa | 2.7V | 00:00:00 | 00:00:00 | 00:00:00 | |
| DL4BBY-15 | 2026-08-31 06:39:12 | 50.13958 | 8.83791 | 17° | 24km/h | 19509m | -15.5m/s | -56.1°C | 0% | 0hPa | 2.7V | 00:00:00 | 00:00:00 | 00:00:00 | |
| DM0DOS-11 | 2026-08-31 06:39:11 | 50.13916 | 8.83775 | 16° | 29km/h | 19602m | -15.7m/s | -54.6°C | 4% | 62.1hPa | 2.7V | 03:10:47 | 02:10:17 | 00:00:00 | |
| HSKMA3-T | 2026-08-31 06:39:09 | 50.13937 | 8.83783 | 12° | 29km/h | 19556m | -15.7m/s | -55°C | 0.6% | 62.6hPa | 2.6V | 03:11:01 | 02:10:20 | 00:00:00 | |
| AA1-15 | 2026-08-31 06:39:08 | 50.13930 | 8.83781 | 11° | 29km/h | 19572m | -15.7m/s | -54.8°C | 0.6% | 62.4hPa | 2.6V | 03:11:01 | 02:10:19 | 00:00:00 | |
| DL1XH-west | 2026-08-31 06:39:07 | 50.13923 | 8.83778 | 14° | 29km/h | 19587m | -15.8m/s | -54.7°C | 0.6% | 62.2hPa | 2.6V | 03:11:01 | 02:10:18 | 00:00:00 | |
| DJ2DS-15 | 2026-08-31 06:39:07 | 50.13923 | 8.83778 | 14° | 26km/h | 19587m | -15.8m/s | -54.6°C | 4.1% | 62.2hPa | 2.6V | 00:00:00 | 02:10:18 | 00:00:00 | |
| DO3MHA-11 | 2026-08-31 06:39:06 | 50.13916 | 8.83775 | 17° | 29km/h | 19603m | -15.6m/s | -54.5°C | 4.0% | 62.1hPa | 2.7V | 03:10:00 | 02:10:17 | 00:00:00 | |
| CB1BUN | 2026-08-31 06:39:05 | 50.13916 | 8.83775 | 18° | 29km/h | 19603m | -15.7m/s | -54.6°C | 1.1% | 62.1hPa | 2.7V | 03:11:00 | 00:00:00 | 00:00:00 | |
| DO3DL | 2026-08-31 06:39:04 | 50.13909 | 8.83772 | 19° | 29km/h | 19618m | -15.5m/s | -54.5°C | 1.1% | 62.0hPa | 2.7V | 03:11:00 | 00:00:00 | 00:00:00 | |
| DK5PH-5 | 2026-08-31 06:39:03 | 50.13895 | 8.83764 | 24° | 18km/h | 19648m | -15.6m/s | -54.2°C | 3.9% | 61.6hPa | 2.7V | 00:00:00 | 02:10:14 | 00:00:00 | |
| DF7PN | 2026-08-31 06:39:02 | 50.13888 | 8.83759 | 27° | 27km/h | 19663m | -15.6m/s | -54.2°C | 1.1% | 61.5hPa | 2.7V | 00:00:00 | 00:00:00 | 00:00:00 | |
| DF2AP-13 | 2026-08-31 06:39:01 | 50.13882 | 8.83754 | 33° | 16km/h | 19678m | -15.9m/s | -54.2°C | 4.0% | 61.3hPa | 2.7V | 00:00:00 | 02:10:12 | 00:00:00 | |
| DM0DOS-11 | 2026-08-31 06:39:00 | 50.13857 | 8.83716 | 54° | 27km/h | 19757m | -16.5m/s | -53.4°C | 3.8% | 60.6hPa | 2.7V | 03:10:57 | 02:10:07 | 00:00:00 | |
| DL1XH1-15 | 2026-08-31 06:38:59 | 50.13849 | 8.83699 | 58° | 26km/h | 19789m | -16.4m/s | -53.5°C | 3.8% | 60.3hPa | 2.6V | 03:10:59 | 02:10:05 | 00:00:00 | |
| HSKMA3-T | 2026-08-31 06:38:59 | 50.13871 | 8.83741 | 41° | 29km/h | 19710m | -15.9m/s | -53.6°C | 0.4% | 61.1hPa | 2.7V | 03:11:01 | 02:10:10 | 00:00:00 | |
| DL1XH-west | 2026-08-31 06:38:57 | 50.13861 | 8.83725 | 50° | 27km/h | 19741m | -16.3m/s | -53.4°C | 0.4% | 60.8hPa | 2.6V | 03:11:01 | 02:10:08 | 00:00:00 | |
| DL3AQ-11 | 2026-08-31 06:38:56 | 50.13853 | 8.83708 | 55° | 26km/h | 19773m | -16.4m/s | -53.5°C | 1.0% | 60.5hPa | 2.6V | 00:00:00 | 00:00:00 | 00:00:00 | |
| DL8DAS-14 | 2026-08-31 06:38:55 | 50.13849 | 8.83699 | 58° | 26km/h | 19789m | -16.4m/s | -53.6°C | 1.0% | 60.3hPa | 2.6V | 00:00:00 | 00:00:00 | 00:00:00 | |
| DD1CC8 | 2026-08-31 06:38:53 | 50.13842 | 8.83684 | 57° | 22km/h | 19821m | -16.4m/s | -53.6°C | 1.0% | 60.0hPa | 2.6V | 00:00:00 | 00:00:00 | 00:00:00 | |
| NBG1-10 | 2026-08-31 06:38:52 | 50.13842 | 8.83684 | 58° | 22km/h | 19821m | -16.3m/s | -53.6°C | 3.9% | 60.0hPa | 2.6V | 03:11:00 | 02:10:03 | 00:00:00 | |
| DO3DL | 2026-08-31 06:38:51 | 50.13842 | 8.83684 | 59° | 22km/h | 19821m | -16.4m/s | -53.6°C | 1.0% | 60.0hPa | 2.6V | 03:11:00 | 00:00:00 | 00:00:00 | |
| DM0DOS-11 | 2026-08-31 06:38:50 | 50.13824 | 8.83654 | 27° | 15km/h | 19918m | -16.2m/s | -52.9°C | 3.7% | 59.1hPa | 2.6V | 03:11:07 | 02:09:57 | 00:00:00 | |
| DL1XH1-15 | 2026-08-31 06:38:49 | 50.13818 | 8.83649 | 21° | 13km/h | 19951m | -16.3m/s | -52.5°C | 3.6% | 58.9hPa | 2.7V | 03:11:09 | 02:09:55 | 00:00:00 | |
| HSKMA3-T | 2026-08-31 06:38:49 | 50.13833 | 8.83665 | 44° | 16km/h | 19870m | -16.3m/s | -53.5°C | 0.5% | 59.6hPa | 2.7V | 03:11:52 | 02:10:00 | 00:00:00 | |
| BIOWL1-15 | 2026-08-31 06:38:47 | 50.13827 | 8.83657 | 34° | 15km/h | 19902m | -16.4m/s | -53.1°C | 0.4% | 59.3hPa | 2.6V | 03:11:52 | 02:09:58 | 00:00:00 | |
| DL1XH-west | 2026-08-31 06:38:46 | 50.13824 | 8.83654 | 27° | 15km/h | 19918m | -16.2m/s | -52.9°C | 0.4% | 59.1hPa | 2.6V | 03:11:52 | 02:09:57 | 00:00:00 | |
| CB1BUN | 2026-08-31 06:38:46 | 50.13824 | 8.83654 | 28° | 15km/h | 19919m | -16.2m/s | -52.9°C | 1.0% | 59.1hPa | 2.6V | 00:00:00 | 00:00:00 | 00:00:00 | |
| DL0LBS | 2026-08-31 06:38:45 | 50.13824 | 8.83654 | 28° | 15km/h | 19919m | -16.2m/s | -52.9°C | 1.0% | 59.1hPa | 2.6V | 03:11:00 | 00:00:00 | 00:00:00 | |
| DO3DL | 2026-08-31 06:38:44 | 50.13821 | 8.83651 | 22° | 15km/h | 19935m | -16.2m/s | -52.7°C | 1.0% | 59.0hPa | 2.6V | 03:11:00 | 00:00:00 | 00:00:00 | |
| SONCRA | 2026-08-31 06:38:43 | 50.13814 | 8.83648 | 17° | 11km/h | 19967m | -16.2m/s | -52.3°C | 0.9% | 58.7hPa | 2.6V | 00:00:00 | 00:00:00 | 00:00:00 | |
| DL4BBY-15 | 2026-08-31 06:38:42 | 50.13812 | 8.83646 | 22° | 16km/h | 19983m | -16.5m/s | -52.7°C | 0% | 0hPa | 2.6V | 00:00:00 | 00:00:00 | 00:00:00 | |
| DM0DOS-11 | 2026-08-31 06:38:40 | 50.13800 | 8.83641 | 20° | 5km/h | 20080m | -15.6m/s | -51.9°C | 3.3% | 57.7hPa | 2.6V | 03:11:17 | 02:09:47 | 00:00:00 | |
| DL3AQ-11 | 2026-08-31 06:38:40 | 50.13805 | 8.83644 | 20° | 7km/h | 20032m | -15.7m/s | -51.9°C | 0.9% | 58.1hPa | 2.7V | 00:00:00 | 00:00:00 | 00:00:00 | |
| DL1XH1-15 | 2026-08-31 06:38:39 | 50.13797 | 8.83640 | 12° | 7km/h | 20110m | -15.7m/s | -51.8°C | 3.3% | 57.4hPa | 2.7V | 03:11:19 | 02:09:45 | 00:00:00 | |
| HSKMA3-T | 2026-08-31 06:38:38 | 50.13803 | 8.83643 | 30° | 7km/h | 20048m | -15.7m/s | -51.9°C | 0.1% | 58hPa | 2.7V | 03:11:52 | 02:09:49 | 00:00:00 | |
| BIOWL1-15 | 2026-08-31 06:38:36 | 50.13800 | 8.83641 | 21° | 5km/h | 20080m | -15.6m/s | -51.9°C | 0.1% | 57.7hPa | 2.6V | 03:11:52 | 02:09:47 | 00:00:00 | |
| DL1XH-west | 2026-08-31 06:38:35 | 50.13798 | 8.83641 | 22° | 5km/h | 20095m | -15.6m/s | -51.9°C | 0.1% | 57.5hPa | 2.7V | 03:11:52 | 02:09:46 | 00:00:00 | |
| SFWM-10 | 2026-08-31 06:38:34 | 50.13798 | 8.83641 | 23° | 5km/h | 20095m | -15.6m/s | -51.9°C | 0.9% | 57.6hPa | 2.6V | 03:11:00 | 00:00:00 | 00:00:00 | |
| DK5PH-5 | 2026-08-31 06:38:33 | 50.13795 | 8.83640 | 1° | 20km/h | 20126m | -16.0m/s | -51.7°C | 3.3% | 57.3hPa | 2.6V | 00:00:00 | 02:09:44 | 00:00:00 | |
| DF2AP-13 | 2026-08-31 06:38:31 | 50.13789 | 8.83642 | 353° | 20km/h | 20157m | -15.8m/s | -51.7°C | 3.3% | 57.0hPa | 2.6V | 00:00:00 | 02:09:42 | 00:00:00 | |
| DB0ND-19 | 2026-08-31 06:38:30 | 50.13785 | 8.83643 | 351° | 15km/h | 20173m | -15.8m/s | -51.8°C | 0.8% | 56.9hPa | 2.6V | 00:00:00 | 00:00:00 | 00:00:00 | |
| DM0DOS-11 | 2026-08-31 06:38:29 | 50.13765 | 8.83646 | 2° | 24km/h | 20234m | -16.3m/s | -52°C | 3.4% | 56.3hPa | 2.6V | 03:11:27 | 02:09:37 | 00:00:00 | |
| DL1XH1-15 | 2026-08-31 06:38:29 | 50.13752 | 8.83645 | 11° | 26km/h | 20266m | -16.4m/s | -52.1°C | 3.4% | 56hPa | 2.7V | 03:11:29 | 02:09:35 | 00:00:00 | |
| HSKMA3-T | 2026-08-31 06:38:28 | 50.13776 | 8.83646 | 356° | 22km/h | 20204m | -16m/s | -51.9°C | 0.1% | 56.6hPa | 2.7V | 03:11:52 | 02:09:39 | 00:00:00 | |
| BIOWL1-15 | 2026-08-31 06:38:26 | 50.13765 | 8.83647 | 3° | 24km/h | 20235m | -16.3m/s | -52.1°C | 0.2% | 56.3hPa | 2.6V | 03:11:52 | 02:09:37 | 00:00:00 | |
| AA1-15 | 2026-08-31 06:38:25 | 50.13758 | 8.83646 | 6° | 26km/h | 20251m | -16.3m/s | -52.1°C | 0.2% | 56.2hPa | 2.6V | 03:11:52 | 02:09:36 | 00:00:00 | |
| DL1XH-west | 2026-08-31 06:38:24 | 50.13752 | 8.83645 | 11° | 26km/h | 20266m | -16.4m/s | -52.2°C | 0.2% | 56hPa | 2.7V | 03:11:52 | 02:09:35 | 00:00:00 | |
| DB0UT-7 | 2026-08-31 06:38:23 | 50.13745 | 8.83643 | 17° | 20km/h | 20283m | -16.3m/s | -52.1°C | 3.4% | 55.8hPa | 2.7V | 00:00:00 | 00:00:00 | 00:00:00 | |
| DD1CC8 | 2026-08-31 06:38:22 | 50.13734 | 8.83635 | 30° | 24km/h | 20315m | -16.6m/s | -52.1°C | 0.9% | 55.6hPa | 2.7V | 00:00:00 | 00:00:00 | 00:00:00 | |
| DL1XH1-15 | 2026-08-31 06:38:19 | 50.13705 | 8.83592 | 48° | 20km/h | 20429m | -16.4m/s | -52.1°C | 3.4% | 54.6hPa | 2.7V | 03:11:39 | 02:09:25 | 00:00:00 | |
| HSKMA3-T | 2026-08-31 06:38:18 | 50.13720 | 8.83618 | 49° | 24km/h | 20364m | -16.4m/s | -52.2°C | 0.2% | 55.2hPa | 2.7V | 03:11:52 | 02:09:29 | 00:00:00 | |
| DM0DOS-11 | 2026-08-31 06:38:17 | 50.13713 | 8.83605 | 53° | 22km/h | 20397m | -16.1m/s | -52.2°C | 3.4% | 54.9hPa | 2.6V | 03:11:37 | 02:09:27 | 00:00:00 | |
| BIOWL1-15 | 2026-08-31 06:38:17 | 50.13709 | 8.83598 | 51° | 22km/h | 20413m | -16.2m/s | -52.2°C | 0.2% | 54.8hPa | 2.6V | 03:11:52 | 02:09:26 | 00:00:00 | |
| DL1XH-west | 2026-08-31 06:38:14 | 50.13706 | 8.83592 | 49° | 20km/h | 20429m | -16.4m/s | -52.1°C | 0.2% | 54.6hPa | 2.7V | 03:11:52 | 02:09:25 | 00:00:00 | |
| AA1-15 | 2026-08-31 06:38:13 | 50.13702 | 8.83587 | 42° | 20km/h | 20445m | -16.5m/s | -52.1°C | 0.2% | 54.5hPa | 2.7V | 03:11:52 | 02:09:24 | 00:00:00 | |
| DL4BBY-15 | 2026-08-31 06:38:12 | 50.13698 | 8.83582 | 36° | 20km/h | 20462m | -16.5m/s | -52.6°C | 0% | 0hPa | 2.7V | 00:00:00 | 00:00:00 | 00:00:00 | |
| DM0DOS-11 | 2026-08-31 06:38:10 | 50.13671 | 8.83565 | 23° | 16km/h | 20575m | -16.5m/s | -52.3°C | 3.4% | 53.4hPa | 2.7V | 03:11:48 | 02:09:16 | 00:00:00 | |
| DL1XH1-15 | 2026-08-31 06:38:09 | 50.13667 | 8.83562 | 23° | 16km/h | 20591m | -16.6m/s | -52.2°C | 3.4% | 53.3hPa | 2.7V | 03:11:49 | 02:09:15 | 00:00:00 | |
| HSKMA3-T | 2026-08-31 06:38:08 | 50.13683 | 8.83572 | 18° | 18km/h | 20525m | -16.2m/s | -52.1°C | 0.2% | 53.9hPa | 2.6V | 03:11:52 | 02:09:19 | 00:00:00 | |
| BIOWL1-15 | 2026-08-31 06:38:04 | 50.13667 | 8.83562 | 23° | 16km/h | 20591m | -16.6m/s | -52.2°C | 0.1% | 53.3hPa | 2.7V | 03:11:52 | 02:09:15 | 00:00:00 | |
| DL1XH-west | 2026-08-31 06:38:03 | 50.13663 | 8.83559 | 30° | 15km/h | 20608m | -16.7m/s | -52.2°C | 0.2% | 53.2hPa | 2.7V | 03:11:52 | 02:09:14 | 00:00:00 | |
| DK5PH-5 | 2026-08-31 06:38:03 | 50.13663 | 8.83559 | 31° | 18km/h | 20608m | -16.6m/s | -52.1°C | 3.3% | 53.1hPa | 2.7V | 03:11:00 | 02:09:14 | 00:00:00 | |
| KANTATE | 2026-08-31 06:38:02 | 50.13663 | 8.83559 | 31° | 15km/h | 20608m | -16.7m/s | -52.2°C | 0.9% | 53.2hPa | 2.6V | 00:00:00 | 00:00:00 | 00:00:00 | |
| DF2AP-13 | 2026-08-31 06:38:01 | 50.13658 | 8.83553 | 54° | 18km/h | 20641m | -16.5m/s | -52.0°C | 3.3% | 52.9hPa | 2.6V | 00:00:00 | 02:09:12 | 00:00:00 | |
| DM0DOS-11 | 2026-08-31 06:38:00 | 50.13647 | 8.83523 | 53° | 20km/h | 20739m | -16.7m/s | -52.5°C | 3.4% | 52.1hPa | 2.6V | 03:11:58 | 02:09:06 | 00:00:00 | |
| DL1XH1-15 | 2026-08-31 06:37:59 | 50.13644 | 8.83516 | 50° | 22km/h | 20755m | -16.9m/s | -52.6°C | 3.4% | 51.9hPa | 2.6V | 03:11:59 | 02:09:05 | 00:00:00 | |
| HSKMA3-T | 2026-08-31 06:37:57 | 50.13652 | 8.83534 | 64° | 16km/h | 20707m | -16.5m/s | -52.4°C | 0.1% | 52.3hPa | 2.7V | 03:12:43 | 02:09:08 | 00:00:00 | |
| BIOWL1-15 | 2026-08-31 06:37:53 | 50.13640 | 8.83509 | 49° | 24km/h | 20772m | -16.8m/s | -52.7°C | 0.2% | 51.8hPa | 2.7V | 03:12:43 | 02:09:04 | 00:00:00 | |
| DL1XH-west | 2026-08-31 06:37:52 | 50.13636 | 8.83502 | 46° | 27km/h | 20789m | -16.9m/s | -52.8°C | 0.2% | 51.7hPa | 2.7V | 03:12:43 | 02:09:03 | 00:00:00 | |
| DD1CC8 | 2026-08-31 06:37:51 | 50.13626 | 8.83486 | 46° | 27km/h | 20823m | -17.2m/s | -52.8°C | 0.9% | 51.4hPa | 2.7V | 00:00:00 | 00:00:00 | 00:00:00 | |
| DL1XH1-15 | 2026-08-31 06:37:49 | 50.13599 | 8.83440 | 60° | 22km/h | 20925m | -17.2m/s | -53.3°C | 3.6% | 50.6hPa | 2.7V | 03:12:09 | 02:08:55 | 00:00:00 | |
| HSKMA3-T | 2026-08-31 06:37:47 | 50.13611 | 8.83462 | 46° | 27km/h | 20874m | -17.4m/s | -53.1°C | 0.3% | 51hPa | 2.6V | 03:12:43 | 02:08:58 | 00:00:00 | |
| DF8AY | 2026-08-31 06:37:45 | 50.13603 | 8.83447 | 52° | 24km/h | 20908m | -17.2m/s | -53.3°C | 0.3% | 50.7hPa | 2.7V | 03:12:43 | 02:08:56 | 00:00:00 | |
| BIOWL1-15 | 2026-08-31 06:37:42 | 50.13594 | 8.83425 | 69° | 22km/h | 20959m | -17.1m/s | -53.2°C | 0.3% | 50.3hPa | 2.6V | 03:12:43 | 02:08:53 | 00:00:00 | |
| DL1XH-west | 2026-08-31 06:37:41 | 50.13592 | 8.83418 | 73° | 20km/h | 20976m | -17.4m/s | -53.2°C | 0.3% | 50.2hPa | 2.6V | 03:12:43 | 02:08:52 | 00:00:00 | |
| HSKMA3-T | 2026-08-31 06:37:37 | 50.13587 | 8.83395 | 75° | 11km/h | 21045m | -17.5m/s | -53.5°C | 0.4% | 49.7hPa | 2.6V | 03:12:43 | 02:08:48 | 00:00:00 | |
| BIOWL1-15 | 2026-08-31 06:37:31 | 50.13580 | 8.83380 | 34° | 7km/h | 21149m | -17.7m/s | -53.8°C | 0.4% | 48.9hPa | 2.6V | 03:12:43 | 02:08:42 | 00:00:00 | |
| DL1XH-west | 2026-08-31 06:37:30 | 50.13579 | 8.83378 | 36° | 7km/h | 21167m | -17.5m/s | -53.8°C | 0.5% | 48.8hPa | 2.6V | 03:12:43 | 02:08:41 | 00:00:00 | |
| HSKMA3-T | 2026-08-31 06:37:26 | 50.13574 | 8.83372 | 32° | 5km/h | 21237m | -17.5m/s | -53.4°C | 0.4% | 48.2hPa | 2.7V | 03:12:43 | 02:08:37 | 00:00:00 | |
| DF8AY | 2026-08-31 06:37:25 | 50.13572 | 8.83371 | 16° | 5km/h | 21254m | -17.5m/s | -53.5°C | 0.4% | 48.1hPa | 2.6V | 03:12:43 | 02:08:36 | 00:00:00 | |
| BIOWL1-15 | 2026-08-31 06:37:23 | 50.13564 | 8.83373 | 347° | 11km/h | 21324m | -17.7m/s | -53.7°C | 0.4% | 47.6hPa | 2.7V | 03:12:43 | 02:08:32 | 00:00:00 | |
| DL1XH-west | 2026-08-31 06:37:20 | 50.13561 | 8.83374 | 349° | 11km/h | 21342m | -17.7m/s | -53.7°C | 0.5% | 47.4hPa | 2.6V | 03:12:43 | 02:08:31 | 00:00:00 | |
| AA1-15 | 2026-08-31 06:37:19 | 50.13558 | 8.83375 | 352° | 15km/h | 21359m | -17.4m/s | -53.7°C | 0.5% | 47.3hPa | 2.6V | 03:12:43 | 02:08:30 | 00:00:00 | |
| HSKMA3-T | 2026-08-31 06:37:15 | 50.13544 | 8.83373 | 21° | 15km/h | 21429m | -17.5m/s | -53.5°C | 0.4% | 46.8hPa | 2.6V | 03:12:43 | 02:08:26 | 00:00:00 | |
| BIOWL1-15 | 2026-08-31 06:37:12 | 50.13528 | 8.83354 | 41° | 18km/h | 21516m | -17.6m/s | -53.3°C | 0.4% | 46.2hPa | 2.6V | 03:12:43 | 02:08:21 | 00:00:00 | |
| DL1XH-west | 2026-08-31 06:37:09 | 50.13524 | 8.83350 | 40° | 18km/h | 21534m | -18.1m/s | -53.3°C | 0.4% | 46hPa | 2.7V | 03:13:34 | 02:08:20 | 00:00:00 | |
| DF8AY | 2026-08-31 06:37:08 | 50.13517 | 8.83342 | 32° | 16km/h | 21569m | -18m/s | -53.2°C | 0.4% | 45.8hPa | 2.7V | 03:13:34 | 02:08:18 | 00:00:00 | |
| AA1-15 | 2026-08-31 06:37:08 | 50.13521 | 8.83345 | 36° | 16km/h | 21551m | -18.2m/s | -53.3°C | 0.4% | 45.9hPa | 2.7V | 03:13:34 | 02:08:19 | 00:00:00 | |
| DM0DOS-11 | 2026-08-31 06:37:06 | 50.13509 | 8.83335 | 27° | 16km/h | 21605m | -17.7m/s | -52.9°C | 3.6% | 45.5hPa | 2.6V | 03:12:48 | 02:08:16 | 00:00:00 | |
| HSKMA3-T | 2026-08-31 06:37:04 | 50.13506 | 8.83332 | 31° | 15km/h | 21622m | -17.8m/s | -52.8°C | 0.3% | 45.4hPa | 2.6V | 03:13:34 | 02:08:15 | 00:00:00 | |
| BIOWL1-15 | 2026-08-31 06:37:02 | 50.13494 | 8.83317 | 50° | 16km/h | 21692m | -18.1m/s | -52.7°C | 0.3% | 44.9hPa | 2.6V | 03:13:34 | 02:08:11 | 00:00:00 | |
| DF2AP-13 | 2026-08-31 06:37:01 | 50.13497 | 8.83321 | 50° | 11km/h | 21675m | -18.1m/s | -52.7°C | 3.5% | 45.0hPa | 2.7V | 00:00:00 | 02:08:12 | 00:00:00 | |
| HEMX73-11 | 2026-08-31 06:37:00 | 50.13497 | 8.83321 | 51° | 15km/h | 21675m | -18.1m/s | -52.7°C | 0.9% | 45.0hPa | 2.6V | 03:13:00 | 00:00:00 | 00:00:00 | |
| DL1XH-15 | 2026-08-31 06:36:59 | 50.13480 | 8.83292 | 45° | 9km/h | 21803m | -17.8m/s | -52.5°C | 3.5% | 44.1hPa | 2.6V | 03:12:59 | 02:08:05 | 00:00:00 | |
| DL1XH-west | 2026-08-31 06:36:59 | 50.13492 | 8.83312 | 51° | 16km/h | 21710m | -18.8m/s | -52.8°C | 0.3% | 44.8hPa | 2.6V | 03:13:34 | 02:08:10 | 00:00:00 | |
| DF7PN | 2026-08-31 06:36:58 | 50.13486 | 8.83302 | 48° | 15km/h | 21747m | -18.8m/s | -52.7°C | 0.9% | 44.5hPa | 2.7V | 00:00:00 | 00:00:00 | 00:00:00 | |
| DM0DOS-11 | 2026-08-31 06:36:57 | 50.13482 | 8.83295 | 45° | 11km/h | 21784m | -18.6m/s | -52.5°C | 3.5% | 44.3hPa | 2.7V | 03:12:58 | 02:08:06 | 00:00:00 | |
| AA1-15 | 2026-08-31 06:36:57 | 50.13486 | 8.83302 | 48° | 15km/h | 21747m | -18.8m/s | -52.7°C | 0.3% | 44.5hPa | 2.7V | 03:13:34 | 02:08:08 | 00:00:00 | |
| DF8AY | 2026-08-31 06:36:56 | 50.13484 | 8.83298 | 42° | 13km/h | 21766m | -18.7m/s | -52.6°C | 0.3% | 44.4hPa | 2.7V | 03:13:34 | 02:08:07 | 00:00:00 | |
| HSKMA3-T | 2026-08-31 06:36:53 | 50.13478 | 8.83289 | 69° | 7km/h | 21820m | -18.2m/s | -52.5°C | 0.2% | 44hPa | 2.6V | 03:13:34 | 02:08:04 | 00:00:00 | |
| DL8DAS-14 | 2026-08-31 06:36:51 | 50.13478 | 8.83280 | 107° | 9km/h | 21875m | -18.4m/s | -52.6°C | 0.9% | 43.6hPa | 2.7V | 00:00:00 | 00:00:00 | 00:00:00 | |
| DM0DOS-11 | 2026-08-31 06:36:50 | 50.13481 | 8.83259 | 99° | 11km/h | 21967m | -18.5m/s | -52.8°C | 3.5% | 43hPa | 2.7V | 03:13:08 | 02:07:56 | 00:00:00 | |
| DL1XH1-15 | 2026-08-31 06:36:49 | 50.13481 | 8.83255 | 92° | 7km/h | 21986m | -18.7m/s | -52.9°C | 3.6% | 42.9hPa | 2.7V | 03:13:09 | 02:07:55 | 00:00:00 | |
| DL1XH-west | 2026-08-31 06:36:49 | 50.13479 | 8.83276 | 104° | 11km/h | 21893m | -18.4m/s | -52.6°C | 0.3% | 43.5hPa | 2.7V | 03:13:34 | 02:08:00 | 00:00:00 | |
| AA1-15 | 2026-08-31 06:36:46 | 50.13480 | 8.83263 | 106° | 11km/h | 21948m | -18.9m/s | -52.7°C | 0.3% | 43.2hPa | 2.6V | 03:13:34 | 02:07:57 | 00:00:00 | |
| DF8AY | 2026-08-31 06:36:45 | 50.13481 | 8.83259 | 100° | 11km/h | 21967m | -18.5m/s | -52.8°C | 0.3% | 43hPa | 2.7V | 03:13:34 | 02:07:56 | 00:00:00 | |
| HSKMA3-T | 2026-08-31 06:36:42 | 50.13481 | 8.83249 | 97° | 7km/h | 22023m | -18.5m/s | -53°C | 0.3% | 42.7hPa | 2.6V | 03:13:34 | 02:07:53 | 00:00:00 | |
| DL4BBY-15 | 2026-08-31 06:36:42 | 50.13481 | 8.83249 | 97° | 13km/h | 22022m | -18.5m/s | -53.5°C | 0% | 0hPa | 2.6V | 00:00:00 | 00:00:00 | 00:00:00 | |
| DL0LBS | 2026-08-31 06:36:41 | 50.13482 | 8.83249 | 98° | 7km/h | 22023m | -18.5m/s | -53.0°C | 0.9% | 42.7hPa | 2.6V | 03:13:00 | 00:00:00 | 00:00:00 | |
| NBG1-10 | 2026-08-31 06:36:40 | 50.13483 | 8.83242 | 106° | 13km/h | 22060m | -18.3m/s | -53.0°C | 3.6% | 42.4hPa | 2.6V | 03:13:00 | 02:07:51 | 00:00:00 | |
| DL1XH1-15 | 2026-08-31 06:36:39 | 50.13489 | 8.83218 | 143° | 9km/h | 22172m | -19m/s | -53°C | 3.6% | 41.7hPa | 2.6V | 03:13:19 | 02:07:45 | 00:00:00 | |
| DL1XH-west | 2026-08-31 06:36:38 | 50.13484 | 8.83234 | 110° | 13km/h | 22097m | -18.7m/s | -53.1°C | 0.3% | 42.2hPa | 2.6V | 03:13:34 | 02:07:49 | 00:00:00 | |
| DM0DOS-11 | 2026-08-31 06:36:37 | 50.13488 | 8.83221 | 118° | 9km/h | 22153m | -18.8m/s | -53.1°C | 3.6% | 41.8hPa | 2.6V | 03:13:18 | 02:07:46 | 00:00:00 | |
| DF8AY | 2026-08-31 06:36:35 | 50.13488 | 8.83221 | 118° | 9km/h | 22153m | -18.8m/s | -53.1°C | 0.4% | 41.8hPa | 2.6V | 03:13:34 | 02:07:46 | 00:00:00 | |
| HSKMA3-T | 2026-08-31 06:36:32 | 50.13493 | 8.83216 | 181° | 9km/h | 22210m | -18.8m/s | -53.1°C | 0.3% | 41.5hPa | 2.7V | 03:13:34 | 02:07:43 | 00:00:00 | |
| BIOWL1-15 | 2026-08-31 06:36:30 | 50.13503 | 8.83220 | 200° | 9km/h | 22285m | -18.6m/s | -52.8°C | 0.3% | 41hPa | 2.7V | 03:13:34 | 02:07:39 | 00:00:00 | |
| DL1XH1-15 | 2026-08-31 06:36:29 | 50.13507 | 8.83228 | 269° | 5km/h | 22360m | -19.1m/s | -52.7°C | 3.6% | 40.5hPa | 2.6V | 03:13:29 | 02:07:35 | 00:00:00 | |
| DO3DL | 2026-08-31 06:36:28 | 50.13501 | 8.83219 | 196° | 11km/h | 22267m | -18.8m/s | -53.0°C | 0.9% | 41.1hPa | 2.6V | 03:13:00 | 00:00:00 | 00:00:00 | |
| DM0DOS-11 | 2026-08-31 06:36:27 | 50.13507 | 8.83226 | 245° | 5km/h | 22341m | -19.1m/s | -52.8°C | 3.6% | 40.6hPa | 2.6V | 03:13:28 | 02:07:36 | 00:00:00 | |
| DL1XH-west | 2026-08-31 06:36:27 | 50.13505 | 8.83222 | 207° | 9km/h | 22304m | -18.8m/s | -52.7°C | 0.3% | 40.9hPa | 2.7V | 03:13:34 | 02:07:38 | 00:00:00 | |
| DF8AY | 2026-08-31 06:36:24 | 50.13507 | 8.83228 | 269° | 5km/h | 22360m | -19.1m/s | -52.7°C | 0.3% | 40.5hPa | 2.6V | 03:13:34 | 02:07:35 | 00:00:00 | |
| HSKMA3-T | 2026-08-31 06:36:22 | 50.13505 | 8.83234 | 305° | 13km/h | 22398m | -19.4m/s | -52.8°C | 0.3% | 40.3hPa | 2.7V | 03:13:34 | 02:07:33 | 00:00:00 | |
| DL0LBS | 2026-08-31 06:36:21 | 50.13505 | 8.83234 | 306° | 13km/h | 22398m | -19.4m/s | -52.8°C | 0.9% | 40.3hPa | 2.7V | 03:13:00 | 00:00:00 | 00:00:00 | |
| DL8DAS-14 | 2026-08-31 06:36:20 | 50.13496 | 8.83247 | 326° | 18km/h | 22455m | -19.0m/s | -52.9°C | 0.9% | 39.9hPa | 2.7V | 00:00:00 | 00:00:00 | 00:00:00 | |
| DL1XH1-15 | 2026-08-31 06:36:19 | 50.13472 | 8.83264 | 337° | 20km/h | 22549m | -19.4m/s | -53.4°C | 3.8% | 39.3hPa | 2.7V | 03:13:39 | 02:07:25 | 00:00:00 | |
| DB0NH | 2026-08-31 06:36:18 | 50.13492 | 8.83251 | 332° | 16km/h | 22474m | -18.8m/s | -53.0°C | 3.6% | 39.7hPa | 2.7V | 03:13:00 | 02:07:29 | 00:00:00 | |
| DM0DOS-11 | 2026-08-31 06:36:17 | 50.13477 | 8.83261 | 336° | 20km/h | 22530m | -19.3m/s | -53.3°C | 3.8% | 39.4hPa | 2.7V | 03:13:38 | 02:07:26 | 00:00:00 | |
| DL1XH-west | 2026-08-31 06:36:17 | 50.13487 | 8.83254 | 336° | 20km/h | 22493m | -19.1m/s | -53.1°C | 0.4% | 39.7hPa | 2.6V | 03:14:25 | 02:07:28 | 00:00:00 | |
| AA1-15 | 2026-08-31 06:36:14 | 50.13472 | 8.83264 | 337° | 20km/h | 22549m | -19.4m/s | -53.4°C | 0.5% | 39.3hPa | 2.7V | 03:14:25 | 02:07:25 | 00:00:00 | |
| HSKMA3-T | 2026-08-31 06:36:11 | 50.13460 | 8.83269 | 0° | 7km/h | 22605m | -18.6m/s | -53.2°C | 0.4% | 39hPa | 2.6V | 03:14:25 | 02:07:22 | 00:00:00 | |
| DL1XH1-15 | 2026-08-31 06:36:09 | 50.13463 | 8.83239 | 106° | 24km/h | 22726m | -17.1m/s | -52.5°C | 3.5% | 38.2hPa | 2.7V | 03:13:49 | 02:07:15 | 00:00:00 | |
| DL1XH-west | 2026-08-31 06:36:07 | 50.13459 | 8.83259 | 109° | 13km/h | 22676m | -16.7m/s | -52.9°C | 0.4% | 38.5hPa | 2.6V | 03:14:25 | 02:07:18 | 00:00:00 | |
| DF8AY | 2026-08-31 06:36:04 | 50.13463 | 8.83239 | 107° | 24km/h | 22726m | -17.1m/s | -52.5°C | 0.2% | 38.2hPa | 2.7V | 03:15:16 | 02:07:15 | 00:00:00 | |
| AA1-15 | 2026-08-31 06:36:03 | 50.13464 | 8.83230 | 102° | 27km/h | 22743m | -16.4m/s | -52.5°C | 0.2% | 38.1hPa | 2.7V | 03:14:25 | 02:07:14 | 00:00:00 | |
| HSKMA3-T | 2026-08-31 06:36:01 | 50.13467 | 8.83207 | 93° | 31km/h | 22774m | -15.5m/s | -52.5°C | 0.3% | 37.9hPa | 2.6V | 03:14:25 | 02:07:12 | 00:00:00 | |
| DO1YAY-16 | 2026-08-31 06:36:01 | 50.13467 | 8.83195 | 91° | 29km/h | 22791m | -16.9m/s | -52.5°C | 0.9% | 37.8hPa | 2.6V | 00:00:00 | 00:00:00 | 00:00:00 | |
| SONDE2-11 | 2026-08-31 06:36:00 | 50.13467 | 8.83183 | 93° | 27km/h | 22807m | -17.2m/s | -52.5°C | 0.9% | 37.7hPa | 2.6V | 00:00:00 | 00:00:00 | 00:00:00 | |
| DL1XH1-15 | 2026-08-31 06:35:59 | 50.13473 | 8.83146 | 111° | 7km/h | 22890m | -17m/s | -52.4°C | 3.5% | 37.3hPa | 2.6V | 03:13:59 | 02:07:05 | 00:00:00 | |
| BIOWL1-15 | 2026-08-31 06:35:59 | 50.13469 | 8.83164 | 101° | 24km/h | 22842m | -17.3m/s | -52.4°C | 0.3% | 37.5hPa | 2.7V | 03:14:25 | 02:07:08 | 00:00:00 | |
| DL1XH-west | 2026-08-31 06:35:56 | 50.13470 | 8.83156 | 110° | 20km/h | 22858m | -16.2m/s | -52.4°C | 0.3% | 37.4hPa | 2.7V | 03:14:25 | 02:07:07 | 00:00:00 | |
| AA1-15 | 2026-08-31 06:35:52 | 50.13474 | 8.83141 | 142° | 5km/h | 22926m | -18.4m/s | -52.5°C | 0.2% | 37.1hPa | 2.7V | 03:14:25 | 02:07:03 | 00:00:00 | |
| HSKMA3-T | 2026-08-31 06:35:50 | 50.13476 | 8.83136 | 88° | 7km/h | 22963m | -19m/s | -52.6°C | 0.3% | 36.9hPa | 2.7V | 03:14:25 | 02:07:01 | 00:00:00 | |
| BIOWL1-15 | 2026-08-31 06:35:46 | 50.13469 | 8.83116 | 53° | 24km/h | 23036m | -17.4m/s | -52.8°C | 0.3% | 36.4hPa | 2.7V | 03:14:25 | 02:06:57 | 00:00:00 | |
| DL1XH-west | 2026-08-31 06:35:45 | 50.13465 | 8.83110 | 37° | 24km/h | 23054m | -18.8m/s | -52.7°C | 0.3% | 36.4hPa | 2.7V | 03:14:25 | 02:06:56 | 00:00:00 | |
| AA1-15 | 2026-08-31 06:35:41 | 50.13442 | 8.83109 | 326° | 27km/h | 23124m | -16.8m/s | -52.8°C | 0.3% | 35.9hPa | 2.6V | 03:14:25 | 02:06:52 | 00:00:00 | |
| HSKMA3-T | 2026-08-31 06:35:40 | 50.13436 | 8.83117 | 302° | 33km/h | 23141m | -17.4m/s | -52.8°C | 0.3% | 35.8hPa | 2.7V | 03:14:25 | 02:06:51 | 00:00:00 | |
| BIOWL1-15 | 2026-08-31 06:35:35 | 50.13428 | 8.83184 | 253° | 33km/h | 23226m | -18.7m/s | -52.9°C | 0.3% | 35.4hPa | 2.6V | 03:14:25 | 02:06:46 | 00:00:00 | |
| DL1XH-west | 2026-08-31 06:35:34 | 50.13431 | 8.83195 | 244° | 29km/h | 23245m | -17.8m/s | -52.9°C | 0.3% | 35.3hPa | 2.7V | 03:14:25 | 02:06:45 | 00:00:00 | |
| AA1-15 | 2026-08-31 06:35:30 | 50.13445 | 8.83206 | 114° | 18km/h | 23307m | -14.3m/s | -53.1°C | 0.3% | 34.9hPa | 2.6V | 03:14:25 | 02:06:41 | 00:00:00 | |
| HSKMA3-T | 2026-08-31 06:35:29 | 50.13446 | 8.83198 | 88° | 26km/h | 23321m | -15m/s | -53.1°C | 0.4% | 34.8hPa | 2.6V | 03:14:25 | 02:06:40 | 00:00:00 | |
| SONDE2-11 | 2026-08-31 06:35:29 | 50.13445 | 8.83187 | 77° | 31km/h | 23337m | -15.9m/s | -53.1°C | 0.9% | 34.7hPa | 2.6V | 00:00:00 | 00:00:00 | 00:00:00 | |
| DM0DOS-11 | 2026-08-31 06:35:28 | 50.13434 | 8.83151 | 60° | 38km/h | 23385m | -16.5m/s | -53.1°C | 3.6% | 34.5hPa | 2.6V | 03:14:28 | 02:06:36 | 00:00:00 | |
| DL1XH-west | 2026-08-31 06:35:24 | 50.13430 | 8.83138 | 66° | 33km/h | 23402m | -17.3m/s | -53.1°C | 0.3% | 34.4hPa | 2.6V | 03:15:16 | 02:06:35 | 00:00:00 | |
| AA1-15 | 2026-08-31 06:35:20 | 50.13420 | 8.83104 | 62° | 13km/h | 23467m | -14.5m/s | -53.2°C | 0.4% | 34.1hPa | 2.7V | 03:15:16 | 02:06:31 | 00:00:00 | |
| DL3AQ-11 | 2026-08-31 06:35:20 | 50.13419 | 8.83101 | 87° | 5km/h | 23482m | -16.0m/s | -53.2°C | 0.9% | 34.0hPa | 2.7V | 00:00:00 | 00:00:00 | 00:00:00 | |
| DL1XH1-15 | 2026-08-31 06:35:19 | 50.13424 | 8.83102 | 241° | 7km/h | 23572m | -19.3m/s | -53.2°C | 3.8% | 33.5hPa | 2.7V | 03:14:39 | 02:06:25 | 00:00:00 | |
| HSKMA3-T | 2026-08-31 06:35:19 | 50.13419 | 8.83101 | 87° | 7km/h | 23482m | -16m/s | -53.2°C | 0.5% | 34hPa | 2.6V | 03:15:16 | 02:06:30 | 00:00:00 | |
| DM0DOS-11 | 2026-08-31 06:35:18 | 50.13423 | 8.83100 | 234° | 5km/h | 23554m | -18.5m/s | -53.2°C | 3.7% | 33.6hPa | 2.7V | 03:14:38 | 02:06:26 | 00:00:00 | |
| BIOWL1-15 | 2026-08-31 06:35:16 | 50.13424 | 8.83102 | 242° | 7km/h | 23572m | -19.3m/s | -53.2°C | 0.5% | 33.6hPa | 2.7V | 03:15:16 | 02:06:25 | 00:00:00 | |
| DL1XH-west | 2026-08-31 06:35:13 | 50.13425 | 8.83105 | 258° | 11km/h | 23592m | -19.2m/s | -53.1°C | 0.4% | 33.4hPa | 2.6V | 03:15:16 | 02:06:24 | 00:00:00 | |
| AA1-15 | 2026-08-31 06:35:09 | 50.13425 | 8.83131 | 270° | 18km/h | 23665m | -19.6m/s | -53.1°C | 0.4% | 33.1hPa | 2.7V | 03:15:16 | 02:06:20 | 00:00:00 | |
| DL1XH1-15 | 2026-08-31 06:35:09 | 50.13423 | 8.83152 | 310° | 4km/h | 23793m | -28.6m/s | -53.3°C | 3.7% | 32.5hPa | 2.7V | 03:14:49 | 02:06:15 | 00:00:00 | |
| HSKMA3-T | 2026-08-31 06:35:08 | 50.13425 | 8.83138 | 273° | 15km/h | 23685m | -20.6m/s | -53.1°C | 0.4% | 33hPa | 2.7V | 03:15:16 | 02:06:19 | 00:00:00 | |
| BIOWL1-15 | 2026-08-31 06:35:04 | 50.13423 | 8.83152 | 310° | 4km/h | 23793m | -28.6m/s | -53.3°C | 0.4% | 32.5hPa | 2.7V | 03:15:16 | 02:06:15 | 00:00:00 | |
| DL1XH-west | 2026-08-31 06:35:02 | 50.13423 | 8.83153 | 183° | 2km/h | 23844m | -23.6m/s | -53.1°C | 0.5% | 32.1hPa | 2.7V | 03:15:16 | 02:06:13 | 00:00:00 | |
| DF8AY | 2026-08-31 06:35:01 | 50.13423 | 8.83154 | 305° | 2km/h | 23866m | -19.7m/s | -53.1°C | 0.5% | 32hPa | 2.6V | 03:15:16 | 02:06:12 | 00:00:00 | |
| GOEST3-10 | 2026-08-31 06:35:01 | 50.13423 | 8.83154 | 305° | 11km/h | 23866m | -19.7m/s | -53.1°C | 3.8% | 32.0hPa | 2.6V | 00:00:00 | 02:06:12 | 00:00:00 | |
| DD1CC2-15 | 2026-08-31 06:35:00 | 50.13423 | 8.83154 | 306° | 2km/h | 23866m | -19.7m/s | -53.1°C | 1.0% | 32.0hPa | 2.6V | 03:15:00 | 00:00:00 | 00:00:00 | |
| DL1XH1-15 | 2026-08-31 06:34:59 | 50.13406 | 8.83184 | 332° | 16km/h | 24009m | -23.5m/s | -53°C | 3.9% | 31.3hPa | 2.6V | 03:14:59 | 02:06:05 | 00:00:00 | |
| AA1-15 | 2026-08-31 06:34:58 | 50.13420 | 8.83164 | 301° | 20km/h | 23920m | -19.4m/s | -53.3°C | 0.5% | 31.8hPa | 2.7V | 03:15:16 | 02:06:09 | 00:00:00 | |
| HSKMA3-T | 2026-08-31 06:34:57 | 50.13416 | 8.83170 | 314° | 18km/h | 23941m | -23.1m/s | -53.3°C | 0.6% | 31.7hPa | 2.7V | 03:15:16 | 02:06:08 | 00:00:00 | |
| BIOWL1-15 | 2026-08-31 06:34:55 | 50.13402 | 8.83187 | 338° | 16km/h | 24030m | -19.4m/s | -52.9°C | 0.6% | 31.2hPa | 2.6V | 03:15:16 | 02:06:04 | 00:00:00 | |
| DL1XH-west | 2026-08-31 06:34:52 | 50.13398 | 8.83188 | 346° | 15km/h | 24050m | -21.5m/s | -52.9°C | 0.6% | 31.1hPa | 2.7V | 03:15:16 | 02:06:03 | 00:00:00 | |
| DF8AY | 2026-08-31 06:34:50 | 50.13392 | 8.83190 | 348° | 11km/h | 24091m | -20.2m/s | -52.8°C | 0.6% | 30.9hPa | 2.7V | 03:15:16 | 02:06:01 | 00:00:00 | |
| DL1XH1-15 | 2026-08-31 06:34:49 | 50.13378 | 8.83209 | 301° | 18km/h | 24223m | -28.9m/s | -52.1°C | 3.6% | 30.4hPa | 2.7V | 03:15:09 | 02:05:55 | 00:00:00 | |
| DM0DOS-11 | 2026-08-31 06:34:48 | 50.13380 | 8.83204 | 302° | 16km/h | 24197m | -23.5m/s | -52.3°C | 3.7% | 30.4hPa | 2.7V | 03:15:08 | 02:05:56 | 00:00:00 | |
| HSKMA3-T | 2026-08-31 06:34:47 | 50.13385 | 8.83195 | 316° | 11km/h | 24151m | -22.7m/s | -52.6°C | 0.6% | 30.6hPa | 2.6V | 03:15:16 | 02:05:58 | 00:00:00 | |
| DL8DAS-14 | 2026-08-31 06:34:47 | 50.13383 | 8.83199 | 304° | 13km/h | 24174m | -24.5m/s | -52.4°C | 1.0% | 30.6hPa | 2.6V | 00:00:00 | 00:00:00 | 00:00:00 | |
| DL1XH-west | 2026-08-31 06:34:42 | 50.13372 | 8.83222 | 307° | 18km/h | 24290m | -35.7m/s | -52°C | 0.4% | 30.1hPa | 2.6V | 03:15:16 | 02:05:53 | 00:00:00 | |
| DF8AY | 2026-08-31 06:34:40 | 50.13365 | 8.83233 | 315° | 16km/h | 24361m | -36.2m/s | -51.6°C | 0.3% | 29.8hPa | 2.7V | 03:15:16 | 02:05:51 | 00:00:00 | |
| DL1XH1-15 | 2026-08-31 06:34:39 | 50.13342 | 8.83248 | 353° | 15km/h | 24579m | -37.3m/s | -51.1°C | 3.3% | 28.8hPa | 2.7V | 03:15:19 | 02:05:45 | 00:00:00 | |
| HSKMA3-T | 2026-08-31 06:34:36 | 50.13349 | 8.83246 | 336° | 16km/h | 24505m | -37.5m/s | -51.5°C | 0.3% | 29.1hPa | 2.6V | 03:16:07 | 02:05:47 | 00:00:00 | |
| DM0DOS-11 | 2026-08-31 06:34:35 | 50.13346 | 8.83247 | 353° | 13km/h | 24542m | -37m/s | -51.3°C | 3.4% | 29hPa | 2.6V | 03:15:18 | 02:05:46 | 00:00:00 | |
| BIOWL1-15 | 2026-08-31 06:34:32 | 50.13335 | 8.83247 | 18° | 13km/h | 24653m | -37.2m/s | -50.9°C | 0.2% | 28.5hPa | 2.7V | 03:16:07 | 02:05:43 | 00:00:00 | |
| DL1XH-west | 2026-08-31 06:34:31 | 50.13332 | 8.83246 | 6° | 11km/h | 24690m | -37.5m/s | -50.9°C | 0.1% | 28.3hPa | 2.6V | 03:16:07 | 02:05:42 | 00:00:00 | |
| DL1XH1-15 | 2026-08-31 06:34:29 | 50.13323 | 8.83231 | 116° | 7km/h | 24945m | -36.8m/s | -50.8°C | 3.2% | 27.2hPa | 2.6V | 03:15:29 | 02:05:35 | 00:00:00 | |
| DL1XH-15 | 2026-08-31 06:34:28 | 50.13323 | 8.83229 | 174° | 2km/h | 24981m | -36.3m/s | -51°C | 3.3% | 27.1hPa | 2.6V | 03:15:30 | 02:05:34 | 00:00:00 | |
| DF8AY | 2026-08-31 06:34:28 | 50.13325 | 8.83240 | 31° | 9km/h | 24800m | -36.3m/s | -50.8°C | 0.1% | 27.8hPa | 2.7V | 03:16:07 | 02:05:39 | 00:00:00 | |
| HSKMA3-T | 2026-08-31 06:34:26 | 50.13323 | 8.83235 | 64° | 7km/h | 24873m | -36.7m/s | -50.6°C | 0.1% | 27.5hPa | 2.7V | 03:16:07 | 02:05:37 | 00:00:00 | |
| DL1XH-west | 2026-08-31 06:34:21 | 50.13326 | 8.83229 | 202° | 5km/h | 25053m | -36.6m/s | -51.2°C | 0.2% | 26.8hPa | 2.7V | 03:16:07 | 02:05:32 | 00:00:00 | |
| DL1XH1-15 | 2026-08-31 06:34:19 | 50.13326 | 8.83249 | 289° | 13km/h | 25307m | -36.9m/s | -51.5°C | 3.5% | 25.8hPa | 2.7V | 03:15:39 | 02:05:25 | 00:00:00 | |
| DL1XH-15 | 2026-08-31 06:34:18 | 50.13325 | 8.83254 | 286° | 15km/h | 25343m | -37.1m/s | -51.5°C | 3.5% | 25.6hPa | 2.6V | 03:15:40 | 02:05:24 | 00:00:00 | |
| AA1-15 | 2026-08-31 06:34:15 | 50.13327 | 8.83244 | 279° | 11km/h | 25270m | -36.6m/s | -51.4°C | 0.2% | 25.8hPa | 2.7V | 03:16:07 | 02:05:26 | 00:00:00 | |
| BIOWL1-15 | 2026-08-31 06:34:11 | 50.13322 | 8.83265 | 291° | 18km/h | 25417m | -37.4m/s | -51.6°C | 0.3% | 25.3hPa | 2.6V | 03:16:07 | 02:05:22 | 00:00:00 | |
| DL1XH-west | 2026-08-31 06:34:10 | 50.13320 | 8.83271 | 298° | 16km/h | 25454m | -37m/s | -51.6°C | 0.3% | 25.1hPa | 2.7V | 03:16:07 | 02:05:21 | 00:00:00 | |
| DB0UT-7 | 2026-08-31 06:34:09 | 50.13318 | 8.83278 | 296° | 9km/h | 25490m | -37.4m/s | -51.5°C | 3.5% | 24.9hPa | 2.7V | 00:00:00 | 00:00:00 | 00:00:00 | |
| DL1XH-15 | 2026-08-31 06:34:08 | 50.13306 | 8.83307 | 311° | 11km/h | 25712m | -38m/s | -51.2°C | 3.4% | 24.1hPa | 2.7V | 03:15:50 | 02:05:14 | 00:00:00 | |
| HSKMA3-T | 2026-08-31 06:34:05 | 50.13310 | 8.83299 | 307° | 13km/h | 25638m | -37.6m/s | -51.6°C | 0.4% | 24.5hPa | 2.6V | 03:16:07 | 02:05:16 | 00:00:00 | |
| AA1-15 | 2026-08-31 06:34:04 | 50.13309 | 8.83303 | 300° | 13km/h | 25675m | -37.7m/s | -51.5°C | 0.3% | 24.3hPa | 2.7V | 03:16:07 | 02:05:15 | 00:00:00 | |
| DL1XH-west | 2026-08-31 06:34:00 | 50.13300 | 8.83318 | 318° | 15km/h | 25826m | -38.9m/s | -51°C | 0.3% | 23.8hPa | 2.6V | 03:16:07 | 02:05:11 | 00:00:00 | |
| HSKMA3-T | 2026-08-31 06:33:55 | 50.13288 | 8.83330 | 337° | 9km/h | 26017m | -38.9m/s | -51.3°C | 0.4% | 23hPa | 2.6V | 03:16:07 | 02:05:06 | 00:00:00 | |
| AA1-15 | 2026-08-31 06:33:53 | 50.13284 | 8.83330 | 17° | 9km/h | 26094m | -39.1m/s | -51.4°C | 0.4% | 22.8hPa | 2.6V | 03:16:07 | 02:05:04 | 00:00:00 | |
| BIOWL1-15 | 2026-08-31 06:33:49 | 50.13279 | 8.83321 | 66° | 9km/h | 26249m | -39.6m/s | -51.3°C | 0.4% | 22.2hPa | 2.6V | 03:16:07 | 02:05:00 | 00:00:00 | |
| DM0DOS-11 | 2026-08-31 06:33:48 | 50.13272 | 8.83318 | 331° | 11km/h | 26483m | -39.7m/s | -50.7°C | 3.6% | 21.4hPa | 2.6V | 03:16:10 | 02:04:54 | 00:00:00 | |
| DL3AQ-11 | 2026-08-31 06:33:47 | 50.13276 | 8.83317 | 1° | 4km/h | 26367m | -39.5m/s | -51.0°C | 0.9% | 21.9hPa | 2.7V | 00:00:00 | 00:00:00 | 00:00:00 | |
| HSKMA3-T | 2026-08-31 06:33:44 | 50.13274 | 8.83317 | 352° | 7km/h | 26444m | -39.3m/s | -50.8°C | 0.4% | 21.6hPa | 2.7V | 03:16:58 | 02:04:55 | 00:00:00 | |
| AA1-15 | 2026-08-31 06:33:42 | 50.13269 | 8.83320 | 353° | 9km/h | 26523m | -39.4m/s | -50.4°C | 0.4% | 21.3hPa | 2.6V | 03:16:58 | 02:04:53 | 00:00:00 | |
| DL1XH-west | 2026-08-31 06:33:39 | 50.13260 | 8.83321 | 9° | 11km/h | 26640m | -40.9m/s | -49.9°C | 0.3% | 20.9hPa | 2.7V | 03:16:58 | 02:04:50 | 00:00:00 | |
| BIOWL1-15 | 2026-08-31 06:33:38 | 50.13257 | 8.83320 | 21° | 7km/h | 26681m | -40.7m/s | -49.7°C | 0.3% | 20.8hPa | 2.7V | 03:16:58 | 02:04:49 | 00:00:00 | |
| DM0DOS-11 | 2026-08-31 06:33:37 | 50.13251 | 8.83309 | 116° | 5km/h | 26883m | -41m/s | -49.1°C | 3.2% | 20.2hPa | 2.7V | 03:16:20 | 02:04:44 | 00:00:00 | |
| HSKMA3-T | 2026-08-31 06:33:34 | 50.13251 | 8.83311 | 84° | 5km/h | 26843m | -41m/s | -49°C | 0.2% | 20.3hPa | 2.7V | 03:16:58 | 02:04:45 | 00:00:00 | |
| AA1-15 | 2026-08-31 06:33:31 | 50.13252 | 8.83305 | 141° | 7km/h | 26965m | -41.2m/s | -49.2°C | 0.2% | 19.9hPa | 2.6V | 03:16:58 | 02:04:42 | 00:00:00 | |
| DL1XH-west | 2026-08-31 06:33:29 | 50.13254 | 8.83301 | 153° | 5km/h | 27047m | -41.6m/s | -49.3°C | 0.3% | 19.7hPa | 2.6V | 03:16:58 | 02:04:40 | 00:00:00 | |
| BIOWL1-15 | 2026-08-31 06:33:27 | 50.13257 | 8.83299 | 161° | 7km/h | 27131m | -41.8m/s | -49.2°C | 0.2% | 19.4hPa | 2.7V | 03:16:58 | 02:04:38 | 00:00:00 | |
| HSKMA3-T | 2026-08-31 06:33:24 | 50.13264 | 8.83298 | 198° | 13km/h | 27257m | -41.9m/s | -49°C | 0.2% | 19.1hPa | 2.6V | 03:16:58 | 02:04:35 | 00:00:00 | |
| DF8AY | 2026-08-31 06:33:20 | 50.13273 | 8.83309 | 246° | 11km/h | 27424m | -42.8m/s | -48.6°C | 0.2% | 18.6hPa | 2.7V | 03:16:58 | 02:04:31 | 00:00:00 | |
| DL1XH-west | 2026-08-31 06:33:19 | 50.13274 | 8.83314 | 236° | 13km/h | 27467m | -42.7m/s | -48.4°C | 0.2% | 18.5hPa | 2.6V | 03:16:58 | 02:04:30 | 00:00:00 | |
| DB0NH | 2026-08-31 06:33:18 | 50.13275 | 8.83317 | 261° | 11km/h | 27510m | -43.3m/s | -48.3°C | 3.2% | 18.3hPa | 2.6V | 00:00:00 | 02:04:29 | 00:00:00 | |
| DL1XH-15 | 2026-08-31 06:33:17 | 50.13276 | 8.83340 | 243° | 7km/h | 27772m | -43.7m/s | -47.5°C | 3% | 17.6hPa | 2.6V | 03:16:41 | 02:04:23 | 00:00:00 | |
| BIOWL1-15 | 2026-08-31 06:33:16 | 50.13275 | 8.83325 | 259° | 9km/h | 27596m | -43.8m/s | -48°C | 0.1% | 18.1hPa | 2.7V | 03:16:58 | 02:04:27 | 00:00:00 | |
| DO3MHA-11 | 2026-08-31 06:33:16 | 50.13275 | 8.83325 | 259° | 9km/h | 27597m | -43.8m/s | -47.9°C | 3.1% | 18.1hPa | 2.7V | 00:00:00 | 02:04:27 | 00:00:00 | |
| GOEST3-10 | 2026-08-31 06:33:14 | 50.13276 | 8.83333 | 259° | 9km/h | 27684m | -43.8m/s | -47.7°C | 3.1% | 17.8hPa | 2.7V | 00:00:00 | 02:04:25 | 00:00:00 | |
| HSKMA3-T | 2026-08-31 06:33:14 | 50.13276 | 8.83333 | 259° | 7km/h | 27684m | -43.8m/s | -47.7°C | 0.1% | 17.9hPa | 2.7V | 03:16:58 | 02:04:25 | 00:00:00 | |
| DO2KSM | 2026-08-31 06:33:13 | 50.13276 | 8.83333 | 260° | 7km/h | 27684m | -43.8m/s | -47.7°C | 0.7% | 17.9hPa | 2.7V | 03:16:00 | 00:00:00 | 00:00:00 | |
| DL4BBY-15 | 2026-08-31 06:33:12 | 50.13277 | 8.83340 | 244° | 11km/h | 27772m | -43.7m/s | -48.0°C | 0% | 0hPa | 2.7V | 00:00:00 | 00:00:00 | 00:00:00 | |
| DL8OAI-8 | 2026-08-31 06:33:10 | 50.13277 | 8.83343 | 261° | 7km/h | 27816m | -44.2m/s | -47.4°C | 0.7% | 17.5hPa | 2.7V | 03:16:00 | 00:00:00 | 00:00:00 | |
| DL1XH1-15 | 2026-08-31 06:33:09 | 50.13284 | 8.83361 | 270° | 7km/h | 28129m | -44.8m/s | -46.3°C | 2.8% | 16.7hPa | 2.7V | 03:16:49 | 02:04:15 | 00:00:00 | |
| AA1-15 | 2026-08-31 06:33:09 | 50.13279 | 8.83347 | 236° | 5km/h | 27905m | -44.6m/s | -47.3°C | 0% | 17.2hPa | 2.7V | 03:16:58 | 02:04:20 | 00:00:00 | |
| DL1XH-west | 2026-08-31 06:33:08 | 50.13280 | 8.83350 | 218° | 9km/h | 27950m | -44.8m/s | -47.1°C | 0% | 17.2hPa | 2.7V | 03:16:58 | 02:04:19 | 00:00:00 | |
| DF8AY | 2026-08-31 06:33:07 | 50.13282 | 8.83352 | 223° | 7km/h | 27994m | -45.1m/s | -46.7°C | 0% | 17hPa | 2.6V | 03:16:58 | 02:04:18 | 00:00:00 | |
| BIOWL1-15 | 2026-08-31 06:33:06 | 50.13283 | 8.83355 | 254° | 9km/h | 28039m | -44.8m/s | -46.5°C | 0% | 17hPa | 2.6V | 03:16:58 | 02:04:17 | 00:00:00 | |
| HSKMA3-T | 2026-08-31 06:33:03 | 50.13284 | 8.83364 | 267° | 7km/h | 28174m | -44.7m/s | -46.2°C | 0% | 16.6hPa | 2.7V | 03:16:58 | 02:04:14 | 00:00:00 | |
| DK5PH-5 | 2026-08-31 06:33:03 | 50.13284 | 8.83364 | 267° | 13km/h | 28174m | -44.7m/s | -46.2°C | 2.7% | 16.5hPa | 2.6V | 00:00:00 | 02:04:14 | 00:00:00 | |
| DM7RM-13 | 2026-08-31 06:33:02 | 50.13284 | 8.83364 | 268° | 7km/h | 28174m | -44.7m/s | -46.2°C | 0.6% | 16.6hPa | 2.6V | 03:16:00 | 00:00:00 | 00:00:00 | |
| SONCRA | 2026-08-31 06:33:01 | 50.13284 | 8.83368 | 293° | 4km/h | 28264m | -44.4m/s | -46.2°C | 0.6% | 16.3hPa | 2.6V | 00:00:00 | 00:00:00 | 00:00:00 | |
| DL1NUX | 2026-08-31 06:32:59 | 50.13277 | 8.83375 | 302° | 16km/h | 28548m | -32.7m/s | -46.3°C | 2.8% | 15.5hPa | 2.6V | 03:16:59 | 02:04:05 | 00:00:00 | |
| AA1-15 | 2026-08-31 06:32:59 | 50.13283 | 8.83369 | 92° | 4km/h | 28351m | -42.7m/s | -46.6°C | 0% | 16.1hPa | 2.6V | 03:16:58 | 02:04:10 | 00:00:00 | |
| DL1XH-west | 2026-08-31 06:32:58 | 50.13283 | 8.83368 | 71° | 4km/h | 28394m | -42m/s | -46.8°C | 0% | 16hPa | 2.7V | 03:16:58 | 02:04:09 | 00:00:00 | |
| BIOWL1-15 | 2026-08-31 06:32:56 | 50.13281 | 8.83368 | 331° | 7km/h | 28475m | -39.1m/s | -46.8°C | 0% | 15.8hPa | 2.7V | 03:16:58 | 02:04:07 | 00:00:00 | |
| HSKMA3-T | 2026-08-31 06:32:53 | 50.13275 | 8.83381 | 297° | 20km/h | 28579m | -28.7m/s | -46°C | 0% | 15.5hPa | 2.6V | 03:17:49 | 02:04:04 | 00:00:00 | |
| DO2KSM | 2026-08-31 06:32:52 | 50.13275 | 8.83381 | 298° | 20km/h | 28580m | -28.7m/s | -46.0°C | 0.6% | 15.5hPa | 2.7V | 03:17:00 | 00:00:00 | 00:00:00 | |
| DO3DL | 2026-08-31 06:32:50 | 50.13271 | 8.83401 | 283° | 29km/h | 28641m | -35.7m/s | -45.4°C | 0.5% | 15.3hPa | 2.7V | 03:17:00 | 00:00:00 | 00:00:00 | |
| DL1XH1-15 | 2026-08-31 06:32:49 | 50.13290 | 8.83426 | 192° | 18km/h | 28862m | -9.1m/s | -44.8°C | 2.5% | 14.7hPa | 2.7V | 03:17:09 | 02:03:55 | 00:00:00 | |
| DB0ND-19 | 2026-08-31 06:32:49 | 50.13276 | 8.83419 | 216° | 13km/h | 28762m | -37.7m/s | -45.4°C | 0.6% | 15.1hPa | 2.6V | 00:00:00 | 00:00:00 | 00:00:00 | |
| DM0DOS-11 | 2026-08-31 06:32:48 | 50.13295 | 8.83427 | 193° | 18km/h | 28866m | 0.5m/s | -44.8°C | 2.4% | 14.7hPa | 2.6V | 03:17:10 | 02:03:54 | 00:00:00 | |
| AA1-15 | 2026-08-31 06:32:48 | 50.13276 | 8.83419 | 217° | 15km/h | 28762m | -37.7m/s | -45.4°C | 0% | 15.1hPa | 2.6V | 03:17:49 | 02:03:59 | 00:00:00 | |
| BIOWL1-15 | 2026-08-31 06:32:47 | 50.13286 | 8.83425 | 189° | 15km/h | 28848m | -17.6m/s | -45°C | 0% | 14.8hPa | 2.7V | 03:17:49 | 02:03:56 | 00:00:00 | |
| DL1XH-west | 2026-08-31 06:32:47 | 50.13279 | 8.83422 | 199° | 15km/h | 28797m | -32.5m/s | -45.3°C | 0% | 15hPa | 2.6V | 03:17:49 | 02:03:58 | 00:00:00 | |
| EDDB2-11 | 2026-08-31 06:32:46 | 50.13282 | 8.83423 | 193° | 15km/h | 28826m | -25.7m/s | -45.2°C | 0.6% | 14.9hPa | 2.7V | 00:00:00 | 00:00:00 | 00:00:00 | |
| DF8AY | 2026-08-31 06:32:45 | 50.13290 | 8.83426 | 192° | 18km/h | 28862m | -9.1m/s | -44.8°C | 0% | 14.8hPa | 2.7V | 03:17:49 | 02:03:55 | 00:00:00 | |
| HSKMA3-T | 2026-08-31 06:32:43 | 50.13295 | 8.83427 | 193° | 18km/h | 28866m | 0.5m/s | -44.8°C | 0% | 14.7hPa | 2.6V | 03:17:49 | 02:03:54 | 00:00:00 | |
| DO3DL | 2026-08-31 06:32:43 | 50.13290 | 8.83426 | 193° | 18km/h | 28862m | -9.1m/s | -44.8°C | 0.5% | 14.7hPa | 2.7V | 03:17:00 | 00:00:00 | 00:00:00 | |
| DL4BBY-15 | 2026-08-31 06:32:42 | 50.13299 | 8.83429 | 193° | 11km/h | 28861m | 12.2m/s | -45.5°C | 0% | 0hPa | 2.7V | 00:00:00 | 00:00:00 | 00:00:00 | |
| DL1CLM-18 | 2026-08-31 06:32:39 | 50.13306 | 8.83430 | 176° | 15km/h | 28847m | 6.1m/s | 0°C | 0% | 0hPa | 2.7V | 00:00:00 | 00:00:00 | 00:00:00 | |
| DM0DOS-11 | 2026-08-31 06:32:38 | 50.13325 | 8.83426 | 176° | 9km/h | 28808m | 5.3m/s | -45.5°C | 2.6% | 14.9hPa | 2.7V | 03:17:20 | 02:03:44 | 00:00:00 | |
| AA1-15 | 2026-08-31 06:32:38 | 50.13312 | 8.83427 | 157° | 11km/h | 28835m | 4.7m/s | -45.2°C | 0% | 14.8hPa | 2.7V | 03:17:49 | 02:03:49 | 00:00:00 | |
| BIOWL1-15 | 2026-08-31 06:32:37 | 50.13320 | 8.83425 | 187° | 11km/h | 28819m | 5.3m/s | -45.3°C | 0% | 14.8hPa | 2.6V | 03:17:49 | 02:03:46 | 00:00:00 | |
| DL1XH-west | 2026-08-31 06:32:37 | 50.13315 | 8.83426 | 164° | 11km/h | 28830m | 5.3m/s | -45.3°C | 0% | 14.8hPa | 2.6V | 03:17:49 | 02:03:48 | 00:00:00 | |
| HSKMA3-T | 2026-08-31 06:32:32 | 50.13327 | 8.83425 | 157° | 9km/h | 28803m | 5.9m/s | -45.5°C | 0% | 14.9hPa | 2.7V | 03:17:49 | 02:03:43 | 00:00:00 | |
| DF8AY | 2026-08-31 06:32:30 | 50.13331 | 8.83421 | 148° | 9km/h | 28793m | 4.1m/s | -45.6°C | 0% | 14.9hPa | 2.6V | 03:17:49 | 02:03:41 | 00:00:00 | |
| DL1XH1-15 | 2026-08-31 06:32:29 | 50.13347 | 8.83427 | 197° | 9km/h | 28761m | 6.2m/s | -45.7°C | 2.6% | 15hPa | 2.6V | 03:17:29 | 02:03:35 | 00:00:00 | |
| AA1-15 | 2026-08-31 06:32:27 | 50.13339 | 8.83421 | 205° | 13km/h | 28777m | 5.2m/s | -45.8°C | 0% | 14.9hPa | 2.7V | 03:17:49 | 02:03:38 | 00:00:00 | |
| DL1XH-west | 2026-08-31 06:32:26 | 50.13342 | 8.83423 | 211° | 13km/h | 28772m | 4.5m/s | -45.7°C | 0% | 15hPa | 2.7V | 03:17:49 | 02:03:37 | 00:00:00 | |
| BIOWL1-15 | 2026-08-31 06:32:24 | 50.13347 | 8.83427 | 197° | 9km/h | 28761m | 6.2m/s | -45.7°C | 0% | 15hPa | 2.6V | 03:17:49 | 02:03:35 | 00:00:00 | |
| DL1NUX | 2026-08-31 06:32:23 | 50.13356 | 8.83425 | 176° | 7km/h | 28735m | 4.9m/s | -45.7°C | 2.7% | 15hPa | 2.6V | 03:17:34 | 02:03:30 | 00:00:00 | |
| HSKMA3-T | 2026-08-31 06:32:22 | 50.13351 | 8.83427 | 156° | 7km/h | 28751m | 4.5m/s | -45.8°C | 0% | 15hPa | 2.7V | 03:17:49 | 02:03:33 | 00:00:00 | |
| DF8AY | 2026-08-31 06:32:19 | 50.13356 | 8.83425 | 176° | 7km/h | 28735m | 4.9m/s | -45.7°C | 0% | 15hPa | 2.6V | 03:17:49 | 02:03:30 | 00:00:00 | |
| DL1XH1-15 | 2026-08-31 06:32:19 | 50.13364 | 8.83413 | 125° | 13km/h | 28708m | 4.7m/s | -45.8°C | 2.6% | 15.1hPa | 2.7V | 03:17:39 | 02:03:25 | 00:00:00 | |
| BIOWL1-15 | 2026-08-31 06:32:16 | 50.13365 | 8.83413 | 126° | 13km/h | 28708m | 4.7m/s | -45.8°C | 0% | 15.1hPa | 2.7V | 03:17:49 | 02:03:25 | 00:00:00 | |
| DL1XH-west | 2026-08-31 06:32:16 | 50.13361 | 8.83420 | 124° | 11km/h | 28718m | 5.9m/s | -45.8°C | 0% | 15.1hPa | 2.7V | 03:17:49 | 02:03:27 | 00:00:00 | |
| DB0NH | 2026-08-31 06:32:16 | 50.13361 | 8.83420 | 125° | 7km/h | 28718m | 5.9m/s | -45.7°C | 2.6% | 15.0hPa | 2.7V | 00:00:00 | 02:03:27 | 00:00:00 | |
| DL1XH-15 | 2026-08-31 06:32:15 | 50.13374 | 8.83404 | 162° | 11km/h | 28686m | 5.6m/s | -45.6°C | 2.6% | 15.2hPa | 2.7V | 03:17:43 | 02:03:21 | 00:00:00 | |
| HSKMA3-T | 2026-08-31 06:32:12 | 50.13369 | 8.83407 | 157° | 11km/h | 28696m | 5.6m/s | -45.8°C | 0% | 15.1hPa | 2.6V | 03:17:49 | 02:03:23 | 00:00:00 | |
| DL4BBY-15 | 2026-08-31 06:32:12 | 50.13369 | 8.83407 | 158° | 7km/h | 28697m | 5.5m/s | -46.3°C | 0% | 0hPa | 2.6V | 00:00:00 | 00:00:00 | 00:00:00 | |
| GOEST3-10 | 2026-08-31 06:32:11 | 50.13372 | 8.83405 | 166° | 11km/h | 28692m | 4.6m/s | -45.6°C | 2.6% | 15.1hPa | 2.6V | 00:00:00 | 02:03:22 | 00:00:00 | |
| SFWM-10 | 2026-08-31 06:32:10 | 50.13371 | 8.83405 | 166° | 11km/h | 28692m | 4.7m/s | -45.6°C | 0.6% | 15.1hPa | 2.7V | 00:00:00 | 00:00:00 | 00:00:00 | |
| DL1XH1-15 | 2026-08-31 06:32:09 | 50.13387 | 8.83395 | 144° | 9km/h | 28654m | 4.5m/s | -45.8°C | 2.6% | 15.2hPa | 2.7V | 03:17:49 | 02:03:15 | 00:00:00 | |
| DM0DOS-11 | 2026-08-31 06:32:08 | 50.13388 | 8.83392 | 120° | 9km/h | 28649m | 5.7m/s | -45.9°C | 2.6% | 15.2hPa | 2.7V | 03:17:50 | 02:03:14 | 00:00:00 | |
| DF8AY | 2026-08-31 06:32:08 | 50.13379 | 8.83401 | 147° | 9km/h | 28675m | 4.7m/s | -45.7°C | 0% | 15.2hPa | 2.7V | 03:17:49 | 02:03:19 | 00:00:00 | |
| BIOWL1-15 | 2026-08-31 06:32:07 | 50.13388 | 8.83392 | 120° | 9km/h | 28649m | 5.7m/s | -45.9°C | 0% | 15.2hPa | 2.7V | 03:18:40 | 02:03:14 | 00:00:00 | |
| DO3MHA-11 | 2026-08-31 06:32:06 | 50.13383 | 8.83397 | 157° | 9km/h | 28665m | 6.1m/s | -45.7°C | 2.6% | 15.2hPa | 2.6V | 00:00:00 | 02:03:17 | 00:00:00 | |
| DL1XH-15 | 2026-08-31 06:32:05 | 50.13390 | 8.83377 | 89° | 13km/h | 28634m | 4.2m/s | -45.9°C | 2.6% | 15.3hPa | 2.6V | 03:17:53 | 02:03:11 | 00:00:00 | |
| DL1XH-west | 2026-08-31 06:32:05 | 50.13385 | 8.83396 | 159° | 9km/h | 28659m | 5.1m/s | -45.8°C | 0% | 15.2hPa | 2.6V | 03:17:49 | 02:03:16 | 00:00:00 | |
| HSKMA3-T | 2026-08-31 06:32:01 | 50.13389 | 8.83383 | 91° | 15km/h | 28638m | 4.4m/s | -45.9°C | 0% | 15.3hPa | 2.6V | 03:18:40 | 02:03:12 | 00:00:00 | |
| DF8AY | 2026-08-31 06:31:58 | 50.13389 | 8.83370 | 89° | 4km/h | 28623m | 5.6m/s | -46.2°C | 0% | 15.3hPa | 2.7V | 03:18:40 | 02:03:09 | 00:00:00 | |
| DL1ZP-14 | 2026-08-31 06:31:57 | 50.13389 | 8.83369 | 315° | 0km/h | 28614m | 4.1m/s | -46.3°C | 0.6% | 15.3hPa | 2.7V | 00:00:00 | 00:00:00 | 00:00:00 | |
| BIOWL9-15 | 2026-08-31 06:31:56 | 50.13389 | 8.83370 | 348° | 0km/h | 28609m | 5.7m/s | -46.3°C | 0.6% | 15.3hPa | 2.7V | 00:00:00 | 00:00:00 | 00:00:00 | |
| DL1XH-15 | 2026-08-31 06:31:55 | 50.13389 | 8.83361 | 139° | 5km/h | 28582m | 6.1m/s | -46.7°C | 2.7% | 15.4hPa | 2.7V | 03:18:03 | 02:03:01 | 00:00:00 | |
| DM0DOS-11 | 2026-08-31 06:31:54 | 50.13388 | 8.83368 | 76° | 5km/h | 28598m | 5m/s | -46.4°C | 2.6% | 15.3hPa | 2.6V | 03:18:00 | 02:03:04 | 00:00:00 | |
| DL1XH-west | 2026-08-31 06:31:54 | 50.13388 | 8.83369 | 62° | 4km/h | 28603m | 5.7m/s | -46.4°C | 0% | 15.3hPa | 2.6V | 03:18:40 | 02:03:05 | 00:00:00 | |
| BIOWL1-15 | 2026-08-31 06:31:53 | 50.13388 | 8.83368 | 76° | 5km/h | 28598m | 5m/s | -46.4°C | 0% | 15.3hPa | 2.6V | 03:18:40 | 02:03:04 | 00:00:00 | |
| HSKMA3-T | 2026-08-31 06:31:51 | 50.13388 | 8.83363 | 111° | 5km/h | 28588m | 4.9m/s | -46.6°C | 0% | 15.4hPa | 2.7V | 03:18:40 | 02:03:02 | 00:00:00 | |
| AA1-15 | 2026-08-31 06:31:50 | 50.13389 | 8.83361 | 140° | 5km/h | 28583m | 6.1m/s | -46.7°C | 0% | 15.4hPa | 2.7V | 03:18:40 | 02:03:01 | 00:00:00 | |
| DF8AY | 2026-08-31 06:31:48 | 50.13393 | 8.83359 | 128° | 2km/h | 28567m | 5.6m/s | -46.8°C | 0% | 15.4hPa | 2.6V | 03:18:40 | 02:02:58 | 00:00:00 | |
| DL3AQ-11 | 2026-08-31 06:31:47 | 50.13392 | 8.83358 | 38° | 4km/h | 28562m | 5.7m/s | -46.9°C | 0.6% | 15.4hPa | 2.7V | 00:00:00 | 00:00:00 | 00:00:00 | |
| DO3MHA-11 | 2026-08-31 06:31:46 | 50.13392 | 8.83358 | 39° | 13km/h | 28562m | 5.6m/s | -46.8°C | 2.7% | 15.4hPa | 2.7V | 03:18:00 | 02:02:57 | 00:00:00 | |
| DL1XH-15 | 2026-08-31 06:31:45 | 50.13373 | 8.83356 | 357° | 15km/h | 28530m | 4.9m/s | -47.1°C | 2.8% | 15.5hPa | 2.7V | 03:18:13 | 02:02:51 | 00:00:00 | |
| DL1XH-west | 2026-08-31 06:31:43 | 50.13384 | 8.83355 | 3° | 15km/h | 28546m | 6.1m/s | -47°C | 0% | 15.5hPa | 2.6V | 03:18:40 | 02:02:54 | 00:00:00 | |
| HSKMA3-T | 2026-08-31 06:31:40 | 50.13373 | 8.83356 | 357° | 15km/h | 28530m | 4.9m/s | -47.1°C | 0% | 15.5hPa | 2.7V | 03:18:40 | 02:02:51 | 00:00:00 | |
| AA1-15 | 2026-08-31 06:31:39 | 50.13369 | 8.83356 | 6° | 15km/h | 28525m | 6.2m/s | -47.1°C | 0% | 15.5hPa | 2.7V | 03:18:40 | 02:02:50 | 00:00:00 | |
| DL1XH1-15 | 2026-08-31 06:31:39 | 50.13358 | 8.83353 | 271° | 4km/h | 28499m | 4.9m/s | -47.2°C | 2.8% | 15.6hPa | 2.7V | 03:18:19 | 02:02:45 | 00:00:00 | |
| DF8AY | 2026-08-31 06:31:37 | 50.13362 | 8.83354 | 20° | 13km/h | 28515m | 4.2m/s | -47.2°C | 0% | 15.6hPa | 2.6V | 03:18:40 | 02:02:48 | 00:00:00 | |
| DO8TBO-1 | 2026-08-31 06:31:37 | 50.13362 | 8.83353 | 20° | 7km/h | 28515m | 4.1m/s | -47.2°C | 2.9% | 15.5hPa | 2.6V | 00:00:00 | 02:02:48 | 00:00:00 | |
| DL3AQ-11 | 2026-08-31 06:31:36 | 50.13359 | 8.83352 | 354° | 2km/h | 28505m | 6.0m/s | -47.2°C | 0.7% | 15.6hPa | 2.6V | 00:00:00 | 00:00:00 | 00:00:00 | |
| DL1XH-15 | 2026-08-31 06:31:35 | 50.13355 | 8.83358 | 357° | 11km/h | 28479m | 5.2m/s | -47.2°C | 2.8% | 15.6hPa | 2.6V | 03:18:23 | 02:02:41 | 00:00:00 | |
| BIOWL1-15 | 2026-08-31 06:31:34 | 50.13358 | 8.83356 | 295° | 4km/h | 28490m | 5.1m/s | -47.3°C | 0% | 15.6hPa | 2.7V | 03:18:40 | 02:02:43 | 00:00:00 | |
| DL1XH-west | 2026-08-31 06:31:33 | 50.13358 | 8.83354 | 268° | 5km/h | 28495m | 4.2m/s | -47.3°C | 0% | 15.6hPa | 2.7V | 03:18:40 | 02:02:44 | 00:00:00 | |
| DF8AY | 2026-08-31 06:31:31 | 50.13344 | 8.83359 | 333° | 7km/h | 28459m | 5.1m/s | -47.2°C | 0% | 15.7hPa | 2.7V | 03:18:40 | 02:02:37 | 00:00:00 | |
| GOEST3-10 | 2026-08-31 06:31:31 | 50.13357 | 8.83357 | 339° | 11km/h | 28485m | 5.6m/s | -47.2°C | 2.9% | 15.6hPa | 2.6V | 00:00:00 | 02:02:42 | 00:00:00 | |
| DL1XH1-15 | 2026-08-31 06:31:29 | 50.13343 | 8.83361 | 219° | 2km/h | 28450m | 4.9m/s | -47.2°C | 2.9% | 15.7hPa | 2.6V | 03:18:29 | 02:02:35 | 00:00:00 | |
| HSKMA3-T | 2026-08-31 06:31:29 | 50.13352 | 8.83358 | 0° | 13km/h | 28474m | 4.6m/s | -47.3°C | 0% | 15.6hPa | 2.6V | 03:18:40 | 02:02:40 | 00:00:00 | |
| AA1-15 | 2026-08-31 06:31:28 | 50.13349 | 8.83358 | 358° | 13km/h | 28470m | 4.6m/s | -47.2°C | 0% | 15.7hPa | 2.7V | 03:18:40 | 02:02:39 | 00:00:00 | |
| GOEST3-10 | 2026-08-31 06:31:26 | 50.13344 | 8.83359 | 334° | 4km/h | 28460m | 5.0m/s | -47.2°C | 2.9% | 15.6hPa | 2.7V | 03:18:00 | 00:00:00 | 00:00:00 | |
| DL1XH-15 | 2026-08-31 06:31:25 | 50.13345 | 8.83360 | 250° | 2km/h | 28430m | 5.1m/s | -47.2°C | 2.9% | 15.8hPa | 2.7V | 03:18:33 | 02:02:31 | 00:00:00 | |
| BIOWL1-15 | 2026-08-31 06:31:23 | 50.13344 | 8.83360 | 123° | 2km/h | 28434m | 4m/s | -47.2°C | 0% | 15.7hPa | 2.7V | 03:18:40 | 02:02:32 | 00:00:00 | |
| DL1XH-west | 2026-08-31 06:31:22 | 50.13344 | 8.83360 | 123° | 4km/h | 28439m | 5m/s | -47.2°C | 0% | 15.7hPa | 2.7V | 03:18:40 | 02:02:33 | 00:00:00 | |
| DJ2DS-15 | 2026-08-31 06:31:21 | 50.13344 | 8.83360 | 250° | 0km/h | 28430m | 5.1m/s | -47.2°C | 0.7% | 15.8hPa | 2.7V | 00:00:00 | 00:00:00 | 00:00:00 | |
| DL3AQ-11 | 2026-08-31 06:31:20 | 50.13344 | 8.83361 | 274° | 5km/h | 28424m | 6.0m/s | -47.2°C | 0.6% | 15.8hPa | 2.7V | 00:00:00 | 00:00:00 | 00:00:00 | |
| DL1XH1-15 | 2026-08-31 06:31:19 | 50.13335 | 8.83378 | 333° | 13km/h | 28398m | 3.8m/s | -47.1°C | 2.9% | 15.8hPa | 2.7V | 03:18:39 | 02:02:25 | 00:00:00 | |
| DM0DOS-11 | 2026-08-31 06:31:18 | 50.13332 | 8.83381 | 330° | 11km/h | 28394m | 4.4m/s | -47.1°C | 2.8% | 15.8hPa | 2.6V | 03:18:40 | 02:02:24 | 00:00:00 | |
| HSKMA3-T | 2026-08-31 06:31:18 | 50.13344 | 8.83364 | 288° | 11km/h | 28418m | 5.1m/s | -47.2°C | 0% | 15.8hPa | 2.6V | 03:18:40 | 02:02:29 | 00:00:00 | |
| AA1-15 | 2026-08-31 06:31:17 | 50.13343 | 8.83368 | 300° | 13km/h | 28413m | 4.8m/s | -47.2°C | 0% | 15.8hPa | 2.6V | 03:18:40 | 02:02:28 | 00:00:00 | |
| DF8AY | 2026-08-31 06:31:16 | 50.13341 | 8.83372 | 313° | 13km/h | 28408m | 6.1m/s | -47.2°C | 0% | 15.8hPa | 2.7V | 03:18:40 | 02:02:27 | 00:00:00 | |
| DO3MHA-11 | 2026-08-31 06:31:16 | 50.13341 | 8.83372 | 313° | 9km/h | 28408m | 6.0m/s | -47.1°C | 2.9% | 15.8hPa | 2.7V | 00:00:00 | 02:02:27 | 00:00:00 | |
| DB0ND-19 | 2026-08-31 06:31:15 | 50.13338 | 8.83376 | 327° | 13km/h | 28403m | 4.9m/s | -47.1°C | 0.7% | 15.8hPa | 2.7V | 00:00:00 | 00:00:00 | 00:00:00 | |
| DB0UT-9 | 2026-08-31 06:31:14 | 50.13338 | 8.83376 | 329° | 15km/h | 28403m | 4.9m/s | -47.1°C | 0.7% | 15.8hPa | 2.7V | 03:18:00 | 00:00:00 | 00:00:00 | |
| DL1NUX | 2026-08-31 06:31:13 | 50.13329 | 8.83393 | 263° | 7km/h | 28374m | 4.1m/s | -47°C | 2.8% | 15.9hPa | 2.7V | 03:18:44 | 02:02:20 | 00:00:00 | |
| DL1XH-west | 2026-08-31 06:31:11 | 50.13329 | 8.83386 | 289° | 9km/h | 28383m | 5.5m/s | -47.1°C | 0% | 15.9hPa | 2.6V | 03:19:31 | 02:02:22 | 00:00:00 | |
| GOEST3-10 | 2026-08-31 06:31:11 | 50.13329 | 8.83386 | 290° | 7km/h | 28384m | 5.5m/s | -47.0°C | 2.9% | 15.8hPa | 2.6V | 00:00:00 | 02:02:22 | 00:00:00 | |
| KANTATE | 2026-08-31 06:31:10 | 50.13329 | 8.83386 | 290° | 9km/h | 28384m | 5.5m/s | -47.1°C | 0.7% | 15.9hPa | 2.7V | 03:19:00 | 00:00:00 | 00:00:00 | |
| DL1XH1-15 | 2026-08-31 06:31:09 | 50.13327 | 8.83402 | 288° | 7km/h | 28349m | 6m/s | -47°C | 2.8% | 15.9hPa | 2.7V | 03:18:49 | 02:02:15 | 00:00:00 | |
| HSKMA3-T | 2026-08-31 06:31:08 | 50.13329 | 8.83396 | 268° | 5km/h | 28368m | 5.9m/s | -47°C | 0% | 15.9hPa | 2.7V | 03:19:31 | 02:02:19 | 00:00:00 | |
| DF8AY | 2026-08-31 06:31:06 | 50.13328 | 8.83399 | 327° | 4km/h | 28358m | 4.4m/s | -46.9°C | 0% | 15.9hPa | 2.6V | 03:19:31 | 02:02:17 | 00:00:00 | |
| DO3MHA-11 | 2026-08-31 06:31:06 | 50.13328 | 8.83399 | 328° | 9km/h | 28359m | 4.3m/s | -46.8°C | 2.8% | 15.9hPa | 2.6V | 03:18:00 | 02:02:17 | 00:00:00 | |
| DL8OAI-8 | 2026-08-31 06:31:05 | 50.13328 | 8.83399 | 328° | 4km/h | 28359m | 4.4m/s | -46.9°C | 0.7% | 15.9hPa | 2.7V | 03:19:00 | 00:00:00 | 00:00:00 | |
| DM0DOS-11 | 2026-08-31 06:31:03 | 50.13326 | 8.83405 | 278° | 11km/h | 28343m | 5.4m/s | -46.8°C | 2.8% | 15.9hPa | 2.7V | 03:18:50 | 02:02:14 | 00:00:00 | |
| DK5PH-5 | 2026-08-31 06:31:03 | 50.13326 | 8.83405 | 279° | 9km/h | 28344m | 5.3m/s | -46.8°C | 2.8% | 15.9hPa | 2.7V | 00:00:00 | 02:02:14 | 00:00:00 | |
| DF1GD-15 | 2026-08-31 06:31:02 | 50.13326 | 8.83405 | 279° | 11km/h | 28344m | 5.4m/s | -46.8°C | 0.7% | 16.0hPa | 2.7V | 03:19:00 | 00:00:00 | 00:00:00 | |
| GOEST3-10 | 2026-08-31 06:31:01 | 50.13325 | 8.83416 | 279° | 11km/h | 28334m | 4.4m/s | -46.8°C | 2.8% | 15.9hPa | 2.7V | 00:00:00 | 02:02:12 | 00:00:00 | |
| DL1NUX | 2026-08-31 06:31:00 | 50.13322 | 8.83428 | 298° | 7km/h | 28318m | 4.6m/s | -46.8°C | 2.8% | 16hPa | 2.7V | 03:18:55 | 02:02:09 | 00:00:00 | |
| DL1XH-west | 2026-08-31 06:31:00 | 50.13325 | 8.83421 | 286° | 13km/h | 28329m | 5.8m/s | -46.9°C | 0% | 16hPa | 2.6V | 03:19:31 | 02:02:11 | 00:00:00 | |
| DB0UT-7 | 2026-08-31 06:31:00 | 50.13325 | 8.83421 | 287° | 9km/h | 28329m | 5.7m/s | -46.8°C | 2.8% | 15.9hPa | 2.6V | 00:00:00 | 00:00:00 | 00:00:00 | |
| DO3DL | 2026-08-31 06:30:59 | 50.13324 | 8.83421 | 287° | 13km/h | 28329m | 5.8m/s | -46.9°C | 0.6% | 16.0hPa | 2.6V | 03:19:00 | 00:00:00 | 00:00:00 | |
| DM0DOS-11 | 2026-08-31 06:30:58 | 50.13324 | 8.83444 | 229° | 7km/h | 28292m | 6.2m/s | -46.7°C | 2.8% | 16.1hPa | 2.6V | 03:19:00 | 02:02:04 | 00:00:00 | |
| HSKMA3-T | 2026-08-31 06:30:57 | 50.13322 | 8.83431 | 288° | 7km/h | 28313m | 5m/s | -46.8°C | 0% | 16hPa | 2.7V | 03:19:31 | 02:02:08 | 00:00:00 | |
| AA1-15 | 2026-08-31 06:30:55 | 50.13322 | 8.83438 | 256° | 9km/h | 28303m | 4.9m/s | -46.7°C | 0% | 16.1hPa | 2.6V | 03:19:31 | 02:02:06 | 00:00:00 | |
| BIOWL9-15 | 2026-08-31 06:30:54 | 50.13324 | 8.83444 | 229° | 7km/h | 28292m | 6.2m/s | -46.7°C | 0.7% | 16.1hPa | 2.6V | 00:00:00 | 00:00:00 | 00:00:00 | |
| DL9PN | 2026-08-31 06:30:53 | 50.13328 | 8.83450 | 226° | 7km/h | 28277m | 5.4m/s | -46.7°C | 0.6% | 16.1hPa | 2.6V | 00:00:00 | 00:00:00 | 00:00:00 | |
| GOEST3-10 | 2026-08-31 06:30:51 | 50.13327 | 8.83447 | 214° | 11km/h | 28282m | 4.3m/s | -46.6°C | 2.7% | 16.1hPa | 2.6V | 00:00:00 | 02:02:02 | 00:00:00 | |
| DL1NUX | 2026-08-31 06:30:50 | 50.13332 | 8.83463 | 254° | 13km/h | 28261m | 4.6m/s | -46.8°C | 2.7% | 16.2hPa | 2.6V | 03:19:06 | 02:01:58 | 00:00:00 | |
| DL1XH-west | 2026-08-31 06:30:50 | 50.13328 | 8.83450 | 226° | 9km/h | 28277m | 5.4m/s | -46.7°C | 0% | 16.1hPa | 2.7V | 03:19:31 | 02:02:01 | 00:00:00 | |
| SONDE2-11 | 2026-08-31 06:30:49 | 50.13330 | 8.83453 | 241° | 11km/h | 28271m | 5.7m/s | -46.8°C | 0.6% | 16.1hPa | 2.6V | 00:00:00 | 00:00:00 | 00:00:00 | |
| DM0DOS-11 | 2026-08-31 06:30:48 | 50.13332 | 8.83478 | 279° | 9km/h | 28240m | 5.9m/s | -46.9°C | 2.7% | 16.2hPa | 2.6V | 03:19:10 | 02:01:54 | 00:00:00 | |
| HSKMA3-T | 2026-08-31 06:30:46 | 50.13333 | 8.83467 | 262° | 11km/h | 28256m | 5.9m/s | -46.8°C | 0% | 16.2hPa | 2.7V | 03:19:31 | 02:01:57 | 00:00:00 | |
| AA1-15 | 2026-08-31 06:30:45 | 50.13333 | 8.83471 | 273° | 9km/h | 28250m | 5m/s | -46.9°C | 0% | 16.2hPa | 2.7V | 03:19:31 | 02:01:56 | 00:00:00 | |
| DJ2DS-15 | 2026-08-31 06:30:45 | 50.13333 | 8.83471 | 274° | 9km/h | 28251m | 5.0m/s | -46.8°C | 2.8% | 16.1hPa | 2.6V | 03:19:00 | 02:01:56 | 00:00:00 | |
| KANTATE | 2026-08-31 06:30:44 | 50.13333 | 8.83471 | 274° | 9km/h | 28251m | 5.0m/s | -46.9°C | 0.6% | 16.2hPa | 2.6V | 03:19:00 | 00:00:00 | 00:00:00 | |
| BEGRI65-1 | 2026-08-31 06:30:43 | 50.13333 | 8.83474 | 278° | 9km/h | 28246m | 4.6m/s | -46.8°C | 0.6% | 16.2hPa | 2.6V | 00:00:00 | 00:00:00 | 00:00:00 | |
| DL4BBY-15 | 2026-08-31 06:30:42 | 50.13332 | 8.83482 | 275° | 9km/h | 28235m | 5.4m/s | -47.4°C | 0% | 0hPa | 2.6V | 00:00:00 | 00:00:00 | 00:00:00 | |
| GOEST3-10 | 2026-08-31 06:30:41 | 50.13332 | 8.83486 | 269° | 7km/h | 28230m | 4.3m/s | -46.8°C | 2.7% | 16.2hPa | 2.6V | 00:00:00 | 02:01:52 | 00:00:00 | |
| DL1NUX | 2026-08-31 06:30:40 | 50.13336 | 8.83493 | 169° | 9km/h | 28209m | 4.9m/s | -46.9°C | 2.8% | 16.3hPa | 2.6V | 03:19:16 | 02:01:48 | 00:00:00 | |
| DC4HF-4 | 2026-08-31 06:30:40 | 50.13332 | 8.83490 | 256° | 7km/h | 28226m | 4.4m/s | -46.9°C | 0.6% | 16.3hPa | 2.7V | 00:00:00 | 00:00:00 | 00:00:00 | |
| DL1XH1-15 | 2026-08-31 06:30:39 | 50.13343 | 8.83495 | 210° | 11km/h | 28193m | 4.5m/s | -47°C | 2.8% | 16.4hPa | 2.7V | 03:19:19 | 02:01:45 | 00:00:00 | |
| DL1XH-west | 2026-08-31 06:30:39 | 50.13333 | 8.83492 | 227° | 5km/h | 28220m | 6m/s | -46.9°C | 0% | 16.3hPa | 2.7V | 03:19:31 | 02:01:50 | 00:00:00 | |
| HSKMA3-T | 2026-08-31 06:30:35 | 50.13341 | 8.83493 | 197° | 11km/h | 28198m | 5.7m/s | -47°C | 0% | 16.3hPa | 2.6V | 03:19:31 | 02:01:46 | 00:00:00 | |
| AA1-15 | 2026-08-31 06:30:34 | 50.13343 | 8.83495 | 211° | 11km/h | 28193m | 4.5m/s | -47°C | 0% | 16.4hPa | 2.7V | 03:19:31 | 02:01:45 | 00:00:00 | |
| DK5PH-5 | 2026-08-31 06:30:33 | 50.13346 | 8.83497 | 218° | 9km/h | 28189m | 4.5m/s | -46.9°C | 2.8% | 16.3hPa | 2.7V | 00:00:00 | 02:01:44 | 00:00:00 | |
| BIOWL7-15 | 2026-08-31 06:30:32 | 50.13346 | 8.83497 | 218° | 11km/h | 28189m | 4.6m/s | -47.0°C | 0.6% | 16.3hPa | 2.6V | 00:00:00 | 00:00:00 | 00:00:00 | |
| GOEST3-10 | 2026-08-31 06:30:31 | 50.13349 | 8.83502 | 234° | 9km/h | 28178m | 5.3m/s | -47.0°C | 2.8% | 16.3hPa | 2.6V | 00:00:00 | 02:01:42 | 00:00:00 | |
| DL1NUX | 2026-08-31 06:30:30 | 50.13351 | 8.83521 | 225° | 7km/h | 28148m | 5.6m/s | -47°C | 2.7% | 16.4hPa | 2.6V | 03:19:28 | 02:01:36 | 00:00:00 | |
| DB0UT-7 | 2026-08-31 06:30:30 | 50.13349 | 8.83504 | 260° | 9km/h | 28173m | 4.5m/s | -46.9°C | 2.8% | 16.3hPa | 2.6V | 00:00:00 | 02:01:41 | 00:00:00 | |
| DL1XH1-15 | 2026-08-31 06:30:29 | 50.13353 | 8.83522 | 177° | 5km/h | 28142m | 5.8m/s | -47°C | 2.7% | 16.5hPa | 2.6V | 03:19:29 | 02:01:35 | 00:00:00 | |
| DL1XH-west | 2026-08-31 06:30:29 | 50.13350 | 8.83507 | 272° | 7km/h | 28168m | 5.6m/s | -47°C | 0% | 16.4hPa | 2.6V | 03:19:31 | 02:01:40 | 00:00:00 | |
| DL8DAS-15 | 2026-08-31 06:30:28 | 50.13349 | 8.83507 | 273° | 7km/h | 28168m | 5.6m/s | -47.0°C | 0.7% | 16.4hPa | 2.6V | 00:00:00 | 00:00:00 | 00:00:00 | |
| DL3AQ-11 | 2026-08-31 06:30:27 | 50.13351 | 8.83519 | 247° | 9km/h | 28153m | 4.0m/s | -46.9°C | 0.6% | 16.4hPa | 2.6V | 00:00:00 | 00:00:00 | 00:00:00 | |
| DO3MHA-11 | 2026-08-31 06:30:26 | 50.13351 | 8.83519 | 248° | 9km/h | 28153m | 4.0m/s | -46.9°C | 2.7% | 16.4hPa | 2.6V | 03:19:00 | 02:01:37 | 00:00:00 | |
| DL1XH-15 | 2026-08-31 06:30:25 | 50.13360 | 8.83517 | 189° | 7km/h | 28124m | 5.8m/s | -47.2°C | 2.8% | 16.5hPa | 2.6V | 03:19:33 | 02:01:31 | 00:00:00 | |
| HSKMA3-T | 2026-08-31 06:30:25 | 50.13352 | 8.83521 | 225° | 7km/h | 28148m | 5.6m/s | -47°C | 0% | 16.4hPa | 2.6V | 03:19:31 | 02:01:36 | 00:00:00 | |
| DF8AY | 2026-08-31 06:30:24 | 50.13353 | 8.83522 | 178° | 5km/h | 28142m | 5.8m/s | -47°C | 0% | 16.5hPa | 2.6V | 03:19:31 | 02:01:35 | 00:00:00 | |
| AA1-15 | 2026-08-31 06:30:23 | 50.13355 | 8.83521 | 146° | 9km/h | 28137m | 4.5m/s | -47°C | 0% | 16.5hPa | 2.6V | 03:19:31 | 02:01:34 | 00:00:00 | |
| BIOWL9-15 | 2026-08-31 06:30:23 | 50.13356 | 8.83520 | 142° | 7km/h | 28133m | 3.7m/s | -47.0°C | 0.6% | 16.5hPa | 2.6V | 00:00:00 | 00:00:00 | 00:00:00 | |
| DL1NUX | 2026-08-31 06:30:21 | 50.13366 | 8.83536 | 250° | 9km/h | 28097m | 5.1m/s | -47.2°C | 2.8% | 16.6hPa | 2.6V | 03:19:38 | 02:01:26 | 00:00:00 | |
| DL1XH1-15 | 2026-08-31 06:30:19 | 50.13367 | 8.83539 | 252° | 7km/h | 28092m | 4.5m/s | -47.2°C | 2.8% | 16.6hPa | 2.7V | 03:19:39 | 02:01:25 | 00:00:00 | |
| DO1YAY-16 | 2026-08-31 06:30:19 | 50.13362 | 8.83519 | 229° | 7km/h | 28118m | 5.5m/s | -47.1°C | 0.6% | 16.6hPa | 2.7V | 00:00:00 | 00:00:00 | 00:00:00 | |
| SONDE2-11 | 2026-08-31 06:30:18 | 50.13363 | 8.83522 | 246° | 11km/h | 28113m | 5.1m/s | -47.1°C | 0.6% | 16.6hPa | 2.7V | 00:00:00 | 00:00:00 | 00:00:00 | |
| DL1XH-west | 2026-08-31 06:30:18 | 50.13363 | 8.83522 | 246° | 13km/h | 28113m | 5.1m/s | -47.1°C | 0% | 16.6hPa | 2.7V | 03:20:22 | 02:01:29 | 00:00:00 | |
| DL3AQ-11 | 2026-08-31 06:30:16 | 50.13366 | 8.83536 | 250° | 9km/h | 28097m | 5.1m/s | -47.2°C | 0.6% | 16.6hPa | 2.7V | 00:00:00 | 00:00:00 | 00:00:00 | |
| DL1XH-15 | 2026-08-31 06:30:15 | 50.13368 | 8.83551 | 250° | 5km/h | 28071m | 4.8m/s | -47.3°C | 2.8% | 16.6hPa | 2.7V | 03:19:43 | 02:01:21 | 00:00:00 | |
| HSKMA3-T | 2026-08-31 06:30:15 | 50.13366 | 8.83536 | 250° | 9km/h | 28097m | 5.1m/s | -47.2°C | 0% | 16.6hPa | 2.6V | 03:20:22 | 02:01:26 | 00:00:00 | |
| DF8AY | 2026-08-31 06:30:14 | 50.13367 | 8.83539 | 253° | 7km/h | 28092m | 4.5m/s | -47.2°C | 0% | 16.6hPa | 2.7V | 03:20:22 | 02:01:25 | 00:00:00 | |
| AA1-15 | 2026-08-31 06:30:12 | 50.13368 | 8.83545 | 265° | 9km/h | 28081m | 5.7m/s | -47.3°C | 0% | 16.6hPa | 2.6V | 03:20:22 | 02:01:23 | 00:00:00 | |
| GOEST3-10 | 2026-08-31 06:30:12 | 50.13368 | 8.83549 | 264° | 7km/h | 28076m | 4.5m/s | -47.3°C | 2.8% | 16.6hPa | 2.6V | 00:00:00 | 02:01:22 | 00:00:00 | |
| EDDB2-11 | 2026-08-31 06:30:11 | 50.13368 | 8.83551 | 250° | 5km/h | 28071m | 4.8m/s | -47.3°C | 0.6% | 16.6hPa | 2.6V | 00:00:00 | 00:00:00 | 00:00:00 | |
| DL1NUX | 2026-08-31 06:30:09 | 50.13375 | 8.83558 | 243° | 9km/h | 28039m | 4.8m/s | -47.6°C | 2.8% | 16.7hPa | 2.6V | 03:19:49 | 02:01:15 | 00:00:00 | |
| DJ2DS-15 | 2026-08-31 06:30:09 | 50.13370 | 8.83553 | 174° | 4km/h | 28060m | 5.2m/s | -47.4°C | 0.6% | 16.7hPa | 2.6V | 00:00:00 | 00:00:00 | 00:00:00 | |
| DM0DOS-11 | 2026-08-31 06:30:08 | 50.13376 | 8.83561 | 246° | 9km/h | 28035m | 4.8m/s | -47.7°C | 2.8% | 16.7hPa | 2.6V | 03:19:50 | 02:01:14 | 00:00:00 | |
| DL1XH-west | 2026-08-31 06:30:08 | 50.13370 | 8.83553 | 175° | 5km/h | 28060m | 5.2m/s | -47.4°C | 0% | 16.7hPa | 2.6V | 03:20:22 | 02:01:19 | 00:00:00 | |
| BIOWL1-15 | 2026-08-31 06:30:07 | 50.13371 | 8.83553 | 176° | 5km/h | 28055m | 4.5m/s | -47.5°C | 0% | 16.7hPa | 2.6V | 03:20:22 | 02:01:18 | 00:00:00 | |
| DO3MHA-11 | 2026-08-31 06:30:06 | 50.13373 | 8.83553 | 199° | 9km/h | 28051m | 5.6m/s | -47.5°C | 2.8% | 16.6hPa | 2.7V | 00:00:00 | 02:01:17 | 00:00:00 | |
| DL1XH-15 | 2026-08-31 06:30:05 | 50.13379 | 8.83569 | 251° | 7km/h | 28019m | 4.3m/s | -47.7°C | 2.8% | 16.8hPa | 2.6V | 03:19:53 | 02:01:11 | 00:00:00 | |
| HSKMA3-T | 2026-08-31 06:30:04 | 50.13375 | 8.83558 | 244° | 9km/h | 28039m | 4.8m/s | -47.6°C | 0% | 16.7hPa | 2.6V | 03:20:22 | 02:01:15 | 00:00:00 | |
| DF8AY | 2026-08-31 06:30:03 | 50.13376 | 8.83561 | 247° | 9km/h | 28035m | 4.8m/s | -47.7°C | 0% | 16.7hPa | 2.6V | 03:20:22 | 02:01:14 | 00:00:00 | |
| AA1-15 | 2026-08-31 06:30:01 | 50.13378 | 8.83567 | 244° | 7km/h | 28024m | 4.7m/s | -47.8°C | 0% | 16.8hPa | 2.7V | 03:20:22 | 02:01:12 | 00:00:00 | |
| DL3AQ-11 | 2026-08-31 06:30:00 | 50.13379 | 8.83572 | 261° | 7km/h | 28014m | 6.0m/s | -47.8°C | 0.7% | 16.8hPa | 2.6V | 00:00:00 | 00:00:00 | 00:00:00 | |
| DL1XH1-15 | 2026-08-31 06:29:59 | 50.13383 | 8.83591 | 195° | 9km/h | 27987m | 6m/s | -48.1°C | 3% | 16.9hPa | 2.6V | 03:19:59 | 02:01:05 | 00:00:00 | |
| DL1XH-west | 2026-08-31 06:29:58 | 50.13380 | 8.83576 | 267° | 11km/h | 28008m | 5.9m/s | -47.8°C | 0% | 16.8hPa | 2.6V | 03:20:22 | 02:01:09 | 00:00:00 | |
| DL1NUX | 2026-08-31 06:29:57 | 50.13389 | 8.83591 | 179° | 13km/h | 27977m | 4.4m/s | -48°C | 2.9% | 16.9hPa | 2.6V | 03:20:01 | 02:01:03 | 00:00:00 | |
| BIOWL1-15 | 2026-08-31 06:29:56 | 50.13380 | 8.83585 | 253° | 11km/h | 27998m | 4.5m/s | -48°C | 0% | 16.8hPa | 2.7V | 03:20:22 | 02:01:07 | 00:00:00 | |
| DO3MHA-11 | 2026-08-31 06:29:56 | 50.13380 | 8.83585 | 253° | 11km/h | 27999m | 4.4m/s | -47.9°C | 2.9% | 16.8hPa | 2.7V | 00:00:00 | 02:01:07 | 00:00:00 | |
| DL1XH-15 | 2026-08-31 06:29:55 | 50.13395 | 8.83593 | 210° | 13km/h | 27967m | 5.2m/s | -48°C | 2.9% | 16.9hPa | 2.7V | 03:20:03 | 02:01:01 | 00:00:00 | |
| HSKMA3-T | 2026-08-31 06:29:54 | 50.13383 | 8.83591 | 196° | 9km/h | 27987m | 6m/s | -48.1°C | 0% | 16.9hPa | 2.6V | 03:20:22 | 02:01:05 | 00:00:00 | |
| DF8AY | 2026-08-31 06:29:53 | 50.13386 | 8.83591 | 176° | 11km/h | 27982m | 4.9m/s | -48.1°C | 0% | 16.9hPa | 2.6V | 03:20:22 | 02:01:04 | 00:00:00 | |
| AA1-15 | 2026-08-31 06:29:51 | 50.13392 | 8.83591 | 191° | 13km/h | 27972m | 6m/s | -48.1°C | 0% | 16.9hPa | 2.7V | 03:20:22 | 02:01:02 | 00:00:00 | |
| GOEST3-10 | 2026-08-31 06:29:50 | 50.13395 | 8.83593 | 211° | 9km/h | 27967m | 5.1m/s | -48.0°C | 2.9% | 16.9hPa | 2.7V | 00:00:00 | 02:01:01 | 00:00:00 | |
| DL1XH1-15 | 2026-08-31 06:29:49 | 50.13404 | 8.83610 | 258° | 5km/h | 27937m | 4.4m/s | -48°C | 2.8% | 17hPa | 2.7V | 03:20:09 | 02:00:55 | 00:00:00 | |
| DL1XH-west | 2026-08-31 06:29:47 | 50.13401 | 8.83603 | 237° | 9km/h | 27952m | 6.1m/s | -48.1°C | 0% | 17hPa | 2.6V | 03:20:22 | 02:00:58 | 00:00:00 | |
| BIOWL1-15 | 2026-08-31 06:29:46 | 50.13402 | 8.83606 | 235° | 7km/h | 27946m | 5.1m/s | -48°C | 0% | 17hPa | 2.6V | 03:20:22 | 02:00:57 | 00:00:00 | |
| DO3MHA-11 | 2026-08-31 06:29:46 | 50.13402 | 8.83606 | 235° | 7km/h | 27947m | 5.1m/s | -47.9°C | 2.8% | 16.9hPa | 2.6V | 03:20:00 | 02:00:57 | 00:00:00 | |
| DL1XH-15 | 2026-08-31 06:29:45 | 50.13403 | 8.83621 | 250° | 5km/h | 27916m | 4.6m/s | -48°C | 3% | 17hPa | 2.6V | 03:20:13 | 02:00:51 | 00:00:00 | |
| HSKMA3-T | 2026-08-31 06:29:43 | 50.13404 | 8.83612 | 275° | 7km/h | 27932m | 6m/s | -48.1°C | 0% | 17hPa | 2.7V | 03:20:22 | 02:00:54 | 00:00:00 | |
| DF8AY | 2026-08-31 06:29:42 | 50.13403 | 8.83615 | 284° | 9km/h | 27926m | 5.8m/s | -48.1°C | 0% | 17hPa | 2.6V | 03:20:22 | 02:00:53 | 00:00:00 | |
| AA1-15 | 2026-08-31 06:29:40 | 50.13403 | 8.83621 | 251° | 5km/h | 27916m | 4.6m/s | -48°C | 0% | 17.1hPa | 2.6V | 03:20:22 | 02:00:51 | 00:00:00 | |
| DL1XH1-15 | 2026-08-31 06:29:40 | 50.13413 | 8.83621 | 259° | 4km/h | 27885m | 5.1m/s | -48.3°C | 2.9% | 17.1hPa | 2.6V | 03:20:19 | 02:00:45 | 00:00:00 | |
| DL1XH-west | 2026-08-31 06:29:36 | 50.13411 | 8.83621 | 164° | 9km/h | 27896m | 4.8m/s | -48.2°C | 0% | 17.1hPa | 2.6V | 03:20:22 | 02:00:47 | 00:00:00 | |
| HSKMA3-T | 2026-08-31 06:29:33 | 50.13413 | 8.83623 | 296° | 5km/h | 27880m | 4.7m/s | -48.4°C | 0% | 17.1hPa | 2.7V | 03:20:22 | 02:00:44 | 00:00:00 | |
| DF8AY | 2026-08-31 06:29:31 | 50.13411 | 8.83628 | 290° | 7km/h | 27870m | 6m/s | -48.5°C | 0% | 17.2hPa | 2.7V | 03:20:22 | 02:00:42 | 00:00:00 | |
| AA1-15 | 2026-08-31 06:29:30 | 50.13411 | 8.83630 | 273° | 7km/h | 27864m | 5.2m/s | -48.5°C | 0% | 17.2hPa | 2.6V | 03:21:13 | 02:00:41 | 00:00:00 | |
| DB0UT-7 | 2026-08-31 06:29:29 | 50.13411 | 8.83634 | 267° | 11km/h | 27859m | 4.6m/s | -48.5°C | 2.9% | 17.2hPa | 2.7V | 03:20:00 | 02:00:40 | 00:00:00 | |
| DC4HF-4 | 2026-08-31 06:29:28 | 50.13411 | 8.83644 | 268° | 15km/h | 27849m | 6.2m/s | -48.5°C | 0.7% | 17.2hPa | 2.7V | 00:00:00 | 00:00:00 | 00:00:00 | |
| DM0DOS-11 | 2026-08-31 06:29:26 | 50.13417 | 8.83678 | 222° | 7km/h | 27817m | 4.3m/s | -48.2°C | 2.9% | 17.3hPa | 2.7V | 03:20:32 | 02:00:32 | 00:00:00 | |
| BIOWL1-15 | 2026-08-31 06:29:26 | 50.13411 | 8.83651 | 268° | 18km/h | 27843m | 4.9m/s | -48.4°C | 0% | 17.2hPa | 2.7V | 03:21:13 | 02:00:37 | 00:00:00 | |
| HSKMA3-T | 2026-08-31 06:29:23 | 50.13414 | 8.83671 | 241° | 15km/h | 27828m | 5.8m/s | -48.2°C | 0% | 17.3hPa | 2.6V | 03:21:13 | 02:00:34 | 00:00:00 | |
| DF8AY | 2026-08-31 06:29:21 | 50.13417 | 8.83678 | 223° | 7km/h | 27818m | 4.3m/s | -48.2°C | 0% | 17.3hPa | 2.7V | 03:21:13 | 02:00:32 | 00:00:00 | |
| NBG1-10 | 2026-08-31 06:29:21 | 50.13417 | 8.83677 | 223° | 11km/h | 27818m | 4.3m/s | -48.2°C | 2.9% | 17.3hPa | 2.7V | 00:00:00 | 02:00:32 | 00:00:00 | |
| DL1XH-15 | 2026-08-31 06:29:20 | 50.13412 | 8.83692 | 296° | 9km/h | 27785m | 4.9m/s | -48.6°C | 3% | 17.4hPa | 2.7V | 03:20:38 | 02:00:26 | 00:00:00 | |
| AA1-15 | 2026-08-31 06:29:20 | 50.13418 | 8.83680 | 248° | 5km/h | 27812m | 5.9m/s | -48.3°C | 0% | 17.3hPa | 2.7V | 03:21:13 | 02:00:31 | 00:00:00 | |
| BIOWL1-15 | 2026-08-31 06:29:18 | 50.13414 | 8.83689 | 314° | 9km/h | 27790m | 6.1m/s | -48.6°C | 0% | 17.4hPa | 2.6V | 03:21:13 | 02:00:27 | 00:00:00 | |
| DO1YAY-16 | 2026-08-31 06:29:17 | 50.13415 | 8.83687 | 318° | 9km/h | 27796m | 5.2m/s | -48.5°C | 0.7% | 17.4hPa | 2.6V | 00:00:00 | 00:00:00 | 00:00:00 | |
| DM0DOS-11 | 2026-08-31 06:29:16 | 50.13410 | 8.83713 | 271° | 15km/h | 27763m | 4.7m/s | -48.5°C | 2.9% | 17.4hPa | 2.6V | 03:20:42 | 02:00:22 | 00:00:00 | |
| DL1XH-west | 2026-08-31 06:29:15 | 50.13412 | 8.83692 | 296° | 9km/h | 27785m | 4.9m/s | -48.7°C | 0% | 17.4hPa | 2.7V | 03:21:13 | 02:00:26 | 00:00:00 | |
| HSKMA3-T | 2026-08-31 06:29:12 | 50.13410 | 8.83706 | 278° | 16km/h | 27769m | 5.7m/s | -48.6°C | 0% | 17.5hPa | 2.6V | 03:21:13 | 02:00:23 | 00:00:00 | |
| DF8AY | 2026-08-31 06:29:10 | 50.13410 | 8.83718 | 258° | 13km/h | 27759m | 4.8m/s | -48.5°C | 0% | 17.5hPa | 2.6V | 03:21:13 | 02:00:21 | 00:00:00 | |
| DB0NH | 2026-08-31 06:29:10 | 50.13410 | 8.83718 | 258° | 11km/h | 27759m | 4.8m/s | -48.4°C | 2.9% | 17.4hPa | 2.6V | 03:20:00 | 02:00:21 | 00:00:00 | |
| DL1XH1-15 | 2026-08-31 06:29:09 | 50.13418 | 8.83727 | 328° | 2km/h | 27726m | 5.3m/s | -48.6°C | 2.9% | 17.6hPa | 2.6V | 03:20:49 | 02:00:15 | 00:00:00 | |
| AA1-15 | 2026-08-31 06:29:09 | 50.13411 | 8.83723 | 237° | 11km/h | 27753m | 6.3m/s | -48.5°C | 0% | 17.5hPa | 2.7V | 03:21:13 | 02:00:20 | 00:00:00 | |
| BIOWL1-15 | 2026-08-31 06:29:07 | 50.13418 | 8.83727 | 192° | 2km/h | 27732m | 5.9m/s | -48.6°C | 0% | 17.6hPa | 2.6V | 03:21:13 | 02:00:16 | 00:00:00 | |
| GOEST3-10 | 2026-08-31 06:29:07 | 50.13415 | 8.83727 | 191° | 15km/h | 27743m | 4.0m/s | -48.6°C | 3.0% | 17.5hPa | 2.6V | 00:00:00 | 02:00:18 | 00:00:00 | |
| DO3MHA-11 | 2026-08-31 06:29:06 | 50.13417 | 8.83727 | 185° | 9km/h | 27738m | 6.1m/s | -48.6°C | 3.0% | 17.5hPa | 2.6V | 03:20:00 | 02:00:17 | 00:00:00 | |
| DM0DOS-11 | 2026-08-31 06:29:05 | 50.13417 | 8.83733 | 251° | 9km/h | 27705m | 4.3m/s | -48.8°C | 3% | 17.6hPa | 2.6V | 03:20:53 | 02:00:11 | 00:00:00 | |
| DL1XH-west | 2026-08-31 06:29:04 | 50.13418 | 8.83727 | 328° | 2km/h | 27726m | 5.3m/s | -48.6°C | 0% | 17.6hPa | 2.6V | 03:21:13 | 02:00:15 | 00:00:00 | |
| HSKMA3-T | 2026-08-31 06:29:01 | 50.13417 | 8.83730 | 263° | 4km/h | 27710m | 5.2m/s | -48.7°C | 0% | 17.6hPa | 2.7V | 03:21:13 | 02:00:12 | 00:00:00 | |
| DL1XH-15 | 2026-08-31 06:29:00 | 50.13422 | 8.83770 | 257° | 22km/h | 27679m | 6m/s | -48.7°C | 3% | 17.7hPa | 2.7V | 03:20:58 | 02:00:06 | 00:00:00 | |
| DF8AY | 2026-08-31 06:28:59 | 50.13418 | 8.83737 | 254° | 15km/h | 27701m | 4.9m/s | -48.9°C | 0.1% | 17.6hPa | 2.6V | 03:21:13 | 02:00:10 | 00:00:00 | |
| AA1-15 | 2026-08-31 06:28:58 | 50.13419 | 8.83743 | 258° | 20km/h | 27695m | 6.6m/s | -48.8°C | 0% | 17.6hPa | 2.6V | 03:21:13 | 02:00:09 | 00:00:00 | |
| DF1GD-15 | 2026-08-31 06:28:57 | 50.13419 | 8.83743 | 259° | 20km/h | 27695m | 6.6m/s | -48.8°C | 0.7% | 17.6hPa | 2.7V | 03:21:00 | 00:00:00 | 00:00:00 | |
| DO3MHA-11 | 2026-08-31 06:28:56 | 50.13421 | 8.83761 | 261° | 11km/h | 27684m | 4.6m/s | -48.7°C | 3.0% | 17.6hPa | 2.7V | 00:00:00 | 02:00:07 | 00:00:00 | |
| DM0DOS-11 | 2026-08-31 06:28:55 | 50.13425 | 8.83792 | 317° | 5km/h | 27651m | 5.1m/s | -48.9°C | 3% | 17.8hPa | 2.7V | 03:21:03 | 02:00:01 | 00:00:00 | |
| BIOWL1-15 | 2026-08-31 06:28:55 | 50.13422 | 8.83770 | 258° | 22km/h | 27679m | 6m/s | -48.7°C | 0% | 17.7hPa | 2.7V | 03:21:13 | 02:00:06 | 00:00:00 | |
| DL1XH-west | 2026-08-31 06:28:53 | 50.13425 | 8.83783 | 249° | 13km/h | 27668m | 4.8m/s | -48.7°C | 0% | 17.7hPa | 2.6V | 03:21:13 | 02:00:04 | 00:00:00 | |
| HSKMA3-T | 2026-08-31 06:28:50 | 50.13425 | 8.83792 | 318° | 5km/h | 27651m | 5.1m/s | -48.9°C | 0% | 17.8hPa | 2.7V | 03:21:13 | 02:00:01 | 00:00:00 | |
| DL1XH1-15 | 2026-08-31 06:28:49 | 50.13425 | 8.83799 | 242° | 15km/h | 27620m | 6.5m/s | -49.2°C | 3.1% | 17.9hPa | 2.7V | 03:21:09 | 01:59:55 | 00:00:00 | |
| DF8AY | 2026-08-31 06:28:48 | 50.13422 | 8.83793 | 6° | 4km/h | 27640m | 5.9m/s | -49°C | 0% | 17.8hPa | 2.6V | 03:21:13 | 01:59:59 | 00:00:00 | |
| AA1-15 | 2026-08-31 06:28:47 | 50.13422 | 8.83793 | 86° | 0km/h | 27634m | 5.6m/s | -49.1°C | 0% | 17.8hPa | 2.6V | 03:21:13 | 01:59:58 | 00:00:00 | |
| DL1XH-15 | 2026-08-31 06:28:46 | 50.13432 | 8.83825 | 245° | 29km/h | 27603m | 5.4m/s | -49.1°C | 3.1% | 17.9hPa | 2.6V | 03:21:12 | 01:59:52 | 00:00:00 | |
| BIOWL1-15 | 2026-08-31 06:28:46 | 50.13425 | 8.83799 | 243° | 15km/h | 27620m | 6.5m/s | -49.2°C | 0% | 17.9hPa | 2.7V | 03:21:13 | 01:59:55 | 00:00:00 | |
| DO1YAY-16 | 2026-08-31 06:28:46 | 50.13423 | 8.83795 | 229° | 9km/h | 27626m | 4.5m/s | -49.1°C | 0.7% | 17.8hPa | 2.6V | 00:00:00 | 00:00:00 | 00:00:00 | |
| SONDE2-11 | 2026-08-31 06:28:45 | 50.13423 | 8.83795 | 229° | 9km/h | 27626m | 4.5m/s | -49.1°C | 0.7% | 17.8hPa | 2.6V | 00:00:00 | 00:00:00 | 00:00:00 | |
| DL1XH-west | 2026-08-31 06:28:42 | 50.13429 | 8.83815 | 249° | 27km/h | 27608m | 5m/s | -49.2°C | 0.1% | 17.9hPa | 2.6V | 03:21:13 | 01:59:53 | 00:00:00 | |
| DL4BBY-15 | 2026-08-31 06:28:42 | 50.13429 | 8.83815 | 250° | 18km/h | 27608m | 4.9m/s | -49.7°C | 0% | 0hPa | 2.6V | 00:00:00 | 00:00:00 | 00:00:00 | |
| GOEST3-10 | 2026-08-31 06:28:41 | 50.13432 | 8.83825 | 246° | 24km/h | 27604m | 5.3m/s | -49.1°C | 3.1% | 17.8hPa | 2.6V | 00:00:00 | 01:59:52 | 00:00:00 | |
| DB0NH | 2026-08-31 06:28:40 | 50.13435 | 8.83835 | 241° | 18km/h | 27598m | 5.9m/s | -49.1°C | 3.1% | 17.9hPa | 2.6V | 00:00:00 | 01:59:51 | 00:00:00 | |
| DL1XH1-15 | 2026-08-31 06:28:39 | 50.13452 | 8.83864 | 180° | 9km/h | 27566m | 5.3m/s | -49.2°C | 3.1% | 18hPa | 2.6V | 03:21:19 | 01:59:45 | 00:00:00 | |
| HSKMA3-T | 2026-08-31 06:28:39 | 50.13439 | 8.83843 | 234° | 24km/h | 27592m | 4.8m/s | -49.1°C | 0% | 17.9hPa | 2.7V | 03:22:04 | 01:59:50 | 00:00:00 | |
| DF8AY | 2026-08-31 06:28:37 | 50.13445 | 8.83856 | 230° | 16km/h | 27582m | 6m/s | -49.2°C | 0% | 17.9hPa | 2.7V | 03:22:04 | 01:59:48 | 00:00:00 | |
| AA1-15 | 2026-08-31 06:28:36 | 50.13447 | 8.83860 | 227° | 13km/h | 27576m | 5.3m/s | -49.2°C | 0% | 18hPa | 2.6V | 03:22:04 | 01:59:47 | 00:00:00 | |
| BIOWL1-15 | 2026-08-31 06:28:33 | 50.13454 | 8.83863 | 167° | 13km/h | 27561m | 6.4m/s | -49.1°C | 0% | 18hPa | 2.7V | 03:22:04 | 01:59:44 | 00:00:00 | |
| DL1XH-west | 2026-08-31 06:28:32 | 50.13458 | 8.83862 | 168° | 18km/h | 27555m | 4.9m/s | -49.1°C | 0% | 18hPa | 2.7V | 03:22:04 | 01:59:43 | 00:00:00 | |
| GOEST3-10 | 2026-08-31 06:28:31 | 50.13463 | 8.83861 | 178° | 20km/h | 27551m | 4.1m/s | -49.0°C | 3.0% | 18.0hPa | 2.6V | 00:00:00 | 01:59:42 | 00:00:00 | |
| DL1XH1-15 | 2026-08-31 06:28:29 | 50.13491 | 8.83890 | 209° | 20km/h | 27513m | 5.5m/s | -49.1°C | 3.1% | 18.1hPa | 2.6V | 03:21:29 | 01:59:35 | 00:00:00 | |
| HSKMA3-T | 2026-08-31 06:28:28 | 50.13477 | 8.83868 | 223° | 20km/h | 27534m | 5.1m/s | -49.1°C | 0% | 18.1hPa | 2.6V | 03:22:04 | 01:59:39 | 00:00:00 | |
| DF8AY | 2026-08-31 06:28:27 | 50.13480 | 8.83874 | 230° | 20km/h | 27530m | 4.3m/s | -49°C | 0% | 18.1hPa | 2.7V | 03:22:04 | 01:59:38 | 00:00:00 | |
| DL3AQ-11 | 2026-08-31 06:28:27 | 50.13484 | 8.83880 | 228° | 18km/h | 27525m | 5.3m/s | -49.1°C | 0.7% | 18.1hPa | 2.7V | 00:00:00 | 00:00:00 | 00:00:00 | |
| DO3MHA-11 | 2026-08-31 06:28:26 | 50.13484 | 8.83880 | 229° | 16km/h | 27525m | 5.3m/s | -49.0°C | 3.1% | 18.0hPa | 2.7V | 03:21:00 | 01:59:37 | 00:00:00 | |
| DL1XH-15 | 2026-08-31 06:28:25 | 50.13508 | 8.83895 | 178° | 13km/h | 27492m | 5.9m/s | -49.3°C | 3.1% | 18.2hPa | 2.7V | 03:21:33 | 01:59:31 | 00:00:00 | |
| AA1-15 | 2026-08-31 06:28:25 | 50.13487 | 8.83886 | 221° | 20km/h | 27519m | 5.9m/s | -49.1°C | 0.1% | 18.1hPa | 2.7V | 03:22:04 | 01:59:36 | 00:00:00 | |
| BIOWL1-15 | 2026-08-31 06:28:23 | 50.13495 | 8.83893 | 197° | 18km/h | 27508m | 5m/s | -49.2°C | 0.1% | 18.2hPa | 2.6V | 03:22:04 | 01:59:34 | 00:00:00 | |
| DL1XH-west | 2026-08-31 06:28:22 | 50.13500 | 8.83894 | 187° | 18km/h | 27503m | 4.7m/s | -49.2°C | 0% | 18.2hPa | 2.6V | 03:22:04 | 01:59:33 | 00:00:00 | |
| GOEST3-10 | 2026-08-31 06:28:21 | 50.13504 | 8.83895 | 182° | 15km/h | 27498m | 5.7m/s | -49.2°C | 3.1% | 18.1hPa | 2.7V | 00:00:00 | 01:59:32 | 00:00:00 | |
| DJ2DS-15 | 2026-08-31 06:28:20 | 50.13508 | 8.83895 | 178° | 13km/h | 27492m | 5.9m/s | -49.3°C | 0.7% | 18.2hPa | 2.7V | 00:00:00 | 00:00:00 | 00:00:00 | |
| DL1XH1-15 | 2026-08-31 06:28:19 | 50.13533 | 8.83895 | 188° | 18km/h | 27462m | 4.8m/s | -49.3°C | 3.1% | 18.3hPa | 2.7V | 03:21:39 | 01:59:25 | 00:00:00 | |
| HSKMA3-T | 2026-08-31 06:28:18 | 50.13515 | 8.83895 | 180° | 15km/h | 27482m | 4.7m/s | -49.3°C | 0.1% | 18.2hPa | 2.6V | 03:22:04 | 01:59:29 | 00:00:00 | |
| DF8AY | 2026-08-31 06:28:17 | 50.13519 | 8.83895 | 178° | 16km/h | 27477m | 6.3m/s | -49.2°C | 0% | 18.2hPa | 2.6V | 03:22:04 | 01:59:28 | 00:00:00 | |
| AA1-15 | 2026-08-31 06:28:15 | 50.13528 | 8.83894 | 182° | 20km/h | 27466m | 4m/s | -49.2°C | 0.1% | 18.3hPa | 2.7V | 03:22:04 | 01:59:26 | 00:00:00 | |
| DO1YAY-16 | 2026-08-31 06:28:15 | 50.13533 | 8.83895 | 188° | 16km/h | 27462m | 4.8m/s | -49.3°C | 0.7% | 18.3hPa | 2.6V | 00:00:00 | 00:00:00 | 00:00:00 | |
| DL1XH-15 | 2026-08-31 06:28:14 | 50.13547 | 8.83908 | 208° | 13km/h | 27434m | 6.4m/s | -49.2°C | 3% | 18.4hPa | 2.6V | 03:21:44 | 01:59:20 | 00:00:00 | |
| BIOWL1-15 | 2026-08-31 06:28:13 | 50.13537 | 8.83897 | 200° | 15km/h | 27456m | 6.5m/s | -49.3°C | 0% | 18.3hPa | 2.6V | 03:22:04 | 01:59:24 | 00:00:00 | |
| DL1XH-west | 2026-08-31 06:28:12 | 50.13540 | 8.83899 | 216° | 13km/h | 27450m | 5.7m/s | -49.1°C | 0.1% | 18.3hPa | 2.6V | 03:22:04 | 01:59:23 | 00:00:00 | |
| DL4BBY-15 | 2026-08-31 06:28:12 | 50.13540 | 8.83899 | 216° | 15km/h | 27451m | 5.6m/s | -49.6°C | 0% | 0hPa | 2.6V | 00:00:00 | 00:00:00 | 00:00:00 | |
| NBG1-10 | 2026-08-31 06:28:11 | 50.13542 | 8.83902 | 227° | 15km/h | 27445m | 4.9m/s | -49.0°C | 3.0% | 18.3hPa | 2.6V | 00:00:00 | 01:59:22 | 00:00:00 | |
| DF7PN | 2026-08-31 06:28:10 | 50.13544 | 8.83905 | 221° | 11km/h | 27440m | 4.6m/s | -49.2°C | 0.7% | 18.4hPa | 2.6V | 00:00:00 | 00:00:00 | 00:00:00 | |
| DL1XH1-15 | 2026-08-31 06:28:09 | 50.13568 | 8.83912 | 185° | 16km/h | 27406m | 5m/s | -49.2°C | 3% | 18.4hPa | 2.6V | 03:21:49 | 01:59:15 | 00:00:00 | |
| HSKMA3-T | 2026-08-31 06:28:08 | 50.13550 | 8.83909 | 192° | 16km/h | 27428m | 5.8m/s | -49.2°C | 0.1% | 18.4hPa | 2.6V | 03:22:04 | 01:59:19 | 00:00:00 | |
| DF8AY | 2026-08-31 06:28:06 | 50.13559 | 8.83911 | 183° | 18km/h | 27418m | 5.1m/s | -49.1°C | 0% | 18.4hPa | 2.7V | 03:22:04 | 01:59:17 | 00:00:00 | |
| AA1-15 | 2026-08-31 06:28:04 | 50.13568 | 8.83912 | 186° | 16km/h | 27406m | 5m/s | -49.2°C | 0% | 18.4hPa | 2.6V | 03:22:04 | 01:59:15 | 00:00:00 | |
| BIOWL1-15 | 2026-08-31 06:28:02 | 50.13577 | 8.83913 | 181° | 18km/h | 27396m | 6m/s | -49.2°C | 0% | 18.5hPa | 2.7V | 03:22:04 | 01:59:13 | 00:00:00 | |
| DL1XH-west | 2026-08-31 06:28:01 | 50.13582 | 8.83913 | 178° | 20km/h | 27391m | 5.7m/s | -49.3°C | 0% | 18.5hPa | 2.6V | 03:22:04 | 01:59:12 | 00:00:00 | |
| DD1CC8 | 2026-08-31 06:28:00 | 50.13587 | 8.83912 | 179° | 20km/h | 27385m | 4.8m/s | -49.3°C | 0.7% | 18.5hPa | 2.7V | 00:00:00 | 00:00:00 | 00:00:00 | |
| DL1XH1-15 | 2026-08-31 06:27:59 | 50.13610 | 8.83921 | 180° | 13km/h | 27353m | 6m/s | -49.4°C | 3.1% | 18.6hPa | 2.7V | 03:21:59 | 01:59:05 | 00:00:00 | |
| HSKMA3-T | 2026-08-31 06:27:58 | 50.13597 | 8.83914 | 192° | 18km/h | 27375m | 6.3m/s | -49.4°C | 0.1% | 18.5hPa | 2.7V | 03:22:04 | 01:59:09 | 00:00:00 | |
| DO3MHA-11 | 2026-08-31 06:27:56 | 50.13604 | 8.83918 | 209° | 13km/h | 27365m | 4.3m/s | -49.3°C | 3.1% | 18.5hPa | 2.6V | 00:00:00 | 01:59:07 | 00:00:00 | |
| DM0DOS-11 | 2026-08-31 06:27:55 | 50.13621 | 8.83912 | 139° | 11km/h | 27331m | 5.7m/s | -49.5°C | 3.1% | 18.7hPa | 2.6V | 03:22:03 | 01:59:01 | 00:00:00 | |
| DF8AY | 2026-08-31 06:27:55 | 50.13607 | 8.83920 | 198° | 11km/h | 27359m | 5.7m/s | -49.4°C | 0.1% | 18.6hPa | 2.6V | 03:22:04 | 01:59:06 | 00:00:00 | |
| AA1-15 | 2026-08-31 06:27:53 | 50.13613 | 8.83920 | 162° | 13km/h | 27348m | 5m/s | -49.5°C | 0.1% | 18.6hPa | 2.7V | 03:22:04 | 01:59:04 | 00:00:00 | |
| DL1XH-15 | 2026-08-31 06:27:52 | 50.13630 | 8.83903 | 153° | 18km/h | 27316m | 6.4m/s | -49.5°C | 3.2% | 18.7hPa | 2.7V | 03:22:06 | 01:58:58 | 00:00:00 | |
| DL1XH-west | 2026-08-31 06:27:51 | 50.13619 | 8.83915 | 144° | 13km/h | 27338m | 6.3m/s | -49.5°C | 0.1% | 18.7hPa | 2.6V | 03:22:04 | 01:59:02 | 00:00:00 | |
| GOEST3-10 | 2026-08-31 06:27:51 | 50.13619 | 8.83914 | 144° | 15km/h | 27338m | 6.2m/s | -49.4°C | 3.1% | 18.6hPa | 2.6V | 00:00:00 | 01:59:02 | 00:00:00 | |
| DL0LBS | 2026-08-31 06:27:50 | 50.13619 | 8.83914 | 145° | 13km/h | 27338m | 6.3m/s | -49.5°C | 0.8% | 18.7hPa | 2.6V | 03:22:00 | 00:00:00 | 00:00:00 | |
| DL1XH1-15 | 2026-08-31 06:27:49 | 50.13643 | 8.83895 | 166° | 16km/h | 27299m | 6.3m/s | -49.6°C | 3.2% | 18.8hPa | 2.6V | 03:22:09 | 01:58:55 | 00:00:00 | |
| HSKMA3-T | 2026-08-31 06:27:47 | 50.13630 | 8.83903 | 154° | 18km/h | 27316m | 6.4m/s | -49.5°C | 0.2% | 18.7hPa | 2.7V | 03:22:55 | 01:58:58 | 00:00:00 | |
| DO3MHA-11 | 2026-08-31 06:27:46 | 50.13634 | 8.83899 | 160° | 13km/h | 27310m | 5.2m/s | -49.5°C | 3.1% | 18.7hPa | 2.7V | 03:22:00 | 01:58:57 | 00:00:00 | |
| DM0DOS-11 | 2026-08-31 06:27:45 | 50.13653 | 8.83891 | 142° | 9km/h | 27277m | 6.1m/s | -49.5°C | 3.1% | 18.8hPa | 2.7V | 03:22:13 | 01:58:51 | 00:00:00 | |
| DF8AY | 2026-08-31 06:27:45 | 50.13639 | 8.83897 | 163° | 20km/h | 27305m | 5m/s | -49.5°C | 0.1% | 18.7hPa | 2.6V | 03:22:55 | 01:58:56 | 00:00:00 | |
| AA1-15 | 2026-08-31 06:27:42 | 50.13649 | 8.83893 | 166° | 9km/h | 27288m | 4.7m/s | -49.5°C | 0.1% | 18.8hPa | 2.7V | 03:22:55 | 01:58:53 | 00:00:00 | |
| BIOWL1-15 | 2026-08-31 06:27:41 | 50.13651 | 8.83892 | 154° | 7km/h | 27283m | 5.1m/s | -49.5°C | 0.1% | 18.8hPa | 2.7V | 03:22:55 | 01:58:52 | 00:00:00 | |
| DL1XH-west | 2026-08-31 06:27:40 | 50.13653 | 8.83890 | 143° | 9km/h | 27277m | 6.1m/s | -49.5°C | 0.1% | 18.8hPa | 2.7V | 03:22:55 | 01:58:51 | 00:00:00 | |
| DF7PN | 2026-08-31 06:27:39 | 50.13656 | 8.83884 | 118° | 11km/h | 27267m | 4.7m/s | -49.6°C | 0.8% | 18.9hPa | 2.6V | 00:00:00 | 00:00:00 | 00:00:00 | |
| NBG1-10 | 2026-08-31 06:27:38 | 50.13656 | 8.83884 | 119° | 9km/h | 27267m | 4.7m/s | -49.5°C | 3.2% | 18.8hPa | 2.6V | 03:22:00 | 01:58:49 | 00:00:00 | |
| DL1XH-15 | 2026-08-31 06:27:37 | 50.13661 | 8.83861 | 156° | 11km/h | 27234m | 5.1m/s | -49.4°C | 3.2% | 19hPa | 2.6V | 03:22:21 | 01:58:43 | 00:00:00 | |
| HSKMA3-T | 2026-08-31 06:27:36 | 50.13658 | 8.83875 | 90° | 11km/h | 27256m | 6.2m/s | -49.5°C | 0.1% | 18.9hPa | 2.7V | 03:22:55 | 01:58:47 | 00:00:00 | |
| DF8AY | 2026-08-31 06:27:34 | 50.13658 | 8.83867 | 102° | 9km/h | 27245m | 5.2m/s | -49.5°C | 0.1% | 18.9hPa | 2.7V | 03:22:55 | 01:58:45 | 00:00:00 | |
| BIOWL1-15 | 2026-08-31 06:27:31 | 50.13663 | 8.83860 | 174° | 11km/h | 27229m | 4.8m/s | -49.4°C | 0.1% | 18.9hPa | 2.6V | 03:22:55 | 01:58:42 | 00:00:00 | |
| DL1XH-west | 2026-08-31 06:27:30 | 50.13666 | 8.83860 | 186° | 9km/h | 27223m | 6.2m/s | -49.5°C | 0.1% | 19hPa | 2.7V | 03:22:55 | 01:58:41 | 00:00:00 | |
| DD1CC8 | 2026-08-31 06:27:29 | 50.13668 | 8.83860 | 193° | 5km/h | 27217m | 5.5m/s | -49.5°C | 0.7% | 19.0hPa | 2.7V | 00:00:00 | 00:00:00 | 00:00:00 | |
| DL1XH-15 | 2026-08-31 06:27:27 | 50.13675 | 8.83842 | 79° | 15km/h | 27180m | 5.9m/s | -49.6°C | 3.1% | 19.1hPa | 2.7V | 03:22:31 | 01:58:33 | 00:00:00 | |
| HSKMA3-T | 2026-08-31 06:27:26 | 50.13671 | 8.83859 | 139° | 7km/h | 27202m | 6.3m/s | -49.5°C | 0.1% | 19hPa | 2.6V | 03:22:55 | 01:58:37 | 00:00:00 | |
| DF8AY | 2026-08-31 06:27:24 | 50.13674 | 8.83853 | 111° | 13km/h | 27191m | 5.2m/s | -49.6°C | 0% | 19.1hPa | 2.7V | 03:22:55 | 01:58:35 | 00:00:00 | |
| BIOWL1-15 | 2026-08-31 06:27:20 | 50.13672 | 8.83833 | 61° | 9km/h | 27170m | 4.1m/s | -49.6°C | 0.1% | 19.1hPa | 2.6V | 03:22:55 | 01:58:31 | 00:00:00 | |
| DL1XH-west | 2026-08-31 06:27:19 | 50.13672 | 8.83831 | 78° | 4km/h | 27165m | 6m/s | -49.5°C | 0.1% | 19.1hPa | 2.6V | 03:22:55 | 01:58:30 | 00:00:00 | |
| DL1ZP-14 | 2026-08-31 06:27:17 | 50.13674 | 8.83832 | 216° | 9km/h | 27153m | 5.7m/s | -49.6°C | 0.8% | 19.2hPa | 2.7V | 00:00:00 | 00:00:00 | 00:00:00 | |
| DO3MHA-11 | 2026-08-31 06:27:16 | 50.13676 | 8.83835 | 225° | 9km/h | 27148m | 5.4m/s | -49.5°C | 3.1% | 19.1hPa | 2.6V | 00:00:00 | 01:58:27 | 00:00:00 | |
| DM0DOS-11 | 2026-08-31 06:27:15 | 50.13684 | 8.83841 | 107° | 11km/h | 27114m | 5.1m/s | -49.5°C | 3.1% | 19.3hPa | 2.6V | 03:22:43 | 01:58:21 | 00:00:00 | |
| HSKMA3-T | 2026-08-31 06:27:15 | 50.13678 | 8.83839 | 230° | 13km/h | 27142m | 6.2m/s | -49.5°C | 0.1% | 19.2hPa | 2.6V | 03:22:55 | 01:58:26 | 00:00:00 | |
| DF8AY | 2026-08-31 06:27:14 | 50.13680 | 8.83842 | 233° | 9km/h | 27136m | 4.9m/s | -49.5°C | 0.1% | 19.2hPa | 2.6V | 03:22:55 | 01:58:25 | 00:00:00 | |
| BIOWL1-15 | 2026-08-31 06:27:10 | 50.13685 | 8.83841 | 108° | 11km/h | 27114m | 5.1m/s | -49.5°C | 0.1% | 19.3hPa | 2.6V | 03:22:55 | 01:58:21 | 00:00:00 | |
| DL1XH1-15 | 2026-08-31 06:27:09 | 50.13681 | 8.83821 | 193° | 4km/h | 27081m | 5m/s | -49.5°C | 3.2% | 19.4hPa | 2.7V | 03:22:49 | 01:58:15 | 00:00:00 | |
| DL1XH-west | 2026-08-31 06:27:09 | 50.13685 | 8.83836 | 88° | 13km/h | 27109m | 5.6m/s | -49.5°C | 0.1% | 19.3hPa | 2.6V | 03:22:55 | 01:58:20 | 00:00:00 | |
| DF7PN | 2026-08-31 06:27:08 | 50.13683 | 8.83827 | 57° | 11km/h | 27097m | 5.1m/s | -49.6°C | 0.8% | 19.4hPa | 2.7V | 00:00:00 | 00:00:00 | 00:00:00 | |
| DO9LL-15 | 2026-08-31 06:27:07 | 50.13683 | 8.83827 | 58° | 9km/h | 27097m | 5.0m/s | -49.5°C | 3.2% | 19.3hPa | 2.7V | 00:00:00 | 01:58:18 | 00:00:00 | |
| DO3MHA-11 | 2026-08-31 06:27:06 | 50.13681 | 8.83824 | 57° | 7km/h | 27092m | 5.2m/s | -49.5°C | 3.2% | 19.3hPa | 2.6V | 03:22:00 | 01:58:17 | 00:00:00 | |
| DM0DOS-11 | 2026-08-31 06:27:05 | 50.13686 | 8.83830 | 230° | 7km/h | 27059m | 4.7m/s | -49.6°C | 3.2% | 19.4hPa | 2.7V | 03:22:53 | 01:58:11 | 00:00:00 | |
| HSKMA3-T | 2026-08-31 06:27:05 | 50.13681 | 8.83822 | 76° | 4km/h | 27086m | 6.2m/s | -49.5°C | 0.1% | 19.4hPa | 2.6V | 03:22:55 | 01:58:16 | 00:00:00 | |
| DF8AY | 2026-08-31 06:27:03 | 50.13682 | 8.83822 | 218° | 7km/h | 27076m | 4.8m/s | -49.6°C | 0.1% | 19.4hPa | 2.7V | 03:22:55 | 01:58:14 | 00:00:00 | |
| DK5PH-5 | 2026-08-31 06:27:03 | 50.13682 | 8.83822 | 218° | 9km/h | 27076m | 4.7m/s | -49.5°C | 3.2% | 19.4hPa | 2.7V | 00:00:00 | 01:58:14 | 00:00:00 | |
| GOEST3-10 | 2026-08-31 06:27:01 | 50.13685 | 8.83827 | 236° | 7km/h | 27065m | 6.0m/s | -49.5°C | 3.2% | 19.4hPa | 2.7V | 00:00:00 | 01:58:12 | 00:00:00 | |
| DL1XH1-15 | 2026-08-31 06:26:59 | 50.13697 | 8.83824 | 110° | 11km/h | 27029m | 4.6m/s | -49.4°C | 3.1% | 19.6hPa | 2.7V | 03:22:59 | 01:58:05 | 00:00:00 | |
| BIOWL1-15 | 2026-08-31 06:26:59 | 50.13688 | 8.83832 | 212° | 5km/h | 27055m | 4.2m/s | -49.7°C | 0.2% | 19.5hPa | 2.7V | 03:22:55 | 01:58:10 | 00:00:00 | |
| DL1XH-west | 2026-08-31 06:26:58 | 50.13689 | 8.83833 | 183° | 7km/h | 27050m | 5.7m/s | -49.6°C | 0.2% | 19.5hPa | 2.6V | 03:22:55 | 01:58:09 | 00:00:00 | |
| DO3MHA-11 | 2026-08-31 06:26:56 | 50.13694 | 8.83830 | 150° | 9km/h | 27039m | 5.1m/s | -49.5°C | 3.2% | 19.5hPa | 2.6V | 00:00:00 | 01:58:07 | 00:00:00 | |
| DM0DOS-11 | 2026-08-31 06:26:55 | 50.13693 | 8.83808 | 38° | 9km/h | 27008m | 5m/s | -49.3°C | 3.1% | 19.6hPa | 2.6V | 03:23:03 | 01:58:01 | 00:00:00 | |
| HSKMA3-T | 2026-08-31 06:26:54 | 50.13698 | 8.83824 | 111° | 11km/h | 27029m | 4.6m/s | -49.4°C | 0.1% | 19.6hPa | 2.7V | 03:23:46 | 01:58:05 | 00:00:00 | |
| DF8AY | 2026-08-31 06:26:53 | 50.13698 | 8.83819 | 86° | 11km/h | 27023m | 6.6m/s | -49.4°C | 0.1% | 19.6hPa | 2.7V | 03:23:46 | 01:58:04 | 00:00:00 | |
| BIOWL1-15 | 2026-08-31 06:26:50 | 50.13692 | 8.83805 | 127° | 4km/h | 26996m | 5.8m/s | -49.3°C | 0% | 19.6hPa | 2.7V | 03:23:46 | 01:57:59 | 00:00:00 | |
| GOEST3-10 | 2026-08-31 06:26:50 | 50.13693 | 8.83808 | 39° | 7km/h | 27008m | 4.9m/s | -49.2°C | 3.1% | 19.6hPa | 2.6V | 00:00:00 | 01:58:01 | 00:00:00 | |
| DL1XH1-15 | 2026-08-31 06:26:49 | 50.13698 | 8.83798 | 114° | 7km/h | 26974m | 5.9m/s | -49.3°C | 3.1% | 19.7hPa | 2.6V | 03:23:09 | 01:57:55 | 00:00:00 | |
| DL1XH-west | 2026-08-31 06:26:47 | 50.13693 | 8.83804 | 153° | 7km/h | 26991m | 5.1m/s | -49.3°C | 0% | 19.7hPa | 2.7V | 03:23:46 | 01:57:58 | 00:00:00 | |
| DL1ZP-14 | 2026-08-31 06:26:46 | 50.13695 | 8.83802 | 151° | 7km/h | 26986m | 4.9m/s | -49.3°C | 0.7% | 19.7hPa | 2.6V | 00:00:00 | 00:00:00 | 00:00:00 | |
| BIOWL9-15 | 2026-08-31 06:26:45 | 50.13696 | 8.83800 | 141° | 7km/h | 26981m | 5.8m/s | -49.4°C | 0.7% | 19.7hPa | 2.6V | 00:00:00 | 00:00:00 | 00:00:00 | |
| HSKMA3-T | 2026-08-31 06:26:44 | 50.13698 | 8.83798 | 114° | 7km/h | 26974m | 5.9m/s | -49.3°C | 0.1% | 19.7hPa | 2.6V | 03:23:46 | 01:57:55 | 00:00:00 | |
| DF8AY | 2026-08-31 06:26:42 | 50.13697 | 8.83793 | 60° | 9km/h | 26963m | 5.5m/s | -49.4°C | 0.2% | 19.8hPa | 2.7V | 03:23:46 | 01:57:53 | 00:00:00 | |
| DL4BBY-15 | 2026-08-31 06:26:42 | 50.13697 | 8.83793 | 60° | 13km/h | 26964m | 5.5m/s | -50.0°C | 0% | 0hPa | 2.6V | 00:00:00 | 00:00:00 | 00:00:00 | |
| SONDE2-11 | 2026-08-31 06:26:41 | 50.13695 | 8.83786 | 69° | 9km/h | 26952m | 6.3m/s | -49.4°C | 0.7% | 19.8hPa | 2.6V | 00:00:00 | 00:00:00 | 00:00:00 | |
| GOEST3-10 | 2026-08-31 06:26:40 | 50.13695 | 8.83786 | 70° | 11km/h | 26952m | 6.3m/s | -49.3°C | 3.2% | 19.8hPa | 2.6V | 00:00:00 | 01:57:51 | 00:00:00 | |
| DL1XH1-15 | 2026-08-31 06:26:39 | 50.13687 | 8.83764 | 67° | 9km/h | 26917m | 6.6m/s | -49.3°C | 3.2% | 19.9hPa | 2.6V | 03:23:19 | 01:57:45 | 00:00:00 | |
| DL1XH-west | 2026-08-31 06:26:37 | 50.13692 | 8.83775 | 58° | 11km/h | 26935m | 6.5m/s | -49.4°C | 0.1% | 19.9hPa | 2.7V | 03:23:46 | 01:57:48 | 00:00:00 | |
| AA1-15 | 2026-08-31 06:26:36 | 50.13690 | 8.83771 | 53° | 13km/h | 26929m | 5.5m/s | -49.3°C | 0.1% | 19.9hPa | 2.7V | 03:23:46 | 01:57:47 | 00:00:00 | |
| HSKMA3-T | 2026-08-31 06:26:33 | 50.13686 | 8.83760 | 82° | 9km/h | 26911m | 5.1m/s | -49.3°C | 0.1% | 19.9hPa | 2.6V | 03:23:46 | 01:57:44 | 00:00:00 | |
| DF8AY | 2026-08-31 06:26:32 | 50.13686 | 8.83756 | 85° | 11km/h | 26907m | 4.8m/s | -49.2°C | 0.1% | 19.9hPa | 2.6V | 03:23:46 | 01:57:43 | 00:00:00 | |
| BIOWL1-15 | 2026-08-31 06:26:31 | 50.13676 | 8.83732 | 47° | 16km/h | 26880m | 5.8m/s | -49.1°C | 0% | 20hPa | 2.7V | 03:23:46 | 01:57:38 | 00:00:00 | |
| GOEST3-10 | 2026-08-31 06:26:30 | 50.13684 | 8.83747 | 61° | 15km/h | 26896m | 6.3m/s | -49.1°C | 3.1% | 19.9hPa | 2.6V | 00:00:00 | 01:57:41 | 00:00:00 | |
| DL1XH1-15 | 2026-08-31 06:26:29 | 50.13669 | 8.83719 | 46° | 15km/h | 26864m | 5.4m/s | -49.1°C | 3% | 20.1hPa | 2.6V | 03:23:29 | 01:57:35 | 00:00:00 | |
| DL1XH-west | 2026-08-31 06:26:26 | 50.13673 | 8.83728 | 52° | 15km/h | 26874m | 5.5m/s | -49.1°C | 0% | 20.1hPa | 2.7V | 03:23:46 | 01:57:37 | 00:00:00 | |
| AA1-15 | 2026-08-31 06:26:25 | 50.13671 | 8.83723 | 52° | 13km/h | 26869m | 4.9m/s | -49.1°C | 0% | 20.1hPa | 2.6V | 03:23:46 | 01:57:36 | 00:00:00 | |
| HSKMA3-T | 2026-08-31 06:26:22 | 50.13663 | 8.83712 | 30° | 16km/h | 26852m | 5.1m/s | -49°C | 0.1% | 20.1hPa | 2.7V | 03:23:46 | 01:57:33 | 00:00:00 | |
| DF8AY | 2026-08-31 06:26:21 | 50.13660 | 8.83709 | 23° | 15km/h | 26847m | 5m/s | -49°C | 0.1% | 20.1hPa | 2.6V | 03:23:46 | 01:57:32 | 00:00:00 | |
| BIOWL7-15 | 2026-08-31 06:26:20 | 50.13660 | 8.83709 | 24° | 15km/h | 26847m | 5.0m/s | -49.0°C | 0.7% | 20.1hPa | 2.6V | 03:23:00 | 00:00:00 | 00:00:00 | |
| DL1XH1-15 | 2026-08-31 06:26:19 | 50.13640 | 8.83698 | 29° | 15km/h | 26807m | 6.4m/s | -49.1°C | 3% | 20.2hPa | 2.6V | 03:23:39 | 01:57:25 | 00:00:00 | |
| BIOWL1-15 | 2026-08-31 06:26:18 | 50.13647 | 8.83703 | 23° | 15km/h | 26818m | 5.9m/s | -49.1°C | 0.1% | 20.2hPa | 2.7V | 03:23:46 | 01:57:27 | 00:00:00 | |
| DL1XH-west | 2026-08-31 06:26:15 | 50.13643 | 8.83700 | 27° | 16km/h | 26813m | 5.2m/s | -49.1°C | 0.1% | 20.2hPa | 2.6V | 03:23:46 | 01:57:26 | 00:00:00 | |
| AA1-15 | 2026-08-31 06:26:14 | 50.13640 | 8.83698 | 29° | 15km/h | 26807m | 6.4m/s | -49.1°C | 0% | 20.2hPa | 2.6V | 03:23:46 | 01:57:25 | 00:00:00 | |
| HSKMA3-T | 2026-08-31 06:26:12 | 50.13633 | 8.83691 | 31° | 18km/h | 26796m | 4.6m/s | -49.1°C | 0% | 20.3hPa | 2.7V | 03:23:46 | 01:57:23 | 00:00:00 | |
| DF8AY | 2026-08-31 06:26:11 | 50.13629 | 8.83687 | 30° | 20km/h | 26791m | 5.9m/s | -49.1°C | 0% | 20.3hPa | 2.7V | 03:23:46 | 01:57:22 | 00:00:00 | |
| SP3BTT-10 | 2026-08-31 06:26:11 | 50.13629 | 8.83687 | 30° | 22km/h | 26791m | 5.8m/s | 0°C | 0% | 0hPa | 2.7V | 03:23:00 | 00:00:00 | 00:00:00 | |
| SONDE2-11 | 2026-08-31 06:26:10 | 50.13619 | 8.83679 | 23° | 24km/h | 26780m | 4.7m/s | -49.2°C | 0.7% | 20.3hPa | 2.7V | 00:00:00 | 00:00:00 | 00:00:00 | |
| DL1XH1-15 | 2026-08-31 06:26:09 | 50.13594 | 8.83676 | 344° | 20km/h | 26752m | 6.5m/s | -49.2°C | 3% | 20.4hPa | 2.7V | 03:23:49 | 01:57:15 | 00:00:00 | |
| BIOWL1-15 | 2026-08-31 06:26:06 | 50.13603 | 8.83673 | 358° | 16km/h | 26763m | 5.3m/s | -49.1°C | 0.1% | 20.4hPa | 2.7V | 03:24:37 | 01:57:17 | 00:00:00 | |
| DL1XH-west | 2026-08-31 06:26:05 | 50.13599 | 8.83674 | 348° | 18km/h | 26758m | 5.2m/s | -49.1°C | 0% | 20.4hPa | 2.7V | 03:24:37 | 01:57:16 | 00:00:00 | |
| AA1-15 | 2026-08-31 06:26:03 | 50.13589 | 8.83678 | 344° | 24km/h | 26746m | 5.5m/s | -49.2°C | 0% | 20.4hPa | 2.6V | 03:24:37 | 01:57:14 | 00:00:00 | |
| HSKMA3-T | 2026-08-31 06:26:01 | 50.13578 | 8.83684 | 339° | 24km/h | 26735m | 6.3m/s | -49.4°C | 0% | 20.5hPa | 2.6V | 03:24:37 | 01:57:12 | 00:00:00 | |
| BIOWL1-15 | 2026-08-31 06:25:59 | 50.13546 | 8.83686 | 17° | 22km/h | 26702m | 5.5m/s | -49.7°C | 0.1% | 20.6hPa | 2.6V | 03:24:37 | 01:57:06 | 00:00:00 | |
| NBG1-10 | 2026-08-31 06:25:59 | 50.13568 | 8.83690 | 347° | 20km/h | 26724m | 4.8m/s | -49.5°C | 3.1% | 20.4hPa | 2.6V | 00:00:00 | 01:57:10 | 00:00:00 | |
| DB0UT-9 | 2026-08-31 06:25:58 | 50.13568 | 8.83689 | 347° | 20km/h | 26724m | 4.8m/s | -49.6°C | 0.7% | 20.5hPa | 2.6V | 03:24:00 | 00:00:00 | 00:00:00 | |
| DL1XH-15 | 2026-08-31 06:25:57 | 50.13533 | 8.83683 | 355° | 16km/h | 26686m | 5m/s | -49.6°C | 3.1% | 20.6hPa | 2.6V | 03:24:01 | 01:57:03 | 00:00:00 | |
| GOEST3-10 | 2026-08-31 06:25:57 | 50.13557 | 8.83690 | 10° | 20km/h | 26713m | 5.8m/s | -49.6°C | 3.1% | 20.5hPa | 2.6V | 00:00:00 | 01:57:08 | 00:00:00 | |
| DO3MHA-11 | 2026-08-31 06:25:56 | 50.13551 | 8.83688 | 16° | 20km/h | 26707m | 4.7m/s | -49.6°C | 3.2% | 20.5hPa | 2.6V | 00:00:00 | 01:57:07 | 00:00:00 | |
| DJ2KF-10 | 2026-08-31 06:25:55 | 50.13546 | 8.83686 | 17° | 16km/h | 26702m | 5.5m/s | -49.7°C | 3.2% | 20.5hPa | 2.6V | 00:00:00 | 01:57:06 | 00:00:00 | |
| DM0DOS-11 | 2026-08-31 06:25:54 | 50.13523 | 8.83685 | 346° | 20km/h | 26674m | 5.5m/s | -49.8°C | 3.1% | 20.6hPa | 2.7V | 03:24:03 | 01:57:01 | 00:00:00 | |
| DL1XH-west | 2026-08-31 06:25:54 | 50.13541 | 8.83684 | 13° | 18km/h | 26696m | 6.1m/s | -49.7°C | 0.1% | 20.6hPa | 2.7V | 03:24:37 | 01:57:05 | 00:00:00 | |
| AA1-15 | 2026-08-31 06:25:53 | 50.13537 | 8.83683 | 3° | 16km/h | 26691m | 5m/s | -49.6°C | 0.1% | 20.6hPa | 2.7V | 03:24:37 | 01:57:04 | 00:00:00 | |
| HSKMA3-T | 2026-08-31 06:25:50 | 50.13523 | 8.83685 | 347° | 20km/h | 26674m | 5.5m/s | -49.8°C | 0.1% | 20.7hPa | 2.7V | 03:24:37 | 01:57:01 | 00:00:00 | |
| DL1XH-15 | 2026-08-31 06:25:47 | 50.13482 | 8.83724 | 337° | 26km/h | 26632m | 4m/s | -49.9°C | 3.1% | 20.8hPa | 2.7V | 03:24:11 | 01:56:53 | 00:00:00 | |
| BIOWL1-15 | 2026-08-31 06:25:47 | 50.13499 | 8.83708 | 319° | 26km/h | 26647m | 4.4m/s | -49.9°C | 0.1% | 20.7hPa | 2.7V | 03:24:37 | 01:56:56 | 00:00:00 | |
| SONCRA | 2026-08-31 06:25:47 | 50.13503 | 8.83702 | 317° | 24km/h | 26652m | 5.0m/s | -49.9°C | 0.7% | 20.7hPa | 2.6V | 00:00:00 | 00:00:00 | 00:00:00 | |
| DO3MHA-11 | 2026-08-31 06:25:46 | 50.13503 | 8.83702 | 318° | 20km/h | 26653m | 4.9m/s | -49.9°C | 3.1% | 20.7hPa | 2.6V | 03:24:00 | 01:56:57 | 00:00:00 | |
| DJ2DS-15 | 2026-08-31 06:25:45 | 50.13499 | 8.83708 | 319° | 15km/h | 26648m | 4.3m/s | -49.9°C | 3.2% | 20.7hPa | 2.6V | 00:00:00 | 01:56:56 | 00:00:00 | |
| DM0DOS-11 | 2026-08-31 06:25:44 | 50.13472 | 8.83731 | 340° | 18km/h | 26622m | 6.2m/s | -49.9°C | 3.1% | 20.8hPa | 2.6V | 03:24:13 | 01:56:51 | 00:00:00 | |
| DL1XH-west | 2026-08-31 06:25:43 | 50.13488 | 8.83720 | 332° | 27km/h | 26636m | 5.4m/s | -49.9°C | 0.1% | 20.8hPa | 2.6V | 03:24:37 | 01:56:54 | 00:00:00 | |
| AA1-15 | 2026-08-31 06:25:42 | 50.13482 | 8.83725 | 338° | 26km/h | 26632m | 4.1m/s | -49.9°C | 0.1% | 20.8hPa | 2.7V | 03:24:37 | 01:56:53 | 00:00:00 | |
| DF8AY | 2026-08-31 06:25:40 | 50.13472 | 8.83730 | 340° | 18km/h | 26622m | 6.2m/s | -49.9°C | 0.1% | 20.8hPa | 2.6V | 03:24:37 | 01:56:51 | 00:00:00 | |
| DL1XH1-15 | 2026-08-31 06:25:39 | 50.13459 | 8.83732 | 2° | 5km/h | 26588m | 5.5m/s | -49.9°C | 3.2% | 20.9hPa | 2.6V | 03:24:19 | 01:56:45 | 00:00:00 | |
| HSKMA3-T | 2026-08-31 06:25:39 | 50.13468 | 8.83733 | 340° | 13km/h | 26616m | 5.9m/s | -50°C | 0.1% | 20.9hPa | 2.6V | 03:24:37 | 01:56:50 | 00:00:00 | |
| DB0UT-9 | 2026-08-31 06:25:38 | 50.13468 | 8.83732 | 341° | 13km/h | 26616m | 5.9m/s | -50.0°C | 0.8% | 20.9hPa | 2.7V | 03:24:00 | 00:00:00 | 00:00:00 | |
| DO9LL-15 | 2026-08-31 06:25:37 | 50.13464 | 8.83734 | 8° | 9km/h | 26605m | 5.5m/s | -50.0°C | 3.1% | 20.8hPa | 2.7V | 00:00:00 | 01:56:48 | 00:00:00 | |
| DL1XH-15 | 2026-08-31 06:25:36 | 50.13456 | 8.83739 | 291° | 11km/h | 26572m | 4.3m/s | -50°C | 3.2% | 21hPa | 2.7V | 03:24:22 | 01:56:42 | 00:00:00 | |
| BIOWL1-15 | 2026-08-31 06:25:36 | 50.13459 | 8.83732 | 2° | 5km/h | 26588m | 5.5m/s | -49.9°C | 0.2% | 20.9hPa | 2.6V | 03:24:37 | 01:56:45 | 00:00:00 | |
| DO3MHA-11 | 2026-08-31 06:25:36 | 50.13462 | 8.83733 | 25° | 11km/h | 26599m | 6.2m/s | -50.0°C | 3.2% | 20.9hPa | 2.7V | 00:00:00 | 01:56:47 | 00:00:00 | |
| DF7PN | 2026-08-31 06:25:35 | 50.13459 | 8.83732 | 2° | 4km/h | 26588m | 5.5m/s | -49.9°C | 0.8% | 20.9hPa | 2.7V | 00:00:00 | 00:00:00 | 00:00:00 | |
| DM0DOS-11 | 2026-08-31 06:25:34 | 50.13454 | 8.83743 | 300° | 13km/h | 26567m | 6.1m/s | -50.1°C | 3.2% | 21hPa | 2.7V | 03:24:23 | 01:56:41 | 00:00:00 | |
| DL1XH-west | 2026-08-31 06:25:32 | 50.13457 | 8.83735 | 292° | 9km/h | 26577m | 4.7m/s | -50°C | 0.1% | 21hPa | 2.6V | 03:24:37 | 01:56:43 | 00:00:00 | |
| DF8AY | 2026-08-31 06:25:31 | 50.13455 | 8.83743 | 301° | 13km/h | 26567m | 6.1m/s | -50.1°C | 0.1% | 21hPa | 2.7V | 03:24:37 | 01:56:41 | 00:00:00 | |
| AA1-15 | 2026-08-31 06:25:31 | 50.13456 | 8.83739 | 291° | 11km/h | 26572m | 4.3m/s | -50°C | 0.1% | 21hPa | 2.7V | 03:24:37 | 01:56:42 | 00:00:00 | |
| HSKMA3-T | 2026-08-31 06:25:29 | 50.13452 | 8.83748 | 312° | 16km/h | 26561m | 5.9m/s | -50.1°C | 0.1% | 21hPa | 2.7V | 03:24:37 | 01:56:40 | 00:00:00 | |
| DL8DAS-14 | 2026-08-31 06:25:28 | 50.13449 | 8.83752 | 316° | 16km/h | 26556m | 4.8m/s | -50.2°C | 0.7% | 21.0hPa | 2.6V | 00:00:00 | 00:00:00 | 00:00:00 | |
| DB0UT-7 | 2026-08-31 06:25:26 | 50.13443 | 8.83762 | 311° | 7km/h | 26547m | 5.4m/s | -50.3°C | 3.1% | 21.0hPa | 2.6V | 03:24:00 | 01:56:37 | 00:00:00 | |
| DJ2DS-15 | 2026-08-31 06:25:25 | 50.13440 | 8.83768 | 300° | 7km/h | 26541m | 6.0m/s | -50.3°C | 3.1% | 21.0hPa | 2.6V | 03:24:00 | 01:56:36 | 00:00:00 | |
| DM0DOS-11 | 2026-08-31 06:25:24 | 50.13433 | 8.83788 | 331° | 7km/h | 26514m | 5m/s | -50.5°C | 3.3% | 21.2hPa | 2.6V | 03:24:33 | 01:56:31 | 00:00:00 | |
| BIOWL1-15 | 2026-08-31 06:25:24 | 50.13439 | 8.83773 | 291° | 16km/h | 26535m | 5m/s | -50.3°C | 0.1% | 21.1hPa | 2.7V | 03:24:37 | 01:56:35 | 00:00:00 | |
| DL1XH-west | 2026-08-31 06:25:22 | 50.13436 | 8.83783 | 301° | 11km/h | 26525m | 6m/s | -50.3°C | 0.1% | 21.1hPa | 2.6V | 03:24:37 | 01:56:33 | 00:00:00 | |
| AA1-15 | 2026-08-31 06:25:20 | 50.13433 | 8.83788 | 332° | 7km/h | 26514m | 5m/s | -50.5°C | 0.2% | 21.2hPa | 2.6V | 03:24:37 | 01:56:31 | 00:00:00 | |
| DL1XH1-15 | 2026-08-31 06:25:19 | 50.13429 | 8.83790 | 36° | 5km/h | 26480m | 4.9m/s | -50.6°C | 3.3% | 21.3hPa | 2.6V | 03:24:39 | 01:56:25 | 00:00:00 | |
| GOEST3-10 | 2026-08-31 06:25:18 | 50.13431 | 8.83790 | 299° | 2km/h | 26503m | 5.4m/s | -50.5°C | 3.3% | 21.2hPa | 2.6V | 03:24:00 | 00:00:00 | 00:00:00 | |
| HSKMA3-T | 2026-08-31 06:25:18 | 50.13431 | 8.83790 | 299° | 4km/h | 26502m | 5.5m/s | -50.6°C | 0.2% | 21.2hPa | 2.7V | 03:24:37 | 01:56:29 | 00:00:00 | |
| DH7VM-15 | 2026-08-31 06:25:17 | 50.13431 | 8.83790 | 300° | 4km/h | 26503m | 5.5m/s | -50.6°C | 0.8% | 21.2hPa | 2.6V | 00:00:00 | 00:00:00 | 00:00:00 | |
| SONCRA | 2026-08-31 06:25:16 | 50.13430 | 8.83791 | 27° | 4km/h | 26486m | 6.4m/s | -50.6°C | 0.8% | 21.3hPa | 2.6V | 00:00:00 | 00:00:00 | 00:00:00 | |
| DC4HF-4 | 2026-08-31 06:25:15 | 50.13430 | 8.83791 | 27° | 4km/h | 26486m | 6.4m/s | -50.6°C | 0.8% | 21.3hPa | 2.6V | 00:00:00 | 00:00:00 | 00:00:00 | |
| DM0DOS-11 | 2026-08-31 06:25:14 | 50.13427 | 8.83792 | 275° | 5km/h | 26460m | 4.5m/s | -50.8°C | 3.3% | 21.4hPa | 2.6V | 03:24:43 | 01:56:21 | 00:00:00 | |
| DL1XH-15 | 2026-08-31 06:25:13 | 50.13425 | 8.83796 | 321° | 7km/h | 26448m | 6m/s | -50.7°C | 3.2% | 21.4hPa | 2.7V | 03:24:45 | 01:56:19 | 00:00:00 | |
| BIOWL1-15 | 2026-08-31 06:25:13 | 50.13428 | 8.83789 | 26° | 4km/h | 26476m | 4.9m/s | -50.7°C | 0.2% | 21.3hPa | 2.7V | 03:25:28 | 01:56:24 | 00:00:00 | |
| DL1XH-west | 2026-08-31 06:25:11 | 50.13427 | 8.83790 | 273° | 4km/h | 26464m | 5.2m/s | -50.8°C | 0.2% | 21.3hPa | 2.6V | 03:25:28 | 01:56:22 | 00:00:00 | |
| DF8AY | 2026-08-31 06:25:10 | 50.13427 | 8.83792 | 276° | 5km/h | 26460m | 4.5m/s | -50.8°C | 0.2% | 21.4hPa | 2.6V | 03:26:19 | 01:56:21 | 00:00:00 | |
| AA1-15 | 2026-08-31 06:25:09 | 50.13427 | 8.83794 | 295° | 7km/h | 26455m | 5.9m/s | -50.7°C | 0.2% | 21.4hPa | 2.7V | 03:25:28 | 01:56:20 | 00:00:00 | |
| HSKMA3-T | 2026-08-31 06:25:07 | 50.13424 | 8.83798 | 338° | 9km/h | 26443m | 5.2m/s | -50.7°C | 0.1% | 21.4hPa | 2.6V | 03:25:28 | 01:56:18 | 00:00:00 | |
| BIOWL1-15 | 2026-08-31 06:25:04 | 50.13419 | 8.83799 | 77° | 4km/h | 26421m | 4.9m/s | -50.7°C | 0.2% | 21.5hPa | 2.6V | 03:25:28 | 01:56:14 | 00:00:00 | |
| DL1XH-west | 2026-08-31 06:25:00 | 50.13418 | 8.83792 | 89° | 9km/h | 26404m | 4.8m/s | -50.6°C | 0.1% | 21.6hPa | 2.7V | 03:25:28 | 01:56:11 | 00:00:00 | |
| DL1XH1-15 | 2026-08-31 06:24:59 | 50.13419 | 8.83782 | 0° | 7km/h | 26372m | 5.1m/s | -50.8°C | 3.2% | 21.6hPa | 2.7V | 03:24:59 | 01:56:05 | 00:00:00 | |
| AA1-15 | 2026-08-31 06:24:58 | 50.13419 | 8.83786 | 127° | 7km/h | 26393m | 5.6m/s | -50.5°C | 0.1% | 21.6hPa | 2.7V | 03:25:28 | 01:56:09 | 00:00:00 | |
| HSKMA3-T | 2026-08-31 06:24:56 | 50.13420 | 8.83783 | 107° | 2km/h | 26383m | 5.4m/s | -50.6°C | 0.1% | 21.6hPa | 2.6V | 03:25:28 | 01:56:07 | 00:00:00 | |
| DL3AQ-11 | 2026-08-31 06:24:56 | 50.13420 | 8.83782 | 20° | 4km/h | 26377m | 6.2m/s | -50.7°C | 0.8% | 21.6hPa | 2.6V | 00:00:00 | 00:00:00 | 00:00:00 | |
| DJ2KF-10 | 2026-08-31 06:24:55 | 50.13420 | 8.83782 | 21° | 11km/h | 26378m | 6.1m/s | -50.7°C | 3.2% | 21.6hPa | 2.6V | 03:24:00 | 01:56:06 | 00:00:00 | |
| DM0DOS-11 | 2026-08-31 06:24:54 | 50.13412 | 8.83783 | 30° | 2km/h | 26350m | 4.3m/s | -51°C | 3.3% | 21.7hPa | 2.6V | 03:25:03 | 01:56:01 | 00:00:00 | |
| BIOWL1-15 | 2026-08-31 06:24:54 | 50.13414 | 8.83783 | 345° | 9km/h | 26361m | 5.9m/s | -51°C | 0.2% | 21.7hPa | 2.7V | 03:25:28 | 01:56:03 | 00:00:00 | |
| DL1XH-west | 2026-08-31 06:24:50 | 50.13412 | 8.83783 | 30° | 2km/h | 26350m | 4.3m/s | -51°C | 0.2% | 21.7hPa | 2.6V | 03:25:28 | 01:56:01 | 00:00:00 | |
| DF8AY | 2026-08-31 06:24:49 | 50.13411 | 8.83782 | 75° | 5km/h | 26346m | 4.4m/s | -51°C | 0.2% | 21.7hPa | 2.6V | 03:26:19 | 01:56:00 | 00:00:00 | |
| AA1-15 | 2026-08-31 06:24:47 | 50.13410 | 8.83775 | 70° | 15km/h | 26335m | 6m/s | -51°C | 0.2% | 21.8hPa | 2.7V | 03:25:28 | 01:55:58 | 00:00:00 | |
| DL1XH-15 | 2026-08-31 06:24:46 | 50.13400 | 8.83752 | 29° | 13km/h | 26304m | 6.1m/s | -51.2°C | 3.3% | 21.9hPa | 2.7V | 03:25:12 | 01:55:52 | 00:00:00 | |
| BIOWL1-15 | 2026-08-31 06:24:46 | 50.13402 | 8.83754 | 33° | 9km/h | 26309m | 4.4m/s | -51.2°C | 0.2% | 21.9hPa | 2.7V | 03:25:28 | 01:55:53 | 00:00:00 | |
| HSKMA3-T | 2026-08-31 06:24:45 | 50.13407 | 8.83764 | 64° | 15km/h | 26324m | 5.1m/s | -51°C | 0.2% | 21.8hPa | 2.6V | 03:25:28 | 01:55:56 | 00:00:00 | |
| DL1XH-west | 2026-08-31 06:24:40 | 50.13396 | 8.83749 | 29° | 15km/h | 26298m | 5.9m/s | -51.2°C | 0.2% | 21.9hPa | 2.7V | 03:25:28 | 01:55:51 | 00:00:00 | |
| DF8AY | 2026-08-31 06:24:38 | 50.13389 | 8.83743 | 31° | 16km/h | 26287m | 4.6m/s | -51.3°C | 0.3% | 21.9hPa | 2.6V | 03:26:19 | 01:55:49 | 00:00:00 | |
| DO1YAY-16 | 2026-08-31 06:24:37 | 50.13386 | 8.83740 | 28° | 11km/h | 26282m | 6.4m/s | -51.3°C | 0.8% | 21.9hPa | 2.7V | 00:00:00 | 00:00:00 | 00:00:00 | |
| DL1XH-15 | 2026-08-31 06:24:36 | 50.13383 | 8.83731 | 147° | 5km/h | 26248m | 6.3m/s | -51.2°C | 3.4% | 22.1hPa | 2.7V | 03:25:22 | 01:55:42 | 00:00:00 | |
| AA1-15 | 2026-08-31 06:24:36 | 50.13384 | 8.83738 | 24° | 7km/h | 26275m | 6m/s | -51.2°C | 0.3% | 22hPa | 2.7V | 03:25:28 | 01:55:47 | 00:00:00 | |
| HSKMA3-T | 2026-08-31 06:24:34 | 50.13382 | 8.83736 | 57° | 4km/h | 26264m | 6.2m/s | -51.2°C | 0.3% | 22hPa | 2.6V | 03:25:28 | 01:55:45 | 00:00:00 | |
| BIOWL1-15 | 2026-08-31 06:24:32 | 50.13382 | 8.83733 | 118° | 5km/h | 26254m | 4.6m/s | -51.2°C | 0.3% | 22hPa | 2.7V | 03:25:28 | 01:55:43 | 00:00:00 | |
| DM7RM-13 | 2026-08-31 06:24:30 | 50.13383 | 8.83731 | 148° | 5km/h | 26248m | 6.3m/s | -51.2°C | 0.8% | 22.1hPa | 2.6V | 03:25:00 | 00:00:00 | 00:00:00 | |
| DL1XH1-15 | 2026-08-31 06:24:29 | 50.13376 | 8.83720 | 16° | 18km/h | 26209m | 6.4m/s | -51.4°C | 3.4% | 22.2hPa | 2.6V | 03:25:29 | 01:55:35 | 00:00:00 | |
| DL1XH-west | 2026-08-31 06:24:29 | 50.13385 | 8.83730 | 163° | 4km/h | 26237m | 4.4m/s | -51.1°C | 0.3% | 22.1hPa | 2.6V | 03:25:28 | 01:55:40 | 00:00:00 | |
| DF8AY | 2026-08-31 06:24:28 | 50.13386 | 8.83729 | 94° | 4km/h | 26232m | 5.1m/s | -51.2°C | 0.3% | 22.1hPa | 2.7V | 03:26:19 | 01:55:39 | 00:00:00 | |
| DJTTGO | 2026-08-31 06:24:27 | 50.13386 | 8.83729 | 95° | 4km/h | 26233m | 5.1m/s | -51.2°C | 0.8% | 22.1hPa | 2.7V | 03:25:00 | 00:00:00 | 00:00:00 | |
| DL1XH-15 | 2026-08-31 06:24:26 | 50.13362 | 8.83718 | 2° | 20km/h | 26193m | 6.1m/s | -51.2°C | 3.3% | 22.2hPa | 2.7V | 03:25:32 | 01:55:32 | 00:00:00 | |
| AA1-15 | 2026-08-31 06:24:25 | 50.13380 | 8.83722 | 26° | 16km/h | 26215m | 5.4m/s | -51.3°C | 0.3% | 22.2hPa | 2.6V | 03:25:28 | 01:55:36 | 00:00:00 | |
| HSKMA3-T | 2026-08-31 06:24:23 | 50.13372 | 8.83718 | 5° | 18km/h | 26203m | 5.4m/s | -51.3°C | 0.2% | 22.2hPa | 2.7V | 03:26:19 | 01:55:34 | 00:00:00 | |
| BIOWL1-15 | 2026-08-31 06:24:22 | 50.13367 | 8.83718 | 1° | 18km/h | 26198m | 4.9m/s | -51.2°C | 0.3% | 22.2hPa | 2.7V | 03:26:19 | 01:55:33 | 00:00:00 | |
| DD1CC2-15 | 2026-08-31 06:24:21 | 50.13367 | 8.83718 | 2° | 18km/h | 26198m | 4.9m/s | -51.2°C | 0.9% | 22.2hPa | 2.6V | 03:26:00 | 00:00:00 | 00:00:00 | |
| DJ2KF-10 | 2026-08-31 06:24:20 | 50.13357 | 8.83717 | 8° | 15km/h | 26187m | 5.6m/s | -51.2°C | 3.3% | 22.2hPa | 2.6V | 00:00:00 | 01:55:31 | 00:00:00 | |
| DL1XH1-15 | 2026-08-31 06:24:19 | 50.13346 | 8.83714 | 60° | 5km/h | 26154m | 6m/s | -51.1°C | 3.4% | 22.4hPa | 2.6V | 03:25:39 | 01:55:25 | 00:00:00 | |
| DL1XH-west | 2026-08-31 06:24:19 | 50.13353 | 8.83716 | 9° | 16km/h | 26182m | 4.9m/s | -51.2°C | 0.2% | 22.3hPa | 2.6V | 03:26:19 | 01:55:30 | 00:00:00 | |
| DF8AY | 2026-08-31 06:24:15 | 50.13346 | 8.83715 | 58° | 2km/h | 26160m | 5.4m/s | -51.2°C | 0.3% | 22.4hPa | 2.7V | 03:26:19 | 01:55:26 | 00:00:00 | |
| NBG1-10 | 2026-08-31 06:24:15 | 50.13346 | 8.83715 | 59° | 15km/h | 26160m | 5.4m/s | -51.1°C | 3.4% | 22.3hPa | 2.7V | 00:00:00 | 01:55:26 | 00:00:00 | |
| DM0DOS-11 | 2026-08-31 06:24:14 | 50.13337 | 8.83708 | 355° | 15km/h | 26132m | 5.7m/s | -51.1°C | 3.3% | 22.5hPa | 2.7V | 03:25:43 | 01:55:21 | 00:00:00 | |
| AA1-15 | 2026-08-31 06:24:14 | 50.13346 | 8.83714 | 61° | 5km/h | 26154m | 6m/s | -51.1°C | 0.3% | 22.4hPa | 2.6V | 03:26:19 | 01:55:25 | 00:00:00 | |
| HSKMA3-T | 2026-08-31 06:24:12 | 50.13343 | 8.83710 | 28° | 9km/h | 26144m | 4.9m/s | -51.1°C | 0.3% | 22.4hPa | 2.6V | 03:26:19 | 01:55:23 | 00:00:00 | |
| BIOWL1-15 | 2026-08-31 06:24:11 | 50.13341 | 8.83709 | 11° | 11km/h | 26138m | 6.6m/s | -51.1°C | 0.2% | 22.5hPa | 2.7V | 03:26:19 | 01:55:22 | 00:00:00 | |
| DL1XH-west | 2026-08-31 06:24:08 | 50.13329 | 8.83710 | 354° | 20km/h | 26121m | 5.6m/s | -51.2°C | 0.2% | 22.5hPa | 2.6V | 03:26:19 | 01:55:19 | 00:00:00 | |
| DF8AY | 2026-08-31 06:24:05 | 50.13312 | 8.83711 | 355° | 20km/h | 26106m | 3.7m/s | -51.2°C | 0.2% | 22.6hPa | 2.7V | 03:26:19 | 01:55:16 | 00:00:00 | |
| DJ2DS-15 | 2026-08-31 06:24:05 | 50.13312 | 8.83711 | 356° | 16km/h | 26106m | 3.6m/s | -51.1°C | 3.3% | 22.5hPa | 2.7V | 03:25:00 | 01:55:16 | 00:00:00 | |
| DM0DOS-11 | 2026-08-31 06:24:04 | 50.13302 | 8.83725 | 277° | 7km/h | 26078m | 5.8m/s | -51.2°C | 3.4% | 22.6hPa | 2.6V | 03:25:53 | 01:55:11 | 00:00:00 | |
| DL1XH-15 | 2026-08-31 06:24:04 | 50.13301 | 8.83728 | 314° | 5km/h | 26073m | 5.2m/s | -51.2°C | 3.5% | 22.7hPa | 2.7V | 03:25:54 | 01:55:10 | 00:00:00 | |
| AA1-15 | 2026-08-31 06:24:03 | 50.13305 | 8.83714 | 323° | 13km/h | 26095m | 6.2m/s | -51.3°C | 0.3% | 22.6hPa | 2.7V | 03:26:19 | 01:55:14 | 00:00:00 | |
| HSKMA3-T | 2026-08-31 06:24:02 | 50.13303 | 8.83718 | 295° | 11km/h | 26089m | 5.5m/s | -51.3°C | 0.3% | 22.6hPa | 2.6V | 03:26:19 | 01:55:13 | 00:00:00 | |
| BIOWL1-15 | 2026-08-31 06:24:00 | 50.13302 | 8.83725 | 277° | 7km/h | 26078m | 5.8m/s | -51.2°C | 0.3% | 22.6hPa | 2.6V | 03:26:19 | 01:55:11 | 00:00:00 | |
| DL1XH-west | 2026-08-31 06:23:58 | 50.13299 | 8.83729 | 343° | 9km/h | 26068m | 4.3m/s | -51.2°C | 0.3% | 22.7hPa | 2.7V | 03:26:19 | 01:55:09 | 00:00:00 | |
| DM0DOS-11 | 2026-08-31 06:23:56 | 50.13261 | 8.83751 | 323° | 22km/h | 26025m | 6.2m/s | -51.1°C | 3.3% | 22.8hPa | 2.7V | 03:26:03 | 01:55:01 | 00:00:00 | |
| DF8AY | 2026-08-31 06:23:55 | 50.13283 | 8.83738 | 341° | 24km/h | 26047m | 5.3m/s | -51.2°C | 0.2% | 22.8hPa | 2.7V | 03:26:19 | 01:55:05 | 00:00:00 | |
| AA1-15 | 2026-08-31 06:23:52 | 50.13271 | 8.83743 | 342° | 24km/h | 26036m | 4.7m/s | -51.1°C | 0.2% | 22.8hPa | 2.6V | 03:26:19 | 01:55:03 | 00:00:00 | |
| HSKMA3-T | 2026-08-31 06:23:51 | 50.13266 | 8.83747 | 334° | 22km/h | 26031m | 4.8m/s | -51.1°C | 0.2% | 22.8hPa | 2.7V | 03:26:19 | 01:55:02 | 00:00:00 | |
| BIOWL1-15 | 2026-08-31 06:23:49 | 50.13257 | 8.83758 | 311° | 24km/h | 26020m | 5.4m/s | -51.2°C | 0.2% | 22.9hPa | 2.6V | 03:26:19 | 01:55:00 | 00:00:00 | |
| DL1XH-west | 2026-08-31 06:23:47 | 50.13250 | 8.83771 | 303° | 18km/h | 26010m | 5.7m/s | -51.1°C | 0.2% | 22.9hPa | 2.6V | 03:26:19 | 01:54:58 | 00:00:00 | |
| DL3AQ-11 | 2026-08-31 06:23:47 | 50.13248 | 8.83776 | 304° | 13km/h | 26004m | 5.8m/s | -51.0°C | 0.8% | 22.9hPa | 2.7V | 00:00:00 | 00:00:00 | 00:00:00 | |
| DO3MHA-11 | 2026-08-31 06:23:46 | 50.13248 | 8.83776 | 305° | 16km/h | 26004m | 5.8m/s | -51.0°C | 3.3% | 22.9hPa | 2.7V | 03:26:00 | 01:54:57 | 00:00:00 | |
| DJ2DS-15 | 2026-08-31 06:23:45 | 50.13246 | 8.83780 | 310° | 18km/h | 25999m | 4.5m/s | -51.0°C | 3.4% | 22.9hPa | 2.7V | 00:00:00 | 01:54:56 | 00:00:00 | |
| DM0DOS-11 | 2026-08-31 06:23:44 | 50.13231 | 8.83801 | 328° | 20km/h | 25973m | 5.2m/s | -51.1°C | 3.5% | 23hPa | 2.7V | 03:26:13 | 01:54:51 | 00:00:00 | |
| AA1-15 | 2026-08-31 06:23:42 | 50.13238 | 8.83791 | 319° | 18km/h | 25983m | 5.5m/s | -51.1°C | 0.3% | 23hPa | 2.6V | 03:26:19 | 01:54:53 | 00:00:00 | |
| BIOWL1-15 | 2026-08-31 06:23:41 | 50.13226 | 8.83804 | 336° | 20km/h | 25967m | 6.3m/s | -51.1°C | 0.3% | 23.1hPa | 2.7V | 03:26:19 | 01:54:50 | 00:00:00 | |
| HSKMA3-T | 2026-08-31 06:23:40 | 50.13231 | 8.83801 | 329° | 20km/h | 25973m | 5.2m/s | -51.1°C | 0.3% | 23hPa | 2.7V | 03:26:19 | 01:54:51 | 00:00:00 | |
| DL1XH-west | 2026-08-31 06:23:37 | 50.13218 | 8.83809 | 337° | 16km/h | 25956m | 4.6m/s | -51.1°C | 0.2% | 23.1hPa | 2.6V | 03:26:19 | 01:54:48 | 00:00:00 | |
| GOEST3-10 | 2026-08-31 06:23:37 | 50.13218 | 8.83809 | 338° | 15km/h | 25957m | 4.5m/s | -51.0°C | 3.4% | 23.0hPa | 2.6V | 00:00:00 | 01:54:48 | 00:00:00 | |
| DL1XH-15 | 2026-08-31 06:23:36 | 50.13207 | 8.83838 | 287° | 15km/h | 25924m | 4.3m/s | -50.8°C | 3.2% | 23.2hPa | 2.6V | 03:26:22 | 01:54:42 | 00:00:00 | |
| DF8AY | 2026-08-31 06:23:31 | 50.13207 | 8.83838 | 287° | 15km/h | 25924m | 4.3m/s | -50.8°C | 0.2% | 23.2hPa | 2.6V | 03:27:10 | 01:54:42 | 00:00:00 | |
| BIOWL1-15 | 2026-08-31 06:23:31 | 50.13203 | 8.83850 | 305° | 20km/h | 25913m | 5.8m/s | -50.9°C | 0.1% | 23.2hPa | 2.6V | 03:27:10 | 01:54:40 | 00:00:00 | |
| HSKMA3-T | 2026-08-31 06:23:30 | 50.13205 | 8.83844 | 295° | 16km/h | 25919m | 5.4m/s | -50.9°C | 0.2% | 23.2hPa | 2.6V | 03:27:10 | 01:54:41 | 00:00:00 | |
| BUE01 | 2026-08-31 06:23:29 | 50.13199 | 8.83856 | 317° | 24km/h | 25908m | 5.3m/s | -50.9°C | 0.8% | 23.3hPa | 2.7V | 00:00:00 | 00:00:00 | 00:00:00 | |
| GOEST3-10 | 2026-08-31 06:23:27 | 50.13194 | 8.83862 | 328° | 24km/h | 25903m | 5.8m/s | -50.8°C | 3.3% | 23.2hPa | 2.7V | 00:00:00 | 01:54:38 | 00:00:00 | |
| DL1XH-15 | 2026-08-31 06:23:26 | 50.13164 | 8.83884 | 315° | 15km/h | 25872m | 4.5m/s | -50.9°C | 3.3% | 23.4hPa | 2.6V | 03:26:32 | 01:54:32 | 00:00:00 | |
| DL1XH-west | 2026-08-31 06:23:26 | 50.13189 | 8.83867 | 337° | 26km/h | 25896m | 6m/s | -50.8°C | 0.2% | 23.3hPa | 2.6V | 03:27:10 | 01:54:37 | 00:00:00 | |
| DJ2DS-15 | 2026-08-31 06:23:25 | 50.13183 | 8.83870 | 343° | 16km/h | 25892m | 4.4m/s | -50.7°C | 3.3% | 23.3hPa | 2.7V | 00:00:00 | 01:54:36 | 00:00:00 | |
| DM0DOS-11 | 2026-08-31 06:23:24 | 50.13161 | 8.83888 | 305° | 11km/h | 25866m | 6.2m/s | -50.9°C | 3.3% | 23.4hPa | 2.7V | 03:26:33 | 01:54:31 | 00:00:00 | |
| DF8AY | 2026-08-31 06:23:21 | 50.13164 | 8.83884 | 316° | 15km/h | 25872m | 4.5m/s | -50.9°C | 0.2% | 23.4hPa | 2.6V | 03:27:10 | 01:54:32 | 00:00:00 | |
| AA1-15 | 2026-08-31 06:23:20 | 50.13161 | 8.83888 | 305° | 11km/h | 25866m | 6.2m/s | -50.9°C | 0.2% | 23.4hPa | 2.7V | 03:27:10 | 01:54:31 | 00:00:00 | |
| HSKMA3-T | 2026-08-31 06:23:19 | 50.13160 | 8.83891 | 281° | 7km/h | 25860m | 5.9m/s | -51°C | 0.2% | 23.4hPa | 2.7V | 03:27:10 | 01:54:30 | 00:00:00 | |
| DJ2KF-10 | 2026-08-31 06:23:19 | 50.13160 | 8.83891 | 281° | 16km/h | 25860m | 5.9m/s | -50.9°C | 3.3% | 23.4hPa | 2.6V | 00:00:00 | 01:54:30 | 00:00:00 | |
| DO2KSM | 2026-08-31 06:23:18 | 50.13160 | 8.83891 | 281° | 7km/h | 25860m | 5.9m/s | -51.0°C | 0.8% | 23.4hPa | 2.6V | 03:27:00 | 00:00:00 | 00:00:00 | |
| DL1XH-15 | 2026-08-31 06:23:16 | 50.13152 | 8.83921 | 343° | 16km/h | 25818m | 4.4m/s | -50.9°C | 3.2% | 23.6hPa | 2.6V | 03:26:42 | 01:54:22 | 00:00:00 | |
| DL1XH-west | 2026-08-31 06:23:15 | 50.13162 | 8.83906 | 277° | 13km/h | 25839m | 4.4m/s | -51°C | 0.1% | 23.5hPa | 2.7V | 03:27:10 | 01:54:26 | 00:00:00 | |
| DM0DOS-11 | 2026-08-31 06:23:14 | 50.13148 | 8.83923 | 339° | 18km/h | 25814m | 4.4m/s | -51°C | 3.2% | 23.6hPa | 2.6V | 03:26:43 | 01:54:21 | 00:00:00 | |
| DF8AY | 2026-08-31 06:23:10 | 50.13148 | 8.83923 | 340° | 18km/h | 25814m | 4.4m/s | -51°C | 0.1% | 23.6hPa | 2.6V | 03:27:10 | 01:54:21 | 00:00:00 | |
| AA1-15 | 2026-08-31 06:23:09 | 50.13144 | 8.83926 | 332° | 20km/h | 25809m | 6.1m/s | -51°C | 0.2% | 23.6hPa | 2.7V | 03:27:10 | 01:54:20 | 00:00:00 | |
| BIOWL1-15 | 2026-08-31 06:23:08 | 50.13140 | 8.83931 | 319° | 20km/h | 25803m | 5.1m/s | -51°C | 0.2% | 23.7hPa | 2.7V | 03:27:10 | 01:54:19 | 00:00:00 | |
| DL3AQ-11 | 2026-08-31 06:23:07 | 50.13134 | 8.83942 | 300° | 15km/h | 25792m | 6.5m/s | -50.9°C | 0.8% | 23.7hPa | 2.6V | 00:00:00 | 00:00:00 | 00:00:00 | |
| DO3MHA-11 | 2026-08-31 06:23:06 | 50.13134 | 8.83942 | 301° | 15km/h | 25793m | 6.5m/s | -50.9°C | 3.3% | 23.6hPa | 2.6V | 03:26:00 | 01:54:17 | 00:00:00 | |
| DJ2DS-15 | 2026-08-31 06:23:05 | 50.13132 | 8.83946 | 285° | 20km/h | 25787m | 5.0m/s | -50.9°C | 3.3% | 23.7hPa | 2.6V | 00:00:00 | 01:54:16 | 00:00:00 | |
| DM0DOS-11 | 2026-08-31 06:23:04 | 50.13128 | 8.83974 | 304° | 16km/h | 25761m | 4.9m/s | -51.1°C | 3.3% | 23.8hPa | 2.6V | 03:26:53 | 01:54:11 | 00:00:00 | |
| DL1XH-west | 2026-08-31 06:23:04 | 50.13132 | 8.83951 | 274° | 13km/h | 25782m | 4.3m/s | -51°C | 0.1% | 23.7hPa | 2.6V | 03:27:10 | 01:54:15 | 00:00:00 | |
| DF8AY | 2026-08-31 06:23:00 | 50.13125 | 8.83978 | 315° | 16km/h | 25755m | 6.3m/s | -51.1°C | 0.2% | 23.8hPa | 2.6V | 03:27:10 | 01:54:10 | 00:00:00 | |
| DL1XH1-15 | 2026-08-31 06:22:59 | 50.13105 | 8.83999 | 320° | 24km/h | 25728m | 5m/s | -51.4°C | 3.3% | 23.9hPa | 2.6V | 03:26:59 | 01:54:05 | 00:00:00 | |
| AA1-15 | 2026-08-31 06:22:58 | 50.13122 | 8.83982 | 328° | 15km/h | 25749m | 5.3m/s | -51.1°C | 0.2% | 23.9hPa | 2.6V | 03:27:10 | 01:54:09 | 00:00:00 | |
| HSKMA3-T | 2026-08-31 06:22:57 | 50.13118 | 8.83985 | 334° | 16km/h | 25744m | 4.5m/s | -51.2°C | 0.2% | 23.9hPa | 2.7V | 03:27:10 | 01:54:08 | 00:00:00 | |
| DL1XH-west | 2026-08-31 06:22:54 | 50.13105 | 8.83999 | 320° | 24km/h | 25728m | 5m/s | -51.4°C | 0.2% | 23.9hPa | 2.6V | 03:27:10 | 01:54:05 | 00:00:00 | |
| DL8DAS-14 | 2026-08-31 06:22:53 | 50.13100 | 8.84005 | 316° | 24km/h | 25723m | 5.7m/s | -51.5°C | 0.8% | 23.9hPa | 2.6V | 00:00:00 | 00:00:00 | 00:00:00 | |
| DC4HF-4 | 2026-08-31 06:22:51 | 50.13089 | 8.84026 | 298° | 22km/h | 25707m | 4.7m/s | -51.6°C | 0.8% | 24.0hPa | 2.6V | 00:00:00 | 00:00:00 | 00:00:00 | |
| DD1CC8 | 2026-08-31 06:22:50 | 50.13087 | 8.84034 | 291° | 24km/h | 25702m | 6.6m/s | -51.7°C | 0% | 24.0hPa | 2.6V | 00:00:00 | 00:00:00 | 00:00:00 | |
| DL1XH1-15 | 2026-08-31 06:22:49 | 50.13080 | 8.84078 | 286° | 16km/h | 25674m | 4.1m/s | -51.7°C | 3.4% | 24.1hPa | 2.6V | 03:27:09 | 01:53:55 | 00:00:00 | |
| DF8AY | 2026-08-31 06:22:49 | 50.13087 | 8.84034 | 291° | 26km/h | 25701m | 6.6m/s | -51.7°C | 0.3% | 24hPa | 2.6V | 03:27:10 | 01:54:00 | 00:00:00 | |
| AA1-15 | 2026-08-31 06:22:48 | 50.13085 | 8.84044 | 285° | 27km/h | 25696m | 5.4m/s | -51.8°C | 0.3% | 24.1hPa | 2.6V | 03:27:10 | 01:53:59 | 00:00:00 | |
| BIOWL1-15 | 2026-08-31 06:22:46 | 50.13082 | 8.84063 | 281° | 24km/h | 25685m | 6.4m/s | -51.8°C | 0.3% | 24.1hPa | 2.7V | 03:27:10 | 01:53:57 | 00:00:00 | |
| DO3MHA-11 | 2026-08-31 06:22:46 | 50.13082 | 8.84063 | 281° | 18km/h | 25685m | 6.4m/s | -51.7°C | 3.4% | 24.0hPa | 2.7V | 00:00:00 | 01:53:57 | 00:00:00 | |
| DM7RM-13 | 2026-08-31 06:22:45 | 50.13082 | 8.84063 | 282° | 24km/h | 25685m | 6.4m/s | -51.8°C | 0.9% | 24.1hPa | 2.7V | 00:00:00 | 00:00:00 | 00:00:00 | |
| DM0DOS-11 | 2026-08-31 06:22:43 | 50.13073 | 8.84103 | 298° | 20km/h | 25653m | 4.7m/s | -51.8°C | 3.5% | 24.2hPa | 2.7V | 03:27:13 | 01:53:51 | 00:00:00 | |
| DL1XH-west | 2026-08-31 06:22:43 | 50.13079 | 8.84084 | 291° | 16km/h | 25669m | 5.4m/s | -51.8°C | 0.3% | 24.1hPa | 2.6V | 03:27:10 | 01:53:54 | 00:00:00 | |
| DL4BBY-15 | 2026-08-31 06:22:42 | 50.13077 | 8.84090 | 295° | 20km/h | 25664m | 5.8m/s | -52.4°C | 0% | 0hPa | 2.7V | 00:00:00 | 00:00:00 | 00:00:00 | |
| GOEST3-10 | 2026-08-31 06:22:41 | 50.13075 | 8.84096 | 297° | 20km/h | 25659m | 5.2m/s | -51.8°C | 3.5% | 24.1hPa | 2.7V | 03:27:00 | 00:00:00 | 00:00:00 | |
| DL3AQ-11 | 2026-08-31 06:22:40 | 50.13070 | 8.84110 | 301° | 18km/h | 25648m | 6.3m/s | -51.7°C | 0.9% | 24.2hPa | 2.7V | 00:00:00 | 00:00:00 | 00:00:00 | |
| DL1XH1-15 | 2026-08-31 06:22:39 | 50.13057 | 8.84148 | 294° | 29km/h | 25621m | 4.5m/s | -51.7°C | 3.5% | 24.3hPa | 2.7V | 03:27:19 | 01:53:45 | 00:00:00 | |
| DF8AY | 2026-08-31 06:22:38 | 50.13068 | 8.84116 | 304° | 18km/h | 25642m | 5.3m/s | -51.7°C | 0.3% | 24.2hPa | 2.6V | 03:28:01 | 01:53:49 | 00:00:00 | |
| AA1-15 | 2026-08-31 06:22:37 | 50.13065 | 8.84122 | 302° | 20km/h | 25637m | 4.4m/s | -51.8°C | 0.2% | 24.2hPa | 2.6V | 03:28:01 | 01:53:48 | 00:00:00 | |
| HSKMA3-T | 2026-08-31 06:22:36 | 50.13062 | 8.84130 | 298° | 24km/h | 25632m | 6.2m/s | -51.8°C | 0.3% | 24.3hPa | 2.7V | 03:28:01 | 01:53:47 | 00:00:00 | |
| BIOWL1-15 | 2026-08-31 06:22:35 | 50.13059 | 8.84139 | 295° | 27km/h | 25626m | 5.5m/s | -51.7°C | 0.3% | 24.3hPa | 2.7V | 03:28:01 | 01:53:46 | 00:00:00 | |
| DL1XH-west | 2026-08-31 06:22:33 | 50.13054 | 8.84158 | 295° | 27km/h | 25616m | 5.5m/s | -51.8°C | 0.4% | 24.4hPa | 2.6V | 03:28:01 | 01:53:44 | 00:00:00 | |
| DF8AY | 2026-08-31 06:22:29 | 50.13040 | 8.84196 | 300° | 22km/h | 25587m | 4.9m/s | -51.8°C | 0.3% | 24.5hPa | 2.7V | 03:28:01 | 01:53:39 | 00:00:00 | |
| DL1XH1-15 | 2026-08-31 06:22:29 | 50.13028 | 8.84218 | 323° | 18km/h | 25567m | 4.7m/s | -51.7°C | 3.5% | 24.6hPa | 2.7V | 03:27:29 | 01:53:35 | 00:00:00 | |
| AA1-15 | 2026-08-31 06:22:27 | 50.13038 | 8.84203 | 305° | 20km/h | 25583m | 3.9m/s | -51.8°C | 0.4% | 24.5hPa | 2.6V | 03:28:01 | 01:53:38 | 00:00:00 | |
| BUE01 | 2026-08-31 06:22:27 | 50.13038 | 8.84203 | 304° | 18km/h | 25583m | 3.9m/s | -51.8°C | 0.9% | 24.5hPa | 2.6V | 00:00:00 | 00:00:00 | 00:00:00 | |
| DL1XH-15 | 2026-08-31 06:22:26 | 50.13018 | 8.84235 | 301° | 22km/h | 25551m | 4.3m/s | -51.6°C | 3.5% | 24.6hPa | 2.6V | 03:27:32 | 01:53:32 | 00:00:00 | |
| HSKMA3-T | 2026-08-31 06:22:26 | 50.13035 | 8.84209 | 311° | 18km/h | 25578m | 6.2m/s | -51.8°C | 0.3% | 24.5hPa | 2.6V | 03:28:01 | 01:53:37 | 00:00:00 | |
| BIOWL1-15 | 2026-08-31 06:22:24 | 50.13028 | 8.84218 | 324° | 18km/h | 25567m | 4.7m/s | -51.7°C | 0.3% | 24.6hPa | 2.7V | 03:28:01 | 01:53:35 | 00:00:00 | |
| DL1XH-west | 2026-08-31 06:22:23 | 50.13025 | 8.84222 | 318° | 18km/h | 25561m | 6m/s | -51.8°C | 0.3% | 24.6hPa | 2.7V | 03:28:01 | 01:53:34 | 00:00:00 | |
| DL8DAS-14 | 2026-08-31 06:22:22 | 50.13021 | 8.84228 | 309° | 20km/h | 25556m | 5.3m/s | -51.8°C | 0.8% | 24.6hPa | 2.7V | 00:00:00 | 00:00:00 | 00:00:00 | |
| GOEST3-10 | 2026-08-31 06:22:20 | 50.13015 | 8.84242 | 295° | 18km/h | 25547m | 4.9m/s | 0°C | 0% | 0hPa | 2.7V | 03:27:00 | 00:00:00 | 00:00:00 | |
| DL1XH1-15 | 2026-08-31 06:22:19 | 50.13013 | 8.84286 | 273° | 22km/h | 25513m | 4.8m/s | -51.8°C | 3.5% | 24.7hPa | 2.7V | 03:27:39 | 01:53:25 | 00:00:00 | |
| DF8AY | 2026-08-31 06:22:17 | 50.13012 | 8.84263 | 267° | 16km/h | 25530m | 5m/s | -51.7°C | 0.3% | 24.7hPa | 2.7V | 03:28:01 | 01:53:28 | 00:00:00 | |
| DO9LL-15 | 2026-08-31 06:22:17 | 50.13012 | 8.84263 | 267° | 20km/h | 25530m | 4.9m/s | -51.6°C | 3.5% | 24.6hPa | 2.7V | 00:00:00 | 01:53:28 | 00:00:00 | |
| DL1XH-15 | 2026-08-31 06:22:16 | 50.13009 | 8.84307 | 308° | 18km/h | 25497m | 4.5m/s | -51.7°C | 3.5% | 24.8hPa | 2.6V | 03:27:42 | 01:53:22 | 00:00:00 | |
| AA1-15 | 2026-08-31 06:22:16 | 50.13013 | 8.84270 | 263° | 18km/h | 25525m | 5.9m/s | -51.7°C | 0.3% | 24.7hPa | 2.6V | 03:28:01 | 01:53:27 | 00:00:00 | |
| DO3MHA-11 | 2026-08-31 06:22:16 | 50.13013 | 8.84270 | 264° | 22km/h | 25525m | 5.8m/s | -51.6°C | 3.5% | 24.6hPa | 2.7V | 00:00:00 | 01:53:27 | 00:00:00 | |
| DM0DOS-11 | 2026-08-31 06:22:15 | 50.13006 | 8.84312 | 314° | 20km/h | 25492m | 5.2m/s | -51.7°C | 3.5% | 24.8hPa | 2.7V | 03:27:43 | 01:53:21 | 00:00:00 | |
| HSKMA3-T | 2026-08-31 06:22:15 | 50.13013 | 8.84278 | 266° | 22km/h | 25518m | 5.7m/s | -51.7°C | 0.3% | 24.7hPa | 2.6V | 03:28:01 | 01:53:26 | 00:00:00 | |
| BIOWL1-15 | 2026-08-31 06:22:13 | 50.13013 | 8.84294 | 281° | 20km/h | 25508m | 5.8m/s | -51.7°C | 0.3% | 24.8hPa | 2.7V | 03:28:01 | 01:53:24 | 00:00:00 | |
| DL1XH-west | 2026-08-31 06:22:12 | 50.13011 | 8.84301 | 293° | 16km/h | 25502m | 5.8m/s | -51.7°C | 0.3% | 24.8hPa | 2.6V | 03:28:01 | 01:53:23 | 00:00:00 | |
| CB1BUN | 2026-08-31 06:22:10 | 50.13009 | 8.84306 | 309° | 18km/h | 25497m | 4.5m/s | -51.7°C | 0.8% | 24.8hPa | 2.7V | 00:00:00 | 00:00:00 | 00:00:00 | |
| DL1XH1-15 | 2026-08-31 06:22:09 | 50.12980 | 8.84356 | 306° | 22km/h | 25460m | 4.2m/s | -51.7°C | 3.5% | 25hPa | 2.7V | 03:27:49 | 01:53:15 | 00:00:00 | |
| DF8AY | 2026-08-31 06:22:07 | 50.12992 | 8.84334 | 312° | 29km/h | 25475m | 4.7m/s | -51.8°C | 0.3% | 24.9hPa | 2.6V | 03:28:01 | 01:53:18 | 00:00:00 | |
| EDDB2-12 | 2026-08-31 06:22:07 | 50.12988 | 8.84342 | 311° | 26km/h | 25471m | 5.1m/s | -51.7°C | 0.8% | 24.9hPa | 2.6V | 00:00:00 | 00:00:00 | 00:00:00 | |
| DO3MHA-11 | 2026-08-31 06:22:06 | 50.12988 | 8.84342 | 312° | 22km/h | 25471m | 5.1m/s | -51.7°C | 3.5% | 24.8hPa | 2.6V | 00:00:00 | 01:53:17 | 00:00:00 | |
| DM0DOS-11 | 2026-08-31 06:22:05 | 50.12971 | 8.84389 | 284° | 26km/h | 25440m | 4.1m/s | -51.6°C | 3.4% | 25hPa | 2.6V | 03:27:53 | 01:53:11 | 00:00:00 | |
| AA1-15 | 2026-08-31 06:22:05 | 50.12983 | 8.84350 | 312° | 24km/h | 25465m | 5.5m/s | -51.7°C | 0.3% | 24.9hPa | 2.7V | 03:28:01 | 01:53:16 | 00:00:00 | |
| HSKMA3-T | 2026-08-31 06:22:04 | 50.12980 | 8.84356 | 307° | 22km/h | 25460m | 4.2m/s | -51.7°C | 0.3% | 25hPa | 2.7V | 03:28:01 | 01:53:15 | 00:00:00 | |
| DL1XH-west | 2026-08-31 06:22:02 | 50.12974 | 8.84371 | 294° | 22km/h | 25451m | 6.3m/s | -51.7°C | 0.3% | 25hPa | 2.6V | 03:28:01 | 01:53:13 | 00:00:00 | |
| DB0NH | 2026-08-31 06:22:02 | 50.12974 | 8.84371 | 294° | 15km/h | 25451m | 6.3m/s | -51.6°C | 3.4% | 24.9hPa | 2.6V | 00:00:00 | 01:53:13 | 00:00:00 | |
| GOEST3-10 | 2026-08-31 06:22:01 | 50.12972 | 8.84380 | 288° | 22km/h | 25445m | 5.4m/s | 0°C | 0% | 0hPa | 2.6V | 00:00:00 | 00:00:00 | 00:00:00 | |
| DL0LBS | 2026-08-31 06:22:00 | 50.12972 | 8.84380 | 288° | 26km/h | 25445m | 5.4m/s | -51.7°C | 0.9% | 25.0hPa | 2.6V | 03:28:00 | 00:00:00 | 00:00:00 | |
| DL1XH1-15 | 2026-08-31 06:21:59 | 50.12959 | 8.84430 | 311° | 18km/h | 25408m | 5.5m/s | -51.5°C | 3.4% | 25.2hPa | 2.6V | 03:27:59 | 01:53:05 | 00:00:00 | |
| DF8AY | 2026-08-31 06:21:57 | 50.12966 | 8.84414 | 293° | 16km/h | 25424m | 5.7m/s | -51.6°C | 0.3% | 25.1hPa | 2.7V | 03:28:01 | 01:53:08 | 00:00:00 | |
| DL1XH-15 | 2026-08-31 06:21:56 | 50.12947 | 8.84445 | 327° | 20km/h | 25391m | 5.6m/s | -51.5°C | 3.4% | 25.2hPa | 2.7V | 03:28:02 | 01:53:02 | 00:00:00 | |
| BIOWL1-15 | 2026-08-31 06:21:54 | 50.12951 | 8.84440 | 322° | 22km/h | 25397m | 6.2m/s | -51.6°C | 0.2% | 25.2hPa | 2.7V | 03:28:01 | 01:53:03 | 00:00:00 | |
| HSKMA3-T | 2026-08-31 06:21:54 | 50.12959 | 8.84430 | 311° | 18km/h | 25408m | 5.5m/s | -51.5°C | 0.3% | 25.2hPa | 2.6V | 03:28:01 | 01:53:05 | 00:00:00 | |
| DL1XH-west | 2026-08-31 06:21:51 | 50.12947 | 8.84445 | 327° | 20km/h | 25392m | 5.6m/s | -51.5°C | 0.3% | 25.2hPa | 2.7V | 03:28:52 | 01:53:02 | 00:00:00 | |
| DD1CC8 | 2026-08-31 06:21:48 | 50.12932 | 8.84469 | 295° | 20km/h | 25371m | 4.6m/s | -51.6°C | 0.8% | 25.3hPa | 2.6V | 00:00:00 | 00:00:00 | 00:00:00 | |
| DL3AQ-11 | 2026-08-31 06:21:47 | 50.12930 | 8.84476 | 290° | 18km/h | 25366m | 5.1m/s | -51.5°C | 0.8% | 25.3hPa | 2.6V | 00:00:00 | 00:00:00 | 00:00:00 | |
| DL1XH-15 | 2026-08-31 06:21:46 | 50.12927 | 8.84499 | 278° | 13km/h | 25338m | 5.3m/s | -51.6°C | 3.5% | 25.4hPa | 2.6V | 03:28:12 | 01:52:52 | 00:00:00 | |
| DF8AY | 2026-08-31 06:21:46 | 50.12930 | 8.84476 | 291° | 18km/h | 25366m | 5.1m/s | -51.5°C | 0.3% | 25.3hPa | 2.7V | 03:28:52 | 01:52:57 | 00:00:00 | |
| HSKMA3-T | 2026-08-31 06:21:44 | 50.12928 | 8.84487 | 283° | 11km/h | 25354m | 5.6m/s | -51.6°C | 0.3% | 25.4hPa | 2.6V | 03:28:52 | 01:52:55 | 00:00:00 | |
| AA1-15 | 2026-08-31 06:21:43 | 50.12928 | 8.84491 | 283° | 9km/h | 25349m | 5.2m/s | -51.6°C | 0.3% | 25.4hPa | 2.7V | 03:28:52 | 01:52:54 | 00:00:00 | |
| BIOWL1-15 | 2026-08-31 06:21:42 | 50.12927 | 8.84494 | 278° | 11km/h | 25344m | 6.2m/s | -51.7°C | 0.3% | 25.4hPa | 2.7V | 03:28:52 | 01:52:53 | 00:00:00 | |
| DL1XH-west | 2026-08-31 06:21:40 | 50.12926 | 8.84503 | 280° | 11km/h | 25333m | 4.7m/s | -51.6°C | 0.3% | 25.4hPa | 2.6V | 03:28:52 | 01:52:51 | 00:00:00 | |
| GOEST3-10 | 2026-08-31 06:21:40 | 50.12926 | 8.84503 | 280° | 11km/h | 25333m | 4.7m/s | 0°C | 0% | 0hPa | 2.7V | 00:00:00 | 01:52:51 | 00:00:00 | |
| DL1XH1-15 | 2026-08-31 06:21:39 | 50.12922 | 8.84528 | 285° | 15km/h | 25299m | 4.2m/s | -51.5°C | 3.4% | 25.6hPa | 2.7V | 03:28:19 | 01:52:45 | 00:00:00 | |
| DC4HF-4 | 2026-08-31 06:21:39 | 50.12926 | 8.84511 | 280° | 7km/h | 25321m | 5.8m/s | -51.6°C | 0.9% | 25.5hPa | 2.6V | 00:00:00 | 00:00:00 | 00:00:00 | |
| SONCRA | 2026-08-31 06:21:38 | 50.12926 | 8.84511 | 280° | 7km/h | 25321m | 5.8m/s | -51.6°C | 0.9% | 25.5hPa | 2.6V | 00:00:00 | 00:00:00 | 00:00:00 | |
| DL1XH-15 | 2026-08-31 06:21:36 | 50.12922 | 8.84543 | 252° | 11km/h | 25283m | 5.5m/s | -51.5°C | 3.4% | 25.6hPa | 2.6V | 03:28:22 | 01:52:42 | 00:00:00 | |
| DL3AQ-11 | 2026-08-31 06:21:36 | 50.12923 | 8.84523 | 287° | 13km/h | 25304m | 5.2m/s | -51.6°C | 0.8% | 25.6hPa | 2.6V | 00:00:00 | 00:00:00 | 00:00:00 | |
| GOEST3-10 | 2026-08-31 06:21:35 | 50.12923 | 8.84523 | 288° | 13km/h | 25304m | 5.1m/s | 0°C | 0% | 0hPa | 2.6V | 00:00:00 | 00:00:00 | 00:00:00 | |
| DM0DOS-11 | 2026-08-31 06:21:34 | 50.12924 | 8.84551 | 245° | 13km/h | 25272m | 6.1m/s | -51.5°C | 3.4% | 25.7hPa | 2.6V | 03:28:24 | 01:52:40 | 00:00:00 | |
| DF8AY | 2026-08-31 06:21:34 | 50.12922 | 8.84528 | 286° | 15km/h | 25299m | 4.2m/s | -51.5°C | 0.3% | 0hPa | 2.7V | 03:28:52 | 01:52:45 | 00:00:00 | |
| AA1-15 | 2026-08-31 06:21:33 | 50.12922 | 8.84534 | 279° | 15km/h | 25294m | 5.4m/s | -51.5°C | 0.3% | 25.6hPa | 2.7V | 03:28:52 | 01:52:44 | 00:00:00 | |
| BIOWL1-15 | 2026-08-31 06:21:31 | 50.12922 | 8.84543 | 253° | 11km/h | 25283m | 5.5m/s | -51.5°C | 0.3% | 25.6hPa | 2.6V | 03:28:52 | 01:52:42 | 00:00:00 | |
| NBG1-10 | 2026-08-31 06:21:30 | 50.12923 | 8.84547 | 244° | 7km/h | 25278m | 5.4m/s | -51.5°C | 3.4% | 25.6hPa | 2.6V | 00:00:00 | 01:52:41 | 00:00:00 | |
| DL1XH1-15 | 2026-08-31 06:21:29 | 50.12926 | 8.84563 | 328° | 4km/h | 25245m | 5.2m/s | -51.5°C | 3.4% | 25.8hPa | 2.6V | 03:28:29 | 01:52:35 | 00:00:00 | |
| DL1XH-west | 2026-08-31 06:21:29 | 50.12924 | 8.84551 | 245° | 13km/h | 25272m | 6.1m/s | -51.5°C | 0.3% | 25.7hPa | 2.6V | 03:28:52 | 01:52:40 | 00:00:00 | |
| GOEST3-10 | 2026-08-31 06:21:28 | 50.12925 | 8.84555 | 250° | 9km/h | 25267m | 4.4m/s | 0°C | 0% | 0hPa | 2.7V | 00:00:00 | 01:52:39 | 00:00:00 | |
| DL8DAS-15 | 2026-08-31 06:21:27 | 50.12925 | 8.84555 | 251° | 11km/h | 25267m | 4.4m/s | -51.5°C | 0.9% | 25.7hPa | 2.7V | 00:00:00 | 00:00:00 | 00:00:00 | |
| DL1XH-15 | 2026-08-31 06:21:26 | 50.12924 | 8.84569 | 295° | 9km/h | 25229m | 4.2m/s | -51.5°C | 3.4% | 25.9hPa | 2.7V | 03:28:32 | 01:52:32 | 00:00:00 | |
| DO3MHA-11 | 2026-08-31 06:21:26 | 50.12927 | 8.84561 | 252° | 5km/h | 25256m | 6.3m/s | -51.5°C | 3.4% | 25.7hPa | 2.6V | 00:00:00 | 01:52:37 | 00:00:00 | |
| BUE01 | 2026-08-31 06:21:25 | 50.12926 | 8.84563 | 328° | 2km/h | 25245m | 5.2m/s | -51.6°C | 0.8% | 25.8hPa | 2.6V | 00:00:00 | 00:00:00 | 00:00:00 | |
| DM0DOS-11 | 2026-08-31 06:21:24 | 50.12922 | 8.84575 | 306° | 7km/h | 25218m | 5.8m/s | -51.5°C | 3.4% | 25.9hPa | 2.6V | 03:28:34 | 01:52:30 | 00:00:00 | |
| DF8AY | 2026-08-31 06:21:24 | 50.12926 | 8.84563 | 329° | 4km/h | 25245m | 5.2m/s | -51.6°C | 0.3% | 0hPa | 2.6V | 03:28:52 | 01:52:35 | 00:00:00 | |
| HSKMA3-T | 2026-08-31 06:21:23 | 50.12926 | 8.84564 | 309° | 5km/h | 25239m | 6.3m/s | -51.6°C | 0.3% | 25.8hPa | 2.6V | 03:28:52 | 01:52:34 | 00:00:00 | |
| BIOWL1-15 | 2026-08-31 06:21:23 | 50.12924 | 8.84569 | 296° | 9km/h | 25229m | 4.2m/s | -51.5°C | 0.3% | 25.9hPa | 2.7V | 03:28:52 | 01:52:32 | 00:00:00 | |
| AA1-15 | 2026-08-31 06:21:22 | 50.12925 | 8.84566 | 298° | 7km/h | 25233m | 5m/s | -51.5°C | 0.3% | 25.8hPa | 2.7V | 03:28:52 | 01:52:33 | 00:00:00 | |
| DL3AQ-11 | 2026-08-31 06:21:20 | 50.12922 | 8.84574 | 306° | 5km/h | 25218m | 5.8m/s | -51.5°C | 0.8% | 25.9hPa | 2.6V | 00:00:00 | 00:00:00 | 00:00:00 | |
| DL1XH1-15 | 2026-08-31 06:21:19 | 50.12922 | 8.84590 | 241° | 9km/h | 25192m | 4.9m/s | -51.6°C | 3.5% | 26hPa | 2.6V | 03:28:39 | 01:52:25 | 00:00:00 | |
| DL1XH-west | 2026-08-31 06:21:18 | 50.12921 | 8.84577 | 297° | 7km/h | 25212m | 4.8m/s | -51.6°C | 0.3% | 25.9hPa | 2.6V | 03:28:52 | 01:52:29 | 00:00:00 | |
| DD1CC8 | 2026-08-31 06:21:17 | 50.12920 | 8.84583 | 264° | 9km/h | 25202m | 6.1m/s | -51.6°C | 0.8% | 26.0hPa | 2.7V | 00:00:00 | 00:00:00 | 00:00:00 | |
| DL1XH-15 | 2026-08-31 06:21:16 | 50.12924 | 8.84594 | 197° | 2km/h | 25176m | 4.2m/s | -51.5°C | 3.5% | 26.1hPa | 2.7V | 03:28:42 | 01:52:22 | 00:00:00 | |
| DF8AY | 2026-08-31 06:21:13 | 50.12923 | 8.84592 | 233° | 5km/h | 25187m | 5.8m/s | -51.6°C | 0.3% | 0hPa | 2.6V | 03:28:52 | 01:52:24 | 00:00:00 | |
| HSKMA3-T | 2026-08-31 06:21:12 | 50.12924 | 8.84594 | 212° | 4km/h | 25181m | 4.9m/s | -51.6°C | 0.3% | 26hPa | 2.7V | 03:28:52 | 01:52:23 | 00:00:00 | |
| BIOWL1-15 | 2026-08-31 06:21:10 | 50.12925 | 8.84594 | 208° | 4km/h | 25172m | 5.5m/s | -51.6°C | 0.3% | 26.1hPa | 2.6V | 03:28:52 | 01:52:21 | 00:00:00 | |
| GOEST3-10 | 2026-08-31 06:21:10 | 50.12925 | 8.84594 | 208° | 11km/h | 25172m | 5.5m/s | 0°C | 0% | 0hPa | 2.6V | 00:00:00 | 00:00:00 | 00:00:00 | |
| DL1XH1-15 | 2026-08-31 06:21:09 | 50.12932 | 8.84597 | 202° | 4km/h | 25140m | 5.6m/s | -51.4°C | 3.4% | 26.2hPa | 2.6V | 03:28:49 | 01:52:15 | 00:00:00 | |
| DL1XH-west | 2026-08-31 06:21:08 | 50.12927 | 8.84596 | 205° | 5km/h | 25161m | 4.7m/s | -51.5°C | 0.3% | 26.1hPa | 2.7V | 03:28:52 | 01:52:19 | 00:00:00 | |
| DL3AQ-11 | 2026-08-31 06:21:07 | 50.12929 | 8.84597 | 170° | 4km/h | 25151m | 6.0m/s | -51.5°C | 0.8% | 26.2hPa | 2.7V | 00:00:00 | 00:00:00 | 00:00:00 | |
| DL1XH-15 | 2026-08-31 06:21:06 | 50.12933 | 8.84604 | 294° | 7km/h | 25124m | 4.9m/s | -51.4°C | 3.4% | 26.3hPa | 2.7V | 03:28:52 | 01:52:12 | 00:00:00 | |
| HSKMA3-T | 2026-08-31 06:21:02 | 50.12933 | 8.84601 | 269° | 7km/h | 25129m | 4.9m/s | -51.5°C | 0.3% | 26.3hPa | 2.7V | 03:28:52 | 01:52:13 | 00:00:00 | |
| AA1-15 | 2026-08-31 06:21:01 | 50.12933 | 8.84604 | 295° | 7km/h | 25124m | 4.9m/s | -51.4°C | 0.3% | 26.3hPa | 2.7V | 03:28:52 | 01:52:12 | 00:00:00 | |
| BIOWL1-15 | 2026-08-31 06:21:00 | 50.12932 | 8.84606 | 326° | 7km/h | 25118m | 6.3m/s | -51.5°C | 0.3% | 26.3hPa | 2.6V | 03:29:43 | 01:52:11 | 00:00:00 | |
| DL1XH-west | 2026-08-31 06:20:57 | 50.12925 | 8.84607 | 6° | 9km/h | 25102m | 5.7m/s | -51.4°C | 0.3% | 26.4hPa | 2.7V | 03:29:43 | 01:52:08 | 00:00:00 | |
| HSKMA3-T | 2026-08-31 06:20:52 | 50.12924 | 8.84592 | 112° | 15km/h | 25076m | 4.6m/s | -51.5°C | 0.3% | 26.5hPa | 2.6V | 03:29:43 | 01:52:03 | 00:00:00 | |
| BIOWL1-15 | 2026-08-31 06:20:50 | 50.12927 | 8.84584 | 138° | 7km/h | 25065m | 5.5m/s | -51.4°C | 0.3% | 26.5hPa | 2.7V | 03:29:43 | 01:52:01 | 00:00:00 | |
| DF8AY | 2026-08-31 06:20:48 | 50.12929 | 8.84582 | 27° | 2km/h | 25054m | 5.3m/s | 0°C | 0% | 0hPa | 2.6V | 03:29:43 | 01:51:59 | 00:00:00 | |
| DL1XH-west | 2026-08-31 06:20:47 | 50.12928 | 8.84582 | 18° | 5km/h | 25048m | 6.1m/s | -51.3°C | 0.3% | 26.6hPa | 2.6V | 03:29:43 | 01:51:58 | 00:00:00 | |
| DD1CC8 | 2026-08-31 06:20:46 | 50.12924 | 8.84580 | 7° | 9km/h | 25038m | 5.1m/s | -51.3°C | 0.8% | 26.6hPa | 2.6V | 00:00:00 | 00:00:00 | 00:00:00 | |
| DJ2DS-15 | 2026-08-31 06:20:44 | 50.12921 | 8.84580 | 3° | 11km/h | 25033m | 6.0m/s | -51.2°C | 3.4% | 26.6hPa | 2.6V | 00:00:00 | 01:51:55 | 00:00:00 | |
| DB0UT-9 | 2026-08-31 06:20:43 | 50.12921 | 8.84580 | 3° | 9km/h | 25033m | 6.1m/s | -51.3°C | 0.9% | 26.6hPa | 2.6V | 03:29:00 | 00:00:00 | 00:00:00 | |
| DM0DOS-11 | 2026-08-31 06:20:42 | 50.12912 | 8.84557 | 95° | 9km/h | 24995m | 5.6m/s | -51.3°C | 3.5% | 26.8hPa | 2.6V | 03:29:16 | 01:51:48 | 00:00:00 | |
| HSKMA3-T | 2026-08-31 06:20:42 | 50.12917 | 8.84579 | 29° | 9km/h | 25023m | 4.6m/s | -51.2°C | 0.2% | 26.7hPa | 2.6V | 03:29:43 | 01:51:53 | 00:00:00 | |
| DL8OAI-8 | 2026-08-31 06:20:41 | 50.12917 | 8.84579 | 30° | 9km/h | 25023m | 4.6m/s | -51.2°C | 0.9% | 26.7hPa | 2.7V | 00:00:00 | 00:00:00 | 00:00:00 | |
| DL3AQ-11 | 2026-08-31 06:20:40 | 50.12913 | 8.84567 | 77° | 13km/h | 25006m | 4.7m/s | -51.3°C | 0.8% | 26.8hPa | 2.7V | 00:00:00 | 00:00:00 | 00:00:00 | |
| DL1XH1-15 | 2026-08-31 06:20:39 | 50.12912 | 8.84552 | 30° | 5km/h | 24981m | 5.6m/s | -51.2°C | 3.4% | 26.9hPa | 2.7V | 03:29:19 | 01:51:45 | 00:00:00 | |
| AA1-15 | 2026-08-31 06:20:39 | 50.12913 | 8.84567 | 78° | 15km/h | 25006m | 4.7m/s | -51.3°C | 0.2% | 26.8hPa | 2.6V | 03:29:43 | 01:51:50 | 00:00:00 | |
| DF8AY | 2026-08-31 06:20:37 | 50.12912 | 8.84557 | 95° | 9km/h | 24995m | 5.6m/s | 0°C | 0% | 0hPa | 2.6V | 03:29:43 | 01:51:48 | 00:00:00 | |
| DL1XH-west | 2026-08-31 06:20:36 | 50.12912 | 8.84555 | 95° | 5km/h | 24990m | 4.3m/s | -51.2°C | 0.2% | 26.8hPa | 2.7V | 03:29:43 | 01:51:47 | 00:00:00 | |
| SONCRA | 2026-08-31 06:20:36 | 50.12912 | 8.84555 | 94° | 4km/h | 24991m | 4.3m/s | -51.2°C | 0.8% | 26.8hPa | 2.6V | 00:00:00 | 00:00:00 | 00:00:00 | |
| DO2KSM | 2026-08-31 06:20:34 | 50.12912 | 8.84553 | 61° | 4km/h | 24986m | 4.3m/s | -51.2°C | 0.8% | 26.8hPa | 2.6V | 03:29:00 | 00:00:00 | 00:00:00 | |
| BIOWL9-15 | 2026-08-31 06:20:33 | 50.12907 | 8.84549 | 22° | 11km/h | 24970m | 5.3m/s | -51.3°C | 0.8% | 26.9hPa | 2.6V | 00:00:00 | 00:00:00 | 00:00:00 | |
| DM0DOS-11 | 2026-08-31 06:20:32 | 50.12893 | 8.84542 | 28° | 13km/h | 24943m | 6.3m/s | -50.9°C | 3.2% | 27hPa | 2.6V | 03:29:26 | 01:51:38 | 00:00:00 | |
| HSKMA3-T | 2026-08-31 06:20:32 | 50.12907 | 8.84549 | 22° | 13km/h | 24970m | 5.3m/s | -51.3°C | 0.3% | 26.9hPa | 2.6V | 03:29:43 | 01:51:43 | 00:00:00 | |
| DJ2DS-15 | 2026-08-31 06:20:32 | 50.12904 | 8.84547 | 17° | 13km/h | 24965m | 4.9m/s | -51.2°C | 0.8% | 26.9hPa | 2.7V | 00:00:00 | 00:00:00 | 00:00:00 | |
| DL9PN | 2026-08-31 06:20:31 | 50.12895 | 8.84544 | 17° | 11km/h | 24949m | 4.5m/s | -50.9°C | 0.8% | 27.0hPa | 2.7V | 00:00:00 | 00:00:00 | 00:00:00 | |
| DL1XH1-15 | 2026-08-31 06:20:29 | 50.12884 | 8.84533 | 30° | 11km/h | 24926m | 6.3m/s | -50.9°C | 3.3% | 27.1hPa | 2.7V | 03:29:29 | 01:51:35 | 00:00:00 | |
| BIOWL1-15 | 2026-08-31 06:20:29 | 50.12898 | 8.84545 | 9° | 11km/h | 24953m | 5m/s | -51°C | 0.2% | 27hPa | 2.7V | 03:29:43 | 01:51:40 | 00:00:00 | |
| AA1-15 | 2026-08-31 06:20:28 | 50.12895 | 8.84544 | 17° | 11km/h | 24948m | 4.5m/s | -50.9°C | 0.2% | 27hPa | 2.7V | 03:29:43 | 01:51:39 | 00:00:00 | |
| DF8AY | 2026-08-31 06:20:27 | 50.12893 | 8.84542 | 29° | 13km/h | 24943m | 6.4m/s | 0°C | 0% | 0hPa | 2.6V | 03:29:43 | 01:51:38 | 00:00:00 | |
| DL1XH-west | 2026-08-31 06:20:26 | 50.12889 | 8.84539 | 35° | 15km/h | 24937m | 5.5m/s | -50.9°C | 0.1% | 27.1hPa | 2.6V | 03:29:43 | 01:51:37 | 00:00:00 | |
| DO3MHA-11 | 2026-08-31 06:20:26 | 50.12889 | 8.84539 | 35° | 11km/h | 24938m | 5.5m/s | -50.8°C | 3.2% | 27.0hPa | 2.7V | 03:29:00 | 01:51:37 | 00:00:00 | |
| DO3DL | 2026-08-31 06:20:25 | 50.12889 | 8.84539 | 36° | 15km/h | 24938m | 5.5m/s | -50.9°C | 0.8% | 27.1hPa | 2.7V | 03:29:00 | 00:00:00 | 00:00:00 | |
| DJ2DS-15 | 2026-08-31 06:20:24 | 50.12884 | 8.84533 | 31° | 13km/h | 24927m | 6.3m/s | -50.8°C | 3.3% | 27.0hPa | 2.7V | 00:00:00 | 01:51:35 | 00:00:00 | |
| DB0UT-9 | 2026-08-31 06:20:23 | 50.12884 | 8.84533 | 31° | 11km/h | 24927m | 6.3m/s | -50.9°C | 0.8% | 27.1hPa | 2.7V | 03:29:00 | 00:00:00 | 00:00:00 | |
| DM0DOS-11 | 2026-08-31 06:20:22 | 50.12867 | 8.84528 | 351° | 13km/h | 24888m | 4.8m/s | -51°C | 3.3% | 27.3hPa | 2.7V | 03:29:36 | 01:51:28 | 00:00:00 | |
| HSKMA3-T | 2026-08-31 06:20:21 | 50.12877 | 8.84529 | 19° | 9km/h | 24910m | 6.3m/s | -50.8°C | 0.2% | 27.2hPa | 2.6V | 03:29:43 | 01:51:32 | 00:00:00 | |
| EDDB2-11 | 2026-08-31 06:20:21 | 50.12877 | 8.84529 | 18° | 9km/h | 24910m | 6.3m/s | -50.8°C | 0.8% | 27.2hPa | 2.7V | 00:00:00 | 00:00:00 | 00:00:00 | |
| DH7VM-15 | 2026-08-31 06:20:20 | 50.12877 | 8.84529 | 20° | 9km/h | 24910m | 6.3m/s | -50.8°C | 0.8% | 27.2hPa | 2.7V | 00:00:00 | 00:00:00 | 00:00:00 | |
| DL1XH1-15 | 2026-08-31 06:20:19 | 50.12855 | 8.84525 | 23° | 20km/h | 24871m | 4.9m/s | -51.1°C | 3.3% | 27.3hPa | 2.7V | 03:29:39 | 01:51:25 | 00:00:00 | |
| BIOWL1-15 | 2026-08-31 06:20:18 | 50.12869 | 8.84527 | 349° | 11km/h | 24893m | 5.9m/s | -50.9°C | 0.3% | 27.3hPa | 2.7V | 03:29:43 | 01:51:29 | 00:00:00 | |
| AA1-15 | 2026-08-31 06:20:17 | 50.12867 | 8.84528 | 352° | 13km/h | 24888m | 4.8m/s | -51°C | 0.2% | 27.3hPa | 2.7V | 03:29:43 | 01:51:28 | 00:00:00 | |
| DL1XH-15 | 2026-08-31 06:20:16 | 50.12842 | 8.84515 | 25° | 16km/h | 24855m | 4.7m/s | -51.1°C | 3.3% | 27.4hPa | 2.6V | 03:29:42 | 01:51:22 | 00:00:00 | |
| DL1XH-west | 2026-08-31 06:20:16 | 50.12863 | 8.84528 | 4° | 15km/h | 24883m | 5.6m/s | -51°C | 0.2% | 27.3hPa | 2.6V | 03:29:43 | 01:51:27 | 00:00:00 | |
| DO2KSM | 2026-08-31 06:20:14 | 50.12859 | 8.84527 | 18° | 16km/h | 24877m | 5.9m/s | -51.1°C | 0.8% | 27.3hPa | 2.7V | 03:29:00 | 00:00:00 | 00:00:00 | |
| DM0DOS-11 | 2026-08-31 06:20:12 | 50.12830 | 8.84502 | 33° | 11km/h | 24834m | 5m/s | -51.5°C | 3.4% | 27.5hPa | 2.7V | 03:29:46 | 01:51:18 | 00:00:00 | |
| HSKMA3-T | 2026-08-31 06:20:10 | 50.12838 | 8.84512 | 31° | 16km/h | 24851m | 5.2m/s | -51.2°C | 0.2% | 27.4hPa | 2.6V | 03:29:43 | 01:51:21 | 00:00:00 | |
| DB0UT-7 | 2026-08-31 06:20:10 | 50.12838 | 8.84512 | 31° | 15km/h | 24851m | 5.1m/s | -51.2°C | 3.3% | 27.4hPa | 2.6V | 00:00:00 | 01:51:21 | 00:00:00 | |
| DL1XH1-15 | 2026-08-31 06:20:09 | 50.12824 | 8.84502 | 333° | 9km/h | 24818m | 4.3m/s | -51.4°C | 3.4% | 27.6hPa | 2.6V | 03:29:49 | 01:51:15 | 00:00:00 | |
| BIOWL1-15 | 2026-08-31 06:20:08 | 50.12832 | 8.84505 | 41° | 15km/h | 24839m | 5m/s | -51.5°C | 0.3% | 27.5hPa | 2.7V | 03:30:34 | 01:51:19 | 00:00:00 | |
| AA1-15 | 2026-08-31 06:20:06 | 50.12827 | 8.84500 | 12° | 7km/h | 24829m | 6.4m/s | -51.5°C | 0.3% | 27.5hPa | 2.6V | 03:30:34 | 01:51:17 | 00:00:00 | |
| DO3MHA-11 | 2026-08-31 06:20:06 | 50.12827 | 8.84500 | 13° | 15km/h | 24829m | 6.4m/s | -51.4°C | 3.4% | 27.5hPa | 2.6V | 00:00:00 | 01:51:17 | 00:00:00 | |
| SONCRA | 2026-08-31 06:20:05 | 50.12826 | 8.84501 | 336° | 7km/h | 24823m | 4.9m/s | -51.4°C | 0.8% | 27.5hPa | 2.6V | 00:00:00 | 00:00:00 | 00:00:00 | |
| DL1XH-west | 2026-08-31 06:20:05 | 50.12826 | 8.84501 | 337° | 7km/h | 24823m | 4.9m/s | -51.4°C | 0.3% | 27.5hPa | 2.6V | 03:30:34 | 01:51:16 | 00:00:00 | |
| DJ2DS-15 | 2026-08-31 06:20:04 | 50.12824 | 8.84502 | 334° | 15km/h | 24819m | 4.3m/s | -51.3°C | 3.4% | 27.5hPa | 2.6V | 03:29:00 | 01:51:15 | 00:00:00 | |
| EDDB2-12 | 2026-08-31 06:20:03 | 50.12818 | 8.84504 | 0° | 15km/h | 24808m | 5.3m/s | -51.5°C | 0.9% | 27.6hPa | 2.7V | 00:00:00 | 00:00:00 | 00:00:00 | |
| DM0DOS-11 | 2026-08-31 06:20:02 | 50.12793 | 8.84500 | 11° | 20km/h | 24781m | 5.3m/s | -51.5°C | 3.4% | 27.7hPa | 2.7V | 03:29:56 | 01:51:08 | 00:00:00 | |
| HSKMA3-T | 2026-08-31 06:20:00 | 50.12809 | 8.84503 | 5° | 22km/h | 24797m | 6m/s | -51.5°C | 0.3% | 27.6hPa | 2.6V | 03:30:34 | 01:51:11 | 00:00:00 | |
| BIOWL1-15 | 2026-08-31 06:19:57 | 50.12793 | 8.84500 | 11° | 22km/h | 24781m | 5.3m/s | -51.5°C | 0.3% | 27.7hPa | 2.7V | 03:30:34 | 01:51:08 | 00:00:00 | |
| DL1XH-15 | 2026-08-31 06:19:56 | 50.12772 | 8.84488 | 326° | 9km/h | 24749m | 5.3m/s | -51.3°C | 3.4% | 27.8hPa | 2.7V | 03:30:02 | 01:51:02 | 00:00:00 | |
| DL1XH-west | 2026-08-31 06:19:55 | 50.12784 | 8.84495 | 33° | 18km/h | 24769m | 5.3m/s | -51.6°C | 0.3% | 27.8hPa | 2.7V | 03:30:34 | 01:51:06 | 00:00:00 | |
| DF8AY | 2026-08-31 06:19:54 | 50.12780 | 8.84491 | 36° | 16km/h | 24764m | 4.2m/s | 0°C | 0% | 0hPa | 2.6V | 18:12:15 | 01:51:05 | 00:00:00 | |
| DB0ND-19 | 2026-08-31 06:19:53 | 50.12774 | 8.84487 | 357° | 9km/h | 24754m | 5.8m/s | -51.4°C | 0.8% | 27.9hPa | 2.7V | 00:00:00 | 00:00:00 | 00:00:00 | |
| DM0DOS-11 | 2026-08-31 06:19:52 | 50.12764 | 8.84497 | 344° | 11km/h | 24726m | 4.3m/s | -51.4°C | 3.4% | 27.9hPa | 2.7V | 03:30:06 | 01:50:58 | 00:00:00 | |
| HSKMA3-T | 2026-08-31 06:19:50 | 50.12770 | 8.84491 | 314° | 11km/h | 24743m | 5.7m/s | -51.3°C | 0.2% | 27.9hPa | 2.7V | 03:30:34 | 01:51:01 | 00:00:00 | |
| DL3AQ-11 | 2026-08-31 06:19:47 | 50.12761 | 8.84499 | 347° | 13km/h | 24721m | 6.1m/s | -51.4°C | 0.8% | 28.0hPa | 2.7V | 00:00:00 | 00:00:00 | 00:00:00 | |
| DL1XH-15 | 2026-08-31 06:19:46 | 50.12738 | 8.84497 | 25° | 18km/h | 24693m | 5.1m/s | -51.5°C | 3.4% | 28.1hPa | 2.7V | 03:30:12 | 01:50:52 | 00:00:00 | |
| BIOWL1-15 | 2026-08-31 06:19:46 | 50.12761 | 8.84499 | 347° | 15km/h | 24721m | 6.1m/s | -51.4°C | 0.2% | 28hPa | 2.7V | 03:30:34 | 01:50:57 | 00:00:00 | |
| DL1XH-west | 2026-08-31 06:19:44 | 50.12752 | 8.84501 | 355° | 18km/h | 24710m | 4.8m/s | -51.5°C | 0.2% | 28hPa | 2.6V | 03:30:34 | 01:50:55 | 00:00:00 | |
| HSKMA3-T | 2026-08-31 06:19:39 | 50.12730 | 8.84492 | 15° | 15km/h | 24683m | 6.1m/s | -51.5°C | 0.3% | 28.1hPa | 2.6V | 03:30:34 | 01:50:50 | 00:00:00 | |
| BIOWL1-15 | 2026-08-31 06:19:37 | 50.12722 | 8.84494 | 284° | 7km/h | 24661m | 4.5m/s | -51.3°C | 0.2% | 28.2hPa | 2.7V | 03:30:34 | 01:50:46 | 00:00:00 | |
| DL1XH-15 | 2026-08-31 06:19:36 | 50.12717 | 8.84511 | 321° | 15km/h | 24639m | 5.5m/s | -51.6°C | 3.3% | 28.3hPa | 2.6V | 03:30:22 | 01:50:42 | 00:00:00 | |
| DL1XH-west | 2026-08-31 06:19:33 | 50.12721 | 8.84502 | 291° | 13km/h | 24650m | 6m/s | -51.5°C | 0.2% | 28.3hPa | 2.6V | 03:30:34 | 01:50:44 | 00:00:00 | |
| DK5PH-5 | 2026-08-31 06:19:33 | 50.12721 | 8.84502 | 291° | 18km/h | 24650m | 6.0m/s | -51.4°C | 3.3% | 28.2hPa | 2.6V | 00:00:00 | 01:50:44 | 00:00:00 | |
| DL8DAS-15 | 2026-08-31 06:19:32 | 50.12720 | 8.84502 | 292° | 13km/h | 24650m | 6.0m/s | -51.5°C | 0.8% | 28.3hPa | 2.6V | 00:00:00 | 00:00:00 | 00:00:00 | |
| DB0NH | 2026-08-31 06:19:31 | 50.12717 | 8.84510 | 322° | 20km/h | 24640m | 5.5m/s | -51.5°C | 3.3% | 28.3hPa | 2.6V | 03:30:00 | 01:50:42 | 00:00:00 | |
| BEGRI65-1 | 2026-08-31 06:19:30 | 50.12717 | 8.84510 | 323° | 15km/h | 24640m | 5.5m/s | -51.6°C | 0.8% | 28.3hPa | 2.7V | 00:00:00 | 00:00:00 | 00:00:00 | |
| DL1XH1-15 | 2026-08-31 06:19:29 | 50.12679 | 8.84513 | 3° | 22km/h | 24603m | 5.8m/s | -51.8°C | 3.5% | 28.5hPa | 2.7V | 03:30:29 | 01:50:35 | 00:00:00 | |
| HSKMA3-T | 2026-08-31 06:19:29 | 50.12709 | 8.84514 | 357° | 18km/h | 24628m | 4.7m/s | -51.7°C | 0.2% | 28.4hPa | 2.7V | 03:30:34 | 01:50:40 | 00:00:00 | |
| BIOWL1-15 | 2026-08-31 06:19:24 | 50.12678 | 8.84514 | 4° | 22km/h | 24603m | 5.8m/s | -51.8°C | 0.3% | 28.5hPa | 2.7V | 03:30:34 | 01:50:35 | 00:00:00 | |
| DL1XH-west | 2026-08-31 06:19:23 | 50.12674 | 8.84513 | 4° | 16km/h | 24597m | 5.2m/s | -51.9°C | 0.3% | 28.5hPa | 2.7V | 03:30:34 | 01:50:34 | 00:00:00 | |
| DF8AY | 2026-08-31 06:19:22 | 50.12670 | 8.84513 | 358° | 13km/h | 24592m | 4.5m/s | 0°C | 0% | 0hPa | 2.6V | 18:12:15 | 01:50:33 | 00:00:00 | |
| DB0ND-19 | 2026-08-31 06:19:22 | 50.12667 | 8.84514 | 342° | 11km/h | 24588m | 5.1m/s | -51.8°C | 0.8% | 28.6hPa | 2.7V | 00:00:00 | 00:00:00 | 00:00:00 | |
| BUE01 | 2026-08-31 06:19:21 | 50.12664 | 8.84516 | 330° | 15km/h | 24582m | 6.0m/s | -51.9°C | 0.9% | 28.6hPa | 2.7V | 00:00:00 | 00:00:00 | 00:00:00 | |
| DL3AQ-11 | 2026-08-31 06:19:20 | 50.12660 | 8.84520 | 323° | 18km/h | 24577m | 5.1m/s | -51.9°C | 0.9% | 28.6hPa | 2.7V | 00:00:00 | 00:00:00 | 00:00:00 | |
| DL1XH1-15 | 2026-08-31 06:19:19 | 50.12638 | 8.84544 | 332° | 24km/h | 24551m | 5.7m/s | -52.1°C | 3.4% | 28.7hPa | 2.7V | 03:30:39 | 01:50:25 | 00:00:00 | |
| EDDB2-11 | 2026-08-31 06:19:19 | 50.12660 | 8.84520 | 323° | 18km/h | 24577m | 5.1m/s | -51.9°C | 0.9% | 28.6hPa | 2.6V | 00:00:00 | 00:00:00 | 00:00:00 | |
| HSKMA3-T | 2026-08-31 06:19:19 | 50.12660 | 8.84520 | 324° | 20km/h | 24577m | 5.1m/s | -51.9°C | 0.3% | 28.6hPa | 2.7V | 03:30:34 | 01:50:30 | 00:00:00 | |
| DJ2KF-10 | 2026-08-31 06:19:18 | 50.12656 | 8.84525 | 322° | 18km/h | 24572m | 4.7m/s | -51.9°C | 3.4% | 28.6hPa | 2.6V | 00:00:00 | 01:50:29 | 00:00:00 | |
| DL1XH-15 | 2026-08-31 06:19:16 | 50.12621 | 8.84558 | 332° | 26km/h | 24535m | 5m/s | -52.1°C | 3.5% | 28.8hPa | 2.6V | 03:30:42 | 01:50:22 | 00:00:00 | |
| BIOWL1-15 | 2026-08-31 06:19:15 | 50.12632 | 8.84549 | 335° | 26km/h | 24546m | 5.7m/s | -52.1°C | 0.3% | 28.8hPa | 2.7V | 03:31:25 | 01:50:24 | 00:00:00 | |
| DL1XH-west | 2026-08-31 06:19:12 | 50.12626 | 8.84553 | 334° | 27km/h | 24540m | 4.6m/s | -52.1°C | 0.3% | 28.8hPa | 2.6V | 03:31:25 | 01:50:23 | 00:00:00 | |
| AA1-15 | 2026-08-31 06:19:11 | 50.12620 | 8.84558 | 333° | 26km/h | 24535m | 5m/s | -52.1°C | 0.3% | 28.8hPa | 2.6V | 03:31:25 | 01:50:22 | 00:00:00 | |
| DL1XH1-15 | 2026-08-31 06:19:09 | 50.12597 | 8.84582 | 313° | 16km/h | 24498m | 4.8m/s | -52.1°C | 3.4% | 29hPa | 2.6V | 03:30:49 | 01:50:15 | 00:00:00 | |
| HSKMA3-T | 2026-08-31 06:19:08 | 50.12608 | 8.84568 | 330° | 13km/h | 24519m | 5.4m/s | -52.1°C | 0.4% | 28.9hPa | 2.7V | 03:31:25 | 01:50:19 | 00:00:00 | |
| DO3DL | 2026-08-31 06:19:07 | 50.12608 | 8.84568 | 331° | 13km/h | 24519m | 5.4m/s | -52.1°C | 0.9% | 28.9hPa | 2.7V | 03:31:00 | 00:00:00 | 00:00:00 | |
| DL1XH-15 | 2026-08-31 06:19:06 | 50.12590 | 8.84597 | 300° | 20km/h | 24482m | 4.7m/s | -52.2°C | 3.4% | 29hPa | 2.7V | 03:30:52 | 01:50:12 | 00:00:00 | |
| DF8AY | 2026-08-31 06:19:06 | 50.12603 | 8.84574 | 323° | 13km/h | 24508m | 6.2m/s | 0°C | 0% | 0hPa | 2.6V | 18:12:15 | 01:50:17 | 00:00:00 | |
| DL1XH-west | 2026-08-31 06:19:02 | 50.12592 | 8.84591 | 301° | 16km/h | 24487m | 4.9m/s | -52.2°C | 0.3% | 29hPa | 2.7V | 03:31:25 | 01:50:13 | 00:00:00 | |
| AA1-15 | 2026-08-31 06:19:00 | 50.12587 | 8.84605 | 300° | 24km/h | 24477m | 6.2m/s | -52.2°C | 0.3% | 29.1hPa | 2.6V | 03:31:25 | 01:50:11 | 00:00:00 | |
| HSKMA3-T | 2026-08-31 06:18:58 | 50.12580 | 8.84623 | 302° | 29km/h | 24467m | 3.8m/s | -52.1°C | 0.3% | 29.1hPa | 2.6V | 03:31:25 | 01:50:09 | 00:00:00 | |
| DL9PN | 2026-08-31 06:18:57 | 50.12569 | 8.84653 | 295° | 15km/h | 24447m | 4.4m/s | -52.0°C | 0.9% | 29.2hPa | 2.6V | 00:00:00 | 00:00:00 | 00:00:00 | |
| DL1XH-15 | 2026-08-31 06:18:56 | 50.12563 | 8.84670 | 299° | 16km/h | 24430m | 5.2m/s | -52°C | 3.4% | 29.3hPa | 2.6V | 03:31:02 | 01:50:02 | 00:00:00 | |
| DF8AY | 2026-08-31 06:18:54 | 50.12569 | 8.84653 | 296° | 15km/h | 24446m | 4.4m/s | 0°C | 0% | 0hPa | 2.6V | 18:12:15 | 01:50:05 | 00:00:00 | |
| DD1CC2-15 | 2026-08-31 06:18:53 | 50.12569 | 8.84653 | 297° | 15km/h | 24447m | 4.4m/s | -52.0°C | 0.9% | 29.2hPa | 2.7V | 03:31:00 | 00:00:00 | 00:00:00 | |
| DM0DOS-11 | 2026-08-31 06:18:52 | 50.12557 | 8.84690 | 293° | 13km/h | 24409m | 4.4m/s | -52°C | 3.4% | 29.4hPa | 2.7V | 03:31:06 | 01:49:58 | 00:00:00 | |
| DL1XH-west | 2026-08-31 06:18:52 | 50.12565 | 8.84664 | 298° | 16km/h | 24436m | 5.7m/s | -52°C | 0.3% | 29.3hPa | 2.7V | 03:31:25 | 01:50:03 | 00:00:00 | |
| BIOWL1-15 | 2026-08-31 06:18:51 | 50.12563 | 8.84670 | 300° | 16km/h | 24430m | 5.2m/s | -52°C | 0.3% | 29.3hPa | 2.6V | 03:31:25 | 01:50:02 | 00:00:00 | |
| AA1-15 | 2026-08-31 06:18:50 | 50.12561 | 8.84675 | 300° | 16km/h | 24425m | 4.9m/s | -52.1°C | 0.3% | 29.3hPa | 2.6V | 03:31:25 | 01:50:01 | 00:00:00 | |
| DL1XH1-15 | 2026-08-31 06:18:49 | 50.12551 | 8.84709 | 291° | 22km/h | 24393m | 4.7m/s | -52.2°C | 3.5% | 29.4hPa | 2.6V | 03:31:09 | 01:49:55 | 00:00:00 | |
| HSKMA3-T | 2026-08-31 06:18:48 | 50.12558 | 8.84685 | 296° | 13km/h | 24414m | 5.7m/s | -52°C | 0.3% | 29.4hPa | 2.7V | 03:31:25 | 01:49:59 | 00:00:00 | |
| DJ2KF-10 | 2026-08-31 06:18:48 | 50.12558 | 8.84685 | 296° | 13km/h | 24414m | 5.6m/s | -52.0°C | 3.4% | 29.3hPa | 2.6V | 03:31:00 | 01:49:59 | 00:00:00 | |
| DO3DL | 2026-08-31 06:18:47 | 50.12558 | 8.84685 | 297° | 13km/h | 24414m | 5.7m/s | -52.0°C | 0.8% | 29.4hPa | 2.6V | 03:31:00 | 00:00:00 | 00:00:00 | |
| DO9LL-15 | 2026-08-31 06:18:46 | 50.12555 | 8.84695 | 293° | 13km/h | 24404m | 6.0m/s | -52.0°C | 3.4% | 29.3hPa | 2.6V | 03:31:00 | 01:49:57 | 00:00:00 | |
| DL8DAS-14 | 2026-08-31 06:18:45 | 50.12552 | 8.84709 | 291° | 20km/h | 24393m | 4.7m/s | -52.2°C | 0.9% | 29.4hPa | 2.6V | 00:00:00 | 00:00:00 | 00:00:00 | |
| DJ2DS-15 | 2026-08-31 06:18:44 | 50.12550 | 8.84717 | 288° | 20km/h | 24388m | 5.6m/s | -52.2°C | 0.9% | 29.5hPa | 2.6V | 00:00:00 | 00:00:00 | 00:00:00 | |
| DM0DOS-11 | 2026-08-31 06:18:42 | 50.12542 | 8.84753 | 291° | 11km/h | 24355m | 5.1m/s | -52.4°C | 3.5% | 29.6hPa | 2.6V | 03:31:16 | 01:49:48 | 00:00:00 | |
| DL1XH-west | 2026-08-31 06:18:42 | 50.12548 | 8.84724 | 287° | 18km/h | 24382m | 5.8m/s | -52.2°C | 0.3% | 29.5hPa | 2.7V | 03:31:25 | 01:49:53 | 00:00:00 | |
| BIOWL1-15 | 2026-08-31 06:18:41 | 50.12547 | 8.84730 | 286° | 16km/h | 24376m | 5.1m/s | -52.2°C | 0.3% | 29.5hPa | 2.7V | 03:31:25 | 01:49:52 | 00:00:00 | |
| GOEST3-10 | 2026-08-31 06:18:41 | 50.12547 | 8.84730 | 287° | 15km/h | 24377m | 5.1m/s | 0°C | 0% | 0hPa | 2.7V | 00:00:00 | 01:49:52 | 00:00:00 | |
| DL3AQ-11 | 2026-08-31 06:18:40 | 50.12545 | 8.84742 | 290° | 16km/h | 24366m | 5.7m/s | -52.3°C | 0.9% | 29.6hPa | 2.7V | 00:00:00 | 00:00:00 | 00:00:00 | |
| DL1XH1-15 | 2026-08-31 06:18:39 | 50.12540 | 8.84761 | 284° | 4km/h | 24339m | 4.9m/s | -52.5°C | 3.5% | 29.7hPa | 2.7V | 03:31:19 | 01:49:45 | 00:00:00 | |
| AA1-15 | 2026-08-31 06:18:39 | 50.12545 | 8.84742 | 290° | 16km/h | 24365m | 5.7m/s | -52.3°C | 0.3% | 29.6hPa | 2.6V | 03:31:25 | 01:49:50 | 00:00:00 | |
| DF8AY | 2026-08-31 06:18:38 | 50.12543 | 8.84748 | 292° | 15km/h | 24360m | 4.7m/s | 0°C | 0% | 0hPa | 2.6V | 18:12:15 | 01:49:49 | 00:00:00 | |
| HSKMA3-T | 2026-08-31 06:18:37 | 50.12542 | 8.84753 | 291° | 11km/h | 24355m | 5.1m/s | -52.4°C | 0.3% | 29.6hPa | 2.6V | 03:31:25 | 01:49:48 | 00:00:00 | |
| DL1XH-15 | 2026-08-31 06:18:36 | 50.12539 | 8.84770 | 283° | 11km/h | 24322m | 5.6m/s | -52.5°C | 3.6% | 29.8hPa | 2.6V | 03:31:22 | 01:49:42 | 00:00:00 | |
| DO3MHA-11 | 2026-08-31 06:18:36 | 50.12541 | 8.84757 | 289° | 9km/h | 24350m | 6.4m/s | -52.4°C | 3.5% | 29.6hPa | 2.7V | 00:00:00 | 01:49:47 | 00:00:00 | |
| SFWM-10 | 2026-08-31 06:18:35 | 50.12541 | 8.84757 | 289° | 7km/h | 24350m | 6.4m/s | -52.4°C | 0.9% | 29.7hPa | 2.6V | 03:31:00 | 00:00:00 | 00:00:00 | |
| DN1GJH-1 | 2026-08-31 06:18:34 | 50.12540 | 8.84759 | 285° | 4km/h | 24344m | 4.7m/s | -52.5°C | 0% | 0hPa | 2.6V | 03:31:00 | 00:00:00 | 00:00:00 | |
| DK5PH-5 | 2026-08-31 06:18:33 | 50.12540 | 8.84763 | 288° | 13km/h | 24334m | 6.2m/s | -52.5°C | 3.5% | 29.6hPa | 2.6V | 00:00:00 | 01:49:44 | 00:00:00 | |
| DM0DOS-11 | 2026-08-31 06:18:32 | 50.12536 | 8.84789 | 287° | 16km/h | 24301m | 6.3m/s | -52.6°C | 3.5% | 29.9hPa | 2.6V | 03:31:26 | 01:49:38 | 00:00:00 | |
| DL1XH-west | 2026-08-31 06:18:31 | 50.12539 | 8.84770 | 284° | 11km/h | 24322m | 5.6m/s | -52.5°C | 0.4% | 29.8hPa | 2.6V | 03:31:25 | 01:49:42 | 00:00:00 | |
| AA1-15 | 2026-08-31 06:18:28 | 50.12537 | 8.84783 | 283° | 15km/h | 24307m | 5.4m/s | -52.5°C | 0.3% | 29.8hPa | 2.6V | 03:31:25 | 01:49:39 | 00:00:00 | |
| HSKMA3-T | 2026-08-31 06:18:26 | 50.12535 | 8.84795 | 290° | 18km/h | 24295m | 4.9m/s | -52.6°C | 0.3% | 29.9hPa | 2.7V | 03:32:16 | 01:49:37 | 00:00:00 | |
| DF8AY | 2026-08-31 06:18:25 | 50.12533 | 8.84801 | 291° | 15km/h | 24290m | 5.4m/s | 0°C | 0% | 0hPa | 2.7V | 18:12:15 | 01:49:36 | 00:00:00 | |
| DJ2DS-15 | 2026-08-31 06:18:24 | 50.12532 | 8.84806 | 290° | 13km/h | 24285m | 5.8m/s | -52.5°C | 3.5% | 29.9hPa | 2.6V | 00:00:00 | 01:49:35 | 00:00:00 | |
| DM0DOS-11 | 2026-08-31 06:18:22 | 50.12522 | 8.84824 | 324° | 9km/h | 24247m | 4.9m/s | -52.8°C | 3.5% | 30.1hPa | 2.6V | 03:31:36 | 01:49:28 | 00:00:00 | |
| DL1XH-west | 2026-08-31 06:18:20 | 50.12527 | 8.84819 | 318° | 9km/h | 24263m | 4.6m/s | -52.6°C | 0.2% | 30hPa | 2.7V | 03:32:16 | 01:49:31 | 00:00:00 | |
| AA1-15 | 2026-08-31 06:18:17 | 50.12522 | 8.84825 | 325° | 9km/h | 24247m | 4.9m/s | -52.8°C | 0.4% | 30.1hPa | 2.6V | 03:32:16 | 01:49:28 | 00:00:00 | |
| DL1XH-15 | 2026-08-31 06:18:16 | 50.12510 | 8.84853 | 307° | 13km/h | 24216m | 4.5m/s | -53°C | 3.6% | 30.3hPa | 2.6V | 03:31:42 | 01:49:22 | 00:00:00 | |
| HSKMA3-T | 2026-08-31 06:18:15 | 50.12518 | 8.84831 | 305° | 16km/h | 24236m | 4.7m/s | -52.8°C | 0.3% | 30.2hPa | 2.7V | 03:32:16 | 01:49:26 | 00:00:00 | |
| DL8DAS-14 | 2026-08-31 06:18:14 | 50.12513 | 8.84843 | 298° | 16km/h | 24227m | 5.9m/s | -53.0°C | 0.9% | 30.2hPa | 2.7V | 00:00:00 | 00:00:00 | 00:00:00 | |
| GOEST3-10 | 2026-08-31 06:18:13 | 50.12513 | 8.84843 | 299° | 16km/h | 24227m | 5.8m/s | 0°C | 0% | 0hPa | 2.7V | 00:00:00 | 01:49:24 | 00:00:00 | |
| DL4BBY-15 | 2026-08-31 06:18:12 | 50.12511 | 8.84848 | 301° | 16km/h | 24221m | 5.4m/s | -53.6°C | 0% | 0hPa | 2.7V | 00:00:00 | 00:00:00 | 00:00:00 | |
| DO2KSM | 2026-08-31 06:18:11 | 50.12511 | 8.84848 | 301° | 15km/h | 24221m | 5.4m/s | -53.0°C | 0.9% | 30.3hPa | 2.7V | 03:32:00 | 00:00:00 | 00:00:00 | |
| DM0DOS-11 | 2026-08-31 06:18:10 | 50.12496 | 8.84866 | 337° | 18km/h | 24195m | 5m/s | -53.2°C | 3.6% | 30.4hPa | 2.7V | 03:31:46 | 01:49:18 | 00:00:00 | |
| DL1XH-west | 2026-08-31 06:18:10 | 50.12507 | 8.84856 | 319° | 13km/h | 24211m | 4.8m/s | -53°C | 0.4% | 30.3hPa | 2.6V | 03:32:16 | 01:49:21 | 00:00:00 | |
| BIOWL1-15 | 2026-08-31 06:18:09 | 50.12504 | 8.84860 | 325° | 16km/h | 24206m | 5.6m/s | -53.1°C | 0.4% | 30.3hPa | 2.7V | 03:32:16 | 01:49:20 | 00:00:00 | |
| DB0UT-7 | 2026-08-31 06:18:09 | 50.12504 | 8.84860 | 326° | 16km/h | 24206m | 5.6m/s | -53.0°C | 3.6% | 30.3hPa | 2.6V | 00:00:00 | 01:49:20 | 00:00:00 | |
| GOEST3-10 | 2026-08-31 06:18:08 | 50.12500 | 8.84863 | 331° | 18km/h | 24201m | 5.4m/s | 0°C | 0% | 0hPa | 2.6V | 00:00:00 | 00:00:00 | 00:00:00 | |
| DL8DAS-15 | 2026-08-31 06:18:07 | 50.12500 | 8.84863 | 332° | 18km/h | 24201m | 5.5m/s | -53.2°C | 0.9% | 30.4hPa | 2.6V | 00:00:00 | 00:00:00 | 00:00:00 | |
| DL1XH-15 | 2026-08-31 06:18:06 | 50.12469 | 8.84865 | 357° | 20km/h | 24163m | 5m/s | -53.3°C | 3.6% | 30.5hPa | 2.6V | 03:31:52 | 01:49:12 | 00:00:00 | |
| AA1-15 | 2026-08-31 06:18:06 | 50.12492 | 8.84868 | 349° | 18km/h | 24190m | 5.8m/s | -53.2°C | 0.3% | 30.4hPa | 2.6V | 03:32:16 | 01:49:17 | 00:00:00 | |
| HSKMA3-T | 2026-08-31 06:18:05 | 50.12488 | 8.84869 | 4° | 16km/h | 24184m | 5.7m/s | -53.2°C | 0.4% | 30.4hPa | 2.6V | 03:32:16 | 01:49:16 | 00:00:00 | |
| DJ2DS-15 | 2026-08-31 06:18:04 | 50.12483 | 8.84868 | 14° | 18km/h | 24179m | 4.2m/s | -53.2°C | 3.6% | 30.4hPa | 2.6V | 00:00:00 | 01:49:15 | 00:00:00 | |
| DK5PH-5 | 2026-08-31 06:18:03 | 50.12479 | 8.84866 | 13° | 16km/h | 24175m | 5.6m/s | -53.3°C | 3.6% | 30.4hPa | 2.7V | 03:31:00 | 01:49:14 | 00:00:00 | |
| DC4HF-4 | 2026-08-31 06:18:02 | 50.12474 | 8.84865 | 5° | 18km/h | 24169m | 5.8m/s | -53.3°C | 0.9% | 30.5hPa | 2.7V | 00:00:00 | 00:00:00 | 00:00:00 | |
| DM0DOS-11 | 2026-08-31 06:18:02 | 50.12452 | 8.84872 | 321° | 16km/h | 24143m | 4.8m/s | -53.3°C | 3.7% | 30.6hPa | 2.6V | 03:31:56 | 01:49:08 | 00:00:00 | |
| SONCRA | 2026-08-31 06:18:01 | 50.12464 | 8.84866 | 352° | 18km/h | 24158m | 4.9m/s | -53.3°C | 0.9% | 30.5hPa | 2.7V | 00:00:00 | 00:00:00 | 00:00:00 | |
| NBG1-10 | 2026-08-31 06:18:00 | 50.12464 | 8.84866 | 353° | 15km/h | 24158m | 4.9m/s | -53.3°C | 3.6% | 30.5hPa | 2.7V | 00:00:00 | 01:49:11 | 00:00:00 | |
| DL1XH1-15 | 2026-08-31 06:17:59 | 50.12442 | 8.84892 | 304° | 24km/h | 24126m | 5m/s | -53.4°C | 3.7% | 30.7hPa | 2.7V | 03:31:59 | 01:49:05 | 00:00:00 | |
| DL1XH-west | 2026-08-31 06:17:59 | 50.12460 | 8.84867 | 348° | 16km/h | 24153m | 6m/s | -53.4°C | 0.5% | 30.6hPa | 2.7V | 03:32:16 | 01:49:10 | 00:00:00 | |
| DL1ZP-14 | 2026-08-31 06:17:58 | 50.12456 | 8.84869 | 335° | 15km/h | 24147m | 4.7m/s | -53.4°C | 0.9% | 30.6hPa | 2.7V | 00:00:00 | 00:00:00 | 00:00:00 | |
| GOEST3-10 | 2026-08-31 06:17:57 | 50.12452 | 8.84872 | 322° | 16km/h | 24143m | 4.8m/s | 0°C | 0% | 0hPa | 2.6V | 00:00:00 | 01:49:08 | 00:00:00 | |
| DL1XH-15 | 2026-08-31 06:17:56 | 50.12432 | 8.84912 | 317° | 18km/h | 24110m | 5m/s | -53.4°C | 3.7% | 30.8hPa | 2.6V | 03:32:02 | 01:49:02 | 00:00:00 | |
| HSKMA3-T | 2026-08-31 06:17:55 | 50.12445 | 8.84884 | 306° | 24km/h | 24131m | 5.4m/s | -53.4°C | 0.5% | 30.7hPa | 2.6V | 03:32:16 | 01:49:06 | 00:00:00 | |
| SONDE2-11 | 2026-08-31 06:17:53 | 50.12435 | 8.84906 | 310° | 18km/h | 24115m | 5.0m/s | -53.5°C | 1.0% | 30.8hPa | 2.6V | 00:00:00 | 00:00:00 | 00:00:00 | |
| DN1GJH-1 | 2026-08-31 06:17:52 | 50.12438 | 8.84900 | 307° | 22km/h | 24120m | 5.8m/s | -53.5°C | 0% | 0hPa | 2.6V | 00:00:00 | 00:00:00 | 00:00:00 | |
| DO2KSM | 2026-08-31 06:17:51 | 50.12435 | 8.84906 | 312° | 20km/h | 24115m | 5.0m/s | -53.5°C | 1.0% | 30.7hPa | 2.6V | 03:32:00 | 00:00:00 | 00:00:00 | |
| HEMX73-11 | 2026-08-31 06:17:50 | 50.12432 | 8.84912 | 318° | 18km/h | 24110m | 5.0m/s | -53.4°C | 0.9% | 30.8hPa | 2.6V | 03:32:00 | 00:00:00 | 00:00:00 | |
| DL1XH1-15 | 2026-08-31 06:17:49 | 50.12410 | 8.84931 | 321° | 13km/h | 24072m | 6.2m/s | -53.5°C | 3.7% | 30.9hPa | 2.6V | 03:32:09 | 01:48:55 | 00:00:00 | |
| DL1XH-west | 2026-08-31 06:17:49 | 50.12424 | 8.84921 | 327° | 18km/h | 24099m | 4.7m/s | -53.4°C | 0.5% | 30.8hPa | 2.6V | 03:32:16 | 01:49:00 | 00:00:00 | |
| DB0ND-19 | 2026-08-31 06:17:49 | 50.12421 | 8.84924 | 334° | 15km/h | 24094m | 5.3m/s | -53.4°C | 0.9% | 30.9hPa | 2.7V | 00:00:00 | 00:00:00 | 00:00:00 | |
| DM0DOS-11 | 2026-08-31 06:17:48 | 50.12417 | 8.84926 | 343° | 13km/h | 24088m | 6.1m/s | -53.4°C | 3.6% | 30.9hPa | 2.7V | 03:32:06 | 01:48:58 | 00:00:00 | |
| BIOWL1-15 | 2026-08-31 06:17:48 | 50.12421 | 8.84924 | 334° | 15km/h | 24094m | 5.3m/s | -53.4°C | 0.5% | 30.9hPa | 2.7V | 03:32:16 | 01:48:59 | 00:00:00 | |
| DL3AQ-11 | 2026-08-31 06:17:47 | 50.12415 | 8.84927 | 344° | 9km/h | 24083m | 4.6m/s | -53.5°C | 0.9% | 30.9hPa | 2.7V | 00:00:00 | 00:00:00 | 00:00:00 | |
| DL1XH-15 | 2026-08-31 06:17:46 | 50.12403 | 8.84948 | 290° | 18km/h | 24057m | 5.8m/s | -53.7°C | 3.8% | 31hPa | 2.7V | 03:32:12 | 01:48:52 | 00:00:00 | |
| EDDB2-11 | 2026-08-31 06:17:46 | 50.12412 | 8.84928 | 334° | 9km/h | 24078m | 4.8m/s | -53.5°C | 0.9% | 30.9hPa | 2.6V | 00:00:00 | 00:00:00 | 00:00:00 | |
| HSKMA3-T | 2026-08-31 06:17:44 | 50.12410 | 8.84931 | 321° | 13km/h | 24073m | 6.2m/s | -53.6°C | 0.5% | 30.9hPa | 2.6V | 03:32:16 | 01:48:55 | 00:00:00 | |
| DJ2DS-15 | 2026-08-31 06:17:44 | 50.12410 | 8.84931 | 322° | 13km/h | 24073m | 6.1m/s | -53.5°C | 3.7% | 30.9hPa | 2.7V | 00:00:00 | 01:48:55 | 00:00:00 | |
| DL8DAS-14 | 2026-08-31 06:17:43 | 50.12405 | 8.84941 | 298° | 18km/h | 24062m | 4.7m/s | -53.6°C | 0.9% | 31.0hPa | 2.7V | 00:00:00 | 00:00:00 | 00:00:00 | |
| DL4BBY-15 | 2026-08-31 06:17:42 | 50.12405 | 8.84941 | 299° | 13km/h | 24063m | 4.7m/s | -54.2°C | 0% | 0hPa | 2.7V | 00:00:00 | 00:00:00 | 00:00:00 | |
| DO9LL-15 | 2026-08-31 06:17:41 | 50.12403 | 8.84948 | 291° | 11km/h | 24057m | 5.8m/s | -53.7°C | 3.8% | 31.0hPa | 2.7V | 00:00:00 | 01:48:52 | 00:00:00 | |
| BIOWL7-15 | 2026-08-31 06:17:40 | 50.12403 | 8.84948 | 292° | 18km/h | 24057m | 5.8m/s | -53.7°C | 1.0% | 31.0hPa | 2.6V | 00:00:00 | 00:00:00 | 00:00:00 | |
| DL1XH1-15 | 2026-08-31 06:17:39 | 50.12395 | 8.84990 | 275° | 9km/h | 24019m | 5.5m/s | -53.6°C | 3.9% | 31.2hPa | 2.6V | 03:32:19 | 01:48:45 | 00:00:00 | |
| DL1XH-west | 2026-08-31 06:17:38 | 50.12399 | 8.84968 | 285° | 18km/h | 24040m | 6m/s | -53.6°C | 0.5% | 31.1hPa | 2.6V | 03:32:16 | 01:48:49 | 00:00:00 | |
| BIOWL1-15 | 2026-08-31 06:17:37 | 50.12398 | 8.84975 | 289° | 18km/h | 24035m | 5.4m/s | -53.6°C | 0.5% | 31.1hPa | 2.6V | 03:32:16 | 01:48:48 | 00:00:00 | |
| DL1XH-15 | 2026-08-31 06:17:37 | 50.12395 | 8.85000 | 272° | 9km/h | 24003m | 4.7m/s | -53.6°C | 3.8% | 31.3hPa | 2.7V | 03:32:22 | 01:48:42 | 00:00:00 | |
| HSKMA3-T | 2026-08-31 06:17:33 | 50.12395 | 8.84993 | 272° | 7km/h | 24014m | 4.9m/s | -53.6°C | 0.5% | 31.2hPa | 2.6V | 03:33:07 | 01:48:44 | 00:00:00 | |
| DK5PH-5 | 2026-08-31 06:17:33 | 50.12395 | 8.84993 | 272° | 11km/h | 24014m | 4.8m/s | -53.5°C | 3.8% | 31.2hPa | 2.7V | 00:00:00 | 01:48:44 | 00:00:00 | |
| DM0DOS-11 | 2026-08-31 06:17:32 | 50.12396 | 8.85012 | 264° | 9km/h | 23983m | 4.7m/s | -53.7°C | 3.7% | 31.4hPa | 2.7V | 03:32:26 | 01:48:38 | 00:00:00 | |
| DB0NH | 2026-08-31 06:17:31 | 50.12395 | 8.85000 | 273° | 11km/h | 24003m | 4.7m/s | -53.5°C | 3.8% | 31.2hPa | 2.6V | 03:32:00 | 01:48:42 | 00:00:00 | |
| SONCRA | 2026-08-31 06:17:30 | 50.12395 | 8.85006 | 250° | 7km/h | 23992m | 5.9m/s | -53.6°C | 0.9% | 31.3hPa | 2.6V | 00:00:00 | 00:00:00 | 00:00:00 | |
| DL1XH1-15 | 2026-08-31 06:17:29 | 50.12395 | 8.85026 | 277° | 15km/h | 23967m | 5.3m/s | -53.4°C | 3.7% | 31.5hPa | 2.6V | 03:32:29 | 01:48:35 | 00:00:00 | |
| DL1XH-west | 2026-08-31 06:17:27 | 50.12396 | 8.85012 | 265° | 9km/h | 23983m | 4.7m/s | -53.7°C | 0.4% | 31.4hPa | 2.7V | 03:33:07 | 01:48:38 | 00:00:00 | |
| NBG1-10 | 2026-08-31 06:17:27 | 50.12396 | 8.85012 | 265° | 11km/h | 23983m | 4.6m/s | -53.6°C | 3.7% | 31.4hPa | 2.6V | 00:00:00 | 01:48:38 | 00:00:00 | |
| DO3MHA-11 | 2026-08-31 06:17:26 | 50.12396 | 8.85016 | 280° | 13km/h | 23978m | 5.8m/s | -53.5°C | 3.6% | 31.4hPa | 2.6V | 00:00:00 | 01:48:37 | 00:00:00 | |
| BEGRI65-1 | 2026-08-31 06:17:25 | 50.12396 | 8.85016 | 280° | 11km/h | 23978m | 5.9m/s | -53.6°C | 0.9% | 31.4hPa | 2.6V | 00:00:00 | 00:00:00 | 00:00:00 | |
| DJ2DS-15 | 2026-08-31 06:17:24 | 50.12395 | 8.85026 | 278° | 11km/h | 23967m | 5.3m/s | -53.4°C | 3.7% | 31.4hPa | 2.6V | 03:32:00 | 01:48:35 | 00:00:00 | |
| DM0DOS-11 | 2026-08-31 06:17:22 | 50.12397 | 8.85062 | 245° | 11km/h | 23930m | 5.8m/s | -53.4°C | 3.8% | 31.7hPa | 2.6V | 03:32:36 | 01:48:28 | 00:00:00 | |
| HSKMA3-T | 2026-08-31 06:17:22 | 50.12395 | 8.85037 | 260° | 15km/h | 23956m | 4.5m/s | -53.4°C | 0.5% | 31.5hPa | 2.6V | 03:33:07 | 01:48:33 | 00:00:00 | |
| SONDE2-11 | 2026-08-31 06:17:22 | 50.12396 | 8.85042 | 261° | 13km/h | 23951m | 5.4m/s | -53.4°C | 0.9% | 31.6hPa | 2.7V | 00:00:00 | 00:00:00 | 00:00:00 | |
| DL3AQ-11 | 2026-08-31 06:17:20 | 50.12396 | 8.85053 | 266° | 13km/h | 23941m | 4.5m/s | -53.4°C | 0.9% | 31.6hPa | 2.7V | 00:00:00 | 00:00:00 | 00:00:00 | |
| DL1XH1-15 | 2026-08-31 06:17:19 | 50.12400 | 8.85072 | 281° | 7km/h | 23914m | 5.8m/s | -53.4°C | 3.7% | 31.7hPa | 2.7V | 03:32:39 | 01:48:25 | 00:00:00 | |
| DL1XH-west | 2026-08-31 06:17:17 | 50.12398 | 8.85062 | 245° | 11km/h | 23930m | 5.8m/s | -53.4°C | 0.5% | 31.7hPa | 2.6V | 03:33:07 | 01:48:28 | 00:00:00 | |
| DL1XH-15 | 2026-08-31 06:17:16 | 50.12397 | 8.85079 | 301° | 5km/h | 23897m | 5.8m/s | -53.5°C | 3.7% | 31.8hPa | 2.6V | 03:32:42 | 01:48:22 | 00:00:00 | |
| DO3MHA-11 | 2026-08-31 06:17:16 | 50.12399 | 8.85066 | 242° | 7km/h | 23925m | 4.7m/s | -53.3°C | 3.8% | 31.6hPa | 2.6V | 00:00:00 | 01:48:27 | 00:00:00 | |
| EDDB2-11 | 2026-08-31 06:17:15 | 50.12400 | 8.85072 | 281° | 7km/h | 23914m | 5.9m/s | -53.4°C | 1.0% | 31.7hPa | 2.6V | 00:00:00 | 00:00:00 | 00:00:00 | |
| DO3DL | 2026-08-31 06:17:13 | 50.12400 | 8.85072 | 283° | 7km/h | 23914m | 5.9m/s | -53.4°C | 1.0% | 31.7hPa | 2.6V | 03:33:00 | 00:00:00 | 00:00:00 | |
| DM0DOS-11 | 2026-08-31 06:17:12 | 50.12395 | 8.85089 | 270° | 9km/h | 23876m | 5m/s | -53.5°C | 3.8% | 31.9hPa | 2.6V | 03:32:46 | 01:48:18 | 00:00:00 | |
| HSKMA3-T | 2026-08-31 06:17:11 | 50.12397 | 8.85079 | 301° | 5km/h | 23898m | 5.8m/s | -53.6°C | 0.5% | 31.8hPa | 2.6V | 03:33:07 | 01:48:22 | 00:00:00 | |
| DO9LL-15 | 2026-08-31 06:17:10 | 50.12397 | 8.85081 | 294° | 13km/h | 23892m | 4.7m/s | -53.5°C | 3.8% | 31.8hPa | 2.6V | 00:00:00 | 01:48:21 | 00:00:00 | |
| DN1GJH-1 | 2026-08-31 06:17:09 | 50.12397 | 8.85081 | 294° | 5km/h | 23892m | 4.8m/s | -53.6°C | 0% | 0hPa | 2.6V | 00:00:00 | 00:00:00 | 00:00:00 | |
| DD1CC8 | 2026-08-31 06:17:08 | 50.12395 | 8.85086 | 291° | 7km/h | 23881m | 5.3m/s | -53.6°C | 1.0% | 31.9hPa | 2.6V | 00:00:00 | 00:00:00 | 00:00:00 | |
| DL3AQ-11 | 2026-08-31 06:17:07 | 50.12396 | 8.85093 | 249° | 11km/h | 23870m | 6.5m/s | -53.6°C | 1.0% | 32.0hPa | 2.6V | 00:00:00 | 00:00:00 | 00:00:00 | |
| DL1XH-15 | 2026-08-31 06:17:06 | 50.12404 | 8.85122 | 259° | 16km/h | 23844m | 4.9m/s | -53.5°C | 3.7% | 32hPa | 2.6V | 03:32:52 | 01:48:12 | 00:00:00 | |
| DL1XH-west | 2026-08-31 06:17:06 | 50.12396 | 8.85093 | 249° | 11km/h | 23870m | 6.5m/s | -53.6°C | 0.5% | 32hPa | 2.6V | 03:33:07 | 01:48:17 | 00:00:00 | |
| DO3MHA-11 | 2026-08-31 06:17:06 | 50.12395 | 8.85092 | 250° | 13km/h | 23870m | 6.4m/s | -53.5°C | 3.7% | 31.9hPa | 2.6V | 03:32:00 | 01:48:17 | 00:00:00 | |
| DJ2DS-15 | 2026-08-31 06:17:04 | 50.12399 | 8.85103 | 237° | 15km/h | 23860m | 4.0m/s | -53.5°C | 3.7% | 32.0hPa | 2.7V | 00:00:00 | 01:48:15 | 00:00:00 | |
| DK5PH-5 | 2026-08-31 06:17:03 | 50.12401 | 8.85108 | 243° | 15km/h | 23855m | 5.8m/s | -53.6°C | 3.8% | 32.0hPa | 2.6V | 00:00:00 | 01:48:14 | 00:00:00 | |
| DM0DOS-11 | 2026-08-31 06:17:02 | 50.12406 | 8.85137 | 284° | 7km/h | 23822m | 6.4m/s | -53.3°C | 3.8% | 32.2hPa | 2.6V | 03:32:56 | 01:48:08 | 00:00:00 | |
| HSKMA3-T | 2026-08-31 06:17:00 | 50.12405 | 8.85127 | 258° | 13km/h | 23838m | 6m/s | -53.4°C | 0.5% | 32.1hPa | 2.7V | 03:33:07 | 01:48:11 | 00:00:00 | |
| SONCRA | 2026-08-31 06:16:59 | 50.12406 | 8.85135 | 263° | 5km/h | 23828m | 4.6m/s | -53.4°C | 1.0% | 32.2hPa | 2.6V | 00:00:00 | 00:00:00 | 00:00:00 | |
| DF1GD-15 | 2026-08-31 06:16:57 | 50.12406 | 8.85135 | 265° | 7km/h | 23828m | 4.6m/s | -53.4°C | 1.0% | 32.2hPa | 2.6V | 03:33:00 | 00:00:00 | 00:00:00 | |
| DL1XH-15 | 2026-08-31 06:16:56 | 50.12409 | 8.85164 | 250° | 20km/h | 23791m | 6m/s | -53.4°C | 3.8% | 32.3hPa | 2.6V | 03:33:02 | 01:48:02 | 00:00:00 | |
| DL1XH-west | 2026-08-31 06:16:55 | 50.12405 | 8.85144 | 282° | 9km/h | 23812m | 4.1m/s | -53.3°C | 0.5% | 32.3hPa | 2.6V | 03:33:07 | 01:48:06 | 00:00:00 | |
| DL9PN | 2026-08-31 06:16:53 | 50.12405 | 8.85152 | 248° | 13km/h | 23801m | 4.8m/s | -53.3°C | 1.0% | 32.3hPa | 2.7V | 00:00:00 | 00:00:00 | 00:00:00 | |
| DM0DOS-11 | 2026-08-31 06:16:52 | 50.12413 | 8.85198 | 254° | 20km/h | 23770m | 6.2m/s | -53.3°C | 3.7% | 32.5hPa | 2.7V | 03:33:06 | 01:47:58 | 00:00:00 | |
| AA1-15 | 2026-08-31 06:16:50 | 50.12410 | 8.85172 | 257° | 22km/h | 23785m | 5.6m/s | -53.4°C | 0.5% | 32.4hPa | 2.6V | 03:33:07 | 01:48:01 | 00:00:00 | |
| HSKMA3-T | 2026-08-31 06:16:49 | 50.12411 | 8.85181 | 261° | 22km/h | 23780m | 4.7m/s | -53.3°C | 0.5% | 32.4hPa | 2.6V | 03:33:07 | 01:48:00 | 00:00:00 | |
| DF7PN | 2026-08-31 06:16:47 | 50.12415 | 8.85205 | 251° | 16km/h | 23764m | 5.0m/s | -53.3°C | 1.0% | 32.5hPa | 2.7V | 00:00:00 | 00:00:00 | 00:00:00 | |
| DL1XH-15 | 2026-08-31 06:16:46 | 50.12416 | 8.85225 | 247° | 5km/h | 23737m | 5.3m/s | -53.3°C | 3.7% | 32.6hPa | 2.7V | 03:33:12 | 01:47:52 | 00:00:00 | |
| DL1XH-west | 2026-08-31 06:16:45 | 50.12416 | 8.85211 | 256° | 15km/h | 23759m | 5.6m/s | -53.3°C | 0.5% | 32.5hPa | 2.6V | 03:33:58 | 01:47:56 | 00:00:00 | |
| BUE01 | 2026-08-31 06:16:45 | 50.12416 | 8.85211 | 256° | 13km/h | 23759m | 5.6m/s | -53.3°C | 1.0% | 32.5hPa | 2.7V | 00:00:00 | 00:00:00 | 00:00:00 | |
| DJ2DS-15 | 2026-08-31 06:16:44 | 50.12417 | 8.85216 | 269° | 11km/h | 23753m | 5.8m/s | -53.3°C | 3.8% | 32.5hPa | 2.7V | 00:00:00 | 01:47:55 | 00:00:00 | |
| DL8OAI-8 | 2026-08-31 06:16:43 | 50.12416 | 8.85216 | 269° | 11km/h | 23753m | 5.9m/s | -53.3°C | 1.0% | 32.5hPa | 2.7V | 03:33:00 | 00:00:00 | 00:00:00 | |
| DM0DOS-11 | 2026-08-31 06:16:42 | 50.12421 | 8.85243 | 260° | 16km/h | 23717m | 5.1m/s | -53.3°C | 3.7% | 32.7hPa | 2.7V | 03:33:16 | 01:47:48 | 00:00:00 | |
| DL4BBY-15 | 2026-08-31 06:16:42 | 50.12416 | 8.85223 | 278° | 9km/h | 23742m | 5.3m/s | -53.9°C | 0% | 0hPa | 2.6V | 00:00:00 | 00:00:00 | 00:00:00 | |
| DL8DAS-14 | 2026-08-31 06:16:41 | 50.12417 | 8.85228 | 239° | 9km/h | 23733m | 4.1m/s | -53.4°C | 0.9% | 32.6hPa | 2.6V | 00:00:00 | 00:00:00 | 00:00:00 | |
| DO9LL-15 | 2026-08-31 06:16:40 | 50.12417 | 8.85228 | 240° | 9km/h | 23733m | 4.1m/s | -53.3°C | 3.7% | 32.6hPa | 2.6V | 03:33:00 | 01:47:51 | 00:00:00 | |
| DL1XH1-15 | 2026-08-31 06:16:39 | 50.12424 | 8.85263 | 238° | 18km/h | 23702m | 5.7m/s | -53.3°C | 3.7% | 32.8hPa | 2.6V | 03:33:19 | 01:47:45 | 00:00:00 | |
| HSKMA3-T | 2026-08-31 06:16:39 | 50.12419 | 8.85232 | 246° | 13km/h | 23728m | 4.8m/s | -53.4°C | 0.4% | 32.7hPa | 2.6V | 03:33:58 | 01:47:50 | 00:00:00 | |
| DJ2KF-10 | 2026-08-31 06:16:39 | 50.12419 | 8.85232 | 246° | 9km/h | 23728m | 4.7m/s | -53.3°C | 3.7% | 32.6hPa | 2.6V | 03:33:00 | 01:47:50 | 00:00:00 | |
| DD1CC8 | 2026-08-31 06:16:37 | 50.12420 | 8.85243 | 260° | 16km/h | 23717m | 5.1m/s | -53.3°C | 0.9% | 32.7hPa | 2.7V | 00:00:00 | 00:00:00 | 00:00:00 | |
| DL1XH-15 | 2026-08-31 06:16:36 | 50.12433 | 8.85278 | 222° | 15km/h | 23686m | 5.9m/s | -53.3°C | 3.7% | 32.9hPa | 2.7V | 03:33:22 | 01:47:42 | 00:00:00 | |
| BIOWL1-15 | 2026-08-31 06:16:34 | 50.12424 | 8.85263 | 238° | 18km/h | 23702m | 5.7m/s | -53.3°C | 0.5% | 32.8hPa | 2.6V | 03:33:58 | 01:47:45 | 00:00:00 | |
| DK5PH-5 | 2026-08-31 06:16:33 | 50.12427 | 8.85269 | 227° | 7km/h | 23697m | 5.0m/s | -53.3°C | 3.7% | 32.8hPa | 2.7V | 00:00:00 | 01:47:44 | 00:00:00 | |
| DM0DOS-11 | 2026-08-31 06:16:32 | 50.12440 | 8.85284 | 171° | 5km/h | 23666m | 5.8m/s | -53.3°C | 3.8% | 33hPa | 2.7V | 03:33:26 | 01:47:38 | 00:00:00 | |
| DB0UT-7 | 2026-08-31 06:16:32 | 50.12430 | 8.85273 | 222° | 5km/h | 23692m | 4.9m/s | -53.3°C | 3.7% | 32.8hPa | 2.7V | 00:00:00 | 00:00:00 | 00:00:00 | |
| DB0NH | 2026-08-31 06:16:31 | 50.12433 | 8.85278 | 223° | 5km/h | 23687m | 5.9m/s | -53.3°C | 3.7% | 32.8hPa | 2.7V | 00:00:00 | 01:47:42 | 00:00:00 | |
| BEGRI65-1 | 2026-08-31 06:16:30 | 50.12433 | 8.85278 | 224° | 15km/h | 23687m | 5.9m/s | -53.3°C | 0.9% | 32.9hPa | 2.6V | 00:00:00 | 00:00:00 | 00:00:00 | |
| DL1XH1-15 | 2026-08-31 06:16:29 | 50.12445 | 8.85284 | 203° | 7km/h | 23650m | 6.3m/s | -53.2°C | 3.7% | 33.1hPa | 2.6V | 03:33:29 | 01:47:35 | 00:00:00 | |
| HSKMA3-T | 2026-08-31 06:16:29 | 50.12437 | 8.85283 | 222° | 5km/h | 23676m | 4.1m/s | -53.2°C | 0.5% | 32.9hPa | 2.6V | 03:33:58 | 01:47:40 | 00:00:00 | |
| AA1-15 | 2026-08-31 06:16:28 | 50.12438 | 8.85284 | 195° | 5km/h | 23671m | 5.1m/s | -53.3°C | 0.5% | 33hPa | 2.6V | 03:33:58 | 01:47:39 | 00:00:00 | |
| BIOWL1-15 | 2026-08-31 06:16:24 | 50.12445 | 8.85284 | 203° | 7km/h | 23650m | 6.3m/s | -53.2°C | 0.5% | 33.1hPa | 2.6V | 03:33:58 | 01:47:35 | 00:00:00 | |
| DL1XH-west | 2026-08-31 06:16:23 | 50.12446 | 8.85286 | 232° | 7km/h | 23645m | 4.5m/s | -53.2°C | 0.4% | 33.1hPa | 2.6V | 03:33:58 | 01:47:34 | 00:00:00 | |
| BIOWL7-15 | 2026-08-31 06:16:21 | 50.12449 | 8.85291 | 223° | 9km/h | 23635m | 6.1m/s | -53.3°C | 1.0% | 33.1hPa | 2.7V | 03:33:00 | 00:00:00 | 00:00:00 | |
| DO1YAY-16 | 2026-08-31 06:16:20 | 50.12451 | 8.85293 | 208° | 7km/h | 23629m | 5.1m/s | -53.3°C | 0.9% | 33.2hPa | 2.7V | 00:00:00 | 00:00:00 | 00:00:00 | |
| DL1XH1-15 | 2026-08-31 06:16:19 | 50.12458 | 8.85295 | 161° | 7km/h | 23598m | 5m/s | -53.2°C | 3.7% | 33.3hPa | 2.7V | 03:33:39 | 01:47:25 | 00:00:00 | |
| HSKMA3-T | 2026-08-31 06:16:18 | 50.12454 | 8.85295 | 210° | 5km/h | 23619m | 6.3m/s | -53.2°C | 0.4% | 33.2hPa | 2.6V | 03:33:58 | 01:47:29 | 00:00:00 | |
| AA1-15 | 2026-08-31 06:16:17 | 50.12455 | 8.85296 | 207° | 4km/h | 23613m | 4.7m/s | -53.2°C | 0.4% | 33.3hPa | 2.6V | 03:33:58 | 01:47:28 | 00:00:00 | |
| DL1XH-15 | 2026-08-31 06:16:16 | 50.12461 | 8.85295 | 244° | 2km/h | 23581m | 4.2m/s | -53.1°C | 3.7% | 33.4hPa | 2.7V | 03:33:42 | 01:47:22 | 00:00:00 | |
| DL1XH-west | 2026-08-31 06:16:13 | 50.12460 | 8.85295 | 171° | 5km/h | 23592m | 5.3m/s | -53.1°C | 0.4% | 33.4hPa | 2.6V | 03:33:58 | 01:47:24 | 00:00:00 | |
| DL4BBY-15 | 2026-08-31 06:16:12 | 50.12461 | 8.85295 | 206° | 5km/h | 23587m | 5.9m/s | -53.7°C | 0% | 0hPa | 2.7V | 00:00:00 | 00:00:00 | 00:00:00 | |
| DO9LL-15 | 2026-08-31 06:16:10 | 50.12462 | 8.85296 | 234° | 5km/h | 23577m | 4.5m/s | -53.1°C | 3.7% | 33.4hPa | 2.7V | 00:00:00 | 01:47:21 | 00:00:00 | |
| DL1XH1-15 | 2026-08-31 06:16:09 | 50.12468 | 8.85295 | 174° | 2km/h | 23546m | 4.5m/s | -53.3°C | 3.7% | 33.6hPa | 2.7V | 03:33:49 | 01:47:15 | 00:00:00 | |
| HSKMA3-T | 2026-08-31 06:16:08 | 50.12463 | 8.85297 | 173° | 5km/h | 23566m | 5.2m/s | -53.2°C | 0.5% | 33.5hPa | 2.6V | 03:33:58 | 01:47:19 | 00:00:00 | |
| DD1CC2-15 | 2026-08-31 06:16:07 | 50.12463 | 8.85297 | 174° | 5km/h | 23566m | 5.2m/s | -53.2°C | 1.0% | 33.5hPa | 2.6V | 03:33:00 | 00:00:00 | 00:00:00 | |
| DL1XH-15 | 2026-08-31 06:16:06 | 50.12471 | 8.85293 | 136° | 5km/h | 23531m | 4.3m/s | -53.3°C | 3.7% | 33.7hPa | 2.6V | 03:33:52 | 01:47:12 | 00:00:00 | |
| AA1-15 | 2026-08-31 06:16:06 | 50.12467 | 8.85296 | 162° | 5km/h | 23556m | 4.9m/s | -53.3°C | 0.5% | 33.5hPa | 2.7V | 03:33:58 | 01:47:17 | 00:00:00 | |
| DL1XH-west | 2026-08-31 06:16:03 | 50.12469 | 8.85295 | 158° | 2km/h | 23541m | 5.5m/s | -53.3°C | 0.5% | 33.6hPa | 2.6V | 03:33:58 | 01:47:14 | 00:00:00 | |
| DK5PH-5 | 2026-08-31 06:16:03 | 50.12469 | 8.85295 | 158° | 5km/h | 23542m | 5.5m/s | -53.2°C | 3.7% | 33.6hPa | 2.6V | 03:33:00 | 01:47:14 | 00:00:00 | |
| DM0DOS-11 | 2026-08-31 06:16:02 | 50.12470 | 8.85284 | 64° | 7km/h | 23510m | 5.5m/s | -53.3°C | 3.7% | 33.8hPa | 2.6V | 03:33:56 | 01:47:08 | 00:00:00 | |
| BIOWL1-15 | 2026-08-31 06:16:02 | 50.12470 | 8.85294 | 152° | 5km/h | 23535m | 5.6m/s | -53.4°C | 0.5% | 33.7hPa | 2.6V | 03:33:58 | 01:47:13 | 00:00:00 | |
| DB0NH | 2026-08-31 06:16:01 | 50.12471 | 8.85293 | 137° | 5km/h | 23531m | 4.3m/s | -53.3°C | 3.7% | 33.7hPa | 2.7V | 00:00:00 | 01:47:12 | 00:00:00 | |
| DJTTGO | 2026-08-31 06:16:00 | 50.12471 | 8.85293 | 137° | 5km/h | 23531m | 4.3m/s | -53.3°C | 0.9% | 33.7hPa | 2.7V | 00:00:00 | 00:00:00 | 00:00:00 | |
| DL1XH1-15 | 2026-08-31 06:15:59 | 50.12469 | 8.85277 | 65° | 4km/h | 23495m | 4.7m/s | -53.2°C | 3.7% | 33.9hPa | 2.7V | 03:33:59 | 01:47:05 | 00:00:00 | |
| HSKMA3-T | 2026-08-31 06:15:58 | 50.12471 | 8.85286 | 63° | 7km/h | 23515m | 4.5m/s | -53.3°C | 0.5% | 33.8hPa | 2.7V | 03:33:58 | 01:47:09 | 00:00:00 | |
| SONCRA | 2026-08-31 06:15:57 | 50.12469 | 8.85281 | 76° | 5km/h | 23505m | 5.6m/s | -53.3°C | 0.9% | 33.8hPa | 2.6V | 00:00:00 | 00:00:00 | 00:00:00 | |
| DL1XH-15 | 2026-08-31 06:15:56 | 50.12466 | 8.85275 | 4° | 4km/h | 23478m | 5.3m/s | -53.1°C | 3.7% | 34hPa | 2.6V | 03:34:02 | 01:47:02 | 00:00:00 | |
| AA1-15 | 2026-08-31 06:15:55 | 50.12469 | 8.85279 | 88° | 5km/h | 23500m | 4.5m/s | -53.2°C | 0.5% | 33.9hPa | 2.6V | 03:33:58 | 01:47:06 | 00:00:00 | |
| DL1ZP-14 | 2026-08-31 06:15:54 | 50.12468 | 8.85276 | 28° | 4km/h | 23489m | 6.6m/s | -53.2°C | 0.9% | 33.9hPa | 2.7V | 00:00:00 | 00:00:00 | 00:00:00 | |
| BIOWL9-15 | 2026-08-31 06:15:53 | 50.12468 | 8.85276 | 28° | 4km/h | 23489m | 6.6m/s | -53.2°C | 0.9% | 33.9hPa | 2.7V | 00:00:00 | 00:00:00 | 00:00:00 | |
| DM0DOS-11 | 2026-08-31 06:15:52 | 50.12463 | 8.85272 | 34° | 7km/h | 23457m | 5.8m/s | -53.1°C | 3.7% | 34.1hPa | 2.7V | 03:34:06 | 01:46:58 | 00:00:00 | |
| DL1XH-west | 2026-08-31 06:15:52 | 50.12467 | 8.85275 | 8° | 5km/h | 23484m | 5.1m/s | -53.2°C | 0.5% | 33.9hPa | 2.7V | 03:34:49 | 01:47:03 | 00:00:00 | |
| DL9PN | 2026-08-31 06:15:51 | 50.12465 | 8.85275 | 15° | 2km/h | 23473m | 5.6m/s | -53.1°C | 0.9% | 34.0hPa | 2.7V | 00:00:00 | 00:00:00 | 00:00:00 | |
| DL1XH1-15 | 2026-08-31 06:15:49 | 50.12459 | 8.85267 | 59° | 5km/h | 23441m | 6.4m/s | -53.1°C | 3.7% | 34.2hPa | 2.7V | 03:34:09 | 01:46:55 | 00:00:00 | |
| HSKMA3-T | 2026-08-31 06:15:48 | 50.12464 | 8.85274 | 41° | 4km/h | 23463m | 5.7m/s | -53.1°C | 0.4% | 34hPa | 2.7V | 03:34:49 | 01:46:59 | 00:00:00 | |
| DL3AQ-11 | 2026-08-31 06:15:47 | 50.12462 | 8.85271 | 35° | 7km/h | 23452m | 4.9m/s | -53.1°C | 0.9% | 34.1hPa | 2.6V | 00:00:00 | 00:00:00 | 00:00:00 | |
| DL1XH-15 | 2026-08-31 06:15:46 | 50.12458 | 8.85262 | 58° | 4km/h | 23425m | 6m/s | -53.1°C | 3.7% | 34.2hPa | 2.6V | 03:34:12 | 01:46:52 | 00:00:00 | |
| AA1-15 | 2026-08-31 06:15:44 | 50.12459 | 8.85267 | 59° | 5km/h | 23441m | 6.4m/s | -53.2°C | 0.5% | 34.2hPa | 2.7V | 03:34:49 | 01:46:55 | 00:00:00 | |
| DJ2DS-15 | 2026-08-31 06:15:44 | 50.12459 | 8.85267 | 60° | 7km/h | 23442m | 6.4m/s | -53.1°C | 3.7% | 34.1hPa | 2.7V | 00:00:00 | 01:46:55 | 00:00:00 | |
| BUE01 | 2026-08-31 06:15:43 | 50.12459 | 8.85265 | 85° | 4km/h | 23436m | 4.8m/s | -53.1°C | 0.9% | 34.2hPa | 2.7V | 00:00:00 | 00:00:00 | 00:00:00 | |
| DM0DOS-11 | 2026-08-31 06:15:42 | 50.12454 | 8.85263 | 312° | 4km/h | 23405m | 5.3m/s | -53°C | 3.7% | 34.4hPa | 2.7V | 03:34:16 | 01:46:48 | 00:00:00 | |
| DL1XH-west | 2026-08-31 06:15:41 | 50.12458 | 8.85262 | 59° | 4km/h | 23426m | 6m/s | -53.2°C | 0.4% | 34.2hPa | 2.6V | 03:34:49 | 01:46:52 | 00:00:00 | |
| DO9LL-15 | 2026-08-31 06:15:40 | 50.12457 | 8.85261 | 17° | 5km/h | 23421m | 4.5m/s | -53.0°C | 3.7% | 34.2hPa | 2.6V | 00:00:00 | 01:46:51 | 00:00:00 | |
| DL1XH1-15 | 2026-08-31 06:15:39 | 50.12451 | 8.85264 | 32° | 7km/h | 23390m | 5.8m/s | -53.1°C | 3.7% | 34.4hPa | 2.6V | 03:34:19 | 01:46:45 | 00:00:00 | |
| HSKMA3-T | 2026-08-31 06:15:37 | 50.12454 | 8.85263 | 313° | 4km/h | 23405m | 5.3m/s | -53°C | 0.4% | 34.4hPa | 2.7V | 03:34:49 | 01:46:48 | 00:00:00 | |
| DL1XH-15 | 2026-08-31 06:15:36 | 50.12445 | 8.85255 | 57° | 9km/h | 23375m | 5.7m/s | -53.1°C | 3.7% | 34.5hPa | 2.7V | 03:34:22 | 01:46:42 | 00:00:00 | |
| AA1-15 | 2026-08-31 06:15:33 | 50.12449 | 8.85261 | 42° | 11km/h | 23385m | 4.1m/s | -53.1°C | 0.4% | 34.5hPa | 2.7V | 03:34:49 | 01:46:44 | 00:00:00 | |
| BIOWL1-15 | 2026-08-31 06:15:31 | 50.12446 | 8.85255 | 58° | 9km/h | 23375m | 5.7m/s | -53.1°C | 0.5% | 34.5hPa | 2.7V | 03:34:49 | 01:46:42 | 00:00:00 | |
| DL1XH-west | 2026-08-31 06:15:30 | 50.12444 | 8.85252 | 58° | 9km/h | 23370m | 4.7m/s | -53.1°C | 0.4% | 34.5hPa | 2.6V | 03:34:49 | 01:46:41 | 00:00:00 | |
| HSKMA3-T | 2026-08-31 06:15:27 | 50.12439 | 8.85243 | 29° | 9km/h | 23354m | 4.3m/s | -53.1°C | 0.4% | 34.6hPa | 2.7V | 03:34:49 | 01:46:38 | 00:00:00 | |
| AA1-15 | 2026-08-31 06:15:23 | 50.12434 | 8.85246 | 304° | 7km/h | 23332m | 5.8m/s | -53°C | 0.5% | 34.7hPa | 2.7V | 03:34:49 | 01:46:34 | 00:00:00 | |
| DL1ZP-14 | 2026-08-31 06:15:23 | 50.12433 | 8.85248 | 326° | 5km/h | 23327m | 5.3m/s | -53.0°C | 1.0% | 34.8hPa | 2.7V | 00:00:00 | 00:00:00 | 00:00:00 | |
| DM0DOS-11 | 2026-08-31 06:15:22 | 50.12428 | 8.85247 | 46° | 5km/h | 23301m | 5.9m/s | -53°C | 3.7% | 34.9hPa | 2.6V | 03:34:36 | 01:46:28 | 00:00:00 | |
| BIOWL1-15 | 2026-08-31 06:15:21 | 50.12431 | 8.85249 | 342° | 5km/h | 23322m | 4.1m/s | -53°C | 0.5% | 34.8hPa | 2.6V | 03:34:49 | 01:46:32 | 00:00:00 | |
| DL1XH-west | 2026-08-31 06:15:20 | 50.12430 | 8.85249 | 351° | 4km/h | 23317m | 5.7m/s | -53°C | 0.5% | 34.9hPa | 2.6V | 03:34:49 | 01:46:31 | 00:00:00 | |
| HSKMA3-T | 2026-08-31 06:15:17 | 50.12428 | 8.85247 | 46° | 5km/h | 23301m | 5.9m/s | -53°C | 0.5% | 34.9hPa | 2.6V | 03:34:49 | 01:46:28 | 00:00:00 | |
| DB0UT-7 | 2026-08-31 06:15:17 | 50.12428 | 8.85247 | 47° | 5km/h | 23302m | 5.9m/s | -52.9°C | 3.7% | 34.9hPa | 2.6V | 00:00:00 | 00:00:00 | 00:00:00 | |
| DO3MHA-11 | 2026-08-31 06:15:16 | 50.12427 | 8.85245 | 29° | 4km/h | 23296m | 5.2m/s | -52.9°C | 3.7% | 34.9hPa | 2.6V | 00:00:00 | 01:46:27 | 00:00:00 | |
| NBG1-10 | 2026-08-31 06:15:15 | 50.12425 | 8.85244 | 19° | 5km/h | 23291m | 4.3m/s | -52.9°C | 3.7% | 34.9hPa | 2.6V | 00:00:00 | 01:46:26 | 00:00:00 | |
| DF1GD-15 | 2026-08-31 06:15:14 | 50.12425 | 8.85244 | 20° | 9km/h | 23291m | 4.3m/s | -52.9°C | 1.0% | 35.0hPa | 2.7V | 03:34:00 | 00:00:00 | 00:00:00 | |
| DB0ND-19 | 2026-08-31 06:15:13 | 50.12422 | 8.85243 | 7° | 2km/h | 23281m | 5.5m/s | -52.9°C | 0.9% | 35.0hPa | 2.7V | 00:00:00 | 00:00:00 | 00:00:00 | |
| DM0DOS-11 | 2026-08-31 06:15:12 | 50.12419 | 8.85243 | 265° | 4km/h | 23249m | 5.2m/s | -52.8°C | 3.6% | 35.2hPa | 2.7V | 03:34:46 | 01:46:18 | 00:00:00 | |
| AA1-15 | 2026-08-31 06:15:12 | 50.12421 | 8.85243 | 7° | 2km/h | 23276m | 4.5m/s | -52.9°C | 0.4% | 35.1hPa | 2.7V | 03:34:49 | 01:46:23 | 00:00:00 | |
| BIOWL1-15 | 2026-08-31 06:15:11 | 50.12421 | 8.85242 | 19° | 2km/h | 23271m | 5.5m/s | -52.9°C | 0.4% | 35.1hPa | 2.6V | 03:34:49 | 01:46:22 | 00:00:00 | |
| DL1XH-west | 2026-08-31 06:15:09 | 50.12419 | 8.85242 | 15° | 2km/h | 23260m | 4.8m/s | -52.8°C | 0.5% | 35.2hPa | 2.6V | 03:34:49 | 01:46:20 | 00:00:00 | |
| HSKMA3-T | 2026-08-31 06:15:06 | 50.12419 | 8.85244 | 279° | 5km/h | 23244m | 3.9m/s | -52.7°C | 0.4% | 35.2hPa | 2.7V | 03:34:49 | 01:46:17 | 00:00:00 | |
| BIOWL1-15 | 2026-08-31 06:15:02 | 50.12408 | 8.85249 | 20° | 7km/h | 23213m | 5.2m/s | -52.7°C | 0.5% | 35.4hPa | 2.6V | 03:35:40 | 01:46:11 | 00:00:00 | |
| AA1-15 | 2026-08-31 06:15:01 | 50.12410 | 8.85250 | 10° | 7km/h | 23218m | 5.2m/s | -52.7°C | 0.4% | 35.4hPa | 2.7V | 03:35:40 | 01:46:12 | 00:00:00 | |
| DM0DOS-11 | 2026-08-31 06:15:00 | 50.12402 | 8.85246 | 23° | 5km/h | 23197m | 4.7m/s | -52.7°C | 3.7% | 35.5hPa | 2.7V | 03:34:56 | 01:46:08 | 00:00:00 | |
| DL1XH-west | 2026-08-31 06:14:59 | 50.12406 | 8.85248 | 20° | 9km/h | 23207m | 6.3m/s | -52.6°C | 0.4% | 35.4hPa | 2.6V | 03:35:40 | 01:46:10 | 00:00:00 | |
| DL1XH-15 | 2026-08-31 06:14:56 | 50.12399 | 8.85244 | 1° | 7km/h | 23166m | 4.5m/s | -52.5°C | 3.6% | 35.7hPa | 2.7V | 03:35:02 | 01:46:02 | 00:00:00 | |
| HSKMA3-T | 2026-08-31 06:14:56 | 50.12401 | 8.85245 | 43° | 4km/h | 23192m | 6.1m/s | -52.6°C | 0.5% | 35.5hPa | 2.6V | 03:35:40 | 01:46:07 | 00:00:00 | |
| DO3MHA-11 | 2026-08-31 06:14:56 | 50.12401 | 8.85245 | 44° | 5km/h | 23192m | 6.0m/s | -52.6°C | 3.7% | 35.5hPa | 2.7V | 00:00:00 | 01:46:07 | 00:00:00 | |
| DO3DL | 2026-08-31 06:14:55 | 50.12401 | 8.85245 | 44° | 4km/h | 23192m | 6.1m/s | -52.6°C | 1.0% | 35.5hPa | 2.7V | 03:35:00 | 00:00:00 | 00:00:00 | |
| DF1GD-15 | 2026-08-31 06:14:54 | 50.12401 | 8.85244 | 0° | 0km/h | 23186m | 4.7m/s | -52.6°C | 1.0% | 35.6hPa | 2.7V | 03:35:00 | 00:00:00 | 00:00:00 | |
| DM0DOS-11 | 2026-08-31 06:14:52 | 50.12391 | 8.85243 | 9° | 11km/h | 23145m | 6.7m/s | -52.5°C | 3.5% | 35.8hPa | 2.7V | 03:35:06 | 01:45:58 | 00:00:00 | |
| AA1-15 | 2026-08-31 06:14:50 | 50.12397 | 8.85244 | 3° | 7km/h | 23161m | 6m/s | -52.5°C | 0.4% | 35.7hPa | 2.6V | 03:35:40 | 01:46:01 | 00:00:00 | |
| DL1XH1-15 | 2026-08-31 06:14:50 | 50.12384 | 8.85241 | 13° | 7km/h | 23129m | 6.1m/s | -52.5°C | 3.6% | 35.9hPa | 2.6V | 03:35:09 | 01:45:55 | 00:00:00 | |
| DL1XH-west | 2026-08-31 06:14:49 | 50.12395 | 8.85244 | 8° | 5km/h | 23156m | 5.3m/s | -52.5°C | 0.3% | 35.7hPa | 2.6V | 03:35:40 | 01:46:00 | 00:00:00 | |
| DL9PN | 2026-08-31 06:14:49 | 50.12395 | 8.85244 | 8° | 5km/h | 23156m | 5.3m/s | -52.5°C | 0.9% | 35.7hPa | 2.7V | 00:00:00 | 00:00:00 | 00:00:00 | |
| SONDE2-11 | 2026-08-31 06:14:47 | 50.12388 | 8.85243 | 7° | 11km/h | 23139m | 4.7m/s | -52.5°C | 0.9% | 35.8hPa | 2.7V | 00:00:00 | 00:00:00 | 00:00:00 | |
| DL1XH-15 | 2026-08-31 06:14:46 | 50.12381 | 8.85240 | 9° | 4km/h | 23112m | 5.6m/s | -52.5°C | 3.6% | 36hPa | 2.7V | 03:35:12 | 01:45:52 | 00:00:00 | |
| HSKMA3-T | 2026-08-31 06:14:46 | 50.12388 | 8.85243 | 8° | 11km/h | 23139m | 4.7m/s | -52.5°C | 0.4% | 35.8hPa | 2.7V | 03:35:40 | 01:45:57 | 00:00:00 | |
| DO3MHA-11 | 2026-08-31 06:14:46 | 50.12388 | 8.85242 | 8° | 5km/h | 23140m | 4.7m/s | -52.5°C | 3.6% | 35.8hPa | 2.7V | 00:00:00 | 01:45:57 | 00:00:00 | |
| DD1CC2-15 | 2026-08-31 06:14:45 | 50.12388 | 8.85242 | 9° | 11km/h | 23140m | 4.7m/s | -52.5°C | 1.0% | 35.8hPa | 2.7V | 03:35:00 | 00:00:00 | 00:00:00 | |
| DJ2DS-15 | 2026-08-31 06:14:44 | 50.12384 | 8.85241 | 14° | 5km/h | 23129m | 6.1m/s | -52.5°C | 3.6% | 35.9hPa | 2.7V | 03:35:00 | 01:45:55 | 00:00:00 | |
| SFWM-10 | 2026-08-31 06:14:43 | 50.12384 | 8.85241 | 14° | 7km/h | 23129m | 6.1m/s | -52.5°C | 0.9% | 35.9hPa | 2.7V | 03:35:00 | 00:00:00 | 00:00:00 | |
| DM0DOS-11 | 2026-08-31 06:14:42 | 50.12381 | 8.85240 | 163° | 5km/h | 23092m | 5m/s | -52.4°C | 3.7% | 36.1hPa | 2.7V | 03:35:16 | 01:45:48 | 00:00:00 | |
| DL4BBY-15 | 2026-08-31 06:14:42 | 50.12381 | 8.85240 | 22° | 5km/h | 23118m | 5.3m/s | -53.1°C | 0% | 0hPa | 2.7V | 00:00:00 | 00:00:00 | 00:00:00 | |
| DB0NH | 2026-08-31 06:14:41 | 50.12381 | 8.85240 | 10° | 5km/h | 23113m | 5.6m/s | -52.4°C | 3.6% | 35.9hPa | 2.7V | 00:00:00 | 01:45:52 | 00:00:00 | |
| EDDB2-11 | 2026-08-31 06:14:40 | 50.12380 | 8.85240 | 350° | 0km/h | 23103m | 4.4m/s | -52.5°C | 1.0% | 36.0hPa | 2.6V | 00:00:00 | 00:00:00 | 00:00:00 | |
| DL1XH1-15 | 2026-08-31 06:14:39 | 50.12383 | 8.85236 | 56° | 5km/h | 23075m | 5.2m/s | -52.5°C | 3.6% | 36.2hPa | 2.6V | 03:35:19 | 01:45:45 | 00:00:00 | |
| AA1-15 | 2026-08-31 06:14:39 | 50.12380 | 8.85240 | 350° | 0km/h | 23103m | 4.4m/s | -52.5°C | 0.5% | 36hPa | 2.6V | 03:35:40 | 01:45:50 | 00:00:00 | |
| DL1XH-west | 2026-08-31 06:14:38 | 50.12380 | 8.85240 | 172° | 4km/h | 23097m | 6.4m/s | -52.5°C | 0.4% | 36hPa | 2.6V | 03:35:40 | 01:45:49 | 00:00:00 | |
| DL8DAS-14 | 2026-08-31 06:14:37 | 50.12382 | 8.85239 | 145° | 4km/h | 23087m | 4.6m/s | -52.4°C | 0.9% | 36.1hPa | 2.7V | 00:00:00 | 00:00:00 | 00:00:00 | |
| DL1XH-15 | 2026-08-31 06:14:36 | 50.12379 | 8.85229 | 56° | 9km/h | 23059m | 4.9m/s | -52.4°C | 3.5% | 36.3hPa | 2.7V | 03:35:22 | 01:45:42 | 00:00:00 | |
| HSKMA3-T | 2026-08-31 06:14:35 | 50.12383 | 8.85238 | 95° | 4km/h | 23081m | 6.3m/s | -52.5°C | 0.4% | 36.2hPa | 2.6V | 03:35:40 | 01:45:46 | 00:00:00 | |
| DK5PH-5 | 2026-08-31 06:14:33 | 50.12382 | 8.85234 | 53° | 7km/h | 23071m | 5.3m/s | -52.3°C | 3.6% | 36.1hPa | 2.7V | 00:00:00 | 01:45:44 | 00:00:00 | |
| DJ2KF-10 | 2026-08-31 06:14:32 | 50.12380 | 8.85232 | 60° | 7km/h | 23065m | 6.0m/s | -52.3°C | 3.5% | 36.2hPa | 2.7V | 03:35:00 | 01:45:43 | 00:00:00 | |
| DJ2DS-15 | 2026-08-31 06:14:31 | 50.12379 | 8.85229 | 56° | 7km/h | 23059m | 4.9m/s | -52.4°C | 0.9% | 36.3hPa | 2.7V | 00:00:00 | 00:00:00 | 00:00:00 | |
| DB0UT-9 | 2026-08-31 06:14:30 | 50.12379 | 8.85229 | 58° | 9km/h | 23059m | 4.9m/s | -52.4°C | 0.9% | 36.3hPa | 2.7V | 00:00:00 | 00:00:00 | 00:00:00 | |
| DL1XH1-15 | 2026-08-31 06:14:29 | 50.12372 | 8.85215 | 86° | 4km/h | 23020m | 5.8m/s | -52.3°C | 3.5% | 36.5hPa | 2.7V | 03:35:29 | 01:45:35 | 00:00:00 | |
| DL1XH-west | 2026-08-31 06:14:28 | 50.12374 | 8.85222 | 41° | 9km/h | 23043m | 4.6m/s | -52.4°C | 0.4% | 36.4hPa | 2.6V | 03:35:40 | 01:45:39 | 00:00:00 | |
| DM0DOS-11 | 2026-08-31 06:14:27 | 50.12373 | 8.85219 | 56° | 5km/h | 23037m | 6.4m/s | -52.4°C | 3.5% | 36.4hPa | 2.6V | 03:35:26 | 01:45:38 | 00:00:00 | |
| BIOWL1-15 | 2026-08-31 06:14:27 | 50.12373 | 8.85219 | 56° | 5km/h | 23037m | 6.4m/s | -52.4°C | 0.4% | 36.4hPa | 2.6V | 03:35:40 | 01:45:38 | 00:00:00 | |
| HSKMA3-T | 2026-08-31 06:14:25 | 50.12372 | 8.85216 | 86° | 4km/h | 23026m | 6m/s | -52.3°C | 0.3% | 36.5hPa | 2.7V | 03:35:40 | 01:45:36 | 00:00:00 | |
| DJ2DS-15 | 2026-08-31 06:14:24 | 50.12372 | 8.85215 | 87° | 7km/h | 23020m | 5.7m/s | -52.3°C | 3.5% | 36.4hPa | 2.6V | 00:00:00 | 01:45:35 | 00:00:00 | |
| NBG1-10 | 2026-08-31 06:14:23 | 50.12372 | 8.85214 | 112° | 7km/h | 23015m | 4.5m/s | -52.2°C | 3.5% | 36.5hPa | 2.6V | 00:00:00 | 01:45:34 | 00:00:00 | |
| DM0DOS-11 | 2026-08-31 06:14:22 | 50.12374 | 8.85199 | 68° | 11km/h | 22983m | 4.3m/s | -52.2°C | 3.6% | 36.7hPa | 2.6V | 03:35:36 | 01:45:28 | 00:00:00 | |
| EDDB2-12 | 2026-08-31 06:14:21 | 50.12374 | 8.85211 | 133° | 5km/h | 23004m | 5.0m/s | -52.2°C | 0.9% | 36.6hPa | 2.7V | 00:00:00 | 00:00:00 | 00:00:00 | |
| BIOWL9-15 | 2026-08-31 06:14:20 | 50.12375 | 8.85209 | 119° | 5km/h | 22999m | 5.0m/s | -52.2°C | 0.9% | 36.6hPa | 2.7V | 00:00:00 | 00:00:00 | 00:00:00 | |
| DL1XH1-15 | 2026-08-31 06:14:19 | 50.12373 | 8.85188 | 98° | 9km/h | 22967m | 4.9m/s | -52.3°C | 3.5% | 36.8hPa | 2.7V | 03:35:39 | 01:45:25 | 00:00:00 | |
| BIOWL1-15 | 2026-08-31 06:14:17 | 50.12374 | 8.85199 | 68° | 11km/h | 22983m | 4.3m/s | -52.2°C | 0.4% | 36.7hPa | 2.6V | 03:35:40 | 01:45:28 | 00:00:00 | |
| HSKMA3-T | 2026-08-31 06:14:14 | 50.12373 | 8.85188 | 99° | 9km/h | 22967m | 4.9m/s | -52.3°C | 0.4% | 36.8hPa | 2.7V | 03:35:40 | 01:45:25 | 00:00:00 | |
| DL4BBY-15 | 2026-08-31 06:14:12 | 50.12373 | 8.85181 | 73° | 9km/h | 22956m | 5.3m/s | -52.8°C | 0% | 0hPa | 2.6V | 00:00:00 | 00:00:00 | 00:00:00 | |
| DF7PN | 2026-08-31 06:14:11 | 50.12373 | 8.85179 | 72° | 4km/h | 22951m | 4.8m/s | -52.2°C | 0.9% | 36.9hPa | 2.6V | 00:00:00 | 00:00:00 | 00:00:00 | |
| DO9LL-15 | 2026-08-31 06:14:10 | 50.12373 | 8.85177 | 97° | 9km/h | 22946m | 6.1m/s | -52.1°C | 3.5% | 36.8hPa | 2.6V | 00:00:00 | 01:45:21 | 00:00:00 | |
| DM0DOS-11 | 2026-08-31 06:14:09 | 50.12374 | 8.85173 | 88° | 5km/h | 22929m | 6.1m/s | -52.1°C | 3.5% | 37hPa | 2.6V | 03:35:46 | 01:45:18 | 00:00:00 | |
| DL1XH1-15 | 2026-08-31 06:14:09 | 50.12373 | 8.85162 | 94° | 13km/h | 22913m | 6.2m/s | -52.1°C | 3.5% | 37.1hPa | 2.7V | 03:35:49 | 01:45:15 | 00:00:00 | |
| DL1XH-west | 2026-08-31 06:14:07 | 50.12374 | 8.85173 | 89° | 5km/h | 22929m | 6.1m/s | -52.1°C | 0.3% | 37hPa | 2.6V | 03:36:31 | 01:45:18 | 00:00:00 | |
| DB0NH | 2026-08-31 06:14:07 | 50.12374 | 8.85173 | 89° | 9km/h | 22929m | 6.0m/s | -52.1°C | 3.5% | 36.9hPa | 2.6V | 00:00:00 | 01:45:18 | 00:00:00 | |
| DL1XH-15 | 2026-08-31 06:14:06 | 50.12373 | 8.85145 | 78° | 16km/h | 22897m | 5.9m/s | -52°C | 3.5% | 37.2hPa | 2.6V | 03:35:52 | 01:45:12 | 00:00:00 | |
| BIOWL1-15 | 2026-08-31 06:14:06 | 50.12373 | 8.85170 | 80° | 7km/h | 22924m | 5.1m/s | -52.1°C | 0.3% | 37hPa | 2.6V | 03:36:31 | 01:45:17 | 00:00:00 | |
| HSKMA3-T | 2026-08-31 06:14:04 | 50.12373 | 8.85162 | 95° | 13km/h | 22913m | 6.2m/s | -52.1°C | 0.3% | 37.1hPa | 2.7V | 03:36:31 | 01:45:15 | 00:00:00 | |
| DK5PH-5 | 2026-08-31 06:14:03 | 50.12373 | 8.85156 | 97° | 9km/h | 22908m | 4.7m/s | -52.0°C | 3.5% | 37.1hPa | 2.7V | 03:35:00 | 01:45:14 | 00:00:00 | |
| DM0DOS-11 | 2026-08-31 06:14:02 | 50.12371 | 8.85128 | 70° | 5km/h | 22876m | 4.4m/s | -52°C | 3.5% | 37.3hPa | 2.7V | 03:35:56 | 01:45:08 | 00:00:00 | |
| DD1CC8 | 2026-08-31 06:14:02 | 50.12373 | 8.85145 | 78° | 15km/h | 22897m | 5.9m/s | -52.0°C | 0.9% | 37.2hPa | 2.6V | 00:00:00 | 00:00:00 | 00:00:00 | |
| DL3AQ-11 | 2026-08-31 06:14:00 | 50.12372 | 8.85134 | 74° | 11km/h | 22886m | 6.0m/s | -52.0°C | 0.9% | 37.3hPa | 2.6V | 00:00:00 | 00:00:00 | 00:00:00 | |
| DL1XH1-15 | 2026-08-31 06:13:59 | 50.12367 | 8.85125 | 11° | 7km/h | 22860m | 4.3m/s | -52.1°C | 3.5% | 37.4hPa | 2.6V | 03:35:59 | 01:45:05 | 00:00:00 | |
| DL1XH-15 | 2026-08-31 06:13:56 | 50.12365 | 8.85121 | 110° | 5km/h | 22844m | 4.5m/s | -52°C | 3.5% | 37.5hPa | 2.6V | 03:36:02 | 01:45:02 | 00:00:00 | |
| DL1XH-west | 2026-08-31 06:13:56 | 50.12370 | 8.85126 | 33° | 4km/h | 22871m | 5.8m/s | -52°C | 0.3% | 37.3hPa | 2.6V | 03:36:31 | 01:45:07 | 00:00:00 | |
| AA1-15 | 2026-08-31 06:13:55 | 50.12369 | 8.85125 | 13° | 7km/h | 22865m | 5.5m/s | -52.1°C | 0.3% | 37.4hPa | 2.6V | 03:36:31 | 01:45:06 | 00:00:00 | |
| HSKMA3-T | 2026-08-31 06:13:53 | 50.12365 | 8.85124 | 24° | 5km/h | 22855m | 5.4m/s | -52.1°C | 0.3% | 37.4hPa | 2.7V | 03:36:31 | 01:45:04 | 00:00:00 | |
| SONCRA | 2026-08-31 06:13:52 | 50.12365 | 8.85123 | 72° | 4km/h | 22850m | 5.7m/s | -52.0°C | 0.9% | 37.5hPa | 2.7V | 00:00:00 | 00:00:00 | 00:00:00 | |
| DF1GD-15 | 2026-08-31 06:13:51 | 50.12364 | 8.85123 | 73° | 4km/h | 22850m | 5.7m/s | -52.0°C | 0.9% | 37.5hPa | 2.7V | 03:36:00 | 00:00:00 | 00:00:00 | |
| NBG1-10 | 2026-08-31 06:13:50 | 50.12365 | 8.85119 | 111° | 9km/h | 22840m | 4.4m/s | -52.0°C | 3.5% | 37.5hPa | 2.7V | 03:36:00 | 01:45:01 | 00:00:00 | |
| DL1XH1-15 | 2026-08-31 06:13:49 | 50.12368 | 8.85094 | 117° | 13km/h | 22808m | 4.5m/s | -52.1°C | 3.5% | 37.7hPa | 2.7V | 03:36:09 | 01:44:55 | 00:00:00 | |
| BIOWL9-15 | 2026-08-31 06:13:49 | 50.12366 | 8.85116 | 99° | 7km/h | 22835m | 6.2m/s | -52.1°C | 0.9% | 37.5hPa | 2.6V | 00:00:00 | 00:00:00 | 00:00:00 | |
| DL9PN | 2026-08-31 06:13:47 | 50.12366 | 8.85108 | 91° | 11km/h | 22824m | 4.9m/s | -52.1°C | 0.9% | 37.6hPa | 2.6V | 00:00:00 | 00:00:00 | 00:00:00 | |
| DL1XH-15 | 2026-08-31 06:13:46 | 50.12371 | 8.85084 | 113° | 5km/h | 22792m | 4.7m/s | -52°C | 3.5% | 37.8hPa | 2.6V | 03:36:12 | 01:44:52 | 00:00:00 | |
| DL1XH-west | 2026-08-31 06:13:45 | 50.12367 | 8.85099 | 114° | 13km/h | 22813m | 5.3m/s | -52.2°C | 0.3% | 37.7hPa | 2.6V | 03:36:31 | 01:44:56 | 00:00:00 | |
| AA1-15 | 2026-08-31 06:13:44 | 50.12368 | 8.85094 | 117° | 13km/h | 22808m | 4.5m/s | -52.1°C | 0.4% | 37.7hPa | 2.7V | 03:36:31 | 01:44:55 | 00:00:00 | |
| HSKMA3-T | 2026-08-31 06:13:43 | 50.12370 | 8.85090 | 113° | 11km/h | 22803m | 5.7m/s | -52.1°C | 0.4% | 37.7hPa | 2.7V | 03:36:31 | 01:44:54 | 00:00:00 | |
| DL4BBY-15 | 2026-08-31 06:13:42 | 50.12371 | 8.85086 | 108° | 9km/h | 22798m | 5.3m/s | -52.6°C | 0% | 0hPa | 2.6V | 00:00:00 | 00:00:00 | 00:00:00 | |
| SFWM-10 | 2026-08-31 06:13:41 | 50.12371 | 8.85086 | 109° | 9km/h | 22798m | 5.3m/s | -52.1°C | 0.9% | 37.8hPa | 2.6V | 00:00:00 | 00:00:00 | 00:00:00 | |
| DO9LL-15 | 2026-08-31 06:13:40 | 50.12372 | 8.85082 | 131° | 11km/h | 22787m | 5.9m/s | -52.0°C | 3.4% | 37.8hPa | 2.6V | 00:00:00 | 01:44:51 | 00:00:00 | |
| DL1XH1-15 | 2026-08-31 06:13:39 | 50.12377 | 8.85069 | 86° | 11km/h | 22755m | 5.9m/s | -52.1°C | 3.4% | 38hPa | 2.6V | 03:36:19 | 01:44:45 | 00:00:00 | |
| DL8OAI-8 | 2026-08-31 06:13:38 | 50.12373 | 8.85080 | 153° | 7km/h | 22782m | 4.9m/s | -52.0°C | 0.9% | 37.9hPa | 2.7V | 03:36:00 | 00:00:00 | 00:00:00 | |
| DB0NH | 2026-08-31 06:13:37 | 50.12376 | 8.85077 | 136° | 11km/h | 22772m | 5.3m/s | -52.0°C | 3.4% | 37.9hPa | 2.7V | 00:00:00 | 01:44:48 | 00:00:00 | |
| DL1XH-15 | 2026-08-31 06:13:36 | 50.12377 | 8.85054 | 86° | 13km/h | 22741m | 5.1m/s | -52.2°C | 3.5% | 38.1hPa | 2.7V | 03:36:22 | 01:44:42 | 00:00:00 | |
| DL1XH-west | 2026-08-31 06:13:34 | 50.12377 | 8.85069 | 86° | 11km/h | 22756m | 5.9m/s | -52.1°C | 0.3% | 38hPa | 2.6V | 03:36:31 | 01:44:45 | 00:00:00 | |
| AA1-15 | 2026-08-31 06:13:33 | 50.12377 | 8.85064 | 90° | 13km/h | 22750m | 5.4m/s | -52.1°C | 0.3% | 38hPa | 2.6V | 03:36:31 | 01:44:44 | 00:00:00 | |
| HSKMA3-T | 2026-08-31 06:13:32 | 50.12377 | 8.85059 | 92° | 13km/h | 22745m | 3.7m/s | -52.2°C | 0.3% | 38.1hPa | 2.7V | 03:36:31 | 01:44:43 | 00:00:00 | |
| DJ2KF-10 | 2026-08-31 06:13:32 | 50.12377 | 8.85059 | 92° | 9km/h | 22746m | 3.6m/s | -52.1°C | 3.4% | 38.0hPa | 2.7V | 00:00:00 | 01:44:43 | 00:00:00 | |
| DF1GD-15 | 2026-08-31 06:13:31 | 50.12377 | 8.85059 | 93° | 13km/h | 22746m | 3.7m/s | -52.2°C | 0.9% | 38.1hPa | 2.6V | 03:36:00 | 00:00:00 | 00:00:00 | |
| DL8DAS-15 | 2026-08-31 06:13:30 | 50.12377 | 8.85054 | 87° | 13km/h | 22741m | 5.1m/s | -52.2°C | 0.9% | 38.1hPa | 2.6V | 03:36:00 | 00:00:00 | 00:00:00 | |
| DL1XH1-15 | 2026-08-31 06:13:29 | 50.12372 | 8.85031 | 45° | 7km/h | 22703m | 5.8m/s | -52.5°C | 3.5% | 38.3hPa | 2.6V | 03:36:29 | 01:44:35 | 00:00:00 | |
| DB0UT-9 | 2026-08-31 06:13:28 | 50.12375 | 8.85045 | 65° | 11km/h | 22730m | 5.1m/s | -52.1°C | 0.9% | 38.2hPa | 2.7V | 03:36:00 | 00:00:00 | 00:00:00 | |
| DL1XH-15 | 2026-08-31 06:13:26 | 50.12367 | 8.85025 | 47° | 7km/h | 22687m | 5.5m/s | -52.5°C | 3.5% | 38.4hPa | 2.7V | 03:36:32 | 01:44:32 | 00:00:00 | |
| DL1XH-west | 2026-08-31 06:13:23 | 50.12370 | 8.85029 | 37° | 7km/h | 22698m | 4.9m/s | -52.5°C | 0.3% | 38.4hPa | 2.7V | 03:36:31 | 01:44:34 | 00:00:00 | |
| HSKMA3-T | 2026-08-31 06:13:22 | 50.12369 | 8.85027 | 39° | 7km/h | 22692m | 5.5m/s | -52.5°C | 0.3% | 38.4hPa | 2.7V | 03:36:31 | 01:44:33 | 00:00:00 | |
| SONCRA | 2026-08-31 06:13:21 | 50.12367 | 8.85025 | 47° | 7km/h | 22687m | 5.5m/s | -52.5°C | 0.9% | 38.4hPa | 2.6V | 00:00:00 | 00:00:00 | 00:00:00 | |
| DM7RM-13 | 2026-08-31 06:13:20 | 50.12367 | 8.85025 | 49° | 7km/h | 22687m | 5.5m/s | -52.5°C | 1.0% | 38.4hPa | 2.6V | 03:37:00 | 00:00:00 | 00:00:00 | |
| DL1XH1-15 | 2026-08-31 06:13:19 | 50.12348 | 8.85006 | 23° | 13km/h | 22650m | 4.7m/s | -52.6°C | 3.5% | 38.7hPa | 2.6V | 03:36:39 | 01:44:25 | 00:00:00 | |
| BIOWL9-15 | 2026-08-31 06:13:18 | 50.12362 | 8.85017 | 32° | 13km/h | 22671m | 6.5m/s | -52.6°C | 0.9% | 38.5hPa | 2.7V | 00:00:00 | 00:00:00 | 00:00:00 | |
| NBG1-10 | 2026-08-31 06:13:17 | 50.12358 | 8.85014 | 29° | 13km/h | 22666m | 5.0m/s | -52.5°C | 3.5% | 38.5hPa | 2.7V | 00:00:00 | 01:44:28 | 00:00:00 | |
| DL1XH-15 | 2026-08-31 06:13:16 | 50.12338 | 8.85002 | 5° | 13km/h | 22634m | 5m/s | -52.7°C | 3.5% | 38.7hPa | 2.7V | 03:36:42 | 01:44:22 | 00:00:00 | |
| BIOWL1-15 | 2026-08-31 06:13:15 | 50.12345 | 8.85004 | 17° | 13km/h | 22645m | 5.8m/s | -52.6°C | 0.3% | 38.7hPa | 2.6V | 03:37:22 | 01:44:24 | 00:00:00 | |
| DL1XH-west | 2026-08-31 06:13:12 | 50.12341 | 8.85003 | 11° | 15km/h | 22639m | 5.5m/s | -52.7°C | 0.3% | 38.7hPa | 2.6V | 03:37:22 | 01:44:23 | 00:00:00 | |
| HSKMA3-T | 2026-08-31 06:13:11 | 50.12338 | 8.85002 | 6° | 13km/h | 22634m | 5m/s | -52.7°C | 0.3% | 38.7hPa | 2.7V | 03:37:22 | 01:44:22 | 00:00:00 | |
| DO9LL-15 | 2026-08-31 06:13:10 | 50.12335 | 8.85002 | 1° | 13km/h | 22629m | 6.3m/s | -52.7°C | 3.5% | 38.7hPa | 2.7V | 00:00:00 | 01:44:21 | 00:00:00 | |
| DF7PN | 2026-08-31 06:13:09 | 50.12333 | 8.85002 | 350° | 7km/h | 22623m | 5.5m/s | -52.8°C | 0.9% | 38.8hPa | 2.7V | 00:00:00 | 00:00:00 | 00:00:00 | |
| DL3AQ-11 | 2026-08-31 06:13:07 | 50.12327 | 8.85003 | 358° | 9km/h | 22606m | 4.8m/s | -52.9°C | 0.9% | 38.9hPa | 2.7V | 00:00:00 | 00:00:00 | 00:00:00 | |
| DL1XH-15 | 2026-08-31 06:13:06 | 50.12318 | 8.84999 | 22° | 11km/h | 22580m | 5.7m/s | -52.9°C | 3.6% | 39hPa | 2.7V | 03:36:52 | 01:44:12 | 00:00:00 | |
| BIOWL1-15 | 2026-08-31 06:13:05 | 50.12321 | 8.85002 | 31° | 7km/h | 22591m | 4.9m/s | -52.9°C | 0.4% | 39hPa | 2.6V | 03:37:22 | 01:44:14 | 00:00:00 | |
| DF2AP-13 | 2026-08-31 06:13:05 | 50.12325 | 8.85003 | 5° | 13km/h | 22602m | 4.8m/s | -52.9°C | 3.6% | 38.9hPa | 2.6V | 03:36:00 | 01:44:16 | 00:00:00 | |
| DJ2DS-15 | 2026-08-31 06:13:04 | 50.12323 | 8.85003 | 18° | 13km/h | 22596m | 6.0m/s | -52.9°C | 3.6% | 38.9hPa | 2.6V | 00:00:00 | 01:44:15 | 00:00:00 | |
| DK5PH-5 | 2026-08-31 06:13:03 | 50.12321 | 8.85002 | 32° | 13km/h | 22591m | 4.9m/s | -52.9°C | 3.7% | 39.0hPa | 2.6V | 00:00:00 | 01:44:14 | 00:00:00 | |
| DM0DOS-11 | 2026-08-31 06:13:02 | 50.12308 | 8.84996 | 340° | 7km/h | 22559m | 4.8m/s | -53.1°C | 3.7% | 39.2hPa | 2.6V | 03:36:56 | 01:44:08 | 00:00:00 | |
| DL1XH-west | 2026-08-31 06:13:02 | 50.12320 | 8.85000 | 30° | 7km/h | 22585m | 5.2m/s | -52.9°C | 0.4% | 39hPa | 2.7V | 03:37:22 | 01:44:13 | 00:00:00 | |
| AA1-15 | 2026-08-31 06:13:01 | 50.12318 | 8.84999 | 23° | 11km/h | 22580m | 5.7m/s | -52.9°C | 0.4% | 39.1hPa | 2.7V | 03:37:22 | 01:44:12 | 00:00:00 | |
| HSKMA3-T | 2026-08-31 06:13:00 | 50.12315 | 8.84997 | 19° | 11km/h | 22575m | 4.1m/s | -52.9°C | 0.4% | 39.1hPa | 2.7V | 03:37:22 | 01:44:11 | 00:00:00 | |
| DD1CC8 | 2026-08-31 06:13:00 | 50.12312 | 8.84996 | 12° | 9km/h | 22571m | 4.9m/s | -53.0°C | 1.0% | 39.1hPa | 2.6V | 00:00:00 | 00:00:00 | 00:00:00 | |
| DM7RM-13 | 2026-08-31 06:12:59 | 50.12315 | 8.84997 | 19° | 11km/h | 22575m | 4.1m/s | -52.9°C | 1.0% | 39.1hPa | 2.6V | 03:37:00 | 00:00:00 | 00:00:00 | |
| CB1BUN | 2026-08-31 06:12:57 | 50.12310 | 8.84995 | 5° | 9km/h | 22565m | 6.4m/s | -53.0°C | 1.0% | 39.2hPa | 2.6V | 00:00:00 | 00:00:00 | 00:00:00 | |
| DL1XH-15 | 2026-08-31 06:12:56 | 50.12288 | 8.85016 | 320° | 18km/h | 22527m | 5.5m/s | -53°C | 3.7% | 39.4hPa | 2.6V | 03:37:02 | 01:44:02 | 00:00:00 | |
| BIOWL1-15 | 2026-08-31 06:12:52 | 50.12288 | 8.85016 | 321° | 18km/h | 22527m | 5.5m/s | -53°C | 0.4% | 39.4hPa | 2.6V | 03:37:22 | 01:44:02 | 00:00:00 | |
| DM0DOS-11 | 2026-08-31 06:12:52 | 50.12273 | 8.85031 | 338° | 18km/h | 22506m | 4.5m/s | -52.9°C | 3.6% | 39.5hPa | 2.6V | 03:37:06 | 01:43:58 | 00:00:00 | |
| DL1XH-west | 2026-08-31 06:12:52 | 50.12292 | 8.85011 | 326° | 20km/h | 22533m | 5.8m/s | -53°C | 0.5% | 39.4hPa | 2.6V | 03:37:22 | 01:44:03 | 00:00:00 | |
| AA1-15 | 2026-08-31 06:12:50 | 50.12285 | 8.85020 | 320° | 16km/h | 22522m | 4.5m/s | -53°C | 0.4% | 39.4hPa | 2.7V | 03:37:22 | 01:44:01 | 00:00:00 | |
| DL1XH1-15 | 2026-08-31 06:12:49 | 50.12262 | 8.85036 | 349° | 11km/h | 22490m | 5.1m/s | -52.9°C | 3.6% | 39.6hPa | 2.6V | 03:37:09 | 01:43:55 | 00:00:00 | |
| HSKMA3-T | 2026-08-31 06:12:49 | 50.12281 | 8.85024 | 324° | 16km/h | 22517m | 5.6m/s | -53.1°C | 0.5% | 39.5hPa | 2.7V | 03:37:22 | 01:44:00 | 00:00:00 | |
| EDDB2-12 | 2026-08-31 06:12:48 | 50.12278 | 8.85028 | 330° | 18km/h | 22512m | 5.7m/s | -53.0°C | 0.9% | 39.5hPa | 2.7V | 00:00:00 | 00:00:00 | 00:00:00 | |
| BIOWL9-15 | 2026-08-31 06:12:47 | 50.12273 | 8.85031 | 338° | 18km/h | 22506m | 4.5m/s | -52.9°C | 0.9% | 39.5hPa | 2.7V | 00:00:00 | 00:00:00 | 00:00:00 | |
| DL1XH-15 | 2026-08-31 06:12:46 | 50.12254 | 8.85041 | 320° | 13km/h | 22475m | 4.4m/s | -52.8°C | 3.6% | 39.7hPa | 2.7V | 03:37:12 | 01:43:52 | 00:00:00 | |
| DL1XH-west | 2026-08-31 06:12:41 | 50.12254 | 8.85041 | 320° | 13km/h | 22475m | 4.4m/s | -52.8°C | 0.4% | 39.7hPa | 2.7V | 03:37:22 | 01:43:52 | 00:00:00 | |
| DM0DOS-11 | 2026-08-31 06:12:40 | 50.12249 | 8.85054 | 291° | 9km/h | 22454m | 5m/s | -52.7°C | 3.6% | 39.8hPa | 2.6V | 03:37:16 | 01:43:48 | 00:00:00 | |
| DO9LL-15 | 2026-08-31 06:12:40 | 50.12252 | 8.85044 | 309° | 7km/h | 22471m | 4.8m/s | -52.7°C | 3.6% | 39.7hPa | 2.7V | 03:37:00 | 01:43:51 | 00:00:00 | |
| DL1XH1-15 | 2026-08-31 06:12:39 | 50.12244 | 8.85063 | 330° | 9km/h | 22438m | 5m/s | -52.6°C | 3.5% | 39.9hPa | 2.7V | 03:37:19 | 01:43:45 | 00:00:00 | |
| AA1-15 | 2026-08-31 06:12:39 | 50.12251 | 8.85048 | 296° | 11km/h | 22465m | 5.9m/s | -52.7°C | 0.4% | 39.8hPa | 2.7V | 03:37:22 | 01:43:50 | 00:00:00 | |
| HSKMA3-T | 2026-08-31 06:12:38 | 50.12250 | 8.85051 | 287° | 9km/h | 22459m | 5.4m/s | -52.7°C | 0.4% | 39.8hPa | 2.6V | 03:37:22 | 01:43:49 | 00:00:00 | |
| DF7PN | 2026-08-31 06:12:38 | 50.12250 | 8.85051 | 286° | 7km/h | 22459m | 5.4m/s | -52.7°C | 0.9% | 39.8hPa | 2.6V | 00:00:00 | 00:00:00 | 00:00:00 | |
| CB1BUN | 2026-08-31 06:12:37 | 50.12250 | 8.85051 | 288° | 9km/h | 22459m | 5.4m/s | -52.7°C | 0.9% | 39.8hPa | 2.6V | 00:00:00 | 00:00:00 | 00:00:00 | |
| DL1XH-15 | 2026-08-31 06:12:36 | 50.12240 | 8.85065 | 330° | 4km/h | 22422m | 4.6m/s | -52.7°C | 3.7% | 40hPa | 2.6V | 03:37:22 | 01:43:42 | 00:00:00 | |
| DL1XH-west | 2026-08-31 06:12:31 | 50.12240 | 8.85065 | 331° | 4km/h | 22422m | 4.6m/s | -52.7°C | 0.5% | 40hPa | 2.6V | 03:37:22 | 01:43:42 | 00:00:00 | |
| DJ2KF-10 | 2026-08-31 06:12:30 | 50.12238 | 8.85067 | 316° | 7km/h | 22417m | 6.3m/s | -52.6°C | 3.6% | 40.0hPa | 2.6V | 03:37:00 | 01:43:41 | 00:00:00 | |
| DM0DOS-11 | 2026-08-31 06:12:28 | 50.12236 | 8.85074 | 275° | 5km/h | 22401m | 6.1m/s | -52.6°C | 3.6% | 40.2hPa | 2.6V | 03:37:26 | 01:43:38 | 00:00:00 | |
| HSKMA3-T | 2026-08-31 06:12:28 | 50.12237 | 8.85071 | 293° | 7km/h | 22406m | 4.5m/s | -52.6°C | 0.4% | 40.1hPa | 2.7V | 03:38:13 | 01:43:39 | 00:00:00 | |
| DL3AQ-11 | 2026-08-31 06:12:27 | 50.12236 | 8.85076 | 249° | 4km/h | 22395m | 5.5m/s | -52.6°C | 0.9% | 40.2hPa | 2.7V | 00:00:00 | 00:00:00 | 00:00:00 | |
| DO3MHA-11 | 2026-08-31 06:12:26 | 50.12236 | 8.85076 | 250° | 4km/h | 22395m | 5.4m/s | -52.6°C | 3.5% | 40.2hPa | 2.7V | 03:37:00 | 01:43:37 | 00:00:00 | |
| DL1XH-15 | 2026-08-31 06:12:25 | 50.12240 | 8.85084 | 173° | 4km/h | 22363m | 5.1m/s | -52.5°C | 3.4% | 40.4hPa | 2.7V | 03:37:33 | 01:43:31 | 00:00:00 | |
| DJ2DS-15 | 2026-08-31 06:12:24 | 50.12237 | 8.85080 | 261° | 9km/h | 22385m | 6.2m/s | -52.6°C | 3.6% | 40.2hPa | 2.6V | 00:00:00 | 01:43:35 | 00:00:00 | |
| DM0DOS-11 | 2026-08-31 06:12:22 | 50.12242 | 8.85084 | 196° | 4km/h | 22347m | 4.9m/s | -52.6°C | 3.5% | 40.5hPa | 2.6V | 03:37:36 | 01:43:28 | 00:00:00 | |
| BIOWL1-15 | 2026-08-31 06:12:22 | 50.12240 | 8.85084 | 173° | 4km/h | 22363m | 5.1m/s | -52.5°C | 0.3% | 40.4hPa | 2.7V | 03:38:13 | 01:43:31 | 00:00:00 | |
| DL1XH-west | 2026-08-31 06:12:21 | 50.12239 | 8.85084 | 186° | 4km/h | 22368m | 5.9m/s | -52.6°C | 0.3% | 40.4hPa | 2.6V | 03:38:13 | 01:43:32 | 00:00:00 | |
| HSKMA3-T | 2026-08-31 06:12:18 | 50.12241 | 8.85084 | 206° | 2km/h | 22352m | 4.7m/s | -52.5°C | 0.3% | 40.5hPa | 2.7V | 03:38:13 | 01:43:29 | 00:00:00 | |
| AA1-15 | 2026-08-31 06:12:17 | 50.12242 | 8.85084 | 196° | 4km/h | 22347m | 4.9m/s | -52.6°C | 0.3% | 40.5hPa | 2.6V | 03:38:13 | 01:43:28 | 00:00:00 | |
| DL1XH-west | 2026-08-31 06:12:11 | 50.12254 | 8.85087 | 192° | 11km/h | 22315m | 5.2m/s | -52.8°C | 0.5% | 40.7hPa | 2.6V | 03:38:13 | 01:43:22 | 00:00:00 | |
| DM0DOS-11 | 2026-08-31 06:12:10 | 50.12268 | 8.85085 | 173° | 13km/h | 22295m | 5.8m/s | -52.8°C | 3.7% | 40.8hPa | 2.7V | 03:37:46 | 01:43:18 | 00:00:00 | |
| BIOWL1-15 | 2026-08-31 06:12:09 | 50.12261 | 8.85087 | 172° | 15km/h | 22304m | 4.2m/s | -52.8°C | 0.4% | 40.8hPa | 2.6V | 03:38:13 | 01:43:20 | 00:00:00 | |
| HSKMA3-T | 2026-08-31 06:12:07 | 50.12268 | 8.85085 | 173° | 13km/h | 22295m | 5.8m/s | -52.8°C | 0.4% | 40.8hPa | 2.7V | 03:38:13 | 01:43:18 | 00:00:00 | |
| AA1-15 | 2026-08-31 06:12:06 | 50.12271 | 8.85085 | 179° | 11km/h | 22289m | 4.9m/s | -52.9°C | 0.4% | 40.9hPa | 2.6V | 03:38:13 | 01:43:17 | 00:00:00 | |
| DO3MHA-11 | 2026-08-31 06:12:06 | 50.12271 | 8.85085 | 180° | 13km/h | 22290m | 4.9m/s | -52.8°C | 3.7% | 40.8hPa | 2.6V | 00:00:00 | 01:43:17 | 00:00:00 | |
| DL1XH-15 | 2026-08-31 06:12:05 | 50.12289 | 8.85071 | 143° | 15km/h | 22259m | 6.1m/s | -53°C | 3.7% | 41.1hPa | 2.6V | 03:37:53 | 01:43:11 | 00:00:00 | |
| DJ2DS-15 | 2026-08-31 06:12:04 | 50.12276 | 8.85084 | 163° | 15km/h | 22281m | 4.9m/s | -52.8°C | 3.6% | 40.9hPa | 2.7V | 03:37:00 | 01:43:15 | 00:00:00 | |
| DK5PH-5 | 2026-08-31 06:12:03 | 50.12279 | 8.85082 | 152° | 13km/h | 22275m | 5.9m/s | -52.8°C | 3.6% | 40.9hPa | 2.7V | 03:37:00 | 01:43:14 | 00:00:00 | |
| DM0DOS-11 | 2026-08-31 06:12:02 | 50.12296 | 8.85064 | 144° | 13km/h | 22243m | 6m/s | -52.9°C | 3.6% | 41.2hPa | 2.7V | 03:37:56 | 01:43:08 | 00:00:00 | |
| DL1XH-west | 2026-08-31 06:12:00 | 50.12289 | 8.85071 | 144° | 15km/h | 22259m | 6.1m/s | -53°C | 0.4% | 41.1hPa | 2.6V | 03:38:13 | 01:43:11 | 00:00:00 | |
| DL3AQ-11 | 2026-08-31 06:12:00 | 50.12292 | 8.85069 | 145° | 11km/h | 22254m | 5.1m/s | -53.0°C | 0.9% | 41.1hPa | 2.6V | 00:00:00 | 00:00:00 | 00:00:00 | |
| DL1XH1-15 | 2026-08-31 06:11:59 | 50.12305 | 8.85054 | 150° | 15km/h | 22228m | 6.2m/s | -53°C | 3.7% | 41.3hPa | 2.6V | 03:37:59 | 01:43:05 | 00:00:00 | |
| BIOWL1-15 | 2026-08-31 06:11:59 | 50.12292 | 8.85069 | 146° | 11km/h | 22254m | 5.1m/s | -53°C | 0.4% | 41.1hPa | 2.7V | 03:38:13 | 01:43:10 | 00:00:00 | |
| HSKMA3-T | 2026-08-31 06:11:57 | 50.12296 | 8.85064 | 145° | 13km/h | 22243m | 6m/s | -52.9°C | 0.4% | 41.2hPa | 2.7V | 03:38:13 | 01:43:08 | 00:00:00 | |
| DJ2KF-10 | 2026-08-31 06:11:57 | 50.12296 | 8.85064 | 145° | 13km/h | 22243m | 5.9m/s | -52.8°C | 3.6% | 41.1hPa | 2.7V | 00:00:00 | 01:43:08 | 00:00:00 | |
| DO3MHA-11 | 2026-08-31 06:11:56 | 50.12299 | 8.85060 | 144° | 15km/h | 22238m | 4.9m/s | -52.8°C | 3.6% | 41.1hPa | 2.6V | 00:00:00 | 01:43:07 | 00:00:00 | |
| DL1XH-15 | 2026-08-31 06:11:55 | 50.12317 | 8.85040 | 125° | 18km/h | 22207m | 4.7m/s | -52.9°C | 3.6% | 41.4hPa | 2.6V | 03:38:03 | 01:43:01 | 00:00:00 | |
| AA1-15 | 2026-08-31 06:11:55 | 50.12302 | 8.85057 | 146° | 15km/h | 22233m | 4.2m/s | -52.9°C | 0.4% | 41.2hPa | 2.6V | 03:38:13 | 01:43:06 | 00:00:00 | |
| CB1BUN | 2026-08-31 06:11:54 | 50.12302 | 8.85057 | 147° | 15km/h | 22233m | 4.2m/s | -52.9°C | 0.9% | 41.2hPa | 2.7V | 03:38:00 | 00:00:00 | 00:00:00 | |
| DL8DAS-15 | 2026-08-31 06:11:53 | 50.12305 | 8.85054 | 152° | 15km/h | 22228m | 6.2m/s | -53.0°C | 1.0% | 41.3hPa | 2.7V | 00:00:00 | 00:00:00 | 00:00:00 | |
| DM0DOS-11 | 2026-08-31 06:11:52 | 50.12323 | 8.85024 | 118° | 13km/h | 22192m | 4.7m/s | -52.9°C | 3.7% | 41.5hPa | 2.7V | 03:38:06 | 01:42:58 | 00:00:00 | |
| DL1XH-west | 2026-08-31 06:11:50 | 50.12316 | 8.85040 | 125° | 18km/h | 22207m | 4.7m/s | -52.9°C | 0.3% | 41.4hPa | 2.6V | 03:38:13 | 01:43:01 | 00:00:00 | |
| BIOWL1-15 | 2026-08-31 06:11:49 | 50.12319 | 8.85034 | 121° | 16km/h | 22202m | 4.6m/s | -52.9°C | 0.4% | 41.4hPa | 2.6V | 03:38:13 | 01:43:00 | 00:00:00 | |
| HSKMA3-T | 2026-08-31 06:11:46 | 50.12324 | 8.85019 | 118° | 13km/h | 22187m | 4.5m/s | -52.9°C | 0.4% | 41.5hPa | 2.7V | 03:38:13 | 01:42:57 | 00:00:00 | |
| BIOWL9-15 | 2026-08-31 06:11:45 | 50.12326 | 8.85014 | 114° | 13km/h | 22182m | 5.6m/s | -52.9°C | 0.9% | 41.6hPa | 2.6V | 00:00:00 | 00:00:00 | 00:00:00 | |
| AA1-15 | 2026-08-31 06:11:44 | 50.12327 | 8.85009 | 113° | 15km/h | 22177m | 4.5m/s | -53°C | 0.4% | 41.6hPa | 2.6V | 03:38:13 | 01:42:55 | 00:00:00 | |
| BIOWL1-15 | 2026-08-31 06:11:42 | 50.12334 | 8.84985 | 127° | 13km/h | 22146m | 4.3m/s | -53°C | 0.4% | 41.8hPa | 2.7V | 03:39:04 | 01:42:49 | 00:00:00 | |
| DL1XH-west | 2026-08-31 06:11:40 | 50.12331 | 8.84993 | 116° | 11km/h | 22157m | 5.6m/s | -52.9°C | 0.4% | 41.7hPa | 2.6V | 03:38:13 | 01:42:51 | 00:00:00 | |
| SONDE2-11 | 2026-08-31 06:11:40 | 50.12331 | 8.84993 | 115° | 9km/h | 22157m | 5.6m/s | -52.9°C | 1.0% | 41.7hPa | 2.6V | 00:00:00 | 00:00:00 | 00:00:00 | |
| DL1XH1-15 | 2026-08-31 06:11:39 | 50.12341 | 8.84972 | 129° | 9km/h | 22125m | 6m/s | -52.8°C | 3.7% | 41.9hPa | 2.6V | 03:38:19 | 01:42:45 | 00:00:00 | |
| HSKMA3-T | 2026-08-31 06:11:36 | 50.12338 | 8.84978 | 128° | 11km/h | 22136m | 5.4m/s | -52.9°C | 0.4% | 41.9hPa | 2.7V | 03:39:04 | 01:42:47 | 00:00:00 | |
| AA1-15 | 2026-08-31 06:11:33 | 50.12343 | 8.84968 | 129° | 11km/h | 22120m | 5.2m/s | -52.9°C | 0.5% | 42hPa | 2.6V | 03:39:04 | 01:42:44 | 00:00:00 | |
| BIOWL1-15 | 2026-08-31 06:11:30 | 50.12346 | 8.84956 | 87° | 7km/h | 22094m | 6.3m/s | -52.9°C | 0.4% | 42.2hPa | 2.6V | 03:39:04 | 01:42:39 | 00:00:00 | |
| DL1XH1-15 | 2026-08-31 06:11:29 | 50.12345 | 8.84941 | 77° | 9km/h | 22074m | 4.8m/s | -52.9°C | 3.6% | 42.3hPa | 2.6V | 03:38:29 | 01:42:35 | 00:00:00 | |
| DL1XH-west | 2026-08-31 06:11:29 | 50.12346 | 8.84958 | 83° | 5km/h | 22099m | 4.9m/s | -52.8°C | 0.4% | 42.1hPa | 2.6V | 03:39:04 | 01:42:40 | 00:00:00 | |
| DO3DL | 2026-08-31 06:11:28 | 50.12346 | 8.84958 | 84° | 5km/h | 22100m | 4.9m/s | -52.8°C | 0.9% | 42.1hPa | 2.6V | 03:39:00 | 00:00:00 | 00:00:00 | |
| DC4HF-4 | 2026-08-31 06:11:26 | 50.12346 | 8.84944 | 85° | 9km/h | 22079m | 6.0m/s | -52.9°C | 0.9% | 42.2hPa | 2.6V | 00:00:00 | 00:00:00 | 00:00:00 | |
| DL1XH-15 | 2026-08-31 06:11:25 | 50.12346 | 8.84923 | 104° | 15km/h | 22054m | 4.7m/s | -52.8°C | 3.6% | 42.4hPa | 2.6V | 03:38:33 | 01:42:31 | 00:00:00 | |
| HSKMA3-T | 2026-08-31 06:11:25 | 50.12346 | 8.84944 | 85° | 9km/h | 22079m | 6m/s | -52.9°C | 0.4% | 42.2hPa | 2.7V | 03:39:04 | 01:42:36 | 00:00:00 | |
| AA1-15 | 2026-08-31 06:11:22 | 50.12345 | 8.84933 | 95° | 11km/h | 22064m | 6m/s | -52.8°C | 0.3% | 42.3hPa | 2.7V | 03:39:04 | 01:42:33 | 00:00:00 | |
| DF2AP-13 | 2026-08-31 06:11:22 | 50.12345 | 8.84933 | 95° | 13km/h | 22065m | 5.9m/s | -52.8°C | 3.6% | 42.3hPa | 2.7V | 00:00:00 | 01:42:33 | 00:00:00 | |
| BIOWL7-15 | 2026-08-31 06:11:20 | 50.12345 | 8.84928 | 106° | 15km/h | 22059m | 5.3m/s | -52.8°C | 0.9% | 42.4hPa | 2.6V | 00:00:00 | 00:00:00 | 00:00:00 | |
| DL1XH1-15 | 2026-08-31 06:11:19 | 50.12350 | 8.84889 | 90° | 13km/h | 22023m | 6.1m/s | -52.8°C | 3.6% | 42.6hPa | 2.6V | 03:38:39 | 01:42:25 | 00:00:00 | |
| DL1XH-west | 2026-08-31 06:11:18 | 50.12347 | 8.84911 | 96° | 15km/h | 22043m | 4.5m/s | -52.7°C | 0.4% | 42.5hPa | 2.6V | 03:39:04 | 01:42:29 | 00:00:00 | |
| SONCRA | 2026-08-31 06:11:17 | 50.12348 | 8.84906 | 100° | 15km/h | 22039m | 5.2m/s | -52.7°C | 0.9% | 42.5hPa | 2.7V | 00:00:00 | 00:00:00 | 00:00:00 | |
| DO3MHA-11 | 2026-08-31 06:11:16 | 50.12349 | 8.84900 | 105° | 16km/h | 22033m | 5.4m/s | -52.7°C | 3.5% | 42.5hPa | 2.7V | 00:00:00 | 01:42:27 | 00:00:00 | |
| DL1XH-15 | 2026-08-31 06:11:15 | 50.12348 | 8.84867 | 91° | 16km/h | 22003m | 5.2m/s | -52.7°C | 3.7% | 42.8hPa | 2.7V | 03:38:43 | 01:42:21 | 00:00:00 | |
| HSKMA3-T | 2026-08-31 06:11:15 | 50.12350 | 8.84895 | 102° | 15km/h | 22028m | 4.3m/s | -52.7°C | 0.4% | 42.6hPa | 2.7V | 03:39:04 | 01:42:26 | 00:00:00 | |
| EDDB2-12 | 2026-08-31 06:11:15 | 50.12350 | 8.84889 | 90° | 13km/h | 22023m | 6.1m/s | -52.8°C | 0.9% | 42.6hPa | 2.6V | 00:00:00 | 00:00:00 | 00:00:00 | |
| BIOWL9-15 | 2026-08-31 06:11:14 | 50.12350 | 8.84889 | 90° | 13km/h | 22023m | 6.1m/s | -52.8°C | 0.9% | 42.6hPa | 2.6V | 00:00:00 | 00:00:00 | 00:00:00 | |
| DM0DOS-11 | 2026-08-31 06:11:12 | 50.12349 | 8.84845 | 85° | 20km/h | 21987m | 5.4m/s | -52.6°C | 3.6% | 42.9hPa | 2.6V | 03:38:46 | 01:42:18 | 00:00:00 | |
| AA1-15 | 2026-08-31 06:11:12 | 50.12349 | 8.84879 | 76° | 15km/h | 22014m | 3.8m/s | -52.7°C | 0.4% | 42.7hPa | 2.6V | 03:39:04 | 01:42:23 | 00:00:00 | |
| DL9PN | 2026-08-31 06:11:12 | 50.12348 | 8.84874 | 82° | 15km/h | 22009m | 5.7m/s | -52.7°C | 0.9% | 42.7hPa | 2.7V | 00:00:00 | 00:00:00 | 00:00:00 | |
| DO1YAY-16 | 2026-08-31 06:11:10 | 50.12348 | 8.84867 | 91° | 16km/h | 22004m | 5.2m/s | -52.7°C | 1.0% | 42.8hPa | 2.7V | 00:00:00 | 00:00:00 | 00:00:00 | |
| DL1XH1-15 | 2026-08-31 06:11:09 | 50.12349 | 8.84826 | 107° | 13km/h | 21972m | 5.7m/s | -52.7°C | 3.5% | 42.9hPa | 2.7V | 03:38:49 | 01:42:15 | 00:00:00 | |
| BIOWL1-15 | 2026-08-31 06:11:08 | 50.12349 | 8.84853 | 91° | 20km/h | 21993m | 5.9m/s | -52.7°C | 0.4% | 42.8hPa | 2.6V | 03:39:04 | 01:42:19 | 00:00:00 | |
| DL1XH-west | 2026-08-31 06:11:07 | 50.12348 | 8.84845 | 86° | 20km/h | 21987m | 5.4m/s | -52.7°C | 0.4% | 42.9hPa | 2.6V | 03:39:04 | 01:42:18 | 00:00:00 | |
| DB0NH | 2026-08-31 06:11:07 | 50.12348 | 8.84845 | 86° | 16km/h | 21988m | 5.4m/s | -52.6°C | 3.6% | 42.8hPa | 2.7V | 03:38:00 | 01:42:18 | 00:00:00 | |
| DL1XH-15 | 2026-08-31 06:11:05 | 50.12351 | 8.84813 | 104° | 5km/h | 21951m | 5.3m/s | -52.6°C | 3.5% | 43.1hPa | 2.7V | 03:38:53 | 01:42:11 | 00:00:00 | |
| HSKMA3-T | 2026-08-31 06:11:04 | 50.12349 | 8.84826 | 107° | 13km/h | 21972m | 5.7m/s | -52.7°C | 0.3% | 42.9hPa | 2.7V | 03:39:04 | 01:42:15 | 00:00:00 | |
| DJ2DS-15 | 2026-08-31 06:11:04 | 50.12349 | 8.84826 | 108° | 11km/h | 21973m | 5.7m/s | -52.6°C | 3.5% | 42.9hPa | 2.7V | 00:00:00 | 01:42:15 | 00:00:00 | |
| DK5PH-5 | 2026-08-31 06:11:03 | 50.12349 | 8.84821 | 116° | 13km/h | 21968m | 4.5m/s | -52.7°C | 3.5% | 43.0hPa | 2.6V | 00:00:00 | 01:42:14 | 00:00:00 | |
| DM0DOS-11 | 2026-08-31 06:11:02 | 50.12352 | 8.84805 | 68° | 9km/h | 21936m | 6m/s | -52.5°C | 3.6% | 43.2hPa | 2.6V | 03:38:56 | 01:42:08 | 00:00:00 | |
| AA1-15 | 2026-08-31 06:11:02 | 50.12351 | 8.84818 | 111° | 9km/h | 21962m | 6.3m/s | -52.8°C | 0.3% | 43hPa | 2.6V | 03:39:04 | 01:42:13 | 00:00:00 | |
| DB0UT-9 | 2026-08-31 06:11:01 | 50.12350 | 8.84818 | 111° | 9km/h | 21962m | 6.3m/s | -52.8°C | 1.0% | 43.0hPa | 2.7V | 03:39:00 | 00:00:00 | 00:00:00 | |
| DL1XH1-15 | 2026-08-31 06:10:59 | 50.12346 | 8.84790 | 61° | 16km/h | 21920m | 6m/s | -52.6°C | 3.6% | 43.3hPa | 2.7V | 03:38:59 | 01:42:05 | 00:00:00 | |
| BIOWL1-15 | 2026-08-31 06:10:58 | 50.12352 | 8.84808 | 90° | 7km/h | 21941m | 4.5m/s | -52.5°C | 0.4% | 43.2hPa | 2.6V | 03:39:04 | 01:42:09 | 00:00:00 | |
| DL1XH-west | 2026-08-31 06:10:57 | 50.12352 | 8.84805 | 69° | 9km/h | 21936m | 6m/s | -52.5°C | 0.4% | 43.2hPa | 2.6V | 03:39:04 | 01:42:08 | 00:00:00 | |
| HSKMA3-T | 2026-08-31 06:10:54 | 50.12346 | 8.84790 | 62° | 16km/h | 21920m | 6m/s | -52.6°C | 0.4% | 43.3hPa | 2.7V | 03:39:04 | 01:42:05 | 00:00:00 | |
| AA1-15 | 2026-08-31 06:10:51 | 50.12342 | 8.84773 | 68° | 13km/h | 21904m | 5.9m/s | -52.6°C | 0.3% | 43.4hPa | 2.6V | 03:39:04 | 01:42:02 | 00:00:00 | |
| DM0DOS-11 | 2026-08-31 06:10:51 | 50.12339 | 8.84759 | 95° | 7km/h | 21883m | 4.8m/s | -52.9°C | 3.6% | 43.6hPa | 2.6V | 03:39:06 | 01:41:58 | 00:00:00 | |
| BIOWL1-15 | 2026-08-31 06:10:49 | 50.12339 | 8.84759 | 96° | 7km/h | 21883m | 4.8m/s | -52.9°C | 0.4% | 43.6hPa | 2.6V | 03:39:55 | 01:41:58 | 00:00:00 | |
| DL1XH-west | 2026-08-31 06:10:46 | 50.12339 | 8.84756 | 91° | 7km/h | 21878m | 4.7m/s | -52.9°C | 0.4% | 43.6hPa | 2.6V | 03:39:55 | 01:41:57 | 00:00:00 | |
| HSKMA3-T | 2026-08-31 06:10:44 | 50.12337 | 8.84749 | 58° | 11km/h | 21867m | 5.6m/s | -52.8°C | 0.4% | 43.6hPa | 2.7V | 03:39:55 | 01:41:55 | 00:00:00 | |
| DJ2DS-15 | 2026-08-31 06:10:44 | 50.12337 | 8.84749 | 58° | 15km/h | 21867m | 5.6m/s | -52.7°C | 3.6% | 43.6hPa | 2.6V | 03:39:00 | 01:41:55 | 00:00:00 | |
| DB0UT-7 | 2026-08-31 06:10:43 | 50.12335 | 8.84745 | 53° | 18km/h | 21861m | 5.0m/s | -52.8°C | 3.6% | 43.6hPa | 2.6V | 03:39:00 | 01:41:54 | 00:00:00 | |
| DM0DOS-11 | 2026-08-31 06:10:42 | 50.12317 | 8.84710 | 50° | 22km/h | 21830m | 6m/s | -52.7°C | 3.6% | 43.9hPa | 2.6V | 03:39:16 | 01:41:48 | 00:00:00 | |
| BIOWL1-15 | 2026-08-31 06:10:41 | 50.12317 | 8.84710 | 51° | 22km/h | 21830m | 6m/s | -52.7°C | 0.3% | 43.9hPa | 2.6V | 03:39:55 | 01:41:48 | 00:00:00 | |
| AA1-15 | 2026-08-31 06:10:40 | 50.12328 | 8.84730 | 50° | 20km/h | 21846m | 4.8m/s | -52.8°C | 0.4% | 43.8hPa | 2.7V | 03:39:55 | 01:41:51 | 00:00:00 | |
| DL3AQ-11 | 2026-08-31 06:10:40 | 50.12324 | 8.84723 | 47° | 22km/h | 21841m | 5.9m/s | -52.8°C | 0.9% | 43.8hPa | 2.6V | 00:00:00 | 00:00:00 | 00:00:00 | |
| DO1YAY-16 | 2026-08-31 06:10:39 | 50.12324 | 8.84723 | 47° | 22km/h | 21841m | 5.9m/s | -52.8°C | 0.9% | 43.8hPa | 2.6V | 00:00:00 | 00:00:00 | 00:00:00 | |
| HEMX73-11 | 2026-08-31 06:10:38 | 50.12320 | 8.84716 | 48° | 24km/h | 21836m | 4.6m/s | -52.7°C | 0.9% | 43.9hPa | 2.6V | 03:39:00 | 00:00:00 | 00:00:00 | |
| DJ2KF-10 | 2026-08-31 06:10:37 | 50.12317 | 8.84710 | 51° | 18km/h | 21831m | 5.9m/s | -52.7°C | 3.6% | 43.8hPa | 2.6V | 00:00:00 | 01:41:48 | 00:00:00 | |
| DO3MHA-11 | 2026-08-31 06:10:36 | 50.12313 | 8.84703 | 55° | 15km/h | 21825m | 5.0m/s | -52.7°C | 3.6% | 43.9hPa | 2.6V | 00:00:00 | 01:41:47 | 00:00:00 | |
| DL1XH-15 | 2026-08-31 06:10:35 | 50.12300 | 8.84675 | 43° | 13km/h | 21795m | 5.1m/s | -52.7°C | 3.6% | 44.2hPa | 2.6V | 03:39:23 | 01:41:41 | 00:00:00 | |
| DL1XH-west | 2026-08-31 06:10:35 | 50.12311 | 8.84698 | 59° | 16km/h | 21820m | 3.9m/s | -52.8°C | 0.4% | 44hPa | 2.7V | 03:39:55 | 01:41:46 | 00:00:00 | |
| HSKMA3-T | 2026-08-31 06:10:33 | 50.12307 | 8.84688 | 55° | 15km/h | 21811m | 5.3m/s | -52.7°C | 0.4% | 44.1hPa | 2.7V | 03:39:55 | 01:41:44 | 00:00:00 | |
| AA1-15 | 2026-08-31 06:10:29 | 50.12297 | 8.84672 | 41° | 11km/h | 21790m | 5.3m/s | -52.7°C | 0.4% | 44.2hPa | 2.7V | 03:39:55 | 01:41:40 | 00:00:00 | |
| DL1XH1-15 | 2026-08-31 06:10:29 | 50.12280 | 8.84660 | 26° | 18km/h | 21766m | 5.5m/s | -52.7°C | 3.6% | 44.3hPa | 2.6V | 03:39:29 | 01:41:35 | 00:00:00 | |
| BIOWL1-15 | 2026-08-31 06:10:27 | 50.12293 | 8.84668 | 23° | 13km/h | 21780m | 5.7m/s | -52.8°C | 0.3% | 44.2hPa | 2.7V | 03:39:55 | 01:41:38 | 00:00:00 | |
| DL1XH-west | 2026-08-31 06:10:25 | 50.12285 | 8.84663 | 22° | 20km/h | 21771m | 3.9m/s | -52.7°C | 0.4% | 44.3hPa | 2.6V | 03:39:55 | 01:41:36 | 00:00:00 | |
| HSKMA3-T | 2026-08-31 06:10:23 | 50.12276 | 8.84656 | 34° | 18km/h | 21761m | 5.1m/s | -52.8°C | 0.4% | 44.4hPa | 2.7V | 03:39:55 | 01:41:34 | 00:00:00 | |
| DM0DOS-11 | 2026-08-31 06:10:22 | 50.12256 | 8.84618 | 64° | 24km/h | 21729m | 3.8m/s | -52.9°C | 3.6% | 44.6hPa | 2.6V | 03:39:36 | 01:41:28 | 00:00:00 | |
| DF2AP-13 | 2026-08-31 06:10:22 | 50.12273 | 8.84652 | 40° | 20km/h | 21756m | 4.7m/s | -52.8°C | 3.6% | 44.4hPa | 2.7V | 00:00:00 | 01:41:33 | 00:00:00 | |
| DB0UT-9 | 2026-08-31 06:10:20 | 50.12269 | 8.84647 | 44° | 20km/h | 21751m | 6.1m/s | -52.8°C | 1.0% | 44.5hPa | 2.7V | 03:39:00 | 00:00:00 | 00:00:00 | |
| DL1XH1-15 | 2026-08-31 06:10:19 | 50.12246 | 8.84596 | 41° | 20km/h | 21714m | 4.7m/s | -52.9°C | 3.6% | 44.7hPa | 2.7V | 03:39:39 | 01:41:25 | 00:00:00 | |
| AA1-15 | 2026-08-31 06:10:19 | 50.12262 | 8.84633 | 56° | 24km/h | 21739m | 5.7m/s | -52.9°C | 0.4% | 44.5hPa | 2.7V | 03:39:55 | 01:41:30 | 00:00:00 | |
| BIOWL1-15 | 2026-08-31 06:10:18 | 50.12253 | 8.84609 | 59° | 24km/h | 21724m | 6m/s | -52.9°C | 0.4% | 44.7hPa | 2.6V | 03:39:55 | 01:41:27 | 00:00:00 | |
| DB0NH | 2026-08-31 06:10:17 | 50.12256 | 8.84618 | 65° | 22km/h | 21729m | 3.7m/s | -52.9°C | 3.6% | 44.6hPa | 2.6V | 00:00:00 | 01:41:28 | 00:00:00 | |
| DO3MHA-11 | 2026-08-31 06:10:16 | 50.12253 | 8.84609 | 60° | 20km/h | 21724m | 6.0m/s | -52.9°C | 3.7% | 44.6hPa | 2.6V | 00:00:00 | 01:41:27 | 00:00:00 | |
| DL1XH-15 | 2026-08-31 06:10:15 | 50.12229 | 8.84586 | 5° | 22km/h | 21692m | 4.9m/s | -52.8°C | 3.6% | 44.9hPa | 2.6V | 03:39:43 | 01:41:21 | 00:00:00 | |
| DL1XH-west | 2026-08-31 06:10:14 | 50.12246 | 8.84596 | 42° | 20km/h | 21714m | 4.7m/s | -52.9°C | 0.4% | 44.7hPa | 2.7V | 03:39:55 | 01:41:25 | 00:00:00 | |
| BIOWL7-15 | 2026-08-31 06:10:13 | 50.12246 | 8.84596 | 43° | 20km/h | 21714m | 4.7m/s | -52.9°C | 1.0% | 44.7hPa | 2.7V | 00:00:00 | 00:00:00 | 00:00:00 | |
| DM0DOS-11 | 2026-08-31 06:10:12 | 50.12215 | 8.84581 | 26° | 16km/h | 21677m | 4.4m/s | -52.8°C | 3.6% | 45hPa | 2.7V | 03:39:46 | 01:41:18 | 00:00:00 | |
| HSKMA3-T | 2026-08-31 06:10:12 | 50.12238 | 8.84588 | 18° | 16km/h | 21703m | 4.4m/s | -52.9°C | 0.4% | 44.8hPa | 2.7V | 03:39:55 | 01:41:23 | 00:00:00 | |
| BIOWL1-15 | 2026-08-31 06:10:09 | 50.12207 | 8.84573 | 40° | 20km/h | 21667m | 5.6m/s | -52.8°C | 0.4% | 45hPa | 2.6V | 03:39:55 | 01:41:16 | 00:00:00 | |
| DL1XH1-15 | 2026-08-31 06:10:09 | 50.12203 | 8.84568 | 45° | 22km/h | 21662m | 4.5m/s | -52.7°C | 3.5% | 45.1hPa | 2.6V | 03:39:49 | 01:41:15 | 00:00:00 | |
| AA1-15 | 2026-08-31 06:10:08 | 50.12219 | 8.84584 | 13° | 18km/h | 21683m | 5.5m/s | -52.8°C | 0.4% | 44.9hPa | 2.7V | 03:39:55 | 01:41:19 | 00:00:00 | |
| DJ2KF-10 | 2026-08-31 06:10:07 | 50.12215 | 8.84581 | 27° | 22km/h | 21678m | 4.4m/s | -52.7°C | 3.6% | 44.9hPa | 2.7V | 03:39:00 | 01:41:18 | 00:00:00 | |
| DO3MHA-11 | 2026-08-31 06:10:06 | 50.12211 | 8.84578 | 37° | 20km/h | 21673m | 5.5m/s | -52.7°C | 3.6% | 45.0hPa | 2.7V | 00:00:00 | 01:41:17 | 00:00:00 | |
| DL1XH-15 | 2026-08-31 06:10:05 | 50.12192 | 8.84544 | 49° | 18km/h | 21642m | 5.1m/s | -52.8°C | 3.5% | 45.2hPa | 2.6V | 03:39:53 | 01:41:11 | 00:00:00 | |
| DL1XH-west | 2026-08-31 06:10:04 | 50.12203 | 8.84568 | 45° | 22km/h | 21662m | 4.5m/s | -52.7°C | 0.3% | 45.1hPa | 2.6V | 03:39:55 | 01:41:15 | 00:00:00 | |
| HSKMA3-T | 2026-08-31 06:10:01 | 50.12194 | 8.84550 | 57° | 18km/h | 21647m | 4.4m/s | -52.7°C | 0.3% | 45.2hPa | 2.7V | 03:39:55 | 01:41:12 | 00:00:00 | |
| DL1XH1-15 | 2026-08-31 06:09:59 | 50.12163 | 8.84519 | 24° | 24km/h | 21611m | 4.8m/s | -52.9°C | 3.5% | 45.4hPa | 2.6V | 03:39:59 | 01:41:05 | 00:00:00 | |
| AA1-15 | 2026-08-31 06:09:57 | 50.12179 | 8.84530 | 26° | 24km/h | 21626m | 4.8m/s | -52.9°C | 0.3% | 45.3hPa | 2.7V | 03:40:46 | 01:41:08 | 00:00:00 | |
| BIOWL1-15 | 2026-08-31 06:09:54 | 50.12163 | 8.84519 | 24° | 24km/h | 21611m | 4.8m/s | -52.9°C | 0.4% | 45.4hPa | 2.6V | 03:40:46 | 01:41:05 | 00:00:00 | |
| DL1XH-west | 2026-08-31 06:09:53 | 50.12157 | 8.84515 | 25° | 27km/h | 21606m | 5.9m/s | -53°C | 0.4% | 45.5hPa | 2.6V | 03:40:46 | 01:41:04 | 00:00:00 | |
| HSKMA3-T | 2026-08-31 06:09:51 | 50.12146 | 8.84505 | 36° | 26km/h | 21595m | 6m/s | -53.1°C | 0.4% | 45.6hPa | 2.7V | 03:40:46 | 01:41:02 | 00:00:00 | |
| AA1-15 | 2026-08-31 06:09:46 | 50.12126 | 8.84464 | 58° | 27km/h | 21569m | 4.6m/s | -53.3°C | 0.5% | 45.7hPa | 2.6V | 03:40:46 | 01:40:57 | 00:00:00 | |
| DO3MHA-11 | 2026-08-31 06:09:46 | 50.12125 | 8.84464 | 58° | 24km/h | 21570m | 4.5m/s | -53.3°C | 3.7% | 45.7hPa | 2.7V | 03:40:00 | 01:40:57 | 00:00:00 | |
| DL1XH-15 | 2026-08-31 06:09:45 | 50.12101 | 8.84429 | 25° | 26km/h | 21539m | 4m/s | -53.4°C | 3.7% | 46hPa | 2.7V | 03:40:13 | 01:40:51 | 00:00:00 | |
| BIOWL1-15 | 2026-08-31 06:09:44 | 50.12119 | 8.84448 | 53° | 22km/h | 21559m | 4.9m/s | -53.3°C | 0.4% | 45.8hPa | 2.7V | 03:40:46 | 01:40:55 | 00:00:00 | |
| DL1XH-west | 2026-08-31 06:09:42 | 50.12111 | 8.84437 | 33° | 22km/h | 21550m | 5.5m/s | -53.4°C | 0.5% | 45.9hPa | 2.6V | 03:40:46 | 01:40:53 | 00:00:00 | |
| HSKMA3-T | 2026-08-31 06:09:40 | 50.12101 | 8.84429 | 26° | 26km/h | 21540m | 4m/s | -53.4°C | 0.5% | 46hPa | 2.7V | 03:40:46 | 01:40:51 | 00:00:00 | |
| DL9PN | 2026-08-31 06:09:38 | 50.12081 | 8.84411 | 40° | 18km/h | 21520m | 4.0m/s | -53.4°C | 1.0% | 46.1hPa | 2.7V | 00:00:00 | 00:00:00 | 00:00:00 | |
| DO1YAY-16 | 2026-08-31 06:09:37 | 50.12081 | 8.84411 | 40° | 18km/h | 21520m | 4.0m/s | -53.4°C | 1.0% | 46.1hPa | 2.7V | 00:00:00 | 00:00:00 | 00:00:00 | |
| DL3AQ-11 | 2026-08-31 06:09:36 | 50.12077 | 8.84406 | 43° | 20km/h | 21515m | 5.7m/s | -53.4°C | 1.0% | 46.1hPa | 2.7V | 00:00:00 | 00:00:00 | 00:00:00 | |
| DL1XH-15 | 2026-08-31 06:09:35 | 50.12057 | 8.84381 | 17° | 16km/h | 21489m | 4.2m/s | -53.4°C | 3.7% | 46.3hPa | 2.7V | 03:40:23 | 01:40:41 | 00:00:00 | |
| AA1-15 | 2026-08-31 06:09:35 | 50.12077 | 8.84406 | 44° | 22km/h | 21515m | 5.7m/s | -53.4°C | 0.5% | 46.1hPa | 2.7V | 03:40:46 | 01:40:46 | 00:00:00 | |
| BIOWL1-15 | 2026-08-31 06:09:33 | 50.12069 | 8.84394 | 44° | 24km/h | 21505m | 4.7m/s | -53.4°C | 0.5% | 46.2hPa | 2.6V | 03:40:46 | 01:40:44 | 00:00:00 | |
| DL1XH-west | 2026-08-31 06:09:32 | 50.12065 | 8.84388 | 40° | 20km/h | 21499m | 5.8m/s | -53.4°C | 0.5% | 46.2hPa | 2.6V | 03:40:46 | 01:40:43 | 00:00:00 | |
| DO3DL | 2026-08-31 06:09:30 | 50.12061 | 8.84384 | 31° | 16km/h | 21494m | 5.0m/s | -53.5°C | 1.0% | 46.3hPa | 2.7V | 03:40:00 | 00:00:00 | 00:00:00 | |
| DL1XH1-15 | 2026-08-31 06:09:29 | 50.12030 | 8.84376 | 8° | 15km/h | 21460m | 4.5m/s | -53.4°C | 3.7% | 46.5hPa | 2.7V | 03:40:29 | 01:40:35 | 00:00:00 | |
| HSKMA3-T | 2026-08-31 06:09:29 | 50.12053 | 8.84379 | 11° | 18km/h | 21484m | 5.6m/s | -53.4°C | 0.5% | 46.3hPa | 2.7V | 03:40:46 | 01:40:40 | 00:00:00 | |
| DO3MHA-11 | 2026-08-31 06:09:26 | 50.12038 | 8.84377 | 4° | 15km/h | 21470m | 5.8m/s | -53.3°C | 3.7% | 46.4hPa | 2.7V | 00:00:00 | 01:40:37 | 00:00:00 | |
| DL1XH-15 | 2026-08-31 06:09:25 | 50.12016 | 8.84366 | 36° | 15km/h | 21439m | 6.1m/s | -53.5°C | 3.7% | 46.6hPa | 2.7V | 03:40:33 | 01:40:31 | 00:00:00 | |
| AA1-15 | 2026-08-31 06:09:24 | 50.12030 | 8.84376 | 8° | 15km/h | 21460m | 4.5m/s | -53.4°C | 0.4% | 46.5hPa | 2.7V | 03:40:46 | 01:40:35 | 00:00:00 | |
| BIOWL1-15 | 2026-08-31 06:09:23 | 50.12026 | 8.84375 | 16° | 16km/h | 21455m | 5.9m/s | -53.4°C | 0.4% | 46.6hPa | 2.7V | 03:40:46 | 01:40:34 | 00:00:00 | |
| DL1XH-west | 2026-08-31 06:09:22 | 50.12022 | 8.84372 | 24° | 16km/h | 21449m | 4.4m/s | -53.4°C | 0.5% | 46.6hPa | 2.6V | 03:40:46 | 01:40:33 | 00:00:00 | |
| DF1GD-15 | 2026-08-31 06:09:21 | 50.12022 | 8.84372 | 25° | 16km/h | 21450m | 4.4m/s | -53.4°C | 1.0% | 46.6hPa | 2.7V | 03:40:00 | 00:00:00 | 00:00:00 | |
| DL1XH1-15 | 2026-08-31 06:09:19 | 50.11996 | 8.84357 | 349° | 13km/h | 21408m | 4.8m/s | -53.5°C | 3.7% | 46.9hPa | 2.7V | 03:40:39 | 01:40:25 | 00:00:00 | |
| HSKMA3-T | 2026-08-31 06:09:19 | 50.12013 | 8.84363 | 33° | 13km/h | 21434m | 5m/s | -53.5°C | 0.5% | 46.7hPa | 2.7V | 03:40:46 | 01:40:30 | 00:00:00 | |
| DH7VM-15 | 2026-08-31 06:09:18 | 50.12010 | 8.84360 | 29° | 15km/h | 21428m | 6.0m/s | -53.5°C | 1.0% | 46.8hPa | 2.6V | 03:40:00 | 00:00:00 | 00:00:00 | |
| DB0NH | 2026-08-31 06:09:17 | 50.12006 | 8.84358 | 19° | 11km/h | 21423m | 4.5m/s | -53.4°C | 3.7% | 46.7hPa | 2.6V | 00:00:00 | 01:40:28 | 00:00:00 | |
| DO3MHA-11 | 2026-08-31 06:09:16 | 50.12003 | 8.84357 | 9° | 13km/h | 21419m | 4.4m/s | -53.5°C | 3.7% | 46.8hPa | 2.6V | 00:00:00 | 01:40:27 | 00:00:00 | |
| DL1XH-15 | 2026-08-31 06:09:15 | 50.11983 | 8.84360 | 350° | 13km/h | 21388m | 5.7m/s | -53.5°C | 3.7% | 47hPa | 2.6V | 03:40:43 | 01:40:21 | 00:00:00 | |
| AA1-15 | 2026-08-31 06:09:13 | 50.11993 | 8.84358 | 349° | 13km/h | 21403m | 5.1m/s | -53.6°C | 0.5% | 46.9hPa | 2.7V | 03:40:46 | 01:40:24 | 00:00:00 | |
| SONCRA | 2026-08-31 06:09:13 | 50.11990 | 8.84359 | 351° | 13km/h | 21398m | 5.2m/s | -53.6°C | 1.0% | 47.0hPa | 2.7V | 00:00:00 | 00:00:00 | 00:00:00 | |
| DM0DOS-11 | 2026-08-31 06:09:12 | 50.11975 | 8.84362 | 356° | 9km/h | 21373m | 6m/s | -53.5°C | 3.7% | 47.1hPa | 2.7V | 03:40:46 | 01:40:18 | 00:00:00 | |
| BIOWL1-15 | 2026-08-31 06:09:12 | 50.11990 | 8.84359 | 352° | 15km/h | 21398m | 5.2m/s | -53.6°C | 0.5% | 47hPa | 2.6V | 03:40:46 | 01:40:23 | 00:00:00 | |
| DL1XH-west | 2026-08-31 06:09:11 | 50.11986 | 8.84360 | 353° | 15km/h | 21393m | 4.4m/s | -53.5°C | 0.4% | 47hPa | 2.6V | 03:40:46 | 01:40:22 | 00:00:00 | |
| BIOWL9-15 | 2026-08-31 06:09:10 | 50.11980 | 8.84361 | 348° | 9km/h | 21383m | 5.2m/s | -53.5°C | 1.0% | 47.1hPa | 2.6V | 00:00:00 | 00:00:00 | 00:00:00 | |
| DL1XH1-15 | 2026-08-31 06:09:09 | 50.11968 | 8.84363 | 352° | 9km/h | 21357m | 5.8m/s | -53.5°C | 3.7% | 47.3hPa | 2.6V | 03:40:49 | 01:40:15 | 00:00:00 | |
| HSKMA3-T | 2026-08-31 06:09:08 | 50.11978 | 8.84362 | 352° | 9km/h | 21378m | 4.3m/s | -53.6°C | 0.5% | 47.1hPa | 2.7V | 03:40:46 | 01:40:19 | 00:00:00 | |
| DL3AQ-11 | 2026-08-31 06:09:07 | 50.11973 | 8.84362 | 359° | 11km/h | 21367m | 4.9m/s | -53.5°C | 1.0% | 47.2hPa | 2.6V | 00:00:00 | 00:00:00 | 00:00:00 | |
| DO1YAY-16 | 2026-08-31 06:09:06 | 50.11970 | 8.84362 | 356° | 9km/h | 21363m | 4.9m/s | -53.5°C | 1.0% | 47.2hPa | 2.6V | 00:00:00 | 00:00:00 | 00:00:00 | |
| DL1XH-15 | 2026-08-31 06:09:05 | 50.11958 | 8.84364 | 1° | 13km/h | 21337m | 5.1m/s | -53.6°C | 3.8% | 47.4hPa | 2.6V | 03:40:53 | 01:40:11 | 00:00:00 | |
| NBG1-10 | 2026-08-31 06:09:05 | 50.11970 | 8.84362 | 357° | 11km/h | 21363m | 4.8m/s | -53.5°C | 3.7% | 47.2hPa | 2.7V | 03:40:00 | 01:40:16 | 00:00:00 | |
| DK5PH-5 | 2026-08-31 06:09:03 | 50.11966 | 8.84363 | 351° | 11km/h | 21352m | 4.1m/s | -53.5°C | 3.7% | 47.2hPa | 2.7V | 00:00:00 | 01:40:14 | 00:00:00 | |
| DM0DOS-11 | 2026-08-31 06:09:02 | 50.11950 | 8.84361 | 27° | 11km/h | 21322m | 3.8m/s | -53.5°C | 3.8% | 47.5hPa | 2.7V | 03:40:56 | 01:40:08 | 00:00:00 | |
| BIOWL1-15 | 2026-08-31 06:09:02 | 50.11964 | 8.84364 | 353° | 9km/h | 21347m | 5.4m/s | -53.6°C | 0.5% | 47.3hPa | 2.7V | 03:41:37 | 01:40:13 | 00:00:00 | |
| DL1XH-west | 2026-08-31 06:09:00 | 50.11958 | 8.84364 | 1° | 13km/h | 21337m | 5.1m/s | -53.6°C | 0.6% | 47.4hPa | 2.6V | 03:41:37 | 01:40:11 | 00:00:00 | |
| DL1XH1-15 | 2026-08-31 06:08:59 | 50.11942 | 8.84353 | 40° | 15km/h | 21306m | 5m/s | -53.5°C | 3.8% | 47.6hPa | 2.6V | 03:40:59 | 01:40:05 | 00:00:00 | |
| HSKMA3-T | 2026-08-31 06:08:58 | 50.11952 | 8.84363 | 16° | 9km/h | 21326m | 4.7m/s | -53.5°C | 0.5% | 47.5hPa | 2.7V | 03:41:37 | 01:40:09 | 00:00:00 | |
| DL3AQ-11 | 2026-08-31 06:08:56 | 50.11945 | 8.84356 | 36° | 15km/h | 21312m | 5.2m/s | -53.5°C | 1.0% | 47.6hPa | 2.7V | 00:00:00 | 00:00:00 | 00:00:00 | |
| DL1XH-15 | 2026-08-31 06:08:55 | 50.11935 | 8.84342 | 40° | 9km/h | 21286m | 5.8m/s | -53.4°C | 3.8% | 47.8hPa | 2.7V | 03:41:03 | 01:40:01 | 00:00:00 | |
| DD1CC2-15 | 2026-08-31 06:08:55 | 50.11945 | 8.84356 | 37° | 15km/h | 21312m | 5.2m/s | -53.5°C | 1.0% | 47.6hPa | 2.6V | 03:41:00 | 00:00:00 | 00:00:00 | |
| DO2KSM | 2026-08-31 06:08:54 | 50.11945 | 8.84356 | 37° | 15km/h | 21312m | 5.2m/s | -53.5°C | 1.0% | 47.6hPa | 2.6V | 03:41:00 | 00:00:00 | 00:00:00 | |
| HEMX73-11 | 2026-08-31 06:08:53 | 50.11942 | 8.84353 | 41° | 15km/h | 21307m | 5.0m/s | -53.5°C | 1.0% | 47.6hPa | 2.6V | 03:41:00 | 00:00:00 | 00:00:00 | |
| DM0DOS-11 | 2026-08-31 06:08:52 | 50.11929 | 8.84340 | 346° | 9km/h | 21271m | 5.5m/s | -53.3°C | 3.8% | 47.9hPa | 2.6V | 03:41:06 | 01:39:58 | 00:00:00 | |
| AA1-15 | 2026-08-31 06:08:51 | 50.11936 | 8.84344 | 49° | 7km/h | 21291m | 4.3m/s | -53.4°C | 0.5% | 47.8hPa | 2.7V | 03:41:37 | 01:40:02 | 00:00:00 | |
| DL1XH-west | 2026-08-31 06:08:50 | 50.11935 | 8.84342 | 40° | 9km/h | 21286m | 5.8m/s | -53.4°C | 0.5% | 47.8hPa | 2.7V | 03:41:37 | 01:40:01 | 00:00:00 | |
| HSKMA3-T | 2026-08-31 06:08:47 | 50.11928 | 8.84340 | 346° | 9km/h | 21271m | 5.5m/s | -53.3°C | 0.5% | 47.9hPa | 2.6V | 03:41:37 | 01:39:58 | 00:00:00 | |
| DB0NH | 2026-08-31 06:08:47 | 50.11928 | 8.84340 | 347° | 11km/h | 21271m | 5.5m/s | -53.3°C | 3.8% | 47.9hPa | 2.6V | 03:41:00 | 01:39:58 | 00:00:00 | |
| DO3MHA-11 | 2026-08-31 06:08:46 | 50.11926 | 8.84341 | 343° | 13km/h | 21266m | 4.4m/s | -53.3°C | 3.7% | 47.9hPa | 2.6V | 00:00:00 | 01:39:57 | 00:00:00 | |
| DL1XH-15 | 2026-08-31 06:08:45 | 50.11906 | 8.84339 | 30° | 13km/h | 21235m | 5.9m/s | -53.2°C | 3.7% | 48.2hPa | 2.6V | 03:41:13 | 01:39:51 | 00:00:00 | |
| DO3DL | 2026-08-31 06:08:44 | 50.11923 | 8.84342 | 351° | 13km/h | 21261m | 6.3m/s | -53.4°C | 1.0% | 48.0hPa | 2.7V | 03:41:00 | 00:00:00 | 00:00:00 | |
| DM0DOS-11 | 2026-08-31 06:08:42 | 50.11899 | 8.84328 | 56° | 9km/h | 21220m | 6m/s | -53.1°C | 3.6% | 48.3hPa | 2.7V | 03:41:16 | 01:39:48 | 00:00:00 | |
| DL1XH-west | 2026-08-31 06:08:40 | 50.11906 | 8.84339 | 31° | 13km/h | 21235m | 5.9m/s | -53.2°C | 0.4% | 48.2hPa | 2.6V | 03:41:37 | 01:39:51 | 00:00:00 | |
| HSKMA3-T | 2026-08-31 06:08:37 | 50.11899 | 8.84328 | 56° | 9km/h | 21220m | 6m/s | -53.1°C | 0.4% | 48.3hPa | 2.7V | 03:41:37 | 01:39:48 | 00:00:00 | |
| DO3MHA-11 | 2026-08-31 06:08:36 | 50.11898 | 8.84326 | 51° | 9km/h | 21215m | 4.8m/s | -53.0°C | 3.6% | 48.3hPa | 2.7V | 00:00:00 | 01:39:47 | 00:00:00 | |
| DL1XH-15 | 2026-08-31 06:08:35 | 50.11889 | 8.84333 | 320° | 9km/h | 21184m | 4.7m/s | -53°C | 3.6% | 48.6hPa | 2.7V | 03:41:23 | 01:39:41 | 00:00:00 | |
| DO1YAY-16 | 2026-08-31 06:08:35 | 50.11896 | 8.84325 | 356° | 5km/h | 21204m | 5.7m/s | -53.1°C | 1.0% | 48.4hPa | 2.6V | 00:00:00 | 00:00:00 | 00:00:00 | |
| DO8TBO-1 | 2026-08-31 06:08:34 | 50.11896 | 8.84325 | 357° | 7km/h | 21205m | 5.7m/s | -53.0°C | 3.6% | 48.4hPa | 2.6V | 00:00:00 | 01:39:45 | 00:00:00 | |
| DK5PH-5 | 2026-08-31 06:08:33 | 50.11894 | 8.84325 | 337° | 9km/h | 21200m | 4.1m/s | -53.1°C | 3.7% | 48.4hPa | 2.6V | 00:00:00 | 01:39:44 | 00:00:00 | |
| DM0DOS-11 | 2026-08-31 06:08:32 | 50.11882 | 8.84331 | 46° | 13km/h | 21170m | 4.5m/s | -53.1°C | 3.7% | 48.6hPa | 2.6V | 03:41:26 | 01:39:38 | 00:00:00 | |
| BIOWL1-15 | 2026-08-31 06:08:32 | 50.11889 | 8.84333 | 321° | 9km/h | 21185m | 4.7m/s | -53°C | 0.4% | 48.6hPa | 2.7V | 03:41:37 | 01:39:41 | 00:00:00 | |
| DL1XH-west | 2026-08-31 06:08:29 | 50.11887 | 8.84334 | 350° | 9km/h | 21179m | 5.9m/s | -53.1°C | 0.4% | 48.6hPa | 2.7V | 03:41:37 | 01:39:40 | 00:00:00 | |
| HSKMA3-T | 2026-08-31 06:08:26 | 50.11881 | 8.84327 | 62° | 13km/h | 21164m | 5.7m/s | -53.1°C | 0.5% | 48.7hPa | 2.6V | 03:41:37 | 01:39:37 | 00:00:00 | |
| DO3MHA-11 | 2026-08-31 06:08:26 | 50.11881 | 8.84327 | 62° | 9km/h | 21165m | 5.7m/s | -53.1°C | 3.7% | 48.7hPa | 2.6V | 03:41:00 | 01:39:37 | 00:00:00 | |
| DO3DL | 2026-08-31 06:08:25 | 50.11879 | 8.84322 | 78° | 13km/h | 21159m | 4.9m/s | -53.1°C | 1.0% | 48.8hPa | 2.6V | 03:41:00 | 00:00:00 | 00:00:00 | |
| DL8DAS-14 | 2026-08-31 06:08:24 | 50.11879 | 8.84317 | 83° | 13km/h | 21155m | 4.1m/s | -53.2°C | 1.0% | 48.8hPa | 2.6V | 00:00:00 | 00:00:00 | 00:00:00 | |
| DM0DOS-11 | 2026-08-31 06:08:22 | 50.11875 | 8.84296 | 356° | 5km/h | 21119m | 5.4m/s | -53.3°C | 3.7% | 49.1hPa | 2.6V | 03:41:36 | 01:39:28 | 00:00:00 | |
| DF2AP-13 | 2026-08-31 06:08:22 | 50.11877 | 8.84306 | 74° | 11km/h | 21144m | 4.9m/s | -53.2°C | 3.6% | 48.8hPa | 2.6V | 00:00:00 | 01:39:33 | 00:00:00 | |
| DL8OAI-8 | 2026-08-31 06:08:21 | 50.11877 | 8.84306 | 75° | 13km/h | 21144m | 4.9m/s | -53.2°C | 1.0% | 48.9hPa | 2.7V | 03:41:00 | 00:00:00 | 00:00:00 | |
| DD1CC8 | 2026-08-31 06:08:20 | 50.11876 | 8.84299 | 86° | 5km/h | 21134m | 5.9m/s | -53.3°C | 1.0% | 49.0hPa | 2.7V | 00:00:00 | 00:00:00 | 00:00:00 | |
| DL1XH1-15 | 2026-08-31 06:08:19 | 50.11871 | 8.84296 | 26° | 4km/h | 21105m | 5.1m/s | -53.2°C | 3.8% | 49.2hPa | 2.7V | 03:41:39 | 01:39:25 | 00:00:00 | |
| DL1XH-west | 2026-08-31 06:08:19 | 50.11876 | 8.84297 | 82° | 4km/h | 21129m | 4.2m/s | -53.3°C | 0.5% | 49hPa | 2.6V | 03:41:37 | 01:39:30 | 00:00:00 | |
| AA1-15 | 2026-08-31 06:08:18 | 50.11876 | 8.84296 | 22° | 4km/h | 21124m | 4.8m/s | -53.3°C | 0.5% | 49hPa | 2.6V | 03:41:37 | 01:39:29 | 00:00:00 | |
| HSKMA3-T | 2026-08-31 06:08:16 | 50.11873 | 8.84296 | 354° | 7km/h | 21114m | 4.2m/s | -53.3°C | 0.5% | 49.1hPa | 2.7V | 03:41:37 | 01:39:27 | 00:00:00 | |
| DO3MHA-11 | 2026-08-31 06:08:16 | 50.11873 | 8.84296 | 354° | 9km/h | 21114m | 4.2m/s | -53.2°C | 3.8% | 49.1hPa | 2.6V | 00:00:00 | 01:39:27 | 00:00:00 | |
| DB0UT-9 | 2026-08-31 06:08:15 | 50.11873 | 8.84296 | 355° | 7km/h | 21114m | 4.2m/s | -53.3°C | 1.1% | 49.1hPa | 2.6V | 03:41:00 | 00:00:00 | 00:00:00 | |
| DD1CC2-15 | 2026-08-31 06:08:13 | 50.11871 | 8.84296 | 28° | 4km/h | 21105m | 5.1m/s | -53.2°C | 1.1% | 49.2hPa | 2.6V | 03:42:00 | 00:00:00 | 00:00:00 | |
| DM0DOS-11 | 2026-08-31 06:08:12 | 50.11868 | 8.84271 | 92° | 7km/h | 21071m | 4.2m/s | -53.3°C | 3.8% | 49.4hPa | 2.6V | 03:41:46 | 01:39:18 | 00:00:00 | |
| DO3DL | 2026-08-31 06:08:12 | 50.11869 | 8.84292 | 81° | 9km/h | 21096m | 4.5m/s | -53.2°C | 1.0% | 49.3hPa | 2.7V | 03:42:00 | 00:00:00 | 00:00:00 | |
| SFWM-10 | 2026-08-31 06:08:11 | 50.11869 | 8.84292 | 81° | 9km/h | 21096m | 4.5m/s | -53.2°C | 1.0% | 49.3hPa | 2.7V | 03:42:00 | 00:00:00 | 00:00:00 | |
| SONCRA | 2026-08-31 06:08:10 | 50.11868 | 8.84283 | 78° | 11km/h | 21086m | 4.3m/s | -53.2°C | 1.0% | 49.3hPa | 2.7V | 00:00:00 | 00:00:00 | 00:00:00 | |
| DL1XH1-15 | 2026-08-31 06:08:09 | 50.11865 | 8.84264 | 37° | 11km/h | 21057m | 4m/s | -53.1°C | 3.7% | 49.5hPa | 2.7V | 03:41:49 | 01:39:15 | 00:00:00 | |
| BIOWL1-15 | 2026-08-31 06:08:09 | 50.11868 | 8.84278 | 84° | 13km/h | 21081m | 5m/s | -53.2°C | 0.5% | 49.4hPa | 2.7V | 03:42:28 | 01:39:20 | 00:00:00 | |
| AA1-15 | 2026-08-31 06:08:07 | 50.11868 | 8.84271 | 93° | 7km/h | 21072m | 4.3m/s | -53.3°C | 0.5% | 49.5hPa | 2.6V | 03:42:28 | 01:39:18 | 00:00:00 | |
| HSKMA3-T | 2026-08-31 06:08:05 | 50.11867 | 8.84266 | 46° | 7km/h | 21062m | 5.1m/s | -53.2°C | 0.5% | 49.5hPa | 2.6V | 03:42:28 | 01:39:16 | 00:00:00 | |
| CB1BUN | 2026-08-31 06:08:04 | 50.11865 | 8.84264 | 39° | 11km/h | 21057m | 4.0m/s | -53.1°C | 1.0% | 49.5hPa | 2.7V | 03:42:00 | 00:00:00 | 00:00:00 | |
| DK5PH-5 | 2026-08-31 06:08:03 | 50.11863 | 8.84261 | 40° | 20km/h | 21053m | 5.6m/s | -53.1°C | 3.7% | 49.5hPa | 2.7V | 03:41:00 | 01:39:14 | 00:00:00 | |
| DM0DOS-11 | 2026-08-31 06:08:02 | 50.11846 | 8.84233 | 58° | 18km/h | 21021m | 5m/s | -53°C | 3.7% | 49.8hPa | 2.7V | 03:41:56 | 01:39:08 | 00:00:00 | |
| DJ2DS-15 | 2026-08-31 06:08:02 | 50.11861 | 8.84258 | 46° | 18km/h | 21047m | 4.6m/s | -53.1°C | 3.7% | 49.6hPa | 2.6V | 03:41:00 | 01:39:13 | 00:00:00 | |
| DL8OAI-8 | 2026-08-31 06:08:00 | 50.11858 | 8.84254 | 46° | 15km/h | 21043m | 4.1m/s | -53.1°C | 1.0% | 49.7hPa | 2.6V | 03:42:00 | 00:00:00 | 00:00:00 | |
| DL1XH1-15 | 2026-08-31 06:07:59 | 50.11838 | 8.84216 | 47° | 16km/h | 21006m | 4.7m/s | -53°C | 3.7% | 49.9hPa | 2.6V | 03:41:59 | 01:39:05 | 00:00:00 | |
| DL1XH-west | 2026-08-31 06:07:58 | 50.11849 | 8.84239 | 50° | 20km/h | 21027m | 5.7m/s | -53.1°C | 0.4% | 49.8hPa | 2.7V | 03:42:28 | 01:39:09 | 00:00:00 | |
| AA1-15 | 2026-08-31 06:07:56 | 50.11843 | 8.84227 | 59° | 18km/h | 21017m | 4.5m/s | -53°C | 0.4% | 49.9hPa | 2.6V | 03:42:28 | 01:39:07 | 00:00:00 | |
| HSKMA3-T | 2026-08-31 06:07:55 | 50.11841 | 8.84222 | 53° | 16km/h | 21012m | 6.1m/s | -53°C | 0.4% | 49.9hPa | 2.6V | 03:42:28 | 01:39:06 | 00:00:00 | |
| DJ2DS-15 | 2026-08-31 06:07:55 | 50.11838 | 8.84217 | 47° | 16km/h | 21006m | 4.7m/s | -53.0°C | 1.0% | 49.9hPa | 2.7V | 00:00:00 | 00:00:00 | 00:00:00 | |
| DL8DAS-14 | 2026-08-31 06:07:53 | 50.11835 | 8.84212 | 47° | 15km/h | 21002m | 4.7m/s | -52.9°C | 0.9% | 50.0hPa | 2.7V | 00:00:00 | 00:00:00 | 00:00:00 | |
| DM0DOS-11 | 2026-08-31 06:07:52 | 50.11815 | 8.84184 | 34° | 24km/h | 20971m | 4.7m/s | -52.7°C | 3.6% | 50.2hPa | 2.7V | 03:42:06 | 01:38:58 | 00:00:00 | |
| DF2AP-13 | 2026-08-31 06:07:52 | 50.11833 | 8.84207 | 54° | 27km/h | 20996m | 5.7m/s | -52.8°C | 3.6% | 50.0hPa | 2.6V | 00:00:00 | 01:39:03 | 00:00:00 | |
| DO2KSM | 2026-08-31 06:07:51 | 50.11833 | 8.84207 | 54° | 15km/h | 20996m | 5.8m/s | -52.9°C | 1.0% | 50.0hPa | 2.6V | 03:42:00 | 00:00:00 | 00:00:00 | |
| SFWM-10 | 2026-08-31 06:07:50 | 50.11830 | 8.84202 | 53° | 15km/h | 20992m | 4.3m/s | -52.8°C | 1.0% | 50.1hPa | 2.6V | 03:42:00 | 00:00:00 | 00:00:00 | |
| DL1XH1-15 | 2026-08-31 06:07:49 | 50.11802 | 8.84167 | 40° | 24km/h | 20956m | 5.1m/s | -52.7°C | 3.6% | 50.3hPa | 2.6V | 03:42:09 | 01:38:55 | 00:00:00 | |
| DL1XH-west | 2026-08-31 06:07:47 | 50.11815 | 8.84184 | 34° | 24km/h | 20971m | 4.7m/s | -52.7°C | 0.4% | 50.2hPa | 2.7V | 03:42:28 | 01:38:58 | 00:00:00 | |
| DB0NH | 2026-08-31 06:07:47 | 50.11815 | 8.84184 | 35° | 27km/h | 20971m | 4.7m/s | -52.7°C | 3.6% | 50.1hPa | 2.6V | 00:00:00 | 01:38:58 | 00:00:00 | |
| DO3MHA-11 | 2026-08-31 06:07:46 | 50.11811 | 8.84178 | 39° | 24km/h | 20966m | 5.4m/s | -52.6°C | 3.6% | 50.2hPa | 2.6V | 03:42:00 | 01:38:57 | 00:00:00 | |
| DL1XH-15 | 2026-08-31 06:07:45 | 50.11782 | 8.84141 | 42° | 24km/h | 20935m | 4.6m/s | -52.5°C | 3.5% | 50.5hPa | 2.6V | 03:42:13 | 01:38:51 | 00:00:00 | |
| HSKMA3-T | 2026-08-31 06:07:45 | 50.11806 | 8.84173 | 41° | 22km/h | 20961m | 4.5m/s | -52.7°C | 0.4% | 50.3hPa | 2.6V | 03:42:28 | 01:38:56 | 00:00:00 | |
| CB1BUN | 2026-08-31 06:07:43 | 50.11802 | 8.84167 | 42° | 24km/h | 20957m | 5.1m/s | -52.7°C | 1.0% | 50.3hPa | 2.7V | 03:42:00 | 00:00:00 | 00:00:00 | |
| DM0DOS-11 | 2026-08-31 06:07:42 | 50.11768 | 8.84123 | 37° | 26km/h | 20921m | 4.5m/s | -52.6°C | 3.6% | 50.6hPa | 2.7V | 03:42:16 | 01:38:48 | 00:00:00 | |
| BIOWL1-15 | 2026-08-31 06:07:40 | 50.11763 | 8.84117 | 40° | 26km/h | 20916m | 5.8m/s | -52.7°C | 0.4% | 50.6hPa | 2.7V | 03:42:28 | 01:38:47 | 00:00:00 | |
| DL1XH1-15 | 2026-08-31 06:07:39 | 50.11753 | 8.84102 | 45° | 27km/h | 20906m | 4.1m/s | -52.7°C | 3.6% | 50.7hPa | 2.6V | 03:42:19 | 01:38:45 | 00:00:00 | |
| DL1XH-west | 2026-08-31 06:07:37 | 50.11768 | 8.84123 | 38° | 26km/h | 20921m | 4.5m/s | -52.7°C | 0.4% | 50.6hPa | 2.7V | 03:42:28 | 01:38:48 | 00:00:00 | |
| AA1-15 | 2026-08-31 06:07:35 | 50.11758 | 8.84110 | 45° | 26km/h | 20910m | 4.6m/s | -52.7°C | 0.4% | 50.7hPa | 2.6V | 03:42:28 | 01:38:46 | 00:00:00 | |
| HSKMA3-T | 2026-08-31 06:07:34 | 50.11753 | 8.84102 | 46° | 27km/h | 20906m | 4.1m/s | -52.7°C | 0.4% | 50.7hPa | 2.6V | 03:42:28 | 01:38:45 | 00:00:00 | |
| DO8TBO-1 | 2026-08-31 06:07:34 | 50.11753 | 8.84102 | 46° | 29km/h | 20906m | 4.1m/s | -52.7°C | 3.6% | 50.7hPa | 2.6V | 03:42:00 | 01:38:45 | 00:00:00 | |
| DK5PH-5 | 2026-08-31 06:07:33 | 50.11748 | 8.84094 | 44° | 29km/h | 20901m | 5.7m/s | -52.8°C | 3.6% | 50.7hPa | 2.6V | 00:00:00 | 01:38:44 | 00:00:00 | |
| DD1CC2-15 | 2026-08-31 06:07:32 | 50.11748 | 8.84094 | 45° | 31km/h | 20901m | 5.7m/s | -52.9°C | 1.0% | 50.8hPa | 2.6V | 03:42:00 | 00:00:00 | 00:00:00 | |
| HEMX73-11 | 2026-08-31 06:07:31 | 50.11742 | 8.84086 | 41° | 35km/h | 20896m | 5.0m/s | -52.9°C | 1.0% | 50.8hPa | 2.6V | 03:42:00 | 00:00:00 | 00:00:00 | |
| SFWM-10 | 2026-08-31 06:07:30 | 50.11735 | 8.84077 | 38° | 35km/h | 20891m | 5.1m/s | -52.9°C | 1.0% | 50.8hPa | 2.6V | 03:42:00 | 00:00:00 | 00:00:00 | |
| DL1XH1-15 | 2026-08-31 06:07:29 | 50.11686 | 8.84026 | 36° | 29km/h | 20855m | 5.5m/s | -52.7°C | 3.6% | 51.1hPa | 2.6V | 03:42:29 | 01:38:35 | 00:00:00 | |
| DL1XH-west | 2026-08-31 06:07:26 | 50.11699 | 8.84040 | 32° | 35km/h | 20866m | 4.3m/s | -52.8°C | 0.4% | 51hPa | 2.7V | 03:42:28 | 01:38:37 | 00:00:00 | |
| AA1-15 | 2026-08-31 06:07:24 | 50.11686 | 8.84026 | 36° | 29km/h | 20855m | 5.5m/s | -52.7°C | 0.4% | 51.1hPa | 2.6V | 03:43:19 | 01:38:35 | 00:00:00 | |
| HSKMA3-T | 2026-08-31 06:07:23 | 50.11680 | 8.84019 | 37° | 27km/h | 20850m | 4.6m/s | -52.7°C | 0.4% | 51.2hPa | 2.6V | 03:43:19 | 01:38:34 | 00:00:00 | |
| DJ2DS-15 | 2026-08-31 06:07:22 | 50.11675 | 8.84013 | 35° | 27km/h | 20845m | 5.6m/s | -52.6°C | 3.6% | 51.2hPa | 2.6V | 00:00:00 | 01:38:33 | 00:00:00 | |
| DL3AQ-11 | 2026-08-31 06:07:20 | 50.11655 | 8.83994 | 30° | 31km/h | 20830m | 5.1m/s | -52.6°C | 1.0% | 51.3hPa | 2.6V | 00:00:00 | 00:00:00 | 00:00:00 | |
| DL1XH1-15 | 2026-08-31 06:07:19 | 50.11622 | 8.83962 | 32° | 33km/h | 20805m | 4.8m/s | -52.6°C | 3.6% | 51.5hPa | 2.6V | 03:42:39 | 01:38:25 | 00:00:00 | |
| BIOWL1-15 | 2026-08-31 06:07:16 | 50.11636 | 8.83976 | 33° | 31km/h | 20815m | 5.2m/s | -52.7°C | 0.4% | 51.4hPa | 2.7V | 03:43:19 | 01:38:27 | 00:00:00 | |
| DL1XH-west | 2026-08-31 06:07:15 | 50.11629 | 8.83969 | 32° | 33km/h | 20810m | 5.2m/s | -52.7°C | 0.4% | 51.5hPa | 2.7V | 03:43:19 | 01:38:26 | 00:00:00 | |
| AA1-15 | 2026-08-31 06:07:13 | 50.11615 | 8.83955 | 34° | 31km/h | 20800m | 5.9m/s | -52.6°C | 0.4% | 51.5hPa | 2.6V | 03:43:19 | 01:38:24 | 00:00:00 | |
| DM0DOS-11 | 2026-08-31 06:07:12 | 50.11582 | 8.83917 | 41° | 22km/h | 20768m | 5.3m/s | -52.5°C | 3.6% | 51.8hPa | 2.6V | 03:42:46 | 01:38:18 | 00:00:00 | |
| HSKMA3-T | 2026-08-31 06:07:12 | 50.11609 | 8.83948 | 36° | 27km/h | 20794m | 5m/s | -52.6°C | 0.4% | 51.6hPa | 2.6V | 03:43:19 | 01:38:23 | 00:00:00 | |
| DB0UT-7 | 2026-08-31 06:07:12 | 50.11609 | 8.83948 | 37° | 22km/h | 20794m | 5.0m/s | -52.5°C | 3.6% | 51.5hPa | 2.7V | 00:00:00 | 00:00:00 | 00:00:00 | |
| DD1CC2-15 | 2026-08-31 06:07:11 | 50.11609 | 8.83949 | 37° | 27km/h | 20794m | 5.0m/s | -52.6°C | 1.0% | 51.6hPa | 2.7V | 03:43:00 | 00:00:00 | 00:00:00 | |
| HEMX73-11 | 2026-08-31 06:07:10 | 50.11603 | 8.83942 | 37° | 27km/h | 20789m | 4.8m/s | -52.6°C | 1.0% | 51.7hPa | 2.7V | 03:43:00 | 00:00:00 | 00:00:00 | |
| DL1XH1-15 | 2026-08-31 06:07:09 | 50.11569 | 8.83900 | 42° | 22km/h | 20753m | 3.9m/s | -52.5°C | 3.6% | 51.9hPa | 2.7V | 03:42:49 | 01:38:15 | 00:00:00 | |
| BIOWL1-15 | 2026-08-31 06:07:08 | 50.11578 | 8.83911 | 41° | 22km/h | 20763m | 5.1m/s | -52.5°C | 0.4% | 51.8hPa | 2.6V | 03:43:19 | 01:38:17 | 00:00:00 | |
| DL1XH-west | 2026-08-31 06:07:05 | 50.11573 | 8.83906 | 40° | 22km/h | 20757m | 5.5m/s | -52.5°C | 0.4% | 51.9hPa | 2.7V | 03:43:19 | 01:38:16 | 00:00:00 | |
| HSKMA3-T | 2026-08-31 06:07:02 | 50.11562 | 8.83889 | 50° | 20km/h | 20742m | 4.9m/s | -52.4°C | 0.4% | 52hPa | 2.6V | 03:43:19 | 01:38:13 | 00:00:00 | |
| SONDE2-11 | 2026-08-31 06:07:01 | 50.11554 | 8.83877 | 40° | 24km/h | 20732m | 5.6m/s | -52.3°C | 0.9% | 52.1hPa | 2.7V | 00:00:00 | 00:00:00 | 00:00:00 | |
| DL1XH1-15 | 2026-08-31 06:06:59 | 50.11524 | 8.83845 | 27° | 26km/h | 20702m | 5.7m/s | -52.1°C | 3.5% | 52.3hPa | 2.7V | 03:42:59 | 01:38:05 | 00:00:00 | |
| DB0ND-19 | 2026-08-31 06:06:57 | 50.11539 | 8.83859 | 34° | 22km/h | 20717m | 5.1m/s | -52.2°C | 1.0% | 52.2hPa | 2.7V | 00:00:00 | 00:00:00 | 00:00:00 | |
| DL3AQ-11 | 2026-08-31 06:06:56 | 50.11529 | 8.83849 | 29° | 24km/h | 20708m | 4.7m/s | -52.1°C | 0.9% | 52.3hPa | 2.7V | 00:00:00 | 00:00:00 | 00:00:00 | |
| DL1XH-15 | 2026-08-31 06:06:55 | 50.11504 | 8.83828 | 35° | 16km/h | 20683m | 4.6m/s | -52.1°C | 3.5% | 52.5hPa | 2.7V | 03:43:03 | 01:38:01 | 00:00:00 | |
| BIOWL1-15 | 2026-08-31 06:06:55 | 50.11529 | 8.83849 | 30° | 24km/h | 20708m | 4.7m/s | -52.1°C | 0.3% | 52.3hPa | 2.7V | 03:43:19 | 01:38:06 | 00:00:00 | |
| DL1XH-west | 2026-08-31 06:06:54 | 50.11524 | 8.83845 | 27° | 26km/h | 20702m | 5.7m/s | -52.1°C | 0.3% | 52.3hPa | 2.7V | 03:43:19 | 01:38:05 | 00:00:00 | |
| HSKMA3-T | 2026-08-31 06:06:51 | 50.11508 | 8.83832 | 33° | 18km/h | 20688m | 5.2m/s | -52.2°C | 0.4% | 52.4hPa | 2.6V | 03:43:19 | 01:38:02 | 00:00:00 | |
| BIOWL1-15 | 2026-08-31 06:06:49 | 50.11485 | 8.83816 | 15° | 16km/h | 20658m | 5.3m/s | -52.1°C | 0.2% | 52.7hPa | 2.6V | 03:43:19 | 01:37:56 | 00:00:00 | |
| SFWM-10 | 2026-08-31 06:06:48 | 50.11501 | 8.83824 | 34° | 16km/h | 20678m | 5.1m/s | -52.1°C | 0.9% | 52.6hPa | 2.6V | 03:43:00 | 00:00:00 | 00:00:00 | |
| DB0NH | 2026-08-31 06:06:47 | 50.11493 | 8.83819 | 16° | 20km/h | 20668m | 4.1m/s | -52.0°C | 3.4% | 52.6hPa | 2.6V | 03:43:00 | 01:37:58 | 00:00:00 | |
| DO3MHA-11 | 2026-08-31 06:06:46 | 50.11489 | 8.83817 | 13° | 20km/h | 20663m | 5.2m/s | -52.0°C | 3.4% | 52.6hPa | 2.6V | 00:00:00 | 01:37:57 | 00:00:00 | |
| DL1XH-15 | 2026-08-31 06:06:45 | 50.11459 | 8.83806 | 12° | 24km/h | 20633m | 5.4m/s | -52.5°C | 3.6% | 52.9hPa | 2.6V | 03:43:13 | 01:37:51 | 00:00:00 | |
| DL1XH-west | 2026-08-31 06:06:44 | 50.11481 | 8.83814 | 16° | 18km/h | 20653m | 4.7m/s | -52.1°C | 0.2% | 52.8hPa | 2.7V | 03:43:19 | 01:37:55 | 00:00:00 | |
| DJ2DS-15 | 2026-08-31 06:06:43 | 50.11471 | 8.83810 | 12° | 24km/h | 20642m | 5.0m/s | -52.4°C | 0.9% | 52.8hPa | 2.6V | 00:00:00 | 00:00:00 | 00:00:00 | |
| DJ2DS-15 | 2026-08-31 06:06:42 | 50.11471 | 8.83810 | 13° | 22km/h | 20642m | 5.0m/s | -52.3°C | 3.5% | 52.8hPa | 2.6V | 03:43:00 | 01:37:53 | 00:00:00 | |
| DM0DOS-11 | 2026-08-31 06:06:41 | 50.11441 | 8.83803 | 352° | 18km/h | 20614m | 5.7m/s | -52.5°C | 3.4% | 53hPa | 2.6V | 03:43:17 | 01:37:47 | 00:00:00 | |
| HSKMA3-T | 2026-08-31 06:06:41 | 50.11465 | 8.83808 | 12° | 26km/h | 20637m | 3.5m/s | -52.5°C | 0.3% | 52.9hPa | 2.6V | 03:43:19 | 01:37:52 | 00:00:00 | |
| AA1-15 | 2026-08-31 06:06:40 | 50.11459 | 8.83806 | 13° | 24km/h | 20633m | 5.4m/s | -52.5°C | 0.4% | 52.9hPa | 2.6V | 03:43:19 | 01:37:51 | 00:00:00 | |
| DL3AQ-11 | 2026-08-31 06:06:40 | 50.11454 | 8.83804 | 11° | 18km/h | 20628m | 5.4m/s | -52.4°C | 0.9% | 52.9hPa | 2.6V | 00:00:00 | 00:00:00 | 00:00:00 | |
| DL1XH1-15 | 2026-08-31 06:06:39 | 50.11432 | 8.83806 | 346° | 20km/h | 20603m | 4.3m/s | -52.6°C | 3.6% | 53.1hPa | 2.6V | 03:43:19 | 01:37:45 | 00:00:00 | |
| DC4HF-4 | 2026-08-31 06:06:37 | 50.11445 | 8.83803 | 357° | 15km/h | 20619m | 4.1m/s | -52.4°C | 0.9% | 53.0hPa | 2.6V | 00:00:00 | 00:00:00 | 00:00:00 | |
| DO3MHA-11 | 2026-08-31 06:06:36 | 50.11441 | 8.83803 | 353° | 20km/h | 20614m | 5.7m/s | -52.4°C | 3.4% | 53.0hPa | 2.6V | 00:00:00 | 01:37:47 | 00:00:00 | |
| DL1XH-15 | 2026-08-31 06:06:35 | 50.11412 | 8.83812 | 354° | 24km/h | 20583m | 5.3m/s | -52.4°C | 3.6% | 53.3hPa | 2.6V | 03:43:23 | 01:37:41 | 00:00:00 | |
| BIOWL1-15 | 2026-08-31 06:06:34 | 50.11431 | 8.83806 | 347° | 20km/h | 20604m | 4.4m/s | -52.6°C | 0.4% | 53.1hPa | 2.6V | 03:43:19 | 01:37:45 | 00:00:00 | |
| DL1XH-west | 2026-08-31 06:06:33 | 50.11427 | 8.83808 | 344° | 18km/h | 20598m | 5.8m/s | -52.5°C | 0.3% | 53.2hPa | 2.7V | 03:44:10 | 01:37:44 | 00:00:00 | |
| DK5PH-5 | 2026-08-31 06:06:33 | 50.11427 | 8.83808 | 344° | 24km/h | 20599m | 5.7m/s | -52.4°C | 3.6% | 53.1hPa | 2.7V | 00:00:00 | 01:37:44 | 00:00:00 | |
| DL9PN | 2026-08-31 06:06:32 | 50.11422 | 8.83810 | 347° | 18km/h | 20593m | 4.9m/s | -52.4°C | 0.9% | 53.2hPa | 2.7V | 00:00:00 | 00:00:00 | 00:00:00 | |
| DM0DOS-11 | 2026-08-31 06:06:31 | 50.11389 | 8.83816 | 351° | 20km/h | 20563m | 4m/s | -52.4°C | 3.5% | 53.5hPa | 2.7V | 03:43:27 | 01:37:37 | 00:00:00 | |
| HSKMA3-T | 2026-08-31 06:06:31 | 50.11417 | 8.83811 | 352° | 20km/h | 20588m | 5m/s | -52.4°C | 0.3% | 53.3hPa | 2.7V | 03:44:10 | 01:37:42 | 00:00:00 | |
| AA1-15 | 2026-08-31 06:06:29 | 50.11406 | 8.83813 | 355° | 26km/h | 20578m | 4.1m/s | -52.4°C | 0.3% | 53.4hPa | 2.6V | 03:44:10 | 01:37:40 | 00:00:00 | |
| BIOWL7-15 | 2026-08-31 06:06:28 | 50.11406 | 8.83813 | 356° | 26km/h | 20579m | 4.1m/s | -52.4°C | 0.9% | 53.4hPa | 2.6V | 03:44:00 | 00:00:00 | 00:00:00 | |
| DJ2KF-10 | 2026-08-31 06:06:27 | 50.11394 | 8.83815 | 352° | 24km/h | 20568m | 5.1m/s | -52.3°C | 3.5% | 53.4hPa | 2.6V | 00:00:00 | 01:37:38 | 00:00:00 | |
| DO3MHA-11 | 2026-08-31 06:06:26 | 50.11389 | 8.83816 | 352° | 22km/h | 20564m | 4.0m/s | -52.3°C | 3.5% | 53.5hPa | 2.6V | 03:43:00 | 01:37:37 | 00:00:00 | |
| DL1XH-15 | 2026-08-31 06:06:25 | 50.11357 | 8.83811 | 27° | 20km/h | 20533m | 4.6m/s | -52.5°C | 3.5% | 53.7hPa | 2.6V | 03:43:33 | 01:37:31 | 00:00:00 | |
| DL1XH-west | 2026-08-31 06:06:23 | 50.11373 | 8.83818 | 5° | 24km/h | 20549m | 4.6m/s | -52.5°C | 0.4% | 53.6hPa | 2.7V | 03:44:10 | 01:37:34 | 00:00:00 | |
| HSKMA3-T | 2026-08-31 06:06:20 | 50.11357 | 8.83811 | 27° | 20km/h | 20533m | 4.6m/s | -52.5°C | 0.3% | 53.7hPa | 2.6V | 03:44:10 | 01:37:31 | 00:00:00 | |
| AA1-15 | 2026-08-31 06:06:18 | 50.11347 | 8.83803 | 23° | 24km/h | 20522m | 4.9m/s | -52.5°C | 0.3% | 53.8hPa | 2.7V | 03:44:10 | 01:37:29 | 00:00:00 | |
| DL8OAI-8 | 2026-08-31 06:06:17 | 50.11347 | 8.83803 | 24° | 24km/h | 20523m | 4.9m/s | -52.5°C | 1.0% | 53.8hPa | 2.7V | 03:44:00 | 00:00:00 | 00:00:00 | |
| DO3MHA-11 | 2026-08-31 06:06:16 | 50.11336 | 8.83797 | 22° | 24km/h | 20512m | 6.2m/s | -52.3°C | 3.5% | 53.9hPa | 2.7V | 00:00:00 | 01:37:27 | 00:00:00 | |
| DL1XH-15 | 2026-08-31 06:06:15 | 50.11303 | 8.83778 | 23° | 22km/h | 20481m | 4.2m/s | -52.5°C | 3.6% | 54.2hPa | 2.7V | 03:43:43 | 01:37:21 | 00:00:00 | |
| DL1XH-west | 2026-08-31 06:06:12 | 50.11314 | 8.83785 | 18° | 26km/h | 20492m | 4.2m/s | -52.4°C | 0.3% | 54.1hPa | 2.7V | 03:44:10 | 01:37:23 | 00:00:00 | |
| HSKMA3-T | 2026-08-31 06:06:09 | 50.11297 | 8.83774 | 25° | 24km/h | 20477m | 4.3m/s | -52.6°C | 0.4% | 54.2hPa | 2.6V | 03:44:10 | 01:37:20 | 00:00:00 | |
| AA1-15 | 2026-08-31 06:06:07 | 50.11285 | 8.83765 | 29° | 31km/h | 20467m | 5.2m/s | -52.6°C | 0.3% | 54.3hPa | 2.6V | 03:44:10 | 01:37:18 | 00:00:00 | |
| DL1XH-west | 2026-08-31 06:06:02 | 50.11253 | 8.83733 | 28° | 29km/h | 20442m | 5.7m/s | -52.7°C | 0.4% | 54.5hPa | 2.7V | 03:44:10 | 01:37:13 | 00:00:00 | |
| BIOWL1-15 | 2026-08-31 06:06:01 | 50.11246 | 8.83728 | 21° | 31km/h | 20437m | 4.9m/s | -52.6°C | 0.4% | 54.5hPa | 2.7V | 03:44:10 | 01:37:12 | 00:00:00 | |
| HSKMA3-T | 2026-08-31 06:05:59 | 50.11231 | 8.83721 | 13° | 29km/h | 20428m | 5.3m/s | -52.6°C | 0.3% | 54.6hPa | 2.6V | 03:44:10 | 01:37:10 | 00:00:00 | |
| AA1-15 | 2026-08-31 06:05:56 | 50.11211 | 8.83713 | 19° | 29km/h | 20413m | 5.1m/s | -52.7°C | 0.4% | 54.7hPa | 2.7V | 03:44:10 | 01:37:07 | 00:00:00 | |
| DB0ND-19 | 2026-08-31 06:05:55 | 50.11196 | 8.83704 | 22° | 35km/h | 20403m | 3.8m/s | -52.7°C | 1.0% | 54.8hPa | 2.6V | 00:00:00 | 00:00:00 | 00:00:00 | |
| DF7PN | 2026-08-31 06:05:54 | 50.11196 | 8.83704 | 22° | 35km/h | 20403m | 3.8m/s | -52.7°C | 1.0% | 54.8hPa | 2.6V | 00:00:00 | 00:00:00 | 00:00:00 | |
| DJTTGO | 2026-08-31 06:05:53 | 50.11196 | 8.83704 | 24° | 35km/h | 20403m | 3.8m/s | -52.7°C | 1.0% | 54.8hPa | 2.6V | 00:00:00 | 00:00:00 | 00:00:00 | |
| DF2AP-13 | 2026-08-31 06:05:52 | 50.11180 | 8.83692 | 27° | 26km/h | 20393m | 5.2m/s | -52.7°C | 3.6% | 54.9hPa | 2.6V | 00:00:00 | 01:37:03 | 00:00:00 | |
| DM0DOS-11 | 2026-08-31 06:05:51 | 50.11132 | 8.83674 | 2° | 29km/h | 20365m | 5.4m/s | -52.7°C | 3.6% | 55.2hPa | 2.6V | 03:44:07 | 01:36:57 | 00:00:00 | |
| BIOWL1-15 | 2026-08-31 06:05:51 | 50.11172 | 8.83687 | 23° | 33km/h | 20388m | 4.3m/s | -52.7°C | 0.4% | 55hPa | 2.7V | 03:44:10 | 01:37:02 | 00:00:00 | |
| DL1XH1-15 | 2026-08-31 06:05:49 | 50.11118 | 8.83674 | 359° | 29km/h | 20354m | 5.7m/s | -52.7°C | 3.6% | 55.2hPa | 2.7V | 03:44:09 | 01:36:55 | 00:00:00 | |
| HSKMA3-T | 2026-08-31 06:05:49 | 50.11157 | 8.83679 | 13° | 35km/h | 20379m | 5m/s | -52.6°C | 0.5% | 55hPa | 2.7V | 03:44:10 | 01:37:00 | 00:00:00 | |
| DD1CC2-15 | 2026-08-31 06:05:48 | 50.11148 | 8.83676 | 9° | 35km/h | 20374m | 4.1m/s | -52.6°C | 1.0% | 55.1hPa | 2.6V | 03:44:00 | 00:00:00 | 00:00:00 | |
| NBG1-10 | 2026-08-31 06:05:47 | 50.11140 | 8.83675 | 4° | 24km/h | 20370m | 4.5m/s | -52.6°C | 3.6% | 55.1hPa | 2.6V | 00:00:00 | 01:36:58 | 00:00:00 | |
| DO3MHA-11 | 2026-08-31 06:05:46 | 50.11132 | 8.83674 | 3° | 27km/h | 20365m | 5.3m/s | -52.6°C | 3.6% | 55.1hPa | 2.6V | 03:44:00 | 01:36:57 | 00:00:00 | |
| DL1XH-15 | 2026-08-31 06:05:45 | 50.11090 | 8.83673 | 5° | 24km/h | 20333m | 5m/s | -52.5°C | 3.5% | 55.4hPa | 2.6V | 03:44:13 | 01:36:51 | 00:00:00 | |
| AA1-15 | 2026-08-31 06:05:45 | 50.11125 | 8.83674 | 1° | 27km/h | 20360m | 4.8m/s | -52.7°C | 0.3% | 55.2hPa | 2.6V | 03:44:10 | 01:36:56 | 00:00:00 | |
| BIOWL1-15 | 2026-08-31 06:05:45 | 50.11096 | 8.83674 | 3° | 26km/h | 20339m | 6.4m/s | -52.5°C | 0.3% | 55.4hPa | 2.6V | 03:45:01 | 01:36:52 | 00:00:00 | |
| DL1XH-west | 2026-08-31 06:05:40 | 50.11090 | 8.83673 | 6° | 24km/h | 20333m | 5.1m/s | -52.5°C | 0.3% | 55.4hPa | 2.6V | 03:45:01 | 01:36:51 | 00:00:00 | |
| DB0UT-7 | 2026-08-31 06:05:40 | 50.11090 | 8.83673 | 6° | 20km/h | 20334m | 5.0m/s | -52.4°C | 3.5% | 55.4hPa | 2.7V | 00:00:00 | 01:36:51 | 00:00:00 | |
| DM0DOS-11 | 2026-08-31 06:05:39 | 50.11065 | 8.83671 | 357° | 24km/h | 20313m | 5.8m/s | -52.4°C | 3.5% | 55.6hPa | 2.7V | 03:44:17 | 01:36:47 | 00:00:00 | |
| HSKMA3-T | 2026-08-31 06:05:39 | 50.11084 | 8.83672 | 6° | 24km/h | 20328m | 4.7m/s | -52.5°C | 0.2% | 55.5hPa | 2.6V | 03:45:01 | 01:36:50 | 00:00:00 | |
| DL3AQ-11 | 2026-08-31 06:05:36 | 50.11059 | 8.83672 | 352° | 22km/h | 20308m | 4.9m/s | -52.4°C | 1.0% | 55.6hPa | 2.6V | 00:00:00 | 00:00:00 | 00:00:00 | |
| DL1XH-15 | 2026-08-31 06:05:35 | 50.11028 | 8.83680 | 349° | 24km/h | 20283m | 6m/s | -52.3°C | 3.5% | 55.9hPa | 2.6V | 03:44:23 | 01:36:41 | 00:00:00 | |
| AA1-15 | 2026-08-31 06:05:35 | 50.11059 | 8.83672 | 353° | 24km/h | 20308m | 4.9m/s | -52.4°C | 0.4% | 55.6hPa | 2.6V | 03:45:01 | 01:36:46 | 00:00:00 | |
| DK5PH-5 | 2026-08-31 06:05:33 | 50.11047 | 8.83675 | 350° | 18km/h | 20299m | 6.0m/s | -52.3°C | 3.6% | 55.6hPa | 2.6V | 00:00:00 | 01:36:44 | 00:00:00 | |
| DO8TBO-1 | 2026-08-31 06:05:32 | 50.11041 | 8.83677 | 352° | 18km/h | 20293m | 5.0m/s | -52.3°C | 3.6% | 55.7hPa | 2.6V | 03:44:00 | 01:36:43 | 00:00:00 | |
| DM0DOS-11 | 2026-08-31 06:05:31 | 50.11007 | 8.83687 | 349° | 22km/h | 20263m | 4.8m/s | -52.3°C | 3.5% | 56hPa | 2.6V | 03:44:27 | 01:36:37 | 00:00:00 | |
| DL1XH-west | 2026-08-31 06:05:30 | 50.11028 | 8.83680 | 350° | 24km/h | 20283m | 6m/s | -52.3°C | 0.3% | 55.9hPa | 2.6V | 03:45:01 | 01:36:41 | 00:00:00 | |
| HSKMA3-T | 2026-08-31 06:05:28 | 50.11017 | 8.83684 | 348° | 20km/h | 20273m | 4.3m/s | -52.3°C | 0.3% | 56hPa | 2.7V | 03:45:01 | 01:36:39 | 00:00:00 | |
| DJ2KF-10 | 2026-08-31 06:05:27 | 50.11012 | 8.83685 | 348° | 18km/h | 20268m | 5.6m/s | -52.2°C | 3.5% | 56.0hPa | 2.7V | 00:00:00 | 01:36:38 | 00:00:00 | |
| DO3MHA-11 | 2026-08-31 06:05:26 | 50.11007 | 8.83687 | 350° | 18km/h | 20263m | 4.7m/s | -52.3°C | 3.5% | 56.0hPa | 2.6V | 00:00:00 | 01:36:37 | 00:00:00 | |
| DL1XH-15 | 2026-08-31 06:05:25 | 50.10982 | 8.83692 | 357° | 18km/h | 20234m | 5.2m/s | -52.3°C | 3.5% | 56.3hPa | 2.6V | 03:44:33 | 01:36:31 | 00:00:00 | |
| AA1-15 | 2026-08-31 06:05:24 | 50.10997 | 8.83690 | 351° | 18km/h | 20254m | 5.6m/s | -52.3°C | 0.3% | 56.1hPa | 2.6V | 03:45:01 | 01:36:35 | 00:00:00 | |
| DB0ND-19 | 2026-08-31 06:05:24 | 50.10993 | 8.83691 | 351° | 13km/h | 20248m | 5.1m/s | -52.3°C | 0.9% | 56.2hPa | 2.7V | 00:00:00 | 00:00:00 | 00:00:00 | |
| DF7PN | 2026-08-31 06:05:23 | 50.10993 | 8.83691 | 351° | 13km/h | 20248m | 5.1m/s | -52.3°C | 0.9% | 56.2hPa | 2.7V | 00:00:00 | 00:00:00 | 00:00:00 | |
| DF2AP-13 | 2026-08-31 06:05:22 | 50.10990 | 8.83691 | 356° | 16km/h | 20244m | 3.9m/s | -52.2°C | 3.4% | 56.1hPa | 2.7V | 00:00:00 | 01:36:33 | 00:00:00 | |
| DM0DOS-11 | 2026-08-31 06:05:21 | 50.10962 | 8.83693 | 351° | 20km/h | 20214m | 4.8m/s | -52.5°C | 3.5% | 56.5hPa | 2.7V | 03:44:37 | 01:36:27 | 00:00:00 | |
| DJ2DS-15 | 2026-08-31 06:05:21 | 50.10986 | 8.83692 | 358° | 18km/h | 20240m | 5.5m/s | -52.2°C | 3.5% | 56.2hPa | 2.6V | 03:44:00 | 01:36:32 | 00:00:00 | |
| DL3AQ-11 | 2026-08-31 06:05:20 | 50.10977 | 8.83692 | 359° | 20km/h | 20229m | 4.2m/s | -52.3°C | 0.9% | 56.4hPa | 2.6V | 00:00:00 | 00:00:00 | 00:00:00 | |
| DL1XH1-15 | 2026-08-31 06:05:19 | 50.10951 | 8.83697 | 341° | 22km/h | 20204m | 4.7m/s | -52.7°C | 3.5% | 56.6hPa | 2.6V | 03:44:39 | 01:36:25 | 00:00:00 | |
| DL1XH-west | 2026-08-31 06:05:19 | 50.10977 | 8.83692 | 359° | 20km/h | 20229m | 4.2m/s | -52.3°C | 0.3% | 56.4hPa | 2.6V | 03:45:01 | 01:36:30 | 00:00:00 | |
| HSKMA3-T | 2026-08-31 06:05:17 | 50.10967 | 8.83692 | 358° | 20km/h | 20219m | 4.8m/s | -52.4°C | 0.3% | 56.4hPa | 2.7V | 03:45:01 | 01:36:28 | 00:00:00 | |
| DO3MHA-11 | 2026-08-31 06:05:16 | 50.10962 | 8.83693 | 352° | 16km/h | 20215m | 4.7m/s | -52.4°C | 3.5% | 56.4hPa | 2.7V | 00:00:00 | 01:36:27 | 00:00:00 | |
| DL1XH-15 | 2026-08-31 06:05:15 | 50.10936 | 8.83702 | 3° | 13km/h | 20183m | 5.8m/s | -52.7°C | 3.5% | 56.7hPa | 2.7V | 03:44:43 | 01:36:21 | 00:00:00 | |
| AA1-15 | 2026-08-31 06:05:13 | 50.10947 | 8.83699 | 341° | 18km/h | 20199m | 5.6m/s | -52.7°C | 0.3% | 56.6hPa | 2.6V | 03:45:01 | 01:36:24 | 00:00:00 | |
| DL4BBY-15 | 2026-08-31 06:05:12 | 50.10943 | 8.83701 | 346° | 16km/h | 20194m | 4.8m/s | -53.2°C | 0% | 0hPa | 2.6V | 00:00:00 | 00:00:00 | 00:00:00 | |
| DB0NH | 2026-08-31 06:05:11 | 50.10939 | 8.83702 | 356° | 16km/h | 20189m | 4.7m/s | -52.6°C | 3.5% | 56.6hPa | 2.6V | 00:00:00 | 01:36:22 | 00:00:00 | |
| DL0LBS | 2026-08-31 06:05:10 | 50.10939 | 8.83702 | 357° | 13km/h | 20189m | 4.8m/s | -52.7°C | 1.0% | 56.7hPa | 2.7V | 03:45:00 | 00:00:00 | 00:00:00 | |
| DL1XH1-15 | 2026-08-31 06:05:09 | 50.10914 | 8.83683 | 30° | 16km/h | 20153m | 5.7m/s | -52.6°C | 3.5% | 57hPa | 2.7V | 03:44:49 | 01:36:15 | 00:00:00 | |
| BIOWL1-15 | 2026-08-31 06:05:09 | 50.10932 | 8.83701 | 13° | 16km/h | 20178m | 4.8m/s | -52.8°C | 0.3% | 56.8hPa | 2.7V | 03:45:01 | 01:36:20 | 00:00:00 | |
| DL1XH-west | 2026-08-31 06:05:08 | 50.10928 | 8.83699 | 25° | 16km/h | 20173m | 5.1m/s | -52.8°C | 0.3% | 56.8hPa | 2.7V | 03:45:01 | 01:36:19 | 00:00:00 | |
| HSKMA3-T | 2026-08-31 06:05:07 | 50.10925 | 8.83696 | 37° | 18km/h | 20167m | 6m/s | -52.8°C | 0.3% | 56.9hPa | 2.6V | 03:45:01 | 01:36:18 | 00:00:00 | |
| AA1-15 | 2026-08-31 06:05:02 | 50.10907 | 8.83679 | 7° | 15km/h | 20143m | 4.7m/s | -52.6°C | 0.3% | 57.1hPa | 2.7V | 03:45:01 | 01:36:13 | 00:00:00 | |
| DM0DOS-11 | 2026-08-31 06:05:01 | 50.10884 | 8.83674 | 9° | 18km/h | 20114m | 4.4m/s | -52.9°C | 3.5% | 57.3hPa | 2.6V | 03:44:57 | 01:36:07 | 00:00:00 | |
| DJ2DS-15 | 2026-08-31 06:05:01 | 50.10903 | 8.83678 | 4° | 16km/h | 20138m | 5.5m/s | -52.6°C | 3.5% | 57.1hPa | 2.6V | 00:00:00 | 01:36:12 | 00:00:00 | |
| DL1XH1-15 | 2026-08-31 06:04:59 | 50.10875 | 8.83669 | 27° | 16km/h | 20105m | 5.1m/s | -53°C | 3.5% | 57.4hPa | 2.7V | 03:44:59 | 01:36:05 | 00:00:00 | |
| DL1XH-west | 2026-08-31 06:04:58 | 50.10892 | 8.83676 | 9° | 16km/h | 20124m | 5.2m/s | -52.9°C | 0.3% | 57.3hPa | 2.7V | 03:45:01 | 01:36:09 | 00:00:00 | |
| HSKMA3-T | 2026-08-31 06:04:56 | 50.10884 | 8.83674 | 9° | 18km/h | 20114m | 4.4m/s | -52.9°C | 0.3% | 57.4hPa | 2.6V | 03:45:01 | 01:36:07 | 00:00:00 | |
| DL3AQ-11 | 2026-08-31 06:04:55 | 50.10879 | 8.83672 | 18° | 16km/h | 20110m | 4.7m/s | -52.9°C | 0.9% | 57.4hPa | 2.6V | 00:00:00 | 00:00:00 | 00:00:00 | |
| DJ2DS-15 | 2026-08-31 06:04:54 | 50.10875 | 8.83669 | 27° | 15km/h | 20105m | 5.1m/s | -53.0°C | 0.9% | 57.4hPa | 2.6V | 00:00:00 | 00:00:00 | 00:00:00 | |
| DB0ND-19 | 2026-08-31 06:04:53 | 50.10869 | 8.83662 | 44° | 15km/h | 20095m | 4.5m/s | -53.0°C | 1.0% | 57.5hPa | 2.6V | 00:00:00 | 00:00:00 | 00:00:00 | |
| DF2AP-13 | 2026-08-31 06:04:52 | 50.10869 | 8.83662 | 45° | 18km/h | 20095m | 4.4m/s | -52.9°C | 3.5% | 57.5hPa | 2.6V | 03:45:00 | 01:36:03 | 00:00:00 | |
| DM0DOS-11 | 2026-08-31 06:04:51 | 50.10849 | 8.83640 | 24° | 16km/h | 20064m | 5.9m/s | -53.2°C | 3.6% | 57.8hPa | 2.6V | 03:45:07 | 01:35:57 | 00:00:00 | |
| AA1-15 | 2026-08-31 06:04:51 | 50.10866 | 8.83658 | 42° | 16km/h | 20090m | 5.9m/s | -53°C | 0.3% | 57.6hPa | 2.6V | 03:45:52 | 01:36:02 | 00:00:00 | |
| DL1XH-west | 2026-08-31 06:04:47 | 50.10852 | 8.83643 | 28° | 15km/h | 20069m | 3.7m/s | -53.1°C | 0.3% | 57.7hPa | 2.7V | 03:45:52 | 01:35:58 | 00:00:00 | |
| HSKMA3-T | 2026-08-31 06:04:45 | 50.10845 | 8.83637 | 22° | 20km/h | 20059m | 4.9m/s | -53.3°C | 0.4% | 57.8hPa | 2.6V | 03:45:52 | 01:35:56 | 00:00:00 | |
| DD1CC8 | 2026-08-31 06:04:43 | 50.10832 | 8.83629 | 26° | 16km/h | 20044m | 4.6m/s | -53.5°C | 1.0% | 58.0hPa | 2.7V | 00:00:00 | 00:00:00 | 00:00:00 | |
| DL4BBY-15 | 2026-08-31 06:04:42 | 50.10832 | 8.83629 | 27° | 20km/h | 20044m | 4.5m/s | -54.1°C | 0% | 0hPa | 2.7V | 00:00:00 | 00:00:00 | 00:00:00 | |
| DM0DOS-11 | 2026-08-31 06:04:41 | 50.10812 | 8.83601 | 58° | 15km/h | 20013m | 4.5m/s | -53.9°C | 3.7% | 58.2hPa | 2.7V | 03:45:17 | 01:35:47 | 00:00:00 | |
| AA1-15 | 2026-08-31 06:04:40 | 50.10825 | 8.83621 | 38° | 18km/h | 20034m | 5.5m/s | -53.5°C | 0.4% | 58.1hPa | 2.6V | 03:45:52 | 01:35:51 | 00:00:00 | |
| DL1XH1-15 | 2026-08-31 06:04:39 | 50.10808 | 8.83591 | 50° | 16km/h | 20003m | 5.3m/s | -54°C | 3.8% | 58.3hPa | 2.6V | 03:45:19 | 01:35:45 | 00:00:00 | |
| BIOWL1-15 | 2026-08-31 06:04:39 | 50.10815 | 8.83606 | 54° | 16km/h | 20019m | 6.3m/s | -53.8°C | 0.4% | 58.2hPa | 2.7V | 03:45:52 | 01:35:48 | 00:00:00 | |
| DL1XH-west | 2026-08-31 06:04:36 | 50.10812 | 8.83601 | 59° | 15km/h | 20013m | 4.5m/s | -53.9°C | 0.5% | 58.3hPa | 2.7V | 03:45:52 | 01:35:47 | 00:00:00 | |
| DO3MHA-11 | 2026-08-31 06:04:36 | 50.10812 | 8.83601 | 59° | 16km/h | 20013m | 4.4m/s | -53.8°C | 3.7% | 58.2hPa | 2.7V | 00:00:00 | 01:35:47 | 00:00:00 | |
| DL1XH-15 | 2026-08-31 06:04:35 | 50.10796 | 8.83572 | 42° | 15km/h | 19984m | 4m/s | -54.2°C | 3.8% | 58.5hPa | 2.7V | 03:45:23 | 01:35:41 | 00:00:00 | |
| HSKMA3-T | 2026-08-31 06:04:35 | 50.10810 | 8.83596 | 58° | 15km/h | 20009m | 5m/s | -53.9°C | 0.4% | 58.3hPa | 2.6V | 03:45:52 | 01:35:46 | 00:00:00 | |
| DK5PH-5 | 2026-08-31 06:04:33 | 50.10805 | 8.83585 | 46° | 22km/h | 19999m | 4.1m/s | -54.0°C | 3.7% | 58.3hPa | 2.7V | 00:00:00 | 01:35:44 | 00:00:00 | |
| DM0DOS-11 | 2026-08-31 06:04:31 | 50.10784 | 8.83552 | 53° | 16km/h | 19963m | 5.5m/s | -54.2°C | 3.8% | 58.7hPa | 2.7V | 03:45:27 | 01:35:37 | 00:00:00 | |
| DO8TBO-1 | 2026-08-31 06:04:31 | 50.10799 | 8.83576 | 45° | 20km/h | 19989m | 5.4m/s | -54.1°C | 3.7% | 58.4hPa | 2.7V | 00:00:00 | 01:35:42 | 00:00:00 | |
| BIOWL9-15 | 2026-08-31 06:04:30 | 50.10796 | 8.83572 | 42° | 15km/h | 19984m | 4.0m/s | -54.2°C | 1.1% | 58.5hPa | 2.7V | 00:00:00 | 00:00:00 | 00:00:00 | |
| DL1XH1-15 | 2026-08-31 06:04:29 | 50.10779 | 8.83540 | 61° | 20km/h | 19954m | 4.9m/s | -54.3°C | 3.9% | 58.8hPa | 2.7V | 03:45:29 | 01:35:35 | 00:00:00 | |
| AA1-15 | 2026-08-31 06:04:29 | 50.10793 | 8.83568 | 42° | 16km/h | 19979m | 5.5m/s | -54.3°C | 0.5% | 58.6hPa | 2.6V | 03:45:52 | 01:35:40 | 00:00:00 | |
| BIOWL1-15 | 2026-08-31 06:04:29 | 50.10787 | 8.83558 | 48° | 18km/h | 19969m | 5.1m/s | -54.3°C | 0.4% | 58.7hPa | 2.6V | 03:45:52 | 01:35:38 | 00:00:00 | |
| DL1XH-west | 2026-08-31 06:04:25 | 50.10781 | 8.83547 | 60° | 18km/h | 19959m | 4.3m/s | -54.2°C | 0.5% | 58.8hPa | 2.7V | 03:45:52 | 01:35:36 | 00:00:00 | |
| DB0ND-19 | 2026-08-31 06:04:22 | 50.10771 | 8.83517 | 64° | 24km/h | 19939m | 4.8m/s | -54.3°C | 1.1% | 59.0hPa | 2.7V | 00:00:00 | 00:00:00 | 00:00:00 | |
| DM0DOS-11 | 2026-08-31 06:04:21 | 50.10756 | 8.83478 | 48° | 24km/h | 19915m | 3.7m/s | -54°C | 3.8% | 59.2hPa | 2.7V | 03:45:37 | 01:35:27 | 00:00:00 | |
| DJ2DS-15 | 2026-08-31 06:04:21 | 50.10771 | 8.83517 | 65° | 24km/h | 19939m | 4.7m/s | -54.2°C | 3.8% | 58.9hPa | 2.6V | 00:00:00 | 01:35:32 | 00:00:00 | |
| DO3DL | 2026-08-31 06:04:20 | 50.10771 | 8.83517 | 66° | 24km/h | 19939m | 4.8m/s | -54.3°C | 1.1% | 59.0hPa | 2.6V | 00:00:00 | 00:00:00 | 00:00:00 | |
| DL1XH1-15 | 2026-08-31 06:04:19 | 50.10749 | 8.83464 | 49° | 20km/h | 19905m | 4.9m/s | -54°C | 3.8% | 59.2hPa | 2.6V | 03:45:39 | 01:35:25 | 00:00:00 | |
| AA1-15 | 2026-08-31 06:04:18 | 50.10763 | 8.83492 | 59° | 22km/h | 19924m | 5.6m/s | -54.1°C | 0.5% | 59.1hPa | 2.6V | 03:45:52 | 01:35:29 | 00:00:00 | |
| BIOWL1-15 | 2026-08-31 06:04:16 | 50.10756 | 8.83478 | 48° | 24km/h | 19915m | 3.7m/s | -54.1°C | 0.4% | 59.2hPa | 2.7V | 03:45:52 | 01:35:27 | 00:00:00 | |
| DL1XH-west | 2026-08-31 06:04:14 | 50.10749 | 8.83464 | 50° | 20km/h | 19905m | 4.9m/s | -54°C | 0.5% | 59.2hPa | 2.6V | 03:45:52 | 01:35:25 | 00:00:00 | |
| BIOWL1-15 | 2026-08-31 06:04:11 | 50.10714 | 8.83400 | 52° | 27km/h | 19860m | 4.8m/s | -54°C | 0.4% | 59.7hPa | 2.7V | 03:45:52 | 01:35:16 | 00:00:00 | |
| DB0NH | 2026-08-31 06:04:11 | 50.10738 | 8.83445 | 48° | 26km/h | 19891m | 5.3m/s | -54.0°C | 3.8% | 59.3hPa | 2.6V | 00:00:00 | 01:35:22 | 00:00:00 | |
| DB0UT-7 | 2026-08-31 06:04:09 | 50.10730 | 8.83431 | 48° | 26km/h | 19881m | 5.4m/s | -54.0°C | 3.7% | 59.4hPa | 2.6V | 00:00:00 | 00:00:00 | 00:00:00 | |
| DM0DOS-11 | 2026-08-31 06:04:08 | 50.10718 | 8.83408 | 53° | 26km/h | 19865m | 6.2m/s | -54°C | 3.8% | 59.6hPa | 2.6V | 03:45:47 | 01:35:17 | 00:00:00 | |
| AA1-15 | 2026-08-31 06:04:07 | 50.10722 | 8.83416 | 53° | 24km/h | 19871m | 4.5m/s | -54°C | 0.5% | 59.6hPa | 2.6V | 03:45:52 | 01:35:18 | 00:00:00 | |
| DL1XH1-15 | 2026-08-31 06:04:05 | 50.10710 | 8.83391 | 54° | 27km/h | 19855m | 4.5m/s | -54°C | 3.7% | 59.7hPa | 2.7V | 03:45:49 | 01:35:15 | 00:00:00 | |
| DL1XH-west | 2026-08-31 06:04:04 | 50.10710 | 8.83391 | 54° | 27km/h | 19855m | 4.6m/s | -54°C | 0.5% | 59.7hPa | 2.7V | 03:45:52 | 01:35:15 | 00:00:00 | |
| HSKMA3-T | 2026-08-31 06:04:03 | 50.10706 | 8.83383 | 56° | 26km/h | 19850m | 5.4m/s | -54°C | 0.5% | 59.7hPa | 2.7V | 03:45:52 | 01:35:14 | 00:00:00 | |
| DJ2DS-15 | 2026-08-31 06:04:01 | 50.10699 | 8.83366 | 54° | 26km/h | 19841m | 5.8m/s | -54.0°C | 3.7% | 59.8hPa | 2.6V | 03:45:00 | 01:35:12 | 00:00:00 | |
| DO2KSM | 2026-08-31 06:04:00 | 50.10699 | 8.83366 | 54° | 27km/h | 19841m | 5.8m/s | -54.1°C | 1.0% | 59.8hPa | 2.7V | 03:45:00 | 00:00:00 | 00:00:00 | |
| DL1XH1-15 | 2026-08-31 06:03:59 | 50.10667 | 8.83324 | 33° | 24km/h | 19805m | 4.8m/s | -54.2°C | 3.6% | 60.2hPa | 2.7V | 03:45:59 | 01:35:05 | 00:00:00 | |
| DM0DOS-11 | 2026-08-31 06:03:58 | 50.10677 | 8.83333 | 32° | 20km/h | 19815m | 4.3m/s | -54.2°C | 3.7% | 60.1hPa | 2.6V | 03:45:57 | 01:35:07 | 00:00:00 | |
| AA1-15 | 2026-08-31 06:03:56 | 50.10676 | 8.83333 | 33° | 20km/h | 19815m | 4.3m/s | -54.2°C | 0.4% | 60.1hPa | 2.6V | 03:47:34 | 01:35:07 | 00:00:00 | |
| DO3MHA-11 | 2026-08-31 06:03:56 | 50.10676 | 8.83333 | 33° | 24km/h | 19816m | 4.2m/s | -54.1°C | 3.7% | 60.0hPa | 2.6V | 00:00:00 | 01:35:07 | 00:00:00 | |
| DL1XH-15 | 2026-08-31 06:03:55 | 50.10647 | 8.83304 | 37° | 26km/h | 19785m | 5.8m/s | -54.4°C | 3.8% | 60.4hPa | 2.6V | 03:46:03 | 01:35:01 | 00:00:00 | |
| BIOWL1-15 | 2026-08-31 06:03:55 | 50.10672 | 8.83329 | 34° | 22km/h | 19810m | 5.5m/s | -54.2°C | 0.4% | 60.1hPa | 2.6V | 03:46:43 | 01:35:06 | 00:00:00 | |
| DL1XH-west | 2026-08-31 06:03:53 | 50.10662 | 8.83319 | 31° | 24km/h | 19800m | 4.8m/s | -54.2°C | 0.4% | 60.2hPa | 2.7V | 03:46:43 | 01:35:04 | 00:00:00 | |
| HSKMA3-T | 2026-08-31 06:03:52 | 50.10657 | 8.83314 | 30° | 22km/h | 19795m | 5.4m/s | -54.2°C | 0.4% | 60.3hPa | 2.7V | 03:46:43 | 01:35:03 | 00:00:00 | |
| DB0ND-19 | 2026-08-31 06:03:51 | 50.10647 | 8.83304 | 37° | 24km/h | 19785m | 5.8m/s | -54.4°C | 1.1% | 60.4hPa | 2.7V | 00:00:00 | 00:00:00 | 00:00:00 | |
| DF7PN | 2026-08-31 06:03:50 | 50.10647 | 8.83304 | 37° | 24km/h | 19785m | 5.8m/s | -54.4°C | 1.1% | 60.4hPa | 2.7V | 00:00:00 | 00:00:00 | 00:00:00 | |
| DO3DL | 2026-08-31 06:03:49 | 50.10647 | 8.83304 | 38° | 26km/h | 19785m | 5.8m/s | -54.4°C | 1.1% | 60.4hPa | 2.7V | 03:46:00 | 00:00:00 | 00:00:00 | |
| DJ2KF-10 | 2026-08-31 06:03:48 | 50.10636 | 8.83291 | 38° | 26km/h | 19776m | 4.6m/s | -54.6°C | 3.9% | 60.4hPa | 2.7V | 03:46:00 | 01:34:59 | 00:00:00 | |
| DL1XH1-15 | 2026-08-31 06:03:47 | 50.10614 | 8.83269 | 28° | 29km/h | 19757m | 5m/s | -54.9°C | 4% | 60.6hPa | 2.6V | 03:46:09 | 01:34:55 | 00:00:00 | |
| DL3AQ-11 | 2026-08-31 06:03:47 | 50.10626 | 8.83279 | 30° | 26km/h | 19766m | 4.0m/s | -54.9°C | 1.1% | 60.5hPa | 2.6V | 00:00:00 | 00:00:00 | 00:00:00 | |
| DL1XH-15 | 2026-08-31 06:03:46 | 50.10587 | 8.83253 | 8° | 26km/h | 19738m | 5m/s | -55°C | 3.9% | 60.8hPa | 2.6V | 03:46:13 | 01:34:51 | 00:00:00 | |
| AA1-15 | 2026-08-31 06:03:45 | 50.10620 | 8.83274 | 29° | 27km/h | 19762m | 4.7m/s | -54.9°C | 0.6% | 60.6hPa | 2.6V | 03:47:34 | 01:34:56 | 00:00:00 | |
| BIOWL1-15 | 2026-08-31 06:03:44 | 50.10613 | 8.83269 | 28° | 29km/h | 19757m | 5.1m/s | -54.9°C | 0.6% | 60.6hPa | 2.6V | 03:46:43 | 01:34:55 | 00:00:00 | |
| HSKMA3-T | 2026-08-31 06:03:42 | 50.10600 | 8.83259 | 22° | 29km/h | 19748m | 3.8m/s | -54.9°C | 0.5% | 60.7hPa | 2.7V | 03:46:43 | 01:34:53 | 00:00:00 | |
| DL4BBY-15 | 2026-08-31 06:03:42 | 50.10600 | 8.83258 | 23° | 26km/h | 19749m | 3.7m/s | -55.5°C | 0% | 0hPa | 2.6V | 00:00:00 | 00:00:00 | 00:00:00 | |
| DD1CC8 | 2026-08-31 06:03:41 | 50.10586 | 8.83253 | 8° | 26km/h | 19738m | 5.1m/s | -55.0°C | 1.1% | 60.8hPa | 2.6V | 00:00:00 | 00:00:00 | 00:00:00 | |
| DM0DOS-11 | 2026-08-31 06:03:40 | 50.10555 | 8.83252 | 355° | 22km/h | 19712m | 4.4m/s | -55.1°C | 4% | 61hPa | 2.6V | 03:46:18 | 01:34:46 | 00:00:00 | |
| DB0UT-7 | 2026-08-31 06:03:38 | 50.10573 | 8.83251 | 3° | 24km/h | 19728m | 4.6m/s | -55.0°C | 3.9% | 60.9hPa | 2.7V | 00:00:00 | 01:34:49 | 00:00:00 | |
| DC4HF-4 | 2026-08-31 06:03:37 | 50.10566 | 8.83251 | 358° | 26km/h | 19723m | 4.4m/s | -55.1°C | 1.1% | 61.0hPa | 2.6V | 00:00:00 | 00:00:00 | 00:00:00 | |
| DL3AQ-11 | 2026-08-31 06:03:36 | 50.10554 | 8.83252 | 355° | 20km/h | 19713m | 4.4m/s | -55.1°C | 1.1% | 61.0hPa | 2.6V | 00:00:00 | 00:00:00 | 00:00:00 | |
| DL1XH-15 | 2026-08-31 06:03:35 | 50.10526 | 8.83239 | 31° | 27km/h | 19689m | 5.7m/s | -55.2°C | 4% | 61.3hPa | 2.6V | 03:46:23 | 01:34:41 | 00:00:00 | |
| DL1XH1-15 | 2026-08-31 06:03:35 | 50.10549 | 8.83252 | 2° | 22km/h | 19708m | 3.7m/s | -55.1°C | 4% | 61.1hPa | 2.6V | 03:46:19 | 01:34:45 | 00:00:00 | |
| AA1-15 | 2026-08-31 06:03:34 | 50.10549 | 8.83252 | 3° | 22km/h | 19708m | 3.7m/s | -55.1°C | 0.6% | 61.1hPa | 2.6V | 03:47:34 | 01:34:45 | 00:00:00 | |
| DL1XH-west | 2026-08-31 06:03:32 | 50.10538 | 8.83248 | 21° | 26km/h | 19699m | 4.1m/s | -55.2°C | 0.6% | 61.2hPa | 2.7V | 03:46:43 | 01:34:43 | 00:00:00 | |
| HSKMA3-T | 2026-08-31 06:03:31 | 50.10531 | 8.83244 | 27° | 27km/h | 19695m | 4.4m/s | -55.2°C | 0.6% | 61.2hPa | 2.7V | 03:46:43 | 01:34:42 | 00:00:00 | |
| DH7VM-15 | 2026-08-31 06:03:30 | 50.10531 | 8.83244 | 28° | 27km/h | 19695m | 4.4m/s | -55.2°C | 1.1% | 61.2hPa | 2.6V | 00:00:00 | 00:00:00 | 00:00:00 | |
| DL1XH1-15 | 2026-08-31 06:03:29 | 50.10487 | 8.83210 | 19° | 22km/h | 19660m | 5.3m/s | -55°C | 3.9% | 61.5hPa | 2.6V | 03:46:29 | 01:34:35 | 00:00:00 | |
| BIOWL9-15 | 2026-08-31 06:03:28 | 50.10513 | 8.83228 | 30° | 27km/h | 19680m | 4.4m/s | -55.2°C | 1.1% | 61.4hPa | 2.7V | 00:00:00 | 00:00:00 | 00:00:00 | |
| Es werden nur die letzten 3500 von 5699 Frames angezeigt. GPX/KML und Diagramme bleiben verfügbar. | |||||||||||||||